<?xml version='1.0' encoding='UTF-8'?><gpx version="1.1" creator="JPX - https://github.com/jenetics/jpx" xmlns="http://www.topografix.com/GPX/1/1"><trk><trkseg><trkpt lat="45.601705682178874" lon="12.196236718422332"><ele>9.0</ele><time>2026-04-06T08:05:13Z</time></trkpt><trkpt lat="45.60170221717038" lon="12.196371101138423"><ele>9.0</ele><time>2026-04-06T08:05:14Z</time></trkpt><trkpt lat="45.601690508579196" lon="12.196521406971224"><ele>9.0</ele><time>2026-04-06T08:05:15Z</time></trkpt><trkpt lat="45.60168451826606" lon="12.196693146753775"><ele>9.0</ele><time>2026-04-06T08:05:16Z</time></trkpt><trkpt lat="45.60167674873537" lon="12.196858227303368"><ele>9.0</ele><time>2026-04-06T08:05:17Z</time></trkpt><trkpt lat="45.60165786145757" lon="12.197128926985645"><ele>10.0</ele><time>2026-04-06T08:05:18Z</time></trkpt><trkpt lat="45.60163838900349" lon="12.19739309781687"><ele>11.0</ele><time>2026-04-06T08:05:19Z</time></trkpt><trkpt lat="45.601628121444655" lon="12.197675013317236"><ele>12.0</ele><time>2026-04-06T08:05:20Z</time></trkpt><trkpt lat="45.601617846012516" lon="12.19795280696556"><ele>12.0</ele><time>2026-04-06T08:05:21Z</time></trkpt><trkpt lat="45.601599928064765" lon="12.198255698726058"><ele>12.0</ele><time>2026-04-06T08:05:22Z</time></trkpt><trkpt lat="45.60157992176821" lon="12.198584953965499"><ele>12.0</ele><time>2026-04-06T08:05:23Z</time></trkpt><trkpt lat="45.601555943356196" lon="12.198908527409763"><ele>11.333333333333334</ele><time>2026-04-06T08:05:24Z</time></trkpt><trkpt lat="45.60153875987616" lon="12.19919717849236"><ele>10.666666666666668</ele><time>2026-04-06T08:05:25Z</time></trkpt><trkpt lat="45.60152018738612" lon="12.199498612728844"><ele>10.0</ele><time>2026-04-06T08:05:26Z</time></trkpt><trkpt lat="45.601496206057206" lon="12.199822864562849"><ele>9.5</ele><time>2026-04-06T08:05:27Z</time></trkpt><trkpt lat="45.60147424810344" lon="12.200159252599015"><ele>9.0</ele><time>2026-04-06T08:05:28Z</time></trkpt><trkpt lat="45.60145042352776" lon="12.200513014917478"><ele>8.5</ele><time>2026-04-06T08:05:29Z</time></trkpt><trkpt lat="45.60142677902112" lon="12.200856860633243"><ele>8.0</ele><time>2026-04-06T08:05:30Z</time></trkpt><trkpt lat="45.60140894597816" lon="12.201180424709838"><ele>8.0</ele><time>2026-04-06T08:05:31Z</time></trkpt><trkpt lat="45.60138873779763" lon="12.201469132254987"><ele>8.0</ele><time>2026-04-06T08:05:32Z</time></trkpt><trkpt lat="45.60137017293788" lon="12.201737357056405"><ele>8.0</ele><time>2026-04-06T08:05:33Z</time></trkpt><trkpt lat="45.60135305804104" lon="12.202010140637302"><ele>8.333333333333332</ele><time>2026-04-06T08:05:34Z</time></trkpt><trkpt lat="45.6013403325298" lon="12.202284739369402"><ele>8.666666666666666</ele><time>2026-04-06T08:05:35Z</time></trkpt><trkpt lat="45.60131725335299" lon="12.202543672230949"><ele>9.0</ele><time>2026-04-06T08:05:36Z</time></trkpt><trkpt lat="45.60129525067681" lon="12.20279818039877"><ele>9.333333333333334</ele><time>2026-04-06T08:05:37Z</time></trkpt><trkpt lat="45.601229102358296" lon="12.203069716146713"><ele>9.666666666666668</ele><time>2026-04-06T08:05:38Z</time></trkpt><trkpt lat="45.601167762559506" lon="12.203343403723588"><ele>10.0</ele><time>2026-04-06T08:05:39Z</time></trkpt><trkpt lat="45.60104919319277" lon="12.203542275646884"><ele>10.333333333333334</ele><time>2026-04-06T08:05:40Z</time></trkpt><trkpt lat="45.60095053116843" lon="12.20372350046073"><ele>10.666666666666666</ele><time>2026-04-06T08:05:41Z</time></trkpt><trkpt lat="45.600851074963884" lon="12.203885279948112"><ele>11.0</ele><time>2026-04-06T08:05:42Z</time></trkpt><trkpt lat="45.600758129762845" lon="12.204036043303518"><ele>11.0</ele><time>2026-04-06T08:05:43Z</time></trkpt><trkpt lat="45.600662022012244" lon="12.204154054224764"><ele>11.0</ele><time>2026-04-06T08:05:44Z</time></trkpt><trkpt lat="45.60056518512495" lon="12.204274612387948"><ele>11.0</ele><time>2026-04-06T08:05:45Z</time></trkpt><trkpt lat="45.60047014245183" lon="12.204418058867049"><ele>11.0</ele><time>2026-04-06T08:05:46Z</time></trkpt><trkpt lat="45.60035867753418" lon="12.20454941813179"><ele>10.666666666666666</ele><time>2026-04-06T08:05:47Z</time></trkpt><trkpt lat="45.600252870455" lon="12.204686175730359"><ele>10.333333333333334</ele><time>2026-04-06T08:05:48Z</time></trkpt><trkpt lat="45.600140455554374" lon="12.204850754471165"><ele>10.0</ele><time>2026-04-06T08:05:49Z</time></trkpt><trkpt lat="45.60001316319062" lon="12.205041960147547"><ele>9.666666666666668</ele><time>2026-04-06T08:05:49.999Z</time></trkpt><trkpt lat="45.59986090631668" lon="12.20523592278386"><ele>9.333333333333334</ele><time>2026-04-06T08:05:50.999Z</time></trkpt><trkpt lat="45.59970450069408" lon="12.20546198092219"><ele>9.0</ele><time>2026-04-06T08:05:51.999Z</time></trkpt><trkpt lat="45.59951185167987" lon="12.205707869687554"><ele>9.0</ele><time>2026-04-06T08:05:52.999Z</time></trkpt><trkpt lat="45.59930067757704" lon="12.205990687206212"><ele>9.0</ele><time>2026-04-06T08:05:53.999Z</time></trkpt><trkpt lat="45.59908676516643" lon="12.206283830940066"><ele>9.0</ele><time>2026-04-06T08:05:54.999Z</time></trkpt><trkpt lat="45.59886652757862" lon="12.20658350354684"><ele>9.0</ele><time>2026-04-06T08:05:55.999Z</time></trkpt><trkpt lat="45.59866291752969" lon="12.206864003374337"><ele>9.0</ele><time>2026-04-06T08:05:56.999Z</time></trkpt><trkpt lat="45.598476700418544" lon="12.20711235168866"><ele>9.0</ele><time>2026-04-06T08:05:57.999Z</time></trkpt><trkpt lat="45.598301170886344" lon="12.207350205277093"><ele>9.0</ele><time>2026-04-06T08:05:58.999Z</time></trkpt><trkpt lat="45.598137153368704" lon="12.207567583842291"><ele>9.0</ele><time>2026-04-06T08:05:59.999Z</time></trkpt><trkpt lat="45.59798139656851" lon="12.207775626750543"><ele>9.0</ele><time>2026-04-06T08:06:00.999Z</time></trkpt><trkpt lat="45.59782715982145" lon="12.207982065128128"><ele>9.0</ele><time>2026-04-06T08:06:01.999Z</time></trkpt><trkpt lat="45.597677535234325" lon="12.208197053883346"><ele>9.0</ele><time>2026-04-06T08:06:02.999Z</time></trkpt><trkpt lat="45.597530343418505" lon="12.2084070612537"><ele>9.0</ele><time>2026-04-06T08:06:03.999Z</time></trkpt><trkpt lat="45.597392428877015" lon="12.208601876624297"><ele>9.0</ele><time>2026-04-06T08:06:04.999Z</time></trkpt><trkpt lat="45.59728323736324" lon="12.208806189813524"><ele>9.0</ele><time>2026-04-06T08:06:05.999Z</time></trkpt><trkpt lat="45.597188559157566" lon="12.209028205762174"><ele>9.0</ele><time>2026-04-06T08:06:06.999Z</time></trkpt><trkpt lat="45.59712262287377" lon="12.209283586601087"><ele>8.0</ele><time>2026-04-06T08:06:07.999Z</time></trkpt><trkpt lat="45.5970842094517" lon="12.209582669769649"><ele>7.0</ele><time>2026-04-06T08:06:08.999Z</time></trkpt><trkpt lat="45.597074863931496" lon="12.20992579461932"><ele>7.0</ele><time>2026-04-06T08:06:09.999Z</time></trkpt><trkpt lat="45.59706876704306" lon="12.210287351931072"><ele>7.0</ele><time>2026-04-06T08:06:10.999Z</time></trkpt><trkpt lat="45.59705165200857" lon="12.210626158614277"><ele>7.333333333333334</ele><time>2026-04-06T08:06:11.999Z</time></trkpt><trkpt lat="45.59703771031576" lon="12.210943522328677"><ele>7.666666666666666</ele><time>2026-04-06T08:06:12.999Z</time></trkpt><trkpt lat="45.597026722904445" lon="12.211256384616572"><ele>8.0</ele><time>2026-04-06T08:06:13.999Z</time></trkpt><trkpt lat="45.59701095276756" lon="12.21157824027908"><ele>8.333333333333332</ele><time>2026-04-06T08:06:14.999Z</time></trkpt><trkpt lat="45.59699422314666" lon="12.211899981988267"><ele>8.666666666666666</ele><time>2026-04-06T08:06:15.999Z</time></trkpt><trkpt lat="45.5969839217559" lon="12.212209211572121"><ele>9.0</ele><time>2026-04-06T08:06:16.999Z</time></trkpt><trkpt lat="45.5969777526753" lon="12.21249497854152"><ele>9.0</ele><time>2026-04-06T08:06:17.999Z</time></trkpt><trkpt lat="45.59696622796444" lon="12.212789003871196"><ele>9.0</ele><time>2026-04-06T08:06:18.999Z</time></trkpt><trkpt lat="45.596951617511536" lon="12.213107370614892"><ele>9.0</ele><time>2026-04-06T08:06:19.999Z</time></trkpt><trkpt lat="45.59693658553772" lon="12.21342550616924"><ele>8.666666666666666</ele><time>2026-04-06T08:06:20.999Z</time></trkpt><trkpt lat="45.5969237363259" lon="12.21373155827231"><ele>8.333333333333332</ele><time>2026-04-06T08:06:21.999Z</time></trkpt><trkpt lat="45.59691137722039" lon="12.214015441606612"><ele>8.0</ele><time>2026-04-06T08:06:22.999Z</time></trkpt><trkpt lat="45.59689626460919" lon="12.214281694921498"><ele>7.666666666666666</ele><time>2026-04-06T08:06:23.999Z</time></trkpt><trkpt lat="45.596885300472564" lon="12.21452874886676"><ele>7.333333333333334</ele><time>2026-04-06T08:06:24.999Z</time></trkpt><trkpt lat="45.59687927496373" lon="12.214772083180074"><ele>7.0</ele><time>2026-04-06T08:06:25.999Z</time></trkpt><trkpt lat="45.59687212622529" lon="12.214992784425876"><ele>7.5</ele><time>2026-04-06T08:06:26.999Z</time></trkpt><trkpt lat="45.59686017385745" lon="12.215190626416693"><ele>8.0</ele><time>2026-04-06T08:06:27.999Z</time></trkpt><trkpt lat="45.59684751946234" lon="12.215375764753468"><ele>8.5</ele><time>2026-04-06T08:06:28.999Z</time></trkpt><trkpt lat="45.596840358698536" lon="12.215561916543649"><ele>9.0</ele><time>2026-04-06T08:06:29.999Z</time></trkpt><trkpt lat="45.596831830052935" lon="12.215750521934623"><ele>9.0</ele><time>2026-04-06T08:06:30.999Z</time></trkpt><trkpt lat="45.5968161963878" lon="12.215945047267535"><ele>9.0</ele><time>2026-04-06T08:06:31.999Z</time></trkpt><trkpt lat="45.59677819100384" lon="12.216158742273674"><ele>9.0</ele><time>2026-04-06T08:06:32.999Z</time></trkpt><trkpt lat="45.59677808197775" lon="12.216374798441525"><ele>9.0</ele><time>2026-04-06T08:06:33.999Z</time></trkpt><trkpt lat="45.59659726962251" lon="12.216522883122659"><ele>8.75</ele><time>2026-04-06T08:06:34.999Z</time></trkpt><trkpt lat="45.59649454666416" lon="12.216650725257592"><ele>8.5</ele><time>2026-04-06T08:06:35.999Z</time></trkpt><trkpt lat="45.59639255435452" lon="12.21674838561881"><ele>8.25</ele><time>2026-04-06T08:06:36.999Z</time></trkpt><trkpt lat="45.5962836463593" lon="12.216806110800347"><ele>8.0</ele><time>2026-04-06T08:06:37.999Z</time></trkpt><trkpt lat="45.596187118153246" lon="12.216833077430426"><ele>7.999999999999999</ele><time>2026-04-06T08:06:38.999Z</time></trkpt><trkpt lat="45.59611154561768" lon="12.216850780010445"><ele>8.0</ele><time>2026-04-06T08:06:39.999Z</time></trkpt><trkpt lat="45.596014410253154" lon="12.216875472275072"><ele>8.0</ele><time>2026-04-06T08:06:41.999Z</time></trkpt><trkpt lat="45.59597087103966" lon="12.216956624090617"><ele>8.0</ele><time>2026-04-06T08:06:44Z</time></trkpt><trkpt lat="45.59603699170826" lon="12.217054031309681"><ele>7.999999999999999</ele><time>2026-04-06T08:06:46Z</time></trkpt><trkpt lat="45.59610120873884" lon="12.217073133438147"><ele>8.0</ele><time>2026-04-06T08:06:47Z</time></trkpt><trkpt lat="45.59618517623747" lon="12.21709830649767"><ele>8.0</ele><time>2026-04-06T08:06:48Z</time></trkpt><trkpt lat="45.59629028111754" lon="12.21714614723652"><ele>8.0</ele><time>2026-04-06T08:06:49Z</time></trkpt><trkpt lat="45.59640695708822" lon="12.217218958196602"><ele>8.0</ele><time>2026-04-06T08:06:50Z</time></trkpt><trkpt lat="45.596539647748024" lon="12.217309252845961"><ele>8.0</ele><time>2026-04-06T08:06:51Z</time></trkpt><trkpt lat="45.59666571779702" lon="12.217387689757812"><ele>8.0</ele><time>2026-04-06T08:06:52Z</time></trkpt><trkpt lat="45.59678684443544" lon="12.217461448773209"><ele>8.0</ele><time>2026-04-06T08:06:53Z</time></trkpt><trkpt lat="45.59693462991895" lon="12.217513685830284"><ele>8.0</ele><time>2026-04-06T08:06:54Z</time></trkpt><trkpt lat="45.59711424952038" lon="12.217529993373352"><ele>8.0</ele><time>2026-04-06T08:06:55Z</time></trkpt><trkpt lat="45.597328924632535" lon="12.217523380456557"><ele>8.0</ele><time>2026-04-06T08:06:56Z</time></trkpt><trkpt lat="45.59754683777331" lon="12.217544162873121"><ele>8.0</ele><time>2026-04-06T08:06:57Z</time></trkpt><trkpt lat="45.59773312124338" lon="12.217580316967789"><ele>8.0</ele><time>2026-04-06T08:06:58Z</time></trkpt><trkpt lat="45.59791348654858" lon="12.217597778594264"><ele>8.0</ele><time>2026-04-06T08:06:59Z</time></trkpt><trkpt lat="45.5980842734801" lon="12.217600143322313"><ele>8.0</ele><time>2026-04-06T08:07:00Z</time></trkpt><trkpt lat="45.5982400713918" lon="12.217546028908155"><ele>8.0</ele><time>2026-04-06T08:07:01Z</time></trkpt><trkpt lat="45.59838865724659" lon="12.21743188488928"><ele>8.0</ele><time>2026-04-06T08:07:02Z</time></trkpt><trkpt lat="45.59854055693939" lon="12.217256969401486"><ele>8.0</ele><time>2026-04-06T08:07:03Z</time></trkpt><trkpt lat="45.598693946557304" lon="12.217036267135407"><ele>8.0</ele><time>2026-04-06T08:07:04Z</time></trkpt><trkpt lat="45.5988501476517" lon="12.21682784721644"><ele>8.0</ele><time>2026-04-06T08:07:05Z</time></trkpt><trkpt lat="45.5990043193708" lon="12.216659145521147"><ele>8.0</ele><time>2026-04-06T08:07:06Z</time></trkpt><trkpt lat="45.59915666507783" lon="12.21650798500859"><ele>8.333333333333332</ele><time>2026-04-06T08:07:07Z</time></trkpt><trkpt lat="45.59933573133514" lon="12.216406790371101"><ele>8.666666666666666</ele><time>2026-04-06T08:07:08Z</time></trkpt><trkpt lat="45.59953147337936" lon="12.216350815673497"><ele>9.0</ele><time>2026-04-06T08:07:09Z</time></trkpt><trkpt lat="45.599742465282375" lon="12.216341816200469"><ele>9.0</ele><time>2026-04-06T08:07:10Z</time></trkpt><trkpt lat="45.59997228205098" lon="12.21637164565046"><ele>9.0</ele><time>2026-04-06T08:07:11Z</time></trkpt><trkpt lat="45.60019862998977" lon="12.216399172826227"><ele>8.666666666666666</ele><time>2026-04-06T08:07:12Z</time></trkpt><trkpt lat="45.60040789352788" lon="12.216391965462519"><ele>8.333333333333332</ele><time>2026-04-06T08:07:13Z</time></trkpt><trkpt lat="45.6006032687394" lon="12.21639874071479"><ele>8.0</ele><time>2026-04-06T08:07:14Z</time></trkpt><trkpt lat="45.6007900545302" lon="12.216409159191562"><ele>8.0</ele><time>2026-04-06T08:07:15Z</time></trkpt><trkpt lat="45.60098288193201" lon="12.21639810682444"><ele>8.0</ele><time>2026-04-06T08:07:16Z</time></trkpt><trkpt lat="45.601197664425065" lon="12.216388433332888"><ele>8.0</ele><time>2026-04-06T08:07:17Z</time></trkpt><trkpt lat="45.6014258244762" lon="12.216407336787286"><ele>8.0</ele><time>2026-04-06T08:07:18Z</time></trkpt><trkpt lat="45.60164076140069" lon="12.21643426486924"><ele>8.0</ele><time>2026-04-06T08:07:19Z</time></trkpt><trkpt lat="45.60184348234407" lon="12.216435385265012"><ele>8.0</ele><time>2026-04-06T08:07:20Z</time></trkpt><trkpt lat="45.60204012694452" lon="12.216430874878853"><ele>8.333333333333332</ele><time>2026-04-06T08:07:21Z</time></trkpt><trkpt lat="45.60222865899301" lon="12.216442097925901"><ele>8.666666666666666</ele><time>2026-04-06T08:07:22Z</time></trkpt><trkpt lat="45.60240609060851" lon="12.216447566011407"><ele>9.0</ele><time>2026-04-06T08:07:23Z</time></trkpt><trkpt lat="45.60257788503846" lon="12.216446959656528"><ele>9.0</ele><time>2026-04-06T08:07:24Z</time></trkpt><trkpt lat="45.60274821978847" lon="12.216530533313255"><ele>9.0</ele><time>2026-04-06T08:07:25Z</time></trkpt><trkpt lat="45.60292119974277" lon="12.216656178524628"><ele>9.0</ele><time>2026-04-06T08:07:26Z</time></trkpt><trkpt lat="45.603067885856774" lon="12.216780965809575"><ele>9.0</ele><time>2026-04-06T08:07:27Z</time></trkpt><trkpt lat="45.60322491826751" lon="12.216871036960189"><ele>9.0</ele><time>2026-04-06T08:07:28Z</time></trkpt><trkpt lat="45.60342003079244" lon="12.216905682954872"><ele>9.0</ele><time>2026-04-06T08:07:29Z</time></trkpt><trkpt lat="45.60364164542126" lon="12.216909214514017"><ele>9.333333333333334</ele><time>2026-04-06T08:07:30Z</time></trkpt><trkpt lat="45.603851153407426" lon="12.21691464610426"><ele>9.666666666666668</ele><time>2026-04-06T08:07:31Z</time></trkpt><trkpt lat="45.60403817519511" lon="12.216922930503657"><ele>10.0</ele><time>2026-04-06T08:07:32Z</time></trkpt><trkpt lat="45.604209373767844" lon="12.216931463203576"><ele>10.0</ele><time>2026-04-06T08:07:33Z</time></trkpt><trkpt lat="45.604374974477075" lon="12.216929874160815"><ele>10.0</ele><time>2026-04-06T08:07:34Z</time></trkpt><trkpt lat="45.60455109843035" lon="12.21691903870107"><ele>10.0</ele><time>2026-04-06T08:07:35Z</time></trkpt><trkpt lat="45.604737985494815" lon="12.216907740796746"><ele>9.666666666666668</ele><time>2026-04-06T08:07:35.999Z</time></trkpt><trkpt lat="45.60493805473844" lon="12.216909768923818"><ele>9.333333333333334</ele><time>2026-04-06T08:07:36.999Z</time></trkpt><trkpt lat="45.605151053235446" lon="12.216886409792453"><ele>9.0</ele><time>2026-04-06T08:07:37.999Z</time></trkpt><trkpt lat="45.60536728785221" lon="12.216811796541062"><ele>9.0</ele><time>2026-04-06T08:07:38.999Z</time></trkpt><trkpt lat="45.60559246446706" lon="12.216703047539077"><ele>9.0</ele><time>2026-04-06T08:07:39.999Z</time></trkpt><trkpt lat="45.60582573420698" lon="12.216616657643744"><ele>9.0</ele><time>2026-04-06T08:07:40.999Z</time></trkpt><trkpt lat="45.60603711677145" lon="12.21652483886089"><ele>9.0</ele><time>2026-04-06T08:07:41.999Z</time></trkpt><trkpt lat="45.60622469068834" lon="12.216425239867654"><ele>9.0</ele><time>2026-04-06T08:07:42.999Z</time></trkpt><trkpt lat="45.60642195712939" lon="12.216385555745594"><ele>9.333333333333334</ele><time>2026-04-06T08:07:43.999Z</time></trkpt><trkpt lat="45.6066320803658" lon="12.216353984064428"><ele>9.666666666666668</ele><time>2026-04-06T08:07:44.999Z</time></trkpt><trkpt lat="45.606869360449444" lon="12.21634653193381"><ele>10.0</ele><time>2026-04-06T08:07:45.999Z</time></trkpt><trkpt lat="45.60711937713458" lon="12.216333601968703"><ele>9.0</ele><time>2026-04-06T08:07:46.999Z</time></trkpt><trkpt lat="45.60735631509278" lon="12.21632134838513"><ele>8.0</ele><time>2026-04-06T08:07:47.999Z</time></trkpt><trkpt lat="45.60758502176865" lon="12.216287964374644"><ele>8.0</ele><time>2026-04-06T08:07:48.999Z</time></trkpt><trkpt lat="45.60782897895868" lon="12.216296903905803"><ele>8.0</ele><time>2026-04-06T08:07:49.999Z</time></trkpt><trkpt lat="45.608083957767" lon="12.216288152564454"><ele>8.0</ele><time>2026-04-06T08:07:50.999Z</time></trkpt><trkpt lat="45.608350761093526" lon="12.216285103386893"><ele>8.0</ele><time>2026-04-06T08:07:51.999Z</time></trkpt><trkpt lat="45.6086220899133" lon="12.216260034586213"><ele>8.0</ele><time>2026-04-06T08:07:52.999Z</time></trkpt><trkpt lat="45.60890116414187" lon="12.216263924505082"><ele>8.0</ele><time>2026-04-06T08:07:53.999Z</time></trkpt><trkpt lat="45.60918654638291" lon="12.216262585555363"><ele>8.0</ele><time>2026-04-06T08:07:54.999Z</time></trkpt><trkpt lat="45.609471631380025" lon="12.216256045825912"><ele>8.0</ele><time>2026-04-06T08:07:55.999Z</time></trkpt><trkpt lat="45.60975068601249" lon="12.216277595765188"><ele>8.5</ele><time>2026-04-06T08:07:56.999Z</time></trkpt><trkpt lat="45.610028488864025" lon="12.216277416177139"><ele>9.0</ele><time>2026-04-06T08:07:57.999Z</time></trkpt><trkpt lat="45.61030776150032" lon="12.216277416177784"><ele>9.0</ele><time>2026-04-06T08:07:58.999Z</time></trkpt><trkpt lat="45.6105930287153" lon="12.216277416176935"><ele>9.0</ele><time>2026-04-06T08:07:59.999Z</time></trkpt><trkpt lat="45.61088576391823" lon="12.216298720032025"><ele>9.0</ele><time>2026-04-06T08:08:00.999Z</time></trkpt><trkpt lat="45.611197683783494" lon="12.216317107551227"><ele>9.0</ele><time>2026-04-06T08:08:01.999Z</time></trkpt><trkpt lat="45.611499555678286" lon="12.21633724978332"><ele>9.0</ele><time>2026-04-06T08:08:02.999Z</time></trkpt><trkpt lat="45.61177087305988" lon="12.21635701709062"><ele>9.0</ele><time>2026-04-06T08:08:03.999Z</time></trkpt><trkpt lat="45.61202449400895" lon="12.216375098480563"><ele>10.0</ele><time>2026-04-06T08:08:04.999Z</time></trkpt><trkpt lat="45.612261099162374" lon="12.21638851682985"><ele>11.0</ele><time>2026-04-06T08:08:05.999Z</time></trkpt><trkpt lat="45.612481863949405" lon="12.216405004507687"><ele>11.0</ele><time>2026-04-06T08:08:06.999Z</time></trkpt><trkpt lat="45.61269575611126" lon="12.216420328049603"><ele>11.0</ele><time>2026-04-06T08:08:07.999Z</time></trkpt><trkpt lat="45.61292551078573" lon="12.216431521055009"><ele>11.0</ele><time>2026-04-06T08:08:08.999Z</time></trkpt><trkpt lat="45.61315888623129" lon="12.216421056240002"><ele>10.5</ele><time>2026-04-06T08:08:09.999Z</time></trkpt><trkpt lat="45.61340374582987" lon="12.21647132223931"><ele>10.0</ele><time>2026-04-06T08:08:10.999Z</time></trkpt><trkpt lat="45.613659952090686" lon="12.216543986613697"><ele>10.0</ele><time>2026-04-06T08:08:11.999Z</time></trkpt><trkpt lat="45.613899285553806" lon="12.216623850009821"><ele>10.0</ele><time>2026-04-06T08:08:12.999Z</time></trkpt><trkpt lat="45.6141207570535" lon="12.21667310629825"><ele>10.0</ele><time>2026-04-06T08:08:13.999Z</time></trkpt><trkpt lat="45.61431806763826" lon="12.216739316942675"><ele>10.0</ele><time>2026-04-06T08:08:14.999Z</time></trkpt><trkpt lat="45.61448126346253" lon="12.216811211754235"><ele>10.0</ele><time>2026-04-06T08:08:15.999Z</time></trkpt><trkpt lat="45.61464793130387" lon="12.216755907194601"><ele>10.0</ele><time>2026-04-06T08:08:16.999Z</time></trkpt><trkpt lat="45.61483581183302" lon="12.216681626178975"><ele>10.0</ele><time>2026-04-06T08:08:17.999Z</time></trkpt><trkpt lat="45.61500794420211" lon="12.216572215479049"><ele>10.0</ele><time>2026-04-06T08:08:18.999Z</time></trkpt><trkpt lat="45.615164917285064" lon="12.216401170017502"><ele>10.333333333333334</ele><time>2026-04-06T08:08:19.999Z</time></trkpt><trkpt lat="45.61532856428567" lon="12.21619336056487"><ele>10.666666666666666</ele><time>2026-04-06T08:08:20.999Z</time></trkpt><trkpt lat="45.61548352745543" lon="12.215978290763948"><ele>11.0</ele><time>2026-04-06T08:08:21.999Z</time></trkpt><trkpt lat="45.61566654269773" lon="12.21580009868261"><ele>10.5</ele><time>2026-04-06T08:08:22.999Z</time></trkpt><trkpt lat="45.615882396029434" lon="12.215651147936361"><ele>10.0</ele><time>2026-04-06T08:08:23.999Z</time></trkpt><trkpt lat="45.616109568629476" lon="12.215515526154643"><ele>10.5</ele><time>2026-04-06T08:08:24.999Z</time></trkpt><trkpt lat="45.61634016564489" lon="12.215396296787203"><ele>11.0</ele><time>2026-04-06T08:08:25.999Z</time></trkpt><trkpt lat="45.61658234950603" lon="12.215319117403245"><ele>11.0</ele><time>2026-04-06T08:08:26.999Z</time></trkpt><trkpt lat="45.61682637750817" lon="12.215261380285174"><ele>11.0</ele><time>2026-04-06T08:08:27.999Z</time></trkpt><trkpt lat="45.61706041318006" lon="12.21521409740203"><ele>11.5</ele><time>2026-04-06T08:08:28.999Z</time></trkpt><trkpt lat="45.61729427328355" lon="12.21519707388977"><ele>12.0</ele><time>2026-04-06T08:08:29.999Z</time></trkpt><trkpt lat="45.61754322221331" lon="12.215214453997294"><ele>12.0</ele><time>2026-04-06T08:08:30.999Z</time></trkpt><trkpt lat="45.61780621401424" lon="12.215260654957415"><ele>12.0</ele><time>2026-04-06T08:08:31.999Z</time></trkpt><trkpt lat="45.618073589475564" lon="12.215296250161005"><ele>10.5</ele><time>2026-04-06T08:08:32.999Z</time></trkpt><trkpt lat="45.61834131505985" lon="12.215321094178"><ele>9.0</ele><time>2026-04-06T08:08:33.999Z</time></trkpt><trkpt lat="45.61858900317721" lon="12.215338682996357"><ele>9.5</ele><time>2026-04-06T08:08:34.999Z</time></trkpt><trkpt lat="45.61882711564478" lon="12.215358108396098"><ele>10.0</ele><time>2026-04-06T08:08:35.999Z</time></trkpt><trkpt lat="45.61904478368415" lon="12.21536937448473"><ele>10.0</ele><time>2026-04-06T08:08:36.999Z</time></trkpt><trkpt lat="45.619248851867546" lon="12.215362685157249"><ele>10.0</ele><time>2026-04-06T08:08:37.999Z</time></trkpt><trkpt lat="45.61945071170088" lon="12.215335823886011"><ele>10.0</ele><time>2026-04-06T08:08:38.999Z</time></trkpt><trkpt lat="45.6196499603163" lon="12.215280934466373"><ele>10.0</ele><time>2026-04-06T08:08:39.999Z</time></trkpt><trkpt lat="45.619861405862636" lon="12.215197126235624"><ele>10.0</ele><time>2026-04-06T08:08:40.999Z</time></trkpt><trkpt lat="45.62007016290968" lon="12.215106413830068"><ele>10.0</ele><time>2026-04-06T08:08:41.999Z</time></trkpt><trkpt lat="45.62027395029655" lon="12.215009754392725"><ele>10.333333333333334</ele><time>2026-04-06T08:08:42.999Z</time></trkpt><trkpt lat="45.62046025949814" lon="12.214904476289385"><ele>10.666666666666666</ele><time>2026-04-06T08:08:43.999Z</time></trkpt><trkpt lat="45.620631677792154" lon="12.214782389000998"><ele>11.0</ele><time>2026-04-06T08:08:44.999Z</time></trkpt><trkpt lat="45.6207987194074" lon="12.21469892793854"><ele>11.0</ele><time>2026-04-06T08:08:45.999Z</time></trkpt><trkpt lat="45.620970267697636" lon="12.214678922802909"><ele>11.0</ele><time>2026-04-06T08:08:46.999Z</time></trkpt><trkpt lat="45.621146045519964" lon="12.214712208192307"><ele>11.0</ele><time>2026-04-06T08:08:47.999Z</time></trkpt><trkpt lat="45.621328224235135" lon="12.214792914633644"><ele>11.0</ele><time>2026-04-06T08:08:49Z</time></trkpt><trkpt lat="45.621486870158115" lon="12.214913072967446"><ele>11.0</ele><time>2026-04-06T08:08:50Z</time></trkpt><trkpt lat="45.62163004831316" lon="12.215014459791695"><ele>11.0</ele><time>2026-04-06T08:08:51Z</time></trkpt><trkpt lat="45.62180507741882" lon="12.215029739252628"><ele>11.5</ele><time>2026-04-06T08:08:52Z</time></trkpt><trkpt lat="45.6220361823209" lon="12.21500800834521"><ele>12.0</ele><time>2026-04-06T08:08:53Z</time></trkpt><trkpt lat="45.62230658148579" lon="12.214990847004849"><ele>12.0</ele><time>2026-04-06T08:08:54Z</time></trkpt><trkpt lat="45.622604283326126" lon="12.214990913040419"><ele>12.0</ele><time>2026-04-06T08:08:55Z</time></trkpt><trkpt lat="45.62292748644186" lon="12.214977782958467"><ele>11.666666666666666</ele><time>2026-04-06T08:08:56Z</time></trkpt><trkpt lat="45.62302406312618" lon="12.21506809451959"><ele>11.333333333333332</ele><time>2026-04-06T08:08:57Z</time></trkpt><trkpt lat="45.62327553426584" lon="12.215072188078226"><ele>11.0</ele><time>2026-04-06T08:08:58Z</time></trkpt><trkpt lat="45.623517844155785" lon="12.215095610661622"><ele>11.0</ele><time>2026-04-06T08:08:59Z</time></trkpt><trkpt lat="45.62373825237696" lon="12.215123064585054"><ele>11.0</ele><time>2026-04-06T08:09:00Z</time></trkpt><trkpt lat="45.62394549918814" lon="12.215138900718076"><ele>11.0</ele><time>2026-04-06T08:09:01Z</time></trkpt><trkpt lat="45.6241486837108" lon="12.215131975647042"><ele>11.0</ele><time>2026-04-06T08:09:02Z</time></trkpt><trkpt lat="45.624340724057134" lon="12.215133830685623"><ele>11.0</ele><time>2026-04-06T08:09:03Z</time></trkpt><trkpt lat="45.624519191918004" lon="12.215144056075776"><ele>11.0</ele><time>2026-04-06T08:09:04Z</time></trkpt><trkpt lat="45.62469206103626" lon="12.21512998854202"><ele>11.333333333333332</ele><time>2026-04-06T08:09:05Z</time></trkpt><trkpt lat="45.624855617685135" lon="12.215116858718444"><ele>11.666666666666666</ele><time>2026-04-06T08:09:06Z</time></trkpt><trkpt lat="45.62500456678233" lon="12.215127277671206"><ele>12.0</ele><time>2026-04-06T08:09:07Z</time></trkpt><trkpt lat="45.62514944609924" lon="12.21519036075531"><ele>12.0</ele><time>2026-04-06T08:09:08Z</time></trkpt><trkpt lat="45.62527788741322" lon="12.215302812873293"><ele>12.0</ele><time>2026-04-06T08:09:09Z</time></trkpt><trkpt lat="45.62538843036744" lon="12.215481842861921"><ele>12.0</ele><time>2026-04-06T08:09:10Z</time></trkpt><trkpt lat="45.62550247874778" lon="12.21571761982448"><ele>11.666666666666666</ele><time>2026-04-06T08:09:11Z</time></trkpt><trkpt lat="45.62560496924282" lon="12.21596534005305"><ele>11.333333333333332</ele><time>2026-04-06T08:09:12Z</time></trkpt><trkpt lat="45.62570561649049" lon="12.216173609716304"><ele>11.0</ele><time>2026-04-06T08:09:13Z</time></trkpt><trkpt lat="45.62578804929181" lon="12.21637664708743"><ele>11.0</ele><time>2026-04-06T08:09:14Z</time></trkpt><trkpt lat="45.62585524357853" lon="12.216612171227682"><ele>11.0</ele><time>2026-04-06T08:09:15Z</time></trkpt><trkpt lat="45.62591426281054" lon="12.216852526504304"><ele>11.0</ele><time>2026-04-06T08:09:16Z</time></trkpt><trkpt lat="45.62597227112846" lon="12.217077177956748"><ele>11.0</ele><time>2026-04-06T08:09:17Z</time></trkpt><trkpt lat="45.62601670136192" lon="12.217285749630308"><ele>11.0</ele><time>2026-04-06T08:09:18Z</time></trkpt><trkpt lat="45.62606035808086" lon="12.217478106901092"><ele>11.0</ele><time>2026-04-06T08:09:19Z</time></trkpt><trkpt lat="45.62607962752913" lon="12.217606690664342"><ele>11.0</ele><time>2026-04-06T08:09:20Z</time></trkpt><trkpt lat="45.62611322742958" lon="12.217691011707288"><ele>10.75</ele><time>2026-04-06T08:09:22Z</time></trkpt><trkpt lat="45.62621755605983" lon="12.217654174169079"><ele>10.5</ele><time>2026-04-06T08:09:24Z</time></trkpt><trkpt lat="45.626311337425605" lon="12.217604449213637"><ele>10.25</ele><time>2026-04-06T08:09:25Z</time></trkpt><trkpt lat="45.62645178819652" lon="12.217570066079865"><ele>10.0</ele><time>2026-04-06T08:09:26Z</time></trkpt><trkpt lat="45.62662336396809" lon="12.217524750946458"><ele>10.0</ele><time>2026-04-06T08:09:27Z</time></trkpt><trkpt lat="45.62680409480482" lon="12.217479550039"><ele>10.0</ele><time>2026-04-06T08:09:28Z</time></trkpt><trkpt lat="45.6269584328338" lon="12.217442091691941"><ele>10.0</ele><time>2026-04-06T08:09:29Z</time></trkpt><trkpt lat="45.627119755858054" lon="12.217402938062701"><ele>10.0</ele><time>2026-04-06T08:09:30Z</time></trkpt><trkpt lat="45.62727131691906" lon="12.21736615369398"><ele>10.0</ele><time>2026-04-06T08:09:31Z</time></trkpt><trkpt lat="45.62740774432281" lon="12.217334694139856"><ele>10.0</ele><time>2026-04-06T08:09:32Z</time></trkpt><trkpt lat="45.62751821627452" lon="12.217302356401799"><ele>10.0</ele><time>2026-04-06T08:09:33Z</time></trkpt><trkpt lat="45.62761506152943" lon="12.217292552136362"><ele>10.0</ele><time>2026-04-06T08:09:34Z</time></trkpt><trkpt lat="45.6276768304913" lon="12.217258117934977"><ele>10.0</ele><time>2026-04-06T08:09:35Z</time></trkpt><trkpt lat="45.627750194479944" lon="12.217208219429455"><ele>10.0</ele><time>2026-04-06T08:09:36Z</time></trkpt><trkpt lat="45.627779516333995" lon="12.217048450101021"><ele>10.0</ele><time>2026-04-06T08:09:37Z</time></trkpt><trkpt lat="45.627814471697114" lon="12.21685557655874"><ele>10.0</ele><time>2026-04-06T08:09:38Z</time></trkpt><trkpt lat="45.62783153847865" lon="12.216625424918286"><ele>10.0</ele><time>2026-04-06T08:09:39Z</time></trkpt><trkpt lat="45.62781612294795" lon="12.216420770795969"><ele>10.0</ele><time>2026-04-06T08:09:40Z</time></trkpt><trkpt lat="45.627836189730175" lon="12.216223276935287"><ele>10.0</ele><time>2026-04-06T08:09:41Z</time></trkpt><trkpt lat="45.627889756619695" lon="12.215993993175806"><ele>10.0</ele><time>2026-04-06T08:09:42Z</time></trkpt><trkpt lat="45.62795892745738" lon="12.215712467622271"><ele>10.0</ele><time>2026-04-06T08:09:43Z</time></trkpt><trkpt lat="45.628010502035735" lon="12.215418959923879"><ele>10.0</ele><time>2026-04-06T08:09:44Z</time></trkpt><trkpt lat="45.628089756229876" lon="12.215139611034184"><ele>10.0</ele><time>2026-04-06T08:09:45Z</time></trkpt><trkpt lat="45.628161307209965" lon="12.214829883378577"><ele>10.0</ele><time>2026-04-06T08:09:46Z</time></trkpt><trkpt lat="45.62822942833994" lon="12.214543387313133"><ele>10.0</ele><time>2026-04-06T08:09:47Z</time></trkpt><trkpt lat="45.62829213358975" lon="12.214279668751498"><ele>10.0</ele><time>2026-04-06T08:09:47.999Z</time></trkpt><trkpt lat="45.62834308547757" lon="12.214065381128027"><ele>10.0</ele><time>2026-04-06T08:09:48.999Z</time></trkpt><trkpt lat="45.628385683463826" lon="12.213885248368678"><ele>10.0</ele><time>2026-04-06T08:09:49.999Z</time></trkpt><trkpt lat="45.62842452248146" lon="12.213724537750693"><ele>10.0</ele><time>2026-04-06T08:09:50.999Z</time></trkpt><trkpt lat="45.628463004321425" lon="12.213579628160907"><ele>10.166666666666668</ele><time>2026-04-06T08:09:51.999Z</time></trkpt><trkpt lat="45.628502335381896" lon="12.213462719117718"><ele>10.333333333333334</ele><time>2026-04-06T08:09:52.999Z</time></trkpt><trkpt lat="45.628553607867474" lon="12.213387316605305"><ele>10.5</ele><time>2026-04-06T08:09:53.999Z</time></trkpt><trkpt lat="45.62862796458366" lon="12.213356734474878"><ele>10.666666666666666</ele><time>2026-04-06T08:09:54.999Z</time></trkpt><trkpt lat="45.62871056876339" lon="12.213304249280212"><ele>10.833333333333332</ele><time>2026-04-06T08:09:55.999Z</time></trkpt><trkpt lat="45.62880420241994" lon="12.213288754552728"><ele>11.0</ele><time>2026-04-06T08:09:56.999Z</time></trkpt><trkpt lat="45.628896900125405" lon="12.213172140218871"><ele>10.8</ele><time>2026-04-06T08:09:58.999Z</time></trkpt><trkpt lat="45.628942350971755" lon="12.213063916335507"><ele>10.600000000000001</ele><time>2026-04-06T08:09:59.999Z</time></trkpt><trkpt lat="45.6289675573506" lon="12.212924048792939"><ele>10.4</ele><time>2026-04-06T08:10:00.999Z</time></trkpt><trkpt lat="45.6289674677483" lon="12.212781288651168"><ele>10.2</ele><time>2026-04-06T08:10:01.999Z</time></trkpt><trkpt lat="45.62896967334562" lon="12.212657585398166"><ele>10.0</ele><time>2026-04-06T08:10:02.999Z</time></trkpt><trkpt lat="45.62896366456105" lon="12.212545317634781"><ele>10.0</ele><time>2026-04-06T08:10:03.999Z</time></trkpt><trkpt lat="45.62895757048106" lon="12.212443759514805"><ele>10.0</ele><time>2026-04-06T08:10:04.999Z</time></trkpt><trkpt lat="45.628936661055995" lon="12.212295046136921"><ele>10.0</ele><time>2026-04-06T08:10:06.999Z</time></trkpt><trkpt lat="45.628939883161316" lon="12.21212529005671"><ele>10.0</ele><time>2026-04-06T08:10:08.999Z</time></trkpt><trkpt lat="45.62893333325908" lon="12.21199073051274"><ele>10.0</ele><time>2026-04-06T08:10:09.999Z</time></trkpt><trkpt lat="45.62891649162253" lon="12.211853218748663"><ele>10.4</ele><time>2026-04-06T08:10:10.999Z</time></trkpt><trkpt lat="45.62892924570607" lon="12.21172388840425"><ele>10.8</ele><time>2026-04-06T08:10:11.999Z</time></trkpt><trkpt lat="45.62894302787368" lon="12.21159493690505"><ele>11.2</ele><time>2026-04-06T08:10:12.999Z</time></trkpt><trkpt lat="45.628984026213544" lon="12.211471481093994"><ele>11.6</ele><time>2026-04-06T08:10:13.999Z</time></trkpt><trkpt lat="45.62906299660919" lon="12.21138684046088"><ele>12.0</ele><time>2026-04-06T08:10:14.999Z</time></trkpt><trkpt lat="45.62915624436521" lon="12.21132214284899"><ele>12.0</ele><time>2026-04-06T08:10:15.999Z</time></trkpt><trkpt lat="45.62926112489971" lon="12.211257553351926"><ele>12.0</ele><time>2026-04-06T08:10:16.999Z</time></trkpt><trkpt lat="45.62939654812961" lon="12.211164746529153"><ele>12.0</ele><time>2026-04-06T08:10:17.999Z</time></trkpt><trkpt lat="45.629576496763605" lon="12.211043084657211"><ele>12.0</ele><time>2026-04-06T08:10:18.999Z</time></trkpt><trkpt lat="45.62974317852638" lon="12.210930537447062"><ele>12.0</ele><time>2026-04-06T08:10:19.999Z</time></trkpt><trkpt lat="45.62987434462999" lon="12.21084276532841"><ele>12.0</ele><time>2026-04-06T08:10:20.999Z</time></trkpt><trkpt lat="45.62998958008072" lon="12.210789204429625"><ele>12.0</ele><time>2026-04-06T08:10:21.999Z</time></trkpt><trkpt lat="45.63009387544433" lon="12.210794322901513"><ele>12.0</ele><time>2026-04-06T08:10:22.999Z</time></trkpt><trkpt lat="45.6302199535247" lon="12.210870263375881"><ele>12.0</ele><time>2026-04-06T08:10:23.999Z</time></trkpt><trkpt lat="45.630361094179214" lon="12.210910358216916"><ele>12.0</ele><time>2026-04-06T08:10:24.999Z</time></trkpt><trkpt lat="45.63047191211864" lon="12.210956161294709"><ele>11.8</ele><time>2026-04-06T08:10:25.999Z</time></trkpt><trkpt lat="45.63056170965724" lon="12.210964901386223"><ele>11.6</ele><time>2026-04-06T08:10:26.999Z</time></trkpt><trkpt lat="45.63065027057072" lon="12.210971983162146"><ele>11.4</ele><time>2026-04-06T08:10:27.999Z</time></trkpt><trkpt lat="45.63075953412868" lon="12.210983798005271"><ele>11.200000000000001</ele><time>2026-04-06T08:10:28.999Z</time></trkpt><trkpt lat="45.63091398249251" lon="12.21099716586168"><ele>11.0</ele><time>2026-04-06T08:10:29.999Z</time></trkpt><trkpt lat="45.631096553291925" lon="12.211023112260472"><ele>11.0</ele><time>2026-04-06T08:10:30.999Z</time></trkpt><trkpt lat="45.63127209330143" lon="12.211042664116567"><ele>11.0</ele><time>2026-04-06T08:10:31.999Z</time></trkpt><trkpt lat="45.63147464611024" lon="12.211057083922542"><ele>11.0</ele><time>2026-04-06T08:10:32.999Z</time></trkpt><trkpt lat="45.63168704505719" lon="12.211081366420165"><ele>11.0</ele><time>2026-04-06T08:10:33.999Z</time></trkpt><trkpt lat="45.63189824037099" lon="12.211094398701066"><ele>11.0</ele><time>2026-04-06T08:10:34.999Z</time></trkpt><trkpt lat="45.632135332876004" lon="12.211086081540929"><ele>11.0</ele><time>2026-04-06T08:10:35.999Z</time></trkpt><trkpt lat="45.632386737163316" lon="12.211073006796138"><ele>11.0</ele><time>2026-04-06T08:10:36.999Z</time></trkpt><trkpt lat="45.63261886979502" lon="12.211065573221001"><ele>11.0</ele><time>2026-04-06T08:10:37.999Z</time></trkpt><trkpt lat="45.632848760444965" lon="12.211052591480604"><ele>11.0</ele><time>2026-04-06T08:10:38.999Z</time></trkpt><trkpt lat="45.6330839472977" lon="12.211044144802644"><ele>11.0</ele><time>2026-04-06T08:10:39.999Z</time></trkpt><trkpt lat="45.6333130726642" lon="12.211056146740322"><ele>11.0</ele><time>2026-04-06T08:10:40.999Z</time></trkpt><trkpt lat="45.633555269227664" lon="12.211045368127353"><ele>11.0</ele><time>2026-04-06T08:10:41.999Z</time></trkpt><trkpt lat="45.63382057392361" lon="12.211033432937379"><ele>11.5</ele><time>2026-04-06T08:10:42.999Z</time></trkpt><trkpt lat="45.63411753385756" lon="12.211005437201196"><ele>12.0</ele><time>2026-04-06T08:10:43.999Z</time></trkpt><trkpt lat="45.63442803055599" lon="12.211006551782349"><ele>11.5</ele><time>2026-04-06T08:10:44.999Z</time></trkpt><trkpt lat="45.63472268051144" lon="12.21099439026865"><ele>11.0</ele><time>2026-04-06T08:10:45.999Z</time></trkpt><trkpt lat="45.634975020273515" lon="12.2109640327537"><ele>11.0</ele><time>2026-04-06T08:10:46.999Z</time></trkpt><trkpt lat="45.635221906784345" lon="12.210954052536346"><ele>11.0</ele><time>2026-04-06T08:10:47.999Z</time></trkpt><trkpt lat="45.63547889347924" lon="12.210960847182886"><ele>11.5</ele><time>2026-04-06T08:10:48.999Z</time></trkpt><trkpt lat="45.63574135619278" lon="12.21094992654568"><ele>12.0</ele><time>2026-04-06T08:10:49.999Z</time></trkpt><trkpt lat="45.635984430392384" lon="12.210939812640323"><ele>12.666666666666668</ele><time>2026-04-06T08:10:50.999Z</time></trkpt><trkpt lat="45.63620629689679" lon="12.210912436212887"><ele>13.333333333333334</ele><time>2026-04-06T08:10:51.999Z</time></trkpt><trkpt lat="45.63641069293267" lon="12.210909442465061"><ele>14.0</ele><time>2026-04-06T08:10:52.999Z</time></trkpt><trkpt lat="45.63658262738278" lon="12.210894375386177"><ele>14.0</ele><time>2026-04-06T08:10:53.999Z</time></trkpt><trkpt lat="45.63673008062867" lon="12.210888326377882"><ele>14.0</ele><time>2026-04-06T08:10:55Z</time></trkpt><trkpt lat="45.63687791993158" lon="12.210871936556432"><ele>14.0</ele><time>2026-04-06T08:10:56Z</time></trkpt><trkpt lat="45.637006679141784" lon="12.21087221890078"><ele>14.0</ele><time>2026-04-06T08:10:57Z</time></trkpt><trkpt lat="45.63712736569136" lon="12.210905884279146"><ele>12.666666666666668</ele><time>2026-04-06T08:10:58Z</time></trkpt><trkpt lat="45.63723076511909" lon="12.211030012694032"><ele>11.333333333333334</ele><time>2026-04-06T08:10:59Z</time></trkpt><trkpt lat="45.637323814642" lon="12.211221909413315"><ele>10.0</ele><time>2026-04-06T08:11:00Z</time></trkpt><trkpt lat="45.63740592775849" lon="12.211456524284195"><ele>10.333333333333334</ele><time>2026-04-06T08:11:01Z</time></trkpt><trkpt lat="45.63749272920525" lon="12.211695167469992"><ele>10.666666666666666</ele><time>2026-04-06T08:11:02Z</time></trkpt><trkpt lat="45.63761315177804" lon="12.21188814359242"><ele>11.0</ele><time>2026-04-06T08:11:03Z</time></trkpt><trkpt lat="45.63778847934271" lon="12.212050267018537"><ele>10.666666666666666</ele><time>2026-04-06T08:11:04Z</time></trkpt><trkpt lat="45.63797002518476" lon="12.21219418577619"><ele>10.333333333333334</ele><time>2026-04-06T08:11:05Z</time></trkpt><trkpt lat="45.63816163795015" lon="12.212311993205969"><ele>10.0</ele><time>2026-04-06T08:11:06Z</time></trkpt><trkpt lat="45.63837940533273" lon="12.212386822740456"><ele>11.0</ele><time>2026-04-06T08:11:07Z</time></trkpt><trkpt lat="45.638618086728066" lon="12.212423543083746"><ele>12.0</ele><time>2026-04-06T08:11:08Z</time></trkpt><trkpt lat="45.63884156191174" lon="12.212436096203811"><ele>12.0</ele><time>2026-04-06T08:11:09Z</time></trkpt><trkpt lat="45.63903954630989" lon="12.2124672180223"><ele>12.0</ele><time>2026-04-06T08:11:10Z</time></trkpt><trkpt lat="45.639223606727185" lon="12.212496580581613"><ele>12.0</ele><time>2026-04-06T08:11:11Z</time></trkpt><trkpt lat="45.63939539959042" lon="12.212504368310922"><ele>12.75</ele><time>2026-04-06T08:11:12Z</time></trkpt><trkpt lat="45.63952591274814" lon="12.21253581343852"><ele>13.5</ele><time>2026-04-06T08:11:13Z</time></trkpt><trkpt lat="45.639635520441225" lon="12.212550713052114"><ele>14.25</ele><time>2026-04-06T08:11:14Z</time></trkpt><trkpt lat="45.63973360776276" lon="12.212612971064024"><ele>15.0</ele><time>2026-04-06T08:11:15Z</time></trkpt><trkpt lat="45.639816531341296" lon="12.212752444604801"><ele>15.0</ele><time>2026-04-06T08:11:16Z</time></trkpt><trkpt lat="45.63989740595053" lon="12.212951485335646"><ele>15.0</ele><time>2026-04-06T08:11:17Z</time></trkpt><trkpt lat="45.63998797238318" lon="12.213199678149193"><ele>15.0</ele><time>2026-04-06T08:11:18Z</time></trkpt><trkpt lat="45.64009189809045" lon="12.213463295775224"><ele>14.666666666666668</ele><time>2026-04-06T08:11:19Z</time></trkpt><trkpt lat="45.6402012340885" lon="12.213732597364237"><ele>14.333333333333334</ele><time>2026-04-06T08:11:20Z</time></trkpt><trkpt lat="45.64031225280412" lon="12.213982881714688"><ele>14.0</ele><time>2026-04-06T08:11:21Z</time></trkpt><trkpt lat="45.640408855498414" lon="12.214255796196586"><ele>13.5</ele><time>2026-04-06T08:11:22Z</time></trkpt><trkpt lat="45.64049516651007" lon="12.214524778199817"><ele>13.0</ele><time>2026-04-06T08:11:23Z</time></trkpt><trkpt lat="45.64059806017535" lon="12.21484447579863"><ele>13.0</ele><time>2026-04-06T08:11:24Z</time></trkpt><trkpt lat="45.640695093267816" lon="12.215141863768753"><ele>13.0</ele><time>2026-04-06T08:11:25Z</time></trkpt><trkpt lat="45.640777147872875" lon="12.215411400607527"><ele>13.0</ele><time>2026-04-06T08:11:26Z</time></trkpt><trkpt lat="45.640856995127834" lon="12.215655554267029"><ele>13.25</ele><time>2026-04-06T08:11:27Z</time></trkpt><trkpt lat="45.64091384170468" lon="12.215890827922827"><ele>13.5</ele><time>2026-04-06T08:11:28Z</time></trkpt><trkpt lat="45.64094626403338" lon="12.216103876212474"><ele>13.75</ele><time>2026-04-06T08:11:29Z</time></trkpt><trkpt lat="45.64096384336712" lon="12.216275049079782"><ele>14.0</ele><time>2026-04-06T08:11:30Z</time></trkpt><trkpt lat="45.640977287076446" lon="12.21640478267672"><ele>14.0</ele><time>2026-04-06T08:11:31Z</time></trkpt><trkpt lat="45.6410018832797" lon="12.216502996018964"><ele>13.999999999999998</ele><time>2026-04-06T08:11:32Z</time></trkpt><trkpt lat="45.64105037437237" lon="12.21656738349048"><ele>13.999999999999998</ele><time>2026-04-06T08:11:33Z</time></trkpt><trkpt lat="45.641198490356814" lon="12.216555548290081"><ele>14.0</ele><time>2026-04-06T08:11:35Z</time></trkpt><trkpt lat="45.64129267248236" lon="12.216493518237977"><ele>14.0</ele><time>2026-04-06T08:11:36Z</time></trkpt><trkpt lat="45.64142700184279" lon="12.216427201102416"><ele>14.0</ele><time>2026-04-06T08:11:37Z</time></trkpt><trkpt lat="45.6415894401654" lon="12.216316769667023"><ele>14.0</ele><time>2026-04-06T08:11:38Z</time></trkpt><trkpt lat="45.641774357323904" lon="12.216236037060886"><ele>14.0</ele><time>2026-04-06T08:11:39Z</time></trkpt><trkpt lat="45.64193371741169" lon="12.216143585578598"><ele>13.333333333333334</ele><time>2026-04-06T08:11:40Z</time></trkpt><trkpt lat="45.64211221042692" lon="12.216042352527042"><ele>12.666666666666668</ele><time>2026-04-06T08:11:41Z</time></trkpt><trkpt lat="45.642317250618795" lon="12.215954514366443"><ele>12.0</ele><time>2026-04-06T08:11:42Z</time></trkpt><trkpt lat="45.642543288848785" lon="12.215834769429872"><ele>12.0</ele><time>2026-04-06T08:11:43Z</time></trkpt><trkpt lat="45.64278372554003" lon="12.215691973000519"><ele>12.0</ele><time>2026-04-06T08:11:44Z</time></trkpt><trkpt lat="45.64304472017627" lon="12.215550501353288"><ele>11.5</ele><time>2026-04-06T08:11:45Z</time></trkpt><trkpt lat="45.64332419133255" lon="12.215430796919101"><ele>11.0</ele><time>2026-04-06T08:11:46Z</time></trkpt><trkpt lat="45.64360833392032" lon="12.215298885504906"><ele>12.0</ele><time>2026-04-06T08:11:47Z</time></trkpt><trkpt lat="45.64391077061675" lon="12.215162049257943"><ele>13.0</ele><time>2026-04-06T08:11:48Z</time></trkpt><trkpt lat="45.64422212647502" lon="12.215021497697288"><ele>13.0</ele><time>2026-04-06T08:11:49Z</time></trkpt><trkpt lat="45.644503942202405" lon="12.214894280973592"><ele>13.0</ele><time>2026-04-06T08:11:50Z</time></trkpt><trkpt lat="45.64479843592025" lon="12.214761195425941"><ele>13.5</ele><time>2026-04-06T08:11:51Z</time></trkpt><trkpt lat="45.64509255750425" lon="12.214626720601512"><ele>14.0</ele><time>2026-04-06T08:11:52Z</time></trkpt><trkpt lat="45.645374378585785" lon="12.214474308859241"><ele>13.0</ele><time>2026-04-06T08:11:53Z</time></trkpt><trkpt lat="45.645652850349826" lon="12.214344303866802"><ele>12.0</ele><time>2026-04-06T08:11:54Z</time></trkpt><trkpt lat="45.645916598932814" lon="12.214223650265199"><ele>10.0</ele><time>2026-04-06T08:11:55Z</time></trkpt><trkpt lat="45.646172978644856" lon="12.214104135607235"><ele>8.0</ele><time>2026-04-06T08:11:56Z</time></trkpt><trkpt lat="45.646437088866215" lon="12.21400697629913"><ele>8.5</ele><time>2026-04-06T08:11:57Z</time></trkpt><trkpt lat="45.646695829689676" lon="12.213848619227925"><ele>9.0</ele><time>2026-04-06T08:11:58Z</time></trkpt><trkpt lat="45.64696894352286" lon="12.213693642596409"><ele>9.5</ele><time>2026-04-06T08:11:59Z</time></trkpt><trkpt lat="45.647251716463785" lon="12.213545020448047"><ele>10.0</ele><time>2026-04-06T08:12:00Z</time></trkpt><trkpt lat="45.64752651045402" lon="12.213382503719123"><ele>10.0</ele><time>2026-04-06T08:12:01Z</time></trkpt><trkpt lat="45.6477885619776" lon="12.21322752308148"><ele>10.0</ele><time>2026-04-06T08:12:02Z</time></trkpt><trkpt lat="45.6480345087205" lon="12.213084729397234"><ele>11.0</ele><time>2026-04-06T08:12:03Z</time></trkpt><trkpt lat="45.64826388471762" lon="12.212948511302358"><ele>12.0</ele><time>2026-04-06T08:12:04Z</time></trkpt><trkpt lat="45.64847739147755" lon="12.212822471448144"><ele>11.0</ele><time>2026-04-06T08:12:05Z</time></trkpt><trkpt lat="45.64867905865899" lon="12.212704091784879"><ele>10.0</ele><time>2026-04-06T08:12:06Z</time></trkpt><trkpt lat="45.64886035018304" lon="12.212572105708373"><ele>9.0</ele><time>2026-04-06T08:12:07Z</time></trkpt><trkpt lat="45.64902685541215" lon="12.21247422445081"><ele>9.0</ele><time>2026-04-06T08:12:08Z</time></trkpt><trkpt lat="45.64917884560372" lon="12.212409391008233"><ele>9.0</ele><time>2026-04-06T08:12:09Z</time></trkpt><trkpt lat="45.64928866483946" lon="12.212324738722154"><ele>9.0</ele><time>2026-04-06T08:12:10Z</time></trkpt><trkpt lat="45.649384458276565" lon="12.212293018259096"><ele>9.0</ele><time>2026-04-06T08:12:11Z</time></trkpt><trkpt lat="45.6494523383228" lon="12.212266648008448"><ele>9.6</ele><time>2026-04-06T08:12:12Z</time></trkpt><trkpt lat="45.64951373348783" lon="12.21222209428018"><ele>10.2</ele><time>2026-04-06T08:12:13.999Z</time></trkpt><trkpt lat="45.64959416679813" lon="12.212338912905702"><ele>10.799999999999999</ele><time>2026-04-06T08:12:14.999Z</time></trkpt><trkpt lat="45.649671918590265" lon="12.212421383426584"><ele>11.4</ele><time>2026-04-06T08:12:15.999Z</time></trkpt><trkpt lat="45.64975875041042" lon="12.212538262097846"><ele>12.0</ele><time>2026-04-06T08:12:16.999Z</time></trkpt><trkpt lat="45.649854867389365" lon="12.212686922126412"><ele>12.0</ele><time>2026-04-06T08:12:17.999Z</time></trkpt><trkpt lat="45.64995977764018" lon="12.212822071692708"><ele>12.0</ele><time>2026-04-06T08:12:18.999Z</time></trkpt><trkpt lat="45.6500872408816" lon="12.21294803978974"><ele>12.0</ele><time>2026-04-06T08:12:20.999Z</time></trkpt><trkpt lat="45.650149815430744" lon="12.213031341714656"><ele>12.0</ele><time>2026-04-06T08:12:21.999Z</time></trkpt><trkpt lat="45.65020523522002" lon="12.213115104764897"><ele>12.0</ele><time>2026-04-06T08:12:22.999Z</time></trkpt><trkpt lat="45.65026660314405" lon="12.213195349734233"><ele>12.0</ele><time>2026-04-06T08:12:23.999Z</time></trkpt><trkpt lat="45.650337853017355" lon="12.213274861099467"><ele>12.0</ele><time>2026-04-06T08:12:24.999Z</time></trkpt><trkpt lat="45.65041101106062" lon="12.213362384264675"><ele>12.0</ele><time>2026-04-06T08:12:25.999Z</time></trkpt><trkpt lat="45.65047047921791" lon="12.213439359502875"><ele>12.0</ele><time>2026-04-06T08:12:26.999Z</time></trkpt><trkpt lat="45.65053832527415" lon="12.213548929976312"><ele>12.0</ele><time>2026-04-06T08:12:28.999Z</time></trkpt><trkpt lat="45.65061155933841" lon="12.213650593600507"><ele>12.0</ele><time>2026-04-06T08:12:30.999Z</time></trkpt><trkpt lat="45.65067541819951" lon="12.213714759605132"><ele>12.0</ele><time>2026-04-06T08:12:31.999Z</time></trkpt><trkpt lat="45.65075810781598" lon="12.213808081320154"><ele>12.0</ele><time>2026-04-06T08:12:32.999Z</time></trkpt><trkpt lat="45.65084261305078" lon="12.213902169892007"><ele>12.0</ele><time>2026-04-06T08:12:33.999Z</time></trkpt><trkpt lat="45.65092449313784" lon="12.214007750604843"><ele>12.2</ele><time>2026-04-06T08:12:34.999Z</time></trkpt><trkpt lat="45.65101068328833" lon="12.214115657462607"><ele>12.399999999999999</ele><time>2026-04-06T08:12:35.999Z</time></trkpt><trkpt lat="45.65109631748685" lon="12.214221296885935"><ele>12.600000000000001</ele><time>2026-04-06T08:12:36.999Z</time></trkpt><trkpt lat="45.65117832592143" lon="12.214329329573227"><ele>12.8</ele><time>2026-04-06T08:12:37.999Z</time></trkpt><trkpt lat="45.651259133653674" lon="12.21442798766409"><ele>13.0</ele><time>2026-04-06T08:12:38.999Z</time></trkpt><trkpt lat="45.65133929186256" lon="12.214526126866755"><ele>13.0</ele><time>2026-04-06T08:12:39.999Z</time></trkpt><trkpt lat="45.65142922423364" lon="12.214623699045937"><ele>13.0</ele><time>2026-04-06T08:12:40.999Z</time></trkpt><trkpt lat="45.651511943171855" lon="12.214735494265554"><ele>13.0</ele><time>2026-04-06T08:12:41.999Z</time></trkpt><trkpt lat="45.65159459687512" lon="12.214849686315874"><ele>13.0</ele><time>2026-04-06T08:12:42.999Z</time></trkpt><trkpt lat="45.651690459463104" lon="12.214969295457305"><ele>13.0</ele><time>2026-04-06T08:12:43.999Z</time></trkpt><trkpt lat="45.65181773075107" lon="12.21510163408247"><ele>13.0</ele><time>2026-04-06T08:12:44.999Z</time></trkpt><trkpt lat="45.65194179072395" lon="12.215259374256702"><ele>13.0</ele><time>2026-04-06T08:12:45.999Z</time></trkpt><trkpt lat="45.65205694197044" lon="12.215420351820676"><ele>13.0</ele><time>2026-04-06T08:12:46.999Z</time></trkpt><trkpt lat="45.65217376633494" lon="12.215549131066368"><ele>13.0</ele><time>2026-04-06T08:12:47.999Z</time></trkpt><trkpt lat="45.652293775520235" lon="12.215668534213991"><ele>13.0</ele><time>2026-04-06T08:12:48.999Z</time></trkpt><trkpt lat="45.65241539448831" lon="12.215796766745143"><ele>13.0</ele><time>2026-04-06T08:12:49.999Z</time></trkpt><trkpt lat="45.65253920935473" lon="12.21590782683119"><ele>13.0</ele><time>2026-04-06T08:12:50.999Z</time></trkpt><trkpt lat="45.65266232224524" lon="12.215981376596728"><ele>13.0</ele><time>2026-04-06T08:12:51.999Z</time></trkpt><trkpt lat="45.652777176583015" lon="12.216042491642119"><ele>13.0</ele><time>2026-04-06T08:12:52.999Z</time></trkpt><trkpt lat="45.65288913279698" lon="12.21611185638653"><ele>13.0</ele><time>2026-04-06T08:12:53.999Z</time></trkpt><trkpt lat="45.65300859242893" lon="12.216194044063766"><ele>13.333333333333332</ele><time>2026-04-06T08:12:54.999Z</time></trkpt><trkpt lat="45.65313875926788" lon="12.216286783410766"><ele>13.666666666666668</ele><time>2026-04-06T08:12:55.999Z</time></trkpt><trkpt lat="45.65328100911571" lon="12.216376130058302"><ele>14.0</ele><time>2026-04-06T08:12:56.999Z</time></trkpt><trkpt lat="45.65339871805484" lon="12.2165105548428"><ele>14.0</ele><time>2026-04-06T08:12:57.999Z</time></trkpt><trkpt lat="45.65348660319776" lon="12.216676078014155"><ele>14.0</ele><time>2026-04-06T08:12:58.999Z</time></trkpt><trkpt lat="45.65357444748486" lon="12.21682249768373"><ele>14.0</ele><time>2026-04-06T08:12:59.999Z</time></trkpt><trkpt lat="45.65368085187708" lon="12.216983332215566"><ele>14.0</ele><time>2026-04-06T08:13:01Z</time></trkpt><trkpt lat="45.65378032656222" lon="12.217185078086159"><ele>14.333333333333334</ele><time>2026-04-06T08:13:02Z</time></trkpt><trkpt lat="45.65386903090528" lon="12.217411434478926"><ele>14.666666666666668</ele><time>2026-04-06T08:13:03Z</time></trkpt><trkpt lat="45.653974504031595" lon="12.217658829896681"><ele>15.0</ele><time>2026-04-06T08:13:04Z</time></trkpt><trkpt lat="45.65407807753163" lon="12.21792574523517"><ele>14.333333333333332</ele><time>2026-04-06T08:13:05Z</time></trkpt><trkpt lat="45.65419602248956" lon="12.218183167803135"><ele>13.666666666666666</ele><time>2026-04-06T08:13:06Z</time></trkpt><trkpt lat="45.654337607781954" lon="12.218418739297652"><ele>13.0</ele><time>2026-04-06T08:13:07Z</time></trkpt><trkpt lat="45.65447594957991" lon="12.218621989622088"><ele>13.0</ele><time>2026-04-06T08:13:08Z</time></trkpt><trkpt lat="45.65460259939889" lon="12.218808338966653"><ele>13.0</ele><time>2026-04-06T08:13:09Z</time></trkpt><trkpt lat="45.65472509276376" lon="12.218986702247209"><ele>13.0</ele><time>2026-04-06T08:13:10Z</time></trkpt><trkpt lat="45.65483706510378" lon="12.219155542464355"><ele>13.0</ele><time>2026-04-06T08:13:11Z</time></trkpt><trkpt lat="45.65493788858004" lon="12.219313849293926"><ele>13.0</ele><time>2026-04-06T08:13:12Z</time></trkpt><trkpt lat="45.65503507892003" lon="12.219463680341885"><ele>13.0</ele><time>2026-04-06T08:13:13Z</time></trkpt><trkpt lat="45.655129934886325" lon="12.219607131237712"><ele>13.0</ele><time>2026-04-06T08:13:14Z</time></trkpt><trkpt lat="45.65521735657667" lon="12.21973626818001"><ele>13.25</ele><time>2026-04-06T08:13:15Z</time></trkpt><trkpt lat="45.65530012636071" lon="12.21986381460175"><ele>13.5</ele><time>2026-04-06T08:13:16Z</time></trkpt><trkpt lat="45.65539328568277" lon="12.219997042826877"><ele>13.75</ele><time>2026-04-06T08:13:17Z</time></trkpt><trkpt lat="45.65549581599915" lon="12.220136141406636"><ele>14.0</ele><time>2026-04-06T08:13:18Z</time></trkpt><trkpt lat="45.655596636827525" lon="12.220302287376942"><ele>14.0</ele><time>2026-04-06T08:13:19Z</time></trkpt><trkpt lat="45.65569359232859" lon="12.220474782024873"><ele>14.0</ele><time>2026-04-06T08:13:20Z</time></trkpt><trkpt lat="45.65580962659235" lon="12.220627874242421"><ele>14.0</ele><time>2026-04-06T08:13:21Z</time></trkpt><trkpt lat="45.65595049824234" lon="12.220799023095035"><ele>14.0</ele><time>2026-04-06T08:13:22Z</time></trkpt><trkpt lat="45.656065474251214" lon="12.220986748483"><ele>14.0</ele><time>2026-04-06T08:13:23Z</time></trkpt><trkpt lat="45.656166542717806" lon="12.221159209073122"><ele>14.0</ele><time>2026-04-06T08:13:24Z</time></trkpt><trkpt lat="45.65626005572412" lon="12.221331436360751"><ele>14.666666666666668</ele><time>2026-04-06T08:13:25Z</time></trkpt><trkpt lat="45.65632626044912" lon="12.221571478778536"><ele>15.333333333333332</ele><time>2026-04-06T08:13:26Z</time></trkpt><trkpt lat="45.65637797850033" lon="12.221851105160404"><ele>16.0</ele><time>2026-04-06T08:13:27Z</time></trkpt><trkpt lat="45.65642629479029" lon="12.22212037275642"><ele>16.0</ele><time>2026-04-06T08:13:28Z</time></trkpt><trkpt lat="45.65647813496673" lon="12.222388280551897"><ele>16.0</ele><time>2026-04-06T08:13:29Z</time></trkpt><trkpt lat="45.656525469992644" lon="12.222674720594098"><ele>16.0</ele><time>2026-04-06T08:13:30Z</time></trkpt><trkpt lat="45.65657089897375" lon="12.222949416459521"><ele>15.666666666666666</ele><time>2026-04-06T08:13:31Z</time></trkpt><trkpt lat="45.65662276367962" lon="12.22319400912619"><ele>15.333333333333332</ele><time>2026-04-06T08:13:32Z</time></trkpt><trkpt lat="45.6566671438202" lon="12.223421819693426"><ele>15.0</ele><time>2026-04-06T08:13:33Z</time></trkpt><trkpt lat="45.656705819874894" lon="12.223640608547026"><ele>15.0</ele><time>2026-04-06T08:13:34Z</time></trkpt><trkpt lat="45.65674055496951" lon="12.223845855669623"><ele>15.0</ele><time>2026-04-06T08:13:35Z</time></trkpt><trkpt lat="45.656771212513775" lon="12.22403333362409"><ele>15.0</ele><time>2026-04-06T08:13:36Z</time></trkpt><trkpt lat="45.656798109445134" lon="12.224201483109423"><ele>15.0</ele><time>2026-04-06T08:13:37Z</time></trkpt><trkpt lat="45.65682635609473" lon="12.224369715646379"><ele>15.0</ele><time>2026-04-06T08:13:38Z</time></trkpt><trkpt lat="45.65685825364901" lon="12.224524170733122"><ele>15.0</ele><time>2026-04-06T08:13:39Z</time></trkpt><trkpt lat="45.656891741076244" lon="12.22468224476575"><ele>15.0</ele><time>2026-04-06T08:13:40Z</time></trkpt><trkpt lat="45.65691964315821" lon="12.224868380023219"><ele>15.0</ele><time>2026-04-06T08:13:41Z</time></trkpt><trkpt lat="45.65695164173751" lon="12.225064111986027"><ele>14.6</ele><time>2026-04-06T08:13:42Z</time></trkpt><trkpt lat="45.65699588804537" lon="12.22524337141178"><ele>14.2</ele><time>2026-04-06T08:13:43Z</time></trkpt><trkpt lat="45.65701841776929" lon="12.225396739716391"><ele>13.8</ele><time>2026-04-06T08:13:44Z</time></trkpt><trkpt lat="45.65703747481179" lon="12.225530828081963"><ele>13.4</ele><time>2026-04-06T08:13:45Z</time></trkpt><trkpt lat="45.6570638067504" lon="12.225631446390583"><ele>13.0</ele><time>2026-04-06T08:13:46Z</time></trkpt><trkpt lat="45.65709841124529" lon="12.225766056815443"><ele>13.0</ele><time>2026-04-06T08:13:48Z</time></trkpt><trkpt lat="45.65720440787735" lon="12.22574029801734"><ele>13.0</ele><time>2026-04-06T08:13:49Z</time></trkpt><trkpt lat="45.657307618547215" lon="12.225761888837805"><ele>13.0</ele><time>2026-04-06T08:13:50Z</time></trkpt><trkpt lat="45.657439095080726" lon="12.225787004497185"><ele>13.0</ele><time>2026-04-06T08:13:51Z</time></trkpt><trkpt lat="45.65758522069606" lon="12.225872692091624"><ele>13.0</ele><time>2026-04-06T08:13:52Z</time></trkpt><trkpt lat="45.65772250138907" lon="12.225928177220187"><ele>13.0</ele><time>2026-04-06T08:13:53Z</time></trkpt><trkpt lat="45.65784624730993" lon="12.225972015544777"><ele>13.0</ele><time>2026-04-06T08:13:54Z</time></trkpt><trkpt lat="45.657997392492476" lon="12.226036966354652"><ele>13.0</ele><time>2026-04-06T08:13:55Z</time></trkpt><trkpt lat="45.65817311336314" lon="12.226111724508947"><ele>13.333333333333332</ele><time>2026-04-06T08:13:56Z</time></trkpt><trkpt lat="45.65835389251757" lon="12.226186290783335"><ele>13.666666666666668</ele><time>2026-04-06T08:13:57Z</time></trkpt><trkpt lat="45.658513715675234" lon="12.226259460734969"><ele>14.0</ele><time>2026-04-06T08:13:58Z</time></trkpt><trkpt lat="45.658685434188506" lon="12.226329560737728"><ele>14.0</ele><time>2026-04-06T08:13:59Z</time></trkpt><trkpt lat="45.65886219103019" lon="12.226385947707337"><ele>14.0</ele><time>2026-04-06T08:14:00Z</time></trkpt><trkpt lat="45.65901608955786" lon="12.22645369755632"><ele>14.0</ele><time>2026-04-06T08:14:01Z</time></trkpt><trkpt lat="45.65915546368144" lon="12.226522409423147"><ele>13.5</ele><time>2026-04-06T08:14:02Z</time></trkpt><trkpt lat="45.65929202563759" lon="12.226576754159211"><ele>13.0</ele><time>2026-04-06T08:14:03Z</time></trkpt><trkpt lat="45.65943023334468" lon="12.226632008776674"><ele>12.5</ele><time>2026-04-06T08:14:04Z</time></trkpt><trkpt lat="45.65958397522886" lon="12.226695576822625"><ele>12.0</ele><time>2026-04-06T08:14:05Z</time></trkpt><trkpt lat="45.659753065407806" lon="12.22677788868035"><ele>12.0</ele><time>2026-04-06T08:14:06Z</time></trkpt><trkpt lat="45.65994522199057" lon="12.226856252254327"><ele>12.0</ele><time>2026-04-06T08:14:07Z</time></trkpt><trkpt lat="45.66014206783885" lon="12.226925807052544"><ele>12.0</ele><time>2026-04-06T08:14:08Z</time></trkpt><trkpt lat="45.66033079686682" lon="12.227007390005332"><ele>12.333333333333332</ele><time>2026-04-06T08:14:09Z</time></trkpt><trkpt lat="45.660503536007134" lon="12.227089378926985"><ele>12.666666666666666</ele><time>2026-04-06T08:14:10Z</time></trkpt><trkpt lat="45.66066986600866" lon="12.227162097423188"><ele>13.0</ele><time>2026-04-06T08:14:11Z</time></trkpt><trkpt lat="45.66082896103526" lon="12.227220809863274"><ele>13.0</ele><time>2026-04-06T08:14:12Z</time></trkpt><trkpt lat="45.660976877912354" lon="12.227278303965175"><ele>13.0</ele><time>2026-04-06T08:14:13Z</time></trkpt><trkpt lat="45.66111271314659" lon="12.227354616514397"><ele>13.0</ele><time>2026-04-06T08:14:14Z</time></trkpt><trkpt lat="45.66123274570138" lon="12.227457935096838"><ele>13.0</ele><time>2026-04-06T08:14:15Z</time></trkpt><trkpt lat="45.661343050023156" lon="12.227554340698951"><ele>12.8</ele><time>2026-04-06T08:14:16Z</time></trkpt><trkpt lat="45.661438758978356" lon="12.227630483611845"><ele>12.600000000000001</ele><time>2026-04-06T08:14:17Z</time></trkpt><trkpt lat="45.66153042777613" lon="12.227706555147051"><ele>12.399999999999999</ele><time>2026-04-06T08:14:18Z</time></trkpt><trkpt lat="45.661616454427445" lon="12.227774320867386"><ele>12.2</ele><time>2026-04-06T08:14:19Z</time></trkpt><trkpt lat="45.66173462194063" lon="12.227844732682854"><ele>12.0</ele><time>2026-04-06T08:14:20Z</time></trkpt><trkpt lat="45.66186468176365" lon="12.22794262101189"><ele>12.0</ele><time>2026-04-06T08:14:20.999Z</time></trkpt><trkpt lat="45.662007438996284" lon="12.227945909897993"><ele>12.0</ele><time>2026-04-06T08:14:21.999Z</time></trkpt><trkpt lat="45.66214753654907" lon="12.227937655002227"><ele>12.0</ele><time>2026-04-06T08:14:22.999Z</time></trkpt><trkpt lat="45.662278774232085" lon="12.227910230515768"><ele>12.0</ele><time>2026-04-06T08:14:23.999Z</time></trkpt><trkpt lat="45.66238524389937" lon="12.227901097833707"><ele>12.0</ele><time>2026-04-06T08:14:24.999Z</time></trkpt><trkpt lat="45.66246451185647" lon="12.227906449216821"><ele>12.0</ele><time>2026-04-06T08:14:25.999Z</time></trkpt><trkpt lat="45.662537200733304" lon="12.22791032496022"><ele>12.0</ele><time>2026-04-06T08:14:27.999Z</time></trkpt><trkpt lat="45.66261228452978" lon="12.22789475615986"><ele>12.0</ele><time>2026-04-06T08:14:31.999Z</time></trkpt><trkpt lat="45.66262846933326" lon="12.227750858227239"><ele>12.0</ele><time>2026-04-06T08:14:32.999Z</time></trkpt><trkpt lat="45.66261259996643" lon="12.227592297932274"><ele>12.0</ele><time>2026-04-06T08:14:33.999Z</time></trkpt><trkpt lat="45.66260952370097" lon="12.22744667629851"><ele>12.25</ele><time>2026-04-06T08:14:34.999Z</time></trkpt><trkpt lat="45.662597138672936" lon="12.227277475016706"><ele>12.5</ele><time>2026-04-06T08:14:35.999Z</time></trkpt><trkpt lat="45.662581012461494" lon="12.227060535448038"><ele>12.75</ele><time>2026-04-06T08:14:36.999Z</time></trkpt><trkpt lat="45.662565008639696" lon="12.226844391114327"><ele>13.0</ele><time>2026-04-06T08:14:37.999Z</time></trkpt><trkpt lat="45.6625535607156" lon="12.226637622232664"><ele>12.666666666666666</ele><time>2026-04-06T08:14:38.999Z</time></trkpt><trkpt lat="45.662548578463706" lon="12.22638449821276"><ele>12.333333333333332</ele><time>2026-04-06T08:14:39.999Z</time></trkpt><trkpt lat="45.662545405091265" lon="12.226090942036807"><ele>12.0</ele><time>2026-04-06T08:14:40.999Z</time></trkpt><trkpt lat="45.66254318925299" lon="12.225776526389147"><ele>12.333333333333332</ele><time>2026-04-06T08:14:41.999Z</time></trkpt><trkpt lat="45.66254125893151" lon="12.22548538742867"><ele>12.666666666666666</ele><time>2026-04-06T08:14:42.999Z</time></trkpt><trkpt lat="45.662542607048785" lon="12.22519096053033"><ele>13.0</ele><time>2026-04-06T08:14:43.999Z</time></trkpt><trkpt lat="45.66255447502417" lon="12.224906927278285"><ele>14.0</ele><time>2026-04-06T08:14:44.999Z</time></trkpt><trkpt lat="45.662572714750404" lon="12.2246528233082"><ele>15.0</ele><time>2026-04-06T08:14:45.999Z</time></trkpt><trkpt lat="45.662583710240405" lon="12.224410233235917"><ele>16.0</ele><time>2026-04-06T08:14:46.999Z</time></trkpt><trkpt lat="45.66261216848643" lon="12.224174359920992"><ele>16.2</ele><time>2026-04-06T08:14:47.999Z</time></trkpt><trkpt lat="45.6626402012605" lon="12.2239628721982"><ele>16.400000000000002</ele><time>2026-04-06T08:14:48.999Z</time></trkpt><trkpt lat="45.6626585609823" lon="12.22379174855029"><ele>16.6</ele><time>2026-04-06T08:14:49.999Z</time></trkpt><trkpt lat="45.66267260798259" lon="12.223661800379405"><ele>16.8</ele><time>2026-04-06T08:14:50.999Z</time></trkpt><trkpt lat="45.66266221369825" lon="12.223552849182031"><ele>17.0</ele><time>2026-04-06T08:14:51.999Z</time></trkpt><trkpt lat="45.662644973865234" lon="12.223429389308784"><ele>17.0</ele><time>2026-04-06T08:14:52.999Z</time></trkpt><trkpt lat="45.66256689219609" lon="12.223277812020074"><ele>17.0</ele><time>2026-04-06T08:14:53.999Z</time></trkpt><trkpt lat="45.66249307861927" lon="12.223059758591976"><ele>17.0</ele><time>2026-04-06T08:14:54.999Z</time></trkpt><trkpt lat="45.66239983079795" lon="12.222823940656822"><ele>17.0</ele><time>2026-04-06T08:14:55.999Z</time></trkpt><trkpt lat="45.66229916172626" lon="12.222592924570963"><ele>17.0</ele><time>2026-04-06T08:14:56.999Z</time></trkpt><trkpt lat="45.66220844563387" lon="12.222329904144626"><ele>17.0</ele><time>2026-04-06T08:14:57.999Z</time></trkpt><trkpt lat="45.66209702601658" lon="12.222059850068005"><ele>17.0</ele><time>2026-04-06T08:14:58.999Z</time></trkpt><trkpt lat="45.66200301361293" lon="12.221800978863824"><ele>17.0</ele><time>2026-04-06T08:14:59.999Z</time></trkpt><trkpt lat="45.661910735020044" lon="12.2215551279244"><ele>17.0</ele><time>2026-04-06T08:15:00.999Z</time></trkpt><trkpt lat="45.66182014809428" lon="12.221340210406192"><ele>15.333333333333334</ele><time>2026-04-06T08:15:01.999Z</time></trkpt><trkpt lat="45.66173176380062" lon="12.221170182977765"><ele>13.666666666666668</ele><time>2026-04-06T08:15:02.999Z</time></trkpt><trkpt lat="45.66163061963458" lon="12.220953075337498"><ele>12.0</ele><time>2026-04-06T08:15:03.999Z</time></trkpt><trkpt lat="45.66154304697258" lon="12.220801718794208"><ele>12.0</ele><time>2026-04-06T08:15:04.999Z</time></trkpt><trkpt lat="45.661461712744824" lon="12.220694075094649"><ele>12.0</ele><time>2026-04-06T08:15:05.999Z</time></trkpt><trkpt lat="45.6614084070564" lon="12.220609419243639"><ele>12.0</ele><time>2026-04-06T08:15:07Z</time></trkpt><trkpt lat="45.66136295789981" lon="12.220486026113603"><ele>12.0</ele><time>2026-04-06T08:15:09Z</time></trkpt><trkpt lat="45.66131722217387" lon="12.220394375751786"><ele>12.0</ele><time>2026-04-06T08:15:14Z</time></trkpt><trkpt lat="45.661294560009516" lon="12.22029166364212"><ele>12.0</ele><time>2026-04-06T08:15:16Z</time></trkpt><trkpt lat="45.661247364540614" lon="12.22017639447157"><ele>12.25</ele><time>2026-04-06T08:15:19Z</time></trkpt><trkpt lat="45.66140551595887" lon="12.220264759436661"><ele>12.5</ele><time>2026-04-06T08:15:22Z</time></trkpt><trkpt lat="45.66147368594596" lon="12.22037936575918"><ele>12.75</ele><time>2026-04-06T08:15:23Z</time></trkpt><trkpt lat="45.661525139386114" lon="12.220490062973173"><ele>13.0</ele><time>2026-04-06T08:15:24Z</time></trkpt><trkpt lat="45.661577140419986" lon="12.22059016641436"><ele>12.666666666666666</ele><time>2026-04-06T08:15:25Z</time></trkpt><trkpt lat="45.66166346175322" lon="12.220718759631744"><ele>12.333333333333332</ele><time>2026-04-06T08:15:26Z</time></trkpt><trkpt lat="45.66177733426432" lon="12.220908977314144"><ele>12.0</ele><time>2026-04-06T08:15:27Z</time></trkpt><trkpt lat="45.661886273144574" lon="12.221106103795362"><ele>12.666666666666668</ele><time>2026-04-06T08:15:28Z</time></trkpt><trkpt lat="45.66200705329311" lon="12.22125778613874"><ele>13.333333333333334</ele><time>2026-04-06T08:15:29Z</time></trkpt><trkpt lat="45.6621371827252" lon="12.221401897122762"><ele>14.0</ele><time>2026-04-06T08:15:30Z</time></trkpt><trkpt lat="45.66227092926998" lon="12.22154276595599"><ele>13.75</ele><time>2026-04-06T08:15:31Z</time></trkpt><trkpt lat="45.66240817638918" lon="12.221661841189082"><ele>13.5</ele><time>2026-04-06T08:15:32Z</time></trkpt><trkpt lat="45.66254108217358" lon="12.221745910562605"><ele>13.25</ele><time>2026-04-06T08:15:33Z</time></trkpt><trkpt lat="45.66266672831639" lon="12.221818816755627"><ele>13.0</ele><time>2026-04-06T08:15:34Z</time></trkpt><trkpt lat="45.662790818303534" lon="12.221878341884127"><ele>13.0</ele><time>2026-04-06T08:15:35Z</time></trkpt><trkpt lat="45.66292276415143" lon="12.221923042460286"><ele>13.0</ele><time>2026-04-06T08:15:36Z</time></trkpt><trkpt lat="45.66304411600047" lon="12.22195871223525"><ele>13.0</ele><time>2026-04-06T08:15:37Z</time></trkpt><trkpt lat="45.66316533051834" lon="12.221986925587178"><ele>13.0</ele><time>2026-04-06T08:15:38Z</time></trkpt><trkpt lat="45.663295973882335" lon="12.222003737993802"><ele>13.0</ele><time>2026-04-06T08:15:39Z</time></trkpt><trkpt lat="45.66341767744844" lon="12.222021677794443"><ele>13.0</ele><time>2026-04-06T08:15:40Z</time></trkpt><trkpt lat="45.66354155670819" lon="12.22204389300622"><ele>13.0</ele><time>2026-04-06T08:15:41Z</time></trkpt><trkpt lat="45.66369133142751" lon="12.22206541226317"><ele>13.0</ele><time>2026-04-06T08:15:42Z</time></trkpt><trkpt lat="45.663856359794224" lon="12.22209160091639"><ele>13.0</ele><time>2026-04-06T08:15:43Z</time></trkpt><trkpt lat="45.66404567342008" lon="12.222147831131768"><ele>13.0</ele><time>2026-04-06T08:15:44Z</time></trkpt><trkpt lat="45.66425491732703" lon="12.222164021976859"><ele>13.0</ele><time>2026-04-06T08:15:45Z</time></trkpt><trkpt lat="45.66445355730392" lon="12.222208323890564"><ele>13.0</ele><time>2026-04-06T08:15:46Z</time></trkpt><trkpt lat="45.66467332505643" lon="12.222248593187672"><ele>13.0</ele><time>2026-04-06T08:15:47Z</time></trkpt><trkpt lat="45.66488220643652" lon="12.222283487562654"><ele>13.0</ele><time>2026-04-06T08:15:48Z</time></trkpt><trkpt lat="45.66508981065476" lon="12.2223215786179"><ele>14.0</ele><time>2026-04-06T08:15:49Z</time></trkpt><trkpt lat="45.66529889430969" lon="12.222355454168154"><ele>15.0</ele><time>2026-04-06T08:15:50Z</time></trkpt><trkpt lat="45.6655078949196" lon="12.222413849724235"><ele>16.0</ele><time>2026-04-06T08:15:51Z</time></trkpt><trkpt lat="45.66573377664996" lon="12.222433288880977"><ele>16.0</ele><time>2026-04-06T08:15:52Z</time></trkpt><trkpt lat="45.66595084098471" lon="12.222487498256175"><ele>16.0</ele><time>2026-04-06T08:15:53Z</time></trkpt><trkpt lat="45.666153708409084" lon="12.222535139945162"><ele>16.0</ele><time>2026-04-06T08:15:54Z</time></trkpt><trkpt lat="45.666344532328516" lon="12.22256502958612"><ele>16.0</ele><time>2026-04-06T08:15:55Z</time></trkpt><trkpt lat="45.66651677286359" lon="12.222597010277388"><ele>16.0</ele><time>2026-04-06T08:15:56Z</time></trkpt><trkpt lat="45.666680579622906" lon="12.222637375629485"><ele>16.0</ele><time>2026-04-06T08:15:57Z</time></trkpt><trkpt lat="45.6668478121399" lon="12.222673840198754"><ele>15.333333333333332</ele><time>2026-04-06T08:15:58Z</time></trkpt><trkpt lat="45.667017024407784" lon="12.222724063411153"><ele>14.666666666666668</ele><time>2026-04-06T08:15:59Z</time></trkpt><trkpt lat="45.6671654491406" lon="12.222794623894428"><ele>14.0</ele><time>2026-04-06T08:16:00Z</time></trkpt><trkpt lat="45.667289672312855" lon="12.222862844115962"><ele>14.000000000000002</ele><time>2026-04-06T08:16:01Z</time></trkpt><trkpt lat="45.66739287368986" lon="12.222910626151663"><ele>14.0</ele><time>2026-04-06T08:16:02Z</time></trkpt><trkpt lat="45.667476215438306" lon="12.222938411776802"><ele>14.0</ele><time>2026-04-06T08:16:03Z</time></trkpt><trkpt lat="45.66754052809127" lon="12.222959556074795"><ele>14.0</ele><time>2026-04-06T08:16:04Z</time></trkpt><trkpt lat="45.667598854211995" lon="12.222998473130952"><ele>14.000000000000002</ele><time>2026-04-06T08:16:05Z</time></trkpt><trkpt lat="45.66765669677077" lon="12.223077012877976"><ele>14.0</ele><time>2026-04-06T08:16:06Z</time></trkpt><trkpt lat="45.66772324500931" lon="12.223179036929217"><ele>14.399999999999999</ele><time>2026-04-06T08:16:07Z</time></trkpt><trkpt lat="45.667801536840344" lon="12.22327096805744"><ele>14.799999999999999</ele><time>2026-04-06T08:16:08Z</time></trkpt><trkpt lat="45.667897959791304" lon="12.22329430423384"><ele>15.200000000000001</ele><time>2026-04-06T08:16:09Z</time></trkpt><trkpt lat="45.66800053367647" lon="12.223253860971285"><ele>15.600000000000001</ele><time>2026-04-06T08:16:10Z</time></trkpt><trkpt lat="45.668092252457214" lon="12.223170984703042"><ele>16.0</ele><time>2026-04-06T08:16:11Z</time></trkpt><trkpt lat="45.66814690119888" lon="12.223034378255536"><ele>16.0</ele><time>2026-04-06T08:16:12Z</time></trkpt><trkpt lat="45.66816915291343" lon="12.222873007581866"><ele>16.0</ele><time>2026-04-06T08:16:13Z</time></trkpt><trkpt lat="45.66816593994632" lon="12.222692278266498"><ele>16.0</ele><time>2026-04-06T08:16:14Z</time></trkpt><trkpt lat="45.66814857750495" lon="12.222477407883433"><ele>16.0</ele><time>2026-04-06T08:16:15Z</time></trkpt><trkpt lat="45.668168479773264" lon="12.222223508238345"><ele>15.0</ele><time>2026-04-06T08:16:16Z</time></trkpt><trkpt lat="45.66822543324176" lon="12.22198129945603"><ele>14.0</ele><time>2026-04-06T08:16:17Z</time></trkpt><trkpt lat="45.66825565692487" lon="12.221755358983742"><ele>13.0</ele><time>2026-04-06T08:16:18Z</time></trkpt><trkpt lat="45.66827067432206" lon="12.221584178985141"><ele>13.0</ele><time>2026-04-06T08:16:19Z</time></trkpt><trkpt lat="45.66829038236462" lon="12.221422794700358"><ele>13.0</ele><time>2026-04-06T08:16:20Z</time></trkpt><trkpt lat="45.66832809408599" lon="12.221267723438046"><ele>13.0</ele><time>2026-04-06T08:16:21Z</time></trkpt><trkpt lat="45.668381127588944" lon="12.221160243235154"><ele>13.0</ele><time>2026-04-06T08:16:22Z</time></trkpt><trkpt lat="45.66843927076463" lon="12.221061050927"><ele>13.0</ele><time>2026-04-06T08:16:23Z</time></trkpt><trkpt lat="45.66852153967173" lon="12.221010720430622"><ele>13.2</ele><time>2026-04-06T08:16:24Z</time></trkpt><trkpt lat="45.668621281350084" lon="12.220989114226146"><ele>13.4</ele><time>2026-04-06T08:16:24.999Z</time></trkpt><trkpt lat="45.66872856494181" lon="12.220980132123815"><ele>13.599999999999998</ele><time>2026-04-06T08:16:25.999Z</time></trkpt><trkpt lat="45.66882493732287" lon="12.220935913908537"><ele>13.799999999999999</ele><time>2026-04-06T08:16:26.999Z</time></trkpt><trkpt lat="45.668928828527456" lon="12.220907644390431"><ele>14.0</ele><time>2026-04-06T08:16:27.999Z</time></trkpt><trkpt lat="45.669073555038885" lon="12.220936943639598"><ele>14.0</ele><time>2026-04-06T08:16:28.999Z</time></trkpt><trkpt lat="45.66923012285179" lon="12.220973041126555"><ele>14.0</ele><time>2026-04-06T08:16:29.999Z</time></trkpt><trkpt lat="45.669374908842194" lon="12.220968890531378"><ele>14.0</ele><time>2026-04-06T08:16:30.999Z</time></trkpt><trkpt lat="45.66952198956213" lon="12.220942586006387"><ele>13.333333333333334</ele><time>2026-04-06T08:16:31.999Z</time></trkpt><trkpt lat="45.66969875748232" lon="12.220929234578888"><ele>12.666666666666668</ele><time>2026-04-06T08:16:32.999Z</time></trkpt><trkpt lat="45.66986745242288" lon="12.22093212878728"><ele>12.0</ele><time>2026-04-06T08:16:33.999Z</time></trkpt><trkpt lat="45.67002681791943" lon="12.220929617561193"><ele>12.0</ele><time>2026-04-06T08:16:34.999Z</time></trkpt><trkpt lat="45.67017625232969" lon="12.22091431455242"><ele>12.0</ele><time>2026-04-06T08:16:35.999Z</time></trkpt><trkpt lat="45.67031396195146" lon="12.220896609790088"><ele>12.0</ele><time>2026-04-06T08:16:36.999Z</time></trkpt><trkpt lat="45.670439823645275" lon="12.220887002517449"><ele>12.0</ele><time>2026-04-06T08:16:37.999Z</time></trkpt><trkpt lat="45.67053560716582" lon="12.220895941066502"><ele>12.5</ele><time>2026-04-06T08:16:38.999Z</time></trkpt><trkpt lat="45.670602237392366" lon="12.220895699073143"><ele>13.0</ele><time>2026-04-06T08:16:39.999Z</time></trkpt><trkpt lat="45.67067364471676" lon="12.220877991601375"><ele>13.5</ele><time>2026-04-06T08:16:43.999Z</time></trkpt><trkpt lat="45.67074871102133" lon="12.220876183089855"><ele>14.0</ele><time>2026-04-06T08:16:46.999Z</time></trkpt><trkpt lat="45.670847501912206" lon="12.22092358153783"><ele>14.5</ele><time>2026-04-06T08:16:48.999Z</time></trkpt><trkpt lat="45.670893260877065" lon="12.220987288518728"><ele>15.0</ele><time>2026-04-06T08:16:49.999Z</time></trkpt><trkpt lat="45.67095154900829" lon="12.221038578217735"><ele>15.0</ele><time>2026-04-06T08:16:50.999Z</time></trkpt><trkpt lat="45.67102211516376" lon="12.221029245065791"><ele>15.0</ele><time>2026-04-06T08:16:51.999Z</time></trkpt><trkpt lat="45.67107909843736" lon="12.220967900908239"><ele>15.0</ele><time>2026-04-06T08:16:52.999Z</time></trkpt><trkpt lat="45.67111600539672" lon="12.220881293497397"><ele>15.0</ele><time>2026-04-06T08:16:53.999Z</time></trkpt><trkpt lat="45.67113641895958" lon="12.22077257679008"><ele>15.0</ele><time>2026-04-06T08:16:54.999Z</time></trkpt><trkpt lat="45.671156971819045" lon="12.220642349690111"><ele>15.0</ele><time>2026-04-06T08:16:55.999Z</time></trkpt><trkpt lat="45.67118882902838" lon="12.220524230975206"><ele>14.6</ele><time>2026-04-06T08:16:56.999Z</time></trkpt><trkpt lat="45.67123279748358" lon="12.220409641227551"><ele>14.2</ele><time>2026-04-06T08:16:57.999Z</time></trkpt><trkpt lat="45.67127736030609" lon="12.220279192614644"><ele>13.8</ele><time>2026-04-06T08:16:58.999Z</time></trkpt><trkpt lat="45.67133314906655" lon="12.220144737430992"><ele>13.4</ele><time>2026-04-06T08:16:59.999Z</time></trkpt><trkpt lat="45.67137887989555" lon="12.220012769237682"><ele>13.0</ele><time>2026-04-06T08:17:00.999Z</time></trkpt><trkpt lat="45.67142620933155" lon="12.219889843384646"><ele>13.4</ele><time>2026-04-06T08:17:01.999Z</time></trkpt><trkpt lat="45.6714808137064" lon="12.219765868098408"><ele>13.8</ele><time>2026-04-06T08:17:02.999Z</time></trkpt><trkpt lat="45.671543389377426" lon="12.21964309196249"><ele>14.2</ele><time>2026-04-06T08:17:03.999Z</time></trkpt><trkpt lat="45.67161499119467" lon="12.219527501642832"><ele>14.6</ele><time>2026-04-06T08:17:04.999Z</time></trkpt><trkpt lat="45.67168559252421" lon="12.219440223968078"><ele>15.0</ele><time>2026-04-06T08:17:05.999Z</time></trkpt><trkpt lat="45.671762423165966" lon="12.21936061541837"><ele>15.0</ele><time>2026-04-06T08:17:06.999Z</time></trkpt><trkpt lat="45.67183855005769" lon="12.219289068120922"><ele>15.0</ele><time>2026-04-06T08:17:07.999Z</time></trkpt><trkpt lat="45.67190504573499" lon="12.219227061547778"><ele>15.0</ele><time>2026-04-06T08:17:08.999Z</time></trkpt><trkpt lat="45.67196227608495" lon="12.219174657304771"><ele>15.0</ele><time>2026-04-06T08:17:09.999Z</time></trkpt><trkpt lat="45.67202275318755" lon="12.2191197196925"><ele>15.0</ele><time>2026-04-06T08:17:10.999Z</time></trkpt><trkpt lat="45.67208658527766" lon="12.219061734257098"><ele>15.0</ele><time>2026-04-06T08:17:11.999Z</time></trkpt><trkpt lat="45.67215618906354" lon="12.218998505874314"><ele>14.8</ele><time>2026-04-06T08:17:13Z</time></trkpt><trkpt lat="45.672223015695934" lon="12.218915947287252"><ele>14.6</ele><time>2026-04-06T08:17:14Z</time></trkpt><trkpt lat="45.67231656570879" lon="12.218834995668512"><ele>14.399999999999999</ele><time>2026-04-06T08:17:15Z</time></trkpt><trkpt lat="45.67242563963532" lon="12.21875373501169"><ele>14.2</ele><time>2026-04-06T08:17:16Z</time></trkpt><trkpt lat="45.67251207557265" lon="12.218674558648976"><ele>14.0</ele><time>2026-04-06T08:17:17Z</time></trkpt><trkpt lat="45.67258837562073" lon="12.218604742953785"><ele>14.0</ele><time>2026-04-06T08:17:18Z</time></trkpt><trkpt lat="45.67266472302096" lon="12.218534884453538"><ele>13.999999999999998</ele><time>2026-04-06T08:17:19Z</time></trkpt><trkpt lat="45.672743995586835" lon="12.218462349563625"><ele>13.999999999999998</ele><time>2026-04-06T08:17:20Z</time></trkpt><trkpt lat="45.672824312414306" lon="12.218390250341509"><ele>14.0</ele><time>2026-04-06T08:17:21Z</time></trkpt><trkpt lat="45.672901901283325" lon="12.218320464008434"><ele>14.0</ele><time>2026-04-06T08:17:22Z</time></trkpt><trkpt lat="45.67297627068745" lon="12.218254503071984"><ele>14.399999999999999</ele><time>2026-04-06T08:17:23Z</time></trkpt><trkpt lat="45.67304671501824" lon="12.218191357938888"><ele>14.799999999999999</ele><time>2026-04-06T08:17:24Z</time></trkpt><trkpt lat="45.67312129980774" lon="12.218124505097558"><ele>15.200000000000001</ele><time>2026-04-06T08:17:25Z</time></trkpt><trkpt lat="45.673212864427946" lon="12.21806250426629"><ele>15.600000000000001</ele><time>2026-04-06T08:17:26Z</time></trkpt><trkpt lat="45.673322738659984" lon="12.217999284021314"><ele>16.0</ele><time>2026-04-06T08:17:27Z</time></trkpt><trkpt lat="45.67343416589449" lon="12.217937877615304"><ele>16.0</ele><time>2026-04-06T08:17:28Z</time></trkpt><trkpt lat="45.673541922632886" lon="12.217901451130597"><ele>16.0</ele><time>2026-04-06T08:17:29Z</time></trkpt><trkpt lat="45.673636924417764" lon="12.21786277365868"><ele>16.0</ele><time>2026-04-06T08:17:30Z</time></trkpt><trkpt lat="45.67372303413417" lon="12.21782433715568"><ele>16.0</ele><time>2026-04-06T08:17:31Z</time></trkpt><trkpt lat="45.67380858474" lon="12.217783396543577"><ele>16.0</ele><time>2026-04-06T08:17:32Z</time></trkpt><trkpt lat="45.673897794188655" lon="12.21773668368787"><ele>16.2</ele><time>2026-04-06T08:17:33Z</time></trkpt><trkpt lat="45.67398934217954" lon="12.21768263810613"><ele>16.400000000000002</ele><time>2026-04-06T08:17:34Z</time></trkpt><trkpt lat="45.67407320643041" lon="12.217620763449888"><ele>16.6</ele><time>2026-04-06T08:17:35Z</time></trkpt><trkpt lat="45.67414954867666" lon="12.217554103283405"><ele>16.8</ele><time>2026-04-06T08:17:36Z</time></trkpt><trkpt lat="45.67422759796967" lon="12.217481689111162"><ele>17.0</ele><time>2026-04-06T08:17:37Z</time></trkpt><trkpt lat="45.6742994816427" lon="12.217411202425303"><ele>17.0</ele><time>2026-04-06T08:17:38Z</time></trkpt><trkpt lat="45.674365745473516" lon="12.21734719948168"><ele>17.0</ele><time>2026-04-06T08:17:39Z</time></trkpt><trkpt lat="45.67442840975286" lon="12.217286673146372"><ele>17.0</ele><time>2026-04-06T08:17:40Z</time></trkpt><trkpt lat="45.674486805416336" lon="12.217230271715366"><ele>17.0</ele><time>2026-04-06T08:17:41Z</time></trkpt><trkpt lat="45.67454932652131" lon="12.21716988375022"><ele>17.0</ele><time>2026-04-06T08:17:42Z</time></trkpt><trkpt lat="45.67462462440005" lon="12.217097152952702"><ele>17.0</ele><time>2026-04-06T08:17:43Z</time></trkpt><trkpt lat="45.6747059464857" lon="12.21701713284631"><ele>17.2</ele><time>2026-04-06T08:17:44Z</time></trkpt><trkpt lat="45.674789156405886" lon="12.216934539003104"><ele>17.4</ele><time>2026-04-06T08:17:45Z</time></trkpt><trkpt lat="45.67487491243867" lon="12.216846100105938"><ele>17.6</ele><time>2026-04-06T08:17:46Z</time></trkpt><trkpt lat="45.674962850734744" lon="12.216754999756548"><ele>17.8</ele><time>2026-04-06T08:17:47Z</time></trkpt><trkpt lat="45.67504594864542" lon="12.21666814502021"><ele>18.0</ele><time>2026-04-06T08:17:48Z</time></trkpt><trkpt lat="45.67513285354597" lon="12.216584336780146"><ele>18.000000000000004</ele><time>2026-04-06T08:17:49Z</time></trkpt><trkpt lat="45.67521237534806" lon="12.2165055271169"><ele>18.0</ele><time>2026-04-06T08:17:50Z</time></trkpt><trkpt lat="45.67527375693345" lon="12.216442982592458"><ele>18.0</ele><time>2026-04-06T08:17:51Z</time></trkpt><trkpt lat="45.67532443238042" lon="12.216365733927786"><ele>18.0</ele><time>2026-04-06T08:17:52Z</time></trkpt><trkpt lat="45.67538044944483" lon="12.216319269617294"><ele>18.0</ele><time>2026-04-06T08:17:53Z</time></trkpt><trkpt lat="45.67543515972379" lon="12.21627323517281"><ele>18.000000000000004</ele><time>2026-04-06T08:17:54Z</time></trkpt><trkpt lat="45.67549852745871" lon="12.21621567301639"><ele>18.0</ele><time>2026-04-06T08:17:55Z</time></trkpt><trkpt lat="45.675572031207935" lon="12.216162354738092"><ele>18.6</ele><time>2026-04-06T08:17:56Z</time></trkpt><trkpt lat="45.675651203050606" lon="12.216097892195783"><ele>19.200000000000003</ele><time>2026-04-06T08:17:57Z</time></trkpt><trkpt lat="45.67573340859879" lon="12.216024942566476"><ele>19.8</ele><time>2026-04-06T08:17:58Z</time></trkpt><trkpt lat="45.67582053563821" lon="12.215952084800291"><ele>20.400000000000002</ele><time>2026-04-06T08:17:59Z</time></trkpt><trkpt lat="45.67592444806082" lon="12.215862462777162"><ele>21.0</ele><time>2026-04-06T08:18:00Z</time></trkpt><trkpt lat="45.67604874238316" lon="12.215752316125313"><ele>21.333333333333332</ele><time>2026-04-06T08:18:01Z</time></trkpt><trkpt lat="45.676175428758775" lon="12.215697033696722"><ele>21.666666666666664</ele><time>2026-04-06T08:18:02Z</time></trkpt><trkpt lat="45.67632000267178" lon="12.215573894668095"><ele>22.0</ele><time>2026-04-06T08:18:03Z</time></trkpt><trkpt lat="45.67647299319424" lon="12.215443863873015"><ele>21.666666666666664</ele><time>2026-04-06T08:18:04Z</time></trkpt><trkpt lat="45.67664127278648" lon="12.21530073473597"><ele>21.333333333333332</ele><time>2026-04-06T08:18:05Z</time></trkpt><trkpt lat="45.67681274591361" lon="12.215153507204853"><ele>21.0</ele><time>2026-04-06T08:18:06Z</time></trkpt><trkpt lat="45.676990717725126" lon="12.2150023117548"><ele>21.0</ele><time>2026-04-06T08:18:07Z</time></trkpt><trkpt lat="45.677152184895704" lon="12.214862654576564"><ele>21.0</ele><time>2026-04-06T08:18:08Z</time></trkpt><trkpt lat="45.67731266489974" lon="12.214720439069334"><ele>21.0</ele><time>2026-04-06T08:18:09Z</time></trkpt><trkpt lat="45.677470033157825" lon="12.214574123321785"><ele>21.333333333333332</ele><time>2026-04-06T08:18:10Z</time></trkpt><trkpt lat="45.677632917516654" lon="12.214422007683098"><ele>21.666666666666664</ele><time>2026-04-06T08:18:11Z</time></trkpt><trkpt lat="45.677784646419" lon="12.214280804335381"><ele>22.0</ele><time>2026-04-06T08:18:12Z</time></trkpt><trkpt lat="45.67790379395565" lon="12.214171103729795"><ele>21.8</ele><time>2026-04-06T08:18:13Z</time></trkpt><trkpt lat="45.67801168253855" lon="12.214071169752218"><ele>21.6</ele><time>2026-04-06T08:18:14Z</time></trkpt><trkpt lat="45.67810427130494" lon="12.213986298512367"><ele>21.400000000000002</ele><time>2026-04-06T08:18:15Z</time></trkpt><trkpt lat="45.678189712345294" lon="12.213909448725008"><ele>21.200000000000003</ele><time>2026-04-06T08:18:16Z</time></trkpt><trkpt lat="45.678272635078095" lon="12.213837040025284"><ele>21.0</ele><time>2026-04-06T08:18:17Z</time></trkpt><trkpt lat="45.67835269229241" lon="12.213767133459674"><ele>21.0</ele><time>2026-04-06T08:18:18Z</time></trkpt><trkpt lat="45.67841946613157" lon="12.213710429712735"><ele>21.0</ele><time>2026-04-06T08:18:19Z</time></trkpt><trkpt lat="45.67847987846978" lon="12.213660251579496"><ele>21.0</ele><time>2026-04-06T08:18:20Z</time></trkpt><trkpt lat="45.67852766972958" lon="12.213598568966878"><ele>21.0</ele><time>2026-04-06T08:18:21Z</time></trkpt><trkpt lat="45.67859582611769" lon="12.213550425486106"><ele>21.0</ele><time>2026-04-06T08:18:22Z</time></trkpt><trkpt lat="45.678657581831786" lon="12.213508997875756"><ele>21.0</ele><time>2026-04-06T08:18:23Z</time></trkpt><trkpt lat="45.67872544421878" lon="12.2134672991556"><ele>21.0</ele><time>2026-04-06T08:18:24Z</time></trkpt><trkpt lat="45.678789256390296" lon="12.213431700587059"><ele>21.0</ele><time>2026-04-06T08:18:25Z</time></trkpt><trkpt lat="45.67889845350846" lon="12.213388125825425"><ele>21.0</ele><time>2026-04-06T08:18:26.999Z</time></trkpt><trkpt lat="45.6789682517763" lon="12.213408178592672"><ele>21.0</ele><time>2026-04-06T08:18:28.999Z</time></trkpt><trkpt lat="45.67905086630871" lon="12.21346623435236"><ele>21.0</ele><time>2026-04-06T08:18:30.999Z</time></trkpt><trkpt lat="45.67915558652394" lon="12.213495257567924"><ele>21.0</ele><time>2026-04-06T08:18:32.999Z</time></trkpt><trkpt lat="45.6792188167674" lon="12.213472056102503"><ele>21.0</ele><time>2026-04-06T08:18:33.999Z</time></trkpt><trkpt lat="45.67927307325793" lon="12.213416433005534"><ele>21.0</ele><time>2026-04-06T08:18:34.999Z</time></trkpt><trkpt lat="45.67929759166008" lon="12.213310902117197"><ele>21.0</ele><time>2026-04-06T08:18:35.999Z</time></trkpt><trkpt lat="45.67931227908662" lon="12.213203784557301"><ele>21.0</ele><time>2026-04-06T08:18:36.999Z</time></trkpt><trkpt lat="45.679322494051256" lon="12.213098164420654"><ele>21.0</ele><time>2026-04-06T08:18:37.999Z</time></trkpt><trkpt lat="45.67936179573816" lon="12.212988474158259"><ele>21.0</ele><time>2026-04-06T08:18:38.999Z</time></trkpt><trkpt lat="45.67945173387247" lon="12.212906912900278"><ele>21.0</ele><time>2026-04-06T08:18:39.999Z</time></trkpt><trkpt lat="45.67953187770715" lon="12.21280234803404"><ele>21.0</ele><time>2026-04-06T08:18:40.999Z</time></trkpt><trkpt lat="45.67961548338628" lon="12.212693671071234"><ele>21.0</ele><time>2026-04-06T08:18:41.999Z</time></trkpt><trkpt lat="45.67970623774089" lon="12.212575628632383"><ele>21.0</ele><time>2026-04-06T08:18:42.999Z</time></trkpt><trkpt lat="45.679815557878754" lon="12.212433438109285"><ele>21.0</ele><time>2026-04-06T08:18:43.999Z</time></trkpt><trkpt lat="45.679938366758954" lon="12.21227370287545"><ele>20.75</ele><time>2026-04-06T08:18:44.999Z</time></trkpt><trkpt lat="45.68004923115477" lon="12.21213144342352"><ele>20.5</ele><time>2026-04-06T08:18:45.999Z</time></trkpt><trkpt lat="45.68014855647428" lon="12.212008333149477"><ele>20.25</ele><time>2026-04-06T08:18:46.999Z</time></trkpt><trkpt lat="45.680240510280875" lon="12.211896538512843"><ele>20.0</ele><time>2026-04-06T08:18:47.999Z</time></trkpt><trkpt lat="45.680330343853385" lon="12.211787321435992"><ele>20.0</ele><time>2026-04-06T08:18:48.999Z</time></trkpt><trkpt lat="45.68041464516029" lon="12.211656508004289"><ele>20.0</ele><time>2026-04-06T08:18:49.999Z</time></trkpt><trkpt lat="45.680521547400296" lon="12.21156589677285"><ele>20.0</ele><time>2026-04-06T08:18:50.999Z</time></trkpt><trkpt lat="45.68061825608368" lon="12.211468391788083"><ele>20.0</ele><time>2026-04-06T08:18:51.999Z</time></trkpt><trkpt lat="45.680711316228766" lon="12.21137680238265"><ele>19.75</ele><time>2026-04-06T08:18:52.999Z</time></trkpt><trkpt lat="45.6808045667184" lon="12.2112878701624"><ele>19.5</ele><time>2026-04-06T08:18:53.999Z</time></trkpt><trkpt lat="45.6809002438288" lon="12.211194962468783"><ele>19.25</ele><time>2026-04-06T08:18:54.999Z</time></trkpt><trkpt lat="45.680999819816215" lon="12.21109878701672"><ele>19.0</ele><time>2026-04-06T08:18:55.999Z</time></trkpt><trkpt lat="45.681116374994694" lon="12.210986317794996"><ele>20.0</ele><time>2026-04-06T08:18:56.999Z</time></trkpt><trkpt lat="45.68125588483809" lon="12.210851698608097"><ele>21.0</ele><time>2026-04-06T08:18:57.999Z</time></trkpt><trkpt lat="45.681403198340334" lon="12.21068119496737"><ele>22.0</ele><time>2026-04-06T08:18:58.999Z</time></trkpt><trkpt lat="45.68158456687153" lon="12.210513762290125"><ele>22.0</ele><time>2026-04-06T08:18:59.999Z</time></trkpt><trkpt lat="45.681771557579125" lon="12.210305199163994"><ele>22.0</ele><time>2026-04-06T08:19:00.999Z</time></trkpt><trkpt lat="45.68195439075227" lon="12.210075220699679"><ele>22.333333333333332</ele><time>2026-04-06T08:19:01.999Z</time></trkpt><trkpt lat="45.68211197762774" lon="12.209845241384341"><ele>22.666666666666668</ele><time>2026-04-06T08:19:02.999Z</time></trkpt><trkpt lat="45.6822718076999" lon="12.209620233208714"><ele>23.0</ele><time>2026-04-06T08:19:03.999Z</time></trkpt><trkpt lat="45.68244335618361" lon="12.209399119156082"><ele>23.0</ele><time>2026-04-06T08:19:04.999Z</time></trkpt><trkpt lat="45.6826193101509" lon="12.209180833957765"><ele>23.0</ele><time>2026-04-06T08:19:05.999Z</time></trkpt><trkpt lat="45.68279986111688" lon="12.20896379257308"><ele>22.5</ele><time>2026-04-06T08:19:06.999Z</time></trkpt><trkpt lat="45.682985543746405" lon="12.2087420267341"><ele>22.0</ele><time>2026-04-06T08:19:07.999Z</time></trkpt><trkpt lat="45.68317702935504" lon="12.208494616630666"><ele>22.0</ele><time>2026-04-06T08:19:08.999Z</time></trkpt><trkpt lat="45.68337542531776" lon="12.208225274117279"><ele>22.0</ele><time>2026-04-06T08:19:09.999Z</time></trkpt><trkpt lat="45.683583457736894" lon="12.207953172246025"><ele>22.0</ele><time>2026-04-06T08:19:10.999Z</time></trkpt><trkpt lat="45.683785749584864" lon="12.207688984537851"><ele>22.0</ele><time>2026-04-06T08:19:11.999Z</time></trkpt><trkpt lat="45.68398377562579" lon="12.20742412669994"><ele>22.5</ele><time>2026-04-06T08:19:12.999Z</time></trkpt><trkpt lat="45.6841910978321" lon="12.207183208135548"><ele>23.0</ele><time>2026-04-06T08:19:13.999Z</time></trkpt><trkpt lat="45.68438677015561" lon="12.206929211700137"><ele>22.0</ele><time>2026-04-06T08:19:14.999Z</time></trkpt><trkpt lat="45.68457666953667" lon="12.206682945568842"><ele>21.0</ele><time>2026-04-06T08:19:15.999Z</time></trkpt><trkpt lat="45.684762008845105" lon="12.206412153662926"><ele>21.0</ele><time>2026-04-06T08:19:16.999Z</time></trkpt><trkpt lat="45.68496114593242" lon="12.206149300957705"><ele>21.0</ele><time>2026-04-06T08:19:17.999Z</time></trkpt><trkpt lat="45.68516852041895" lon="12.205900789179514"><ele>22.5</ele><time>2026-04-06T08:19:19Z</time></trkpt><trkpt lat="45.68535258610912" lon="12.205641612260504"><ele>24.0</ele><time>2026-04-06T08:19:20Z</time></trkpt><trkpt lat="45.68552576256269" lon="12.2053522689624"><ele>24.0</ele><time>2026-04-06T08:19:21Z</time></trkpt><trkpt lat="45.68572937870157" lon="12.205076832184158"><ele>24.0</ele><time>2026-04-06T08:19:22Z</time></trkpt><trkpt lat="45.685929824835675" lon="12.204780335930987"><ele>24.0</ele><time>2026-04-06T08:19:23Z</time></trkpt><trkpt lat="45.68613680254369" lon="12.204473186151267"><ele>24.0</ele><time>2026-04-06T08:19:24Z</time></trkpt><trkpt lat="45.686333078250954" lon="12.204147922169188"><ele>24.5</ele><time>2026-04-06T08:19:25Z</time></trkpt><trkpt lat="45.686547450080084" lon="12.20385778565016"><ele>25.0</ele><time>2026-04-06T08:19:26Z</time></trkpt><trkpt lat="45.68673892874862" lon="12.203568684186987"><ele>25.0</ele><time>2026-04-06T08:19:27Z</time></trkpt><trkpt lat="45.68691784199787" lon="12.203284588579697"><ele>25.0</ele><time>2026-04-06T08:19:28Z</time></trkpt><trkpt lat="45.68707329260327" lon="12.20297607616299"><ele>25.5</ele><time>2026-04-06T08:19:29Z</time></trkpt><trkpt lat="45.68722836129569" lon="12.202645376364707"><ele>26.0</ele><time>2026-04-06T08:19:30Z</time></trkpt><trkpt lat="45.68738065611855" lon="12.202284285654937"><ele>26.0</ele><time>2026-04-06T08:19:31Z</time></trkpt><trkpt lat="45.68754961822039" lon="12.201906011738313"><ele>26.0</ele><time>2026-04-06T08:19:32Z</time></trkpt><trkpt lat="45.68770911426517" lon="12.201521333456059"><ele>26.0</ele><time>2026-04-06T08:19:33Z</time></trkpt><trkpt lat="45.687856404658305" lon="12.201167942676399"><ele>26.0</ele><time>2026-04-06T08:19:34Z</time></trkpt><trkpt lat="45.687990063178844" lon="12.200847259136856"><ele>25.0</ele><time>2026-04-06T08:19:35Z</time></trkpt><trkpt lat="45.688090233582976" lon="12.200518840017804"><ele>24.0</ele><time>2026-04-06T08:19:36Z</time></trkpt><trkpt lat="45.68821382371246" lon="12.200235175269325"><ele>24.0</ele><time>2026-04-06T08:19:37Z</time></trkpt><trkpt lat="45.68832508108917" lon="12.199975371662434"><ele>24.0</ele><time>2026-04-06T08:19:38Z</time></trkpt><trkpt lat="45.688424946505876" lon="12.199728611366211"><ele>24.0</ele><time>2026-04-06T08:19:39Z</time></trkpt><trkpt lat="45.68853230786129" lon="12.199539097819542"><ele>25.0</ele><time>2026-04-06T08:19:40Z</time></trkpt><trkpt lat="45.68861321118036" lon="12.199345375252678"><ele>26.0</ele><time>2026-04-06T08:19:41Z</time></trkpt><trkpt lat="45.688686406323406" lon="12.199170773740097"><ele>27.0</ele><time>2026-04-06T08:19:42Z</time></trkpt><trkpt lat="45.68875936861985" lon="12.198996097237465"><ele>28.0</ele><time>2026-04-06T08:19:43Z</time></trkpt><trkpt lat="45.68882776747834" lon="12.19883143641095"><ele>28.0</ele><time>2026-04-06T08:19:44Z</time></trkpt><trkpt lat="45.68889147361109" lon="12.198678077113758"><ele>28.0</ele><time>2026-04-06T08:19:45Z</time></trkpt><trkpt lat="45.688948871783865" lon="12.198499187276601"><ele>28.0</ele><time>2026-04-06T08:19:46Z</time></trkpt><trkpt lat="45.6890269376351" lon="12.198319830972844"><ele>28.0</ele><time>2026-04-06T08:19:47Z</time></trkpt><trkpt lat="45.68911088544766" lon="12.198132796786066"><ele>27.666666666666668</ele><time>2026-04-06T08:19:48Z</time></trkpt><trkpt lat="45.68919852748918" lon="12.197947842655658"><ele>27.333333333333336</ele><time>2026-04-06T08:19:49Z</time></trkpt><trkpt lat="45.689293538449895" lon="12.197751572122144"><ele>27.0</ele><time>2026-04-06T08:19:50Z</time></trkpt><trkpt lat="45.689394443630526" lon="12.197549436756425"><ele>27.0</ele><time>2026-04-06T08:19:51Z</time></trkpt><trkpt lat="45.68949930623021" lon="12.197355331163571"><ele>27.0</ele><time>2026-04-06T08:19:52Z</time></trkpt><trkpt lat="45.689609644748714" lon="12.197178374884214"><ele>27.0</ele><time>2026-04-06T08:19:53Z</time></trkpt><trkpt lat="45.6897256208983" lon="12.19702784638007"><ele>27.0</ele><time>2026-04-06T08:19:54Z</time></trkpt><trkpt lat="45.689846210211606" lon="12.196893329511814"><ele>27.0</ele><time>2026-04-06T08:19:55Z</time></trkpt><trkpt lat="45.68996328226352" lon="12.196768818755"><ele>27.0</ele><time>2026-04-06T08:19:56Z</time></trkpt><trkpt lat="45.69007047944827" lon="12.196626495236606"><ele>27.0</ele><time>2026-04-06T08:19:57Z</time></trkpt><trkpt lat="45.690187194829846" lon="12.196496605639288"><ele>27.5</ele><time>2026-04-06T08:19:58Z</time></trkpt><trkpt lat="45.690310700191745" lon="12.196375310942457"><ele>28.0</ele><time>2026-04-06T08:19:59Z</time></trkpt><trkpt lat="45.69042657416559" lon="12.196257284986155"><ele>28.5</ele><time>2026-04-06T08:20:00Z</time></trkpt><trkpt lat="45.69053828268316" lon="12.196143691210484"><ele>29.0</ele><time>2026-04-06T08:20:01Z</time></trkpt><trkpt lat="45.690653406581916" lon="12.196030797682358"><ele>29.0</ele><time>2026-04-06T08:20:02Z</time></trkpt><trkpt lat="45.690770799789206" lon="12.195911884820088"><ele>29.0</ele><time>2026-04-06T08:20:03Z</time></trkpt><trkpt lat="45.69088894210115" lon="12.195785822020582"><ele>29.0</ele><time>2026-04-06T08:20:04Z</time></trkpt><trkpt lat="45.691007954980776" lon="12.195668502864148"><ele>29.0</ele><time>2026-04-06T08:20:05Z</time></trkpt><trkpt lat="45.69112585051298" lon="12.195555284091375"><ele>29.0</ele><time>2026-04-06T08:20:06Z</time></trkpt><trkpt lat="45.69124924389568" lon="12.195432548593171"><ele>29.0</ele><time>2026-04-06T08:20:07Z</time></trkpt><trkpt lat="45.69138771973892" lon="12.195287393122157"><ele>29.0</ele><time>2026-04-06T08:20:08Z</time></trkpt><trkpt lat="45.69154703519243" lon="12.195102614579639"><ele>29.0</ele><time>2026-04-06T08:20:09Z</time></trkpt><trkpt lat="45.69173628377243" lon="12.194918415270394"><ele>29.0</ele><time>2026-04-06T08:20:10Z</time></trkpt><trkpt lat="45.691938286632606" lon="12.194743352390407"><ele>29.0</ele><time>2026-04-06T08:20:11Z</time></trkpt><trkpt lat="45.692119889145054" lon="12.194556016864922"><ele>29.0</ele><time>2026-04-06T08:20:12Z</time></trkpt><trkpt lat="45.69228267634458" lon="12.194383114902024"><ele>29.0</ele><time>2026-04-06T08:20:13Z</time></trkpt><trkpt lat="45.69244364197169" lon="12.194223902782044"><ele>29.0</ele><time>2026-04-06T08:20:14Z</time></trkpt><trkpt lat="45.692572796421224" lon="12.194096867303049"><ele>29.0</ele><time>2026-04-06T08:20:15Z</time></trkpt><trkpt lat="45.692678027751576" lon="12.193997394107546"><ele>29.0</ele><time>2026-04-06T08:20:16Z</time></trkpt><trkpt lat="45.6927844644657" lon="12.193901839216933"><ele>29.0</ele><time>2026-04-06T08:20:17Z</time></trkpt><trkpt lat="45.69288492441938" lon="12.193788463983772"><ele>29.0</ele><time>2026-04-06T08:20:18Z</time></trkpt><trkpt lat="45.692969211687014" lon="12.1936792679724"><ele>29.0</ele><time>2026-04-06T08:20:19Z</time></trkpt><trkpt lat="45.693052294293665" lon="12.193568500437898"><ele>29.0</ele><time>2026-04-06T08:20:20Z</time></trkpt><trkpt lat="45.69314264806622" lon="12.193422709758707"><ele>29.0</ele><time>2026-04-06T08:20:21Z</time></trkpt><trkpt lat="45.69323832760137" lon="12.193223847587594"><ele>29.0</ele><time>2026-04-06T08:20:22Z</time></trkpt><trkpt lat="45.69335633436287" lon="12.193009105558584"><ele>29.0</ele><time>2026-04-06T08:20:23Z</time></trkpt><trkpt lat="45.693503943963215" lon="12.192771861033876"><ele>29.0</ele><time>2026-04-06T08:20:23.999Z</time></trkpt><trkpt lat="45.69365572909603" lon="12.192524999331228"><ele>28.666666666666664</ele><time>2026-04-06T08:20:24.999Z</time></trkpt><trkpt lat="45.69379155973367" lon="12.192293447839054"><ele>28.333333333333336</ele><time>2026-04-06T08:20:25.999Z</time></trkpt><trkpt lat="45.69393337486998" lon="12.192047767589427"><ele>28.0</ele><time>2026-04-06T08:20:26.999Z</time></trkpt><trkpt lat="45.69409121810888" lon="12.191778062084019"><ele>29.0</ele><time>2026-04-06T08:20:27.999Z</time></trkpt><trkpt lat="45.694258510390476" lon="12.191495120582188"><ele>30.0</ele><time>2026-04-06T08:20:28.999Z</time></trkpt><trkpt lat="45.69443655340856" lon="12.191186898933706"><ele>30.0</ele><time>2026-04-06T08:20:29.999Z</time></trkpt><trkpt lat="45.694611821623766" lon="12.190873157834742"><ele>30.0</ele><time>2026-04-06T08:20:30.999Z</time></trkpt><trkpt lat="45.69476947062967" lon="12.19058049889303"><ele>30.5</ele><time>2026-04-06T08:20:31.999Z</time></trkpt><trkpt lat="45.69493331913239" lon="12.190285018991146"><ele>31.0</ele><time>2026-04-06T08:20:32.999Z</time></trkpt><trkpt lat="45.695109342241416" lon="12.189981133934454"><ele>32.5</ele><time>2026-04-06T08:20:33.999Z</time></trkpt><trkpt lat="45.69528994675011" lon="12.1896743259159"><ele>34.0</ele><time>2026-04-06T08:20:34.999Z</time></trkpt><trkpt lat="45.69546532989111" lon="12.189359892670774"><ele>34.0</ele><time>2026-04-06T08:20:35.999Z</time></trkpt><trkpt lat="45.69564531616144" lon="12.189045616712114"><ele>34.0</ele><time>2026-04-06T08:20:36.999Z</time></trkpt><trkpt lat="45.69583031136762" lon="12.188726300057004"><ele>33.0</ele><time>2026-04-06T08:20:37.999Z</time></trkpt><trkpt lat="45.69601316232524" lon="12.188406887769347"><ele>32.0</ele><time>2026-04-06T08:20:38.999Z</time></trkpt><trkpt lat="45.69619047859007" lon="12.18809132625082"><ele>32.0</ele><time>2026-04-06T08:20:39.999Z</time></trkpt><trkpt lat="45.69634718862992" lon="12.18781337896761"><ele>32.0</ele><time>2026-04-06T08:20:40.999Z</time></trkpt><trkpt lat="45.69647752396994" lon="12.187588879267945"><ele>32.0</ele><time>2026-04-06T08:20:41.999Z</time></trkpt><trkpt lat="45.6965994344755" lon="12.187377108840316"><ele>32.0</ele><time>2026-04-06T08:20:42.999Z</time></trkpt><trkpt lat="45.696708088060745" lon="12.187190428859365"><ele>32.0</ele><time>2026-04-06T08:20:43.999Z</time></trkpt><trkpt lat="45.6967996627196" lon="12.187032936111457"><ele>31.833333333333332</ele><time>2026-04-06T08:20:44.999Z</time></trkpt><trkpt lat="45.69687451779337" lon="12.186899871186267"><ele>31.666666666666664</ele><time>2026-04-06T08:20:45.999Z</time></trkpt><trkpt lat="45.69693952295756" lon="12.186787953552264"><ele>31.5</ele><time>2026-04-06T08:20:46.999Z</time></trkpt><trkpt lat="45.69699570571437" lon="12.186690240957377"><ele>31.333333333333336</ele><time>2026-04-06T08:20:47.999Z</time></trkpt><trkpt lat="45.697041762005696" lon="12.186604497871134"><ele>31.166666666666668</ele><time>2026-04-06T08:20:48.999Z</time></trkpt><trkpt lat="45.697078460294236" lon="12.186529883686106"><ele>31.0</ele><time>2026-04-06T08:20:49.999Z</time></trkpt><trkpt lat="45.69713487823681" lon="12.186416916744538"><ele>31.6</ele><time>2026-04-06T08:20:51.999Z</time></trkpt><trkpt lat="45.69717455210254" lon="12.186329852699602"><ele>32.2</ele><time>2026-04-06T08:20:53.999Z</time></trkpt><trkpt lat="45.69722681605201" lon="12.186240995214789"><ele>32.8</ele><time>2026-04-06T08:20:56.999Z</time></trkpt><trkpt lat="45.6973018556036" lon="12.186119148834125"><ele>33.4</ele><time>2026-04-06T08:21:22.999Z</time></trkpt><trkpt lat="45.69737684901296" lon="12.18603718725479"><ele>34.0</ele><time>2026-04-06T08:21:23.999Z</time></trkpt><trkpt lat="45.69744626441936" lon="12.185913023503813"><ele>34.0</ele><time>2026-04-06T08:21:25Z</time></trkpt><trkpt lat="45.697519697720494" lon="12.18578009479952"><ele>34.0</ele><time>2026-04-06T08:21:26Z</time></trkpt><trkpt lat="45.697606302486946" lon="12.185626802562082"><ele>34.0</ele><time>2026-04-06T08:21:27Z</time></trkpt><trkpt lat="45.697683256277315" lon="12.185450028422736"><ele>34.0</ele><time>2026-04-06T08:21:28Z</time></trkpt><trkpt lat="45.697788458990644" lon="12.185273221124605"><ele>34.333333333333336</ele><time>2026-04-06T08:21:29Z</time></trkpt><trkpt lat="45.69789270702083" lon="12.185092574562807"><ele>34.666666666666664</ele><time>2026-04-06T08:21:30Z</time></trkpt><trkpt lat="45.698005485075896" lon="12.184900449217118"><ele>35.0</ele><time>2026-04-06T08:21:31Z</time></trkpt><trkpt lat="45.69812763082216" lon="12.18469850795098"><ele>34.33333333333333</ele><time>2026-04-06T08:21:32Z</time></trkpt><trkpt lat="45.698272875398565" lon="12.184500772984109"><ele>33.666666666666664</ele><time>2026-04-06T08:21:33Z</time></trkpt><trkpt lat="45.69840817226772" lon="12.184273160891012"><ele>33.0</ele><time>2026-04-06T08:21:34Z</time></trkpt><trkpt lat="45.69854114490536" lon="12.184049997728804"><ele>34.0</ele><time>2026-04-06T08:21:35Z</time></trkpt><trkpt lat="45.69875611192743" lon="12.183694841746183"><ele>35.0</ele><time>2026-04-06T08:21:36Z</time></trkpt><trkpt lat="45.69890523204611" lon="12.183455857771786"><ele>35.0</ele><time>2026-04-06T08:21:37Z</time></trkpt><trkpt lat="45.69906319988828" lon="12.183210552050085"><ele>35.0</ele><time>2026-04-06T08:21:38Z</time></trkpt><trkpt lat="45.69923043659925" lon="12.182956347779724"><ele>34.5</ele><time>2026-04-06T08:21:39Z</time></trkpt><trkpt lat="45.6994037856615" lon="12.182708790030219"><ele>34.0</ele><time>2026-04-06T08:21:40Z</time></trkpt><trkpt lat="45.69958518163894" lon="12.182459491912853"><ele>34.0</ele><time>2026-04-06T08:21:41Z</time></trkpt><trkpt lat="45.69976921760368" lon="12.182207571690927"><ele>34.0</ele><time>2026-04-06T08:21:42Z</time></trkpt><trkpt lat="45.69995953025675" lon="12.181946837981156"><ele>34.0</ele><time>2026-04-06T08:21:43Z</time></trkpt><trkpt lat="45.70014336786322" lon="12.181673330194107"><ele>34.0</ele><time>2026-04-06T08:21:44Z</time></trkpt><trkpt lat="45.70033904212486" lon="12.181429024433234"><ele>35.5</ele><time>2026-04-06T08:21:45Z</time></trkpt><trkpt lat="45.70051491184358" lon="12.18118935538095"><ele>37.0</ele><time>2026-04-06T08:21:46Z</time></trkpt><trkpt lat="45.70067144207157" lon="12.180976041501324"><ele>37.0</ele><time>2026-04-06T08:21:47Z</time></trkpt><trkpt lat="45.70082868840449" lon="12.18076179587285"><ele>37.0</ele><time>2026-04-06T08:21:48Z</time></trkpt><trkpt lat="45.70097315426989" lon="12.18056499887415"><ele>37.0</ele><time>2026-04-06T08:21:49Z</time></trkpt><trkpt lat="45.701106687675484" lon="12.180383094499614"><ele>37.333333333333336</ele><time>2026-04-06T08:21:50Z</time></trkpt><trkpt lat="45.7012297272889" lon="12.180215485167787"><ele>37.666666666666664</ele><time>2026-04-06T08:21:51Z</time></trkpt><trkpt lat="45.70135136747136" lon="12.180047072903232"><ele>38.0</ele><time>2026-04-06T08:21:52Z</time></trkpt><trkpt lat="45.70148396907421" lon="12.179850203173475"><ele>37.33333333333333</ele><time>2026-04-06T08:21:53Z</time></trkpt><trkpt lat="45.701613176728614" lon="12.179626854831433"><ele>36.666666666666664</ele><time>2026-04-06T08:21:54Z</time></trkpt><trkpt lat="45.70173785711026" lon="12.17937655973031"><ele>36.0</ele><time>2026-04-06T08:21:55Z</time></trkpt><trkpt lat="45.70184627228116" lon="12.17915231232903"><ele>37.333333333333336</ele><time>2026-04-06T08:21:56Z</time></trkpt><trkpt lat="45.701948133635696" lon="12.178937734856776"><ele>38.66666666666667</ele><time>2026-04-06T08:21:57Z</time></trkpt><trkpt lat="45.70204276883125" lon="12.178739818338661"><ele>40.0</ele><time>2026-04-06T08:21:58Z</time></trkpt><trkpt lat="45.70212949846472" lon="12.178561636694889"><ele>40.0</ele><time>2026-04-06T08:21:59Z</time></trkpt><trkpt lat="45.70222090086405" lon="12.178385969858999"><ele>40.0</ele><time>2026-04-06T08:22:00Z</time></trkpt><trkpt lat="45.70230267612276" lon="12.178216335555945"><ele>40.0</ele><time>2026-04-06T08:22:01Z</time></trkpt><trkpt lat="45.70236979561079" lon="12.178047893492256"><ele>40.0</ele><time>2026-04-06T08:22:02Z</time></trkpt><trkpt lat="45.70242162755297" lon="12.177880978385334"><ele>39.8</ele><time>2026-04-06T08:22:03Z</time></trkpt><trkpt lat="45.70246062658695" lon="12.177717260591326"><ele>39.6</ele><time>2026-04-06T08:22:04Z</time></trkpt><trkpt lat="45.70250259236342" lon="12.177562982848176"><ele>39.4</ele><time>2026-04-06T08:22:05Z</time></trkpt><trkpt lat="45.70255159223356" lon="12.177425397415142"><ele>39.2</ele><time>2026-04-06T08:22:06Z</time></trkpt><trkpt lat="45.70258472824879" lon="12.17729201104005"><ele>39.0</ele><time>2026-04-06T08:22:07Z</time></trkpt><trkpt lat="45.702616934009626" lon="12.17717321707371"><ele>38.6</ele><time>2026-04-06T08:22:08Z</time></trkpt><trkpt lat="45.70269587027163" lon="12.177054942037316"><ele>38.2</ele><time>2026-04-06T08:22:10Z</time></trkpt><trkpt lat="45.702754989667916" lon="12.177023199216183"><ele>37.800000000000004</ele><time>2026-04-06T08:22:11Z</time></trkpt><trkpt lat="45.702826143524014" lon="12.176989549544082"><ele>37.4</ele><time>2026-04-06T08:22:12Z</time></trkpt><trkpt lat="45.702919952575066" lon="12.176964169493287"><ele>37.0</ele><time>2026-04-06T08:22:13Z</time></trkpt><trkpt lat="45.70302872488634" lon="12.17696957423474"><ele>38.0</ele><time>2026-04-06T08:22:14Z</time></trkpt><trkpt lat="45.70313644319809" lon="12.176952774588509"><ele>39.0</ele><time>2026-04-06T08:22:15Z</time></trkpt><trkpt lat="45.70323055651463" lon="12.176866311105845"><ele>40.0</ele><time>2026-04-06T08:22:16Z</time></trkpt><trkpt lat="45.70329290078681" lon="12.176734363273818"><ele>41.0</ele><time>2026-04-06T08:22:17Z</time></trkpt><trkpt lat="45.703360209525684" lon="12.17664356411445"><ele>42.0</ele><time>2026-04-06T08:22:18Z</time></trkpt><trkpt lat="45.703414010722646" lon="12.176576965722587"><ele>41.0</ele><time>2026-04-06T08:22:19Z</time></trkpt><trkpt lat="45.703313361691244" lon="12.176270623163168"><ele>40.0</ele><time>2026-04-06T08:22:20Z</time></trkpt><trkpt lat="45.70334234516251" lon="12.176099902321273"><ele>39.0</ele><time>2026-04-06T08:22:21Z</time></trkpt><trkpt lat="45.70342632234972" lon="12.175934107986247"><ele>39.0</ele><time>2026-04-06T08:22:22Z</time></trkpt><trkpt lat="45.70355113826948" lon="12.175780634191323"><ele>39.0</ele><time>2026-04-06T08:22:23Z</time></trkpt><trkpt lat="45.70370627969693" lon="12.17564687342862"><ele>39.0</ele><time>2026-04-06T08:22:24Z</time></trkpt><trkpt lat="45.70386749143931" lon="12.175533451288805"><ele>39.666666666666664</ele><time>2026-04-06T08:22:25Z</time></trkpt><trkpt lat="45.70400824105641" lon="12.175422892531357"><ele>40.33333333333333</ele><time>2026-04-06T08:22:26Z</time></trkpt><trkpt lat="45.70413644397383" lon="12.175306088577983"><ele>41.0</ele><time>2026-04-06T08:22:26.999Z</time></trkpt><trkpt lat="45.70427843370493" lon="12.175156949269429"><ele>41.33333333333333</ele><time>2026-04-06T08:22:27.999Z</time></trkpt><trkpt lat="45.704423427083555" lon="12.174984969249067"><ele>41.666666666666664</ele><time>2026-04-06T08:22:28.999Z</time></trkpt><trkpt lat="45.70457146898221" lon="12.174780740507666"><ele>42.0</ele><time>2026-04-06T08:22:29.999Z</time></trkpt><trkpt lat="45.70471614708447" lon="12.174571320086063"><ele>42.0</ele><time>2026-04-06T08:22:30.999Z</time></trkpt><trkpt lat="45.70484667851598" lon="12.174375775467865"><ele>42.0</ele><time>2026-04-06T08:22:31.999Z</time></trkpt><trkpt lat="45.704981837094174" lon="12.174175269820257"><ele>42.0</ele><time>2026-04-06T08:22:32.999Z</time></trkpt><trkpt lat="45.70512535536177" lon="12.17396323164135"><ele>42.0</ele><time>2026-04-06T08:22:33.999Z</time></trkpt><trkpt lat="45.705268762850714" lon="12.17374827218578"><ele>42.0</ele><time>2026-04-06T08:22:34.999Z</time></trkpt><trkpt lat="45.70541351113791" lon="12.173527808050725"><ele>42.0</ele><time>2026-04-06T08:22:35.999Z</time></trkpt><trkpt lat="45.70556021082057" lon="12.173309614803824"><ele>41.666666666666664</ele><time>2026-04-06T08:22:36.999Z</time></trkpt><trkpt lat="45.70572012852822" lon="12.173094049083648"><ele>41.33333333333333</ele><time>2026-04-06T08:22:37.999Z</time></trkpt><trkpt lat="45.70588502412403" lon="12.172869875803281"><ele>41.0</ele><time>2026-04-06T08:22:38.999Z</time></trkpt><trkpt lat="45.70605242235649" lon="12.172639699964606"><ele>41.0</ele><time>2026-04-06T08:22:39.999Z</time></trkpt><trkpt lat="45.70622609098835" lon="12.172402791508608"><ele>41.0</ele><time>2026-04-06T08:22:40.999Z</time></trkpt><trkpt lat="45.70640363538859" lon="12.172171987496826"><ele>41.0</ele><time>2026-04-06T08:22:41.999Z</time></trkpt><trkpt lat="45.70657634635907" lon="12.171960708296034"><ele>41.0</ele><time>2026-04-06T08:22:42.999Z</time></trkpt><trkpt lat="45.706733053007426" lon="12.171756661310752"><ele>41.0</ele><time>2026-04-06T08:22:43.999Z</time></trkpt><trkpt lat="45.706880232419174" lon="12.171535840105262"><ele>40.5</ele><time>2026-04-06T08:22:44.999Z</time></trkpt><trkpt lat="45.70702044063517" lon="12.171282732999845"><ele>40.0</ele><time>2026-04-06T08:22:45.999Z</time></trkpt><trkpt lat="45.707154047195296" lon="12.1709999590637"><ele>40.0</ele><time>2026-04-06T08:22:46.999Z</time></trkpt><trkpt lat="45.7073058946839" lon="12.170713638763582"><ele>40.0</ele><time>2026-04-06T08:22:47.999Z</time></trkpt><trkpt lat="45.70748537916445" lon="12.170425668730669"><ele>41.0</ele><time>2026-04-06T08:22:48.999Z</time></trkpt><trkpt lat="45.70767664745491" lon="12.170130857176577"><ele>42.0</ele><time>2026-04-06T08:22:49.999Z</time></trkpt><trkpt lat="45.707858227424914" lon="12.169832785358665"><ele>42.5</ele><time>2026-04-06T08:22:50.999Z</time></trkpt><trkpt lat="45.70801584685407" lon="12.169552818045565"><ele>43.0</ele><time>2026-04-06T08:22:51.999Z</time></trkpt><trkpt lat="45.70815733319876" lon="12.169291342270778"><ele>43.0</ele><time>2026-04-06T08:22:52.999Z</time></trkpt><trkpt lat="45.70829578338374" lon="12.169040754575493"><ele>43.0</ele><time>2026-04-06T08:22:53.999Z</time></trkpt><trkpt lat="45.70843631281604" lon="12.168790491993937"><ele>43.0</ele><time>2026-04-06T08:22:54.999Z</time></trkpt><trkpt lat="45.70857771153532" lon="12.168539233042422"><ele>43.0</ele><time>2026-04-06T08:22:55.999Z</time></trkpt><trkpt lat="45.7087243074144" lon="12.168274533341743"><ele>43.0</ele><time>2026-04-06T08:22:56.999Z</time></trkpt><trkpt lat="45.70887625070589" lon="12.168010208418382"><ele>43.5</ele><time>2026-04-06T08:22:57.999Z</time></trkpt><trkpt lat="45.70903495856414" lon="12.16774552031441"><ele>44.0</ele><time>2026-04-06T08:22:58.999Z</time></trkpt><trkpt lat="45.70920299401972" lon="12.167484554710494"><ele>44.0</ele><time>2026-04-06T08:22:59.999Z</time></trkpt><trkpt lat="45.70937008389033" lon="12.1672225714912"><ele>44.0</ele><time>2026-04-06T08:23:00.999Z</time></trkpt><trkpt lat="45.70953279939398" lon="12.166956590176136"><ele>44.0</ele><time>2026-04-06T08:23:01.999Z</time></trkpt><trkpt lat="45.70969788738636" lon="12.166691067248347"><ele>44.0</ele><time>2026-04-06T08:23:02.999Z</time></trkpt><trkpt lat="45.70987427144992" lon="12.166434006539776"><ele>44.0</ele><time>2026-04-06T08:23:03.999Z</time></trkpt><trkpt lat="45.71005602938319" lon="12.166169714568248"><ele>44.0</ele><time>2026-04-06T08:23:04.999Z</time></trkpt><trkpt lat="45.71023560518128" lon="12.165890542233992"><ele>44.5</ele><time>2026-04-06T08:23:05.999Z</time></trkpt><trkpt lat="45.71041439142888" lon="12.165601429266685"><ele>45.0</ele><time>2026-04-06T08:23:06.999Z</time></trkpt><trkpt lat="45.710601191078155" lon="12.165319422338115"><ele>45.0</ele><time>2026-04-06T08:23:07.999Z</time></trkpt><trkpt lat="45.71078517166319" lon="12.165050550771053"><ele>45.0</ele><time>2026-04-06T08:23:08.999Z</time></trkpt><trkpt lat="45.71095497569203" lon="12.164787930302454"><ele>45.0</ele><time>2026-04-06T08:23:09.999Z</time></trkpt><trkpt lat="45.71112531129607" lon="12.164555591198633"><ele>45.0</ele><time>2026-04-06T08:23:10.999Z</time></trkpt><trkpt lat="45.71127832046716" lon="12.164321501536497"><ele>45.0</ele><time>2026-04-06T08:23:11.999Z</time></trkpt><trkpt lat="45.71142405001198" lon="12.164098549018796"><ele>45.0</ele><time>2026-04-06T08:23:12.999Z</time></trkpt><trkpt lat="45.71154712729116" lon="12.163876777422796"><ele>45.0</ele><time>2026-04-06T08:23:13.999Z</time></trkpt><trkpt lat="45.711683975853376" lon="12.163688431503038"><ele>45.0</ele><time>2026-04-06T08:23:14.999Z</time></trkpt><trkpt lat="45.711811462735206" lon="12.163484683282583"><ele>45.0</ele><time>2026-04-06T08:23:15.999Z</time></trkpt><trkpt lat="45.71194798946076" lon="12.163318217642004"><ele>45.0</ele><time>2026-04-06T08:23:16.999Z</time></trkpt><trkpt lat="45.71207057088686" lon="12.163141917001047"><ele>45.333333333333336</ele><time>2026-04-06T08:23:17.999Z</time></trkpt><trkpt lat="45.712192015771976" lon="12.162967546091977"><ele>45.66666666666667</ele><time>2026-04-06T08:23:18.999Z</time></trkpt><trkpt lat="45.712314683642305" lon="12.162791419220662"><ele>46.0</ele><time>2026-04-06T08:23:19.999Z</time></trkpt><trkpt lat="45.712427293328595" lon="12.162630622980236"><ele>46.0</ele><time>2026-04-06T08:23:20.999Z</time></trkpt><trkpt lat="45.71253991139233" lon="12.162470363901631"><ele>46.0</ele><time>2026-04-06T08:23:21.999Z</time></trkpt><trkpt lat="45.71266066932318" lon="12.162298521533298"><ele>46.0</ele><time>2026-04-06T08:23:22.999Z</time></trkpt><trkpt lat="45.712779740773364" lon="12.162129079082607"><ele>46.333333333333336</ele><time>2026-04-06T08:23:23.999Z</time></trkpt><trkpt lat="45.71289675651458" lon="12.16196256196988"><ele>46.666666666666664</ele><time>2026-04-06T08:23:24.999Z</time></trkpt><trkpt lat="45.71301331686226" lon="12.161796568807652"><ele>47.0</ele><time>2026-04-06T08:23:25.999Z</time></trkpt><trkpt lat="45.71312830268349" lon="12.161632702373943"><ele>47.0</ele><time>2026-04-06T08:23:26.999Z</time></trkpt><trkpt lat="45.71324250820724" lon="12.161469971425264"><ele>47.0</ele><time>2026-04-06T08:23:27.999Z</time></trkpt><trkpt lat="45.71335979480351" lon="12.16130170165771"><ele>47.0</ele><time>2026-04-06T08:23:28.999Z</time></trkpt><trkpt lat="45.71347158542567" lon="12.161139716368327"><ele>47.0</ele><time>2026-04-06T08:23:30Z</time></trkpt><trkpt lat="45.71358249752194" lon="12.160977977084888"><ele>47.0</ele><time>2026-04-06T08:23:31Z</time></trkpt><trkpt lat="45.71368848202893" lon="12.160821613089674"><ele>47.0</ele><time>2026-04-06T08:23:32Z</time></trkpt><trkpt lat="45.713790027809665" lon="12.16067047148413"><ele>47.666666666666664</ele><time>2026-04-06T08:23:33Z</time></trkpt><trkpt lat="45.713891293699994" lon="12.160518647899195"><ele>48.33333333333333</ele><time>2026-04-06T08:23:34Z</time></trkpt><trkpt lat="45.7139943176079" lon="12.160357522953296"><ele>49.0</ele><time>2026-04-06T08:23:35Z</time></trkpt><trkpt lat="45.71410326155647" lon="12.160180777961"><ele>49.0</ele><time>2026-04-06T08:23:36Z</time></trkpt><trkpt lat="45.71421065036086" lon="12.159994787428227"><ele>49.0</ele><time>2026-04-06T08:23:37Z</time></trkpt><trkpt lat="45.71430701412859" lon="12.15981890830401"><ele>49.0</ele><time>2026-04-06T08:23:38Z</time></trkpt><trkpt lat="45.71439944475134" lon="12.159648408326085"><ele>49.0</ele><time>2026-04-06T08:23:39Z</time></trkpt><trkpt lat="45.714493145501905" lon="12.159475211243096"><ele>49.0</ele><time>2026-04-06T08:23:40Z</time></trkpt><trkpt lat="45.7145847566797" lon="12.159304327681431"><ele>49.0</ele><time>2026-04-06T08:23:41Z</time></trkpt><trkpt lat="45.7146719556476" lon="12.159138708166404"><ele>49.0</ele><time>2026-04-06T08:23:42Z</time></trkpt><trkpt lat="45.714761819791676" lon="12.158965164370766"><ele>49.0</ele><time>2026-04-06T08:23:43Z</time></trkpt><trkpt lat="45.71485212286067" lon="12.15878391930513"><ele>49.0</ele><time>2026-04-06T08:23:44Z</time></trkpt><trkpt lat="45.71493094487552" lon="12.158570729767067"><ele>49.0</ele><time>2026-04-06T08:23:45Z</time></trkpt><trkpt lat="45.7150177079223" lon="12.158370535037736"><ele>48.666666666666664</ele><time>2026-04-06T08:23:46Z</time></trkpt><trkpt lat="45.715091210874135" lon="12.1581733882373"><ele>48.33333333333333</ele><time>2026-04-06T08:23:47Z</time></trkpt><trkpt lat="45.71517258827466" lon="12.15798121333169"><ele>48.0</ele><time>2026-04-06T08:23:48Z</time></trkpt><trkpt lat="45.715252621528876" lon="12.157794086421873"><ele>48.0</ele><time>2026-04-06T08:23:49Z</time></trkpt><trkpt lat="45.71531556530114" lon="12.157617086571621"><ele>48.0</ele><time>2026-04-06T08:23:50Z</time></trkpt><trkpt lat="45.715380043551086" lon="12.15746406154356"><ele>48.0</ele><time>2026-04-06T08:23:51Z</time></trkpt><trkpt lat="45.715444269813155" lon="12.1573172890021"><ele>48.0</ele><time>2026-04-06T08:23:52Z</time></trkpt><trkpt lat="45.71550249346393" lon="12.157172567836549"><ele>48.25</ele><time>2026-04-06T08:23:53Z</time></trkpt><trkpt lat="45.715560111751294" lon="12.157026229446668"><ele>48.5</ele><time>2026-04-06T08:23:54Z</time></trkpt><trkpt lat="45.715622060517006" lon="12.156877287146575"><ele>48.75</ele><time>2026-04-06T08:23:55Z</time></trkpt><trkpt lat="45.715691031644916" lon="12.156731108045586"><ele>49.0</ele><time>2026-04-06T08:23:56Z</time></trkpt><trkpt lat="45.71577971055076" lon="12.15661146992064"><ele>49.0</ele><time>2026-04-06T08:23:57Z</time></trkpt><trkpt lat="45.71586288696056" lon="12.156483112462807"><ele>49.0</ele><time>2026-04-06T08:23:58Z</time></trkpt><trkpt lat="45.71595577241954" lon="12.156354188735376"><ele>49.0</ele><time>2026-04-06T08:23:59Z</time></trkpt><trkpt lat="45.716060877817824" lon="12.15624602650379"><ele>49.0</ele><time>2026-04-06T08:24:00Z</time></trkpt><trkpt lat="45.71616819536387" lon="12.156134096092256"><ele>49.666666666666664</ele><time>2026-04-06T08:24:01Z</time></trkpt><trkpt lat="45.71629758315412" lon="12.156003044535357"><ele>50.33333333333333</ele><time>2026-04-06T08:24:02Z</time></trkpt><trkpt lat="45.716439468806335" lon="12.155859740331419"><ele>51.0</ele><time>2026-04-06T08:24:03Z</time></trkpt><trkpt lat="45.716586446033226" lon="12.155711293633638"><ele>51.33333333333333</ele><time>2026-04-06T08:24:04Z</time></trkpt><trkpt lat="45.71673102201183" lon="12.15555874902527"><ele>51.666666666666664</ele><time>2026-04-06T08:24:05Z</time></trkpt><trkpt lat="45.71685842140653" lon="12.155419861534726"><ele>52.0</ele><time>2026-04-06T08:24:06Z</time></trkpt><trkpt lat="45.71697263314258" lon="12.155289041145188"><ele>52.2</ele><time>2026-04-06T08:24:07Z</time></trkpt><trkpt lat="45.71706689434423" lon="12.155178370066912"><ele>52.400000000000006</ele><time>2026-04-06T08:24:08Z</time></trkpt><trkpt lat="45.71714626643098" lon="12.155084496899333"><ele>52.599999999999994</ele><time>2026-04-06T08:24:09Z</time></trkpt><trkpt lat="45.71722767135803" lon="12.154984280933334"><ele>52.8</ele><time>2026-04-06T08:24:10Z</time></trkpt><trkpt lat="45.717307617059205" lon="12.154886122726115"><ele>53.0</ele><time>2026-04-06T08:24:11Z</time></trkpt><trkpt lat="45.7173896105601" lon="12.154784245232289"><ele>53.0</ele><time>2026-04-06T08:24:12Z</time></trkpt><trkpt lat="45.71747290055152" lon="12.15468075685305"><ele>53.0</ele><time>2026-04-06T08:24:13Z</time></trkpt><trkpt lat="45.71755236035174" lon="12.154584990616302"><ele>53.0</ele><time>2026-04-06T08:24:14Z</time></trkpt><trkpt lat="45.71762578956837" lon="12.154496737466141"><ele>53.0</ele><time>2026-04-06T08:24:15Z</time></trkpt><trkpt lat="45.71769462966292" lon="12.154412149935027"><ele>53.0</ele><time>2026-04-06T08:24:16Z</time></trkpt><trkpt lat="45.717761299961346" lon="12.15432671796412"><ele>53.0</ele><time>2026-04-06T08:24:17Z</time></trkpt><trkpt lat="45.717827202515124" lon="12.154237461581376"><ele>53.0</ele><time>2026-04-06T08:24:18Z</time></trkpt><trkpt lat="45.717895047552" lon="12.15414403703543"><ele>53.0</ele><time>2026-04-06T08:24:19Z</time></trkpt><trkpt lat="45.71796094142351" lon="12.154052674065708"><ele>53.0</ele><time>2026-04-06T08:24:20Z</time></trkpt><trkpt lat="45.7180258869643" lon="12.153962626008772"><ele>53.0</ele><time>2026-04-06T08:24:21Z</time></trkpt><trkpt lat="45.71808525151865" lon="12.153877412647793"><ele>52.833333333333336</ele><time>2026-04-06T08:24:22Z</time></trkpt><trkpt lat="45.718131063799234" lon="12.153779353439647"><ele>52.66666666666667</ele><time>2026-04-06T08:24:23Z</time></trkpt><trkpt lat="45.71819783125934" lon="12.153715857770054"><ele>52.5</ele><time>2026-04-06T08:24:24Z</time></trkpt><trkpt lat="45.718248382927094" lon="12.153643314807452"><ele>52.33333333333333</ele><time>2026-04-06T08:24:25Z</time></trkpt><trkpt lat="45.7183067920863" lon="12.153559496142176"><ele>52.166666666666664</ele><time>2026-04-06T08:24:27Z</time></trkpt><trkpt lat="45.718369199986945" lon="12.153469939172865"><ele>52.0</ele><time>2026-04-06T08:24:29Z</time></trkpt><trkpt lat="45.71847082694951" lon="12.153324101826144"><ele>51.99999999999999</ele><time>2026-04-06T08:24:31Z</time></trkpt><trkpt lat="45.718540924124085" lon="12.153223510553735"><ele>52.0</ele><time>2026-04-06T08:24:32Z</time></trkpt><trkpt lat="45.7186019090713" lon="12.153137015621546"><ele>52.0</ele><time>2026-04-06T08:24:33Z</time></trkpt><trkpt lat="45.71865905660253" lon="12.153053966697062"><ele>52.0</ele><time>2026-04-06T08:24:33.999Z</time></trkpt><trkpt lat="45.71871279810217" lon="12.152974083000567"><ele>51.99999999999999</ele><time>2026-04-06T08:24:34.999Z</time></trkpt><trkpt lat="45.71876187365012" lon="12.152867923809792"><ele>52.0</ele><time>2026-04-06T08:24:35.999Z</time></trkpt><trkpt lat="45.7188215234721" lon="12.15276563689636"><ele>52.33333333333333</ele><time>2026-04-06T08:24:36.999Z</time></trkpt><trkpt lat="45.71887169020113" lon="12.152672909312177"><ele>52.666666666666664</ele><time>2026-04-06T08:24:37.999Z</time></trkpt><trkpt lat="45.718915224024414" lon="12.152578888072416"><ele>53.0</ele><time>2026-04-06T08:24:38.999Z</time></trkpt><trkpt lat="45.71896012178049" lon="12.152491370802293"><ele>53.33333333333333</ele><time>2026-04-06T08:24:39.999Z</time></trkpt><trkpt lat="45.71900481580683" lon="12.152400696951855"><ele>53.666666666666664</ele><time>2026-04-06T08:24:40.999Z</time></trkpt><trkpt lat="45.71905201040926" lon="12.15230047151637"><ele>54.0</ele><time>2026-04-06T08:24:41.999Z</time></trkpt><trkpt lat="45.71910415956329" lon="12.152200010066677"><ele>54.0</ele><time>2026-04-06T08:24:42.999Z</time></trkpt><trkpt lat="45.719158003562136" lon="12.152099835961245"><ele>54.0</ele><time>2026-04-06T08:24:43.999Z</time></trkpt><trkpt lat="45.71921921922927" lon="12.152008314712683"><ele>54.0</ele><time>2026-04-06T08:24:44.999Z</time></trkpt><trkpt lat="45.71926919697395" lon="12.151907073459503"><ele>54.0</ele><time>2026-04-06T08:24:45.999Z</time></trkpt><trkpt lat="45.71930376201259" lon="12.151797799231169"><ele>54.0</ele><time>2026-04-06T08:24:46.999Z</time></trkpt><trkpt lat="45.719352987664415" lon="12.151704856955552"><ele>54.0</ele><time>2026-04-06T08:24:47.999Z</time></trkpt><trkpt lat="45.71940228085992" lon="12.151611893285084"><ele>53.833333333333336</ele><time>2026-04-06T08:24:48.999Z</time></trkpt><trkpt lat="45.7194547290197" lon="12.151520228006628"><ele>53.66666666666667</ele><time>2026-04-06T08:24:49.999Z</time></trkpt><trkpt lat="45.719510463251986" lon="12.151427383603664"><ele>53.5</ele><time>2026-04-06T08:24:50.999Z</time></trkpt><trkpt lat="45.71956358940992" lon="12.15132928484669"><ele>53.333333333333336</ele><time>2026-04-06T08:24:51.999Z</time></trkpt><trkpt lat="45.719623543025136" lon="12.151225516573751"><ele>53.16666666666667</ele><time>2026-04-06T08:24:52.999Z</time></trkpt><trkpt lat="45.71968834131709" lon="12.151116872398353"><ele>53.0</ele><time>2026-04-06T08:24:53.999Z</time></trkpt><trkpt lat="45.719759383155996" lon="12.151014268348804"><ele>53.0</ele><time>2026-04-06T08:24:54.999Z</time></trkpt><trkpt lat="45.719830757186635" lon="12.150912735298046"><ele>53.0</ele><time>2026-04-06T08:24:55.999Z</time></trkpt><trkpt lat="45.719885598890784" lon="12.15082896147774"><ele>53.0</ele><time>2026-04-06T08:24:56.999Z</time></trkpt><trkpt lat="45.719931869484725" lon="12.150754307722346"><ele>53.0</ele><time>2026-04-06T08:24:58.999Z</time></trkpt><trkpt lat="45.7200161389266" lon="12.150658584655334"><ele>53.0</ele><time>2026-04-06T08:25:30.999Z</time></trkpt><trkpt lat="45.72007937991508" lon="12.150563436012321"><ele>53.0</ele><time>2026-04-06T08:25:31.999Z</time></trkpt><trkpt lat="45.720136495005484" lon="12.150440762971456"><ele>53.0</ele><time>2026-04-06T08:25:32.999Z</time></trkpt><trkpt lat="45.720214391978416" lon="12.150354058548041"><ele>53.0</ele><time>2026-04-06T08:25:33.999Z</time></trkpt><trkpt lat="45.72027727219806" lon="12.150257372420157"><ele>53.0</ele><time>2026-04-06T08:25:34.999Z</time></trkpt><trkpt lat="45.72033621251213" lon="12.150135959685405"><ele>53.0</ele><time>2026-04-06T08:25:36Z</time></trkpt><trkpt lat="45.720427523069425" lon="12.150017823260677"><ele>54.333333333333336</ele><time>2026-04-06T08:25:37Z</time></trkpt><trkpt lat="45.720520507881645" lon="12.149880479622345"><ele>55.66666666666667</ele><time>2026-04-06T08:25:38Z</time></trkpt><trkpt lat="45.72062330800676" lon="12.149727089534"><ele>57.0</ele><time>2026-04-06T08:25:39Z</time></trkpt><trkpt lat="45.72075169543668" lon="12.149520361299452"><ele>57.0</ele><time>2026-04-06T08:25:40Z</time></trkpt><trkpt lat="45.720891883440075" lon="12.14931905309372"><ele>57.0</ele><time>2026-04-06T08:25:41Z</time></trkpt><trkpt lat="45.7210212608838" lon="12.149128344412189"><ele>57.0</ele><time>2026-04-06T08:25:42Z</time></trkpt><trkpt lat="45.72118124200545" lon="12.148941973449288"><ele>57.0</ele><time>2026-04-06T08:25:43Z</time></trkpt><trkpt lat="45.721314774436095" lon="12.148743770448245"><ele>57.0</ele><time>2026-04-06T08:25:44Z</time></trkpt><trkpt lat="45.72146216883779" lon="12.148598183428735"><ele>57.0</ele><time>2026-04-06T08:25:45Z</time></trkpt><trkpt lat="45.72159935267664" lon="12.14844760733002"><ele>57.0</ele><time>2026-04-06T08:25:46Z</time></trkpt><trkpt lat="45.72174403277078" lon="12.148295033100313"><ele>57.0</ele><time>2026-04-06T08:25:47Z</time></trkpt><trkpt lat="45.721892541876066" lon="12.148147955251359"><ele>57.0</ele><time>2026-04-06T08:25:48Z</time></trkpt><trkpt lat="45.72203753276304" lon="12.14798727683588"><ele>56.66666666666667</ele><time>2026-04-06T08:25:49Z</time></trkpt><trkpt lat="45.722196276519504" lon="12.147839397625741"><ele>56.333333333333336</ele><time>2026-04-06T08:25:50Z</time></trkpt><trkpt lat="45.72235778865933" lon="12.147695059130012"><ele>56.0</ele><time>2026-04-06T08:25:51Z</time></trkpt><trkpt lat="45.72251973229764" lon="12.147551937257786"><ele>56.0</ele><time>2026-04-06T08:25:52Z</time></trkpt><trkpt lat="45.72268326931134" lon="12.147399383259692"><ele>56.0</ele><time>2026-04-06T08:25:53Z</time></trkpt><trkpt lat="45.72284512837825" lon="12.147250279417033"><ele>56.0</ele><time>2026-04-06T08:25:54Z</time></trkpt><trkpt lat="45.72300359675758" lon="12.14710616832683"><ele>57.0</ele><time>2026-04-06T08:25:55Z</time></trkpt><trkpt lat="45.723158078045685" lon="12.146956423737299"><ele>58.0</ele><time>2026-04-06T08:25:56Z</time></trkpt><trkpt lat="45.72331626578125" lon="12.146809557338027"><ele>59.0</ele><time>2026-04-06T08:25:57Z</time></trkpt><trkpt lat="45.723473730604304" lon="12.146654658874153"><ele>58.0</ele><time>2026-04-06T08:25:58Z</time></trkpt><trkpt lat="45.72362966731176" lon="12.14648532724494"><ele>57.0</ele><time>2026-04-06T08:25:59Z</time></trkpt><trkpt lat="45.72378926190653" lon="12.146296529599145"><ele>56.0</ele><time>2026-04-06T08:26:00Z</time></trkpt><trkpt lat="45.72395388778494" lon="12.146076772780377"><ele>56.0</ele><time>2026-04-06T08:26:01Z</time></trkpt><trkpt lat="45.724135044420585" lon="12.14582885457983"><ele>56.0</ele><time>2026-04-06T08:26:02Z</time></trkpt><trkpt lat="45.724323124780476" lon="12.145586059626016"><ele>57.5</ele><time>2026-04-06T08:26:03Z</time></trkpt><trkpt lat="45.72451912726265" lon="12.145323110726919"><ele>59.0</ele><time>2026-04-06T08:26:04Z</time></trkpt><trkpt lat="45.72473440733292" lon="12.145062612313447"><ele>59.0</ele><time>2026-04-06T08:26:05Z</time></trkpt><trkpt lat="45.724949609215635" lon="12.144772475010736"><ele>59.0</ele><time>2026-04-06T08:26:06Z</time></trkpt><trkpt lat="45.72516264905892" lon="12.144458513693865"><ele>58.0</ele><time>2026-04-06T08:26:07Z</time></trkpt><trkpt lat="45.725383445285665" lon="12.144169426456049"><ele>57.0</ele><time>2026-04-06T08:26:08Z</time></trkpt><trkpt lat="45.72558103184013" lon="12.143901446997578"><ele>57.0</ele><time>2026-04-06T08:26:09Z</time></trkpt><trkpt lat="45.725781729427496" lon="12.143634466042382"><ele>57.0</ele><time>2026-04-06T08:26:10Z</time></trkpt><trkpt lat="45.72598604007766" lon="12.143357263442729"><ele>57.5</ele><time>2026-04-06T08:26:11Z</time></trkpt><trkpt lat="45.72619708939922" lon="12.143105883973407"><ele>58.0</ele><time>2026-04-06T08:26:12Z</time></trkpt><trkpt lat="45.726376486699515" lon="12.14286663380287"><ele>58.0</ele><time>2026-04-06T08:26:13Z</time></trkpt><trkpt lat="45.72654437115805" lon="12.142612720221855"><ele>58.0</ele><time>2026-04-06T08:26:14Z</time></trkpt><trkpt lat="45.726721296445966" lon="12.142378980530056"><ele>58.0</ele><time>2026-04-06T08:26:15Z</time></trkpt><trkpt lat="45.72689811586936" lon="12.142144114474501"><ele>58.0</ele><time>2026-04-06T08:26:16Z</time></trkpt><trkpt lat="45.72707351338246" lon="12.141911220810739"><ele>58.0</ele><time>2026-04-06T08:26:17Z</time></trkpt><trkpt lat="45.72725536017017" lon="12.141699458704093"><ele>58.0</ele><time>2026-04-06T08:26:18Z</time></trkpt><trkpt lat="45.72743016182586" lon="12.141436667585202"><ele>59.5</ele><time>2026-04-06T08:26:19Z</time></trkpt><trkpt lat="45.72762873891783" lon="12.141172154452903"><ele>61.0</ele><time>2026-04-06T08:26:20Z</time></trkpt><trkpt lat="45.72783614921257" lon="12.140892267887976"><ele>61.0</ele><time>2026-04-06T08:26:21Z</time></trkpt><trkpt lat="45.72806156376658" lon="12.140595577560292"><ele>61.0</ele><time>2026-04-06T08:26:22Z</time></trkpt><trkpt lat="45.72829205835951" lon="12.140297077244979"><ele>61.0</ele><time>2026-04-06T08:26:23Z</time></trkpt><trkpt lat="45.72851687760318" lon="12.13999589222053"><ele>61.0</ele><time>2026-04-06T08:26:24Z</time></trkpt><trkpt lat="45.728734009355335" lon="12.13970238136869"><ele>60.5</ele><time>2026-04-06T08:26:25Z</time></trkpt><trkpt lat="45.728936354911625" lon="12.139429136427498"><ele>60.0</ele><time>2026-04-06T08:26:26Z</time></trkpt><trkpt lat="45.72912243185846" lon="12.13917875426742"><ele>60.5</ele><time>2026-04-06T08:26:27Z</time></trkpt><trkpt lat="45.729295548692264" lon="12.138942003291662"><ele>61.0</ele><time>2026-04-06T08:26:28Z</time></trkpt><trkpt lat="45.7294758437983" lon="12.138705433263059"><ele>62.0</ele><time>2026-04-06T08:26:29Z</time></trkpt><trkpt lat="45.729659246679454" lon="12.138468556454411"><ele>63.0</ele><time>2026-04-06T08:26:30Z</time></trkpt><trkpt lat="45.72984204565774" lon="12.138236702734721"><ele>63.5</ele><time>2026-04-06T08:26:31Z</time></trkpt><trkpt lat="45.730011077468525" lon="12.137992038131934"><ele>64.0</ele><time>2026-04-06T08:26:32Z</time></trkpt><trkpt lat="45.730174298834896" lon="12.137780531120924"><ele>64.0</ele><time>2026-04-06T08:26:33Z</time></trkpt><trkpt lat="45.73032034424979" lon="12.137569767647703"><ele>64.0</ele><time>2026-04-06T08:26:34Z</time></trkpt><trkpt lat="45.73046018385583" lon="12.137377183297703"><ele>64.0</ele><time>2026-04-06T08:26:35Z</time></trkpt><trkpt lat="45.73060389946745" lon="12.137184156702878"><ele>64.0</ele><time>2026-04-06T08:26:36Z</time></trkpt><trkpt lat="45.73075618063583" lon="12.137008469472299"><ele>64.0</ele><time>2026-04-06T08:26:37Z</time></trkpt><trkpt lat="45.73087416523867" lon="12.136812631380417"><ele>64.0</ele><time>2026-04-06T08:26:37.999Z</time></trkpt><trkpt lat="45.73100341016337" lon="12.136638008422935"><ele>64.33333333333333</ele><time>2026-04-06T08:26:38.999Z</time></trkpt><trkpt lat="45.73112724239601" lon="12.136444102565967"><ele>64.66666666666667</ele><time>2026-04-06T08:26:39.999Z</time></trkpt><trkpt lat="45.73125101949441" lon="12.136230640516708"><ele>65.0</ele><time>2026-04-06T08:26:40.999Z</time></trkpt><trkpt lat="45.73138592936017" lon="12.136036608875742"><ele>65.0</ele><time>2026-04-06T08:26:41.999Z</time></trkpt><trkpt lat="45.73149707636512" lon="12.135811766979579"><ele>65.0</ele><time>2026-04-06T08:26:42.999Z</time></trkpt><trkpt lat="45.73162729120735" lon="12.135599258644495"><ele>65.0</ele><time>2026-04-06T08:26:43.999Z</time></trkpt><trkpt lat="45.731757620940314" lon="12.135372959415022"><ele>65.0</ele><time>2026-04-06T08:26:44.999Z</time></trkpt><trkpt lat="45.7318852200248" lon="12.135130743111235"><ele>65.0</ele><time>2026-04-06T08:26:45.999Z</time></trkpt><trkpt lat="45.7320522293228" lon="12.134918359794696"><ele>65.0</ele><time>2026-04-06T08:26:46.999Z</time></trkpt><trkpt lat="45.73220476179838" lon="12.134659867744997"><ele>67.0</ele><time>2026-04-06T08:26:47.999Z</time></trkpt><trkpt lat="45.732366123382896" lon="12.134386413465679"><ele>69.0</ele><time>2026-04-06T08:26:48.999Z</time></trkpt><trkpt lat="45.732533266047334" lon="12.134103162055409"><ele>68.5</ele><time>2026-04-06T08:26:49.999Z</time></trkpt><trkpt lat="45.73268130954927" lon="12.13377660005383"><ele>68.0</ele><time>2026-04-06T08:26:50.999Z</time></trkpt><trkpt lat="45.73286152727461" lon="12.13349298537345"><ele>68.0</ele><time>2026-04-06T08:26:51.999Z</time></trkpt><trkpt lat="45.733033258621575" lon="12.133229503334437"><ele>68.0</ele><time>2026-04-06T08:26:52.999Z</time></trkpt><trkpt lat="45.73318651707762" lon="12.13296984434309"><ele>67.66666666666667</ele><time>2026-04-06T08:26:53.999Z</time></trkpt><trkpt lat="45.733320759200744" lon="12.132728722972502"><ele>67.33333333333333</ele><time>2026-04-06T08:26:54.999Z</time></trkpt><trkpt lat="45.73345285631652" lon="12.132505791655428"><ele>67.0</ele><time>2026-04-06T08:26:55.999Z</time></trkpt><trkpt lat="45.73357880109108" lon="12.132293486272122"><ele>67.0</ele><time>2026-04-06T08:26:56.999Z</time></trkpt><trkpt lat="45.73371966724186" lon="12.13210128108112"><ele>67.0</ele><time>2026-04-06T08:26:57.999Z</time></trkpt><trkpt lat="45.733847206287436" lon="12.131886278161865"><ele>67.0</ele><time>2026-04-06T08:26:58.999Z</time></trkpt><trkpt lat="45.733961308493235" lon="12.13165711694283"><ele>67.66666666666666</ele><time>2026-04-06T08:26:59.999Z</time></trkpt><trkpt lat="45.734100061929844" lon="12.131458984156499"><ele>68.33333333333333</ele><time>2026-04-06T08:27:00.999Z</time></trkpt><trkpt lat="45.73422758374371" lon="12.131242524226304"><ele>69.0</ele><time>2026-04-06T08:27:01.999Z</time></trkpt><trkpt lat="45.73435636763638" lon="12.131023921937407"><ele>68.33333333333333</ele><time>2026-04-06T08:27:02.999Z</time></trkpt><trkpt lat="45.734486140101176" lon="12.130803641624421"><ele>67.66666666666666</ele><time>2026-04-06T08:27:03.999Z</time></trkpt><trkpt lat="45.734624778625204" lon="12.13056831215439"><ele>67.0</ele><time>2026-04-06T08:27:04.999Z</time></trkpt><trkpt lat="45.73477391118816" lon="12.130312678079303"><ele>67.0</ele><time>2026-04-06T08:27:05.999Z</time></trkpt><trkpt lat="45.73491618029643" lon="12.130041294000945"><ele>67.0</ele><time>2026-04-06T08:27:06.999Z</time></trkpt><trkpt lat="45.735058943768" lon="12.129770508301553"><ele>67.5</ele><time>2026-04-06T08:27:07.999Z</time></trkpt><trkpt lat="45.735213316835036" lon="12.129531005209675"><ele>68.0</ele><time>2026-04-06T08:27:08.999Z</time></trkpt><trkpt lat="45.73535191248565" lon="12.129276548392905"><ele>67.0</ele><time>2026-04-06T08:27:09.999Z</time></trkpt><trkpt lat="45.73543597179112" lon="12.128946402120182"><ele>66.0</ele><time>2026-04-06T08:27:10.999Z</time></trkpt><trkpt lat="45.73557232130038" lon="12.128687454392066"><ele>66.0</ele><time>2026-04-06T08:27:11.999Z</time></trkpt><trkpt lat="45.735702566719084" lon="12.128442268870147"><ele>66.0</ele><time>2026-04-06T08:27:12.999Z</time></trkpt><trkpt lat="45.73582370765081" lon="12.128190695629186"><ele>66.0</ele><time>2026-04-06T08:27:13.999Z</time></trkpt><trkpt lat="45.73594018145682" lon="12.12794168688605"><ele>66.33333333333333</ele><time>2026-04-06T08:27:14.999Z</time></trkpt><trkpt lat="45.73604651486335" lon="12.127711166194416"><ele>66.66666666666666</ele><time>2026-04-06T08:27:15.999Z</time></trkpt><trkpt lat="45.73614768087382" lon="12.127497191930537"><ele>67.0</ele><time>2026-04-06T08:27:16.999Z</time></trkpt><trkpt lat="45.73624676788541" lon="12.127300008076402"><ele>67.33333333333333</ele><time>2026-04-06T08:27:17.999Z</time></trkpt><trkpt lat="45.736339300850695" lon="12.127118382202667"><ele>67.66666666666667</ele><time>2026-04-06T08:27:18.999Z</time></trkpt><trkpt lat="45.736434037370614" lon="12.126950296842901"><ele>68.0</ele><time>2026-04-06T08:27:19.999Z</time></trkpt><trkpt lat="45.736537601260444" lon="12.126781803260746"><ele>68.0</ele><time>2026-04-06T08:27:20.999Z</time></trkpt><trkpt lat="45.736655216850444" lon="12.126611371347417"><ele>68.0</ele><time>2026-04-06T08:27:21.999Z</time></trkpt><trkpt lat="45.736789283729976" lon="12.126426556017392"><ele>68.0</ele><time>2026-04-06T08:27:22.999Z</time></trkpt><trkpt lat="45.73694706338632" lon="12.126235112773566"><ele>68.66666666666667</ele><time>2026-04-06T08:27:23.999Z</time></trkpt><trkpt lat="45.73711452766868" lon="12.12606137651386"><ele>69.33333333333333</ele><time>2026-04-06T08:27:24.999Z</time></trkpt><trkpt lat="45.73726505193947" lon="12.125892378427027"><ele>70.0</ele><time>2026-04-06T08:27:25.999Z</time></trkpt><trkpt lat="45.73740204166835" lon="12.125730157045703"><ele>70.0</ele><time>2026-04-06T08:27:26.999Z</time></trkpt><trkpt lat="45.737532079154725" lon="12.12557756524267"><ele>70.0</ele><time>2026-04-06T08:27:27.999Z</time></trkpt><trkpt lat="45.73765217673469" lon="12.125444798739709"><ele>70.0</ele><time>2026-04-06T08:27:28.999Z</time></trkpt><trkpt lat="45.73776817039728" lon="12.125312573627816"><ele>70.0</ele><time>2026-04-06T08:27:29.999Z</time></trkpt><trkpt lat="45.73788512761562" lon="12.125176752195573"><ele>70.0</ele><time>2026-04-06T08:27:30.999Z</time></trkpt><trkpt lat="45.73800701455751" lon="12.125030959668765"><ele>70.0</ele><time>2026-04-06T08:27:31.999Z</time></trkpt><trkpt lat="45.738145226100784" lon="12.124861134127071"><ele>70.33333333333333</ele><time>2026-04-06T08:27:32.999Z</time></trkpt><trkpt lat="45.73830691747601" lon="12.12466287337747"><ele>70.66666666666667</ele><time>2026-04-06T08:27:33.999Z</time></trkpt><trkpt lat="45.73848630440829" lon="12.124465476501335"><ele>71.0</ele><time>2026-04-06T08:27:34.999Z</time></trkpt><trkpt lat="45.73867385913624" lon="12.124263065348584"><ele>71.0</ele><time>2026-04-06T08:27:35.999Z</time></trkpt><trkpt lat="45.7388398088978" lon="12.124076913271766"><ele>71.0</ele><time>2026-04-06T08:27:36.999Z</time></trkpt><trkpt lat="45.73899428734473" lon="12.123899794466961"><ele>71.0</ele><time>2026-04-06T08:27:37.999Z</time></trkpt><trkpt lat="45.73913951387195" lon="12.123731891250578"><ele>71.0</ele><time>2026-04-06T08:27:38.999Z</time></trkpt><trkpt lat="45.73927539510151" lon="12.123572921752684"><ele>71.0</ele><time>2026-04-06T08:27:39.999Z</time></trkpt><trkpt lat="45.7394126398606" lon="12.123415848490858"><ele>71.0</ele><time>2026-04-06T08:27:41Z</time></trkpt><trkpt lat="45.73955179208704" lon="12.123251401146199"><ele>71.66666666666667</ele><time>2026-04-06T08:27:42Z</time></trkpt><trkpt lat="45.73969141196947" lon="12.123053839091764"><ele>72.33333333333333</ele><time>2026-04-06T08:27:43Z</time></trkpt><trkpt lat="45.739828916483454" lon="12.122815871938458"><ele>73.0</ele><time>2026-04-06T08:27:44Z</time></trkpt><trkpt lat="45.739966568600636" lon="12.122554358666136"><ele>73.0</ele><time>2026-04-06T08:27:45Z</time></trkpt><trkpt lat="45.740117793099365" lon="12.12228460455413"><ele>73.0</ele><time>2026-04-06T08:27:46Z</time></trkpt><trkpt lat="45.74028044938106" lon="12.122011491875035"><ele>73.0</ele><time>2026-04-06T08:27:47Z</time></trkpt><trkpt lat="45.740449243528246" lon="12.121733584803573"><ele>73.0</ele><time>2026-04-06T08:27:48Z</time></trkpt><trkpt lat="45.74060912886287" lon="12.121466843942688"><ele>73.0</ele><time>2026-04-06T08:27:49Z</time></trkpt><trkpt lat="45.740756366800134" lon="12.121213654336923"><ele>73.0</ele><time>2026-04-06T08:27:50Z</time></trkpt><trkpt lat="45.74090150692502" lon="12.120971303719129"><ele>73.0</ele><time>2026-04-06T08:27:51Z</time></trkpt><trkpt lat="45.74103152941379" lon="12.120743560958108"><ele>73.0</ele><time>2026-04-06T08:27:52Z</time></trkpt><trkpt lat="45.74115170718832" lon="12.120522441153353"><ele>73.0</ele><time>2026-04-06T08:27:53Z</time></trkpt><trkpt lat="45.74127577707392" lon="12.120307420356552"><ele>73.33333333333333</ele><time>2026-04-06T08:27:54Z</time></trkpt><trkpt lat="45.74140920997891" lon="12.120087898457067"><ele>73.66666666666667</ele><time>2026-04-06T08:27:55Z</time></trkpt><trkpt lat="45.741534747219006" lon="12.119861276918863"><ele>74.0</ele><time>2026-04-06T08:27:56Z</time></trkpt><trkpt lat="45.74167680092646" lon="12.119618174724586"><ele>74.0</ele><time>2026-04-06T08:27:57Z</time></trkpt><trkpt lat="45.74185067454051" lon="12.119366972464281"><ele>74.0</ele><time>2026-04-06T08:27:58Z</time></trkpt><trkpt lat="45.74204482858985" lon="12.119086365713777"><ele>74.5</ele><time>2026-04-06T08:27:59Z</time></trkpt><trkpt lat="45.74223008855503" lon="12.118762833272328"><ele>75.0</ele><time>2026-04-06T08:28:00Z</time></trkpt><trkpt lat="45.74243593882966" lon="12.118423958309654"><ele>75.0</ele><time>2026-04-06T08:28:01Z</time></trkpt><trkpt lat="45.742680105156744" lon="12.118082490547609"><ele>75.0</ele><time>2026-04-06T08:28:02Z</time></trkpt><trkpt lat="45.742912594044185" lon="12.117757550147482"><ele>75.0</ele><time>2026-04-06T08:28:03Z</time></trkpt><trkpt lat="45.74311607979943" lon="12.117453366478738"><ele>75.0</ele><time>2026-04-06T08:28:04Z</time></trkpt><trkpt lat="45.743298517554344" lon="12.117174214660828"><ele>74.5</ele><time>2026-04-06T08:28:05Z</time></trkpt><trkpt lat="45.74347259909708" lon="12.116910988409742"><ele>74.0</ele><time>2026-04-06T08:28:06Z</time></trkpt><trkpt lat="45.74364858774617" lon="12.11664351498649"><ele>74.5</ele><time>2026-04-06T08:28:07Z</time></trkpt><trkpt lat="45.74383083755223" lon="12.11636635333384"><ele>75.0</ele><time>2026-04-06T08:28:08Z</time></trkpt><trkpt lat="45.7440059584036" lon="12.116113865127039"><ele>75.0</ele><time>2026-04-06T08:28:09Z</time></trkpt><trkpt lat="45.74416647710264" lon="12.115879514400948"><ele>75.0</ele><time>2026-04-06T08:28:10Z</time></trkpt><trkpt lat="45.7443073052615" lon="12.11565419279958"><ele>75.0</ele><time>2026-04-06T08:28:11Z</time></trkpt><trkpt lat="45.74442624020922" lon="12.115450280417642"><ele>74.75</ele><time>2026-04-06T08:28:12Z</time></trkpt><trkpt lat="45.74453465227015" lon="12.115281770542756"><ele>74.5</ele><time>2026-04-06T08:28:13Z</time></trkpt><trkpt lat="45.74462952702945" lon="12.1151160949083"><ele>74.25</ele><time>2026-04-06T08:28:14Z</time></trkpt><trkpt lat="45.744735098610334" lon="12.114986426669583"><ele>74.0</ele><time>2026-04-06T08:28:15Z</time></trkpt><trkpt lat="45.74484570794749" lon="12.114894013048035"><ele>74.2</ele><time>2026-04-06T08:28:16Z</time></trkpt><trkpt lat="45.74495138367135" lon="12.114827608385058"><ele>74.4</ele><time>2026-04-06T08:28:17Z</time></trkpt><trkpt lat="45.74504953374584" lon="12.11478931272773"><ele>74.6</ele><time>2026-04-06T08:28:18Z</time></trkpt><trkpt lat="45.74514857985074" lon="12.114791866169927"><ele>74.8</ele><time>2026-04-06T08:28:19Z</time></trkpt><trkpt lat="45.745242398950644" lon="12.114780818806777"><ele>75.0</ele><time>2026-04-06T08:28:20Z</time></trkpt><trkpt lat="45.745320839941556" lon="12.114712287540492"><ele>75.0</ele><time>2026-04-06T08:28:21Z</time></trkpt><trkpt lat="45.74538362071907" lon="12.114610479391393"><ele>75.0</ele><time>2026-04-06T08:28:22Z</time></trkpt><trkpt lat="45.74543781951451" lon="12.11450781905908"><ele>75.0</ele><time>2026-04-06T08:28:23Z</time></trkpt><trkpt lat="45.74543374034227" lon="12.114355617581767"><ele>75.0</ele><time>2026-04-06T08:28:24Z</time></trkpt><trkpt lat="45.745416882530876" lon="12.114221135574764"><ele>75.0</ele><time>2026-04-06T08:28:25Z</time></trkpt><trkpt lat="45.7453808956887" lon="12.114101895349046"><ele>75.25</ele><time>2026-04-06T08:28:26Z</time></trkpt><trkpt lat="45.745339559037305" lon="12.1139900922072"><ele>75.5</ele><time>2026-04-06T08:28:27Z</time></trkpt><trkpt lat="45.74548049893889" lon="12.113812182524269"><ele>75.75</ele><time>2026-04-06T08:28:28Z</time></trkpt><trkpt lat="45.74557024759223" lon="12.113663288555616"><ele>76.0</ele><time>2026-04-06T08:28:29Z</time></trkpt><trkpt lat="45.74567020668679" lon="12.11348119028252"><ele>76.0</ele><time>2026-04-06T08:28:30Z</time></trkpt><trkpt lat="45.745796212188125" lon="12.11330753205125"><ele>76.0</ele><time>2026-04-06T08:28:31Z</time></trkpt><trkpt lat="45.7459058678379" lon="12.113147808869114"><ele>76.0</ele><time>2026-04-06T08:28:32Z</time></trkpt><trkpt lat="45.74604784080059" lon="12.112911754243147"><ele>76.33333333333333</ele><time>2026-04-06T08:28:33Z</time></trkpt><trkpt lat="45.74618662156829" lon="12.112693041473525"><ele>76.66666666666667</ele><time>2026-04-06T08:28:34Z</time></trkpt><trkpt lat="45.746324846270696" lon="12.112443954847384"><ele>77.0</ele><time>2026-04-06T08:28:35Z</time></trkpt><trkpt lat="45.74648648480481" lon="12.11219889113893"><ele>77.0</ele><time>2026-04-06T08:28:36Z</time></trkpt><trkpt lat="45.746625073629744" lon="12.111979079915423"><ele>77.0</ele><time>2026-04-06T08:28:37Z</time></trkpt><trkpt lat="45.74677812119532" lon="12.111741167216652"><ele>77.0</ele><time>2026-04-06T08:28:38Z</time></trkpt><trkpt lat="45.74694116674544" lon="12.111495349773948"><ele>77.0</ele><time>2026-04-06T08:28:38.999Z</time></trkpt><trkpt lat="45.74708901421231" lon="12.111273528781094"><ele>77.0</ele><time>2026-04-06T08:28:39.999Z</time></trkpt><trkpt lat="45.7472223848412" lon="12.11106695043303"><ele>77.0</ele><time>2026-04-06T08:28:40.999Z</time></trkpt><trkpt lat="45.74733823518328" lon="12.110887257062855"><ele>77.25</ele><time>2026-04-06T08:28:41.999Z</time></trkpt><trkpt lat="45.74742766645569" lon="12.11073741624521"><ele>77.5</ele><time>2026-04-06T08:28:42.999Z</time></trkpt><trkpt lat="45.74751537397509" lon="12.110609156009929"><ele>77.75</ele><time>2026-04-06T08:28:43.999Z</time></trkpt><trkpt lat="45.747584693139004" lon="12.11049519422853"><ele>78.0</ele><time>2026-04-06T08:28:44.999Z</time></trkpt><trkpt lat="45.74766039532484" lon="12.110378981657519"><ele>77.75</ele><time>2026-04-06T08:28:45.999Z</time></trkpt><trkpt lat="45.747750727728295" lon="12.110242492653233"><ele>77.5</ele><time>2026-04-06T08:28:46.999Z</time></trkpt><trkpt lat="45.747842024657864" lon="12.11009782079803"><ele>77.25</ele><time>2026-04-06T08:28:47.999Z</time></trkpt><trkpt lat="45.74792170210558" lon="12.109969259767302"><ele>77.0</ele><time>2026-04-06T08:28:48.999Z</time></trkpt><trkpt lat="45.74799667492903" lon="12.109854892089237"><ele>77.5</ele><time>2026-04-06T08:28:49.999Z</time></trkpt><trkpt lat="45.74806401618337" lon="12.10975425252126"><ele>78.0</ele><time>2026-04-06T08:28:50.999Z</time></trkpt><trkpt lat="45.74813547775848" lon="12.109639358983552"><ele>78.5</ele><time>2026-04-06T08:28:51.999Z</time></trkpt><trkpt lat="45.74822950961835" lon="12.109516486925704"><ele>79.0</ele><time>2026-04-06T08:28:52.999Z</time></trkpt><trkpt lat="45.74833283597958" lon="12.109356480147408"><ele>79.0</ele><time>2026-04-06T08:28:53.999Z</time></trkpt><trkpt lat="45.74844942004619" lon="12.109176223605965"><ele>79.0</ele><time>2026-04-06T08:28:54.999Z</time></trkpt><trkpt lat="45.74853762215123" lon="12.109007019339643"><ele>79.0</ele><time>2026-04-06T08:28:55.999Z</time></trkpt><trkpt lat="45.74863131958922" lon="12.108870362914919"><ele>79.2</ele><time>2026-04-06T08:28:56.999Z</time></trkpt><trkpt lat="45.74872494050823" lon="12.108752177224867"><ele>79.4</ele><time>2026-04-06T08:28:57.999Z</time></trkpt><trkpt lat="45.74879904841683" lon="12.10863844480959"><ele>79.6</ele><time>2026-04-06T08:28:58.999Z</time></trkpt><trkpt lat="45.74884944287684" lon="12.10852733078531"><ele>79.8</ele><time>2026-04-06T08:28:59.999Z</time></trkpt><trkpt lat="45.74890004897138" lon="12.108453712791485"><ele>80.0</ele><time>2026-04-06T08:29:00.999Z</time></trkpt><trkpt lat="45.74896032121077" lon="12.108360731119786"><ele>80.0</ele><time>2026-04-06T08:29:02.999Z</time></trkpt><trkpt lat="45.74902045502829" lon="12.108298655040572"><ele>80.0</ele><time>2026-04-06T08:29:13.999Z</time></trkpt><trkpt lat="45.74909769819546" lon="12.10815380468435"><ele>80.0</ele><time>2026-04-06T08:29:15.999Z</time></trkpt><trkpt lat="45.749148749949114" lon="12.108076184885942"><ele>80.0</ele><time>2026-04-06T08:29:16.999Z</time></trkpt><trkpt lat="45.74920405390221" lon="12.10799465330566"><ele>80.0</ele><time>2026-04-06T08:29:17.999Z</time></trkpt><trkpt lat="45.74925622432648" lon="12.107917719597912"><ele>80.0</ele><time>2026-04-06T08:29:18.999Z</time></trkpt><trkpt lat="45.74931053933305" lon="12.107835465284163"><ele>80.0</ele><time>2026-04-06T08:29:19.999Z</time></trkpt><trkpt lat="45.749367371168915" lon="12.10774063229796"><ele>80.0</ele><time>2026-04-06T08:29:20.999Z</time></trkpt><trkpt lat="45.74943122195371" lon="12.10763315104771"><ele>80.0</ele><time>2026-04-06T08:29:21.999Z</time></trkpt><trkpt lat="45.749492784829165" lon="12.107525385161695"><ele>80.0</ele><time>2026-04-06T08:29:22.999Z</time></trkpt><trkpt lat="45.74955914694719" lon="12.10741674966352"><ele>80.0</ele><time>2026-04-06T08:29:23.999Z</time></trkpt><trkpt lat="45.74962765417755" lon="12.107301117379905"><ele>80.5</ele><time>2026-04-06T08:29:24.999Z</time></trkpt><trkpt lat="45.74970233965688" lon="12.107170662870912"><ele>81.0</ele><time>2026-04-06T08:29:25.999Z</time></trkpt><trkpt lat="45.74977430244397" lon="12.107029840809032"><ele>81.5</ele><time>2026-04-06T08:29:26.999Z</time></trkpt><trkpt lat="45.74984374681015" lon="12.106895746715352"><ele>82.0</ele><time>2026-04-06T08:29:27.999Z</time></trkpt><trkpt lat="45.74990798635802" lon="12.106765122422145"><ele>82.0</ele><time>2026-04-06T08:29:28.999Z</time></trkpt><trkpt lat="45.749975298935304" lon="12.106620404954638"><ele>82.0</ele><time>2026-04-06T08:29:29.999Z</time></trkpt><trkpt lat="45.750046329593445" lon="12.10646608724959"><ele>82.0</ele><time>2026-04-06T08:29:30.999Z</time></trkpt><trkpt lat="45.75012360701166" lon="12.106310184599923"><ele>82.0</ele><time>2026-04-06T08:29:31.999Z</time></trkpt><trkpt lat="45.75019828754629" lon="12.106146452035697"><ele>82.0</ele><time>2026-04-06T08:29:32.999Z</time></trkpt><trkpt lat="45.75026599191092" lon="12.105992125508822"><ele>82.0</ele><time>2026-04-06T08:29:33.999Z</time></trkpt><trkpt lat="45.75032691787642" lon="12.105847824490901"><ele>82.0</ele><time>2026-04-06T08:29:34.999Z</time></trkpt><trkpt lat="45.75038965332026" lon="12.10567720795657"><ele>82.0</ele><time>2026-04-06T08:29:35.999Z</time></trkpt><trkpt lat="45.75046248495263" lon="12.105478084802234"><ele>82.0</ele><time>2026-04-06T08:29:36.999Z</time></trkpt><trkpt lat="45.75054500685235" lon="12.105258624597903"><ele>82.0</ele><time>2026-04-06T08:29:37.999Z</time></trkpt><trkpt lat="45.750616813228234" lon="12.105047570013953"><ele>82.0</ele><time>2026-04-06T08:29:38.999Z</time></trkpt><trkpt lat="45.750683046182466" lon="12.1048347948172"><ele>81.66666666666666</ele><time>2026-04-06T08:29:39.999Z</time></trkpt><trkpt lat="45.750760449901556" lon="12.104598830225294"><ele>81.33333333333333</ele><time>2026-04-06T08:29:40.999Z</time></trkpt><trkpt lat="45.75084712661253" lon="12.104359379252424"><ele>81.0</ele><time>2026-04-06T08:29:41.999Z</time></trkpt><trkpt lat="45.75094908048249" lon="12.104146412066557"><ele>81.0</ele><time>2026-04-06T08:29:42.999Z</time></trkpt><trkpt lat="45.75102079206443" lon="12.103935780810477"><ele>81.0</ele><time>2026-04-06T08:29:43.999Z</time></trkpt><trkpt lat="45.751120318286574" lon="12.10372840086996"><ele>81.0</ele><time>2026-04-06T08:29:44.999Z</time></trkpt><trkpt lat="45.751229005111014" lon="12.103522203865197"><ele>81.33333333333333</ele><time>2026-04-06T08:29:45.999Z</time></trkpt><trkpt lat="45.751348372462736" lon="12.10333731666012"><ele>81.66666666666666</ele><time>2026-04-06T08:29:47Z</time></trkpt><trkpt lat="45.75145514962739" lon="12.103162590495472"><ele>82.0</ele><time>2026-04-06T08:29:48Z</time></trkpt><trkpt lat="45.75156844809792" lon="12.102970143058718"><ele>82.0</ele><time>2026-04-06T08:29:49Z</time></trkpt><trkpt lat="45.751721620050944" lon="12.102779319978497"><ele>82.0</ele><time>2026-04-06T08:29:50Z</time></trkpt><trkpt lat="45.75190446518698" lon="12.102535137260253"><ele>82.5</ele><time>2026-04-06T08:29:51Z</time></trkpt><trkpt lat="45.752124401144485" lon="12.102245456246491"><ele>83.0</ele><time>2026-04-06T08:29:52Z</time></trkpt><trkpt lat="45.75235792979535" lon="12.10190860690444"><ele>83.5</ele><time>2026-04-06T08:29:53Z</time></trkpt><trkpt lat="45.75263378334441" lon="12.101560259892173"><ele>84.0</ele><time>2026-04-06T08:29:54Z</time></trkpt><trkpt lat="45.75291997007274" lon="12.10117590583062"><ele>85.0</ele><time>2026-04-06T08:29:55Z</time></trkpt><trkpt lat="45.75320821470424" lon="12.100786557267046"><ele>86.0</ele><time>2026-04-06T08:29:56Z</time></trkpt><trkpt lat="45.75350490089703" lon="12.100390643093503"><ele>85.0</ele><time>2026-04-06T08:29:57Z</time></trkpt><trkpt lat="45.75377358041138" lon="12.100033126520188"><ele>84.0</ele><time>2026-04-06T08:29:58Z</time></trkpt><trkpt lat="45.754008936024384" lon="12.099717032466609"><ele>84.0</ele><time>2026-04-06T08:29:59Z</time></trkpt><trkpt lat="45.754217694023545" lon="12.099437039938636"><ele>84.0</ele><time>2026-04-06T08:30:00Z</time></trkpt><trkpt lat="45.754408485975695" lon="12.099175547300966"><ele>84.5</ele><time>2026-04-06T08:30:01Z</time></trkpt><trkpt lat="45.754584159741164" lon="12.09892731971764"><ele>85.0</ele><time>2026-04-06T08:30:02Z</time></trkpt><trkpt lat="45.754727607434965" lon="12.098689473336783"><ele>85.0</ele><time>2026-04-06T08:30:03Z</time></trkpt><trkpt lat="45.754851336861414" lon="12.098488710143386"><ele>85.0</ele><time>2026-04-06T08:30:04Z</time></trkpt><trkpt lat="45.7549758418802" lon="12.098332224911562"><ele>85.0</ele><time>2026-04-06T08:30:05Z</time></trkpt><trkpt lat="45.75508230979593" lon="12.098183911668327"><ele>84.6</ele><time>2026-04-06T08:30:06Z</time></trkpt><trkpt lat="45.75515749371675" lon="12.098064664226415"><ele>84.2</ele><time>2026-04-06T08:30:07Z</time></trkpt><trkpt lat="45.75522698486084" lon="12.097984566914363"><ele>83.80000000000001</ele><time>2026-04-06T08:30:08Z</time></trkpt><trkpt lat="45.75529507132063" lon="12.097930527001218"><ele>83.4</ele><time>2026-04-06T08:30:09Z</time></trkpt><trkpt lat="45.75538394557035" lon="12.097908574124766"><ele>83.0</ele><time>2026-04-06T08:30:10Z</time></trkpt><trkpt lat="45.75548466043582" lon="12.09794296126176"><ele>83.80000000000001</ele><time>2026-04-06T08:30:11Z</time></trkpt><trkpt lat="45.755573068775796" lon="12.097904424860314"><ele>84.6</ele><time>2026-04-06T08:30:12Z</time></trkpt><trkpt lat="45.755648078001116" lon="12.097822739427361"><ele>85.4</ele><time>2026-04-06T08:30:13Z</time></trkpt><trkpt lat="45.755670274470475" lon="12.097659807504632"><ele>86.19999999999999</ele><time>2026-04-06T08:30:14Z</time></trkpt><trkpt lat="45.75568536491711" lon="12.097523195516134"><ele>87.0</ele><time>2026-04-06T08:30:15Z</time></trkpt><trkpt lat="45.755667990581394" lon="12.097370012890552"><ele>87.25</ele><time>2026-04-06T08:30:16Z</time></trkpt><trkpt lat="45.75565891568239" lon="12.097206006206163"><ele>87.5</ele><time>2026-04-06T08:30:17Z</time></trkpt><trkpt lat="45.75571640487534" lon="12.097029161561274"><ele>87.75</ele><time>2026-04-06T08:30:18Z</time></trkpt><trkpt lat="45.75584762036113" lon="12.096859058826999"><ele>88.0</ele><time>2026-04-06T08:30:19Z</time></trkpt><trkpt lat="45.75599307327491" lon="12.096671272289313"><ele>88.0</ele><time>2026-04-06T08:30:20Z</time></trkpt><trkpt lat="45.756115603086656" lon="12.096456872084593"><ele>88.0</ele><time>2026-04-06T08:30:21Z</time></trkpt><trkpt lat="45.756268213676655" lon="12.09622468900387"><ele>88.0</ele><time>2026-04-06T08:30:22Z</time></trkpt><trkpt lat="45.756407018262664" lon="12.09599532992945"><ele>88.0</ele><time>2026-04-06T08:30:23Z</time></trkpt><trkpt lat="45.75654872677936" lon="12.095767363949516"><ele>88.0</ele><time>2026-04-06T08:30:24Z</time></trkpt><trkpt lat="45.756701263186926" lon="12.095515904817987"><ele>88.0</ele><time>2026-04-06T08:30:25Z</time></trkpt><trkpt lat="45.75685530344981" lon="12.095263004311823"><ele>88.0</ele><time>2026-04-06T08:30:26Z</time></trkpt><trkpt lat="45.75700515278604" lon="12.095014065344278"><ele>88.0</ele><time>2026-04-06T08:30:27Z</time></trkpt><trkpt lat="45.75715368070253" lon="12.094781660845445"><ele>88.0</ele><time>2026-04-06T08:30:28Z</time></trkpt><trkpt lat="45.75729565153402" lon="12.094571969630849"><ele>87.66666666666666</ele><time>2026-04-06T08:30:29Z</time></trkpt><trkpt lat="45.75743352503874" lon="12.094352369983957"><ele>87.33333333333333</ele><time>2026-04-06T08:30:30Z</time></trkpt><trkpt lat="45.75757846874713" lon="12.094118881403794"><ele>87.0</ele><time>2026-04-06T08:30:31Z</time></trkpt><trkpt lat="45.75772643110429" lon="12.093907113457334"><ele>87.66666666666667</ele><time>2026-04-06T08:30:32Z</time></trkpt><trkpt lat="45.75786283956348" lon="12.093737140639183"><ele>88.33333333333334</ele><time>2026-04-06T08:30:33Z</time></trkpt><trkpt lat="45.75797801240984" lon="12.093595910214967"><ele>89.0</ele><time>2026-04-06T08:30:34Z</time></trkpt><trkpt lat="45.758066792160875" lon="12.093440344900573"><ele>89.0</ele><time>2026-04-06T08:30:35Z</time></trkpt><trkpt lat="45.75812352795683" lon="12.093279898988994"><ele>89.0</ele><time>2026-04-06T08:30:36Z</time></trkpt><trkpt lat="45.7581565749973" lon="12.093162368431816"><ele>89.0</ele><time>2026-04-06T08:30:37Z</time></trkpt><trkpt lat="45.75818208290467" lon="12.09304971223721"><ele>89.0</ele><time>2026-04-06T08:30:38Z</time></trkpt><trkpt lat="45.75820459209585" lon="12.092936846206161"><ele>89.0</ele><time>2026-04-06T08:30:39Z</time></trkpt><trkpt lat="45.758250823150426" lon="12.092838471028923"><ele>88.80000000000001</ele><time>2026-04-06T08:30:40Z</time></trkpt><trkpt lat="45.758320066632535" lon="12.092758160946527"><ele>88.60000000000001</ele><time>2026-04-06T08:30:41Z</time></trkpt><trkpt lat="45.75841163770041" lon="12.092692059704683"><ele>88.4</ele><time>2026-04-06T08:30:42Z</time></trkpt><trkpt lat="45.75850682731375" lon="12.092623215155026"><ele>88.2</ele><time>2026-04-06T08:30:42.999Z</time></trkpt><trkpt lat="45.758569490910126" lon="12.092496930864217"><ele>88.0</ele><time>2026-04-06T08:30:43.999Z</time></trkpt><trkpt lat="45.758613626617425" lon="12.092345689500386"><ele>88.0</ele><time>2026-04-06T08:30:44.999Z</time></trkpt><trkpt lat="45.75868594170678" lon="12.092226308870975"><ele>88.0</ele><time>2026-04-06T08:30:45.999Z</time></trkpt><trkpt lat="45.758793812089465" lon="12.092152955193729"><ele>88.0</ele><time>2026-04-06T08:30:46.999Z</time></trkpt><trkpt lat="45.758920072994286" lon="12.092109945258569"><ele>88.0</ele><time>2026-04-06T08:30:47.999Z</time></trkpt><trkpt lat="45.759044094100105" lon="12.092076198551378"><ele>88.0</ele><time>2026-04-06T08:30:48.999Z</time></trkpt><trkpt lat="45.75915810085439" lon="12.092032776916597"><ele>88.0</ele><time>2026-04-06T08:30:49.999Z</time></trkpt><trkpt lat="45.759259888461244" lon="12.091985469841521"><ele>88.0</ele><time>2026-04-06T08:30:50.999Z</time></trkpt><trkpt lat="45.759359322082624" lon="12.091921325665213"><ele>88.0</ele><time>2026-04-06T08:30:51.999Z</time></trkpt><trkpt lat="45.75946055678671" lon="12.091825260929358"><ele>88.4</ele><time>2026-04-06T08:30:52.999Z</time></trkpt><trkpt lat="45.75955468813048" lon="12.09171109299247"><ele>88.80000000000001</ele><time>2026-04-06T08:30:53.999Z</time></trkpt><trkpt lat="45.759632022439604" lon="12.091600034380848"><ele>89.2</ele><time>2026-04-06T08:30:54.999Z</time></trkpt><trkpt lat="45.759704103770325" lon="12.091503359997848"><ele>89.6</ele><time>2026-04-06T08:30:55.999Z</time></trkpt><trkpt lat="45.75978081035109" lon="12.091417886569115"><ele>90.0</ele><time>2026-04-06T08:30:56.999Z</time></trkpt><trkpt lat="45.759857027406554" lon="12.091331658255045"><ele>90.16666666666667</ele><time>2026-04-06T08:30:57.999Z</time></trkpt><trkpt lat="45.7599316320852" lon="12.091249883548917"><ele>90.33333333333333</ele><time>2026-04-06T08:30:58.999Z</time></trkpt><trkpt lat="45.76000299934962" lon="12.091183072719282"><ele>90.5</ele><time>2026-04-06T08:30:59.999Z</time></trkpt><trkpt lat="45.76007088630227" lon="12.091129400690475"><ele>90.66666666666666</ele><time>2026-04-06T08:31:00.999Z</time></trkpt><trkpt lat="45.7601362605256" lon="12.091080933675423"><ele>90.83333333333333</ele><time>2026-04-06T08:31:01.999Z</time></trkpt><trkpt lat="45.76019750322789" lon="12.091030631920068"><ele>91.0</ele><time>2026-04-06T08:31:02.999Z</time></trkpt><trkpt lat="45.76025760264608" lon="12.090991674568354"><ele>91.0</ele><time>2026-04-06T08:31:03.999Z</time></trkpt><trkpt lat="45.76031965842101" lon="12.090957004944896"><ele>91.0</ele><time>2026-04-06T08:31:04.999Z</time></trkpt><trkpt lat="45.760392441953236" lon="12.09091934318601"><ele>91.0</ele><time>2026-04-06T08:31:05.999Z</time></trkpt><trkpt lat="45.76045802912902" lon="12.090881009326294"><ele>91.0</ele><time>2026-04-06T08:31:06.999Z</time></trkpt><trkpt lat="45.760517066570706" lon="12.090838874782333"><ele>91.0</ele><time>2026-04-06T08:31:07.999Z</time></trkpt><trkpt lat="45.760627551055045" lon="12.090785455032"><ele>91.0</ele><time>2026-04-06T08:31:09.999Z</time></trkpt><trkpt lat="45.76073102065737" lon="12.090748560499016"><ele>91.0</ele><time>2026-04-06T08:31:11.999Z</time></trkpt><trkpt lat="45.760798447624786" lon="12.090749928993583"><ele>91.0</ele><time>2026-04-06T08:31:12.999Z</time></trkpt><trkpt lat="45.76087923560543" lon="12.090798944962778"><ele>91.0</ele><time>2026-04-06T08:31:13.999Z</time></trkpt><trkpt lat="45.76096991544052" lon="12.09085113857238"><ele>91.0</ele><time>2026-04-06T08:31:14.999Z</time></trkpt><trkpt lat="45.76106255529437" lon="12.0908572598845"><ele>91.0</ele><time>2026-04-06T08:31:15.999Z</time></trkpt><trkpt lat="45.76115319286089" lon="12.090812172269668"><ele>91.0</ele><time>2026-04-06T08:31:16.999Z</time></trkpt><trkpt lat="45.76122568976915" lon="12.090711817706703"><ele>90.8</ele><time>2026-04-06T08:31:17.999Z</time></trkpt><trkpt lat="45.761269470241025" lon="12.090605267661639"><ele>90.6</ele><time>2026-04-06T08:31:18.999Z</time></trkpt><trkpt lat="45.76128236287522" lon="12.090478240598298"><ele>90.4</ele><time>2026-04-06T08:31:19.999Z</time></trkpt><trkpt lat="45.76126948269124" lon="12.090337031279667"><ele>90.2</ele><time>2026-04-06T08:31:20.999Z</time></trkpt><trkpt lat="45.76125055618536" lon="12.090182680582812"><ele>90.0</ele><time>2026-04-06T08:31:21.999Z</time></trkpt><trkpt lat="45.76127121511422" lon="12.090024614328199"><ele>90.0</ele><time>2026-04-06T08:31:22.999Z</time></trkpt><trkpt lat="45.76133384669077" lon="12.089854993841975"><ele>90.0</ele><time>2026-04-06T08:31:23.999Z</time></trkpt><trkpt lat="45.76141709871125" lon="12.089657006578548"><ele>90.0</ele><time>2026-04-06T08:31:24.999Z</time></trkpt><trkpt lat="45.76151837316858" lon="12.089434197124278"><ele>90.0</ele><time>2026-04-06T08:31:25.999Z</time></trkpt><trkpt lat="45.76162407282022" lon="12.089223890282716"><ele>90.0</ele><time>2026-04-06T08:31:26.999Z</time></trkpt><trkpt lat="45.76171447164497" lon="12.089033497838795"><ele>90.0</ele><time>2026-04-06T08:31:27.999Z</time></trkpt><trkpt lat="45.76180618352562" lon="12.088834145421462"><ele>90.33333333333333</ele><time>2026-04-06T08:31:28.999Z</time></trkpt><trkpt lat="45.76190898677935" lon="12.088624178797774"><ele>90.66666666666666</ele><time>2026-04-06T08:31:29.999Z</time></trkpt><trkpt lat="45.76201159165601" lon="12.088417783832895"><ele>91.0</ele><time>2026-04-06T08:31:30.999Z</time></trkpt><trkpt lat="45.76210383211564" lon="12.08821775248032"><ele>91.33333333333333</ele><time>2026-04-06T08:31:31.999Z</time></trkpt><trkpt lat="45.76220322101108" lon="12.088010956005007"><ele>91.66666666666667</ele><time>2026-04-06T08:31:32.999Z</time></trkpt><trkpt lat="45.7623424792981" lon="12.087810116927365"><ele>92.0</ele><time>2026-04-06T08:31:33.999Z</time></trkpt><trkpt lat="45.762450924891674" lon="12.087608993731822"><ele>92.33333333333334</ele><time>2026-04-06T08:31:34.999Z</time></trkpt><trkpt lat="45.76256621184126" lon="12.087393473587992"><ele>92.66666666666667</ele><time>2026-04-06T08:31:35.999Z</time></trkpt><trkpt lat="45.762685435188715" lon="12.08716905910702"><ele>93.0</ele><time>2026-04-06T08:31:36.999Z</time></trkpt><trkpt lat="45.76279424357849" lon="12.086963699035582"><ele>93.0</ele><time>2026-04-06T08:31:37.999Z</time></trkpt><trkpt lat="45.76291189915328" lon="12.086741693522697"><ele>93.0</ele><time>2026-04-06T08:31:38.999Z</time></trkpt><trkpt lat="45.76302871673793" lon="12.086521694046063"><ele>93.0</ele><time>2026-04-06T08:31:39.999Z</time></trkpt><trkpt lat="45.76313229475371" lon="12.08632662822776"><ele>93.66666666666667</ele><time>2026-04-06T08:31:40.999Z</time></trkpt><trkpt lat="45.76323055012877" lon="12.086140059714989"><ele>94.33333333333334</ele><time>2026-04-06T08:31:41.999Z</time></trkpt><trkpt lat="45.763321122083354" lon="12.085968205894945"><ele>95.0</ele><time>2026-04-06T08:31:42.999Z</time></trkpt><trkpt lat="45.76340541928526" lon="12.085808258036007"><ele>95.0</ele><time>2026-04-06T08:31:43.999Z</time></trkpt><trkpt lat="45.76348508835084" lon="12.085657536338301"><ele>95.0</ele><time>2026-04-06T08:31:44.999Z</time></trkpt><trkpt lat="45.763552769651156" lon="12.085491477063048"><ele>95.0</ele><time>2026-04-06T08:31:45.999Z</time></trkpt><trkpt lat="45.76364357487" lon="12.085358787515611"><ele>95.0</ele><time>2026-04-06T08:31:46.999Z</time></trkpt><trkpt lat="45.76371164854928" lon="12.085191758473158"><ele>94.75</ele><time>2026-04-06T08:31:47.999Z</time></trkpt><trkpt lat="45.76380233473241" lon="12.085031777917793"><ele>94.5</ele><time>2026-04-06T08:31:48.999Z</time></trkpt><trkpt lat="45.763895533186876" lon="12.084885625667862"><ele>94.25</ele><time>2026-04-06T08:31:49.999Z</time></trkpt><trkpt lat="45.76396197641433" lon="12.08472313992024"><ele>94.0</ele><time>2026-04-06T08:31:50.999Z</time></trkpt><trkpt lat="45.76405754151139" lon="12.084580972828826"><ele>94.0</ele><time>2026-04-06T08:31:51.999Z</time></trkpt><trkpt lat="45.76414613286727" lon="12.084414378392935"><ele>94.0</ele><time>2026-04-06T08:31:53Z</time></trkpt><trkpt lat="45.76422838206596" lon="12.084259710286874"><ele>94.0</ele><time>2026-04-06T08:31:54Z</time></trkpt><trkpt lat="45.764301720888" lon="12.084122511500272"><ele>94.0</ele><time>2026-04-06T08:31:55Z</time></trkpt><trkpt lat="45.76436594919164" lon="12.084002794927532"><ele>94.0</ele><time>2026-04-06T08:31:56Z</time></trkpt><trkpt lat="45.76442196260284" lon="12.08389839028259"><ele>94.0</ele><time>2026-04-06T08:31:57Z</time></trkpt><trkpt lat="45.764488054312636" lon="12.083775200106174"><ele>94.0</ele><time>2026-04-06T08:31:58Z</time></trkpt><trkpt lat="45.76456742941757" lon="12.083625509163154"><ele>94.0</ele><time>2026-04-06T08:31:59Z</time></trkpt><trkpt lat="45.76465430435995" lon="12.083458942814897"><ele>94.0</ele><time>2026-04-06T08:32:00Z</time></trkpt><trkpt lat="45.76474974232682" lon="12.08327554754284"><ele>94.0</ele><time>2026-04-06T08:32:01Z</time></trkpt><trkpt lat="45.764836972628444" lon="12.08303861489146"><ele>94.0</ele><time>2026-04-06T08:32:02Z</time></trkpt><trkpt lat="45.764959396233365" lon="12.08280635169271"><ele>93.66666666666666</ele><time>2026-04-06T08:32:03Z</time></trkpt><trkpt lat="45.76510275751821" lon="12.082582897510985"><ele>93.33333333333333</ele><time>2026-04-06T08:32:04Z</time></trkpt><trkpt lat="45.765208130927405" lon="12.082353064446819"><ele>93.0</ele><time>2026-04-06T08:32:05Z</time></trkpt><trkpt lat="45.765350899121" lon="12.08217456304061"><ele>94.0</ele><time>2026-04-06T08:32:06Z</time></trkpt><trkpt lat="45.76548007811763" lon="12.0819689304771"><ele>95.0</ele><time>2026-04-06T08:32:07Z</time></trkpt><trkpt lat="45.76560202680394" lon="12.08176291412321"><ele>96.0</ele><time>2026-04-06T08:32:08Z</time></trkpt><trkpt lat="45.76573378827519" lon="12.08158508206016"><ele>96.0</ele><time>2026-04-06T08:32:09Z</time></trkpt><trkpt lat="45.76585291845172" lon="12.081423224481362"><ele>96.0</ele><time>2026-04-06T08:32:10Z</time></trkpt><trkpt lat="45.76595365543569" lon="12.081295446879206"><ele>96.0</ele><time>2026-04-06T08:32:11Z</time></trkpt><trkpt lat="45.766073586049785" lon="12.08120793578826"><ele>96.0</ele><time>2026-04-06T08:32:12Z</time></trkpt><trkpt lat="45.76618200040023" lon="12.081094729813373"><ele>96.33333333333334</ele><time>2026-04-06T08:32:13Z</time></trkpt><trkpt lat="45.76631327483619" lon="12.080962944379769"><ele>96.66666666666667</ele><time>2026-04-06T08:32:14Z</time></trkpt><trkpt lat="45.76647417323395" lon="12.080809211988504"><ele>97.0</ele><time>2026-04-06T08:32:15Z</time></trkpt><trkpt lat="45.76663558196304" lon="12.080656913528777"><ele>97.33333333333334</ele><time>2026-04-06T08:32:16Z</time></trkpt><trkpt lat="45.766785300452355" lon="12.080516005998856"><ele>97.66666666666666</ele><time>2026-04-06T08:32:17Z</time></trkpt><trkpt lat="45.7669075025139" lon="12.080401207837651"><ele>98.0</ele><time>2026-04-06T08:32:18Z</time></trkpt><trkpt lat="45.767019845127066" lon="12.080295728008448"><ele>98.0</ele><time>2026-04-06T08:32:19Z</time></trkpt><trkpt lat="45.7671464959058" lon="12.080176814180575"><ele>98.0</ele><time>2026-04-06T08:32:20Z</time></trkpt><trkpt lat="45.767289814228015" lon="12.080008234701038"><ele>98.0</ele><time>2026-04-06T08:32:21Z</time></trkpt><trkpt lat="45.7674576853928" lon="12.079856135025278"><ele>98.0</ele><time>2026-04-06T08:32:22Z</time></trkpt><trkpt lat="45.76762863544277" lon="12.079682849931787"><ele>98.0</ele><time>2026-04-06T08:32:23Z</time></trkpt><trkpt lat="45.76782205640432" lon="12.079498050216772"><ele>98.0</ele><time>2026-04-06T08:32:24Z</time></trkpt><trkpt lat="45.768035008228836" lon="12.07931985759007"><ele>98.0</ele><time>2026-04-06T08:32:25Z</time></trkpt><trkpt lat="45.76822643055691" lon="12.079151843769056"><ele>98.0</ele><time>2026-04-06T08:32:26Z</time></trkpt><trkpt lat="45.76839502157013" lon="12.078994166545883"><ele>98.0</ele><time>2026-04-06T08:32:27Z</time></trkpt><trkpt lat="45.76856656737111" lon="12.078817702858654"><ele>99.5</ele><time>2026-04-06T08:32:28Z</time></trkpt><trkpt lat="45.76875217680334" lon="12.07863768540949"><ele>101.0</ele><time>2026-04-06T08:32:29Z</time></trkpt><trkpt lat="45.76893208610367" lon="12.078429929394751"><ele>100.0</ele><time>2026-04-06T08:32:30Z</time></trkpt><trkpt lat="45.76910569679025" lon="12.078206100558214"><ele>99.0</ele><time>2026-04-06T08:32:31Z</time></trkpt><trkpt lat="45.76926940161811" lon="12.077981788165761"><ele>99.5</ele><time>2026-04-06T08:32:32Z</time></trkpt><trkpt lat="45.76944074374589" lon="12.077752589749652"><ele>100.0</ele><time>2026-04-06T08:32:33Z</time></trkpt><trkpt lat="45.76960851881701" lon="12.077525531452316"><ele>100.0</ele><time>2026-04-06T08:32:34Z</time></trkpt><trkpt lat="45.76975400608778" lon="12.077292361680472"><ele>100.0</ele><time>2026-04-06T08:32:35Z</time></trkpt><trkpt lat="45.769889637056636" lon="12.077071146646542"><ele>100.0</ele><time>2026-04-06T08:32:36Z</time></trkpt><trkpt lat="45.77002614440113" lon="12.076850828516893"><ele>100.0</ele><time>2026-04-06T08:32:37Z</time></trkpt><trkpt lat="45.77017530679137" lon="12.076615290825215"><ele>100.0</ele><time>2026-04-06T08:32:38Z</time></trkpt><trkpt lat="45.770302882839864" lon="12.076392576897014"><ele>100.0</ele><time>2026-04-06T08:32:39Z</time></trkpt><trkpt lat="45.770405553989534" lon="12.076166426032605"><ele>100.0</ele><time>2026-04-06T08:32:40Z</time></trkpt><trkpt lat="45.77049176376285" lon="12.075969179856445"><ele>100.0</ele><time>2026-04-06T08:32:41Z</time></trkpt><trkpt lat="45.77054733585889" lon="12.075821202518096"><ele>100.0</ele><time>2026-04-06T08:32:42Z</time></trkpt><trkpt lat="45.770605448853544" lon="12.075676954113307"><ele>100.0</ele><time>2026-04-06T08:32:43Z</time></trkpt><trkpt lat="45.77065846161732" lon="12.075554101802458"><ele>100.00000000000001</ele><time>2026-04-06T08:32:44Z</time></trkpt><trkpt lat="45.77069921216583" lon="12.075454862404817"><ele>100.0</ele><time>2026-04-06T08:32:45Z</time></trkpt><trkpt lat="45.77075104079197" lon="12.075336085215204"><ele>100.0</ele><time>2026-04-06T08:32:46.999Z</time></trkpt><trkpt lat="45.77078637844429" lon="12.075242357769525"><ele>100.0</ele><time>2026-04-06T08:32:50.999Z</time></trkpt><trkpt lat="45.770834942319674" lon="12.075162309545483"><ele>100.00000000000001</ele><time>2026-04-06T08:32:51.999Z</time></trkpt><trkpt lat="45.77087811674042" lon="12.075022735363673"><ele>100.0</ele><time>2026-04-06T08:32:52.999Z</time></trkpt><trkpt lat="45.77095115997964" lon="12.074893676234824"><ele>100.33333333333334</ele><time>2026-04-06T08:32:53.999Z</time></trkpt><trkpt lat="45.771008557424636" lon="12.074748068180758"><ele>100.66666666666666</ele><time>2026-04-06T08:32:54.999Z</time></trkpt><trkpt lat="45.77108318269075" lon="12.074544920152135"><ele>101.0</ele><time>2026-04-06T08:32:55.999Z</time></trkpt><trkpt lat="45.77117959955686" lon="12.074329582292378"><ele>101.33333333333333</ele><time>2026-04-06T08:32:56.999Z</time></trkpt><trkpt lat="45.771275343920514" lon="12.074142442158056"><ele>101.66666666666666</ele><time>2026-04-06T08:32:57.999Z</time></trkpt><trkpt lat="45.77138845159673" lon="12.073937319235563"><ele>102.0</ele><time>2026-04-06T08:32:58.999Z</time></trkpt><trkpt lat="45.7715237475305" lon="12.073716055588697"><ele>102.0</ele><time>2026-04-06T08:32:59.999Z</time></trkpt><trkpt lat="45.77167343954957" lon="12.073483557822797"><ele>102.0</ele><time>2026-04-06T08:33:00.999Z</time></trkpt><trkpt lat="45.77180455283866" lon="12.073268525832555"><ele>102.0</ele><time>2026-04-06T08:33:01.999Z</time></trkpt><trkpt lat="45.77196141197608" lon="12.073061636677611"><ele>102.0</ele><time>2026-04-06T08:33:02.999Z</time></trkpt><trkpt lat="45.772098209929915" lon="12.072820528167497"><ele>102.0</ele><time>2026-04-06T08:33:03.999Z</time></trkpt><trkpt lat="45.77226070465959" lon="12.072573817882745"><ele>103.5</ele><time>2026-04-06T08:33:04.999Z</time></trkpt><trkpt lat="45.772417552780176" lon="12.07232287798817"><ele>105.0</ele><time>2026-04-06T08:33:05.999Z</time></trkpt><trkpt lat="45.77256490357322" lon="12.072088828911163"><ele>105.0</ele><time>2026-04-06T08:33:06.999Z</time></trkpt><trkpt lat="45.77270906007933" lon="12.071864670934122"><ele>105.0</ele><time>2026-04-06T08:33:07.999Z</time></trkpt><trkpt lat="45.772855380121115" lon="12.07163355455361"><ele>105.0</ele><time>2026-04-06T08:33:08.999Z</time></trkpt><trkpt lat="45.773000910211636" lon="12.071407214761093"><ele>105.0</ele><time>2026-04-06T08:33:09.999Z</time></trkpt><trkpt lat="45.77314633193935" lon="12.071185145719951"><ele>105.0</ele><time>2026-04-06T08:33:10.999Z</time></trkpt><trkpt lat="45.77329575226547" lon="12.070959572130358"><ele>105.0</ele><time>2026-04-06T08:33:11.999Z</time></trkpt><trkpt lat="45.77344500499999" lon="12.070733336758002"><ele>105.0</ele><time>2026-04-06T08:33:12.999Z</time></trkpt><trkpt lat="45.77358400599551" lon="12.07052031222797"><ele>105.0</ele><time>2026-04-06T08:33:13.999Z</time></trkpt><trkpt lat="45.77371218441874" lon="12.070323872590714"><ele>105.0</ele><time>2026-04-06T08:33:14.999Z</time></trkpt><trkpt lat="45.77383215791307" lon="12.070136288810511"><ele>105.0</ele><time>2026-04-06T08:33:15.999Z</time></trkpt><trkpt lat="45.77394586261462" lon="12.069960437998887"><ele>105.0</ele><time>2026-04-06T08:33:16.999Z</time></trkpt><trkpt lat="45.774072473029754" lon="12.069824160709759"><ele>105.0</ele><time>2026-04-06T08:33:17.999Z</time></trkpt><trkpt lat="45.774179426123254" lon="12.069674381456506"><ele>105.25</ele><time>2026-04-06T08:33:18.999Z</time></trkpt><trkpt lat="45.774290885466314" lon="12.06954181109282"><ele>105.5</ele><time>2026-04-06T08:33:19.999Z</time></trkpt><trkpt lat="45.77440739153515" lon="12.069445108782867"><ele>105.75</ele><time>2026-04-06T08:33:20.999Z</time></trkpt><trkpt lat="45.77453643680652" lon="12.069320940276999"><ele>106.0</ele><time>2026-04-06T08:33:21.999Z</time></trkpt><trkpt lat="45.77469276645047" lon="12.069182485412918"><ele>106.33333333333334</ele><time>2026-04-06T08:33:22.999Z</time></trkpt><trkpt lat="45.774871321314095" lon="12.069043239435965"><ele>106.66666666666666</ele><time>2026-04-06T08:33:23.999Z</time></trkpt><trkpt lat="45.775066995154276" lon="12.06890866461832"><ele>107.0</ele><time>2026-04-06T08:33:24.999Z</time></trkpt><trkpt lat="45.77525779768144" lon="12.068770471671783"><ele>107.66666666666666</ele><time>2026-04-06T08:33:25.999Z</time></trkpt><trkpt lat="45.775452665355324" lon="12.068657480533895"><ele>108.33333333333334</ele><time>2026-04-06T08:33:26.999Z</time></trkpt><trkpt lat="45.775650284882495" lon="12.068575376017167"><ele>109.0</ele><time>2026-04-06T08:33:27.999Z</time></trkpt><trkpt lat="45.77584396212266" lon="12.068468905621321"><ele>109.66666666666667</ele><time>2026-04-06T08:33:28.999Z</time></trkpt><trkpt lat="45.77605163612187" lon="12.068403380695802"><ele>110.33333333333334</ele><time>2026-04-06T08:33:29.999Z</time></trkpt><trkpt lat="45.776269774852175" lon="12.068342207913343"><ele>111.0</ele><time>2026-04-06T08:33:30.999Z</time></trkpt><trkpt lat="45.776499022120056" lon="12.06828115473105"><ele>111.5</ele><time>2026-04-06T08:33:31.999Z</time></trkpt><trkpt lat="45.776751054925" lon="12.068253236301226"><ele>112.0</ele><time>2026-04-06T08:33:32.999Z</time></trkpt><trkpt lat="45.777014935042764" lon="12.068181272197885"><ele>112.5</ele><time>2026-04-06T08:33:33.999Z</time></trkpt><trkpt lat="45.77728586354254" lon="12.068132092734055"><ele>113.0</ele><time>2026-04-06T08:33:34.999Z</time></trkpt><trkpt lat="45.77754627119846" lon="12.06807143703866"><ele>112.5</ele><time>2026-04-06T08:33:35.999Z</time></trkpt><trkpt lat="45.77778165437379" lon="12.068035886919994"><ele>112.0</ele><time>2026-04-06T08:33:36.999Z</time></trkpt><trkpt lat="45.77799706662586" lon="12.067970912054783"><ele>112.0</ele><time>2026-04-06T08:33:37.999Z</time></trkpt><trkpt lat="45.77819749953703" lon="12.067925738232423"><ele>112.0</ele><time>2026-04-06T08:33:38.999Z</time></trkpt><trkpt lat="45.77840950709889" lon="12.067903626686919"><ele>112.0</ele><time>2026-04-06T08:33:39.999Z</time></trkpt><trkpt lat="45.77863696465733" lon="12.067854658198792"><ele>113.33333333333334</ele><time>2026-04-06T08:33:40.999Z</time></trkpt><trkpt lat="45.77885207744885" lon="12.067787525041275"><ele>114.66666666666666</ele><time>2026-04-06T08:33:41.999Z</time></trkpt><trkpt lat="45.77904201710228" lon="12.06774613717929"><ele>116.0</ele><time>2026-04-06T08:33:42.999Z</time></trkpt><trkpt lat="45.779231799804585" lon="12.067728048708734"><ele>116.0</ele><time>2026-04-06T08:33:43.999Z</time></trkpt><trkpt lat="45.77942813295735" lon="12.06768338581236"><ele>116.0</ele><time>2026-04-06T08:33:44.999Z</time></trkpt><trkpt lat="45.77962935369347" lon="12.067628510352137"><ele>116.0</ele><time>2026-04-06T08:33:45.999Z</time></trkpt><trkpt lat="45.77981433600181" lon="12.067548403817069"><ele>116.0</ele><time>2026-04-06T08:33:46.999Z</time></trkpt><trkpt lat="45.7800040408868" lon="12.067475083395706"><ele>116.0</ele><time>2026-04-06T08:33:47.999Z</time></trkpt><trkpt lat="45.780198116610336" lon="12.067385830631263"><ele>116.0</ele><time>2026-04-06T08:33:48.999Z</time></trkpt><trkpt lat="45.78037730545965" lon="12.067284648232773"><ele>116.33333333333333</ele><time>2026-04-06T08:33:49.999Z</time></trkpt><trkpt lat="45.780541413252216" lon="12.067179749352755"><ele>116.66666666666666</ele><time>2026-04-06T08:33:50.999Z</time></trkpt><trkpt lat="45.780703234401855" lon="12.067064871887323"><ele>117.0</ele><time>2026-04-06T08:33:51.999Z</time></trkpt><trkpt lat="45.78085795726089" lon="12.066940598081432"><ele>117.0</ele><time>2026-04-06T08:33:52.999Z</time></trkpt><trkpt lat="45.78102221827209" lon="12.0668261291012"><ele>117.0</ele><time>2026-04-06T08:33:53.999Z</time></trkpt><trkpt lat="45.781203681561344" lon="12.066660784875591"><ele>117.0</ele><time>2026-04-06T08:33:54.999Z</time></trkpt><trkpt lat="45.78138434324319" lon="12.066446327894038"><ele>117.0</ele><time>2026-04-06T08:33:55.999Z</time></trkpt><trkpt lat="45.7815601160553" lon="12.066262960585043"><ele>117.0</ele><time>2026-04-06T08:33:56.999Z</time></trkpt><trkpt lat="45.781716463084926" lon="12.066056532941543"><ele>117.0</ele><time>2026-04-06T08:33:57.999Z</time></trkpt><trkpt lat="45.78187462248309" lon="12.065868165885433"><ele>117.66666666666666</ele><time>2026-04-06T08:33:59Z</time></trkpt><trkpt lat="45.782017281929015" lon="12.065647122211063"><ele>118.33333333333333</ele><time>2026-04-06T08:34:00Z</time></trkpt><trkpt lat="45.78216275438208" lon="12.06540134755514"><ele>119.0</ele><time>2026-04-06T08:34:01Z</time></trkpt><trkpt lat="45.78230657240502" lon="12.065138697142618"><ele>118.66666666666666</ele><time>2026-04-06T08:34:02Z</time></trkpt><trkpt lat="45.782433649501016" lon="12.064883723030762"><ele>118.33333333333334</ele><time>2026-04-06T08:34:03Z</time></trkpt><trkpt lat="45.782544629722665" lon="12.064639072002516"><ele>118.0</ele><time>2026-04-06T08:34:04Z</time></trkpt><trkpt lat="45.7826274013588" lon="12.064392661205595"><ele>117.66666666666667</ele><time>2026-04-06T08:34:05Z</time></trkpt><trkpt lat="45.78272614489782" lon="12.06416478090458"><ele>117.33333333333334</ele><time>2026-04-06T08:34:06Z</time></trkpt><trkpt lat="45.78279813033361" lon="12.063942799343415"><ele>117.0</ele><time>2026-04-06T08:34:07Z</time></trkpt><trkpt lat="45.782866018475126" lon="12.063725242394282"><ele>117.33333333333334</ele><time>2026-04-06T08:34:08Z</time></trkpt><trkpt lat="45.782932875861576" lon="12.063510985079143"><ele>117.66666666666667</ele><time>2026-04-06T08:34:09Z</time></trkpt><trkpt lat="45.78299426716086" lon="12.063314244889126"><ele>118.0</ele><time>2026-04-06T08:34:10Z</time></trkpt><trkpt lat="45.78300274285998" lon="12.063098589297413"><ele>118.0</ele><time>2026-04-06T08:34:11Z</time></trkpt><trkpt lat="45.78303513154829" lon="12.062906936087618"><ele>118.0</ele><time>2026-04-06T08:34:12Z</time></trkpt><trkpt lat="45.78306252993866" lon="12.062728132610939"><ele>118.0</ele><time>2026-04-06T08:34:13Z</time></trkpt><trkpt lat="45.78309090085709" lon="12.062558017870838"><ele>118.0</ele><time>2026-04-06T08:34:14Z</time></trkpt><trkpt lat="45.78311289668738" lon="12.06239326318434"><ele>118.25</ele><time>2026-04-06T08:34:15Z</time></trkpt><trkpt lat="45.78312943953716" lon="12.062231268823753"><ele>118.5</ele><time>2026-04-06T08:34:16Z</time></trkpt><trkpt lat="45.783143986593124" lon="12.06207168789724"><ele>118.75</ele><time>2026-04-06T08:34:17Z</time></trkpt><trkpt lat="45.78315953689634" lon="12.061911754310616"><ele>119.0</ele><time>2026-04-06T08:34:18Z</time></trkpt><trkpt lat="45.78317782946384" lon="12.06175508364563"><ele>119.4</ele><time>2026-04-06T08:34:19Z</time></trkpt><trkpt lat="45.78319459295113" lon="12.061592047563105"><ele>119.80000000000001</ele><time>2026-04-06T08:34:20Z</time></trkpt><trkpt lat="45.78320127692644" lon="12.061429522049924"><ele>120.19999999999999</ele><time>2026-04-06T08:34:21Z</time></trkpt><trkpt lat="45.783213399867954" lon="12.061274831023553"><ele>120.6</ele><time>2026-04-06T08:34:22Z</time></trkpt><trkpt lat="45.78323470644266" lon="12.061137252611799"><ele>121.0</ele><time>2026-04-06T08:34:23Z</time></trkpt><trkpt lat="45.78325825124157" lon="12.061011193153558"><ele>121.00000000000001</ele><time>2026-04-06T08:34:24Z</time></trkpt><trkpt lat="45.78328830098388" lon="12.060891572079424"><ele>121.0</ele><time>2026-04-06T08:34:25Z</time></trkpt><trkpt lat="45.78332834354493" lon="12.060795972339735"><ele>121.0</ele><time>2026-04-06T08:34:26Z</time></trkpt><trkpt lat="45.78338032732521" lon="12.060716912671085"><ele>121.0</ele><time>2026-04-06T08:34:27Z</time></trkpt><trkpt lat="45.78343971809886" lon="12.06064794741668"><ele>121.00000000000001</ele><time>2026-04-06T08:34:28Z</time></trkpt><trkpt lat="45.78350268855713" lon="12.060565686965335"><ele>121.0</ele><time>2026-04-06T08:34:29Z</time></trkpt><trkpt lat="45.78356115827439" lon="12.060437755992204"><ele>121.19999999999999</ele><time>2026-04-06T08:34:30Z</time></trkpt><trkpt lat="45.78360472185318" lon="12.06028177639273"><ele>121.39999999999999</ele><time>2026-04-06T08:34:31Z</time></trkpt><trkpt lat="45.783644695398884" lon="12.060143797667196"><ele>121.6</ele><time>2026-04-06T08:34:32Z</time></trkpt><trkpt lat="45.7836854312278" lon="12.060031763679175"><ele>121.8</ele><time>2026-04-06T08:34:33Z</time></trkpt><trkpt lat="45.783708534866065" lon="12.059934673152986"><ele>122.0</ele><time>2026-04-06T08:34:34Z</time></trkpt><trkpt lat="45.78371087162658" lon="12.059835013071535"><ele>122.16666666666666</ele><time>2026-04-06T08:34:35Z</time></trkpt><trkpt lat="45.78368358436302" lon="12.05974184045391"><ele>122.33333333333333</ele><time>2026-04-06T08:34:36Z</time></trkpt><trkpt lat="45.78363865881346" lon="12.059643788751151"><ele>122.5</ele><time>2026-04-06T08:34:37Z</time></trkpt><trkpt lat="45.783567383189876" lon="12.05955564377457"><ele>122.66666666666666</ele><time>2026-04-06T08:34:38Z</time></trkpt><trkpt lat="45.78349039567969" lon="12.059500802801152"><ele>122.83333333333333</ele><time>2026-04-06T08:34:39Z</time></trkpt><trkpt lat="45.78340112840969" lon="12.059490397189645"><ele>123.0</ele><time>2026-04-06T08:34:40Z</time></trkpt><trkpt lat="45.78329987410065" lon="12.059504945838311"><ele>123.0</ele><time>2026-04-06T08:34:41Z</time></trkpt><trkpt lat="45.78320281999609" lon="12.059493762824475"><ele>123.0</ele><time>2026-04-06T08:34:42Z</time></trkpt><trkpt lat="45.78312935331631" lon="12.059423967786989"><ele>123.0</ele><time>2026-04-06T08:34:43Z</time></trkpt><trkpt lat="45.78308709966865" lon="12.059319142562709"><ele>123.0</ele><time>2026-04-06T08:34:43.999Z</time></trkpt><trkpt lat="45.78306464063897" lon="12.05920533183093"><ele>123.0</ele><time>2026-04-06T08:34:44.999Z</time></trkpt><trkpt lat="45.783061838437355" lon="12.059073888853495"><ele>123.0</ele><time>2026-04-06T08:34:45.999Z</time></trkpt><trkpt lat="45.78308124737422" lon="12.058922286394113"><ele>123.0</ele><time>2026-04-06T08:34:46.999Z</time></trkpt><trkpt lat="45.7831179811615" lon="12.058745211514418"><ele>123.0</ele><time>2026-04-06T08:34:47.999Z</time></trkpt><trkpt lat="45.78315473679629" lon="12.058547777286384"><ele>123.0</ele><time>2026-04-06T08:34:48.999Z</time></trkpt><trkpt lat="45.78318346905564" lon="12.05833641598127"><ele>123.0</ele><time>2026-04-06T08:34:49.999Z</time></trkpt><trkpt lat="45.78320473355088" lon="12.058141220571189"><ele>123.0</ele><time>2026-04-06T08:34:50.999Z</time></trkpt><trkpt lat="45.78320771592728" lon="12.057950143314972"><ele>123.0</ele><time>2026-04-06T08:34:51.999Z</time></trkpt><trkpt lat="45.783203426073534" lon="12.057727376150785"><ele>123.0</ele><time>2026-04-06T08:34:52.999Z</time></trkpt><trkpt lat="45.78319378751279" lon="12.05745690044614"><ele>123.0</ele><time>2026-04-06T08:34:53.999Z</time></trkpt><trkpt lat="45.7832010059656" lon="12.05715394071409"><ele>123.0</ele><time>2026-04-06T08:34:54.999Z</time></trkpt><trkpt lat="45.783217825510654" lon="12.056834207680913"><ele>123.0</ele><time>2026-04-06T08:34:55.999Z</time></trkpt><trkpt lat="45.783209927156655" lon="12.056532380221862"><ele>123.33333333333334</ele><time>2026-04-06T08:34:56.999Z</time></trkpt><trkpt lat="45.78320507626176" lon="12.05624700888669"><ele>123.66666666666667</ele><time>2026-04-06T08:34:57.999Z</time></trkpt><trkpt lat="45.78320853037777" lon="12.055959827320352"><ele>124.0</ele><time>2026-04-06T08:34:58.999Z</time></trkpt><trkpt lat="45.78320487962448" lon="12.055669036987279"><ele>124.0</ele><time>2026-04-06T08:34:59.999Z</time></trkpt><trkpt lat="45.78319707998703" lon="12.055362007178106"><ele>124.0</ele><time>2026-04-06T08:35:00.999Z</time></trkpt><trkpt lat="45.78320716876854" lon="12.055054650989295"><ele>124.0</ele><time>2026-04-06T08:35:01.999Z</time></trkpt><trkpt lat="45.78321683661278" lon="12.054773274108664"><ele>124.0</ele><time>2026-04-06T08:35:02.999Z</time></trkpt><trkpt lat="45.78322341279293" lon="12.054493549263132"><ele>124.0</ele><time>2026-04-06T08:35:03.999Z</time></trkpt><trkpt lat="45.783235676210325" lon="12.054221906163331"><ele>124.0</ele><time>2026-04-06T08:35:04.999Z</time></trkpt><trkpt lat="45.78325499642044" lon="12.05396048337147"><ele>124.0</ele><time>2026-04-06T08:35:05.999Z</time></trkpt><trkpt lat="45.78328592124304" lon="12.053703987369913"><ele>124.0</ele><time>2026-04-06T08:35:06.999Z</time></trkpt><trkpt lat="45.78332433240032" lon="12.053438055778246"><ele>124.0</ele><time>2026-04-06T08:35:07.999Z</time></trkpt><trkpt lat="45.7833634165703" lon="12.053164134487487"><ele>124.66666666666667</ele><time>2026-04-06T08:35:08.999Z</time></trkpt><trkpt lat="45.78341081516929" lon="12.052896731380654"><ele>125.33333333333334</ele><time>2026-04-06T08:35:09.999Z</time></trkpt><trkpt lat="45.78347134235621" lon="12.052626952626873"><ele>126.0</ele><time>2026-04-06T08:35:10.999Z</time></trkpt><trkpt lat="45.78354308772405" lon="12.052371926755885"><ele>126.0</ele><time>2026-04-06T08:35:11.999Z</time></trkpt><trkpt lat="45.78362000463696" lon="12.052122294822032"><ele>126.0</ele><time>2026-04-06T08:35:12.999Z</time></trkpt><trkpt lat="45.783708148851886" lon="12.051911995353885"><ele>126.0</ele><time>2026-04-06T08:35:13.999Z</time></trkpt><trkpt lat="45.78378859205664" lon="12.051699153886448"><ele>126.0</ele><time>2026-04-06T08:35:14.999Z</time></trkpt><trkpt lat="45.783874824163476" lon="12.05149560929352"><ele>126.0</ele><time>2026-04-06T08:35:15.999Z</time></trkpt><trkpt lat="45.78396330632645" lon="12.051301500702458"><ele>126.0</ele><time>2026-04-06T08:35:16.999Z</time></trkpt><trkpt lat="45.7840473091221" lon="12.051091813162977"><ele>126.0</ele><time>2026-04-06T08:35:17.999Z</time></trkpt><trkpt lat="45.78414409599476" lon="12.050904857133338"><ele>126.0</ele><time>2026-04-06T08:35:18.999Z</time></trkpt><trkpt lat="45.78425468206119" lon="12.05073241272639"><ele>126.0</ele><time>2026-04-06T08:35:19.999Z</time></trkpt><trkpt lat="45.78436203305426" lon="12.050554752261181"><ele>126.33333333333334</ele><time>2026-04-06T08:35:20.999Z</time></trkpt><trkpt lat="45.78447375825325" lon="12.050384296576356"><ele>126.66666666666667</ele><time>2026-04-06T08:35:21.999Z</time></trkpt><trkpt lat="45.78458846709883" lon="12.050217694042038"><ele>127.0</ele><time>2026-04-06T08:35:22.999Z</time></trkpt><trkpt lat="45.784707529396954" lon="12.050059745244663"><ele>126.66666666666667</ele><time>2026-04-06T08:35:23.999Z</time></trkpt><trkpt lat="45.784831839886785" lon="12.049903675137054"><ele>126.33333333333334</ele><time>2026-04-06T08:35:24.999Z</time></trkpt><trkpt lat="45.784968781503935" lon="12.049746587213594"><ele>126.0</ele><time>2026-04-06T08:35:25.999Z</time></trkpt><trkpt lat="45.78510517835368" lon="12.049571874712438"><ele>125.0</ele><time>2026-04-06T08:35:26.999Z</time></trkpt><trkpt lat="45.78523739812168" lon="12.049429818262471"><ele>124.0</ele><time>2026-04-06T08:35:27.999Z</time></trkpt><trkpt lat="45.78536506034972" lon="12.049291779011554"><ele>123.0</ele><time>2026-04-06T08:35:28.999Z</time></trkpt><trkpt lat="45.78550851712318" lon="12.049132909154597"><ele>123.0</ele><time>2026-04-06T08:35:29.999Z</time></trkpt><trkpt lat="45.78567562308079" lon="12.048949569776552"><ele>123.0</ele><time>2026-04-06T08:35:30.999Z</time></trkpt><trkpt lat="45.78583885658864" lon="12.048784785497741"><ele>123.0</ele><time>2026-04-06T08:35:31.999Z</time></trkpt><trkpt lat="45.78599166697725" lon="12.048621134827744"><ele>123.33333333333334</ele><time>2026-04-06T08:35:32.999Z</time></trkpt><trkpt lat="45.78613628857483" lon="12.048464719170608"><ele>123.66666666666667</ele><time>2026-04-06T08:35:33.999Z</time></trkpt><trkpt lat="45.78628503533653" lon="12.048302300077685"><ele>124.0</ele><time>2026-04-06T08:35:34.999Z</time></trkpt><trkpt lat="45.786438674975415" lon="12.048136468573258"><ele>124.0</ele><time>2026-04-06T08:35:35.999Z</time></trkpt><trkpt lat="45.786580355234584" lon="12.047984685909373"><ele>124.0</ele><time>2026-04-06T08:35:36.999Z</time></trkpt><trkpt lat="45.786722942698766" lon="12.047829589480896"><ele>124.0</ele><time>2026-04-06T08:35:37.999Z</time></trkpt><trkpt lat="45.786867202799655" lon="12.047669860212325"><ele>125.0</ele><time>2026-04-06T08:35:38.999Z</time></trkpt><trkpt lat="45.78701319753532" lon="12.047510906080833"><ele>126.0</ele><time>2026-04-06T08:35:39.999Z</time></trkpt><trkpt lat="45.78715143758888" lon="12.047361616853015"><ele>127.0</ele><time>2026-04-06T08:35:40.999Z</time></trkpt><trkpt lat="45.78729507637437" lon="12.047237054437119"><ele>127.0</ele><time>2026-04-06T08:35:41.999Z</time></trkpt><trkpt lat="45.787444208585114" lon="12.047076694702055"><ele>127.0</ele><time>2026-04-06T08:35:42.999Z</time></trkpt><trkpt lat="45.787607729593226" lon="12.046897446657429"><ele>127.0</ele><time>2026-04-06T08:35:43.999Z</time></trkpt><trkpt lat="45.78778682150508" lon="12.046701130081122"><ele>126.0</ele><time>2026-04-06T08:35:44.999Z</time></trkpt><trkpt lat="45.787972430547136" lon="12.046473334799975"><ele>125.0</ele><time>2026-04-06T08:35:45.999Z</time></trkpt><trkpt lat="45.78816689816772" lon="12.046255855325642"><ele>125.0</ele><time>2026-04-06T08:35:46.999Z</time></trkpt><trkpt lat="45.78836152181362" lon="12.046036406160733"><ele>125.0</ele><time>2026-04-06T08:35:47.999Z</time></trkpt><trkpt lat="45.78854578489231" lon="12.045829583394367"><ele>125.5</ele><time>2026-04-06T08:35:48.999Z</time></trkpt><trkpt lat="45.78877482266736" lon="12.045603570003806"><ele>126.0</ele><time>2026-04-06T08:35:49.999Z</time></trkpt><trkpt lat="45.78895935466308" lon="12.045370384446922"><ele>126.0</ele><time>2026-04-06T08:35:50.999Z</time></trkpt><trkpt lat="45.789161496330394" lon="12.045172061634283"><ele>126.0</ele><time>2026-04-06T08:35:51.999Z</time></trkpt><trkpt lat="45.78933927408715" lon="12.044921525618104"><ele>128.0</ele><time>2026-04-06T08:35:52.999Z</time></trkpt><trkpt lat="45.78954737059086" lon="12.044706008438471"><ele>130.0</ele><time>2026-04-06T08:35:53.999Z</time></trkpt><trkpt lat="45.78975501692565" lon="12.044490151144272"><ele>130.0</ele><time>2026-04-06T08:35:54.999Z</time></trkpt><trkpt lat="45.78994714755795" lon="12.044268033346134"><ele>130.0</ele><time>2026-04-06T08:35:55.999Z</time></trkpt><trkpt lat="45.79014816407244" lon="12.044071927478818"><ele>130.0</ele><time>2026-04-06T08:35:56.999Z</time></trkpt><trkpt lat="45.79034216135721" lon="12.043855905578075"><ele>130.0</ele><time>2026-04-06T08:35:57.999Z</time></trkpt><trkpt lat="45.79053561299859" lon="12.043641926000692"><ele>130.0</ele><time>2026-04-06T08:35:58.999Z</time></trkpt><trkpt lat="45.79072404238695" lon="12.043433829551066"><ele>130.0</ele><time>2026-04-06T08:35:59.999Z</time></trkpt><trkpt lat="45.79089547778774" lon="12.043215387200675"><ele>129.33333333333334</ele><time>2026-04-06T08:36:00.999Z</time></trkpt><trkpt lat="45.791065924284325" lon="12.043031600937553"><ele>128.66666666666666</ele><time>2026-04-06T08:36:01.999Z</time></trkpt><trkpt lat="45.79123252136474" lon="12.042858616276398"><ele>128.0</ele><time>2026-04-06T08:36:02.999Z</time></trkpt><trkpt lat="45.791406471890745" lon="12.042693025374085"><ele>128.0</ele><time>2026-04-06T08:36:03.998Z</time></trkpt><trkpt lat="45.79158681813056" lon="12.042528398292525"><ele>128.0</ele><time>2026-04-06T08:36:05Z</time></trkpt><trkpt lat="45.79175973935814" lon="12.042371442352929"><ele>128.0</ele><time>2026-04-06T08:36:06Z</time></trkpt><trkpt lat="45.79193452285481" lon="12.042221104161634"><ele>129.0</ele><time>2026-04-06T08:36:07Z</time></trkpt><trkpt lat="45.79213288488213" lon="12.042061256743988"><ele>130.0</ele><time>2026-04-06T08:36:08Z</time></trkpt><trkpt lat="45.792349279661146" lon="12.041896004427038"><ele>130.0</ele><time>2026-04-06T08:36:09Z</time></trkpt><trkpt lat="45.792565034604216" lon="12.041735886119296"><ele>130.0</ele><time>2026-04-06T08:36:10Z</time></trkpt><trkpt lat="45.79264818209892" lon="12.041663767322301"><ele>130.0</ele><time>2026-04-06T08:36:11Z</time></trkpt><trkpt lat="45.79281965312571" lon="12.041527899623002"><ele>130.33333333333334</ele><time>2026-04-06T08:36:12Z</time></trkpt><trkpt lat="45.79301130983693" lon="12.041401383494184"><ele>130.66666666666666</ele><time>2026-04-06T08:36:13Z</time></trkpt><trkpt lat="45.793180971533" lon="12.041249307463238"><ele>131.0</ele><time>2026-04-06T08:36:14Z</time></trkpt><trkpt lat="45.79334371984955" lon="12.041129186608368"><ele>131.0</ele><time>2026-04-06T08:36:15Z</time></trkpt><trkpt lat="45.79350281124631" lon="12.04100124350361"><ele>131.0</ele><time>2026-04-06T08:36:16Z</time></trkpt><trkpt lat="45.79367232275153" lon="12.040865630746698"><ele>131.0</ele><time>2026-04-06T08:36:17Z</time></trkpt><trkpt lat="45.79385400832033" lon="12.040728582612289"><ele>131.0</ele><time>2026-04-06T08:36:18Z</time></trkpt><trkpt lat="45.79404075266419" lon="12.040581422849918"><ele>131.0</ele><time>2026-04-06T08:36:19Z</time></trkpt><trkpt lat="45.79422043134438" lon="12.040454189204628"><ele>131.0</ele><time>2026-04-06T08:36:20Z</time></trkpt><trkpt lat="45.79438933105117" lon="12.040330663580697"><ele>131.0</ele><time>2026-04-06T08:36:21Z</time></trkpt><trkpt lat="45.79455092750674" lon="12.040210630245907"><ele>131.0</ele><time>2026-04-06T08:36:22Z</time></trkpt><trkpt lat="45.794710538837165" lon="12.040087596807336"><ele>131.0</ele><time>2026-04-06T08:36:23Z</time></trkpt><trkpt lat="45.794868216466966" lon="12.039961555852674"><ele>131.33333333333331</ele><time>2026-04-06T08:36:24Z</time></trkpt><trkpt lat="45.79502238160314" lon="12.039837694075601"><ele>131.66666666666666</ele><time>2026-04-06T08:36:25Z</time></trkpt><trkpt lat="45.79516687767136" lon="12.039707914130089"><ele>132.0</ele><time>2026-04-06T08:36:26Z</time></trkpt><trkpt lat="45.79530232028228" lon="12.039584519424302"><ele>132.0</ele><time>2026-04-06T08:36:27Z</time></trkpt><trkpt lat="45.795437675832346" lon="12.03945832044197"><ele>132.0</ele><time>2026-04-06T08:36:28Z</time></trkpt><trkpt lat="45.79557239148046" lon="12.039335658812933"><ele>132.0</ele><time>2026-04-06T08:36:29Z</time></trkpt><trkpt lat="45.7957108645941" lon="12.039205350743943"><ele>132.33333333333334</ele><time>2026-04-06T08:36:30Z</time></trkpt><trkpt lat="45.79584173598638" lon="12.039076530131105"><ele>132.66666666666669</ele><time>2026-04-06T08:36:31Z</time></trkpt><trkpt lat="45.79597358971541" lon="12.03895238742282"><ele>133.0</ele><time>2026-04-06T08:36:32Z</time></trkpt><trkpt lat="45.79609778475845" lon="12.038820600887815"><ele>133.0</ele><time>2026-04-06T08:36:33Z</time></trkpt><trkpt lat="45.79621999910131" lon="12.03869564480035"><ele>133.0</ele><time>2026-04-06T08:36:34Z</time></trkpt><trkpt lat="45.79634926477384" lon="12.038560725294275"><ele>133.0</ele><time>2026-04-06T08:36:35Z</time></trkpt><trkpt lat="45.7964826995319" lon="12.038418926526191"><ele>133.0</ele><time>2026-04-06T08:36:36Z</time></trkpt><trkpt lat="45.79661636462476" lon="12.03827798294537"><ele>133.0</ele><time>2026-04-06T08:36:37Z</time></trkpt><trkpt lat="45.796746742317886" lon="12.038144829869132"><ele>133.0</ele><time>2026-04-06T08:36:38Z</time></trkpt><trkpt lat="45.79687532086531" lon="12.03801411511707"><ele>132.75</ele><time>2026-04-06T08:36:39Z</time></trkpt><trkpt lat="45.797003567137786" lon="12.037882282139673"><ele>132.5</ele><time>2026-04-06T08:36:40Z</time></trkpt><trkpt lat="45.79712521119454" lon="12.03775712098795"><ele>132.25</ele><time>2026-04-06T08:36:41Z</time></trkpt><trkpt lat="45.79722991349719" lon="12.037650607425956"><ele>132.0</ele><time>2026-04-06T08:36:42Z</time></trkpt><trkpt lat="45.79732601592963" lon="12.037550129793393"><ele>132.0</ele><time>2026-04-06T08:36:43Z</time></trkpt><trkpt lat="45.79741877104516" lon="12.037455079566831"><ele>132.0</ele><time>2026-04-06T08:36:44Z</time></trkpt><trkpt lat="45.797507678968124" lon="12.037359932292466"><ele>132.0</ele><time>2026-04-06T08:36:45Z</time></trkpt><trkpt lat="45.79759860282255" lon="12.037263459601315"><ele>132.0</ele><time>2026-04-06T08:36:46Z</time></trkpt><trkpt lat="45.797697745917205" lon="12.037163680320795"><ele>132.0</ele><time>2026-04-06T08:36:47Z</time></trkpt><trkpt lat="45.79779926035877" lon="12.037056165674617"><ele>132.0</ele><time>2026-04-06T08:36:48Z</time></trkpt><trkpt lat="45.79789981693165" lon="12.03695106421327"><ele>132.0</ele><time>2026-04-06T08:36:49Z</time></trkpt><trkpt lat="45.7980023472596" lon="12.036849112692908"><ele>132.0</ele><time>2026-04-06T08:36:50Z</time></trkpt><trkpt lat="45.798107805161635" lon="12.036738846545981"><ele>132.33333333333334</ele><time>2026-04-06T08:36:50.999Z</time></trkpt><trkpt lat="45.798224469545225" lon="12.036619647806136"><ele>132.66666666666669</ele><time>2026-04-06T08:36:51.999Z</time></trkpt><trkpt lat="45.79835032564645" lon="12.036491232304446"><ele>133.0</ele><time>2026-04-06T08:36:52.999Z</time></trkpt><trkpt lat="45.798483040718224" lon="12.036361686422312"><ele>133.66666666666669</ele><time>2026-04-06T08:36:53.999Z</time></trkpt><trkpt lat="45.79861620465378" lon="12.036207614187685"><ele>134.33333333333334</ele><time>2026-04-06T08:36:54.999Z</time></trkpt><trkpt lat="45.79874284845032" lon="12.036065005322556"><ele>135.0</ele><time>2026-04-06T08:36:55.999Z</time></trkpt><trkpt lat="45.79887209219293" lon="12.03593726013563"><ele>135.0</ele><time>2026-04-06T08:36:56.999Z</time></trkpt><trkpt lat="45.798994736578415" lon="12.035806368073267"><ele>135.0</ele><time>2026-04-06T08:36:57.999Z</time></trkpt><trkpt lat="45.79911720983051" lon="12.035666486854739"><ele>135.0</ele><time>2026-04-06T08:36:58.999Z</time></trkpt><trkpt lat="45.7992437177556" lon="12.035515492606764"><ele>135.33333333333334</ele><time>2026-04-06T08:36:59.999Z</time></trkpt><trkpt lat="45.79937452474722" lon="12.0353580835642"><ele>135.66666666666669</ele><time>2026-04-06T08:37:00.999Z</time></trkpt><trkpt lat="45.79950599072074" lon="12.035188338810203"><ele>136.0</ele><time>2026-04-06T08:37:01.999Z</time></trkpt><trkpt lat="45.799641754971944" lon="12.035009234858421"><ele>134.66666666666669</ele><time>2026-04-06T08:37:02.999Z</time></trkpt><trkpt lat="45.79978841068202" lon="12.034852456464483"><ele>133.33333333333334</ele><time>2026-04-06T08:37:03.999Z</time></trkpt><trkpt lat="45.79992482477389" lon="12.034650024437024"><ele>132.0</ele><time>2026-04-06T08:37:04.999Z</time></trkpt><trkpt lat="45.800064211336284" lon="12.034459648298766"><ele>132.66666666666666</ele><time>2026-04-06T08:37:05.999Z</time></trkpt><trkpt lat="45.80018797890323" lon="12.034287445335485"><ele>133.33333333333331</ele><time>2026-04-06T08:37:06.999Z</time></trkpt><trkpt lat="45.80030514124071" lon="12.03411296980849"><ele>134.0</ele><time>2026-04-06T08:37:07.999Z</time></trkpt><trkpt lat="45.80041993828729" lon="12.033932984009201"><ele>134.66666666666666</ele><time>2026-04-06T08:37:08.999Z</time></trkpt><trkpt lat="45.80054292707456" lon="12.033738903588214"><ele>135.33333333333334</ele><time>2026-04-06T08:37:09.999Z</time></trkpt><trkpt lat="45.80066371129219" lon="12.033547130050344"><ele>136.0</ele><time>2026-04-06T08:37:10.999Z</time></trkpt><trkpt lat="45.80078346312632" lon="12.033358864996874"><ele>135.66666666666669</ele><time>2026-04-06T08:37:11.999Z</time></trkpt><trkpt lat="45.80089242501605" lon="12.03317965036732"><ele>135.33333333333334</ele><time>2026-04-06T08:37:12.999Z</time></trkpt><trkpt lat="45.80100507217116" lon="12.032999752161178"><ele>135.0</ele><time>2026-04-06T08:37:13.999Z</time></trkpt><trkpt lat="45.80112531149295" lon="12.032807774845322"><ele>135.33333333333334</ele><time>2026-04-06T08:37:14.999Z</time></trkpt><trkpt lat="45.801247868217345" lon="12.032608307052815"><ele>135.66666666666669</ele><time>2026-04-06T08:37:15.999Z</time></trkpt><trkpt lat="45.80137732459064" lon="12.032403402760764"><ele>136.0</ele><time>2026-04-06T08:37:16.999Z</time></trkpt><trkpt lat="45.80150873363048" lon="12.032203150020337"><ele>136.0</ele><time>2026-04-06T08:37:17.999Z</time></trkpt><trkpt lat="45.8016377042175" lon="12.032012657158626"><ele>136.0</ele><time>2026-04-06T08:37:18.999Z</time></trkpt><trkpt lat="45.80176500135207" lon="12.03180938454313"><ele>136.0</ele><time>2026-04-06T08:37:19.999Z</time></trkpt><trkpt lat="45.801890078772864" lon="12.031609901154004"><ele>136.66666666666669</ele><time>2026-04-06T08:37:20.999Z</time></trkpt><trkpt lat="45.802009024740634" lon="12.031423438024806"><ele>137.33333333333334</ele><time>2026-04-06T08:37:21.999Z</time></trkpt><trkpt lat="45.80212508971031" lon="12.031236830564664"><ele>138.0</ele><time>2026-04-06T08:37:22.999Z</time></trkpt><trkpt lat="45.802240259314445" lon="12.031048774796314"><ele>138.0</ele><time>2026-04-06T08:37:23.999Z</time></trkpt><trkpt lat="45.80235569669076" lon="12.030864274683715"><ele>138.0</ele><time>2026-04-06T08:37:24.999Z</time></trkpt><trkpt lat="45.80247109104901" lon="12.030685745682309"><ele>138.0</ele><time>2026-04-06T08:37:25.999Z</time></trkpt><trkpt lat="45.80258037867609" lon="12.030509915417882"><ele>136.66666666666666</ele><time>2026-04-06T08:37:26.999Z</time></trkpt><trkpt lat="45.80268351700171" lon="12.030350609189071"><ele>135.33333333333331</ele><time>2026-04-06T08:37:27.999Z</time></trkpt><trkpt lat="45.802783824062146" lon="12.03019086811588"><ele>134.0</ele><time>2026-04-06T08:37:28.999Z</time></trkpt><trkpt lat="45.802898039470925" lon="12.030016375385598"><ele>134.66666666666666</ele><time>2026-04-06T08:37:29.999Z</time></trkpt><trkpt lat="45.80301515386814" lon="12.029831108684501"><ele>135.33333333333334</ele><time>2026-04-06T08:37:30.999Z</time></trkpt><trkpt lat="45.803132980847415" lon="12.029646278815818"><ele>136.0</ele><time>2026-04-06T08:37:31.999Z</time></trkpt><trkpt lat="45.80324920249779" lon="12.029464055566732"><ele>136.0</ele><time>2026-04-06T08:37:32.999Z</time></trkpt><trkpt lat="45.8033658424833" lon="12.029282846409235"><ele>136.0</ele><time>2026-04-06T08:37:33.999Z</time></trkpt><trkpt lat="45.803482100215525" lon="12.029100309387463"><ele>136.0</ele><time>2026-04-06T08:37:34.999Z</time></trkpt><trkpt lat="45.803598990435965" lon="12.028915143568485"><ele>135.66666666666669</ele><time>2026-04-06T08:37:35.999Z</time></trkpt><trkpt lat="45.80370671541082" lon="12.028746026648156"><ele>135.33333333333334</ele><time>2026-04-06T08:37:36.999Z</time></trkpt><trkpt lat="45.80380978480223" lon="12.028574033446807"><ele>135.0</ele><time>2026-04-06T08:37:37.999Z</time></trkpt><trkpt lat="45.80391504623472" lon="12.028404752057599"><ele>135.6</ele><time>2026-04-06T08:37:38.999Z</time></trkpt><trkpt lat="45.804017844399574" lon="12.028244440669578"><ele>136.2</ele><time>2026-04-06T08:37:39.999Z</time></trkpt><trkpt lat="45.80410402972305" lon="12.028107587650897"><ele>136.8</ele><time>2026-04-06T08:37:40.999Z</time></trkpt><trkpt lat="45.80417051290217" lon="12.028006042012661"><ele>137.4</ele><time>2026-04-06T08:37:41.999Z</time></trkpt><trkpt lat="45.80421900469997" lon="12.02793062749596"><ele>138.0</ele><time>2026-04-06T08:37:42.999Z</time></trkpt><trkpt lat="45.80428921582329" lon="12.027812708243054"><ele>138.0</ele><time>2026-04-06T08:37:44.999Z</time></trkpt><trkpt lat="45.8043361771895" lon="12.02773581087652"><ele>138.0</ele><time>2026-04-06T08:37:46.999Z</time></trkpt><trkpt lat="45.80438632510194" lon="12.027647272316187"><ele>138.0</ele><time>2026-04-06T08:37:49.999Z</time></trkpt><trkpt lat="45.80442956760251" lon="12.027575378724565"><ele>138.0</ele><time>2026-04-06T08:37:52.999Z</time></trkpt><trkpt lat="45.804482441704245" lon="12.027495945509001"><ele>138.0</ele><time>2026-04-06T08:37:56.999Z</time></trkpt><trkpt lat="45.80453981082397" lon="12.027374536146379"><ele>138.0</ele><time>2026-04-06T08:37:58.999Z</time></trkpt><trkpt lat="45.80460440435144" lon="12.027302210462176"><ele>137.8</ele><time>2026-04-06T08:37:59.999Z</time></trkpt><trkpt lat="45.80467102733911" lon="12.027196053898642"><ele>137.60000000000002</ele><time>2026-04-06T08:38:00.999Z</time></trkpt><trkpt lat="45.80473012436788" lon="12.027071482111253"><ele>137.39999999999998</ele><time>2026-04-06T08:38:01.999Z</time></trkpt><trkpt lat="45.80481163874538" lon="12.026968157337224"><ele>137.2</ele><time>2026-04-06T08:38:02.999Z</time></trkpt><trkpt lat="45.804898244574815" lon="12.026827848007548"><ele>137.0</ele><time>2026-04-06T08:38:03.999Z</time></trkpt><trkpt lat="45.80499033947126" lon="12.026678645875103"><ele>136.75</ele><time>2026-04-06T08:38:04.999Z</time></trkpt><trkpt lat="45.805077987933764" lon="12.02653664737166"><ele>136.5</ele><time>2026-04-06T08:38:05.999Z</time></trkpt><trkpt lat="45.80516284110232" lon="12.026399177504642"><ele>136.25</ele><time>2026-04-06T08:38:06.999Z</time></trkpt><trkpt lat="45.805243466304994" lon="12.026268557312552"><ele>136.0</ele><time>2026-04-06T08:38:07.999Z</time></trkpt><trkpt lat="45.80530888076402" lon="12.026163165953756"><ele>136.0</ele><time>2026-04-06T08:38:08.999Z</time></trkpt><trkpt lat="45.80536428844647" lon="12.026073858327319"><ele>136.0</ele><time>2026-04-06T08:38:09.999Z</time></trkpt><trkpt lat="45.80541850684305" lon="12.025986467607103"><ele>136.0</ele><time>2026-04-06T08:38:11Z</time></trkpt><trkpt lat="45.8054728885009" lon="12.025898813748913"><ele>136.0</ele><time>2026-04-06T08:38:12Z</time></trkpt><trkpt lat="45.805528540450986" lon="12.02580911239956"><ele>136.0</ele><time>2026-04-06T08:38:13Z</time></trkpt><trkpt lat="45.80558682259069" lon="12.025714627930338"><ele>136.0</ele><time>2026-04-06T08:38:14Z</time></trkpt><trkpt lat="45.80563885360771" lon="12.025629848614399"><ele>136.0</ele><time>2026-04-06T08:38:15Z</time></trkpt><trkpt lat="45.80570843548076" lon="12.0255162794913"><ele>136.0</ele><time>2026-04-06T08:38:17Z</time></trkpt><trkpt lat="45.805750823690744" lon="12.025412566585363"><ele>136.0</ele><time>2026-04-06T08:38:19Z</time></trkpt><trkpt lat="45.80584670076796" lon="12.025287799849803"><ele>136.0</ele><time>2026-04-06T08:38:21Z</time></trkpt><trkpt lat="45.80591063588288" lon="12.025185578125335"><ele>136.0</ele><time>2026-04-06T08:38:22Z</time></trkpt><trkpt lat="45.80598375921592" lon="12.025035213006683"><ele>136.5</ele><time>2026-04-06T08:38:23Z</time></trkpt><trkpt lat="45.80607768443288" lon="12.024909957252646"><ele>137.0</ele><time>2026-04-06T08:38:24Z</time></trkpt><trkpt lat="45.8061713182758" lon="12.024788371817"><ele>137.5</ele><time>2026-04-06T08:38:25Z</time></trkpt><trkpt lat="45.80626374422046" lon="12.02464087529431"><ele>138.0</ele><time>2026-04-06T08:38:26Z</time></trkpt><trkpt lat="45.80634226494332" lon="12.024493325336994"><ele>138.0</ele><time>2026-04-06T08:38:27Z</time></trkpt><trkpt lat="45.80641443561451" lon="12.024363161377275"><ele>138.0</ele><time>2026-04-06T08:38:28Z</time></trkpt><trkpt lat="45.80647868781982" lon="12.024252757328362"><ele>138.0</ele><time>2026-04-06T08:38:29Z</time></trkpt><trkpt lat="45.80654210289827" lon="12.024150236464937"><ele>138.0</ele><time>2026-04-06T08:38:30Z</time></trkpt><trkpt lat="45.806609744445076" lon="12.024040607012324"><ele>138.0</ele><time>2026-04-06T08:38:31Z</time></trkpt><trkpt lat="45.80667818669911" lon="12.02392695603064"><ele>138.0</ele><time>2026-04-06T08:38:32Z</time></trkpt><trkpt lat="45.806751958498765" lon="12.023809571563044"><ele>138.0</ele><time>2026-04-06T08:38:33Z</time></trkpt><trkpt lat="45.80683248152043" lon="12.023683139276814"><ele>138.0</ele><time>2026-04-06T08:38:34Z</time></trkpt><trkpt lat="45.806914651963474" lon="12.023542914882857"><ele>138.0</ele><time>2026-04-06T08:38:35Z</time></trkpt><trkpt lat="45.8070087759535" lon="12.023425566311602"><ele>138.0</ele><time>2026-04-06T08:38:36Z</time></trkpt><trkpt lat="45.807078798280024" lon="12.023312753957432"><ele>138.0</ele><time>2026-04-06T08:38:37Z</time></trkpt><trkpt lat="45.80714870123283" lon="12.02320014463355"><ele>138.0</ele><time>2026-04-06T08:38:38Z</time></trkpt><trkpt lat="45.807222011209056" lon="12.023082046799951"><ele>138.0</ele><time>2026-04-06T08:38:39Z</time></trkpt><trkpt lat="45.80727531310116" lon="12.02294757837957"><ele>138.0</ele><time>2026-04-06T08:38:40Z</time></trkpt><trkpt lat="45.80734504172272" lon="12.022835275238517"><ele>138.0</ele><time>2026-04-06T08:38:41Z</time></trkpt><trkpt lat="45.80742571898834" lon="12.022706686562806"><ele>138.0</ele><time>2026-04-06T08:38:42Z</time></trkpt><trkpt lat="45.80751860095995" lon="12.022565054342902"><ele>138.0</ele><time>2026-04-06T08:38:43Z</time></trkpt><trkpt lat="45.80759358426101" lon="12.0224421075867"><ele>138.0</ele><time>2026-04-06T08:38:44Z</time></trkpt><trkpt lat="45.80766946727834" lon="12.02231610278313"><ele>138.0</ele><time>2026-04-06T08:38:45Z</time></trkpt><trkpt lat="45.80775446055715" lon="12.022182641208596"><ele>138.0</ele><time>2026-04-06T08:38:46Z</time></trkpt><trkpt lat="45.80784782327677" lon="12.022038845885701"><ele>138.0</ele><time>2026-04-06T08:38:47Z</time></trkpt><trkpt lat="45.80794240876351" lon="12.02189429461889"><ele>138.0</ele><time>2026-04-06T08:38:48Z</time></trkpt><trkpt lat="45.808035145183005" lon="12.021750652134845"><ele>137.33333333333334</ele><time>2026-04-06T08:38:49Z</time></trkpt><trkpt lat="45.80813901866154" lon="12.021588345592432"><ele>136.66666666666669</ele><time>2026-04-06T08:38:50Z</time></trkpt><trkpt lat="45.80826114509382" lon="12.02139050580026"><ele>136.0</ele><time>2026-04-06T08:38:51Z</time></trkpt><trkpt lat="45.808387738045" lon="12.02117967810247"><ele>135.66666666666669</ele><time>2026-04-06T08:38:52Z</time></trkpt><trkpt lat="45.80851989491572" lon="12.0209603534442"><ele>135.33333333333334</ele><time>2026-04-06T08:38:54Z</time></trkpt><trkpt lat="45.80862132949931" lon="12.020804995359374"><ele>135.0</ele><time>2026-04-06T08:38:55Z</time></trkpt><trkpt lat="45.8087164692705" lon="12.020650655953856"><ele>135.75</ele><time>2026-04-06T08:38:56Z</time></trkpt><trkpt lat="45.80880745012379" lon="12.020494206640906"><ele>136.5</ele><time>2026-04-06T08:38:57Z</time></trkpt><trkpt lat="45.808900518720634" lon="12.020347650599483"><ele>137.25</ele><time>2026-04-06T08:38:58Z</time></trkpt><trkpt lat="45.808991779670386" lon="12.020191963611246"><ele>138.0</ele><time>2026-04-06T08:38:59Z</time></trkpt><trkpt lat="45.809086426538826" lon="12.020051477350536"><ele>138.0</ele><time>2026-04-06T08:39:00Z</time></trkpt><trkpt lat="45.80917563474224" lon="12.019916185648281"><ele>138.0</ele><time>2026-04-06T08:39:01Z</time></trkpt><trkpt lat="45.80926337248415" lon="12.019793003049699"><ele>138.0</ele><time>2026-04-06T08:39:02Z</time></trkpt><trkpt lat="45.80934766815331" lon="12.01967645648858"><ele>138.0</ele><time>2026-04-06T08:39:03Z</time></trkpt><trkpt lat="45.80942672365438" lon="12.019571990786185"><ele>138.20000000000002</ele><time>2026-04-06T08:39:04Z</time></trkpt><trkpt lat="45.80950675301106" lon="12.019474344088787"><ele>138.4</ele><time>2026-04-06T08:39:05Z</time></trkpt><trkpt lat="45.8095757495836" lon="12.019381776654281"><ele>138.60000000000002</ele><time>2026-04-06T08:39:06Z</time></trkpt><trkpt lat="45.80963877502205" lon="12.019294233059314"><ele>138.8</ele><time>2026-04-06T08:39:07Z</time></trkpt><trkpt lat="45.80970265784635" lon="12.019218378331514"><ele>139.0</ele><time>2026-04-06T08:39:08Z</time></trkpt><trkpt lat="45.80977848376624" lon="12.01914754371814"><ele>139.0</ele><time>2026-04-06T08:39:09.999Z</time></trkpt><trkpt lat="45.80985869752902" lon="12.01902991467777"><ele>139.0</ele><time>2026-04-06T08:39:20.999Z</time></trkpt><trkpt lat="45.80995145302272" lon="12.0189391007461"><ele>139.0</ele><time>2026-04-06T08:39:22.999Z</time></trkpt><trkpt lat="45.81000568646379" lon="12.01887726742659"><ele>139.0</ele><time>2026-04-06T08:39:23.999Z</time></trkpt><trkpt lat="45.810058782995654" lon="12.018826723808303"><ele>139.0</ele><time>2026-04-06T08:39:24.999Z</time></trkpt><trkpt lat="45.81012257547538" lon="12.01877043586542"><ele>139.0</ele><time>2026-04-06T08:39:25.999Z</time></trkpt><trkpt lat="45.81017937840486" lon="12.018725020402584"><ele>139.2</ele><time>2026-04-06T08:39:26.999Z</time></trkpt><trkpt lat="45.81028021961709" lon="12.01862877398312"><ele>139.4</ele><time>2026-04-06T08:39:28.999Z</time></trkpt><trkpt lat="45.81039021810467" lon="12.018527299384365"><ele>139.6</ele><time>2026-04-06T08:39:30.999Z</time></trkpt><trkpt lat="45.81045357623984" lon="12.018481780011511"><ele>139.8</ele><time>2026-04-06T08:39:31.999Z</time></trkpt><trkpt lat="45.810515932209945" lon="12.018431077225086"><ele>140.0</ele><time>2026-04-06T08:39:32.999Z</time></trkpt><trkpt lat="45.810577789063686" lon="12.018382637074152"><ele>140.0</ele><time>2026-04-06T08:39:33.999Z</time></trkpt><trkpt lat="45.81064168312162" lon="12.018336095098514"><ele>140.0</ele><time>2026-04-06T08:39:34.999Z</time></trkpt><trkpt lat="45.810711280289915" lon="12.018287962441166"><ele>140.0</ele><time>2026-04-06T08:39:35.999Z</time></trkpt><trkpt lat="45.810783688447934" lon="12.018232123516537"><ele>140.0</ele><time>2026-04-06T08:39:36.999Z</time></trkpt><trkpt lat="45.81085510065274" lon="12.018178151263037"><ele>140.0</ele><time>2026-04-06T08:39:37.999Z</time></trkpt><trkpt lat="45.810914650357255" lon="12.018135766852161"><ele>140.0</ele><time>2026-04-06T08:39:38.999Z</time></trkpt><trkpt lat="45.8110009951418" lon="12.018061131931399"><ele>140.0</ele><time>2026-04-06T08:39:40.999Z</time></trkpt><trkpt lat="45.811088713526956" lon="12.018008431362265"><ele>140.0</ele><time>2026-04-06T08:39:42.999Z</time></trkpt><trkpt lat="45.81119848433384" lon="12.01792656853266"><ele>140.0</ele><time>2026-04-06T08:39:44.999Z</time></trkpt><trkpt lat="45.81126799931053" lon="12.017874727667799"><ele>140.0</ele><time>2026-04-06T08:39:45.999Z</time></trkpt><trkpt lat="45.81133671977762" lon="12.017823479336851"><ele>140.0</ele><time>2026-04-06T08:39:46.999Z</time></trkpt><trkpt lat="45.81141719672415" lon="12.017744716068536"><ele>140.0</ele><time>2026-04-06T08:39:48.999Z</time></trkpt><trkpt lat="45.81149575511403" lon="12.017703683427863"><ele>140.0</ele><time>2026-04-06T08:40:01.999Z</time></trkpt><trkpt lat="45.81161020862609" lon="12.01761745885489"><ele>140.0</ele><time>2026-04-06T08:40:03.999Z</time></trkpt><trkpt lat="45.81170002944409" lon="12.017550501457785"><ele>140.0</ele><time>2026-04-06T08:40:04.999Z</time></trkpt><trkpt lat="45.8117845624008" lon="12.017487254487353"><ele>140.0</ele><time>2026-04-06T08:40:05.999Z</time></trkpt><trkpt lat="45.81186001028153" lon="12.017430804878146"><ele>139.8</ele><time>2026-04-06T08:40:06.999Z</time></trkpt><trkpt lat="45.81192021981952" lon="12.017385756537104"><ele>139.6</ele><time>2026-04-06T08:40:07.999Z</time></trkpt><trkpt lat="45.8120179037322" lon="12.017312402616193"><ele>139.4</ele><time>2026-04-06T08:40:09.999Z</time></trkpt><trkpt lat="45.81213628276847" lon="12.017223446439958"><ele>139.2</ele><time>2026-04-06T08:40:11.999Z</time></trkpt><trkpt lat="45.812212537556505" lon="12.017166144639793"><ele>139.0</ele><time>2026-04-06T08:40:12.999Z</time></trkpt><trkpt lat="45.81230273206877" lon="12.01709836780516"><ele>139.0</ele><time>2026-04-06T08:40:13.999Z</time></trkpt><trkpt lat="45.81238275512657" lon="12.017038234278472"><ele>139.0</ele><time>2026-04-06T08:40:14.999Z</time></trkpt><trkpt lat="45.81245604755724" lon="12.016983158524589"><ele>139.0</ele><time>2026-04-06T08:40:15.999Z</time></trkpt><trkpt lat="45.812527325272086" lon="12.016929596763177"><ele>139.0</ele><time>2026-04-06T08:40:17Z</time></trkpt><trkpt lat="45.812603184967024" lon="12.016872593682585"><ele>139.0</ele><time>2026-04-06T08:40:18Z</time></trkpt><trkpt lat="45.812677860630565" lon="12.016816478484532"><ele>139.0</ele><time>2026-04-06T08:40:19Z</time></trkpt><trkpt lat="45.81274129062085" lon="12.01674229477238"><ele>139.0</ele><time>2026-04-06T08:40:20Z</time></trkpt><trkpt lat="45.81281449985999" lon="12.016687824928033"><ele>139.0</ele><time>2026-04-06T08:40:21Z</time></trkpt><trkpt lat="45.812895625721005" lon="12.016653899885641"><ele>139.0</ele><time>2026-04-06T08:40:22Z</time></trkpt><trkpt lat="45.81296910728159" lon="12.016599266620831"><ele>139.0</ele><time>2026-04-06T08:40:23Z</time></trkpt><trkpt lat="45.813036196892895" lon="12.01654938573022"><ele>139.0</ele><time>2026-04-06T08:40:24Z</time></trkpt><trkpt lat="45.8130995876875" lon="12.016502254928222"><ele>139.0</ele><time>2026-04-06T08:40:25Z</time></trkpt><trkpt lat="45.813154337221164" lon="12.016436813659594"><ele>139.0</ele><time>2026-04-06T08:40:26Z</time></trkpt><trkpt lat="45.81322182950476" lon="12.016394658231716"><ele>139.0</ele><time>2026-04-06T08:40:27Z</time></trkpt><trkpt lat="45.81328475274084" lon="12.01635131999748"><ele>139.0</ele><time>2026-04-06T08:40:28Z</time></trkpt><trkpt lat="45.81334615061885" lon="12.016316728285352"><ele>139.0</ele><time>2026-04-06T08:40:29Z</time></trkpt><trkpt lat="45.813441118521006" lon="12.016273067814872"><ele>139.0</ele><time>2026-04-06T08:40:31Z</time></trkpt><trkpt lat="45.81350317806643" lon="12.01625206508588"><ele>139.0</ele><time>2026-04-06T08:40:34Z</time></trkpt><trkpt lat="45.81358257803737" lon="12.016241346626988"><ele>139.5</ele><time>2026-04-06T08:40:45Z</time></trkpt><trkpt lat="45.81365304721427" lon="12.016260865503734"><ele>140.0</ele><time>2026-04-06T08:40:47Z</time></trkpt><trkpt lat="45.81372287153667" lon="12.016276996373145"><ele>140.5</ele><time>2026-04-06T08:40:48Z</time></trkpt><trkpt lat="45.81378738500989" lon="12.01630851630424"><ele>141.0</ele><time>2026-04-06T08:40:49Z</time></trkpt><trkpt lat="45.81390077816296" lon="12.016296839888954"><ele>141.5</ele><time>2026-04-06T08:40:51Z</time></trkpt><trkpt lat="45.813996022314186" lon="12.016248283438163"><ele>142.0</ele><time>2026-04-06T08:40:53Z</time></trkpt><trkpt lat="45.814063100846546" lon="12.016161888498317"><ele>142.0</ele><time>2026-04-06T08:40:55Z</time></trkpt><trkpt lat="45.81411911353776" lon="12.01606220780747"><ele>142.0</ele><time>2026-04-06T08:40:57Z</time></trkpt><trkpt lat="45.814146028760106" lon="12.015934854020056"><ele>142.0</ele><time>2026-04-06T08:40:59Z</time></trkpt><trkpt lat="45.81414099965589" lon="12.01576164757121"><ele>142.0</ele><time>2026-04-06T08:41:01Z</time></trkpt><trkpt lat="45.81411149638013" lon="12.01566412646077"><ele>142.0</ele><time>2026-04-06T08:41:02Z</time></trkpt><trkpt lat="45.81406362021115" lon="12.015574110357562"><ele>142.0</ele><time>2026-04-06T08:41:03Z</time></trkpt><trkpt lat="45.81399822713383" lon="12.015508985217632"><ele>142.0</ele><time>2026-04-06T08:41:04Z</time></trkpt><trkpt lat="45.81392432915188" lon="12.015441898517542"><ele>142.0</ele><time>2026-04-06T08:41:05Z</time></trkpt><trkpt lat="45.813847024146035" lon="12.015349848165307"><ele>142.0</ele><time>2026-04-06T08:41:06Z</time></trkpt><trkpt lat="45.81377508777525" lon="12.015224338916168"><ele>142.0</ele><time>2026-04-06T08:41:07Z</time></trkpt><trkpt lat="45.81369310347871" lon="12.01510315078865"><ele>142.0</ele><time>2026-04-06T08:41:08Z</time></trkpt><trkpt lat="45.81369670531012" lon="12.014901497051465"><ele>142.0</ele><time>2026-04-06T08:41:08.999Z</time></trkpt><trkpt lat="45.81368278474603" lon="12.014724148188867"><ele>142.0</ele><time>2026-04-06T08:41:09.999Z</time></trkpt><trkpt lat="45.813699859281336" lon="12.014534671013882"><ele>142.0</ele><time>2026-04-06T08:41:10.999Z</time></trkpt><trkpt lat="45.81370846958318" lon="12.014339906336325"><ele>142.0</ele><time>2026-04-06T08:41:11.999Z</time></trkpt><trkpt lat="45.81370270100301" lon="12.014158756359532"><ele>142.0</ele><time>2026-04-06T08:41:12.999Z</time></trkpt><trkpt lat="45.81371002918434" lon="12.013993745063338"><ele>142.0</ele><time>2026-04-06T08:41:13.999Z</time></trkpt><trkpt lat="45.8137133236276" lon="12.013842596608187"><ele>142.0</ele><time>2026-04-06T08:41:14.999Z</time></trkpt><trkpt lat="45.81371173888024" lon="12.013700300136305"><ele>142.0</ele><time>2026-04-06T08:41:15.999Z</time></trkpt><trkpt lat="45.81371757637009" lon="12.013570318958928"><ele>142.2</ele><time>2026-04-06T08:41:16.999Z</time></trkpt><trkpt lat="45.81374233759655" lon="12.01345774405931"><ele>142.39999999999998</ele><time>2026-04-06T08:41:17.999Z</time></trkpt><trkpt lat="45.813780005562926" lon="12.013342553190274"><ele>142.60000000000002</ele><time>2026-04-06T08:41:18.999Z</time></trkpt><trkpt lat="45.81383000119929" lon="12.013204764240042"><ele>142.8</ele><time>2026-04-06T08:41:19.999Z</time></trkpt><trkpt lat="45.81389047760601" lon="12.013067649295719"><ele>143.0</ele><time>2026-04-06T08:41:20.999Z</time></trkpt><trkpt lat="45.81396910835152" lon="12.012955461973732"><ele>143.20000000000002</ele><time>2026-04-06T08:41:21.999Z</time></trkpt><trkpt lat="45.81404553250664" lon="12.012860906985539"><ele>143.4</ele><time>2026-04-06T08:41:22.999Z</time></trkpt><trkpt lat="45.81416899499631" lon="12.012838721738571"><ele>143.60000000000002</ele><time>2026-04-06T08:41:23.999Z</time></trkpt><trkpt lat="45.81427786190119" lon="12.01281730743591"><ele>143.8</ele><time>2026-04-06T08:41:24.999Z</time></trkpt><trkpt lat="45.81439171147461" lon="12.012813587013325"><ele>144.0</ele><time>2026-04-06T08:41:25.999Z</time></trkpt><trkpt lat="45.81450999235009" lon="12.012818756263037"><ele>143.25</ele><time>2026-04-06T08:41:26.999Z</time></trkpt><trkpt lat="45.814641043660004" lon="12.012791860182269"><ele>142.5</ele><time>2026-04-06T08:41:27.999Z</time></trkpt><trkpt lat="45.8147618801448" lon="12.012780541148816"><ele>141.75</ele><time>2026-04-06T08:41:28.999Z</time></trkpt><trkpt lat="45.814875702163995" lon="12.012771619402235"><ele>141.0</ele><time>2026-04-06T08:41:29.999Z</time></trkpt><trkpt lat="45.81498998148052" lon="12.01274474745295"><ele>141.0</ele><time>2026-04-06T08:41:30.999Z</time></trkpt><trkpt lat="45.81511068704343" lon="12.012717993969993"><ele>141.0</ele><time>2026-04-06T08:41:31.999Z</time></trkpt><trkpt lat="45.81523874808489" lon="12.012702446389698"><ele>141.0</ele><time>2026-04-06T08:41:32.999Z</time></trkpt><trkpt lat="45.815370269250074" lon="12.012688400599657"><ele>141.0</ele><time>2026-04-06T08:41:33.999Z</time></trkpt><trkpt lat="45.815496877154736" lon="12.01266671059039"><ele>141.75</ele><time>2026-04-06T08:41:34.999Z</time></trkpt><trkpt lat="45.815613736945636" lon="12.012654313833854"><ele>142.5</ele><time>2026-04-06T08:41:35.999Z</time></trkpt><trkpt lat="45.81573450842837" lon="12.012642457817826"><ele>143.25</ele><time>2026-04-06T08:41:36.999Z</time></trkpt><trkpt lat="45.81586001286369" lon="12.012622879579688"><ele>144.0</ele><time>2026-04-06T08:41:37.999Z</time></trkpt><trkpt lat="45.81598503343612" lon="12.012602963224975"><ele>144.0</ele><time>2026-04-06T08:41:38.999Z</time></trkpt><trkpt lat="45.81610059769632" lon="12.012589827751588"><ele>144.0</ele><time>2026-04-06T08:41:39.999Z</time></trkpt><trkpt lat="45.81621706805191" lon="12.012580224276538"><ele>144.0</ele><time>2026-04-06T08:41:40.999Z</time></trkpt><trkpt lat="45.81633105933954" lon="12.012566459705742"><ele>144.0</ele><time>2026-04-06T08:41:41.999Z</time></trkpt><trkpt lat="45.816446021742195" lon="12.012550117665938"><ele>144.0</ele><time>2026-04-06T08:41:42.999Z</time></trkpt><trkpt lat="45.816560515241314" lon="12.012535384459268"><ele>144.0</ele><time>2026-04-06T08:41:43.999Z</time></trkpt><trkpt lat="45.81668069608896" lon="12.012517402873492"><ele>144.0</ele><time>2026-04-06T08:41:44.999Z</time></trkpt><trkpt lat="45.816803394006556" lon="12.012503758778683"><ele>144.0</ele><time>2026-04-06T08:41:45.999Z</time></trkpt><trkpt lat="45.81692655491896" lon="12.012490274662373"><ele>143.75</ele><time>2026-04-06T08:41:46.999Z</time></trkpt><trkpt lat="45.81705125647678" lon="12.012479619885248"><ele>143.5</ele><time>2026-04-06T08:41:47.999Z</time></trkpt><trkpt lat="45.817175925209234" lon="12.012470378139861"><ele>143.25</ele><time>2026-04-06T08:41:48.999Z</time></trkpt><trkpt lat="45.81730117132289" lon="12.012454673212629"><ele>143.0</ele><time>2026-04-06T08:41:49.999Z</time></trkpt><trkpt lat="45.81744707221587" lon="12.012419842327706"><ele>143.0</ele><time>2026-04-06T08:41:51.999Z</time></trkpt><trkpt lat="45.81755633998619" lon="12.012407922349869"><ele>143.0</ele><time>2026-04-06T08:41:52.999Z</time></trkpt><trkpt lat="45.817686645515664" lon="12.012392157339608"><ele>143.0</ele><time>2026-04-06T08:41:53.999Z</time></trkpt><trkpt lat="45.81783405880977" lon="12.01236274968063"><ele>143.0</ele><time>2026-04-06T08:41:54.999Z</time></trkpt><trkpt lat="45.81798616380521" lon="12.012339329308865"><ele>143.0</ele><time>2026-04-06T08:41:55.999Z</time></trkpt><trkpt lat="45.818134962513895" lon="12.012330309932251"><ele>143.0</ele><time>2026-04-06T08:41:56.999Z</time></trkpt><trkpt lat="45.818280443575205" lon="12.012313317989738"><ele>143.0</ele><time>2026-04-06T08:41:57.999Z</time></trkpt><trkpt lat="45.81843404345798" lon="12.012290426334289"><ele>143.0</ele><time>2026-04-06T08:41:58.999Z</time></trkpt><trkpt lat="45.818583182365856" lon="12.012278292122549"><ele>144.0</ele><time>2026-04-06T08:41:59.999Z</time></trkpt><trkpt lat="45.81872401087273" lon="12.012271130284255"><ele>145.0</ele><time>2026-04-06T08:42:00.999Z</time></trkpt><trkpt lat="45.81886289179719" lon="12.012246389479996"><ele>146.0</ele><time>2026-04-06T08:42:01.999Z</time></trkpt><trkpt lat="45.819007426713696" lon="12.012217294476093"><ele>147.0</ele><time>2026-04-06T08:42:02.999Z</time></trkpt><trkpt lat="45.81915029319979" lon="12.012194078852861"><ele>147.0</ele><time>2026-04-06T08:42:03.999Z</time></trkpt><trkpt lat="45.81928315356586" lon="12.012177136137936"><ele>147.0</ele><time>2026-04-06T08:42:04.999Z</time></trkpt><trkpt lat="45.8194170696102" lon="12.012165350239528"><ele>147.0</ele><time>2026-04-06T08:42:05.999Z</time></trkpt><trkpt lat="45.81955811713576" lon="12.012143514469942"><ele>147.0</ele><time>2026-04-06T08:42:06.999Z</time></trkpt><trkpt lat="45.81970299549511" lon="12.012116072622884"><ele>147.33333333333334</ele><time>2026-04-06T08:42:07.999Z</time></trkpt><trkpt lat="45.81985134592991" lon="12.012094578863874"><ele>147.66666666666669</ele><time>2026-04-06T08:42:08.999Z</time></trkpt><trkpt lat="45.820000713500576" lon="12.01207869153735"><ele>148.0</ele><time>2026-04-06T08:42:09.999Z</time></trkpt><trkpt lat="45.82015252913844" lon="12.012068690536951"><ele>148.0</ele><time>2026-04-06T08:42:10.999Z</time></trkpt><trkpt lat="45.820309862855524" lon="12.012048792000124"><ele>148.0</ele><time>2026-04-06T08:42:11.999Z</time></trkpt><trkpt lat="45.820464645144575" lon="12.012027380924108"><ele>148.0</ele><time>2026-04-06T08:42:12.999Z</time></trkpt><trkpt lat="45.8206202116759" lon="12.012004762901181"><ele>148.0</ele><time>2026-04-06T08:42:13.999Z</time></trkpt><trkpt lat="45.820777203141866" lon="12.011981912297744"><ele>148.0</ele><time>2026-04-06T08:42:14.999Z</time></trkpt><trkpt lat="45.82094029093788" lon="12.011960971759152"><ele>148.0</ele><time>2026-04-06T08:42:15.999Z</time></trkpt><trkpt lat="45.82109690999313" lon="12.01194063338539"><ele>148.5</ele><time>2026-04-06T08:42:16.999Z</time></trkpt><trkpt lat="45.82123884478257" lon="12.011921779114752"><ele>149.0</ele><time>2026-04-06T08:42:17.999Z</time></trkpt><trkpt lat="45.82138318243402" lon="12.011898981398852"><ele>149.5</ele><time>2026-04-06T08:42:18.999Z</time></trkpt><trkpt lat="45.82152626483249" lon="12.011879930888915"><ele>150.0</ele><time>2026-04-06T08:42:19.999Z</time></trkpt><trkpt lat="45.82168395800869" lon="12.011864171621102"><ele>150.0</ele><time>2026-04-06T08:42:20.999Z</time></trkpt><trkpt lat="45.821856694205486" lon="12.011835742181727"><ele>150.0</ele><time>2026-04-06T08:42:22Z</time></trkpt><trkpt lat="45.822034394157654" lon="12.01180837169907"><ele>150.0</ele><time>2026-04-06T08:42:23Z</time></trkpt><trkpt lat="45.82219441409046" lon="12.011788870912447"><ele>150.0</ele><time>2026-04-06T08:42:24Z</time></trkpt><trkpt lat="45.82233998912194" lon="12.011772453259503"><ele>150.0</ele><time>2026-04-06T08:42:25Z</time></trkpt><trkpt lat="45.822473288828746" lon="12.011750516544543"><ele>150.0</ele><time>2026-04-06T08:42:26Z</time></trkpt><trkpt lat="45.822594330810695" lon="12.011730774415451"><ele>150.0</ele><time>2026-04-06T08:42:27Z</time></trkpt><trkpt lat="45.82270772029391" lon="12.011724021281475"><ele>150.16666666666666</ele><time>2026-04-06T08:42:28Z</time></trkpt><trkpt lat="45.822794355866016" lon="12.011713904616839"><ele>150.33333333333334</ele><time>2026-04-06T08:42:29Z</time></trkpt><trkpt lat="45.8228691805115" lon="12.011704778806816"><ele>150.5</ele><time>2026-04-06T08:42:30Z</time></trkpt><trkpt lat="45.822994544057316" lon="12.011693684160457"><ele>150.66666666666669</ele><time>2026-04-06T08:42:32Z</time></trkpt><trkpt lat="45.82306779765198" lon="12.011677258607353"><ele>150.83333333333334</ele><time>2026-04-06T08:42:33Z</time></trkpt><trkpt lat="45.8231504020881" lon="12.01166446432437"><ele>151.0</ele><time>2026-04-06T08:42:34Z</time></trkpt><trkpt lat="45.82324096706174" lon="12.011651109527175"><ele>151.0</ele><time>2026-04-06T08:42:35Z</time></trkpt><trkpt lat="45.823324158916066" lon="12.011632897530236"><ele>151.0</ele><time>2026-04-06T08:42:36Z</time></trkpt><trkpt lat="45.823397884996744" lon="12.011613530598884"><ele>151.0</ele><time>2026-04-06T08:42:37Z</time></trkpt><trkpt lat="45.82347909871105" lon="12.011579178233912"><ele>151.0</ele><time>2026-04-06T08:42:38Z</time></trkpt><trkpt lat="45.82357274983575" lon="12.011567752027732"><ele>151.0</ele><time>2026-04-06T08:42:39Z</time></trkpt><trkpt lat="45.82367429435324" lon="12.011530230868843"><ele>151.0</ele><time>2026-04-06T08:42:40Z</time></trkpt><trkpt lat="45.823772540565756" lon="12.011493300670086"><ele>151.2</ele><time>2026-04-06T08:42:41Z</time></trkpt><trkpt lat="45.82386146402808" lon="12.01145717402789"><ele>151.39999999999998</ele><time>2026-04-06T08:42:42Z</time></trkpt><trkpt lat="45.823954024300775" lon="12.011430744731491"><ele>151.6</ele><time>2026-04-06T08:42:43Z</time></trkpt><trkpt lat="45.824044053647505" lon="12.011398823127944"><ele>151.79999999999998</ele><time>2026-04-06T08:42:44Z</time></trkpt><trkpt lat="45.82413679433973" lon="12.011362749602418"><ele>152.0</ele><time>2026-04-06T08:42:45Z</time></trkpt><trkpt lat="45.824227323736814" lon="12.011336255233745"><ele>152.16666666666666</ele><time>2026-04-06T08:42:46Z</time></trkpt><trkpt lat="45.824317267179396" lon="12.011307448801642"><ele>152.33333333333331</ele><time>2026-04-06T08:42:47Z</time></trkpt><trkpt lat="45.82441307599528" lon="12.011280369188519"><ele>152.5</ele><time>2026-04-06T08:42:48Z</time></trkpt><trkpt lat="45.82450809568471" lon="12.011245480679667"><ele>152.66666666666666</ele><time>2026-04-06T08:42:49Z</time></trkpt><trkpt lat="45.82458839451201" lon="12.011219759095377"><ele>152.83333333333334</ele><time>2026-04-06T08:42:50Z</time></trkpt><trkpt lat="45.82465800554564" lon="12.011200209379082"><ele>153.0</ele><time>2026-04-06T08:42:51Z</time></trkpt><trkpt lat="45.82472643831188" lon="12.01118596329438"><ele>153.0</ele><time>2026-04-06T08:42:52Z</time></trkpt><trkpt lat="45.82478798346417" lon="12.011164856829566"><ele>153.0</ele><time>2026-04-06T08:42:53Z</time></trkpt><trkpt lat="45.82485430025546" lon="12.011139621775346"><ele>153.0</ele><time>2026-04-06T08:42:54Z</time></trkpt><trkpt lat="45.82491630697175" lon="12.011117285379246"><ele>153.0</ele><time>2026-04-06T08:42:55Z</time></trkpt><trkpt lat="45.824990467157726" lon="12.011090898213784"><ele>153.0</ele><time>2026-04-06T08:42:56Z</time></trkpt><trkpt lat="45.825090388777795" lon="12.011041611884897"><ele>153.0</ele><time>2026-04-06T08:42:57Z</time></trkpt><trkpt lat="45.82522514050016" lon="12.010994238878578"><ele>153.33333333333334</ele><time>2026-04-06T08:42:58Z</time></trkpt><trkpt lat="45.82538071326801" lon="12.010962199018266"><ele>153.66666666666669</ele><time>2026-04-06T08:42:59Z</time></trkpt><trkpt lat="45.82554222180762" lon="12.010912749137214"><ele>154.0</ele><time>2026-04-06T08:43:00Z</time></trkpt><trkpt lat="45.82571522902886" lon="12.010842594594997"><ele>154.66666666666669</ele><time>2026-04-06T08:43:00.999Z</time></trkpt><trkpt lat="45.82587681106455" lon="12.010798703072053"><ele>155.33333333333334</ele><time>2026-04-06T08:43:01.999Z</time></trkpt><trkpt lat="45.826022873785405" lon="12.010764703127705"><ele>156.0</ele><time>2026-04-06T08:43:02.999Z</time></trkpt><trkpt lat="45.82616769581423" lon="12.010736150773578"><ele>156.5</ele><time>2026-04-06T08:43:03.999Z</time></trkpt><trkpt lat="45.82629606441737" lon="12.010671049097134"><ele>157.0</ele><time>2026-04-06T08:43:04.999Z</time></trkpt><trkpt lat="45.82642062517396" lon="12.010633790682665"><ele>157.5</ele><time>2026-04-06T08:43:05.999Z</time></trkpt><trkpt lat="45.82653932841654" lon="12.01059404613654"><ele>158.0</ele><time>2026-04-06T08:43:06.999Z</time></trkpt><trkpt lat="45.82664807607826" lon="12.010554262833349"><ele>158.0</ele><time>2026-04-06T08:43:07.999Z</time></trkpt><trkpt lat="45.82675495525196" lon="12.010512604816512"><ele>158.0</ele><time>2026-04-06T08:43:08.999Z</time></trkpt><trkpt lat="45.826868118451614" lon="12.010453639439021"><ele>158.0</ele><time>2026-04-06T08:43:09.999Z</time></trkpt><trkpt lat="45.8269797176266" lon="12.010357477540326"><ele>158.0</ele><time>2026-04-06T08:43:10.999Z</time></trkpt><trkpt lat="45.82709871493299" lon="12.01025546120534"><ele>157.66666666666666</ele><time>2026-04-06T08:43:11.999Z</time></trkpt><trkpt lat="45.82721816101146" lon="12.01013267054255"><ele>157.33333333333334</ele><time>2026-04-06T08:43:12.999Z</time></trkpt><trkpt lat="45.827341303113215" lon="12.009985112586994"><ele>157.0</ele><time>2026-04-06T08:43:13.999Z</time></trkpt><trkpt lat="45.827448671087" lon="12.009841674236737"><ele>157.0</ele><time>2026-04-06T08:43:14.999Z</time></trkpt><trkpt lat="45.82753658023842" lon="12.00970526947279"><ele>157.0</ele><time>2026-04-06T08:43:15.999Z</time></trkpt><trkpt lat="45.82763753767629" lon="12.009588758561602"><ele>157.0</ele><time>2026-04-06T08:43:16.999Z</time></trkpt><trkpt lat="45.827717998916185" lon="12.009448520097587"><ele>157.0</ele><time>2026-04-06T08:43:17.999Z</time></trkpt><trkpt lat="45.82781148704241" lon="12.00931995242321"><ele>157.25</ele><time>2026-04-06T08:43:18.999Z</time></trkpt><trkpt lat="45.82790769233192" lon="12.009195057125787"><ele>157.5</ele><time>2026-04-06T08:43:19.999Z</time></trkpt><trkpt lat="45.82800696263565" lon="12.009082060330092"><ele>157.75</ele><time>2026-04-06T08:43:20.999Z</time></trkpt><trkpt lat="45.82809337930362" lon="12.008951892575526"><ele>158.0</ele><time>2026-04-06T08:43:21.999Z</time></trkpt><trkpt lat="45.82817608798599" lon="12.008831789893144"><ele>158.0</ele><time>2026-04-06T08:43:22.999Z</time></trkpt><trkpt lat="45.828260603410854" lon="12.00871895956384"><ele>158.0</ele><time>2026-04-06T08:43:23.999Z</time></trkpt><trkpt lat="45.828346306397044" lon="12.008602098164522"><ele>158.0</ele><time>2026-04-06T08:43:24.999Z</time></trkpt><trkpt lat="45.828433324104296" lon="12.00848150987684"><ele>158.0</ele><time>2026-04-06T08:43:25.999Z</time></trkpt><trkpt lat="45.82852368952146" lon="12.00836094511857"><ele>158.75</ele><time>2026-04-06T08:43:26.999Z</time></trkpt><trkpt lat="45.82861117980873" lon="12.008229578980892"><ele>159.5</ele><time>2026-04-06T08:43:27.999Z</time></trkpt><trkpt lat="45.828700476926784" lon="12.00809543632532"><ele>160.25</ele><time>2026-04-06T08:43:28.999Z</time></trkpt><trkpt lat="45.82879713313429" lon="12.00797294302125"><ele>161.0</ele><time>2026-04-06T08:43:29.999Z</time></trkpt><trkpt lat="45.82888583194485" lon="12.007854967966054"><ele>161.0</ele><time>2026-04-06T08:43:30.999Z</time></trkpt><trkpt lat="45.82897020679235" lon="12.007736972513955"><ele>161.0</ele><time>2026-04-06T08:43:31.999Z</time></trkpt><trkpt lat="45.82905753916685" lon="12.007617760381537"><ele>161.0</ele><time>2026-04-06T08:43:32.999Z</time></trkpt><trkpt lat="45.82914600042328" lon="12.007496095153707"><ele>161.0</ele><time>2026-04-06T08:43:33.999Z</time></trkpt><trkpt lat="45.82922346836677" lon="12.007378761748214"><ele>161.20000000000002</ele><time>2026-04-06T08:43:34.999Z</time></trkpt><trkpt lat="45.829297087553286" lon="12.00728146220604"><ele>161.4</ele><time>2026-04-06T08:43:35.999Z</time></trkpt><trkpt lat="45.82936868932121" lon="12.007194722885469"><ele>161.6</ele><time>2026-04-06T08:43:36.999Z</time></trkpt><trkpt lat="45.829436360798496" lon="12.007092761769188"><ele>161.8</ele><time>2026-04-06T08:43:37.999Z</time></trkpt><trkpt lat="45.82950176433317" lon="12.006988225949685"><ele>162.0</ele><time>2026-04-06T08:43:38.999Z</time></trkpt><trkpt lat="45.829568059641204" lon="12.006887917518096"><ele>162.16666666666666</ele><time>2026-04-06T08:43:39.999Z</time></trkpt><trkpt lat="45.82962587218515" lon="12.006791501127166"><ele>162.33333333333334</ele><time>2026-04-06T08:43:40.999Z</time></trkpt><trkpt lat="45.82967293007898" lon="12.006701827617384"><ele>162.5</ele><time>2026-04-06T08:43:41.999Z</time></trkpt><trkpt lat="45.829719757734196" lon="12.006616045340953"><ele>162.66666666666669</ele><time>2026-04-06T08:43:42.999Z</time></trkpt><trkpt lat="45.829764437796484" lon="12.006533124564783"><ele>162.83333333333334</ele><time>2026-04-06T08:43:43.999Z</time></trkpt><trkpt lat="45.82980643958659" lon="12.006451699883508"><ele>163.0</ele><time>2026-04-06T08:43:44.999Z</time></trkpt><trkpt lat="45.82985236732127" lon="12.006382447241261"><ele>163.0</ele><time>2026-04-06T08:43:45.999Z</time></trkpt><trkpt lat="45.82991813524529" lon="12.00626379759822"><ele>163.0</ele><time>2026-04-06T08:43:47.999Z</time></trkpt><trkpt lat="45.82996097483704" lon="12.00619575241408"><ele>163.0</ele><time>2026-04-06T08:43:51.999Z</time></trkpt><trkpt lat="45.83001290035151" lon="12.006124258013399"><ele>163.0</ele><time>2026-04-06T08:43:56.999Z</time></trkpt><trkpt lat="45.83010487086066" lon="12.005992477582721"><ele>163.0</ele><time>2026-04-06T08:43:58.999Z</time></trkpt><trkpt lat="45.830162516215374" lon="12.005925467340232"><ele>163.0</ele><time>2026-04-06T08:43:59.999Z</time></trkpt><trkpt lat="45.83021979101832" lon="12.005848608293602"><ele>163.5</ele><time>2026-04-06T08:44:00.999Z</time></trkpt><trkpt lat="45.830281617769245" lon="12.005781861847904"><ele>164.0</ele><time>2026-04-06T08:44:01.999Z</time></trkpt><trkpt lat="45.83034005826649" lon="12.005723787903193"><ele>164.5</ele><time>2026-04-06T08:44:02.999Z</time></trkpt><trkpt lat="45.83039281426848" lon="12.005671285616927"><ele>165.0</ele><time>2026-04-06T08:44:03.999Z</time></trkpt><trkpt lat="45.830496432410634" lon="12.005570036070567"><ele>165.5</ele><time>2026-04-06T08:44:05.999Z</time></trkpt><trkpt lat="45.83055565325502" lon="12.005511167159767"><ele>166.0</ele><time>2026-04-06T08:44:06.999Z</time></trkpt><trkpt lat="45.83061313709501" lon="12.00545422535647"><ele>166.0</ele><time>2026-04-06T08:44:07.999Z</time></trkpt><trkpt lat="45.83070770102731" lon="12.00542035561537"><ele>166.0</ele><time>2026-04-06T08:44:09.999Z</time></trkpt><trkpt lat="45.83075579662988" lon="12.005494168727285"><ele>166.0</ele><time>2026-04-06T08:44:10.999Z</time></trkpt><trkpt lat="45.83080670173135" lon="12.005608578016934"><ele>166.0</ele><time>2026-04-06T08:44:11.999Z</time></trkpt><trkpt lat="45.83086148332145" lon="12.005758172204299"><ele>166.0</ele><time>2026-04-06T08:44:12.999Z</time></trkpt><trkpt lat="45.83092874274619" lon="12.00588336161548"><ele>165.8</ele><time>2026-04-06T08:44:13.999Z</time></trkpt><trkpt lat="45.830994733167856" lon="12.005995326030156"><ele>165.60000000000002</ele><time>2026-04-06T08:44:14.999Z</time></trkpt><trkpt lat="45.83105634266117" lon="12.006114331114347"><ele>165.4</ele><time>2026-04-06T08:44:15.999Z</time></trkpt><trkpt lat="45.83112408815464" lon="12.006244924880518"><ele>165.2</ele><time>2026-04-06T08:44:16.999Z</time></trkpt><trkpt lat="45.83119493284331" lon="12.00639452264712"><ele>165.0</ele><time>2026-04-06T08:44:17.999Z</time></trkpt><trkpt lat="45.83126713569727" lon="12.006560389302281"><ele>164.75</ele><time>2026-04-06T08:44:18.999Z</time></trkpt><trkpt lat="45.83131798103135" lon="12.006754748658036"><ele>164.5</ele><time>2026-04-06T08:44:19.999Z</time></trkpt><trkpt lat="45.8313748540117" lon="12.006946033233767"><ele>164.25</ele><time>2026-04-06T08:44:20.999Z</time></trkpt><trkpt lat="45.83144666632627" lon="12.00711562002455"><ele>164.0</ele><time>2026-04-06T08:44:21.999Z</time></trkpt><trkpt lat="45.83150535484103" lon="12.007278519838883"><ele>164.0</ele><time>2026-04-06T08:44:22.999Z</time></trkpt><trkpt lat="45.83155529438183" lon="12.007435744842185"><ele>164.0</ele><time>2026-04-06T08:44:23.999Z</time></trkpt><trkpt lat="45.83160498233231" lon="12.00759068894287"><ele>164.0</ele><time>2026-04-06T08:44:24.999Z</time></trkpt><trkpt lat="45.831655849753105" lon="12.007751021992846"><ele>164.0</ele><time>2026-04-06T08:44:25.999Z</time></trkpt><trkpt lat="45.83170437244323" lon="12.007915111919756"><ele>164.0</ele><time>2026-04-06T08:44:26.999Z</time></trkpt><trkpt lat="45.83174928763546" lon="12.008083372827247"><ele>164.0</ele><time>2026-04-06T08:44:28Z</time></trkpt><trkpt lat="45.83179150851623" lon="12.008253413014222"><ele>164.0</ele><time>2026-04-06T08:44:29Z</time></trkpt><trkpt lat="45.831840785831886" lon="12.00842005356811"><ele>164.0</ele><time>2026-04-06T08:44:30Z</time></trkpt><trkpt lat="45.83189146191156" lon="12.008589858617526"><ele>163.75</ele><time>2026-04-06T08:44:31Z</time></trkpt><trkpt lat="45.831921989435465" lon="12.008791615101602"><ele>163.5</ele><time>2026-04-06T08:44:32Z</time></trkpt><trkpt lat="45.831969390739076" lon="12.008992485842032"><ele>163.25</ele><time>2026-04-06T08:44:33Z</time></trkpt><trkpt lat="45.83200590496817" lon="12.0092103131174"><ele>163.0</ele><time>2026-04-06T08:44:34Z</time></trkpt><trkpt lat="45.832026297039064" lon="12.009440392453133"><ele>162.66666666666669</ele><time>2026-04-06T08:44:35Z</time></trkpt><trkpt lat="45.832058971837704" lon="12.009665300705075"><ele>162.33333333333334</ele><time>2026-04-06T08:44:36Z</time></trkpt><trkpt lat="45.832091342364734" lon="12.009917557869983"><ele>162.0</ele><time>2026-04-06T08:44:37Z</time></trkpt><trkpt lat="45.832125541861465" lon="12.010191112927304"><ele>162.0</ele><time>2026-04-06T08:44:38Z</time></trkpt><trkpt lat="45.83215268242192" lon="12.010392162915332"><ele>162.0</ele><time>2026-04-06T08:44:39Z</time></trkpt><trkpt lat="45.832186901449916" lon="12.01062535978066"><ele>162.0</ele><time>2026-04-06T08:44:40Z</time></trkpt><trkpt lat="45.83221888996626" lon="12.010840509408693"><ele>161.75</ele><time>2026-04-06T08:44:41Z</time></trkpt><trkpt lat="45.83224058295982" lon="12.011043805082698"><ele>161.5</ele><time>2026-04-06T08:44:42Z</time></trkpt><trkpt lat="45.832263871920894" lon="12.011229793035366"><ele>161.25</ele><time>2026-04-06T08:44:43Z</time></trkpt><trkpt lat="45.83228777656693" lon="12.011412217388223"><ele>161.0</ele><time>2026-04-06T08:44:44Z</time></trkpt><trkpt lat="45.83231426899785" lon="12.011582564203305"><ele>160.60000000000002</ele><time>2026-04-06T08:44:45Z</time></trkpt><trkpt lat="45.832335674777795" lon="12.011750047285908"><ele>160.20000000000002</ele><time>2026-04-06T08:44:46Z</time></trkpt><trkpt lat="45.83235605525321" lon="12.011914362167754"><ele>159.8</ele><time>2026-04-06T08:44:47Z</time></trkpt><trkpt lat="45.83237675874254" lon="12.012063383013995"><ele>159.4</ele><time>2026-04-06T08:44:48Z</time></trkpt><trkpt lat="45.83239920256391" lon="12.012200653971195"><ele>159.0</ele><time>2026-04-06T08:44:49Z</time></trkpt><trkpt lat="45.832417369377126" lon="12.012322206374357"><ele>159.0</ele><time>2026-04-06T08:44:50Z</time></trkpt><trkpt lat="45.83243536700645" lon="12.012438577575573"><ele>159.0</ele><time>2026-04-06T08:44:51Z</time></trkpt><trkpt lat="45.83245317684093" lon="12.01255130349087"><ele>159.0</ele><time>2026-04-06T08:44:52Z</time></trkpt><trkpt lat="45.83246484918773" lon="12.012659414800618"><ele>159.0</ele><time>2026-04-06T08:44:53Z</time></trkpt><trkpt lat="45.83247316791122" lon="12.012774857997728"><ele>159.0</ele><time>2026-04-06T08:44:53.999Z</time></trkpt><trkpt lat="45.83249395315303" lon="12.012879526005818"><ele>159.0</ele><time>2026-04-06T08:44:54.999Z</time></trkpt><trkpt lat="45.83253535703847" lon="12.012957831771546"><ele>159.0</ele><time>2026-04-06T08:44:55.999Z</time></trkpt><trkpt lat="45.83260183273137" lon="12.01300125669651"><ele>159.0</ele><time>2026-04-06T08:44:56.999Z</time></trkpt><trkpt lat="45.8326834294967" lon="12.01300589966222"><ele>159.0</ele><time>2026-04-06T08:44:57.999Z</time></trkpt><trkpt lat="45.832766585931225" lon="12.01297229215374"><ele>159.0</ele><time>2026-04-06T08:44:58.999Z</time></trkpt><trkpt lat="45.832857934011244" lon="12.012897415267224"><ele>159.0</ele><time>2026-04-06T08:44:59.999Z</time></trkpt><trkpt lat="45.83296709463594" lon="12.01283106373326"><ele>159.16666666666666</ele><time>2026-04-06T08:45:00.999Z</time></trkpt><trkpt lat="45.83305410405037" lon="12.012811638759407"><ele>159.33333333333334</ele><time>2026-04-06T08:45:01.999Z</time></trkpt><trkpt lat="45.83314068746791" lon="12.012786778637727"><ele>159.5</ele><time>2026-04-06T08:45:02.999Z</time></trkpt><trkpt lat="45.83322226491232" lon="12.012760330920468"><ele>159.66666666666669</ele><time>2026-04-06T08:45:03.999Z</time></trkpt><trkpt lat="45.83329549196617" lon="12.012739937668597"><ele>159.83333333333334</ele><time>2026-04-06T08:45:04.999Z</time></trkpt><trkpt lat="45.83337627522522" lon="12.012705913387403"><ele>160.0</ele><time>2026-04-06T08:45:05.999Z</time></trkpt><trkpt lat="45.83346848343494" lon="12.0126690017206"><ele>160.0</ele><time>2026-04-06T08:45:06.999Z</time></trkpt><trkpt lat="45.833569166031104" lon="12.012642121024411"><ele>160.0</ele><time>2026-04-06T08:45:07.999Z</time></trkpt><trkpt lat="45.833661393375365" lon="12.012580691498492"><ele>160.0</ele><time>2026-04-06T08:45:08.999Z</time></trkpt><trkpt lat="45.833741785244435" lon="12.012519480289184"><ele>160.0</ele><time>2026-04-06T08:45:09.999Z</time></trkpt><trkpt lat="45.833820262631505" lon="12.012460817906769"><ele>160.0</ele><time>2026-04-06T08:45:10.999Z</time></trkpt><trkpt lat="45.8338968458936" lon="12.012399661054278"><ele>160.6</ele><time>2026-04-06T08:45:11.999Z</time></trkpt><trkpt lat="45.83397651928708" lon="12.01234246915027"><ele>161.2</ele><time>2026-04-06T08:45:12.999Z</time></trkpt><trkpt lat="45.83406712569859" lon="12.012298018610988"><ele>161.8</ele><time>2026-04-06T08:45:13.999Z</time></trkpt><trkpt lat="45.83416821033097" lon="12.01224089901394"><ele>162.4</ele><time>2026-04-06T08:45:14.999Z</time></trkpt><trkpt lat="45.8342761958108" lon="12.01217720048716"><ele>163.0</ele><time>2026-04-06T08:45:15.999Z</time></trkpt><trkpt lat="45.83440762917214" lon="12.012124988366029"><ele>163.0</ele><time>2026-04-06T08:45:16.999Z</time></trkpt><trkpt lat="45.834560935424435" lon="12.012075252999368"><ele>163.0</ele><time>2026-04-06T08:45:17.999Z</time></trkpt><trkpt lat="45.83472269210638" lon="12.01199789535308"><ele>163.0</ele><time>2026-04-06T08:45:18.999Z</time></trkpt><trkpt lat="45.83489560759447" lon="12.01191495531053"><ele>163.0</ele><time>2026-04-06T08:45:19.999Z</time></trkpt><trkpt lat="45.83507819136643" lon="12.01186480262554"><ele>163.0</ele><time>2026-04-06T08:45:20.999Z</time></trkpt><trkpt lat="45.835243884329685" lon="12.011812269694369"><ele>163.0</ele><time>2026-04-06T08:45:21.999Z</time></trkpt><trkpt lat="45.835400856009294" lon="12.011737688380798"><ele>162.0</ele><time>2026-04-06T08:45:22.999Z</time></trkpt><trkpt lat="45.835557550359574" lon="12.011672820656885"><ele>161.0</ele><time>2026-04-06T08:45:23.999Z</time></trkpt><trkpt lat="45.835716260108335" lon="12.011608988416548"><ele>160.0</ele><time>2026-04-06T08:45:24.999Z</time></trkpt><trkpt lat="45.83587834557694" lon="12.01153698565032"><ele>160.25</ele><time>2026-04-06T08:45:25.999Z</time></trkpt><trkpt lat="45.83602785293264" lon="12.011463085360582"><ele>160.5</ele><time>2026-04-06T08:45:26.999Z</time></trkpt><trkpt lat="45.8361657102244" lon="12.01141175709986"><ele>160.75</ele><time>2026-04-06T08:45:27.999Z</time></trkpt><trkpt lat="45.83629099810478" lon="12.011384359573423"><ele>161.0</ele><time>2026-04-06T08:45:28.999Z</time></trkpt><trkpt lat="45.83641000829744" lon="12.011396055054274"><ele>161.0</ele><time>2026-04-06T08:45:29.999Z</time></trkpt><trkpt lat="45.83653192338186" lon="12.01146368455989"><ele>161.0</ele><time>2026-04-06T08:45:30.999Z</time></trkpt><trkpt lat="45.8366578082977" lon="12.011579445929227"><ele>161.0</ele><time>2026-04-06T08:45:31.999Z</time></trkpt><trkpt lat="45.83678127333073" lon="12.011732135640843"><ele>161.0</ele><time>2026-04-06T08:45:32.999Z</time></trkpt><trkpt lat="45.836901305377054" lon="12.011879401020924"><ele>161.0</ele><time>2026-04-06T08:45:33.999Z</time></trkpt><trkpt lat="45.83701532941943" lon="12.012011286496165"><ele>161.0</ele><time>2026-04-06T08:45:34.999Z</time></trkpt><trkpt lat="45.83712587520569" lon="12.012141155644183"><ele>161.0</ele><time>2026-04-06T08:45:35.999Z</time></trkpt><trkpt lat="45.83724622550622" lon="12.012275516748632"><ele>161.0</ele><time>2026-04-06T08:45:36.999Z</time></trkpt><trkpt lat="45.83737555804902" lon="12.01240034436991"><ele>161.0</ele><time>2026-04-06T08:45:37.999Z</time></trkpt><trkpt lat="45.83750689083817" lon="12.012519878518418"><ele>161.0</ele><time>2026-04-06T08:45:38.999Z</time></trkpt><trkpt lat="45.83763496152137" lon="12.012635720782812"><ele>161.0</ele><time>2026-04-06T08:45:39.999Z</time></trkpt><trkpt lat="45.83776341176192" lon="12.012733084804578"><ele>160.0</ele><time>2026-04-06T08:45:40.999Z</time></trkpt><trkpt lat="45.8378999549395" lon="12.012829059464456"><ele>159.0</ele><time>2026-04-06T08:45:41.999Z</time></trkpt><trkpt lat="45.83803656992052" lon="12.012931394119267"><ele>158.0</ele><time>2026-04-06T08:45:42.999Z</time></trkpt><trkpt lat="45.83817626599469" lon="12.013032116047148"><ele>158.0</ele><time>2026-04-06T08:45:43.999Z</time></trkpt><trkpt lat="45.83831219357089" lon="12.013133127387245"><ele>158.0</ele><time>2026-04-06T08:45:44.999Z</time></trkpt><trkpt lat="45.83845066353037" lon="12.013231988164332"><ele>158.0</ele><time>2026-04-06T08:45:45.999Z</time></trkpt><trkpt lat="45.83858350278482" lon="12.013324708734213"><ele>159.0</ele><time>2026-04-06T08:45:46.999Z</time></trkpt><trkpt lat="45.8387025382822" lon="12.013416891324962"><ele>160.0</ele><time>2026-04-06T08:45:47.999Z</time></trkpt><trkpt lat="45.83881443364128" lon="12.013507554752493"><ele>161.0</ele><time>2026-04-06T08:45:48.999Z</time></trkpt><trkpt lat="45.83891611251243" lon="12.013591734496831"><ele>162.0</ele><time>2026-04-06T08:45:49.999Z</time></trkpt><trkpt lat="45.83899963835781" lon="12.013683967418991"><ele>162.0</ele><time>2026-04-06T08:45:50.999Z</time></trkpt><trkpt lat="45.83905983785965" lon="12.013811478151444"><ele>162.0</ele><time>2026-04-06T08:45:51.999Z</time></trkpt><trkpt lat="45.83910671448362" lon="12.013936190026351"><ele>162.0</ele><time>2026-04-06T08:45:52.999Z</time></trkpt><trkpt lat="45.839157063865095" lon="12.01403663007897"><ele>162.0</ele><time>2026-04-06T08:45:53.999Z</time></trkpt><trkpt lat="45.83923511009883" lon="12.014086472091154"><ele>162.0</ele><time>2026-04-06T08:45:54.999Z</time></trkpt><trkpt lat="45.83932599165549" lon="12.01408990427345"><ele>161.5</ele><time>2026-04-06T08:45:55.999Z</time></trkpt><trkpt lat="45.839429104414464" lon="12.014067572063135"><ele>161.0</ele><time>2026-04-06T08:45:56.999Z</time></trkpt><trkpt lat="45.83954467305247" lon="12.014066979090039"><ele>160.5</ele><time>2026-04-06T08:45:57.999Z</time></trkpt><trkpt lat="45.83968481780586" lon="12.014147557725783"><ele>160.0</ele><time>2026-04-06T08:45:58.999Z</time></trkpt><trkpt lat="45.839850212503734" lon="12.014257813690072"><ele>160.0</ele><time>2026-04-06T08:45:59.999Z</time></trkpt><trkpt lat="45.84003854866625" lon="12.014378933234678"><ele>160.0</ele><time>2026-04-06T08:46:00.999Z</time></trkpt><trkpt lat="45.840243375539025" lon="12.014551407773643"><ele>160.0</ele><time>2026-04-06T08:46:01.999Z</time></trkpt><trkpt lat="45.84048738421426" lon="12.014729892056861"><ele>160.5</ele><time>2026-04-06T08:46:02.999Z</time></trkpt><trkpt lat="45.84073047439467" lon="12.014905542439056"><ele>161.0</ele><time>2026-04-06T08:46:03.999Z</time></trkpt><trkpt lat="45.84095633068752" lon="12.015085868582133"><ele>160.0</ele><time>2026-04-06T08:46:04.999Z</time></trkpt><trkpt lat="45.841161911365305" lon="12.015236938355875"><ele>159.0</ele><time>2026-04-06T08:46:05.999Z</time></trkpt><trkpt lat="45.841344645836664" lon="12.015360778265533"><ele>158.0</ele><time>2026-04-06T08:46:06.999Z</time></trkpt><trkpt lat="45.841519174586686" lon="12.015488701326408"><ele>158.0</ele><time>2026-04-06T08:46:07.999Z</time></trkpt><trkpt lat="45.84168322294465" lon="12.015611807955194"><ele>158.0</ele><time>2026-04-06T08:46:08.999Z</time></trkpt><trkpt lat="45.841828003059824" lon="12.015731329432995"><ele>158.0</ele><time>2026-04-06T08:46:09.999Z</time></trkpt><trkpt lat="45.841961225780906" lon="12.015832165821994"><ele>157.5</ele><time>2026-04-06T08:46:10.999Z</time></trkpt><trkpt lat="45.842082213901485" lon="12.015902800798592"><ele>157.0</ele><time>2026-04-06T08:46:11.999Z</time></trkpt><trkpt lat="45.84218963389235" lon="12.01598984960211"><ele>156.5</ele><time>2026-04-06T08:46:12.999Z</time></trkpt><trkpt lat="45.84227698935202" lon="12.0161061706326"><ele>156.0</ele><time>2026-04-06T08:46:13.999Z</time></trkpt><trkpt lat="45.84234455298527" lon="12.016240145151505"><ele>156.0</ele><time>2026-04-06T08:46:14.999Z</time></trkpt><trkpt lat="45.842394353619305" lon="12.016359953468811"><ele>156.0</ele><time>2026-04-06T08:46:15.999Z</time></trkpt><trkpt lat="45.842455397440524" lon="12.016444411991861"><ele>156.0</ele><time>2026-04-06T08:46:16.999Z</time></trkpt><trkpt lat="45.84253791225675" lon="12.016494162392183"><ele>156.0</ele><time>2026-04-06T08:46:17.999Z</time></trkpt><trkpt lat="45.84264279304241" lon="12.01652365790743"><ele>156.0</ele><time>2026-04-06T08:46:18.999Z</time></trkpt><trkpt lat="45.8427533664587" lon="12.016480064787107"><ele>156.25</ele><time>2026-04-06T08:46:19.999Z</time></trkpt><trkpt lat="45.842879794838105" lon="12.016548025988051"><ele>156.5</ele><time>2026-04-06T08:46:20.999Z</time></trkpt><trkpt lat="45.84299725539196" lon="12.016591086990461"><ele>156.75</ele><time>2026-04-06T08:46:21.999Z</time></trkpt><trkpt lat="45.843119487959044" lon="12.016657306099447"><ele>157.0</ele><time>2026-04-06T08:46:22.999Z</time></trkpt><trkpt lat="45.84324338870983" lon="12.016748028240045"><ele>156.75</ele><time>2026-04-06T08:46:23.999Z</time></trkpt><trkpt lat="45.84336236094305" lon="12.01685170263765"><ele>156.5</ele><time>2026-04-06T08:46:24.999Z</time></trkpt><trkpt lat="45.8434915375359" lon="12.01694652303885"><ele>156.25</ele><time>2026-04-06T08:46:25.999Z</time></trkpt><trkpt lat="45.843633857796576" lon="12.01705028929775"><ele>156.0</ele><time>2026-04-06T08:46:26.998Z</time></trkpt><trkpt lat="45.843777721268665" lon="12.017156732790449"><ele>156.0</ele><time>2026-04-06T08:46:27.998Z</time></trkpt><trkpt lat="45.84391098052533" lon="12.017257844515417"><ele>156.0</ele><time>2026-04-06T08:46:28.998Z</time></trkpt><trkpt lat="45.84404738634156" lon="12.017362401229397"><ele>156.0</ele><time>2026-04-06T08:46:29.998Z</time></trkpt><trkpt lat="45.844210509198845" lon="12.017480500680618"><ele>155.66666666666666</ele><time>2026-04-06T08:46:30.998Z</time></trkpt><trkpt lat="45.844380712097454" lon="12.017605459750385"><ele>155.33333333333331</ele><time>2026-04-06T08:46:31.998Z</time></trkpt><trkpt lat="45.84454282357159" lon="12.017725934505396"><ele>155.0</ele><time>2026-04-06T08:46:32.998Z</time></trkpt><trkpt lat="45.84469451822781" lon="12.017838872853941"><ele>155.0</ele><time>2026-04-06T08:46:33.999Z</time></trkpt><trkpt lat="45.84484433257263" lon="12.017950993792704"><ele>155.0</ele><time>2026-04-06T08:46:34.999Z</time></trkpt><trkpt lat="45.84499948021745" lon="12.018066150093077"><ele>155.0</ele><time>2026-04-06T08:46:36Z</time></trkpt><trkpt lat="45.84515563496289" lon="12.018184870204546"><ele>154.33333333333331</ele><time>2026-04-06T08:46:37Z</time></trkpt><trkpt lat="45.845311336133825" lon="12.018301257688437"><ele>153.66666666666666</ele><time>2026-04-06T08:46:38Z</time></trkpt><trkpt lat="45.84546819821214" lon="12.01841445409632"><ele>153.0</ele><time>2026-04-06T08:46:39Z</time></trkpt><trkpt lat="45.84562882465704" lon="12.018528931280818"><ele>153.0</ele><time>2026-04-06T08:46:40Z</time></trkpt><trkpt lat="45.84578651167285" lon="12.01864971983705"><ele>153.0</ele><time>2026-04-06T08:46:41Z</time></trkpt><trkpt lat="45.845936650096576" lon="12.018766820599426"><ele>153.0</ele><time>2026-04-06T08:46:42Z</time></trkpt><trkpt lat="45.84608331779497" lon="12.018870944894068"><ele>152.66666666666666</ele><time>2026-04-06T08:46:43Z</time></trkpt><trkpt lat="45.84624311949949" lon="12.018988309510089"><ele>152.33333333333331</ele><time>2026-04-06T08:46:44Z</time></trkpt><trkpt lat="45.84642004458244" lon="12.019122311447884"><ele>152.0</ele><time>2026-04-06T08:46:45Z</time></trkpt><trkpt lat="45.84661027529415" lon="12.01925743853227"><ele>153.0</ele><time>2026-04-06T08:46:46Z</time></trkpt><trkpt lat="45.84683151692352" lon="12.019400635194422"><ele>154.0</ele><time>2026-04-06T08:46:47Z</time></trkpt><trkpt lat="45.84705535901931" lon="12.019577235802572"><ele>154.0</ele><time>2026-04-06T08:46:48Z</time></trkpt><trkpt lat="45.84725997670911" lon="12.01974528075892"><ele>154.0</ele><time>2026-04-06T08:46:49Z</time></trkpt><trkpt lat="45.847453773557156" lon="12.019884967171679"><ele>154.66666666666669</ele><time>2026-04-06T08:46:50Z</time></trkpt><trkpt lat="45.8476510814363" lon="12.020023749542442"><ele>155.33333333333334</ele><time>2026-04-06T08:46:51Z</time></trkpt><trkpt lat="45.84784081384106" lon="12.020166055837139"><ele>156.0</ele><time>2026-04-06T08:46:52Z</time></trkpt><trkpt lat="45.84803151669771" lon="12.02030718979592"><ele>156.0</ele><time>2026-04-06T08:46:53Z</time></trkpt><trkpt lat="45.84821950615192" lon="12.020439324798872"><ele>156.0</ele><time>2026-04-06T08:46:54Z</time></trkpt><trkpt lat="45.84840966150001" lon="12.02057384869806"><ele>156.0</ele><time>2026-04-06T08:46:55Z</time></trkpt><trkpt lat="45.84859827189612" lon="12.020712106306895"><ele>155.66666666666666</ele><time>2026-04-06T08:46:56Z</time></trkpt><trkpt lat="45.84877584217541" lon="12.02084098151731"><ele>155.33333333333331</ele><time>2026-04-06T08:46:57Z</time></trkpt><trkpt lat="45.848956846086814" lon="12.020972713047719"><ele>155.0</ele><time>2026-04-06T08:46:58Z</time></trkpt><trkpt lat="45.84914305812505" lon="12.021107129687826"><ele>154.66666666666666</ele><time>2026-04-06T08:46:59Z</time></trkpt><trkpt lat="45.8493202733322" lon="12.021240116307842"><ele>154.33333333333334</ele><time>2026-04-06T08:47:00Z</time></trkpt><trkpt lat="45.84948645554068" lon="12.02137053529066"><ele>154.0</ele><time>2026-04-06T08:47:01Z</time></trkpt><trkpt lat="45.84964097375308" lon="12.021490171521036"><ele>154.0</ele><time>2026-04-06T08:47:02Z</time></trkpt><trkpt lat="45.84977623607386" lon="12.021590222730447"><ele>154.0</ele><time>2026-04-06T08:47:03Z</time></trkpt><trkpt lat="45.849902883028435" lon="12.021684509749573"><ele>154.0</ele><time>2026-04-06T08:47:04Z</time></trkpt><trkpt lat="45.85002035114775" lon="12.02177139522475"><ele>154.0</ele><time>2026-04-06T08:47:05Z</time></trkpt><trkpt lat="45.850126284455065" lon="12.021846754720618"><ele>154.33333333333334</ele><time>2026-04-06T08:47:06Z</time></trkpt><trkpt lat="45.85021295583385" lon="12.02190948151194"><ele>154.66666666666669</ele><time>2026-04-06T08:47:07Z</time></trkpt><trkpt lat="45.85028404827441" lon="12.02196425408753"><ele>155.0</ele><time>2026-04-06T08:47:08Z</time></trkpt><trkpt lat="45.850347098434064" lon="12.022012497674519"><ele>155.33333333333334</ele><time>2026-04-06T08:47:09Z</time></trkpt><trkpt lat="45.850406616731334" lon="12.02205813930474"><ele>155.66666666666666</ele><time>2026-04-06T08:47:10Z</time></trkpt><trkpt lat="45.850468740239" lon="12.02210377126227"><ele>156.0</ele><time>2026-04-06T08:47:11Z</time></trkpt><trkpt lat="45.85056987032778" lon="12.022174976872348"><ele>156.0</ele><time>2026-04-06T08:47:13Z</time></trkpt><trkpt lat="45.85064388275452" lon="12.022232860723411"><ele>156.0</ele><time>2026-04-06T08:47:15Z</time></trkpt><trkpt lat="45.850721593832745" lon="12.022286984085408"><ele>156.0</ele><time>2026-04-06T08:47:18Z</time></trkpt><trkpt lat="45.85080250678609" lon="12.022341434462165"><ele>156.0</ele><time>2026-04-06T08:47:21Z</time></trkpt><trkpt lat="45.85088643140026" lon="12.02239799961057"><ele>156.0</ele><time>2026-04-06T08:47:23Z</time></trkpt><trkpt lat="45.8509845444741" lon="12.022471479446795"><ele>155.66666666666666</ele><time>2026-04-06T08:47:26Z</time></trkpt><trkpt lat="45.851071811733384" lon="12.022543411929227"><ele>155.33333333333334</ele><time>2026-04-06T08:47:28Z</time></trkpt><trkpt lat="45.851141899772436" lon="12.022586728880086"><ele>155.0</ele><time>2026-04-06T08:47:33.999Z</time></trkpt><trkpt lat="45.851205596945384" lon="12.022624273162439"><ele>154.66666666666669</ele><time>2026-04-06T08:47:34.999Z</time></trkpt><trkpt lat="45.851283082265894" lon="12.022689542407212"><ele>154.33333333333334</ele><time>2026-04-06T08:47:35.999Z</time></trkpt><trkpt lat="45.851378423956874" lon="12.022755148989106"><ele>154.0</ele><time>2026-04-06T08:47:36.999Z</time></trkpt><trkpt lat="45.85146202761357" lon="12.022813311334628"><ele>154.0</ele><time>2026-04-06T08:47:37.999Z</time></trkpt><trkpt lat="45.85157024292911" lon="12.02289537820474"><ele>154.0</ele><time>2026-04-06T08:47:38.999Z</time></trkpt><trkpt lat="45.85168670479755" lon="12.022985028723655"><ele>154.0</ele><time>2026-04-06T08:47:39.999Z</time></trkpt><trkpt lat="45.85179107607684" lon="12.023064705172253"><ele>154.0</ele><time>2026-04-06T08:47:40.999Z</time></trkpt><trkpt lat="45.851865452605644" lon="12.023126316897546"><ele>154.2</ele><time>2026-04-06T08:47:41.999Z</time></trkpt><trkpt lat="45.85192600377935" lon="12.023172007323316"><ele>154.4</ele><time>2026-04-06T08:47:42.999Z</time></trkpt><trkpt lat="45.85199932291557" lon="12.023221877321637"><ele>154.6</ele><time>2026-04-06T08:47:43.999Z</time></trkpt><trkpt lat="45.852094972708116" lon="12.023282116852572"><ele>154.8</ele><time>2026-04-06T08:47:44.999Z</time></trkpt><trkpt lat="45.85219678505672" lon="12.02336953309487"><ele>155.0</ele><time>2026-04-06T08:47:45.999Z</time></trkpt><trkpt lat="45.852286042535404" lon="12.023455409684486"><ele>155.0</ele><time>2026-04-06T08:47:46.999Z</time></trkpt><trkpt lat="45.85237684287672" lon="12.023512856115827"><ele>155.0</ele><time>2026-04-06T08:47:47.999Z</time></trkpt><trkpt lat="45.852460154340335" lon="12.02356921115688"><ele>155.0</ele><time>2026-04-06T08:47:48.999Z</time></trkpt><trkpt lat="45.852533239600014" lon="12.023622554378255"><ele>155.0</ele><time>2026-04-06T08:47:49.999Z</time></trkpt><trkpt lat="45.852593655011994" lon="12.023667259241178"><ele>155.0</ele><time>2026-04-06T08:47:50.999Z</time></trkpt><trkpt lat="45.8526749678954" lon="12.023723690695993"><ele>155.0</ele><time>2026-04-06T08:47:52.999Z</time></trkpt><trkpt lat="45.85276386308344" lon="12.023782653386554"><ele>154.83333333333331</ele><time>2026-04-06T08:47:54.999Z</time></trkpt><trkpt lat="45.852828643997604" lon="12.023829136510967"><ele>154.66666666666666</ele><time>2026-04-06T08:47:55.999Z</time></trkpt><trkpt lat="45.852894473457035" lon="12.023871596901987"><ele>154.5</ele><time>2026-04-06T08:47:56.999Z</time></trkpt><trkpt lat="45.85296177451746" lon="12.023921629082787"><ele>154.33333333333334</ele><time>2026-04-06T08:47:57.999Z</time></trkpt><trkpt lat="45.853047748943276" lon="12.024002782352268"><ele>154.16666666666669</ele><time>2026-04-06T08:47:58.999Z</time></trkpt><trkpt lat="45.85314289236253" lon="12.024065491545432"><ele>154.0</ele><time>2026-04-06T08:47:59.999Z</time></trkpt><trkpt lat="45.85322664606839" lon="12.02412913101633"><ele>153.83333333333334</ele><time>2026-04-06T08:48:00.999Z</time></trkpt><trkpt lat="45.853299202807904" lon="12.024189039833638"><ele>153.66666666666669</ele><time>2026-04-06T08:48:01.999Z</time></trkpt><trkpt lat="45.85337130893182" lon="12.024237706562252"><ele>153.5</ele><time>2026-04-06T08:48:02.999Z</time></trkpt><trkpt lat="45.85343651996259" lon="12.024281501009387"><ele>153.33333333333334</ele><time>2026-04-06T08:48:03.999Z</time></trkpt><trkpt lat="45.85351539460307" lon="12.024341869994476"><ele>153.16666666666666</ele><time>2026-04-06T08:48:05.999Z</time></trkpt><trkpt lat="45.853576879411385" lon="12.024392153219312"><ele>153.0</ele><time>2026-04-06T08:48:07.999Z</time></trkpt><trkpt lat="45.853648107655495" lon="12.024451574999912"><ele>153.28571428571428</ele><time>2026-04-06T08:48:10.999Z</time></trkpt><trkpt lat="45.85370950077739" lon="12.024521679816576"><ele>153.57142857142858</ele><time>2026-04-06T08:48:13.999Z</time></trkpt><trkpt lat="45.85375711262899" lon="12.024615449249152"><ele>153.85714285714286</ele><time>2026-04-06T08:48:17.999Z</time></trkpt><trkpt lat="45.8537844492726" lon="12.024707359647625"><ele>154.14285714285714</ele><time>2026-04-06T08:48:19.999Z</time></trkpt><trkpt lat="45.85380392195499" lon="12.024798016463151"><ele>154.42857142857142</ele><time>2026-04-06T08:48:26.999Z</time></trkpt><trkpt lat="45.8538217461302" lon="12.024887012974757"><ele>154.71428571428572</ele><time>2026-04-06T08:48:29.999Z</time></trkpt><trkpt lat="45.85384954911732" lon="12.024984405079891"><ele>155.0</ele><time>2026-04-06T08:48:33.999Z</time></trkpt><trkpt lat="45.85391330603494" lon="12.025068844273669"><ele>155.0</ele><time>2026-04-06T08:48:37.999Z</time></trkpt><trkpt lat="45.85397851640785" lon="12.025104417295896"><ele>155.0</ele><time>2026-04-06T08:48:41Z</time></trkpt><trkpt lat="45.85406114157651" lon="12.02505122694457"><ele>155.0</ele><time>2026-04-06T08:48:43Z</time></trkpt><trkpt lat="45.85414208093215" lon="12.025045154975952"><ele>155.0</ele><time>2026-04-06T08:48:46Z</time></trkpt><trkpt lat="45.854207161964446" lon="12.02502734758099"><ele>155.0</ele><time>2026-04-06T08:48:48Z</time></trkpt><trkpt lat="45.854284705293075" lon="12.0250178460414"><ele>155.0</ele><time>2026-04-06T08:48:50Z</time></trkpt><trkpt lat="45.854365244837524" lon="12.0249983376502"><ele>154.85714285714286</ele><time>2026-04-06T08:48:52Z</time></trkpt><trkpt lat="45.85444362053334" lon="12.024981679899792"><ele>154.71428571428572</ele><time>2026-04-06T08:48:54Z</time></trkpt><trkpt lat="45.85451531315291" lon="12.024965708971344"><ele>154.57142857142856</ele><time>2026-04-06T08:48:56Z</time></trkpt><trkpt lat="45.854579435038744" lon="12.024952435564764"><ele>154.42857142857144</ele><time>2026-04-06T08:48:58Z</time></trkpt><trkpt lat="45.85465001833442" lon="12.024934567511187"><ele>154.28571428571428</ele><time>2026-04-06T08:49:00Z</time></trkpt><trkpt lat="45.85472143631024" lon="12.024916693982506"><ele>154.14285714285714</ele><time>2026-04-06T08:49:02Z</time></trkpt><trkpt lat="45.854785193082755" lon="12.024898297732536"><ele>154.0</ele><time>2026-04-06T08:49:04Z</time></trkpt><trkpt lat="45.85485898861548" lon="12.024875205772979"><ele>154.0</ele><time>2026-04-06T08:49:07Z</time></trkpt><trkpt lat="45.854922509926816" lon="12.024881032727215"><ele>154.0</ele><time>2026-04-06T08:49:09Z</time></trkpt><trkpt lat="45.85501712110344" lon="12.024856082467029"><ele>154.0</ele><time>2026-04-06T08:49:11Z</time></trkpt><trkpt lat="45.85508566521476" lon="12.024837691015811"><ele>154.0</ele><time>2026-04-06T08:49:12Z</time></trkpt><trkpt lat="45.85520152936516" lon="12.02480323295064"><ele>154.0</ele><time>2026-04-06T08:49:14Z</time></trkpt><trkpt lat="45.85528366067391" lon="12.024757969143804"><ele>154.0</ele><time>2026-04-06T08:49:16Z</time></trkpt><trkpt lat="45.8553557442991" lon="12.024753408300764"><ele>154.16666666666669</ele><time>2026-04-06T08:49:19Z</time></trkpt><trkpt lat="45.85544429588044" lon="12.024757942813274"><ele>154.33333333333334</ele><time>2026-04-06T08:49:24Z</time></trkpt><trkpt lat="45.85552474790899" lon="12.024767613554895"><ele>154.5</ele><time>2026-04-06T08:49:26Z</time></trkpt><trkpt lat="45.85561950231394" lon="12.024709056130657"><ele>154.66666666666666</ele><time>2026-04-06T08:49:28Z</time></trkpt><trkpt lat="45.8556819527507" lon="12.024661318268395"><ele>154.83333333333331</ele><time>2026-04-06T08:49:29Z</time></trkpt><trkpt lat="45.85575525917438" lon="12.024631560348254"><ele>155.0</ele><time>2026-04-06T08:49:30Z</time></trkpt><trkpt lat="45.85585768508644" lon="12.024594544522678"><ele>154.5</ele><time>2026-04-06T08:49:31Z</time></trkpt><trkpt lat="45.855978825557195" lon="12.024571725151434"><ele>154.0</ele><time>2026-04-06T08:49:32Z</time></trkpt><trkpt lat="45.85613570266125" lon="12.024568446505306"><ele>153.5</ele><time>2026-04-06T08:49:33Z</time></trkpt><trkpt lat="45.85630463535814" lon="12.024583768602637"><ele>153.0</ele><time>2026-04-06T08:49:34Z</time></trkpt><trkpt lat="45.85643362044062" lon="12.024591592470314"><ele>153.0</ele><time>2026-04-06T08:49:35Z</time></trkpt><trkpt lat="45.85650381540141" lon="12.02458326970524"><ele>153.0</ele><time>2026-04-06T08:49:36Z</time></trkpt></trkseg><trkseg><trkpt lat="45.86479733596147" lon="12.0402448887092"><ele>149.0</ele><time>2026-04-06T08:53:51.935Z</time></trkpt><trkpt lat="45.86487353271545" lon="12.040300177889698"><ele>149.0</ele><time>2026-04-06T08:53:52.935Z</time></trkpt><trkpt lat="45.86496753771803" lon="12.040390897580094"><ele>149.0</ele><time>2026-04-06T08:53:53.935Z</time></trkpt><trkpt lat="45.86507635241028" lon="12.040505104016335"><ele>149.0</ele><time>2026-04-06T08:53:54.935Z</time></trkpt><trkpt lat="45.86518398936937" lon="12.040637681656841"><ele>148.66666666666666</ele><time>2026-04-06T08:53:55.935Z</time></trkpt><trkpt lat="45.865300161591655" lon="12.04076963874655"><ele>148.33333333333334</ele><time>2026-04-06T08:53:56.935Z</time></trkpt><trkpt lat="45.86543941123294" lon="12.040917353911173"><ele>148.0</ele><time>2026-04-06T08:53:58Z</time></trkpt><trkpt lat="45.865564962829225" lon="12.041059653007785"><ele>147.75</ele><time>2026-04-06T08:53:59Z</time></trkpt><trkpt lat="45.86568033076756" lon="12.041193256294155"><ele>147.5</ele><time>2026-04-06T08:54:00Z</time></trkpt><trkpt lat="45.8657836306234" lon="12.041315395012735"><ele>147.25</ele><time>2026-04-06T08:54:01Z</time></trkpt><trkpt lat="45.865878011003794" lon="12.041424696256685"><ele>147.0</ele><time>2026-04-06T08:54:02Z</time></trkpt><trkpt lat="45.86597763046775" lon="12.041539123624633"><ele>146.83333333333334</ele><time>2026-04-06T08:54:03Z</time></trkpt><trkpt lat="45.8660679860135" lon="12.041636402965993"><ele>146.66666666666666</ele><time>2026-04-06T08:54:04Z</time></trkpt><trkpt lat="45.866135895120756" lon="12.041711014251403"><ele>146.5</ele><time>2026-04-06T08:54:05Z</time></trkpt><trkpt lat="45.86618285076123" lon="12.041776045602992"><ele>146.33333333333331</ele><time>2026-04-06T08:54:06Z</time></trkpt><trkpt lat="45.86624145143532" lon="12.041844870320249"><ele>146.16666666666666</ele><time>2026-04-06T08:54:07Z</time></trkpt><trkpt lat="45.86629668342133" lon="12.041894847717133"><ele>146.0</ele><time>2026-04-06T08:54:08Z</time></trkpt><trkpt lat="45.86634639327185" lon="12.041953236641257"><ele>146.0</ele><time>2026-04-06T08:54:09Z</time></trkpt><trkpt lat="45.86639788791822" lon="12.042017127762664"><ele>146.0</ele><time>2026-04-06T08:54:13Z</time></trkpt><trkpt lat="45.866472660212445" lon="12.042112854249448"><ele>146.0</ele><time>2026-04-06T08:54:16Z</time></trkpt><trkpt lat="45.86655148144972" lon="12.042194279253335"><ele>146.0</ele><time>2026-04-06T08:54:18Z</time></trkpt><trkpt lat="45.866647849006284" lon="12.042330261508715"><ele>146.0</ele><time>2026-04-06T08:54:20Z</time></trkpt><trkpt lat="45.86673187955963" lon="12.04242624731618"><ele>146.0</ele><time>2026-04-06T08:54:21Z</time></trkpt><trkpt lat="45.86681594250431" lon="12.042512250274601"><ele>146.0</ele><time>2026-04-06T08:54:22Z</time></trkpt><trkpt lat="45.86686871974403" lon="12.042593308001662"><ele>146.0</ele><time>2026-04-06T08:54:23Z</time></trkpt><trkpt lat="45.86693865433478" lon="12.042670739082837"><ele>146.0</ele><time>2026-04-06T08:54:24Z</time></trkpt><trkpt lat="45.86702020167752" lon="12.042760249776876"><ele>146.0</ele><time>2026-04-06T08:54:25Z</time></trkpt><trkpt lat="45.867138676939746" lon="12.042880387706932"><ele>146.0</ele><time>2026-04-06T08:54:26Z</time></trkpt><trkpt lat="45.86726686793018" lon="12.043016141255153"><ele>146.0</ele><time>2026-04-06T08:54:27Z</time></trkpt><trkpt lat="45.867367230930654" lon="12.043149156430603"><ele>146.0</ele><time>2026-04-06T08:54:28Z</time></trkpt><trkpt lat="45.867468976638754" lon="12.043268928148507"><ele>146.0</ele><time>2026-04-06T08:54:29Z</time></trkpt><trkpt lat="45.867575601406436" lon="12.04339143901681"><ele>145.5</ele><time>2026-04-06T08:54:30Z</time></trkpt><trkpt lat="45.867688728076914" lon="12.043523283081505"><ele>145.0</ele><time>2026-04-06T08:54:31Z</time></trkpt><trkpt lat="45.867796618803155" lon="12.043649903725672"><ele>144.5</ele><time>2026-04-06T08:54:31.999Z</time></trkpt><trkpt lat="45.86789883656553" lon="12.043769382600658"><ele>144.0</ele><time>2026-04-06T08:54:32.999Z</time></trkpt><trkpt lat="45.86799755102695" lon="12.043888012521375"><ele>144.0</ele><time>2026-04-06T08:54:33.999Z</time></trkpt><trkpt lat="45.868085415282195" lon="12.043992194693459"><ele>144.0</ele><time>2026-04-06T08:54:34.999Z</time></trkpt><trkpt lat="45.86816932494208" lon="12.044082580950624"><ele>144.0</ele><time>2026-04-06T08:54:35.999Z</time></trkpt><trkpt lat="45.86826436834946" lon="12.04418776391032"><ele>144.0</ele><time>2026-04-06T08:54:36.999Z</time></trkpt><trkpt lat="45.868364396506486" lon="12.044302426222457"><ele>144.25</ele><time>2026-04-06T08:54:37.999Z</time></trkpt><trkpt lat="45.868466313247865" lon="12.04442288854847"><ele>144.5</ele><time>2026-04-06T08:54:38.999Z</time></trkpt><trkpt lat="45.86857471549932" lon="12.044542973130254"><ele>144.75</ele><time>2026-04-06T08:54:39.999Z</time></trkpt><trkpt lat="45.868678511542555" lon="12.044657644158303"><ele>145.0</ele><time>2026-04-06T08:54:40.999Z</time></trkpt><trkpt lat="45.868771920373995" lon="12.044757747359935"><ele>145.0</ele><time>2026-04-06T08:54:41.999Z</time></trkpt><trkpt lat="45.868863509793044" lon="12.044849395154753"><ele>145.0</ele><time>2026-04-06T08:54:42.999Z</time></trkpt><trkpt lat="45.86895295317425" lon="12.044941568237153"><ele>145.0</ele><time>2026-04-06T08:54:43.999Z</time></trkpt><trkpt lat="45.869050853103666" lon="12.045039615905708"><ele>145.0</ele><time>2026-04-06T08:54:44.999Z</time></trkpt><trkpt lat="45.86916274490187" lon="12.045144071390848"><ele>144.5</ele><time>2026-04-06T08:54:45.999Z</time></trkpt><trkpt lat="45.8692678552784" lon="12.04524212580008"><ele>144.0</ele><time>2026-04-06T08:54:46.999Z</time></trkpt><trkpt lat="45.86936719147241" lon="12.045340845893383"><ele>143.5</ele><time>2026-04-06T08:54:47.999Z</time></trkpt><trkpt lat="45.86946744447615" lon="12.045446683834655"><ele>143.0</ele><time>2026-04-06T08:54:48.999Z</time></trkpt><trkpt lat="45.869578447705166" lon="12.045553327261802"><ele>143.0</ele><time>2026-04-06T08:54:49.999Z</time></trkpt><trkpt lat="45.86969338384743" lon="12.045667353842193"><ele>143.0</ele><time>2026-04-06T08:54:50.999Z</time></trkpt><trkpt lat="45.86981006248391" lon="12.04578528052101"><ele>143.0</ele><time>2026-04-06T08:54:51.999Z</time></trkpt><trkpt lat="45.86992528571736" lon="12.045902049193487"><ele>143.0</ele><time>2026-04-06T08:54:52.999Z</time></trkpt><trkpt lat="45.87003648467691" lon="12.046015787872639"><ele>142.75</ele><time>2026-04-06T08:54:53.999Z</time></trkpt><trkpt lat="45.87013879923955" lon="12.046113740929663"><ele>142.5</ele><time>2026-04-06T08:54:54.999Z</time></trkpt><trkpt lat="45.87023776340987" lon="12.046212295482395"><ele>142.25</ele><time>2026-04-06T08:54:55.999Z</time></trkpt><trkpt lat="45.87033095297767" lon="12.046313660433018"><ele>142.0</ele><time>2026-04-06T08:54:56.999Z</time></trkpt><trkpt lat="45.87042605102214" lon="12.046408416991548"><ele>142.0</ele><time>2026-04-06T08:54:57.999Z</time></trkpt><trkpt lat="45.87052855827845" lon="12.046507365342363"><ele>142.0</ele><time>2026-04-06T08:54:58.999Z</time></trkpt><trkpt lat="45.870627678992655" lon="12.046606367157672"><ele>142.0</ele><time>2026-04-06T08:54:59.999Z</time></trkpt><trkpt lat="45.87072503196943" lon="12.046700485159484"><ele>142.0</ele><time>2026-04-06T08:55:00.999Z</time></trkpt><trkpt lat="45.87081497732569" lon="12.046790655836405"><ele>142.0</ele><time>2026-04-06T08:55:01.999Z</time></trkpt><trkpt lat="45.870904405454674" lon="12.046884083536106"><ele>142.0</ele><time>2026-04-06T08:55:02.999Z</time></trkpt><trkpt lat="45.87099781942706" lon="12.046980742339029"><ele>142.0</ele><time>2026-04-06T08:55:03.999Z</time></trkpt><trkpt lat="45.87109658480335" lon="12.047081357380613"><ele>142.0</ele><time>2026-04-06T08:55:04.999Z</time></trkpt><trkpt lat="45.871200231323336" lon="12.047181907007545"><ele>142.0</ele><time>2026-04-06T08:55:05.999Z</time></trkpt><trkpt lat="45.8712993880892" lon="12.047280234277242"><ele>142.0</ele><time>2026-04-06T08:55:06.999Z</time></trkpt><trkpt lat="45.87138937764546" lon="12.047372834078525"><ele>142.0</ele><time>2026-04-06T08:55:07.999Z</time></trkpt><trkpt lat="45.87147709870003" lon="12.047458693917939"><ele>142.0</ele><time>2026-04-06T08:55:08.999Z</time></trkpt><trkpt lat="45.87156434813855" lon="12.047552023100547"><ele>142.0</ele><time>2026-04-06T08:55:09.999Z</time></trkpt><trkpt lat="45.87167027503858" lon="12.047629089787932"><ele>142.0</ele><time>2026-04-06T08:55:10.999Z</time></trkpt><trkpt lat="45.87179728634786" lon="12.047682629380086"><ele>142.0</ele><time>2026-04-06T08:55:11.999Z</time></trkpt><trkpt lat="45.87192037334774" lon="12.047725478190184"><ele>142.0</ele><time>2026-04-06T08:55:12.999Z</time></trkpt><trkpt lat="45.87204345332269" lon="12.047731394205254"><ele>142.0</ele><time>2026-04-06T08:55:13.999Z</time></trkpt><trkpt lat="45.87216683223808" lon="12.047701172170566"><ele>142.0</ele><time>2026-04-06T08:55:14.999Z</time></trkpt><trkpt lat="45.872295633701796" lon="12.04765743498096"><ele>142.0</ele><time>2026-04-06T08:55:15.999Z</time></trkpt><trkpt lat="45.87242345562089" lon="12.047604078667241"><ele>142.0</ele><time>2026-04-06T08:55:16.999Z</time></trkpt><trkpt lat="45.872547893309196" lon="12.047550525536103"><ele>142.0</ele><time>2026-04-06T08:55:17.999Z</time></trkpt><trkpt lat="45.8726709762837" lon="12.047491108351698"><ele>141.75</ele><time>2026-04-06T08:55:18.999Z</time></trkpt><trkpt lat="45.872807466458596" lon="12.047417272719072"><ele>141.5</ele><time>2026-04-06T08:55:19.999Z</time></trkpt><trkpt lat="45.87295153691686" lon="12.04734275954155"><ele>141.25</ele><time>2026-04-06T08:55:20.999Z</time></trkpt><trkpt lat="45.87308896310677" lon="12.047279965051954"><ele>141.0</ele><time>2026-04-06T08:55:21.999Z</time></trkpt><trkpt lat="45.873219268134314" lon="12.047220198913344"><ele>141.0</ele><time>2026-04-06T08:55:22.999Z</time></trkpt><trkpt lat="45.873353437564376" lon="12.047159138297724"><ele>141.0</ele><time>2026-04-06T08:55:23.999Z</time></trkpt><trkpt lat="45.87348927770508" lon="12.04709689750878"><ele>141.0</ele><time>2026-04-06T08:55:24.999Z</time></trkpt><trkpt lat="45.87362865434723" lon="12.04703437987236"><ele>141.0</ele><time>2026-04-06T08:55:25.999Z</time></trkpt><trkpt lat="45.87376598848141" lon="12.046967556173257"><ele>141.66666666666666</ele><time>2026-04-06T08:55:26.999Z</time></trkpt><trkpt lat="45.873918425414956" lon="12.046889141306126"><ele>142.33333333333331</ele><time>2026-04-06T08:55:27.999Z</time></trkpt><trkpt lat="45.87409694413808" lon="12.046825809810855"><ele>143.0</ele><time>2026-04-06T08:55:28.999Z</time></trkpt><trkpt lat="45.87425836982294" lon="12.046728784356205"><ele>143.33333333333331</ele><time>2026-04-06T08:55:29.999Z</time></trkpt><trkpt lat="45.87439983600437" lon="12.046665702382027"><ele>143.66666666666666</ele><time>2026-04-06T08:55:30.999Z</time></trkpt><trkpt lat="45.874556996394396" lon="12.046615902318658"><ele>144.0</ele><time>2026-04-06T08:55:31.999Z</time></trkpt><trkpt lat="45.87473513611138" lon="12.046534743242841"><ele>144.25</ele><time>2026-04-06T08:55:32.999Z</time></trkpt><trkpt lat="45.874901313960294" lon="12.046450372835125"><ele>144.5</ele><time>2026-04-06T08:55:33.999Z</time></trkpt><trkpt lat="45.87503892015865" lon="12.04639397559126"><ele>144.75</ele><time>2026-04-06T08:55:34.999Z</time></trkpt><trkpt lat="45.87514503437454" lon="12.046345806648832"><ele>145.0</ele><time>2026-04-06T08:55:35.999Z</time></trkpt><trkpt lat="45.875227110662884" lon="12.046306503100343"><ele>145.0</ele><time>2026-04-06T08:55:36.999Z</time></trkpt><trkpt lat="45.87530510663591" lon="12.046269564417592"><ele>145.0</ele><time>2026-04-06T08:55:37.999Z</time></trkpt><trkpt lat="45.87539080755168" lon="12.046228830076824"><ele>145.0</ele><time>2026-04-06T08:55:38.999Z</time></trkpt><trkpt lat="45.875489903373634" lon="12.04618689487255"><ele>145.0</ele><time>2026-04-06T08:55:39.999Z</time></trkpt><trkpt lat="45.87559325894472" lon="12.046146686675986"><ele>145.0</ele><time>2026-04-06T08:55:40.999Z</time></trkpt><trkpt lat="45.87570540699319" lon="12.046093432118461"><ele>145.0</ele><time>2026-04-06T08:55:41.999Z</time></trkpt><trkpt lat="45.87581865649373" lon="12.046036664711064"><ele>145.0</ele><time>2026-04-06T08:55:42.999Z</time></trkpt><trkpt lat="45.875935675932894" lon="12.04597940659838"><ele>145.0</ele><time>2026-04-06T08:55:43.999Z</time></trkpt><trkpt lat="45.8760565783621" lon="12.045925433096295"><ele>145.0</ele><time>2026-04-06T08:55:44.999Z</time></trkpt><trkpt lat="45.87617538299073" lon="12.045875545939555"><ele>145.5</ele><time>2026-04-06T08:55:45.999Z</time></trkpt><trkpt lat="45.876287394590314" lon="12.045823399745792"><ele>146.0</ele><time>2026-04-06T08:55:46.999Z</time></trkpt><trkpt lat="45.876400244955285" lon="12.045777468413222"><ele>146.5</ele><time>2026-04-06T08:55:47.999Z</time></trkpt><trkpt lat="45.87651476094582" lon="12.045732453764943"><ele>147.0</ele><time>2026-04-06T08:55:48.999Z</time></trkpt><trkpt lat="45.87661564420288" lon="12.045684032714872"><ele>147.6</ele><time>2026-04-06T08:55:49.999Z</time></trkpt><trkpt lat="45.87670990049052" lon="12.045641777182361"><ele>148.2</ele><time>2026-04-06T08:55:50.999Z</time></trkpt><trkpt lat="45.87679986937943" lon="12.04561262342948"><ele>148.8</ele><time>2026-04-06T08:55:51.999Z</time></trkpt><trkpt lat="45.876880636073935" lon="12.045584896489231"><ele>149.4</ele><time>2026-04-06T08:55:52.999Z</time></trkpt><trkpt lat="45.87696724138861" lon="12.04555585806488"><ele>150.0</ele><time>2026-04-06T08:55:53.999Z</time></trkpt><trkpt lat="45.877066538776425" lon="12.045563019221243"><ele>150.0</ele><time>2026-04-06T08:55:54.999Z</time></trkpt><trkpt lat="45.87717654403361" lon="12.045603080950428"><ele>150.0</ele><time>2026-04-06T08:55:55.999Z</time></trkpt><trkpt lat="45.87728798487504" lon="12.045664306156125"><ele>150.0</ele><time>2026-04-06T08:55:56.999Z</time></trkpt><trkpt lat="45.87739323085936" lon="12.045737005272299"><ele>150.0</ele><time>2026-04-06T08:55:57.999Z</time></trkpt><trkpt lat="45.87749278728363" lon="12.04581607022173"><ele>150.0</ele><time>2026-04-06T08:55:58.999Z</time></trkpt><trkpt lat="45.877586862274526" lon="12.045874129715095"><ele>150.0</ele><time>2026-04-06T08:55:59.999Z</time></trkpt><trkpt lat="45.877670932296944" lon="12.045922189230845"><ele>150.0</ele><time>2026-04-06T08:56:00.999Z</time></trkpt><trkpt lat="45.87774668292025" lon="12.045978166234347"><ele>150.0</ele><time>2026-04-06T08:56:01.998Z</time></trkpt><trkpt lat="45.87782481493648" lon="12.046031319490101"><ele>150.0</ele><time>2026-04-06T08:56:02.998Z</time></trkpt><trkpt lat="45.8779000908382" lon="12.046098534833757"><ele>150.0</ele><time>2026-04-06T08:56:03.998Z</time></trkpt><trkpt lat="45.87796573828047" lon="12.046180779172177"><ele>150.0</ele><time>2026-04-06T08:56:04.998Z</time></trkpt><trkpt lat="45.87801950059778" lon="12.046280101851966"><ele>150.0</ele><time>2026-04-06T08:56:05.998Z</time></trkpt><trkpt lat="45.878064339474506" lon="12.046386183191244"><ele>150.0</ele><time>2026-04-06T08:56:06.998Z</time></trkpt><trkpt lat="45.878106523632106" lon="12.04650692604645"><ele>150.0</ele><time>2026-04-06T08:56:07.998Z</time></trkpt><trkpt lat="45.87815518593078" lon="12.046631966966926"><ele>150.0</ele><time>2026-04-06T08:56:08.998Z</time></trkpt><trkpt lat="45.87820578804081" lon="12.046765774323628"><ele>150.0</ele><time>2026-04-06T08:56:09.998Z</time></trkpt><trkpt lat="45.878261398339355" lon="12.046920914242177"><ele>150.0</ele><time>2026-04-06T08:56:10.998Z</time></trkpt><trkpt lat="45.87832189962275" lon="12.047091017757477"><ele>150.0</ele><time>2026-04-06T08:56:11.998Z</time></trkpt><trkpt lat="45.878390207739365" lon="12.047251902330906"><ele>150.25</ele><time>2026-04-06T08:56:12.998Z</time></trkpt><trkpt lat="45.87844901809482" lon="12.047401244293289"><ele>150.5</ele><time>2026-04-06T08:56:13.998Z</time></trkpt><trkpt lat="45.878507181369386" lon="12.047542715096316"><ele>150.75</ele><time>2026-04-06T08:56:14.998Z</time></trkpt><trkpt lat="45.878566586286766" lon="12.047683395582206"><ele>151.0</ele><time>2026-04-06T08:56:15.998Z</time></trkpt><trkpt lat="45.87862642542658" lon="12.047830762704919"><ele>151.0</ele><time>2026-04-06T08:56:16.998Z</time></trkpt><trkpt lat="45.87869276850929" lon="12.047995651504152"><ele>151.0</ele><time>2026-04-06T08:56:17.998Z</time></trkpt><trkpt lat="45.87878004066362" lon="12.04816178990938"><ele>151.0</ele><time>2026-04-06T08:56:18.998Z</time></trkpt><trkpt lat="45.878894969357965" lon="12.048320755549987"><ele>151.0</ele><time>2026-04-06T08:56:19.998Z</time></trkpt><trkpt lat="45.87903129185755" lon="12.048457598366536"><ele>151.33333333333334</ele><time>2026-04-06T08:56:20.998Z</time></trkpt><trkpt lat="45.879178849159885" lon="12.048573265536886"><ele>151.66666666666666</ele><time>2026-04-06T08:56:21.998Z</time></trkpt><trkpt lat="45.87936290715764" lon="12.048681521321601"><ele>152.0</ele><time>2026-04-06T08:56:22.998Z</time></trkpt><trkpt lat="45.87955288521843" lon="12.048783168481547"><ele>152.0</ele><time>2026-04-06T08:56:23.998Z</time></trkpt><trkpt lat="45.87972293023324" lon="12.048900840447931"><ele>152.0</ele><time>2026-04-06T08:56:24.998Z</time></trkpt><trkpt lat="45.879884426964274" lon="12.049010003690215"><ele>152.0</ele><time>2026-04-06T08:56:25.998Z</time></trkpt><trkpt lat="45.880069060756455" lon="12.04914162816098"><ele>153.5</ele><time>2026-04-06T08:56:26.998Z</time></trkpt><trkpt lat="45.880299374464315" lon="12.049284055816148"><ele>155.0</ele><time>2026-04-06T08:56:27.998Z</time></trkpt><trkpt lat="45.880540891624" lon="12.049476191003611"><ele>155.0</ele><time>2026-04-06T08:56:28.998Z</time></trkpt><trkpt lat="45.88076709335433" lon="12.04963482165928"><ele>155.0</ele><time>2026-04-06T08:56:29.999Z</time></trkpt><trkpt lat="45.880968270907" lon="12.049769036350073"><ele>153.0</ele><time>2026-04-06T08:56:30.999Z</time></trkpt><trkpt lat="45.88115746269042" lon="12.049882982343153"><ele>151.0</ele><time>2026-04-06T08:56:31.999Z</time></trkpt><trkpt lat="45.881337144772445" lon="12.049996817471252"><ele>149.0</ele><time>2026-04-06T08:56:32.999Z</time></trkpt><trkpt lat="45.88150270945838" lon="12.050123809870017"><ele>149.0</ele><time>2026-04-06T08:56:33.999Z</time></trkpt><trkpt lat="45.88166924901714" lon="12.050254252781953"><ele>149.0</ele><time>2026-04-06T08:56:34.999Z</time></trkpt><trkpt lat="45.88184525316865" lon="12.050400362118049"><ele>149.0</ele><time>2026-04-06T08:56:35.999Z</time></trkpt><trkpt lat="45.88201570510537" lon="12.05060642613706"><ele>148.5</ele><time>2026-04-06T08:56:36.999Z</time></trkpt><trkpt lat="45.88218566683858" lon="12.050859678184725"><ele>148.0</ele><time>2026-04-06T08:56:37.999Z</time></trkpt><trkpt lat="45.88235724111481" lon="12.05110061937428"><ele>148.0</ele><time>2026-04-06T08:56:38.999Z</time></trkpt><trkpt lat="45.882522826788076" lon="12.051333545766667"><ele>148.0</ele><time>2026-04-06T08:56:39.999Z</time></trkpt><trkpt lat="45.88267198998489" lon="12.051552227588878"><ele>148.0</ele><time>2026-04-06T08:56:40.999Z</time></trkpt><trkpt lat="45.88281470026484" lon="12.051763570651762"><ele>147.0</ele><time>2026-04-06T08:56:41.999Z</time></trkpt><trkpt lat="45.882958829350116" lon="12.051976860105006"><ele>146.0</ele><time>2026-04-06T08:56:42.999Z</time></trkpt><trkpt lat="45.88310172925103" lon="12.05221489891651"><ele>145.0</ele><time>2026-04-06T08:56:43.999Z</time></trkpt><trkpt lat="45.88323795004246" lon="12.052512338388423"><ele>145.0</ele><time>2026-04-06T08:56:44.999Z</time></trkpt><trkpt lat="45.88337488497526" lon="12.052841559475535"><ele>145.0</ele><time>2026-04-06T08:56:45.999Z</time></trkpt><trkpt lat="45.8835068510682" lon="12.053177694283477"><ele>151.0</ele><time>2026-04-06T08:56:46.999Z</time></trkpt><trkpt lat="45.883620098551035" lon="12.053497132106209"><ele>157.0</ele><time>2026-04-06T08:56:47.999Z</time></trkpt><trkpt lat="45.88372522728869" lon="12.05380370849336"><ele>157.0</ele><time>2026-04-06T08:56:48.999Z</time></trkpt><trkpt lat="45.88382885824162" lon="12.054093764656445"><ele>157.0</ele><time>2026-04-06T08:56:49.999Z</time></trkpt><trkpt lat="45.88392280507398" lon="12.0543173470817"><ele>157.0</ele><time>2026-04-06T08:56:50.999Z</time></trkpt><trkpt lat="45.88403224951251" lon="12.054563882292756"><ele>154.5</ele><time>2026-04-06T08:56:51.999Z</time></trkpt><trkpt lat="45.88417683469316" lon="12.054806923093373"><ele>152.0</ele><time>2026-04-06T08:56:52.999Z</time></trkpt><trkpt lat="45.884351501710015" lon="12.055040967029294"><ele>151.0</ele><time>2026-04-06T08:56:53.999Z</time></trkpt><trkpt lat="45.884547393571175" lon="12.055271821348112"><ele>150.0</ele><time>2026-04-06T08:56:54.999Z</time></trkpt><trkpt lat="45.8847325076499" lon="12.05550612544341"><ele>150.0</ele><time>2026-04-06T08:56:55.999Z</time></trkpt><trkpt lat="45.88491433576858" lon="12.055762342769636"><ele>150.0</ele><time>2026-04-06T08:56:56.999Z</time></trkpt><trkpt lat="45.88509421271713" lon="12.056059780456957"><ele>154.0</ele><time>2026-04-06T08:56:57.999Z</time></trkpt><trkpt lat="45.88525428055127" lon="12.056344379939292"><ele>158.0</ele><time>2026-04-06T08:56:58.999Z</time></trkpt><trkpt lat="45.88539719374621" lon="12.056604473219744"><ele>156.0</ele><time>2026-04-06T08:56:59.999Z</time></trkpt><trkpt lat="45.88552049407154" lon="12.056865303349536"><ele>154.0</ele><time>2026-04-06T08:57:00.999Z</time></trkpt><trkpt lat="45.885627038880024" lon="12.057170829844878"><ele>151.5</ele><time>2026-04-06T08:57:01.999Z</time></trkpt><trkpt lat="45.88573697967239" lon="12.05749906266035"><ele>149.0</ele><time>2026-04-06T08:57:02.999Z</time></trkpt><trkpt lat="45.88585254459054" lon="12.05784384892821"><ele>157.5</ele><time>2026-04-06T08:57:03.999Z</time></trkpt><trkpt lat="45.88597069944825" lon="12.058193990807858"><ele>166.0</ele><time>2026-04-06T08:57:04.999Z</time></trkpt><trkpt lat="45.88608305822267" lon="12.058557233617382"><ele>166.0</ele><time>2026-04-06T08:57:05.999Z</time></trkpt><trkpt lat="45.88618395814976" lon="12.0589188452236"><ele>166.0</ele><time>2026-04-06T08:57:06.999Z</time></trkpt><trkpt lat="45.88626665981886" lon="12.059262843124346"><ele>164.0</ele><time>2026-04-06T08:57:07.999Z</time></trkpt><trkpt lat="45.88633413634545" lon="12.059589482773294"><ele>162.0</ele><time>2026-04-06T08:57:08.999Z</time></trkpt><trkpt lat="45.88641566913031" lon="12.059902192425358"><ele>157.5</ele><time>2026-04-06T08:57:09.999Z</time></trkpt><trkpt lat="45.8865059546293" lon="12.060220854682564"><ele>153.0</ele><time>2026-04-06T08:57:10.999Z</time></trkpt><trkpt lat="45.88659597094127" lon="12.06055070246948"><ele>154.5</ele><time>2026-04-06T08:57:11.999Z</time></trkpt><trkpt lat="45.886708316356106" lon="12.060891542609044"><ele>156.0</ele><time>2026-04-06T08:57:12.999Z</time></trkpt><trkpt lat="45.886843820685904" lon="12.061250666996587"><ele>154.5</ele><time>2026-04-06T08:57:13.999Z</time></trkpt><trkpt lat="45.886997549423405" lon="12.061624688868346"><ele>153.0</ele><time>2026-04-06T08:57:14.999Z</time></trkpt><trkpt lat="45.88716694057945" lon="12.062021202682422"><ele>153.0</ele><time>2026-04-06T08:57:15.999Z</time></trkpt><trkpt lat="45.88734125911441" lon="12.062441623941911"><ele>153.0</ele><time>2026-04-06T08:57:16.999Z</time></trkpt><trkpt lat="45.88752088025124" lon="12.06286103246327"><ele>156.5</ele><time>2026-04-06T08:57:17.999Z</time></trkpt><trkpt lat="45.887695301600964" lon="12.063273195759223"><ele>160.0</ele><time>2026-04-06T08:57:18.999Z</time></trkpt><trkpt lat="45.887862338393994" lon="12.063672016817296"><ele>160.0</ele><time>2026-04-06T08:57:19.999Z</time></trkpt><trkpt lat="45.88802706146528" lon="12.06406020054864"><ele>160.0</ele><time>2026-04-06T08:57:20.999Z</time></trkpt><trkpt lat="45.88819634395928" lon="12.064456039984726"><ele>162.0</ele><time>2026-04-06T08:57:21.999Z</time></trkpt><trkpt lat="45.88836139630778" lon="12.064850904709326"><ele>164.0</ele><time>2026-04-06T08:57:22.999Z</time></trkpt><trkpt lat="45.88851776611221" lon="12.065229634039774"><ele>164.0</ele><time>2026-04-06T08:57:23.999Z</time></trkpt><trkpt lat="45.88866243932757" lon="12.065575541656331"><ele>164.0</ele><time>2026-04-06T08:57:24.999Z</time></trkpt><trkpt lat="45.888798334042114" lon="12.065893201714847"><ele>160.0</ele><time>2026-04-06T08:57:25.998Z</time></trkpt><trkpt lat="45.888923060809205" lon="12.066192163561011"><ele>156.0</ele><time>2026-04-06T08:57:26.998Z</time></trkpt><trkpt lat="45.889040808893746" lon="12.066477736083144"><ele>156.0</ele><time>2026-04-06T08:57:27.998Z</time></trkpt><trkpt lat="45.889149951591634" lon="12.06673890645944"><ele>156.0</ele><time>2026-04-06T08:57:28.998Z</time></trkpt><trkpt lat="45.889252025490755" lon="12.066982565752788"><ele>156.0</ele><time>2026-04-06T08:57:29.998Z</time></trkpt><trkpt lat="45.889349757302035" lon="12.067215565254822"><ele>156.0</ele><time>2026-04-06T08:57:30.998Z</time></trkpt><trkpt lat="45.889441556877635" lon="12.067439293601417"><ele>156.0</ele><time>2026-04-06T08:57:31.998Z</time></trkpt><trkpt lat="45.889530126223725" lon="12.067660066958322"><ele>156.0</ele><time>2026-04-06T08:57:32.998Z</time></trkpt><trkpt lat="45.88961230270093" lon="12.067852775024244"><ele>155.75</ele><time>2026-04-06T08:57:33.998Z</time></trkpt><trkpt lat="45.889687820250344" lon="12.068024671812346"><ele>155.5</ele><time>2026-04-06T08:57:34.998Z</time></trkpt><trkpt lat="45.88975931628234" lon="12.068181491203868"><ele>155.25</ele><time>2026-04-06T08:57:35.998Z</time></trkpt><trkpt lat="45.889827295197044" lon="12.068336235259789"><ele>155.0</ele><time>2026-04-06T08:57:36.998Z</time></trkpt><trkpt lat="45.88989051539427" lon="12.068482152392681"><ele>155.0</ele><time>2026-04-06T08:57:37.998Z</time></trkpt><trkpt lat="45.89001360490452" lon="12.06881094999219"><ele>155.0</ele><time>2026-04-06T08:57:38.998Z</time></trkpt><trkpt lat="45.89009304280535" lon="12.069018686853793"><ele>155.0</ele><time>2026-04-06T08:57:39.998Z</time></trkpt><trkpt lat="45.890176382683755" lon="12.069211356431436"><ele>156.0</ele><time>2026-04-06T08:57:40.998Z</time></trkpt><trkpt lat="45.89024390721107" lon="12.069402368220128"><ele>157.0</ele><time>2026-04-06T08:57:41.998Z</time></trkpt><trkpt lat="45.890320720831625" lon="12.069561137995551"><ele>158.0</ele><time>2026-04-06T08:57:42.998Z</time></trkpt><trkpt lat="45.890384442380885" lon="12.069711789868025"><ele>159.0</ele><time>2026-04-06T08:57:43.998Z</time></trkpt><trkpt lat="45.89045096505727" lon="12.069878131084169"><ele>159.75</ele><time>2026-04-06T08:57:44.998Z</time></trkpt><trkpt lat="45.89052424278941" lon="12.070055369686258"><ele>160.5</ele><time>2026-04-06T08:57:45.998Z</time></trkpt><trkpt lat="45.89059832847352" lon="12.070239242065629"><ele>161.25</ele><time>2026-04-06T08:57:46.998Z</time></trkpt><trkpt lat="45.89065825118175" lon="12.070421776972392"><ele>162.0</ele><time>2026-04-06T08:57:47.998Z</time></trkpt><trkpt lat="45.89071049058402" lon="12.070591277925528"><ele>162.0</ele><time>2026-04-06T08:57:48.998Z</time></trkpt><trkpt lat="45.89076005804165" lon="12.070764693510464"><ele>162.0</ele><time>2026-04-06T08:57:49.998Z</time></trkpt><trkpt lat="45.89080180619516" lon="12.070944034072234"><ele>162.0</ele><time>2026-04-06T08:57:50.998Z</time></trkpt><trkpt lat="45.89084306969603" lon="12.071138274433155"><ele>162.0</ele><time>2026-04-06T08:57:51.998Z</time></trkpt><trkpt lat="45.89089394769696" lon="12.0713420667444"><ele>165.25</ele><time>2026-04-06T08:57:52.998Z</time></trkpt><trkpt lat="45.890940676310336" lon="12.07155131520417"><ele>168.5</ele><time>2026-04-06T08:57:53.998Z</time></trkpt><trkpt lat="45.890981455770884" lon="12.071742689536189"><ele>171.75</ele><time>2026-04-06T08:57:54.998Z</time></trkpt><trkpt lat="45.8910090796152" lon="12.071916114653362"><ele>175.0</ele><time>2026-04-06T08:57:55.998Z</time></trkpt><trkpt lat="45.891037112910915" lon="12.072083460229003"><ele>175.0</ele><time>2026-04-06T08:57:56.998Z</time></trkpt><trkpt lat="45.89106993026453" lon="12.072261832490442"><ele>175.0</ele><time>2026-04-06T08:57:57.998Z</time></trkpt><trkpt lat="45.89110708359365" lon="12.072454302668884"><ele>175.0</ele><time>2026-04-06T08:57:58.998Z</time></trkpt><trkpt lat="45.89114706312693" lon="12.072648617026653"><ele>175.0</ele><time>2026-04-06T08:57:59.998Z</time></trkpt><trkpt lat="45.89118487769423" lon="12.072849388039197"><ele>174.0</ele><time>2026-04-06T08:58:00.998Z</time></trkpt><trkpt lat="45.8912332577698" lon="12.073038613778913"><ele>173.0</ele><time>2026-04-06T08:58:01.998Z</time></trkpt><trkpt lat="45.891266416457455" lon="12.073231726567835"><ele>172.0</ele><time>2026-04-06T08:58:02.998Z</time></trkpt><trkpt lat="45.891302426896786" lon="12.073426970269571"><ele>171.0</ele><time>2026-04-06T08:58:03.998Z</time></trkpt><trkpt lat="45.89135008810887" lon="12.073640502692463"><ele>168.66666666666666</ele><time>2026-04-06T08:58:04.998Z</time></trkpt><trkpt lat="45.891407427750956" lon="12.073900268985623"><ele>166.33333333333331</ele><time>2026-04-06T08:58:05.998Z</time></trkpt><trkpt lat="45.89146022318179" lon="12.074172122503917"><ele>164.0</ele><time>2026-04-06T08:58:06.998Z</time></trkpt><trkpt lat="45.89149888435907" lon="12.07441483653932"><ele>162.0</ele><time>2026-04-06T08:58:07.998Z</time></trkpt><trkpt lat="45.891521700181976" lon="12.074648290380736"><ele>160.0</ele><time>2026-04-06T08:58:08.998Z</time></trkpt><trkpt lat="45.8915406195703" lon="12.074869238872932"><ele>158.0</ele><time>2026-04-06T08:58:09.998Z</time></trkpt><trkpt lat="45.89155237842558" lon="12.075087352176336"><ele>157.33333333333331</ele><time>2026-04-06T08:58:10.998Z</time></trkpt><trkpt lat="45.89155764204189" lon="12.075325473073212"><ele>156.66666666666666</ele><time>2026-04-06T08:58:11.998Z</time></trkpt><trkpt lat="45.89155923783328" lon="12.075610361176155"><ele>156.0</ele><time>2026-04-06T08:58:12.998Z</time></trkpt><trkpt lat="45.89155170129567" lon="12.075902043498267"><ele>155.33333333333334</ele><time>2026-04-06T08:58:13.998Z</time></trkpt><trkpt lat="45.89154963631231" lon="12.076159894346246"><ele>154.66666666666669</ele><time>2026-04-06T08:58:14.998Z</time></trkpt><trkpt lat="45.89155126548065" lon="12.076383736780109"><ele>154.0</ele><time>2026-04-06T08:58:15.998Z</time></trkpt><trkpt lat="45.891553250114015" lon="12.076629240343568"><ele>154.0</ele><time>2026-04-06T08:58:16.999Z</time></trkpt><trkpt lat="45.89156370689918" lon="12.076898981575628"><ele>154.0</ele><time>2026-04-06T08:58:17.999Z</time></trkpt><trkpt lat="45.891588549528294" lon="12.077151912047373"><ele>154.0</ele><time>2026-04-06T08:58:18.999Z</time></trkpt><trkpt lat="45.89162088661329" lon="12.07738346270243"><ele>154.5</ele><time>2026-04-06T08:58:19.999Z</time></trkpt><trkpt lat="45.89166187418773" lon="12.077596781601045"><ele>155.0</ele><time>2026-04-06T08:58:20.999Z</time></trkpt><trkpt lat="45.89171410637464" lon="12.077794316244775"><ele>155.5</ele><time>2026-04-06T08:58:21.999Z</time></trkpt><trkpt lat="45.89178120652687" lon="12.07797909053371"><ele>156.0</ele><time>2026-04-06T08:58:22.999Z</time></trkpt><trkpt lat="45.891856826778664" lon="12.0781491753791"><ele>156.75</ele><time>2026-04-06T08:58:23.999Z</time></trkpt><trkpt lat="45.891934281575224" lon="12.078298769754184"><ele>157.5</ele><time>2026-04-06T08:58:24.999Z</time></trkpt><trkpt lat="45.89200951173705" lon="12.078440131291703"><ele>158.25</ele><time>2026-04-06T08:58:25.999Z</time></trkpt><trkpt lat="45.89208788469034" lon="12.078574239919744"><ele>159.0</ele><time>2026-04-06T08:58:26.999Z</time></trkpt><trkpt lat="45.89216821965078" lon="12.078710710670034"><ele>159.0</ele><time>2026-04-06T08:58:27.999Z</time></trkpt><trkpt lat="45.892246400451995" lon="12.078849983389276"><ele>159.0</ele><time>2026-04-06T08:58:28.999Z</time></trkpt><trkpt lat="45.892313339419175" lon="12.078985208330907"><ele>159.0</ele><time>2026-04-06T08:58:29.999Z</time></trkpt><trkpt lat="45.892372097012526" lon="12.079126387109522"><ele>159.0</ele><time>2026-04-06T08:58:30.999Z</time></trkpt><trkpt lat="45.89242956473771" lon="12.07927655385244"><ele>158.6</ele><time>2026-04-06T08:58:31.999Z</time></trkpt><trkpt lat="45.89247121964335" lon="12.079436960371568"><ele>158.2</ele><time>2026-04-06T08:58:32.999Z</time></trkpt><trkpt lat="45.892494181917016" lon="12.079590880013292"><ele>157.79999999999998</ele><time>2026-04-06T08:58:33.999Z</time></trkpt><trkpt lat="45.89250830119623" lon="12.079737874975269"><ele>157.4</ele><time>2026-04-06T08:58:34.999Z</time></trkpt><trkpt lat="45.892515093118256" lon="12.079884085942075"><ele>157.0</ele><time>2026-04-06T08:58:35.999Z</time></trkpt><trkpt lat="45.892525906235676" lon="12.080047788192543"><ele>156.75</ele><time>2026-04-06T08:58:36.999Z</time></trkpt><trkpt lat="45.89253362140437" lon="12.080241694627727"><ele>156.5</ele><time>2026-04-06T08:58:37.999Z</time></trkpt><trkpt lat="45.89254445300889" lon="12.08042120605292"><ele>156.25</ele><time>2026-04-06T08:58:38.999Z</time></trkpt><trkpt lat="45.89255706412261" lon="12.080586122287723"><ele>156.0</ele><time>2026-04-06T08:58:39.999Z</time></trkpt><trkpt lat="45.89256054026389" lon="12.080735881741706"><ele>156.2</ele><time>2026-04-06T08:58:40.999Z</time></trkpt><trkpt lat="45.89256113361137" lon="12.080886265253875"><ele>156.39999999999998</ele><time>2026-04-06T08:58:41.999Z</time></trkpt><trkpt lat="45.89256671232415" lon="12.081028437417949"><ele>156.6</ele><time>2026-04-06T08:58:42.999Z</time></trkpt><trkpt lat="45.892580245923725" lon="12.0811576110697"><ele>156.79999999999998</ele><time>2026-04-06T08:58:43.999Z</time></trkpt><trkpt lat="45.89259371716658" lon="12.081283032612381"><ele>157.0</ele><time>2026-04-06T08:58:44.999Z</time></trkpt><trkpt lat="45.89261816341024" lon="12.081417766515244"><ele>157.25</ele><time>2026-04-06T08:58:45.999Z</time></trkpt><trkpt lat="45.89265477984451" lon="12.081572787870465"><ele>157.5</ele><time>2026-04-06T08:58:46.999Z</time></trkpt><trkpt lat="45.89270968268854" lon="12.081765941547866"><ele>157.75</ele><time>2026-04-06T08:58:47.999Z</time></trkpt><trkpt lat="45.89276276213053" lon="12.081969606886776"><ele>158.0</ele><time>2026-04-06T08:58:48.999Z</time></trkpt><trkpt lat="45.89283494961276" lon="12.082161974512571"><ele>158.0</ele><time>2026-04-06T08:58:49.999Z</time></trkpt><trkpt lat="45.8929005053396" lon="12.08238379638867"><ele>158.0</ele><time>2026-04-06T08:58:50.999Z</time></trkpt><trkpt lat="45.892992263699334" lon="12.082615303479225"><ele>158.0</ele><time>2026-04-06T08:58:51.999Z</time></trkpt><trkpt lat="45.8930569874525" lon="12.082845949659388"><ele>157.75</ele><time>2026-04-06T08:58:52.999Z</time></trkpt><trkpt lat="45.89313132067165" lon="12.083036438938647"><ele>157.5</ele><time>2026-04-06T08:58:53.999Z</time></trkpt><trkpt lat="45.89319689985265" lon="12.083216377455951"><ele>157.25</ele><time>2026-04-06T08:58:54.999Z</time></trkpt><trkpt lat="45.893268984149245" lon="12.083392839066182"><ele>157.0</ele><time>2026-04-06T08:58:55.999Z</time></trkpt><trkpt lat="45.8933524376329" lon="12.083565764981007"><ele>157.5</ele><time>2026-04-06T08:58:56.999Z</time></trkpt><trkpt lat="45.89343472827227" lon="12.08373062067603"><ele>158.0</ele><time>2026-04-06T08:58:57.999Z</time></trkpt><trkpt lat="45.89350860751001" lon="12.083883771766951"><ele>158.5</ele><time>2026-04-06T08:58:58.999Z</time></trkpt><trkpt lat="45.893573607009266" lon="12.084021025590063"><ele>159.0</ele><time>2026-04-06T08:58:59.999Z</time></trkpt><trkpt lat="45.893637111662244" lon="12.084160712411789"><ele>159.0</ele><time>2026-04-06T08:59:00.999Z</time></trkpt><trkpt lat="45.89370865332069" lon="12.084316217391663"><ele>159.0</ele><time>2026-04-06T08:59:01.999Z</time></trkpt><trkpt lat="45.8937960857322" lon="12.084485909085027"><ele>159.0</ele><time>2026-04-06T08:59:02.999Z</time></trkpt><trkpt lat="45.89387815563653" lon="12.08466087574573"><ele>159.0</ele><time>2026-04-06T08:59:03.999Z</time></trkpt><trkpt lat="45.89394492007154" lon="12.084826887472"><ele>159.0</ele><time>2026-04-06T08:59:04.999Z</time></trkpt><trkpt lat="45.894015141739764" lon="12.084982639399234"><ele>159.0</ele><time>2026-04-06T08:59:05.999Z</time></trkpt><trkpt lat="45.894085533127196" lon="12.085135101891984"><ele>159.0</ele><time>2026-04-06T08:59:06.999Z</time></trkpt><trkpt lat="45.89414784070508" lon="12.085293890922998"><ele>159.0</ele><time>2026-04-06T08:59:07.999Z</time></trkpt><trkpt lat="45.894207911895954" lon="12.085462628665582"><ele>159.0</ele><time>2026-04-06T08:59:08.999Z</time></trkpt><trkpt lat="45.89426056162183" lon="12.085637137883683"><ele>159.0</ele><time>2026-04-06T08:59:09.999Z</time></trkpt><trkpt lat="45.89429628466215" lon="12.085796894645059"><ele>159.0</ele><time>2026-04-06T08:59:10.999Z</time></trkpt><trkpt lat="45.89432247490939" lon="12.085944880305087"><ele>159.0</ele><time>2026-04-06T08:59:11.999Z</time></trkpt><trkpt lat="45.89434437628654" lon="12.086089541319359"><ele>159.0</ele><time>2026-04-06T08:59:12.999Z</time></trkpt><trkpt lat="45.89435906881657" lon="12.086224154787818"><ele>159.0</ele><time>2026-04-06T08:59:13.999Z</time></trkpt><trkpt lat="45.8943697976364" lon="12.086351525327661"><ele>159.0</ele><time>2026-04-06T08:59:14.999Z</time></trkpt><trkpt lat="45.894382037382314" lon="12.086482952448073"><ele>159.0</ele><time>2026-04-06T08:59:15.999Z</time></trkpt><trkpt lat="45.894404856615594" lon="12.086619465769353"><ele>159.0</ele><time>2026-04-06T08:59:16.999Z</time></trkpt><trkpt lat="45.8944196386628" lon="12.086758973556673"><ele>159.0</ele><time>2026-04-06T08:59:17.999Z</time></trkpt><trkpt lat="45.8944382887553" lon="12.086901959950856"><ele>159.0</ele><time>2026-04-06T08:59:18.999Z</time></trkpt><trkpt lat="45.89446274481918" lon="12.087050738852753"><ele>159.0</ele><time>2026-04-06T08:59:19.999Z</time></trkpt><trkpt lat="45.894493068919054" lon="12.08720229506174"><ele>159.0</ele><time>2026-04-06T08:59:20.999Z</time></trkpt><trkpt lat="45.89453190187075" lon="12.087365699479733"><ele>159.0</ele><time>2026-04-06T08:59:21.999Z</time></trkpt><trkpt lat="45.894559041249266" lon="12.087540917265674"><ele>158.5</ele><time>2026-04-06T08:59:22.999Z</time></trkpt><trkpt lat="45.894588548387404" lon="12.08771245498535"><ele>158.0</ele><time>2026-04-06T08:59:23.999Z</time></trkpt><trkpt lat="45.89462210305506" lon="12.087884932144467"><ele>157.5</ele><time>2026-04-06T08:59:24.999Z</time></trkpt><trkpt lat="45.894617438621026" lon="12.088079155461168"><ele>157.0</ele><time>2026-04-06T08:59:25.999Z</time></trkpt><trkpt lat="45.894610442670086" lon="12.088266608819149"><ele>156.75</ele><time>2026-04-06T08:59:26.999Z</time></trkpt><trkpt lat="45.894606086016154" lon="12.08845290245492"><ele>156.5</ele><time>2026-04-06T08:59:27.999Z</time></trkpt><trkpt lat="45.89460499047768" lon="12.088635797841425"><ele>156.25</ele><time>2026-04-06T08:59:28.999Z</time></trkpt><trkpt lat="45.89460959336584" lon="12.088806695076107"><ele>156.0</ele><time>2026-04-06T08:59:29.999Z</time></trkpt><trkpt lat="45.894615935410435" lon="12.088972123734493"><ele>155.25</ele><time>2026-04-06T08:59:30.999Z</time></trkpt><trkpt lat="45.894612740489386" lon="12.089145465301861"><ele>154.5</ele><time>2026-04-06T08:59:31.999Z</time></trkpt><trkpt lat="45.894612266976516" lon="12.089323319216778"><ele>153.75</ele><time>2026-04-06T08:59:32.999Z</time></trkpt><trkpt lat="45.89461874585422" lon="12.0895144251924"><ele>153.0</ele><time>2026-04-06T08:59:33.999Z</time></trkpt><trkpt lat="45.894610075467696" lon="12.089724753912991"><ele>152.66666666666666</ele><time>2026-04-06T08:59:34.999Z</time></trkpt><trkpt lat="45.89458448291313" lon="12.089933475580578"><ele>152.33333333333331</ele><time>2026-04-06T08:59:35.999Z</time></trkpt><trkpt lat="45.89454546150227" lon="12.090147709637955"><ele>152.0</ele><time>2026-04-06T08:59:36.999Z</time></trkpt><trkpt lat="45.89446623619599" lon="12.090357883231656"><ele>152.0</ele><time>2026-04-06T08:59:37.999Z</time></trkpt><trkpt lat="45.8943850614699" lon="12.090571771745939"><ele>152.0</ele><time>2026-04-06T08:59:38.999Z</time></trkpt><trkpt lat="45.89429540568863" lon="12.090779297089316"><ele>152.0</ele><time>2026-04-06T08:59:39.999Z</time></trkpt><trkpt lat="45.894221984364655" lon="12.090984801501499"><ele>151.5</ele><time>2026-04-06T08:59:40.999Z</time></trkpt><trkpt lat="45.89414224152694" lon="12.091161160181493"><ele>151.0</ele><time>2026-04-06T08:59:41.999Z</time></trkpt><trkpt lat="45.89407152865021" lon="12.091340381069482"><ele>150.5</ele><time>2026-04-06T08:59:42.999Z</time></trkpt><trkpt lat="45.89399822613508" lon="12.091507215210676"><ele>150.0</ele><time>2026-04-06T08:59:43.999Z</time></trkpt><trkpt lat="45.89394885938422" lon="12.091685027946248"><ele>150.0</ele><time>2026-04-06T08:59:44.999Z</time></trkpt><trkpt lat="45.893913374750966" lon="12.091874505748988"><ele>150.0</ele><time>2026-04-06T08:59:45.999Z</time></trkpt><trkpt lat="45.89388390307646" lon="12.092066687935677"><ele>150.0</ele><time>2026-04-06T08:59:46.999Z</time></trkpt><trkpt lat="45.89386322388035" lon="12.092258224176328"><ele>150.0</ele><time>2026-04-06T08:59:47.999Z</time></trkpt><trkpt lat="45.89386656997726" lon="12.092450769890986"><ele>149.5</ele><time>2026-04-06T08:59:48.999Z</time></trkpt><trkpt lat="45.89388985284288" lon="12.092647731571116"><ele>149.0</ele><time>2026-04-06T08:59:49.999Z</time></trkpt><trkpt lat="45.893935034530415" lon="12.092836284466259"><ele>148.5</ele><time>2026-04-06T08:59:50.999Z</time></trkpt><trkpt lat="45.89400419320802" lon="12.093000544168886"><ele>148.0</ele><time>2026-04-06T08:59:51.999Z</time></trkpt><trkpt lat="45.89408792915665" lon="12.093144492936945"><ele>148.0</ele><time>2026-04-06T08:59:52.999Z</time></trkpt><trkpt lat="45.894188890175656" lon="12.09327282299701"><ele>148.0</ele><time>2026-04-06T08:59:53.999Z</time></trkpt><trkpt lat="45.89428886830418" lon="12.093383790406872"><ele>148.0</ele><time>2026-04-06T08:59:54.999Z</time></trkpt><trkpt lat="45.89439017503834" lon="12.093483640288172"><ele>148.0</ele><time>2026-04-06T08:59:55.999Z</time></trkpt><trkpt lat="45.89449729436206" lon="12.093577684644833"><ele>148.0</ele><time>2026-04-06T08:59:56.999Z</time></trkpt><trkpt lat="45.89460132027947" lon="12.093678281470675"><ele>148.0</ele><time>2026-04-06T08:59:57.999Z</time></trkpt><trkpt lat="45.89470505910361" lon="12.093776221179215"><ele>148.0</ele><time>2026-04-06T08:59:58.999Z</time></trkpt><trkpt lat="45.8948092905221" lon="12.093866861027458"><ele>148.0</ele><time>2026-04-06T08:59:59.999Z</time></trkpt><trkpt lat="45.8949146474632" lon="12.093969584196863"><ele>148.0</ele><time>2026-04-06T09:00:00.999Z</time></trkpt><trkpt lat="45.895025982162224" lon="12.094079059462361"><ele>148.0</ele><time>2026-04-06T09:00:01.999Z</time></trkpt><trkpt lat="45.89513849099151" lon="12.094183952191951"><ele>148.0</ele><time>2026-04-06T09:00:02.999Z</time></trkpt><trkpt lat="45.89525368220671" lon="12.094272821783518"><ele>148.0</ele><time>2026-04-06T09:00:03.999Z</time></trkpt><trkpt lat="45.89535682431458" lon="12.09436936724318"><ele>148.5</ele><time>2026-04-06T09:00:04.999Z</time></trkpt><trkpt lat="45.8954560944167" lon="12.094466244469604"><ele>149.0</ele><time>2026-04-06T09:00:05.999Z</time></trkpt><trkpt lat="45.89555525735457" lon="12.094562683907819"><ele>149.5</ele><time>2026-04-06T09:00:06.999Z</time></trkpt><trkpt lat="45.89565679773281" lon="12.094666425233164"><ele>150.0</ele><time>2026-04-06T09:00:07.999Z</time></trkpt><trkpt lat="45.89575538213643" lon="12.094800387819147"><ele>150.25</ele><time>2026-04-06T09:00:08.999Z</time></trkpt><trkpt lat="45.895839929300045" lon="12.094936870505208"><ele>150.5</ele><time>2026-04-06T09:00:09.999Z</time></trkpt><trkpt lat="45.895920737490286" lon="12.095066635428351"><ele>150.75</ele><time>2026-04-06T09:00:10.999Z</time></trkpt><trkpt lat="45.895993090150135" lon="12.095191593155503"><ele>151.0</ele><time>2026-04-06T09:00:11.999Z</time></trkpt><trkpt lat="45.89606299151909" lon="12.095317603975804"><ele>151.5</ele><time>2026-04-06T09:00:13Z</time></trkpt><trkpt lat="45.89612735114432" lon="12.095460805629395"><ele>152.0</ele><time>2026-04-06T09:00:14Z</time></trkpt><trkpt lat="45.896197344470515" lon="12.095625781278336"><ele>152.5</ele><time>2026-04-06T09:00:15Z</time></trkpt><trkpt lat="45.89626114400006" lon="12.095803031812032"><ele>153.0</ele><time>2026-04-06T09:00:16Z</time></trkpt><trkpt lat="45.89632317457081" lon="12.095978084619643"><ele>153.0</ele><time>2026-04-06T09:00:17Z</time></trkpt><trkpt lat="45.896390759712894" lon="12.096133644371129"><ele>153.0</ele><time>2026-04-06T09:00:18Z</time></trkpt><trkpt lat="45.89644584301883" lon="12.096271953235298"><ele>153.0</ele><time>2026-04-06T09:00:19Z</time></trkpt><trkpt lat="45.89649319958196" lon="12.09640318983576"><ele>153.0</ele><time>2026-04-06T09:00:20Z</time></trkpt><trkpt lat="45.89654003598082" lon="12.096521971561465"><ele>153.0</ele><time>2026-04-06T09:00:21Z</time></trkpt><trkpt lat="45.896586552060775" lon="12.096624261103727"><ele>153.16666666666666</ele><time>2026-04-06T09:00:22Z</time></trkpt><trkpt lat="45.89663097908157" lon="12.096723327603813"><ele>153.33333333333334</ele><time>2026-04-06T09:00:23Z</time></trkpt><trkpt lat="45.896666352543484" lon="12.096805477787013"><ele>153.5</ele><time>2026-04-06T09:00:24Z</time></trkpt><trkpt lat="45.89670395229882" lon="12.096888775410406"><ele>153.66666666666669</ele><time>2026-04-06T09:00:25Z</time></trkpt><trkpt lat="45.896745659791485" lon="12.096984648762476"><ele>153.83333333333334</ele><time>2026-04-06T09:00:26Z</time></trkpt><trkpt lat="45.89680117071444" lon="12.097100374765438"><ele>154.0</ele><time>2026-04-06T09:00:27Z</time></trkpt><trkpt lat="45.896856789252325" lon="12.097258946987795"><ele>154.75</ele><time>2026-04-06T09:00:28Z</time></trkpt><trkpt lat="45.896910936002556" lon="12.097460012162"><ele>155.5</ele><time>2026-04-06T09:00:29Z</time></trkpt><trkpt lat="45.89696106855078" lon="12.09765272615129"><ele>156.25</ele><time>2026-04-06T09:00:30Z</time></trkpt><trkpt lat="45.8970147602235" lon="12.097854628708207"><ele>157.0</ele><time>2026-04-06T09:00:31Z</time></trkpt><trkpt lat="45.89706946006636" lon="12.098060573473301"><ele>156.33333333333334</ele><time>2026-04-06T09:00:32Z</time></trkpt><trkpt lat="45.89712083811286" lon="12.098321694978777"><ele>155.66666666666666</ele><time>2026-04-06T09:00:33Z</time></trkpt><trkpt lat="45.89719226980426" lon="12.098593106844952"><ele>155.0</ele><time>2026-04-06T09:00:34Z</time></trkpt><trkpt lat="45.89725037139745" lon="12.098887271273355"><ele>154.33333333333331</ele><time>2026-04-06T09:00:35Z</time></trkpt><trkpt lat="45.89731842312447" lon="12.099167170190476"><ele>153.66666666666666</ele><time>2026-04-06T09:00:36Z</time></trkpt><trkpt lat="45.897392044725265" lon="12.099460940994678"><ele>153.0</ele><time>2026-04-06T09:00:37Z</time></trkpt><trkpt lat="45.897468119187614" lon="12.099769301645855"><ele>152.5</ele><time>2026-04-06T09:00:38Z</time></trkpt><trkpt lat="45.89754468745942" lon="12.10008006479702"><ele>152.0</ele><time>2026-04-06T09:00:39Z</time></trkpt><trkpt lat="45.897636206544526" lon="12.100453437440091"><ele>152.0</ele><time>2026-04-06T09:00:40Z</time></trkpt><trkpt lat="45.89771166734254" lon="12.10076559806273"><ele>152.0</ele><time>2026-04-06T09:00:41Z</time></trkpt><trkpt lat="45.897793606783836" lon="12.101094563440366"><ele>152.0</ele><time>2026-04-06T09:00:42Z</time></trkpt><trkpt lat="45.897893632314215" lon="12.101441274373226"><ele>152.0</ele><time>2026-04-06T09:00:43Z</time></trkpt><trkpt lat="45.89800714578021" lon="12.101805392962579"><ele>151.0</ele><time>2026-04-06T09:00:44Z</time></trkpt><trkpt lat="45.89812204126941" lon="12.102177572840873"><ele>150.0</ele><time>2026-04-06T09:00:45Z</time></trkpt><trkpt lat="45.89823383144612" lon="12.102534180350727"><ele>150.0</ele><time>2026-04-06T09:00:46Z</time></trkpt><trkpt lat="45.89833478109307" lon="12.102852085180784"><ele>150.0</ele><time>2026-04-06T09:00:47Z</time></trkpt><trkpt lat="45.89842881931352" lon="12.103148305221165"><ele>151.0</ele><time>2026-04-06T09:00:48Z</time></trkpt><trkpt lat="45.89851617402651" lon="12.103419962969507"><ele>152.0</ele><time>2026-04-06T09:00:49Z</time></trkpt><trkpt lat="45.89860483628167" lon="12.103674414293014"><ele>153.0</ele><time>2026-04-06T09:00:50Z</time></trkpt><trkpt lat="45.89868466178544" lon="12.103922281491961"><ele>152.66666666666666</ele><time>2026-04-06T09:00:51Z</time></trkpt><trkpt lat="45.89875567694214" lon="12.10415275455"><ele>152.33333333333331</ele><time>2026-04-06T09:00:52Z</time></trkpt><trkpt lat="45.89883790482349" lon="12.104398492560895"><ele>152.0</ele><time>2026-04-06T09:00:53Z</time></trkpt><trkpt lat="45.89890958036929" lon="12.10461608154447"><ele>152.0</ele><time>2026-04-06T09:00:54Z</time></trkpt><trkpt lat="45.89898731736175" lon="12.104879900826496"><ele>152.0</ele><time>2026-04-06T09:00:55Z</time></trkpt><trkpt lat="45.899077276313314" lon="12.105186084221407"><ele>152.0</ele><time>2026-04-06T09:00:56Z</time></trkpt><trkpt lat="45.899189114819805" lon="12.105523040006915"><ele>152.0</ele><time>2026-04-06T09:00:57Z</time></trkpt><trkpt lat="45.89930278428882" lon="12.105882504929435"><ele>152.0</ele><time>2026-04-06T09:00:58Z</time></trkpt><trkpt lat="45.8994038610086" lon="12.106208073112509"><ele>152.0</ele><time>2026-04-06T09:00:59Z</time></trkpt><trkpt lat="45.899499700456424" lon="12.106511951670864"><ele>152.0</ele><time>2026-04-06T09:01:00Z</time></trkpt><trkpt lat="45.899600657670774" lon="12.106828261253089"><ele>152.0</ele><time>2026-04-06T09:01:01Z</time></trkpt><trkpt lat="45.899705375778595" lon="12.107153919418506"><ele>152.0</ele><time>2026-04-06T09:01:02Z</time></trkpt><trkpt lat="45.8998037950476" lon="12.107466103678437"><ele>152.0</ele><time>2026-04-06T09:01:03Z</time></trkpt><trkpt lat="45.8998934257805" lon="12.10776623056593"><ele>152.0</ele><time>2026-04-06T09:01:04Z</time></trkpt><trkpt lat="45.89998098270161" lon="12.108052761762258"><ele>152.0</ele><time>2026-04-06T09:01:05Z</time></trkpt><trkpt lat="45.90006713460633" lon="12.10834255503197"><ele>152.66666666666666</ele><time>2026-04-06T09:01:06Z</time></trkpt><trkpt lat="45.90015124567457" lon="12.10862518932186"><ele>153.33333333333334</ele><time>2026-04-06T09:01:07Z</time></trkpt><trkpt lat="45.90023014096074" lon="12.108901986164167"><ele>154.0</ele><time>2026-04-06T09:01:08Z</time></trkpt><trkpt lat="45.90030617982941" lon="12.109162979280383"><ele>152.66666666666669</ele><time>2026-04-06T09:01:09Z</time></trkpt><trkpt lat="45.900370554325804" lon="12.109429875679293"><ele>151.33333333333334</ele><time>2026-04-06T09:01:10Z</time></trkpt><trkpt lat="45.90042981411925" lon="12.109698417340718"><ele>150.0</ele><time>2026-04-06T09:01:11Z</time></trkpt><trkpt lat="45.90048942772024" lon="12.10995896929464"><ele>149.66666666666666</ele><time>2026-04-06T09:01:12Z</time></trkpt><trkpt lat="45.90053897336003" lon="12.11020867269589"><ele>149.33333333333331</ele><time>2026-04-06T09:01:13Z</time></trkpt><trkpt lat="45.9005830852981" lon="12.110452086122335"><ele>149.0</ele><time>2026-04-06T09:01:14Z</time></trkpt><trkpt lat="45.900624163902975" lon="12.110698411725961"><ele>148.66666666666666</ele><time>2026-04-06T09:01:15Z</time></trkpt><trkpt lat="45.90066478791293" lon="12.110948485079517"><ele>148.33333333333334</ele><time>2026-04-06T09:01:16Z</time></trkpt><trkpt lat="45.90071449945081" lon="12.11119729178299"><ele>148.0</ele><time>2026-04-06T09:01:17Z</time></trkpt><trkpt lat="45.90076328784604" lon="12.111438868107824"><ele>148.0</ele><time>2026-04-06T09:01:18Z</time></trkpt><trkpt lat="45.90081086796259" lon="12.111680848330934"><ele>148.0</ele><time>2026-04-06T09:01:19Z</time></trkpt><trkpt lat="45.90085265507138" lon="12.11191413399776"><ele>148.0</ele><time>2026-04-06T09:01:20Z</time></trkpt><trkpt lat="45.90089434278299" lon="12.112141696404022"><ele>149.0</ele><time>2026-04-06T09:01:21Z</time></trkpt><trkpt lat="45.900953618964046" lon="12.11235902592597"><ele>150.0</ele><time>2026-04-06T09:01:22Z</time></trkpt><trkpt lat="45.90103583963529" lon="12.112557647537423"><ele>151.0</ele><time>2026-04-06T09:01:23Z</time></trkpt><trkpt lat="45.901133440512474" lon="12.112756757543863"><ele>151.33333333333334</ele><time>2026-04-06T09:01:24Z</time></trkpt><trkpt lat="45.9012416431028" lon="12.11293482746246"><ele>151.66666666666666</ele><time>2026-04-06T09:01:25Z</time></trkpt><trkpt lat="45.90137674027791" lon="12.113088846834659"><ele>152.0</ele><time>2026-04-06T09:01:26Z</time></trkpt><trkpt lat="45.90151017397297" lon="12.113226259098706"><ele>151.33333333333331</ele><time>2026-04-06T09:01:27Z</time></trkpt><trkpt lat="45.901628499021555" lon="12.113363235966451"><ele>150.66666666666666</ele><time>2026-04-06T09:01:28Z</time></trkpt><trkpt lat="45.90173614876083" lon="12.113511143869765"><ele>150.0</ele><time>2026-04-06T09:01:29Z</time></trkpt><trkpt lat="45.901835087192325" lon="12.113685618837607"><ele>151.33333333333334</ele><time>2026-04-06T09:01:30Z</time></trkpt><trkpt lat="45.90192730648167" lon="12.113884812855895"><ele>152.66666666666669</ele><time>2026-04-06T09:01:31Z</time></trkpt><trkpt lat="45.9020153394564" lon="12.114082000405812"><ele>154.0</ele><time>2026-04-06T09:01:32Z</time></trkpt><trkpt lat="45.902103766368015" lon="12.1142737344092"><ele>154.0</ele><time>2026-04-06T09:01:33Z</time></trkpt><trkpt lat="45.90218858826771" lon="12.11445807045282"><ele>154.0</ele><time>2026-04-06T09:01:34Z</time></trkpt><trkpt lat="45.90227718433256" lon="12.114643454897136"><ele>154.0</ele><time>2026-04-06T09:01:35Z</time></trkpt><trkpt lat="45.90235984332707" lon="12.114840564992507"><ele>154.33333333333334</ele><time>2026-04-06T09:01:36Z</time></trkpt><trkpt lat="45.90244480982314" lon="12.115037850875925"><ele>154.66666666666666</ele><time>2026-04-06T09:01:37Z</time></trkpt><trkpt lat="45.90253471915163" lon="12.11522373528461"><ele>155.0</ele><time>2026-04-06T09:01:38Z</time></trkpt><trkpt lat="45.90261967016893" lon="12.115394450489722"><ele>155.75</ele><time>2026-04-06T09:01:39Z</time></trkpt><trkpt lat="45.902694914130514" lon="12.115563258344876"><ele>156.5</ele><time>2026-04-06T09:01:40Z</time></trkpt><trkpt lat="45.90276948908682" lon="12.115723381914364"><ele>157.25</ele><time>2026-04-06T09:01:41Z</time></trkpt><trkpt lat="45.90284989683159" lon="12.11586940240941"><ele>158.0</ele><time>2026-04-06T09:01:42Z</time></trkpt><trkpt lat="45.902937165135896" lon="12.115999803082987"><ele>158.0</ele><time>2026-04-06T09:01:43Z</time></trkpt><trkpt lat="45.9030243464013" lon="12.116112344854818"><ele>158.0</ele><time>2026-04-06T09:01:44Z</time></trkpt><trkpt lat="45.90311807573575" lon="12.11622781748381"><ele>158.0</ele><time>2026-04-06T09:01:45Z</time></trkpt><trkpt lat="45.903209728335376" lon="12.116339869158422"><ele>158.0</ele><time>2026-04-06T09:01:46Z</time></trkpt><trkpt lat="45.90328920598374" lon="12.116447073034301"><ele>158.0</ele><time>2026-04-06T09:01:47Z</time></trkpt><trkpt lat="45.90336074172611" lon="12.11654361288565"><ele>158.0</ele><time>2026-04-06T09:01:48Z</time></trkpt><trkpt lat="45.90342481962884" lon="12.116623875085162"><ele>158.0</ele><time>2026-04-06T09:01:49Z</time></trkpt><trkpt lat="45.903480714131916" lon="12.116689402015538"><ele>158.0</ele><time>2026-04-06T09:01:50Z</time></trkpt><trkpt lat="45.903538937550366" lon="12.116758850498764"><ele>158.0</ele><time>2026-04-06T09:01:51Z</time></trkpt><trkpt lat="45.90359469952277" lon="12.116838779543887"><ele>158.0</ele><time>2026-04-06T09:01:52Z</time></trkpt><trkpt lat="45.90363554432774" lon="12.116914914939336"><ele>158.60000000000002</ele><time>2026-04-06T09:01:53Z</time></trkpt><trkpt lat="45.903722674316654" lon="12.117010924109838"><ele>159.20000000000002</ele><time>2026-04-06T09:01:54Z</time></trkpt><trkpt lat="45.9038101593715" lon="12.117111184657135"><ele>159.8</ele><time>2026-04-06T09:01:55Z</time></trkpt><trkpt lat="45.90388427218802" lon="12.117203914766012"><ele>160.4</ele><time>2026-04-06T09:01:56Z</time></trkpt><trkpt lat="45.90395339920831" lon="12.117310372244818"><ele>161.0</ele><time>2026-04-06T09:01:57Z</time></trkpt><trkpt lat="45.90403978843985" lon="12.117426073902575"><ele>161.0</ele><time>2026-04-06T09:01:58Z</time></trkpt><trkpt lat="45.90413031541266" lon="12.117544375486474"><ele>161.0</ele><time>2026-04-06T09:01:59Z</time></trkpt><trkpt lat="45.904211023469365" lon="12.117661582245027"><ele>161.0</ele><time>2026-04-06T09:02:00Z</time></trkpt><trkpt lat="45.904296080618586" lon="12.117768378319571"><ele>161.0</ele><time>2026-04-06T09:02:01Z</time></trkpt><trkpt lat="45.90437127340505" lon="12.117887123233244"><ele>161.75</ele><time>2026-04-06T09:02:02Z</time></trkpt><trkpt lat="45.90445636880718" lon="12.117998441975486"><ele>162.5</ele><time>2026-04-06T09:02:03Z</time></trkpt><trkpt lat="45.90453928088692" lon="12.11814104565666"><ele>163.25</ele><time>2026-04-06T09:02:04Z</time></trkpt><trkpt lat="45.90462108724314" lon="12.118318030525362"><ele>164.0</ele><time>2026-04-06T09:02:05Z</time></trkpt><trkpt lat="45.9046888092919" lon="12.118526699503931"><ele>164.0</ele><time>2026-04-06T09:02:06Z</time></trkpt><trkpt lat="45.90474004564109" lon="12.118720304811019"><ele>164.0</ele><time>2026-04-06T09:02:07Z</time></trkpt><trkpt lat="45.9047813589279" lon="12.118908609752086"><ele>164.0</ele><time>2026-04-06T09:02:08Z</time></trkpt><trkpt lat="45.90481676311214" lon="12.119111950040661"><ele>164.0</ele><time>2026-04-06T09:02:09Z</time></trkpt><trkpt lat="45.90485411479499" lon="12.119326695604785"><ele>163.5</ele><time>2026-04-06T09:02:10Z</time></trkpt><trkpt lat="45.904888047496264" lon="12.119539182815311"><ele>163.0</ele><time>2026-04-06T09:02:11Z</time></trkpt><trkpt lat="45.90492309770061" lon="12.11973899346666"><ele>162.5</ele><time>2026-04-06T09:02:12Z</time></trkpt><trkpt lat="45.904949428553536" lon="12.119902985674084"><ele>162.0</ele><time>2026-04-06T09:02:13Z</time></trkpt><trkpt lat="45.90497107847406" lon="12.12003135671853"><ele>161.83333333333334</ele><time>2026-04-06T09:02:14Z</time></trkpt><trkpt lat="45.904990232748595" lon="12.120149156957519"><ele>161.66666666666666</ele><time>2026-04-06T09:02:15Z</time></trkpt><trkpt lat="45.905011266792414" lon="12.12026391837428"><ele>161.5</ele><time>2026-04-06T09:02:16Z</time></trkpt><trkpt lat="45.90502869164559" lon="12.12036448132673"><ele>161.33333333333331</ele><time>2026-04-06T09:02:17Z</time></trkpt><trkpt lat="45.90504372849515" lon="12.120466754347893"><ele>161.16666666666666</ele><time>2026-04-06T09:02:18Z</time></trkpt><trkpt lat="45.90505991834593" lon="12.120574906134994"><ele>161.0</ele><time>2026-04-06T09:02:19Z</time></trkpt><trkpt lat="45.905073254487775" lon="12.12068796093713"><ele>162.20000000000002</ele><time>2026-04-06T09:02:20Z</time></trkpt><trkpt lat="45.90509252771806" lon="12.120809114940226"><ele>163.4</ele><time>2026-04-06T09:02:21Z</time></trkpt><trkpt lat="45.90511409764663" lon="12.120938019224683"><ele>164.6</ele><time>2026-04-06T09:02:22Z</time></trkpt><trkpt lat="45.90513319382667" lon="12.121071762085576"><ele>165.8</ele><time>2026-04-06T09:02:23Z</time></trkpt><trkpt lat="45.90515018562524" lon="12.121209069629435"><ele>167.0</ele><time>2026-04-06T09:02:24Z</time></trkpt><trkpt lat="45.90515958067491" lon="12.121343250575185"><ele>167.0</ele><time>2026-04-06T09:02:25Z</time></trkpt><trkpt lat="45.90516534080077" lon="12.12147675420085"><ele>167.0</ele><time>2026-04-06T09:02:26Z</time></trkpt><trkpt lat="45.9051719971073" lon="12.121605878142516"><ele>167.0</ele><time>2026-04-06T09:02:27Z</time></trkpt><trkpt lat="45.90517468996366" lon="12.121743795860505"><ele>167.0</ele><time>2026-04-06T09:02:28Z</time></trkpt><trkpt lat="45.905175906962235" lon="12.1218907089755"><ele>167.0</ele><time>2026-04-06T09:02:29Z</time></trkpt><trkpt lat="45.90517378782008" lon="12.12204024109512"><ele>166.8</ele><time>2026-04-06T09:02:30Z</time></trkpt><trkpt lat="45.90517326310417" lon="12.12218380169819"><ele>166.6</ele><time>2026-04-06T09:02:31Z</time></trkpt><trkpt lat="45.90517601091134" lon="12.122330456097545"><ele>166.4</ele><time>2026-04-06T09:02:32Z</time></trkpt><trkpt lat="45.90517234991622" lon="12.122473834694103"><ele>166.20000000000002</ele><time>2026-04-06T09:02:33Z</time></trkpt><trkpt lat="45.905165634355214" lon="12.122623126643422"><ele>166.0</ele><time>2026-04-06T09:02:34Z</time></trkpt><trkpt lat="45.90516534618197" lon="12.122778397372148"><ele>166.0</ele><time>2026-04-06T09:02:35Z</time></trkpt><trkpt lat="45.90516525299401" lon="12.122941766445106"><ele>166.0</ele><time>2026-04-06T09:02:36Z</time></trkpt><trkpt lat="45.90515689646126" lon="12.12310827679615"><ele>166.0</ele><time>2026-04-06T09:02:37Z</time></trkpt><trkpt lat="45.90514094694582" lon="12.123288287663659"><ele>166.0</ele><time>2026-04-06T09:02:38Z</time></trkpt><trkpt lat="45.90512743019782" lon="12.123477312316645"><ele>165.8</ele><time>2026-04-06T09:02:39Z</time></trkpt><trkpt lat="45.90511860208414" lon="12.123647260680556"><ele>165.60000000000002</ele><time>2026-04-06T09:02:40Z</time></trkpt><trkpt lat="45.90510912083898" lon="12.123808634735452"><ele>165.4</ele><time>2026-04-06T09:02:41Z</time></trkpt><trkpt lat="45.90510694344948" lon="12.123964675641774"><ele>165.2</ele><time>2026-04-06T09:02:42Z</time></trkpt><trkpt lat="45.90509395813127" lon="12.124117675578749"><ele>165.0</ele><time>2026-04-06T09:02:43Z</time></trkpt><trkpt lat="45.90508872947886" lon="12.124280928676438"><ele>164.5</ele><time>2026-04-06T09:02:44Z</time></trkpt><trkpt lat="45.905083057446575" lon="12.124446987186541"><ele>164.0</ele><time>2026-04-06T09:02:45Z</time></trkpt><trkpt lat="45.905072985032014" lon="12.124600937082477"><ele>163.5</ele><time>2026-04-06T09:02:46Z</time></trkpt><trkpt lat="45.90507225779164" lon="12.124764284144579"><ele>163.0</ele><time>2026-04-06T09:02:47Z</time></trkpt><trkpt lat="45.905082474809454" lon="12.124936546750234"><ele>162.75</ele><time>2026-04-06T09:02:48Z</time></trkpt><trkpt lat="45.905082714017304" lon="12.12511503378615"><ele>162.5</ele><time>2026-04-06T09:02:49Z</time></trkpt><trkpt lat="45.90509922937624" lon="12.125293261662808"><ele>162.25</ele><time>2026-04-06T09:02:50Z</time></trkpt><trkpt lat="45.90512949392796" lon="12.125469429830847"><ele>162.0</ele><time>2026-04-06T09:02:51Z</time></trkpt><trkpt lat="45.90517259183822" lon="12.125651820438145"><ele>162.0</ele><time>2026-04-06T09:02:52Z</time></trkpt><trkpt lat="45.90522620753453" lon="12.12582633155183"><ele>162.0</ele><time>2026-04-06T09:02:53Z</time></trkpt><trkpt lat="45.90527490649949" lon="12.125987749984542"><ele>162.0</ele><time>2026-04-06T09:02:54Z</time></trkpt><trkpt lat="45.9053221731515" lon="12.126142238143123"><ele>162.0</ele><time>2026-04-06T09:02:55Z</time></trkpt><trkpt lat="45.90536681828073" lon="12.126294865622468"><ele>162.0</ele><time>2026-04-06T09:02:56Z</time></trkpt><trkpt lat="45.905415895840996" lon="12.126440965288477"><ele>162.0</ele><time>2026-04-06T09:02:57Z</time></trkpt><trkpt lat="45.90546275847107" lon="12.126583632323582"><ele>162.0</ele><time>2026-04-06T09:02:58Z</time></trkpt><trkpt lat="45.905505510513876" lon="12.126726761852046"><ele>162.0</ele><time>2026-04-06T09:02:59Z</time></trkpt><trkpt lat="45.905549569983144" lon="12.126873740379047"><ele>162.0</ele><time>2026-04-06T09:03:00Z</time></trkpt><trkpt lat="45.905597851394475" lon="12.127019117469256"><ele>162.0</ele><time>2026-04-06T09:03:01Z</time></trkpt><trkpt lat="45.90562951407855" lon="12.127142396199398"><ele>162.0</ele><time>2026-04-06T09:03:02Z</time></trkpt><trkpt lat="45.90568541655112" lon="12.127271199376123"><ele>162.0</ele><time>2026-04-06T09:03:03Z</time></trkpt><trkpt lat="45.90573095980797" lon="12.127402757868918"><ele>162.0</ele><time>2026-04-06T09:03:04Z</time></trkpt><trkpt lat="45.905769489774606" lon="12.127534249710843"><ele>162.0</ele><time>2026-04-06T09:03:05Z</time></trkpt><trkpt lat="45.905817763821915" lon="12.127680574393656"><ele>162.0</ele><time>2026-04-06T09:03:06Z</time></trkpt><trkpt lat="45.90586313344273" lon="12.127839546341805"><ele>162.0</ele><time>2026-04-06T09:03:07Z</time></trkpt><trkpt lat="45.90591383463801" lon="12.12799946981853"><ele>162.0</ele><time>2026-04-06T09:03:08Z</time></trkpt><trkpt lat="45.905960844778754" lon="12.12815078219032"><ele>162.0</ele><time>2026-04-06T09:03:09Z</time></trkpt><trkpt lat="45.90600728644457" lon="12.128298078571353"><ele>162.5</ele><time>2026-04-06T09:03:10Z</time></trkpt><trkpt lat="45.90605793354453" lon="12.128441131911037"><ele>163.0</ele><time>2026-04-06T09:03:11Z</time></trkpt><trkpt lat="45.90610743098917" lon="12.128596123255727"><ele>163.5</ele><time>2026-04-06T09:03:12Z</time></trkpt><trkpt lat="45.90616163094246" lon="12.128757295353898"><ele>164.0</ele><time>2026-04-06T09:03:13Z</time></trkpt><trkpt lat="45.906250861716146" lon="12.128950114097893"><ele>163.66666666666666</ele><time>2026-04-06T09:03:14Z</time></trkpt><trkpt lat="45.90636080248805" lon="12.12913951217113"><ele>163.33333333333334</ele><time>2026-04-06T09:03:15Z</time></trkpt><trkpt lat="45.90649117534837" lon="12.129315485413125"><ele>163.0</ele><time>2026-04-06T09:03:16Z</time></trkpt><trkpt lat="45.90662011893394" lon="12.129459462362073"><ele>163.0</ele><time>2026-04-06T09:03:17Z</time></trkpt><trkpt lat="45.90671807927807" lon="12.129620183389811"><ele>163.0</ele><time>2026-04-06T09:03:18Z</time></trkpt><trkpt lat="45.90679172630757" lon="12.129793174580557"><ele>163.0</ele><time>2026-04-06T09:03:19Z</time></trkpt><trkpt lat="45.90685793761788" lon="12.129972900359794"><ele>163.0</ele><time>2026-04-06T09:03:20Z</time></trkpt><trkpt lat="45.9069106541507" lon="12.130172335491935"><ele>164.0</ele><time>2026-04-06T09:03:21Z</time></trkpt><trkpt lat="45.906941303891415" lon="12.130385527574829"><ele>165.0</ele><time>2026-04-06T09:03:22Z</time></trkpt><trkpt lat="45.906961854843765" lon="12.13061003958655"><ele>166.0</ele><time>2026-04-06T09:03:23Z</time></trkpt><trkpt lat="45.90697047744324" lon="12.130829360128528"><ele>166.0</ele><time>2026-04-06T09:03:24Z</time></trkpt><trkpt lat="45.9069743678462" lon="12.131043804584017"><ele>166.0</ele><time>2026-04-06T09:03:25Z</time></trkpt><trkpt lat="45.90699404401685" lon="12.13124065765053"><ele>166.0</ele><time>2026-04-06T09:03:26Z</time></trkpt><trkpt lat="45.90700947912371" lon="12.131425849047895"><ele>166.0</ele><time>2026-04-06T09:03:27Z</time></trkpt><trkpt lat="45.90701867033439" lon="12.131612333245847"><ele>165.25</ele><time>2026-04-06T09:03:28Z</time></trkpt><trkpt lat="45.9070322119705" lon="12.131796364301401"><ele>164.5</ele><time>2026-04-06T09:03:29Z</time></trkpt><trkpt lat="45.9070447540295" lon="12.13197054487774"><ele>163.75</ele><time>2026-04-06T09:03:30Z</time></trkpt><trkpt lat="45.907052930380964" lon="12.1321427121054"><ele>163.0</ele><time>2026-04-06T09:03:31Z</time></trkpt><trkpt lat="45.907061325874224" lon="12.132319120824077"><ele>162.5</ele><time>2026-04-06T09:03:32Z</time></trkpt><trkpt lat="45.907075344271945" lon="12.13249640320702"><ele>162.0</ele><time>2026-04-06T09:03:33Z</time></trkpt><trkpt lat="45.907093923138895" lon="12.132667275622582"><ele>161.5</ele><time>2026-04-06T09:03:34Z</time></trkpt><trkpt lat="45.90712883011946" lon="12.132850453316035"><ele>161.0</ele><time>2026-04-06T09:03:35Z</time></trkpt><trkpt lat="45.907182483207094" lon="12.133037106734193"><ele>161.0</ele><time>2026-04-06T09:03:36Z</time></trkpt><trkpt lat="45.90724934609187" lon="12.133207589164838"><ele>161.0</ele><time>2026-04-06T09:03:37Z</time></trkpt><trkpt lat="45.907316006810944" lon="12.133363364109726"><ele>161.0</ele><time>2026-04-06T09:03:38Z</time></trkpt><trkpt lat="45.907380873722914" lon="12.13350011585613"><ele>161.0</ele><time>2026-04-06T09:03:39Z</time></trkpt><trkpt lat="45.90746326427126" lon="12.1336492798501"><ele>161.0</ele><time>2026-04-06T09:03:40Z</time></trkpt><trkpt lat="45.90753976806126" lon="12.133768359857402"><ele>161.0</ele><time>2026-04-06T09:03:41Z</time></trkpt><trkpt lat="45.90762119213202" lon="12.13387939071716"><ele>161.0</ele><time>2026-04-06T09:03:42Z</time></trkpt><trkpt lat="45.907727307558986" lon="12.133988568643538"><ele>161.0</ele><time>2026-04-06T09:03:43Z</time></trkpt><trkpt lat="45.907821367254485" lon="12.134144902920177"><ele>161.0</ele><time>2026-04-06T09:03:44Z</time></trkpt><trkpt lat="45.90788320414685" lon="12.134281688753008"><ele>161.0</ele><time>2026-04-06T09:03:45Z</time></trkpt><trkpt lat="45.90797711975795" lon="12.134416918796724"><ele>161.0</ele><time>2026-04-06T09:03:46Z</time></trkpt><trkpt lat="45.90806687417033" lon="12.134565348231607"><ele>161.0</ele><time>2026-04-06T09:03:47Z</time></trkpt><trkpt lat="45.90814719122912" lon="12.134743281075384"><ele>161.66666666666666</ele><time>2026-04-06T09:03:48Z</time></trkpt><trkpt lat="45.90822223784038" lon="12.134937157681097"><ele>162.33333333333334</ele><time>2026-04-06T09:03:49Z</time></trkpt><trkpt lat="45.90829018202526" lon="12.13513951857035"><ele>163.0</ele><time>2026-04-06T09:03:50Z</time></trkpt><trkpt lat="45.9083357799746" lon="12.135341893073123"><ele>163.0</ele><time>2026-04-06T09:03:51Z</time></trkpt><trkpt lat="45.908362124313804" lon="12.135531620645638"><ele>163.0</ele><time>2026-04-06T09:03:52Z</time></trkpt><trkpt lat="45.90838180657692" lon="12.135711991816471"><ele>163.0</ele><time>2026-04-06T09:03:53Z</time></trkpt><trkpt lat="45.908392255249645" lon="12.135894787097644"><ele>163.0</ele><time>2026-04-06T09:03:54Z</time></trkpt><trkpt lat="45.908399270939235" lon="12.136099170970327"><ele>162.5</ele><time>2026-04-06T09:03:55Z</time></trkpt><trkpt lat="45.90840575824736" lon="12.136305931771593"><ele>162.0</ele><time>2026-04-06T09:03:56Z</time></trkpt><trkpt lat="45.908403796793564" lon="12.136495919107906"><ele>161.5</ele><time>2026-04-06T09:03:57Z</time></trkpt><trkpt lat="45.90838993018666" lon="12.136703933399305"><ele>161.0</ele><time>2026-04-06T09:03:58Z</time></trkpt><trkpt lat="45.90837211454129" lon="12.136918604696247"><ele>161.0</ele><time>2026-04-06T09:03:59Z</time></trkpt><trkpt lat="45.908343160880435" lon="12.137134214792841"><ele>161.0</ele><time>2026-04-06T09:04:00Z</time></trkpt><trkpt lat="45.90829886146783" lon="12.13731601717729"><ele>161.0</ele><time>2026-04-06T09:04:01Z</time></trkpt><trkpt lat="45.90826036778131" lon="12.137505501652349"><ele>161.0</ele><time>2026-04-06T09:04:02Z</time></trkpt><trkpt lat="45.90822402055534" lon="12.137701705390578"><ele>160.75</ele><time>2026-04-06T09:04:03Z</time></trkpt><trkpt lat="45.90819292141104" lon="12.137884311309632"><ele>160.5</ele><time>2026-04-06T09:04:04Z</time></trkpt><trkpt lat="45.9081629719023" lon="12.138052847017164"><ele>160.25</ele><time>2026-04-06T09:04:05Z</time></trkpt><trkpt lat="45.908133450260124" lon="12.138221307905301"><ele>160.0</ele><time>2026-04-06T09:04:06Z</time></trkpt><trkpt lat="45.908097261999714" lon="12.138392014862474"><ele>159.75</ele><time>2026-04-06T09:04:07Z</time></trkpt><trkpt lat="45.90806357844955" lon="12.138574567583166"><ele>159.5</ele><time>2026-04-06T09:04:08Z</time></trkpt><trkpt lat="45.908028282157815" lon="12.138762823871081"><ele>159.25</ele><time>2026-04-06T09:04:09Z</time></trkpt><trkpt lat="45.907998537997116" lon="12.138960183426123"><ele>159.0</ele><time>2026-04-06T09:04:10Z</time></trkpt><trkpt lat="45.90797925694313" lon="12.139159650181456"><ele>158.25</ele><time>2026-04-06T09:04:11Z</time></trkpt><trkpt lat="45.907963153119844" lon="12.139361274305577"><ele>157.5</ele><time>2026-04-06T09:04:12Z</time></trkpt><trkpt lat="45.9079624564576" lon="12.139558474651981"><ele>156.75</ele><time>2026-04-06T09:04:13Z</time></trkpt><trkpt lat="45.90797915548397" lon="12.139758538312329"><ele>156.0</ele><time>2026-04-06T09:04:14Z</time></trkpt><trkpt lat="45.908003990988966" lon="12.139962646765344"><ele>155.33333333333334</ele><time>2026-04-06T09:04:15Z</time></trkpt><trkpt lat="45.908049633729505" lon="12.140167944818936"><ele>154.66666666666669</ele><time>2026-04-06T09:04:16Z</time></trkpt><trkpt lat="45.90810013035566" lon="12.14038348003423"><ele>154.0</ele><time>2026-04-06T09:04:17Z</time></trkpt><trkpt lat="45.90817173032631" lon="12.140607411359817"><ele>153.33333333333334</ele><time>2026-04-06T09:04:18Z</time></trkpt><trkpt lat="45.90823286987068" lon="12.140837521886901"><ele>152.66666666666666</ele><time>2026-04-06T09:04:19Z</time></trkpt><trkpt lat="45.90828587523355" lon="12.141054290842602"><ele>152.0</ele><time>2026-04-06T09:04:20Z</time></trkpt><trkpt lat="45.90834536142214" lon="12.141251834358254"><ele>152.0</ele><time>2026-04-06T09:04:21Z</time></trkpt><trkpt lat="45.9084009295282" lon="12.141439055599893"><ele>152.0</ele><time>2026-04-06T09:04:22Z</time></trkpt><trkpt lat="45.90845282493939" lon="12.14161738784558"><ele>152.0</ele><time>2026-04-06T09:04:23Z</time></trkpt><trkpt lat="45.908509102294964" lon="12.141810614463559"><ele>152.0</ele><time>2026-04-06T09:04:24Z</time></trkpt><trkpt lat="45.90856484303145" lon="12.142002304938972"><ele>152.0</ele><time>2026-04-06T09:04:25Z</time></trkpt><trkpt lat="45.90861146661281" lon="12.142187272244154"><ele>152.0</ele><time>2026-04-06T09:04:26Z</time></trkpt><trkpt lat="45.908658673629056" lon="12.142358310498441"><ele>152.0</ele><time>2026-04-06T09:04:27Z</time></trkpt><trkpt lat="45.90870643012309" lon="12.142534029818934"><ele>152.0</ele><time>2026-04-06T09:04:28Z</time></trkpt><trkpt lat="45.908753817457374" lon="12.142700934006529"><ele>152.0</ele><time>2026-04-06T09:04:29Z</time></trkpt><trkpt lat="45.90881047704134" lon="12.142904798286109"><ele>152.0</ele><time>2026-04-06T09:04:30Z</time></trkpt><trkpt lat="45.90886517270102" lon="12.143128407922152"><ele>152.0</ele><time>2026-04-06T09:04:31Z</time></trkpt><trkpt lat="45.90891864117148" lon="12.14332900106309"><ele>152.0</ele><time>2026-04-06T09:04:32Z</time></trkpt><trkpt lat="45.90897097407979" lon="12.143526267155076"><ele>152.0</ele><time>2026-04-06T09:04:33Z</time></trkpt><trkpt lat="45.90902212276982" lon="12.143718141562523"><ele>152.0</ele><time>2026-04-06T09:04:34Z</time></trkpt><trkpt lat="45.90907862045999" lon="12.14390788137392"><ele>152.0</ele><time>2026-04-06T09:04:35Z</time></trkpt><trkpt lat="45.90913034131345" lon="12.14408143567067"><ele>152.0</ele><time>2026-04-06T09:04:36Z</time></trkpt><trkpt lat="45.90917631881115" lon="12.144259515057719"><ele>152.0</ele><time>2026-04-06T09:04:37Z</time></trkpt><trkpt lat="45.909227880078234" lon="12.144433496949688"><ele>152.0</ele><time>2026-04-06T09:04:38Z</time></trkpt><trkpt lat="45.90927352158913" lon="12.144592416003123"><ele>152.0</ele><time>2026-04-06T09:04:39Z</time></trkpt><trkpt lat="45.90931269463474" lon="12.144744121642985"><ele>152.2</ele><time>2026-04-06T09:04:40Z</time></trkpt><trkpt lat="45.90935254560186" lon="12.144882194883461"><ele>152.39999999999998</ele><time>2026-04-06T09:04:41Z</time></trkpt><trkpt lat="45.909394434554805" lon="12.145028295342923"><ele>152.60000000000002</ele><time>2026-04-06T09:04:42Z</time></trkpt><trkpt lat="45.909438982763334" lon="12.145177200957677"><ele>152.8</ele><time>2026-04-06T09:04:43Z</time></trkpt><trkpt lat="45.909476844266585" lon="12.145319857316583"><ele>153.0</ele><time>2026-04-06T09:04:44Z</time></trkpt><trkpt lat="45.909507714059814" lon="12.145453906416654"><ele>153.0</ele><time>2026-04-06T09:04:45Z</time></trkpt><trkpt lat="45.909542837626226" lon="12.145582382299446"><ele>153.0</ele><time>2026-04-06T09:04:46Z</time></trkpt><trkpt lat="45.90957916207064" lon="12.14570074260714"><ele>153.0</ele><time>2026-04-06T09:04:47Z</time></trkpt><trkpt lat="45.90960615411313" lon="12.145816953914558"><ele>153.0</ele><time>2026-04-06T09:04:48Z</time></trkpt><trkpt lat="45.90962934121109" lon="12.145932404640867"><ele>153.0</ele><time>2026-04-06T09:04:49Z</time></trkpt><trkpt lat="45.90965781154801" lon="12.146045690073583"><ele>153.0</ele><time>2026-04-06T09:04:50Z</time></trkpt><trkpt lat="45.90968628559257" lon="12.146168135934277"><ele>153.0</ele><time>2026-04-06T09:04:51Z</time></trkpt><trkpt lat="45.909719665427076" lon="12.14629687498734"><ele>153.0</ele><time>2026-04-06T09:04:52Z</time></trkpt><trkpt lat="45.90974781979918" lon="12.146422185643472"><ele>153.0</ele><time>2026-04-06T09:04:53Z</time></trkpt><trkpt lat="45.90976394745281" lon="12.14654806924402"><ele>153.0</ele><time>2026-04-06T09:04:54Z</time></trkpt><trkpt lat="45.90977890645158" lon="12.146666822057574"><ele>153.0</ele><time>2026-04-06T09:04:55Z</time></trkpt><trkpt lat="45.909788825803986" lon="12.146772743353187"><ele>153.0</ele><time>2026-04-06T09:04:56Z</time></trkpt><trkpt lat="45.909795108687135" lon="12.146884278308049"><ele>152.33333333333334</ele><time>2026-04-06T09:04:57Z</time></trkpt><trkpt lat="45.909800292745885" lon="12.1469933871992"><ele>151.66666666666666</ele><time>2026-04-06T09:04:58Z</time></trkpt><trkpt lat="45.90980338185503" lon="12.14709081718394"><ele>151.0</ele><time>2026-04-06T09:04:59Z</time></trkpt><trkpt lat="45.909801700832084" lon="12.147186872161987"><ele>150.33333333333331</ele><time>2026-04-06T09:05:00Z</time></trkpt><trkpt lat="45.90979458264676" lon="12.147361458475006"><ele>149.66666666666666</ele><time>2026-04-06T09:05:02Z</time></trkpt><trkpt lat="45.909762821251334" lon="12.147501095533816"><ele>149.0</ele><time>2026-04-06T09:05:04Z</time></trkpt><trkpt lat="45.90968516950565" lon="12.147625936063049"><ele>148.83333333333331</ele><time>2026-04-06T09:05:06Z</time></trkpt><trkpt lat="45.90962332158631" lon="12.14766486033423"><ele>148.66666666666666</ele><time>2026-04-06T09:05:07Z</time></trkpt><trkpt lat="45.90954950883312" lon="12.147690110413318"><ele>148.5</ele><time>2026-04-06T09:05:08Z</time></trkpt><trkpt lat="45.90947348699622" lon="12.147711982426575"><ele>148.33333333333334</ele><time>2026-04-06T09:05:09Z</time></trkpt><trkpt lat="45.909410228282844" lon="12.147772984324112"><ele>148.16666666666669</ele><time>2026-04-06T09:05:10Z</time></trkpt><trkpt lat="45.90937325615688" lon="12.147869737338931"><ele>148.0</ele><time>2026-04-06T09:05:11Z</time></trkpt><trkpt lat="45.909358403733094" lon="12.147984969825798"><ele>148.0</ele><time>2026-04-06T09:05:12Z</time></trkpt><trkpt lat="45.909382418445574" lon="12.148102223974675"><ele>148.0</ele><time>2026-04-06T09:05:13Z</time></trkpt><trkpt lat="45.909436778964164" lon="12.148207586251576"><ele>148.0</ele><time>2026-04-06T09:05:14Z</time></trkpt><trkpt lat="45.909513849608096" lon="12.148282895046853"><ele>148.0</ele><time>2026-04-06T09:05:15Z</time></trkpt><trkpt lat="45.90958902580377" lon="12.148363906559085"><ele>148.0</ele><time>2026-04-06T09:05:16Z</time></trkpt><trkpt lat="45.90962684347959" lon="12.148483472830911"><ele>148.25</ele><time>2026-04-06T09:05:17Z</time></trkpt><trkpt lat="45.909657657083095" lon="12.148607385482514"><ele>148.5</ele><time>2026-04-06T09:05:18Z</time></trkpt><trkpt lat="45.90958635970824" lon="12.148794880911872"><ele>148.75</ele><time>2026-04-06T09:05:19Z</time></trkpt><trkpt lat="45.90952980575348" lon="12.148976329917181"><ele>149.0</ele><time>2026-04-06T09:05:20Z</time></trkpt><trkpt lat="45.909493478657076" lon="12.149146319952507"><ele>149.0</ele><time>2026-04-06T09:05:21Z</time></trkpt><trkpt lat="45.909472936181984" lon="12.149303104517157"><ele>149.0</ele><time>2026-04-06T09:05:22Z</time></trkpt><trkpt lat="45.90944503489611" lon="12.149446633284287"><ele>149.0</ele><time>2026-04-06T09:05:23Z</time></trkpt><trkpt lat="45.9094183249903" lon="12.149604781355112"><ele>149.0</ele><time>2026-04-06T09:05:24Z</time></trkpt><trkpt lat="45.90939287527708" lon="12.149783462305182"><ele>148.5</ele><time>2026-04-06T09:05:25Z</time></trkpt><trkpt lat="45.909361378233626" lon="12.149975497836671"><ele>148.0</ele><time>2026-04-06T09:05:26Z</time></trkpt><trkpt lat="45.909331889118484" lon="12.150167943560586"><ele>147.5</ele><time>2026-04-06T09:05:27Z</time></trkpt><trkpt lat="45.90931166885345" lon="12.15034873915596"><ele>147.0</ele><time>2026-04-06T09:05:28Z</time></trkpt><trkpt lat="45.9093038230517" lon="12.150520113784594"><ele>147.0</ele><time>2026-04-06T09:05:29Z</time></trkpt><trkpt lat="45.90931291704437" lon="12.150687062725705"><ele>147.0</ele><time>2026-04-06T09:05:30Z</time></trkpt><trkpt lat="45.90933009411328" lon="12.150856401080635"><ele>147.0</ele><time>2026-04-06T09:05:31Z</time></trkpt><trkpt lat="45.909353677136075" lon="12.15103279318737"><ele>147.0</ele><time>2026-04-06T09:05:32Z</time></trkpt><trkpt lat="45.90938633246886" lon="12.151210261361342"><ele>147.25</ele><time>2026-04-06T09:05:33Z</time></trkpt><trkpt lat="45.90943216675263" lon="12.151395542499147"><ele>147.5</ele><time>2026-04-06T09:05:34Z</time></trkpt><trkpt lat="45.909491878039155" lon="12.15158826198863"><ele>147.75</ele><time>2026-04-06T09:05:35Z</time></trkpt><trkpt lat="45.90954126741436" lon="12.151779796631685"><ele>148.0</ele><time>2026-04-06T09:05:36Z</time></trkpt><trkpt lat="45.90959010948783" lon="12.151980932078185"><ele>149.33333333333334</ele><time>2026-04-06T09:05:37Z</time></trkpt><trkpt lat="45.90964773239398" lon="12.15219219630407"><ele>150.66666666666666</ele><time>2026-04-06T09:05:38Z</time></trkpt><trkpt lat="45.90970918182433" lon="12.15240166131368"><ele>152.0</ele><time>2026-04-06T09:05:39Z</time></trkpt><trkpt lat="45.90977054431257" lon="12.15261606399875"><ele>152.33333333333331</ele><time>2026-04-06T09:05:40Z</time></trkpt><trkpt lat="45.90982386971593" lon="12.15282852435735"><ele>152.66666666666666</ele><time>2026-04-06T09:05:41Z</time></trkpt><trkpt lat="45.90988114028988" lon="12.15303782738182"><ele>153.0</ele><time>2026-04-06T09:05:42Z</time></trkpt><trkpt lat="45.909943092062925" lon="12.1532475591665"><ele>153.0</ele><time>2026-04-06T09:05:43Z</time></trkpt><trkpt lat="45.910013768097265" lon="12.153472643490328"><ele>153.0</ele><time>2026-04-06T09:05:44Z</time></trkpt><trkpt lat="45.91008478389167" lon="12.153720221001986"><ele>153.0</ele><time>2026-04-06T09:05:45Z</time></trkpt><trkpt lat="45.91014356894526" lon="12.15397320250537"><ele>153.33333333333334</ele><time>2026-04-06T09:05:46Z</time></trkpt><trkpt lat="45.91020720649717" lon="12.154212709740445"><ele>153.66666666666669</ele><time>2026-04-06T09:05:47Z</time></trkpt><trkpt lat="45.91026439702483" lon="12.154420132646633"><ele>154.0</ele><time>2026-04-06T09:05:48Z</time></trkpt><trkpt lat="45.9103185187431" lon="12.154613523560476"><ele>154.0</ele><time>2026-04-06T09:05:49Z</time></trkpt><trkpt lat="45.910367473418546" lon="12.154802688680066"><ele>154.0</ele><time>2026-04-06T09:05:50Z</time></trkpt><trkpt lat="45.910412080741054" lon="12.154982207879286"><ele>154.0</ele><time>2026-04-06T09:05:51Z</time></trkpt><trkpt lat="45.91045896779461" lon="12.155154008548767"><ele>154.0</ele><time>2026-04-06T09:05:52Z</time></trkpt><trkpt lat="45.91050748444947" lon="12.155322938876784"><ele>154.0</ele><time>2026-04-06T09:05:53Z</time></trkpt><trkpt lat="45.91055007211976" lon="12.155483129388484"><ele>154.0</ele><time>2026-04-06T09:05:54Z</time></trkpt><trkpt lat="45.910590512501294" lon="12.155637687555233"><ele>154.0</ele><time>2026-04-06T09:05:55Z</time></trkpt><trkpt lat="45.910631496727014" lon="12.155776849334847"><ele>154.0</ele><time>2026-04-06T09:05:56Z</time></trkpt><trkpt lat="45.910666893506246" lon="12.155906066958133"><ele>154.0</ele><time>2026-04-06T09:05:57Z</time></trkpt><trkpt lat="45.91069972124556" lon="12.15601093309436"><ele>154.16666666666669</ele><time>2026-04-06T09:05:58Z</time></trkpt><trkpt lat="45.91074015788871" lon="12.156099701527687"><ele>154.33333333333334</ele><time>2026-04-06T09:06:01Z</time></trkpt><trkpt lat="45.91075787034551" lon="12.156198081051649"><ele>154.5</ele><time>2026-04-06T09:06:03Z</time></trkpt><trkpt lat="45.91073646440882" lon="12.15629117905728"><ele>154.66666666666666</ele><time>2026-04-06T09:06:04Z</time></trkpt><trkpt lat="45.91067342440111" lon="12.15638192426147"><ele>154.83333333333331</ele><time>2026-04-06T09:06:05Z</time></trkpt><trkpt lat="45.91057563362398" lon="12.15644191346066"><ele>155.0</ele><time>2026-04-06T09:06:06Z</time></trkpt><trkpt lat="45.91047605653244" lon="12.156484306012288"><ele>155.0</ele><time>2026-04-06T09:06:07Z</time></trkpt><trkpt lat="45.910384270035415" lon="12.156557601715559"><ele>155.0</ele><time>2026-04-06T09:06:08Z</time></trkpt><trkpt lat="45.91028573634202" lon="12.156613334708261"><ele>155.0</ele><time>2026-04-06T09:06:09Z</time></trkpt><trkpt lat="45.91017949343612" lon="12.156670735806436"><ele>155.0</ele><time>2026-04-06T09:06:10Z</time></trkpt><trkpt lat="45.91007801193677" lon="12.156740513659082"><ele>155.0</ele><time>2026-04-06T09:06:11Z</time></trkpt><trkpt lat="45.90997751769023" lon="12.156820112015257"><ele>154.0</ele><time>2026-04-06T09:06:12Z</time></trkpt><trkpt lat="45.90987259108361" lon="12.156911029695696"><ele>153.0</ele><time>2026-04-06T09:06:13Z</time></trkpt><trkpt lat="45.90976088229911" lon="12.157004278196274"><ele>152.0</ele><time>2026-04-06T09:06:14Z</time></trkpt><trkpt lat="45.909647432375785" lon="12.157092465035946"><ele>151.0</ele><time>2026-04-06T09:06:15Z</time></trkpt><trkpt lat="45.90953222611693" lon="12.157171888546237"><ele>151.0</ele><time>2026-04-06T09:06:16Z</time></trkpt><trkpt lat="45.90941079506697" lon="12.157244621545798"><ele>151.0</ele><time>2026-04-06T09:06:17Z</time></trkpt><trkpt lat="45.90928746819279" lon="12.157303381551609"><ele>151.0</ele><time>2026-04-06T09:06:18Z</time></trkpt><trkpt lat="45.909171868561906" lon="12.157374959458519"><ele>151.0</ele><time>2026-04-06T09:06:19Z</time></trkpt><trkpt lat="45.90905659991194" lon="12.157446223591862"><ele>150.25</ele><time>2026-04-06T09:06:20Z</time></trkpt><trkpt lat="45.90893127014383" lon="12.157514229747287"><ele>149.5</ele><time>2026-04-06T09:06:21Z</time></trkpt><trkpt lat="45.90880783118941" lon="12.157583626587968"><ele>148.75</ele><time>2026-04-06T09:06:22Z</time></trkpt><trkpt lat="45.908676364576706" lon="12.15765513957749"><ele>148.0</ele><time>2026-04-06T09:06:23Z</time></trkpt><trkpt lat="45.90855080296181" lon="12.157721112554242"><ele>148.0</ele><time>2026-04-06T09:06:24Z</time></trkpt><trkpt lat="45.908423987110254" lon="12.157796492190926"><ele>148.0</ele><time>2026-04-06T09:06:25Z</time></trkpt><trkpt lat="45.9082839097263" lon="12.157887018596782"><ele>148.0</ele><time>2026-04-06T09:06:26Z</time></trkpt><trkpt lat="45.90812916828125" lon="12.157983423829632"><ele>148.66666666666669</ele><time>2026-04-06T09:06:27Z</time></trkpt><trkpt lat="45.90794813813492" lon="12.158062216590505"><ele>149.33333333333334</ele><time>2026-04-06T09:06:28Z</time></trkpt><trkpt lat="45.90779805623531" lon="12.158166500120172"><ele>150.0</ele><time>2026-04-06T09:06:29Z</time></trkpt><trkpt lat="45.907652496851796" lon="12.158246746240357"><ele>149.66666666666666</ele><time>2026-04-06T09:06:30Z</time></trkpt><trkpt lat="45.90750225944809" lon="12.158312993588327"><ele>149.33333333333331</ele><time>2026-04-06T09:06:31Z</time></trkpt><trkpt lat="45.90733223304435" lon="12.158431797147754"><ele>149.0</ele><time>2026-04-06T09:06:32Z</time></trkpt><trkpt lat="45.90715571825797" lon="12.158508326910313"><ele>149.0</ele><time>2026-04-06T09:06:33Z</time></trkpt><trkpt lat="45.907001612497176" lon="12.15859768896868"><ele>149.0</ele><time>2026-04-06T09:06:34Z</time></trkpt><trkpt lat="45.90685606545858" lon="12.158691696225466"><ele>149.0</ele><time>2026-04-06T09:06:35Z</time></trkpt><trkpt lat="45.906713132911854" lon="12.158780836324112"><ele>149.33333333333331</ele><time>2026-04-06T09:06:36Z</time></trkpt><trkpt lat="45.90658142749741" lon="12.158894616135193"><ele>149.66666666666666</ele><time>2026-04-06T09:06:37Z</time></trkpt><trkpt lat="45.90644489738761" lon="12.159012107474863"><ele>150.0</ele><time>2026-04-06T09:06:38Z</time></trkpt><trkpt lat="45.90630945711273" lon="12.15915950024418"><ele>149.66666666666666</ele><time>2026-04-06T09:06:39Z</time></trkpt><trkpt lat="45.90616269341809" lon="12.159353406297017"><ele>149.33333333333331</ele><time>2026-04-06T09:06:40Z</time></trkpt><trkpt lat="45.90599871568728" lon="12.159561417911434"><ele>149.0</ele><time>2026-04-06T09:06:41Z</time></trkpt><trkpt lat="45.90583345530903" lon="12.159773083326103"><ele>148.66666666666666</ele><time>2026-04-06T09:06:42Z</time></trkpt><trkpt lat="45.90566663962059" lon="12.159967082077468"><ele>148.33333333333334</ele><time>2026-04-06T09:06:43Z</time></trkpt><trkpt lat="45.90551685028389" lon="12.160149843679363"><ele>148.0</ele><time>2026-04-06T09:06:44Z</time></trkpt><trkpt lat="45.90538054730305" lon="12.160324335744615"><ele>148.0</ele><time>2026-04-06T09:06:45Z</time></trkpt><trkpt lat="45.90525259786211" lon="12.160471622927405"><ele>148.0</ele><time>2026-04-06T09:06:46Z</time></trkpt><trkpt lat="45.90513187948832" lon="12.16061277948444"><ele>148.0</ele><time>2026-04-06T09:06:47Z</time></trkpt><trkpt lat="45.90502395447609" lon="12.160770758478982"><ele>148.33333333333334</ele><time>2026-04-06T09:06:48Z</time></trkpt><trkpt lat="45.90493332936999" lon="12.16095020078218"><ele>148.66666666666666</ele><time>2026-04-06T09:06:49Z</time></trkpt><trkpt lat="45.90485967230026" lon="12.161153697789262"><ele>149.0</ele><time>2026-04-06T09:06:50Z</time></trkpt><trkpt lat="45.90480669820104" lon="12.1613597157308"><ele>148.25</ele><time>2026-04-06T09:06:51Z</time></trkpt><trkpt lat="45.90476788526016" lon="12.161556558354846"><ele>147.5</ele><time>2026-04-06T09:06:52Z</time></trkpt><trkpt lat="45.904728225920344" lon="12.161749604906262"><ele>146.75</ele><time>2026-04-06T09:06:53Z</time></trkpt><trkpt lat="45.90468256592752" lon="12.16195577580598"><ele>146.0</ele><time>2026-04-06T09:06:54Z</time></trkpt><trkpt lat="45.90461026168521" lon="12.162153855104819"><ele>146.0</ele><time>2026-04-06T09:06:55Z</time></trkpt><trkpt lat="45.90454146202143" lon="12.162329928313387"><ele>146.0</ele><time>2026-04-06T09:06:56Z</time></trkpt><trkpt lat="45.90448437698538" lon="12.162500876591045"><ele>146.0</ele><time>2026-04-06T09:06:57Z</time></trkpt><trkpt lat="45.904426194854054" lon="12.162635684168372"><ele>146.0</ele><time>2026-04-06T09:06:58Z</time></trkpt><trkpt lat="45.904368074834125" lon="12.16274397602011"><ele>145.66666666666666</ele><time>2026-04-06T09:06:59Z</time></trkpt><trkpt lat="45.9043110859511" lon="12.162829770520728"><ele>145.33333333333331</ele><time>2026-04-06T09:07:00Z</time></trkpt><trkpt lat="45.904243334994895" lon="12.162893514659762"><ele>145.0</ele><time>2026-04-06T09:07:01Z</time></trkpt><trkpt lat="45.90418998265851" lon="12.162970649765755"><ele>144.66666666666666</ele><time>2026-04-06T09:07:02Z</time></trkpt><trkpt lat="45.90416181223328" lon="12.163072459407896"><ele>144.33333333333334</ele><time>2026-04-06T09:07:03Z</time></trkpt><trkpt lat="45.90416659150055" lon="12.163172787480306"><ele>144.0</ele><time>2026-04-06T09:07:04Z</time></trkpt><trkpt lat="45.90420328593149" lon="12.163250764902202"><ele>142.8</ele><time>2026-04-06T09:07:05Z</time></trkpt><trkpt lat="45.90426548630624" lon="12.163295193171134"><ele>141.60000000000002</ele><time>2026-04-06T09:07:06Z</time></trkpt><trkpt lat="45.90434795896561" lon="12.163287044689609"><ele>140.4</ele><time>2026-04-06T09:07:07Z</time></trkpt><trkpt lat="45.904429511389885" lon="12.163245260378531"><ele>139.20000000000002</ele><time>2026-04-06T09:07:08Z</time></trkpt><trkpt lat="45.90454083175196" lon="12.163204803810531"><ele>138.0</ele><time>2026-04-06T09:07:09Z</time></trkpt><trkpt lat="45.90467930990374" lon="12.163205094444372"><ele>138.0</ele><time>2026-04-06T09:07:10Z</time></trkpt><trkpt lat="45.904841815321724" lon="12.163211142579687"><ele>138.0</ele><time>2026-04-06T09:07:11Z</time></trkpt><trkpt lat="45.905012450435045" lon="12.163198057867437"><ele>138.0</ele><time>2026-04-06T09:07:12Z</time></trkpt><trkpt lat="45.90517743327834" lon="12.163199174117265"><ele>137.0</ele><time>2026-04-06T09:07:13Z</time></trkpt><trkpt lat="45.905368619989616" lon="12.163207354494373"><ele>136.0</ele><time>2026-04-06T09:07:14Z</time></trkpt><trkpt lat="45.90556756230816" lon="12.163203973135765"><ele>135.0</ele><time>2026-04-06T09:07:15Z</time></trkpt><trkpt lat="45.905783551171325" lon="12.163197410635824"><ele>135.33333333333334</ele><time>2026-04-06T09:07:16Z</time></trkpt><trkpt lat="45.906011059727824" lon="12.163200675968417"><ele>135.66666666666669</ele><time>2026-04-06T09:07:17Z</time></trkpt><trkpt lat="45.90621937877613" lon="12.163206105926275"><ele>136.0</ele><time>2026-04-06T09:07:18Z</time></trkpt><trkpt lat="45.906439489530115" lon="12.16320767699628"><ele>136.0</ele><time>2026-04-06T09:07:19Z</time></trkpt><trkpt lat="45.90665483232953" lon="12.163207177131042"><ele>136.0</ele><time>2026-04-06T09:07:20Z</time></trkpt><trkpt lat="45.90685886304655" lon="12.163208805104995"><ele>136.0</ele><time>2026-04-06T09:07:21Z</time></trkpt><trkpt lat="45.9070484031385" lon="12.1632105894246"><ele>137.66666666666669</ele><time>2026-04-06T09:07:22Z</time></trkpt><trkpt lat="45.90722839400724" lon="12.163212675677439"><ele>139.33333333333334</ele><time>2026-04-06T09:07:23Z</time></trkpt><trkpt lat="45.90740758347744" lon="12.163210199418291"><ele>141.0</ele><time>2026-04-06T09:07:24Z</time></trkpt><trkpt lat="45.90758945366391" lon="12.163207520829655"><ele>141.0</ele><time>2026-04-06T09:07:25Z</time></trkpt><trkpt lat="45.90776706018346" lon="12.163207934007303"><ele>141.0</ele><time>2026-04-06T09:07:26Z</time></trkpt><trkpt lat="45.90794434921732" lon="12.163210457640911"><ele>141.0</ele><time>2026-04-06T09:07:27Z</time></trkpt><trkpt lat="45.908120940106656" lon="12.163212838864455"><ele>141.0</ele><time>2026-04-06T09:07:28Z</time></trkpt><trkpt lat="45.9082301740756" lon="12.16321558040227"><ele>141.0</ele><time>2026-04-06T09:07:29Z</time></trkpt><trkpt lat="45.90836359755722" lon="12.163210649798021"><ele>141.0</ele><time>2026-04-06T09:07:30Z</time></trkpt><trkpt lat="45.90849401099277" lon="12.163203522094111"><ele>141.0</ele><time>2026-04-06T09:07:31Z</time></trkpt><trkpt lat="45.90859114737824" lon="12.163208883209839"><ele>140.83333333333334</ele><time>2026-04-06T09:07:32Z</time></trkpt><trkpt lat="45.90867621537867" lon="12.163219733366393"><ele>140.66666666666666</ele><time>2026-04-06T09:07:33Z</time></trkpt><trkpt lat="45.90875964867147" lon="12.163213261284145"><ele>140.5</ele><time>2026-04-06T09:07:34Z</time></trkpt><trkpt lat="45.9088458621578" lon="12.163207585759727"><ele>140.33333333333331</ele><time>2026-04-06T09:07:35Z</time></trkpt><trkpt lat="45.90893065733889" lon="12.163231859399712"><ele>140.16666666666666</ele><time>2026-04-06T09:07:36Z</time></trkpt><trkpt lat="45.90899620447677" lon="12.163254575862062"><ele>140.0</ele><time>2026-04-06T09:07:37Z</time></trkpt><trkpt lat="45.90907373371046" lon="12.163250093095028"><ele>140.0</ele><time>2026-04-06T09:07:38Z</time></trkpt><trkpt lat="45.90919376603205" lon="12.16322352081795"><ele>140.0</ele><time>2026-04-06T09:07:39Z</time></trkpt><trkpt lat="45.9093582556794" lon="12.163204498499242"><ele>140.0</ele><time>2026-04-06T09:07:40Z</time></trkpt><trkpt lat="45.90955393796326" lon="12.163218908939946"><ele>139.0</ele><time>2026-04-06T09:07:41Z</time></trkpt><trkpt lat="45.90974696371737" lon="12.16324379351936"><ele>138.0</ele><time>2026-04-06T09:07:42Z</time></trkpt><trkpt lat="45.90993859594925" lon="12.163236528855784"><ele>137.0</ele><time>2026-04-06T09:07:43Z</time></trkpt><trkpt lat="45.91015681929039" lon="12.163220950347847"><ele>136.5</ele><time>2026-04-06T09:07:44Z</time></trkpt><trkpt lat="45.91039321299085" lon="12.163218590211104"><ele>136.0</ele><time>2026-04-06T09:07:45Z</time></trkpt><trkpt lat="45.910627718782166" lon="12.163223091541049"><ele>136.0</ele><time>2026-04-06T09:07:46Z</time></trkpt><trkpt lat="45.91086078844679" lon="12.163219660205572"><ele>136.0</ele><time>2026-04-06T09:07:47Z</time></trkpt><trkpt lat="45.91110802310642" lon="12.163216671369327"><ele>137.0</ele><time>2026-04-06T09:07:48Z</time></trkpt><trkpt lat="45.911358279808134" lon="12.16321150424745"><ele>138.0</ele><time>2026-04-06T09:07:49Z</time></trkpt><trkpt lat="45.91162127875703" lon="12.1632105488841"><ele>137.0</ele><time>2026-04-06T09:07:50Z</time></trkpt><trkpt lat="45.91191924246499" lon="12.16322085518591"><ele>136.0</ele><time>2026-04-06T09:07:51Z</time></trkpt><trkpt lat="45.91220970342827" lon="12.163222451039864"><ele>136.0</ele><time>2026-04-06T09:07:52Z</time></trkpt><trkpt lat="45.91248449498197" lon="12.163213508771555"><ele>136.0</ele><time>2026-04-06T09:07:53Z</time></trkpt><trkpt lat="45.91274400650912" lon="12.163201478666988"><ele>137.0</ele><time>2026-04-06T09:07:54Z</time></trkpt><trkpt lat="45.91300130893179" lon="12.163183325926399"><ele>138.0</ele><time>2026-04-06T09:07:55Z</time></trkpt><trkpt lat="45.91325890432534" lon="12.163149346013869"><ele>139.0</ele><time>2026-04-06T09:07:56Z</time></trkpt><trkpt lat="45.91351594314665" lon="12.163092750577079"><ele>140.0</ele><time>2026-04-06T09:07:57Z</time></trkpt><trkpt lat="45.91375988064342" lon="12.16303583618658"><ele>140.0</ele><time>2026-04-06T09:07:58Z</time></trkpt><trkpt lat="45.913979887878746" lon="12.162975798507745"><ele>140.0</ele><time>2026-04-06T09:07:59Z</time></trkpt><trkpt lat="45.91418629588979" lon="12.16291663688132"><ele>140.0</ele><time>2026-04-06T09:08:00Z</time></trkpt><trkpt lat="45.91439454800996" lon="12.162860699515253"><ele>139.33333333333331</ele><time>2026-04-06T09:08:01Z</time></trkpt><trkpt lat="45.91461197619105" lon="12.16279779928297"><ele>138.66666666666666</ele><time>2026-04-06T09:08:02Z</time></trkpt><trkpt lat="45.91483455855251" lon="12.162732416516063"><ele>138.0</ele><time>2026-04-06T09:08:03Z</time></trkpt><trkpt lat="45.915057368580754" lon="12.162664048487834"><ele>138.0</ele><time>2026-04-06T09:08:04Z</time></trkpt><trkpt lat="45.915282201743636" lon="12.162599771520394"><ele>138.0</ele><time>2026-04-06T09:08:05Z</time></trkpt><trkpt lat="45.91549513748128" lon="12.16254169445018"><ele>138.0</ele><time>2026-04-06T09:08:06Z</time></trkpt><trkpt lat="45.91569602894076" lon="12.162480638554975"><ele>138.0</ele><time>2026-04-06T09:08:07Z</time></trkpt><trkpt lat="45.915892086257365" lon="12.162426147379687"><ele>138.0</ele><time>2026-04-06T09:08:08Z</time></trkpt><trkpt lat="45.91609414731228" lon="12.16238048986493"><ele>138.0</ele><time>2026-04-06T09:08:09Z</time></trkpt><trkpt lat="45.91630052739644" lon="12.162321539706298"><ele>139.0</ele><time>2026-04-06T09:08:10Z</time></trkpt><trkpt lat="45.916512310889345" lon="12.162252643131364"><ele>140.0</ele><time>2026-04-06T09:08:11Z</time></trkpt><trkpt lat="45.91672860157933" lon="12.162198522701246"><ele>141.0</ele><time>2026-04-06T09:08:12Z</time></trkpt><trkpt lat="45.91693482104571" lon="12.162147425796427"><ele>142.0</ele><time>2026-04-06T09:08:13Z</time></trkpt><trkpt lat="45.91713254692691" lon="12.162084462568522"><ele>143.0</ele><time>2026-04-06T09:08:14Z</time></trkpt><trkpt lat="45.91731078528646" lon="12.162031059455785"><ele>144.0</ele><time>2026-04-06T09:08:15Z</time></trkpt><trkpt lat="45.917492740500165" lon="12.161979899897387"><ele>145.0</ele><time>2026-04-06T09:08:16Z</time></trkpt><trkpt lat="45.91768212447648" lon="12.161935825035506"><ele>146.0</ele><time>2026-04-06T09:08:17Z</time></trkpt><trkpt lat="45.91788228936708" lon="12.161870548115782"><ele>147.0</ele><time>2026-04-06T09:08:18Z</time></trkpt><trkpt lat="45.91807508637224" lon="12.161777622449836"><ele>147.0</ele><time>2026-04-06T09:08:19Z</time></trkpt><trkpt lat="45.918259705425314" lon="12.1616775624104"><ele>147.0</ele><time>2026-04-06T09:08:20Z</time></trkpt><trkpt lat="45.918424116036825" lon="12.161556151049396"><ele>147.0</ele><time>2026-04-06T09:08:21Z</time></trkpt><trkpt lat="45.91858923924659" lon="12.161433754998226"><ele>147.66666666666666</ele><time>2026-04-06T09:08:22Z</time></trkpt><trkpt lat="45.91875276008359" lon="12.161321122374797"><ele>148.33333333333331</ele><time>2026-04-06T09:08:23Z</time></trkpt><trkpt lat="45.91886158727011" lon="12.161029972237596"><ele>149.0</ele><time>2026-04-06T09:08:24Z</time></trkpt><trkpt lat="45.91898243980066" lon="12.160804915961211"><ele>148.33333333333331</ele><time>2026-04-06T09:08:25Z</time></trkpt><trkpt lat="45.91910646285886" lon="12.160607695789281"><ele>147.66666666666666</ele><time>2026-04-06T09:08:26Z</time></trkpt><trkpt lat="45.91922283190599" lon="12.16043786509289"><ele>147.0</ele><time>2026-04-06T09:08:27Z</time></trkpt><trkpt lat="45.919311749685654" lon="12.16028907412907"><ele>147.25</ele><time>2026-04-06T09:08:28Z</time></trkpt><trkpt lat="45.919394750939865" lon="12.160146076268513"><ele>147.5</ele><time>2026-04-06T09:08:29Z</time></trkpt><trkpt lat="45.91948641490164" lon="12.160018304227101"><ele>147.75</ele><time>2026-04-06T09:08:30Z</time></trkpt><trkpt lat="45.91959041912965" lon="12.15988551848939"><ele>148.0</ele><time>2026-04-06T09:08:31Z</time></trkpt><trkpt lat="45.91970797546004" lon="12.159719819338397"><ele>148.0</ele><time>2026-04-06T09:08:32Z</time></trkpt><trkpt lat="45.9198541666578" lon="12.159545675793932"><ele>148.0</ele><time>2026-04-06T09:08:33Z</time></trkpt><trkpt lat="45.92002523943183" lon="12.159379450879879"><ele>148.0</ele><time>2026-04-06T09:08:34Z</time></trkpt><trkpt lat="45.92017641952964" lon="12.159204860584374"><ele>148.0</ele><time>2026-04-06T09:08:35Z</time></trkpt><trkpt lat="45.92031249415808" lon="12.159043933445059"><ele>148.0</ele><time>2026-04-06T09:08:36Z</time></trkpt><trkpt lat="45.92044301267547" lon="12.15889637193985"><ele>148.0</ele><time>2026-04-06T09:08:37Z</time></trkpt><trkpt lat="45.92057036609273" lon="12.15875482697921"><ele>147.66666666666669</ele><time>2026-04-06T09:08:38Z</time></trkpt><trkpt lat="45.92069284627202" lon="12.158618133846161"><ele>147.33333333333334</ele><time>2026-04-06T09:08:39Z</time></trkpt><trkpt lat="45.92083047180657" lon="12.158479083332056"><ele>147.0</ele><time>2026-04-06T09:08:40Z</time></trkpt><trkpt lat="45.92097106798963" lon="12.158337290340377"><ele>146.66666666666666</ele><time>2026-04-06T09:08:41Z</time></trkpt><trkpt lat="45.92110699059406" lon="12.158196634273436"><ele>146.33333333333331</ele><time>2026-04-06T09:08:42Z</time></trkpt><trkpt lat="45.92124270970991" lon="12.15806334182401"><ele>146.0</ele><time>2026-04-06T09:08:43Z</time></trkpt><trkpt lat="45.92138438751895" lon="12.157936441904281"><ele>146.0</ele><time>2026-04-06T09:08:44Z</time></trkpt><trkpt lat="45.92153397826632" lon="12.157815478730601"><ele>146.0</ele><time>2026-04-06T09:08:45Z</time></trkpt><trkpt lat="45.921680576515705" lon="12.157701021242444"><ele>146.0</ele><time>2026-04-06T09:08:46Z</time></trkpt><trkpt lat="45.92182016166126" lon="12.157587916820239"><ele>146.33333333333331</ele><time>2026-04-06T09:08:47Z</time></trkpt><trkpt lat="45.92195942338845" lon="12.157471981444926"><ele>146.66666666666666</ele><time>2026-04-06T09:08:48Z</time></trkpt><trkpt lat="45.922092590865965" lon="12.15735444916247"><ele>147.0</ele><time>2026-04-06T09:08:49Z</time></trkpt><trkpt lat="45.92223012211078" lon="12.157233265106981"><ele>147.0</ele><time>2026-04-06T09:08:50Z</time></trkpt><trkpt lat="45.92236964239156" lon="12.157121126936012"><ele>147.0</ele><time>2026-04-06T09:08:51Z</time></trkpt><trkpt lat="45.92250673665481" lon="12.157004833604635"><ele>147.0</ele><time>2026-04-06T09:08:52Z</time></trkpt><trkpt lat="45.922645686920376" lon="12.15688295857267"><ele>147.33333333333334</ele><time>2026-04-06T09:08:53Z</time></trkpt><trkpt lat="45.922779988948804" lon="12.156763610801915"><ele>147.66666666666669</ele><time>2026-04-06T09:08:54Z</time></trkpt><trkpt lat="45.92291831465276" lon="12.15664510617817"><ele>148.0</ele><time>2026-04-06T09:08:55Z</time></trkpt><trkpt lat="45.92305897696482" lon="12.156519496864986"><ele>148.33333333333334</ele><time>2026-04-06T09:08:56Z</time></trkpt><trkpt lat="45.923208495605586" lon="12.156395058671585"><ele>148.66666666666666</ele><time>2026-04-06T09:08:57Z</time></trkpt><trkpt lat="45.92336325891081" lon="12.156262383923623"><ele>149.0</ele><time>2026-04-06T09:08:58Z</time></trkpt><trkpt lat="45.923534729105" lon="12.156110428881062"><ele>149.0</ele><time>2026-04-06T09:08:59Z</time></trkpt><trkpt lat="45.92371643049847" lon="12.155944211561769"><ele>149.0</ele><time>2026-04-06T09:09:00Z</time></trkpt><trkpt lat="45.92389983242962" lon="12.15577863085621"><ele>149.0</ele><time>2026-04-06T09:09:01Z</time></trkpt><trkpt lat="45.92406815388607" lon="12.15563533109018"><ele>149.0</ele><time>2026-04-06T09:09:02Z</time></trkpt><trkpt lat="45.924220402388826" lon="12.155498180028241"><ele>149.0</ele><time>2026-04-06T09:09:03Z</time></trkpt><trkpt lat="45.924350659650294" lon="12.1553731298409"><ele>149.0</ele><time>2026-04-06T09:09:04Z</time></trkpt><trkpt lat="45.9244694359665" lon="12.1552648653542"><ele>149.0</ele><time>2026-04-06T09:09:05Z</time></trkpt><trkpt lat="45.924586643458184" lon="12.155169146083004"><ele>149.0</ele><time>2026-04-06T09:09:06Z</time></trkpt><trkpt lat="45.92470562840813" lon="12.155076046155234"><ele>149.0</ele><time>2026-04-06T09:09:07Z</time></trkpt><trkpt lat="45.92482653407675" lon="12.154974185183029"><ele>149.0</ele><time>2026-04-06T09:09:08Z</time></trkpt><trkpt lat="45.92493918467908" lon="12.154879186901837"><ele>149.0</ele><time>2026-04-06T09:09:09Z</time></trkpt><trkpt lat="45.92503257378509" lon="12.154787626292668"><ele>149.0</ele><time>2026-04-06T09:09:10Z</time></trkpt><trkpt lat="45.92513323891036" lon="12.154697883068147"><ele>149.0</ele><time>2026-04-06T09:09:11Z</time></trkpt><trkpt lat="45.925261873974264" lon="12.154613347534273"><ele>149.0</ele><time>2026-04-06T09:09:12Z</time></trkpt><trkpt lat="45.92539916095935" lon="12.154488102650149"><ele>149.66666666666666</ele><time>2026-04-06T09:09:13Z</time></trkpt><trkpt lat="45.92554729974686" lon="12.15434408987559"><ele>150.33333333333334</ele><time>2026-04-06T09:09:14Z</time></trkpt><trkpt lat="45.92570529365114" lon="12.154213865525946"><ele>151.0</ele><time>2026-04-06T09:09:15Z</time></trkpt><trkpt lat="45.925864818980585" lon="12.154074412132235"><ele>151.66666666666669</ele><time>2026-04-06T09:09:16Z</time></trkpt><trkpt lat="45.9260338826904" lon="12.153916976523853"><ele>152.33333333333334</ele><time>2026-04-06T09:09:17Z</time></trkpt><trkpt lat="45.92620791544683" lon="12.153757768985075"><ele>153.0</ele><time>2026-04-06T09:09:18Z</time></trkpt><trkpt lat="45.92639452235693" lon="12.153599560545821"><ele>153.0</ele><time>2026-04-06T09:09:19Z</time></trkpt><trkpt lat="45.92657589564753" lon="12.153461483960006"><ele>153.0</ele><time>2026-04-06T09:09:20Z</time></trkpt><trkpt lat="45.92674145293293" lon="12.15332221827203"><ele>153.0</ele><time>2026-04-06T09:09:21Z</time></trkpt><trkpt lat="45.92689059721082" lon="12.153186972085228"><ele>153.33333333333334</ele><time>2026-04-06T09:09:22Z</time></trkpt><trkpt lat="45.92703370638766" lon="12.153053239925248"><ele>153.66666666666669</ele><time>2026-04-06T09:09:23Z</time></trkpt><trkpt lat="45.92717934487653" lon="12.152917760912068"><ele>154.0</ele><time>2026-04-06T09:09:24Z</time></trkpt><trkpt lat="45.92732487878396" lon="12.152789761721904"><ele>154.0</ele><time>2026-04-06T09:09:25Z</time></trkpt><trkpt lat="45.927459328689494" lon="12.152679140070376"><ele>154.0</ele><time>2026-04-06T09:09:26Z</time></trkpt><trkpt lat="45.92759011965913" lon="12.152562190250098"><ele>154.0</ele><time>2026-04-06T09:09:27Z</time></trkpt><trkpt lat="45.92771006045764" lon="12.152449413585316"><ele>155.0</ele><time>2026-04-06T09:09:28Z</time></trkpt><trkpt lat="45.927829242019236" lon="12.152359342528518"><ele>156.0</ele><time>2026-04-06T09:09:29Z</time></trkpt><trkpt lat="45.92793928938466" lon="12.152269918919586"><ele>157.0</ele><time>2026-04-06T09:09:30Z</time></trkpt><trkpt lat="45.92804244559306" lon="12.152180985720959"><ele>158.0</ele><time>2026-04-06T09:09:31Z</time></trkpt><trkpt lat="45.92815439575977" lon="12.152102869030491"><ele>158.0</ele><time>2026-04-06T09:09:32Z</time></trkpt><trkpt lat="45.92826260023999" lon="12.152000292592653"><ele>158.0</ele><time>2026-04-06T09:09:33Z</time></trkpt><trkpt lat="45.92836854245894" lon="12.151885799364878"><ele>158.0</ele><time>2026-04-06T09:09:34Z</time></trkpt><trkpt lat="45.92847797730618" lon="12.151793799505146"><ele>158.0</ele><time>2026-04-06T09:09:35Z</time></trkpt><trkpt lat="45.92857827768836" lon="12.151709206629029"><ele>158.0</ele><time>2026-04-06T09:09:36Z</time></trkpt><trkpt lat="45.92867801737788" lon="12.151619840059999"><ele>158.0</ele><time>2026-04-06T09:09:37Z</time></trkpt><trkpt lat="45.92877945956034" lon="12.151526398548716"><ele>158.0</ele><time>2026-04-06T09:09:38Z</time></trkpt><trkpt lat="45.92889012276587" lon="12.151416799508004"><ele>158.0</ele><time>2026-04-06T09:09:39Z</time></trkpt><trkpt lat="45.929000365640476" lon="12.151282289615937"><ele>158.0</ele><time>2026-04-06T09:09:40Z</time></trkpt><trkpt lat="45.92909740941922" lon="12.151114212666286"><ele>158.0</ele><time>2026-04-06T09:09:41Z</time></trkpt><trkpt lat="45.929169214044855" lon="12.150945035071553"><ele>158.0</ele><time>2026-04-06T09:09:42Z</time></trkpt><trkpt lat="45.929223767750585" lon="12.150787790204784"><ele>158.0</ele><time>2026-04-06T09:09:43Z</time></trkpt><trkpt lat="45.929277717503766" lon="12.150633478515218"><ele>159.25</ele><time>2026-04-06T09:09:44Z</time></trkpt><trkpt lat="45.9293191739138" lon="12.150473053852625"><ele>160.5</ele><time>2026-04-06T09:09:45Z</time></trkpt><trkpt lat="45.929348838328444" lon="12.150299641828905"><ele>161.75</ele><time>2026-04-06T09:09:46Z</time></trkpt><trkpt lat="45.92937848156069" lon="12.150117158423793"><ele>163.0</ele><time>2026-04-06T09:09:47Z</time></trkpt><trkpt lat="45.929412378963065" lon="12.149925945571667"><ele>162.75</ele><time>2026-04-06T09:09:48Z</time></trkpt><trkpt lat="45.92944354264193" lon="12.149732983120533"><ele>162.5</ele><time>2026-04-06T09:09:49Z</time></trkpt><trkpt lat="45.92947476303753" lon="12.149543659585996"><ele>162.25</ele><time>2026-04-06T09:09:50Z</time></trkpt><trkpt lat="45.929503152623255" lon="12.149362770329283"><ele>162.0</ele><time>2026-04-06T09:09:51Z</time></trkpt><trkpt lat="45.92953305750453" lon="12.14918986615913"><ele>161.75</ele><time>2026-04-06T09:09:52Z</time></trkpt><trkpt lat="45.92956408707676" lon="12.14901266691974"><ele>161.5</ele><time>2026-04-06T09:09:53Z</time></trkpt><trkpt lat="45.92959611581213" lon="12.148842253554209"><ele>161.25</ele><time>2026-04-06T09:09:54Z</time></trkpt><trkpt lat="45.929629534081165" lon="12.148668094008634"><ele>161.0</ele><time>2026-04-06T09:09:55Z</time></trkpt><trkpt lat="45.92965670174691" lon="12.148492138280066"><ele>161.0</ele><time>2026-04-06T09:09:56Z</time></trkpt><trkpt lat="45.92968549667977" lon="12.148305868911478"><ele>161.0</ele><time>2026-04-06T09:09:57Z</time></trkpt><trkpt lat="45.929711321223934" lon="12.148112215171983"><ele>161.0</ele><time>2026-04-06T09:09:58Z</time></trkpt><trkpt lat="45.92975465941188" lon="12.1479003329694"><ele>161.0</ele><time>2026-04-06T09:09:59Z</time></trkpt><trkpt lat="45.929799655645944" lon="12.147656542120563"><ele>161.0</ele><time>2026-04-06T09:10:00Z</time></trkpt><trkpt lat="45.92983284117364" lon="12.147398351026993"><ele>161.0</ele><time>2026-04-06T09:10:01Z</time></trkpt><trkpt lat="45.92987469213948" lon="12.147149393752022"><ele>161.0</ele><time>2026-04-06T09:10:02Z</time></trkpt><trkpt lat="45.929910070773495" lon="12.146875721400807"><ele>161.0</ele><time>2026-04-06T09:10:03Z</time></trkpt><trkpt lat="45.92998800680727" lon="12.146566626420254"><ele>161.0</ele><time>2026-04-06T09:10:04Z</time></trkpt><trkpt lat="45.930048323947666" lon="12.146211115664048"><ele>169.5</ele><time>2026-04-06T09:10:05Z</time></trkpt><trkpt lat="45.93011513653519" lon="12.145817755151779"><ele>178.0</ele><time>2026-04-06T09:10:06Z</time></trkpt><trkpt lat="45.930182414935246" lon="12.145423323340612"><ele>178.0</ele><time>2026-04-06T09:10:07Z</time></trkpt><trkpt lat="45.930235378939564" lon="12.145047174988454"><ele>178.0</ele><time>2026-04-06T09:10:08Z</time></trkpt><trkpt lat="45.93029781936856" lon="12.144730722665745"><ele>177.33333333333334</ele><time>2026-04-06T09:10:09Z</time></trkpt><trkpt lat="45.93033633804808" lon="12.144468637832643"><ele>176.66666666666666</ele><time>2026-04-06T09:10:10Z</time></trkpt><trkpt lat="45.93037990323044" lon="12.144227475230641"><ele>176.0</ele><time>2026-04-06T09:10:11Z</time></trkpt><trkpt lat="45.93043352647176" lon="12.143993177604434"><ele>174.75</ele><time>2026-04-06T09:10:12Z</time></trkpt><trkpt lat="45.93047394486558" lon="12.143773549933092"><ele>173.5</ele><time>2026-04-06T09:10:13Z</time></trkpt><trkpt lat="45.930503356157715" lon="12.143565748228712"><ele>172.25</ele><time>2026-04-06T09:10:14Z</time></trkpt><trkpt lat="45.93053935469541" lon="12.143366177709291"><ele>171.0</ele><time>2026-04-06T09:10:15Z</time></trkpt><trkpt lat="45.93058787501236" lon="12.143169568490297"><ele>169.5</ele><time>2026-04-06T09:10:16Z</time></trkpt><trkpt lat="45.93063746348894" lon="12.14298004944069"><ele>168.0</ele><time>2026-04-06T09:10:17Z</time></trkpt><trkpt lat="45.93069854267466" lon="12.142804985896797"><ele>166.5</ele><time>2026-04-06T09:10:18Z</time></trkpt><trkpt lat="45.93076862374038" lon="12.142641129031428"><ele>165.0</ele><time>2026-04-06T09:10:19Z</time></trkpt><trkpt lat="45.93084096441623" lon="12.142490733759766"><ele>164.5</ele><time>2026-04-06T09:10:20Z</time></trkpt><trkpt lat="45.93094636225734" lon="12.142378533478427"><ele>164.0</ele><time>2026-04-06T09:10:21Z</time></trkpt><trkpt lat="45.93105944337539" lon="12.142284794698707"><ele>163.5</ele><time>2026-04-06T09:10:22Z</time></trkpt><trkpt lat="45.93116466993394" lon="12.142202049626956"><ele>163.0</ele><time>2026-04-06T09:10:23Z</time></trkpt><trkpt lat="45.93126492634408" lon="12.142138103314315"><ele>163.0</ele><time>2026-04-06T09:10:24Z</time></trkpt><trkpt lat="45.9313614443747" lon="12.142061369436266"><ele>163.0</ele><time>2026-04-06T09:10:25Z</time></trkpt><trkpt lat="45.93147666392057" lon="12.142015875839862"><ele>163.0</ele><time>2026-04-06T09:10:26Z</time></trkpt><trkpt lat="45.93160581788676" lon="12.141968325751165"><ele>163.0</ele><time>2026-04-06T09:10:27Z</time></trkpt><trkpt lat="45.931721944646476" lon="12.141923371119242"><ele>163.75</ele><time>2026-04-06T09:10:28Z</time></trkpt><trkpt lat="45.93183536075438" lon="12.141879941687185"><ele>164.5</ele><time>2026-04-06T09:10:29Z</time></trkpt><trkpt lat="45.93195762233377" lon="12.141828091731847"><ele>165.25</ele><time>2026-04-06T09:10:30Z</time></trkpt><trkpt lat="45.93208513887022" lon="12.141754262362753"><ele>166.0</ele><time>2026-04-06T09:10:31Z</time></trkpt><trkpt lat="45.93220506777345" lon="12.141660724764336"><ele>166.0</ele><time>2026-04-06T09:10:31.999Z</time></trkpt><trkpt lat="45.932313346672146" lon="12.141558675564221"><ele>166.0</ele><time>2026-04-06T09:10:32.999Z</time></trkpt><trkpt lat="45.93238819048423" lon="12.141487475498455"><ele>166.0</ele><time>2026-04-06T09:10:33.999Z</time></trkpt><trkpt lat="45.932452076211604" lon="12.141426768307042"><ele>166.0</ele><time>2026-04-06T09:10:34.999Z</time></trkpt><trkpt lat="45.93251796990583" lon="12.141353517545877"><ele>166.0</ele><time>2026-04-06T09:10:35.999Z</time></trkpt><trkpt lat="45.93260958665216" lon="12.141227561421305"><ele>166.0</ele><time>2026-04-06T09:10:36.999Z</time></trkpt><trkpt lat="45.93274002593279" lon="12.141063142288814"><ele>166.0</ele><time>2026-04-06T09:10:37.999Z</time></trkpt><trkpt lat="45.93289669819781" lon="12.140895213449658"><ele>166.0</ele><time>2026-04-06T09:10:38.999Z</time></trkpt><trkpt lat="45.93306498041348" lon="12.140695372636133"><ele>165.66666666666669</ele><time>2026-04-06T09:10:39.999Z</time></trkpt><trkpt lat="45.933210743292484" lon="12.140518418663488"><ele>165.33333333333334</ele><time>2026-04-06T09:10:40.999Z</time></trkpt><trkpt lat="45.933347971532704" lon="12.140357603001917"><ele>165.0</ele><time>2026-04-06T09:10:41.999Z</time></trkpt><trkpt lat="45.93349550355738" lon="12.140194388028634"><ele>165.0</ele><time>2026-04-06T09:10:43Z</time></trkpt><trkpt lat="45.933643007928545" lon="12.14002732465427"><ele>165.0</ele><time>2026-04-06T09:10:44Z</time></trkpt><trkpt lat="45.93378397847156" lon="12.139855019657684"><ele>165.0</ele><time>2026-04-06T09:10:45Z</time></trkpt><trkpt lat="45.93391796026711" lon="12.139697214736339"><ele>165.0</ele><time>2026-04-06T09:10:46Z</time></trkpt><trkpt lat="45.93404155967437" lon="12.139554018577602"><ele>165.0</ele><time>2026-04-06T09:10:47Z</time></trkpt><trkpt lat="45.93417037447574" lon="12.139411428327794"><ele>165.0</ele><time>2026-04-06T09:10:48Z</time></trkpt><trkpt lat="45.9342998117683" lon="12.139271513388426"><ele>164.66666666666666</ele><time>2026-04-06T09:10:49Z</time></trkpt><trkpt lat="45.93441829572717" lon="12.139138845369818"><ele>164.33333333333331</ele><time>2026-04-06T09:10:50Z</time></trkpt><trkpt lat="45.93452975679591" lon="12.139005743715742"><ele>164.0</ele><time>2026-04-06T09:10:51Z</time></trkpt><trkpt lat="45.934657278108865" lon="12.138848150387652"><ele>164.0</ele><time>2026-04-06T09:10:52Z</time></trkpt><trkpt lat="45.93480412469976" lon="12.138675412593217"><ele>164.0</ele><time>2026-04-06T09:10:53Z</time></trkpt><trkpt lat="45.93496922073345" lon="12.138472675182996"><ele>164.0</ele><time>2026-04-06T09:10:54Z</time></trkpt><trkpt lat="45.935157408512644" lon="12.138251838139471"><ele>164.5</ele><time>2026-04-06T09:10:55Z</time></trkpt><trkpt lat="45.935353102562196" lon="12.13804780905867"><ele>165.0</ele><time>2026-04-06T09:10:56Z</time></trkpt><trkpt lat="45.9355274541854" lon="12.137859147272803"><ele>165.0</ele><time>2026-04-06T09:10:57Z</time></trkpt><trkpt lat="45.935697825647246" lon="12.137659308377206"><ele>165.0</ele><time>2026-04-06T09:10:58Z</time></trkpt><trkpt lat="45.93587233841909" lon="12.137456517533199"><ele>165.0</ele><time>2026-04-06T09:10:59Z</time></trkpt><trkpt lat="45.93604034001384" lon="12.137264528118688"><ele>166.0</ele><time>2026-04-06T09:11:00Z</time></trkpt><trkpt lat="45.93620223963956" lon="12.137075509273032"><ele>167.0</ele><time>2026-04-06T09:11:01Z</time></trkpt><trkpt lat="45.93636033423176" lon="12.136891778588419"><ele>168.0</ele><time>2026-04-06T09:11:02Z</time></trkpt><trkpt lat="45.936506117368396" lon="12.136725050661509"><ele>168.0</ele><time>2026-04-06T09:11:03Z</time></trkpt><trkpt lat="45.93663288496588" lon="12.136582085974128"><ele>168.0</ele><time>2026-04-06T09:11:04Z</time></trkpt><trkpt lat="45.93675338606841" lon="12.136443480579741"><ele>168.0</ele><time>2026-04-06T09:11:05Z</time></trkpt><trkpt lat="45.9368728653427" lon="12.136299175937989"><ele>169.0</ele><time>2026-04-06T09:11:06Z</time></trkpt><trkpt lat="45.937005988994045" lon="12.136152517203929"><ele>170.0</ele><time>2026-04-06T09:11:07Z</time></trkpt><trkpt lat="45.937143219761005" lon="12.136004850178134"><ele>171.0</ele><time>2026-04-06T09:11:08Z</time></trkpt><trkpt lat="45.937272261773856" lon="12.135833195494097"><ele>170.75</ele><time>2026-04-06T09:11:09Z</time></trkpt><trkpt lat="45.93739543048241" lon="12.135686741437137"><ele>170.5</ele><time>2026-04-06T09:11:10Z</time></trkpt><trkpt lat="45.93750785396655" lon="12.135559699395454"><ele>170.25</ele><time>2026-04-06T09:11:11Z</time></trkpt><trkpt lat="45.93761990477722" lon="12.135428438526805"><ele>170.0</ele><time>2026-04-06T09:11:12Z</time></trkpt><trkpt lat="45.93773425774024" lon="12.1352846010115"><ele>170.0</ele><time>2026-04-06T09:11:13Z</time></trkpt><trkpt lat="45.93785109014557" lon="12.13513613927303"><ele>170.0</ele><time>2026-04-06T09:11:14Z</time></trkpt><trkpt lat="45.93797153636127" lon="12.134968718995708"><ele>170.0</ele><time>2026-04-06T09:11:15Z</time></trkpt><trkpt lat="45.938098539453655" lon="12.13477403354655"><ele>169.66666666666666</ele><time>2026-04-06T09:11:16Z</time></trkpt><trkpt lat="45.938230726221796" lon="12.134593006297985"><ele>169.33333333333334</ele><time>2026-04-06T09:11:17Z</time></trkpt><trkpt lat="45.93835036366157" lon="12.13443159708559"><ele>169.0</ele><time>2026-04-06T09:11:18Z</time></trkpt><trkpt lat="45.9384506730561" lon="12.134288481063845"><ele>169.25</ele><time>2026-04-06T09:11:19Z</time></trkpt><trkpt lat="45.938545416515936" lon="12.134156906499824"><ele>169.5</ele><time>2026-04-06T09:11:20Z</time></trkpt><trkpt lat="45.938634771173646" lon="12.134035210578345"><ele>169.75</ele><time>2026-04-06T09:11:21Z</time></trkpt><trkpt lat="45.9387319355778" lon="12.133899524591007"><ele>170.0</ele><time>2026-04-06T09:11:22Z</time></trkpt><trkpt lat="45.938834025142334" lon="12.133756530528004"><ele>170.0</ele><time>2026-04-06T09:11:23Z</time></trkpt><trkpt lat="45.938933255521825" lon="12.133615801501374"><ele>170.0</ele><time>2026-04-06T09:11:24Z</time></trkpt><trkpt lat="45.93904728683572" lon="12.13348097666141"><ele>170.0</ele><time>2026-04-06T09:11:25Z</time></trkpt><trkpt lat="45.93917441682211" lon="12.13330137841526"><ele>169.66666666666666</ele><time>2026-04-06T09:11:26Z</time></trkpt><trkpt lat="45.939323569755615" lon="12.133091777433977"><ele>169.33333333333334</ele><time>2026-04-06T09:11:27Z</time></trkpt><trkpt lat="45.93949086252111" lon="12.132857948267993"><ele>169.0</ele><time>2026-04-06T09:11:28Z</time></trkpt><trkpt lat="45.93965509656796" lon="12.132613701210037"><ele>169.0</ele><time>2026-04-06T09:11:29Z</time></trkpt><trkpt lat="45.93981636729768" lon="12.132382728819987"><ele>169.0</ele><time>2026-04-06T09:11:30Z</time></trkpt><trkpt lat="45.939960562895784" lon="12.132179350875518"><ele>169.0</ele><time>2026-04-06T09:11:31Z</time></trkpt><trkpt lat="45.94009869115619" lon="12.131993111024322"><ele>169.0</ele><time>2026-04-06T09:11:32Z</time></trkpt><trkpt lat="45.94022685548792" lon="12.131809089946875"><ele>169.0</ele><time>2026-04-06T09:11:33Z</time></trkpt><trkpt lat="45.94034645432224" lon="12.131634374716704"><ele>169.0</ele><time>2026-04-06T09:11:34Z</time></trkpt><trkpt lat="45.94046572898123" lon="12.131461145504803"><ele>169.33333333333334</ele><time>2026-04-06T09:11:35Z</time></trkpt><trkpt lat="45.94060323077439" lon="12.131268918951033"><ele>169.66666666666666</ele><time>2026-04-06T09:11:36Z</time></trkpt><trkpt lat="45.940771435798766" lon="12.131062604037458"><ele>170.0</ele><time>2026-04-06T09:11:37Z</time></trkpt><trkpt lat="45.940935104027105" lon="12.13083273568907"><ele>172.5</ele><time>2026-04-06T09:11:38Z</time></trkpt><trkpt lat="45.941093198779214" lon="12.130578061784592"><ele>175.0</ele><time>2026-04-06T09:11:39Z</time></trkpt><trkpt lat="45.94125037300187" lon="12.130368451514222"><ele>175.0</ele><time>2026-04-06T09:11:40Z</time></trkpt><trkpt lat="45.94138785676364" lon="12.13017591268179"><ele>175.0</ele><time>2026-04-06T09:11:41Z</time></trkpt><trkpt lat="45.941517274239054" lon="12.129995050117921"><ele>175.0</ele><time>2026-04-06T09:11:42Z</time></trkpt><trkpt lat="45.941639571939255" lon="12.12982511637471"><ele>178.25</ele><time>2026-04-06T09:11:43Z</time></trkpt><trkpt lat="45.94174783388198" lon="12.12968138746087"><ele>181.5</ele><time>2026-04-06T09:11:44Z</time></trkpt><trkpt lat="45.94184837171322" lon="12.129554278126193"><ele>184.75</ele><time>2026-04-06T09:11:45Z</time></trkpt><trkpt lat="45.941941493389166" lon="12.129427637504053"><ele>188.0</ele><time>2026-04-06T09:11:46Z</time></trkpt><trkpt lat="45.94202503647009" lon="12.129304488568732"><ele>188.0</ele><time>2026-04-06T09:11:47Z</time></trkpt><trkpt lat="45.942104417541024" lon="12.129180784075805"><ele>188.0</ele><time>2026-04-06T09:11:48Z</time></trkpt><trkpt lat="45.94218395901893" lon="12.12906600254857"><ele>188.0</ele><time>2026-04-06T09:11:49Z</time></trkpt><trkpt lat="45.94227473059383" lon="12.128946329037165"><ele>188.0</ele><time>2026-04-06T09:11:50Z</time></trkpt><trkpt lat="45.94238984873353" lon="12.128807568134741"><ele>184.33333333333331</ele><time>2026-04-06T09:11:51Z</time></trkpt><trkpt lat="45.94250598537719" lon="12.128653320442565"><ele>180.66666666666666</ele><time>2026-04-06T09:11:52Z</time></trkpt><trkpt lat="45.942622332695464" lon="12.128491584389762"><ele>177.0</ele><time>2026-04-06T09:11:53Z</time></trkpt><trkpt lat="45.942759006715974" lon="12.12830974189146"><ele>176.33333333333334</ele><time>2026-04-06T09:11:54Z</time></trkpt><trkpt lat="45.94290087746545" lon="12.128118894286413"><ele>175.66666666666669</ele><time>2026-04-06T09:11:55Z</time></trkpt><trkpt lat="45.94306979995313" lon="12.127936009149437"><ele>175.0</ele><time>2026-04-06T09:11:56Z</time></trkpt><trkpt lat="45.943231128136745" lon="12.127712864012736"><ele>174.66666666666669</ele><time>2026-04-06T09:11:57Z</time></trkpt><trkpt lat="45.943385735401904" lon="12.127522776260502"><ele>174.33333333333334</ele><time>2026-04-06T09:11:58Z</time></trkpt><trkpt lat="45.943526818759224" lon="12.127340267436692"><ele>174.0</ele><time>2026-04-06T09:11:59Z</time></trkpt><trkpt lat="45.94365781296256" lon="12.1271738722855"><ele>174.0</ele><time>2026-04-06T09:12:00Z</time></trkpt><trkpt lat="45.94378852457856" lon="12.127006493859302"><ele>174.0</ele><time>2026-04-06T09:12:01Z</time></trkpt><trkpt lat="45.94393410248141" lon="12.126807386265938"><ele>174.0</ele><time>2026-04-06T09:12:02Z</time></trkpt><trkpt lat="45.94410837894771" lon="12.126617274423323"><ele>175.0</ele><time>2026-04-06T09:12:03Z</time></trkpt><trkpt lat="45.94428246030688" lon="12.126376716044579"><ele>176.0</ele><time>2026-04-06T09:12:04Z</time></trkpt><trkpt lat="45.94447955221809" lon="12.126118778067184"><ele>176.0</ele><time>2026-04-06T09:12:05Z</time></trkpt><trkpt lat="45.94469577459483" lon="12.125849507707446"><ele>176.0</ele><time>2026-04-06T09:12:06Z</time></trkpt><trkpt lat="45.944921279834915" lon="12.125589559971049"><ele>180.5</ele><time>2026-04-06T09:12:07Z</time></trkpt><trkpt lat="45.945119453558014" lon="12.125339795422457"><ele>185.0</ele><time>2026-04-06T09:12:08Z</time></trkpt><trkpt lat="45.945291376416236" lon="12.125109358276028"><ele>183.33333333333331</ele><time>2026-04-06T09:12:09Z</time></trkpt><trkpt lat="45.94545788041868" lon="12.124895130596853"><ele>181.66666666666666</ele><time>2026-04-06T09:12:10Z</time></trkpt><trkpt lat="45.945621172417184" lon="12.124708703126073"><ele>180.0</ele><time>2026-04-06T09:12:11Z</time></trkpt><trkpt lat="45.94576965618483" lon="12.124526632266036"><ele>180.33333333333334</ele><time>2026-04-06T09:12:12Z</time></trkpt><trkpt lat="45.94590413298436" lon="12.124349144670479"><ele>180.66666666666669</ele><time>2026-04-06T09:12:13Z</time></trkpt><trkpt lat="45.94603929046943" lon="12.124200394840123"><ele>181.0</ele><time>2026-04-06T09:12:14Z</time></trkpt><trkpt lat="45.94618433627013" lon="12.12406387991218"><ele>181.0</ele><time>2026-04-06T09:12:15Z</time></trkpt><trkpt lat="45.946321325472454" lon="12.123944212356795"><ele>181.0</ele><time>2026-04-06T09:12:16Z</time></trkpt><trkpt lat="45.946455577172046" lon="12.12384490020185"><ele>181.0</ele><time>2026-04-06T09:12:17Z</time></trkpt><trkpt lat="45.94659456286057" lon="12.123748553049497"><ele>181.25</ele><time>2026-04-06T09:12:18Z</time></trkpt><trkpt lat="45.94671315504921" lon="12.123640841913288"><ele>181.5</ele><time>2026-04-06T09:12:19Z</time></trkpt><trkpt lat="45.94682487770518" lon="12.123546218269649"><ele>181.75</ele><time>2026-04-06T09:12:20Z</time></trkpt><trkpt lat="45.94693272651946" lon="12.123459515724095"><ele>182.0</ele><time>2026-04-06T09:12:21Z</time></trkpt><trkpt lat="45.94703549090592" lon="12.123381719002667"><ele>182.0</ele><time>2026-04-06T09:12:22Z</time></trkpt><trkpt lat="45.94713833238517" lon="12.123302864887789"><ele>182.0</ele><time>2026-04-06T09:12:23Z</time></trkpt><trkpt lat="45.94723873359594" lon="12.123219948884804"><ele>182.0</ele><time>2026-04-06T09:12:24Z</time></trkpt><trkpt lat="45.94733605335892" lon="12.12314169745904"><ele>182.0</ele><time>2026-04-06T09:12:25Z</time></trkpt><trkpt lat="45.94743051627913" lon="12.12306889358556"><ele>182.0</ele><time>2026-04-06T09:12:26Z</time></trkpt><trkpt lat="45.94752610831635" lon="12.123010368123117"><ele>182.0</ele><time>2026-04-06T09:12:27Z</time></trkpt><trkpt lat="45.94761819355796" lon="12.122971832817125"><ele>182.0</ele><time>2026-04-06T09:12:28Z</time></trkpt><trkpt lat="45.947705839304625" lon="12.122950004409697"><ele>182.0</ele><time>2026-04-06T09:12:29Z</time></trkpt><trkpt lat="45.947784487214" lon="12.122922688610016"><ele>182.0</ele><time>2026-04-06T09:12:30Z</time></trkpt><trkpt lat="45.947860153816656" lon="12.122916984221817"><ele>182.0</ele><time>2026-04-06T09:12:31Z</time></trkpt><trkpt lat="45.94795434557069" lon="12.122940137228696"><ele>182.0</ele><time>2026-04-06T09:12:33Z</time></trkpt><trkpt lat="45.94802307493376" lon="12.122955104667108"><ele>182.0</ele><time>2026-04-06T09:12:36Z</time></trkpt><trkpt lat="45.94812996189322" lon="12.122985481477036"><ele>182.0</ele><time>2026-04-06T09:12:38Z</time></trkpt><trkpt lat="45.94819897816953" lon="12.122974502698247"><ele>182.0</ele><time>2026-04-06T09:12:39Z</time></trkpt><trkpt lat="45.94828852844326" lon="12.122943615842381"><ele>182.0</ele><time>2026-04-06T09:12:40Z</time></trkpt><trkpt lat="45.94837124057178" lon="12.122905750274935"><ele>182.0</ele><time>2026-04-06T09:12:41Z</time></trkpt><trkpt lat="45.94847241351865" lon="12.122876694106877"><ele>182.5</ele><time>2026-04-06T09:12:42Z</time></trkpt><trkpt lat="45.94857874736313" lon="12.122850942197154"><ele>183.0</ele><time>2026-04-06T09:12:43Z</time></trkpt><trkpt lat="45.94867088679452" lon="12.122780729764946"><ele>183.5</ele><time>2026-04-06T09:12:44Z</time></trkpt><trkpt lat="45.9488071210849" lon="12.122809103469544"><ele>184.0</ele><time>2026-04-06T09:12:45Z</time></trkpt><trkpt lat="45.948940743707006" lon="12.122810387350539"><ele>184.0</ele><time>2026-04-06T09:12:46Z</time></trkpt><trkpt lat="45.94909507506015" lon="12.122824943186496"><ele>184.0</ele><time>2026-04-06T09:12:47Z</time></trkpt><trkpt lat="45.949274203775694" lon="12.122863105245717"><ele>184.0</ele><time>2026-04-06T09:12:48Z</time></trkpt><trkpt lat="45.94946676767969" lon="12.122869677443573"><ele>185.0</ele><time>2026-04-06T09:12:49Z</time></trkpt><trkpt lat="45.94963606722802" lon="12.12292393989778"><ele>186.0</ele><time>2026-04-06T09:12:50Z</time></trkpt><trkpt lat="45.94981753479147" lon="12.122949876474976"><ele>187.0</ele><time>2026-04-06T09:12:51Z</time></trkpt><trkpt lat="45.94999454366069" lon="12.122967987656866"><ele>187.33333333333334</ele><time>2026-04-06T09:12:52Z</time></trkpt><trkpt lat="45.95016034429539" lon="12.12299204510145"><ele>187.66666666666666</ele><time>2026-04-06T09:12:53Z</time></trkpt><trkpt lat="45.9503224128825" lon="12.123019243439789"><ele>188.0</ele><time>2026-04-06T09:12:54Z</time></trkpt><trkpt lat="45.9504768283635" lon="12.123042361038777"><ele>188.0</ele><time>2026-04-06T09:12:55Z</time></trkpt><trkpt lat="45.950630873736564" lon="12.123070485244044"><ele>188.0</ele><time>2026-04-06T09:12:56Z</time></trkpt><trkpt lat="45.950793467133785" lon="12.123094662720147"><ele>188.0</ele><time>2026-04-06T09:12:57Z</time></trkpt><trkpt lat="45.95094864458755" lon="12.12311462254738"><ele>189.0</ele><time>2026-04-06T09:12:58Z</time></trkpt><trkpt lat="45.951163435687135" lon="12.123148864918836"><ele>190.0</ele><time>2026-04-06T09:12:59Z</time></trkpt><trkpt lat="45.95140518618992" lon="12.123186924963925"><ele>190.0</ele><time>2026-04-06T09:13:00Z</time></trkpt><trkpt lat="45.951632196599334" lon="12.123209917561077"><ele>190.0</ele><time>2026-04-06T09:13:01Z</time></trkpt><trkpt lat="45.951867173830216" lon="12.123241197121677"><ele>191.0</ele><time>2026-04-06T09:13:02Z</time></trkpt><trkpt lat="45.95210368985816" lon="12.123275512456283"><ele>192.0</ele><time>2026-04-06T09:13:03Z</time></trkpt><trkpt lat="45.952337537203" lon="12.123305073416686"><ele>193.0</ele><time>2026-04-06T09:13:04Z</time></trkpt><trkpt lat="45.9525452816778" lon="12.12333643497688"><ele>194.0</ele><time>2026-04-06T09:13:05Z</time></trkpt><trkpt lat="45.952731513990344" lon="12.123370294462033"><ele>195.0</ele><time>2026-04-06T09:13:06Z</time></trkpt><trkpt lat="45.95289857125984" lon="12.123399254830558"><ele>195.0</ele><time>2026-04-06T09:13:07Z</time></trkpt><trkpt lat="45.95305660613426" lon="12.123412494236769"><ele>195.0</ele><time>2026-04-06T09:13:08Z</time></trkpt><trkpt lat="45.9532080222295" lon="12.123405213527606"><ele>195.0</ele><time>2026-04-06T09:13:09Z</time></trkpt><trkpt lat="45.95335918111778" lon="12.123411717769216"><ele>194.66666666666669</ele><time>2026-04-06T09:13:10Z</time></trkpt><trkpt lat="45.95351806993954" lon="12.123411267248828"><ele>194.33333333333334</ele><time>2026-04-06T09:13:11Z</time></trkpt><trkpt lat="45.95367319299467" lon="12.12339934830956"><ele>194.0</ele><time>2026-04-06T09:13:12Z</time></trkpt><trkpt lat="45.9538184953031" lon="12.123389336680438"><ele>194.0</ele><time>2026-04-06T09:13:13Z</time></trkpt><trkpt lat="45.95396683157255" lon="12.123377100335516"><ele>194.0</ele><time>2026-04-06T09:13:14Z</time></trkpt><trkpt lat="45.95412178395382" lon="12.123355076293032"><ele>194.0</ele><time>2026-04-06T09:13:15Z</time></trkpt><trkpt lat="45.95427652789733" lon="12.123340695367567"><ele>194.75</ele><time>2026-04-06T09:13:16Z</time></trkpt><trkpt lat="45.95441788180643" lon="12.123324002435492"><ele>195.5</ele><time>2026-04-06T09:13:17Z</time></trkpt><trkpt lat="45.95456004217851" lon="12.123315622475642"><ele>196.25</ele><time>2026-04-06T09:13:18Z</time></trkpt><trkpt lat="45.954704566152" lon="12.123300519824848"><ele>197.0</ele><time>2026-04-06T09:13:19Z</time></trkpt><trkpt lat="45.954847812812794" lon="12.12329044229305"><ele>197.0</ele><time>2026-04-06T09:13:20Z</time></trkpt><trkpt lat="45.95498952327956" lon="12.123279023346681"><ele>197.0</ele><time>2026-04-06T09:13:21Z</time></trkpt><trkpt lat="45.95512246972859" lon="12.123268321369949"><ele>197.0</ele><time>2026-04-06T09:13:22Z</time></trkpt><trkpt lat="45.95525835196248" lon="12.123259818548688"><ele>197.0</ele><time>2026-04-06T09:13:23Z</time></trkpt><trkpt lat="45.95540153085045" lon="12.123257218696576"><ele>198.33333333333334</ele><time>2026-04-06T09:13:24Z</time></trkpt><trkpt lat="45.95555610503632" lon="12.123245496915311"><ele>199.66666666666669</ele><time>2026-04-06T09:13:25Z</time></trkpt><trkpt lat="45.95572070542642" lon="12.123212961510788"><ele>201.0</ele><time>2026-04-06T09:13:26Z</time></trkpt><trkpt lat="45.95588683438924" lon="12.123215624096463"><ele>201.66666666666669</ele><time>2026-04-06T09:13:27Z</time></trkpt><trkpt lat="45.95608200724369" lon="12.123198320770289"><ele>202.33333333333334</ele><time>2026-04-06T09:13:28Z</time></trkpt><trkpt lat="45.956302059966404" lon="12.123163032573991"><ele>203.0</ele><time>2026-04-06T09:13:29Z</time></trkpt><trkpt lat="45.95651835139501" lon="12.123164911045272"><ele>203.0</ele><time>2026-04-06T09:13:30Z</time></trkpt><trkpt lat="45.956712850333744" lon="12.123136095437928"><ele>203.0</ele><time>2026-04-06T09:13:31Z</time></trkpt><trkpt lat="45.95689115609105" lon="12.123124475815397"><ele>203.0</ele><time>2026-04-06T09:13:32Z</time></trkpt><trkpt lat="45.95706388443594" lon="12.123124919712101"><ele>203.0</ele><time>2026-04-06T09:13:33Z</time></trkpt><trkpt lat="45.95724312303756" lon="12.123113735677052"><ele>203.0</ele><time>2026-04-06T09:13:34Z</time></trkpt><trkpt lat="45.95742163883044" lon="12.123147694137947"><ele>203.0</ele><time>2026-04-06T09:13:35Z</time></trkpt><trkpt lat="45.95759111998687" lon="12.123206709032175"><ele>204.33333333333334</ele><time>2026-04-06T09:13:36Z</time></trkpt><trkpt lat="45.95774444648321" lon="12.123257151182825"><ele>205.66666666666669</ele><time>2026-04-06T09:13:37Z</time></trkpt><trkpt lat="45.957894128967276" lon="12.123326766771019"><ele>207.0</ele><time>2026-04-06T09:13:38Z</time></trkpt><trkpt lat="45.95805828430674" lon="12.123414860943797"><ele>207.0</ele><time>2026-04-06T09:13:39Z</time></trkpt><trkpt lat="45.958223335522455" lon="12.123530249848658"><ele>207.0</ele><time>2026-04-06T09:13:40Z</time></trkpt><trkpt lat="45.9583657460365" lon="12.123658676381384"><ele>207.0</ele><time>2026-04-06T09:13:41Z</time></trkpt><trkpt lat="45.95848962979539" lon="12.123794491317161"><ele>207.25</ele><time>2026-04-06T09:13:42Z</time></trkpt><trkpt lat="45.95860353243262" lon="12.12392247759273"><ele>207.5</ele><time>2026-04-06T09:13:43Z</time></trkpt><trkpt lat="45.95870752493104" lon="12.124044879724623"><ele>207.75</ele><time>2026-04-06T09:13:44Z</time></trkpt><trkpt lat="45.958799897710634" lon="12.12417044514481"><ele>208.0</ele><time>2026-04-06T09:13:45Z</time></trkpt><trkpt lat="45.958883232421414" lon="12.12429626432824"><ele>209.0</ele><time>2026-04-06T09:13:46Z</time></trkpt><trkpt lat="45.958961933099864" lon="12.124421742263388"><ele>210.0</ele><time>2026-04-06T09:13:47Z</time></trkpt><trkpt lat="45.95903894698029" lon="12.124551276906816"><ele>211.0</ele><time>2026-04-06T09:13:48Z</time></trkpt><trkpt lat="45.959116236103114" lon="12.124686095965671"><ele>212.0</ele><time>2026-04-06T09:13:49Z</time></trkpt><trkpt lat="45.95918984915828" lon="12.124825399511828"><ele>212.5</ele><time>2026-04-06T09:13:50Z</time></trkpt><trkpt lat="45.95926280776491" lon="12.124986764534572"><ele>213.0</ele><time>2026-04-06T09:13:51Z</time></trkpt><trkpt lat="45.95933737974537" lon="12.125168278406164"><ele>213.5</ele><time>2026-04-06T09:13:52Z</time></trkpt><trkpt lat="45.95941201486183" lon="12.125359254896788"><ele>214.0</ele><time>2026-04-06T09:13:53Z</time></trkpt><trkpt lat="45.95949619232481" lon="12.125575475673168"><ele>214.33333333333331</ele><time>2026-04-06T09:13:54Z</time></trkpt><trkpt lat="45.9595923799339" lon="12.125842137438406"><ele>214.66666666666669</ele><time>2026-04-06T09:13:55Z</time></trkpt><trkpt lat="45.959678521683315" lon="12.126141700754658"><ele>215.0</ele><time>2026-04-06T09:13:56Z</time></trkpt><trkpt lat="45.959761763075605" lon="12.126416518608888"><ele>214.66666666666669</ele><time>2026-04-06T09:13:57Z</time></trkpt><trkpt lat="45.95986939178281" lon="12.126690942900554"><ele>214.33333333333331</ele><time>2026-04-06T09:13:58Z</time></trkpt><trkpt lat="45.959979674000465" lon="12.126980441034085"><ele>214.0</ele><time>2026-04-06T09:13:59Z</time></trkpt><trkpt lat="45.96007445677786" lon="12.127249264551343"><ele>215.33333333333331</ele><time>2026-04-06T09:14:00Z</time></trkpt><trkpt lat="45.960164160339886" lon="12.127491341032718"><ele>216.66666666666669</ele><time>2026-04-06T09:14:01Z</time></trkpt><trkpt lat="45.960269125612314" lon="12.127721145640614"><ele>218.0</ele><time>2026-04-06T09:14:02Z</time></trkpt><trkpt lat="45.96038689841882" lon="12.127927798961332"><ele>218.0</ele><time>2026-04-06T09:14:03Z</time></trkpt><trkpt lat="45.96052464195085" lon="12.128145541640547"><ele>218.0</ele><time>2026-04-06T09:14:04Z</time></trkpt><trkpt lat="45.960692768669816" lon="12.1283841851733"><ele>218.0</ele><time>2026-04-06T09:14:05Z</time></trkpt><trkpt lat="45.960871821573676" lon="12.128629430543526"><ele>217.5</ele><time>2026-04-06T09:14:06Z</time></trkpt><trkpt lat="45.961048685364744" lon="12.128872586841661"><ele>217.0</ele><time>2026-04-06T09:14:07Z</time></trkpt><trkpt lat="45.96121638348508" lon="12.12911224457881"><ele>219.0</ele><time>2026-04-06T09:14:08Z</time></trkpt><trkpt lat="45.9613982008539" lon="12.129359815449508"><ele>221.0</ele><time>2026-04-06T09:14:09Z</time></trkpt><trkpt lat="45.96160367717686" lon="12.129624214979192"><ele>220.5</ele><time>2026-04-06T09:14:10Z</time></trkpt><trkpt lat="45.96182015876413" lon="12.129900146100805"><ele>220.0</ele><time>2026-04-06T09:14:11Z</time></trkpt><trkpt lat="45.9620382499713" lon="12.130199065672421"><ele>220.0</ele><time>2026-04-06T09:14:12Z</time></trkpt><trkpt lat="45.96226120433323" lon="12.13053399944612"><ele>220.0</ele><time>2026-04-06T09:14:13Z</time></trkpt><trkpt lat="45.9624862680913" lon="12.13084145157095"><ele>221.5</ele><time>2026-04-06T09:14:14Z</time></trkpt><trkpt lat="45.96270163604965" lon="12.131130223966354"><ele>223.0</ele><time>2026-04-06T09:14:15Z</time></trkpt><trkpt lat="45.96291679578587" lon="12.131420711869675"><ele>225.0</ele><time>2026-04-06T09:14:16Z</time></trkpt><trkpt lat="45.96311625719985" lon="12.131687912178794"><ele>227.0</ele><time>2026-04-06T09:14:17Z</time></trkpt><trkpt lat="45.96330889968668" lon="12.131942845211292"><ele>226.5</ele><time>2026-04-06T09:14:18Z</time></trkpt><trkpt lat="45.96348430427574" lon="12.132175558111014"><ele>226.0</ele><time>2026-04-06T09:14:19Z</time></trkpt><trkpt lat="45.96364627040166" lon="12.132395989810089"><ele>227.0</ele><time>2026-04-06T09:14:20Z</time></trkpt><trkpt lat="45.96380766303432" lon="12.132618422327006"><ele>228.0</ele><time>2026-04-06T09:14:21Z</time></trkpt><trkpt lat="45.96397386829581" lon="12.132842955810608"><ele>228.0</ele><time>2026-04-06T09:14:22Z</time></trkpt><trkpt lat="45.964139539802666" lon="12.13306059374964"><ele>228.0</ele><time>2026-04-06T09:14:23Z</time></trkpt><trkpt lat="45.964291088551306" lon="12.133274268260086"><ele>228.0</ele><time>2026-04-06T09:14:24Z</time></trkpt><trkpt lat="45.96442701768875" lon="12.133478372361928"><ele>229.33333333333331</ele><time>2026-04-06T09:14:25Z</time></trkpt><trkpt lat="45.9645600640691" lon="12.133661588105666"><ele>230.66666666666666</ele><time>2026-04-06T09:14:26Z</time></trkpt><trkpt lat="45.9646936853873" lon="12.133838230087875"><ele>232.0</ele><time>2026-04-06T09:14:27Z</time></trkpt><trkpt lat="45.9648242278191" lon="12.134013878866478"><ele>233.0</ele><time>2026-04-06T09:14:28Z</time></trkpt><trkpt lat="45.96494767389909" lon="12.134184811770785"><ele>234.0</ele><time>2026-04-06T09:14:29Z</time></trkpt><trkpt lat="45.965067520540764" lon="12.134362238037287"><ele>235.0</ele><time>2026-04-06T09:14:30Z</time></trkpt><trkpt lat="45.965189392398194" lon="12.134542279147746"><ele>235.0</ele><time>2026-04-06T09:14:31Z</time></trkpt><trkpt lat="45.96530888639419" lon="12.134732122257464"><ele>235.0</ele><time>2026-04-06T09:14:32Z</time></trkpt><trkpt lat="45.965411710752726" lon="12.134935148947369"><ele>235.0</ele><time>2026-04-06T09:14:33Z</time></trkpt><trkpt lat="45.965499404651304" lon="12.135140851439361"><ele>236.33333333333331</ele><time>2026-04-06T09:14:34Z</time></trkpt><trkpt lat="45.96557443247234" lon="12.13534662979391"><ele>237.66666666666669</ele><time>2026-04-06T09:14:35Z</time></trkpt><trkpt lat="45.965638481051606" lon="12.135550652658372"><ele>239.0</ele><time>2026-04-06T09:14:36Z</time></trkpt><trkpt lat="45.96569436411854" lon="12.13574648388723"><ele>239.75</ele><time>2026-04-06T09:14:37Z</time></trkpt><trkpt lat="45.96573465536495" lon="12.135938285391003"><ele>240.5</ele><time>2026-04-06T09:14:38Z</time></trkpt><trkpt lat="45.96576929750539" lon="12.136126752004488"><ele>241.25</ele><time>2026-04-06T09:14:39Z</time></trkpt><trkpt lat="45.965800859349464" lon="12.136303102348156"><ele>242.0</ele><time>2026-04-06T09:14:40Z</time></trkpt><trkpt lat="45.96582386295276" lon="12.136471768888706"><ele>241.6</ele><time>2026-04-06T09:14:41Z</time></trkpt><trkpt lat="45.96583014011215" lon="12.136632472077558"><ele>241.2</ele><time>2026-04-06T09:14:42Z</time></trkpt><trkpt lat="45.96583288757416" lon="12.136778007390252"><ele>240.8</ele><time>2026-04-06T09:14:43Z</time></trkpt><trkpt lat="45.96583786204277" lon="12.136909952798515"><ele>240.4</ele><time>2026-04-06T09:14:44Z</time></trkpt><trkpt lat="45.96583121427263" lon="12.137035542362472"><ele>240.0</ele><time>2026-04-06T09:14:45Z</time></trkpt><trkpt lat="45.9658130136594" lon="12.137156098202702"><ele>240.0</ele><time>2026-04-06T09:14:46Z</time></trkpt><trkpt lat="45.96578998669834" lon="12.13726515638889"><ele>240.0</ele><time>2026-04-06T09:14:47Z</time></trkpt><trkpt lat="45.96575384372496" lon="12.137352512340815"><ele>240.0</ele><time>2026-04-06T09:14:48Z</time></trkpt><trkpt lat="45.96571101679296" lon="12.137430935554143"><ele>240.0</ele><time>2026-04-06T09:14:49Z</time></trkpt><trkpt lat="45.9656795599584" lon="12.13752748280815"><ele>240.0</ele><time>2026-04-06T09:14:50Z</time></trkpt><trkpt lat="45.96567792317699" lon="12.137659427038477"><ele>240.0</ele><time>2026-04-06T09:14:51Z</time></trkpt><trkpt lat="45.96570880394502" lon="12.137812977435996"><ele>239.75</ele><time>2026-04-06T09:14:52Z</time></trkpt><trkpt lat="45.96575041817355" lon="12.137966844349599"><ele>239.5</ele><time>2026-04-06T09:14:53Z</time></trkpt><trkpt lat="45.96576227274936" lon="12.1381402467004"><ele>239.25</ele><time>2026-04-06T09:14:54Z</time></trkpt><trkpt lat="45.96575013141135" lon="12.138340775550889"><ele>239.0</ele><time>2026-04-06T09:14:55Z</time></trkpt><trkpt lat="45.96572955729871" lon="12.138582765941731"><ele>239.0</ele><time>2026-04-06T09:14:56Z</time></trkpt><trkpt lat="45.96570194682909" lon="12.138846998939561"><ele>239.0</ele><time>2026-04-06T09:14:57Z</time></trkpt><trkpt lat="45.96567126289908" lon="12.139085153302625"><ele>239.0</ele><time>2026-04-06T09:14:58Z</time></trkpt><trkpt lat="45.96563900089987" lon="12.139315360803625"><ele>239.0</ele><time>2026-04-06T09:14:59Z</time></trkpt><trkpt lat="45.96560739422623" lon="12.139521824021548"><ele>239.0</ele><time>2026-04-06T09:15:00Z</time></trkpt><trkpt lat="45.96557964142037" lon="12.139703319417887"><ele>239.0</ele><time>2026-04-06T09:15:01Z</time></trkpt><trkpt lat="45.965554875357526" lon="12.139876283477985"><ele>239.0</ele><time>2026-04-06T09:15:02Z</time></trkpt><trkpt lat="45.965530365697674" lon="12.140063018229947"><ele>239.0</ele><time>2026-04-06T09:15:03Z</time></trkpt><trkpt lat="45.96550715051176" lon="12.140255540738368"><ele>239.0</ele><time>2026-04-06T09:15:04Z</time></trkpt><trkpt lat="45.965484535327775" lon="12.14044066698955"><ele>239.0</ele><time>2026-04-06T09:15:05Z</time></trkpt><trkpt lat="45.96546430014567" lon="12.140608721378074"><ele>239.0</ele><time>2026-04-06T09:15:06Z</time></trkpt><trkpt lat="45.965443576966244" lon="12.140760178133512"><ele>239.50000000000003</ele><time>2026-04-06T09:15:07Z</time></trkpt><trkpt lat="45.96542476233746" lon="12.140893368031756"><ele>240.0</ele><time>2026-04-06T09:15:08Z</time></trkpt><trkpt lat="45.96541008397519" lon="12.141017783358508"><ele>240.5</ele><time>2026-04-06T09:15:09Z</time></trkpt><trkpt lat="45.96539846102201" lon="12.141133417049856"><ele>241.0</ele><time>2026-04-06T09:15:10Z</time></trkpt><trkpt lat="45.96538572040774" lon="12.14124800778966"><ele>241.50000000000003</ele><time>2026-04-06T09:15:11Z</time></trkpt><trkpt lat="45.965371015829" lon="12.141359707473999"><ele>242.0</ele><time>2026-04-06T09:15:12Z</time></trkpt><trkpt lat="45.965359738043574" lon="12.141459435326784"><ele>242.0</ele><time>2026-04-06T09:15:13Z</time></trkpt><trkpt lat="45.965331100947026" lon="12.141610772073442"><ele>242.0</ele><time>2026-04-06T09:15:15Z</time></trkpt><trkpt lat="45.96529722048886" lon="12.141716422557629"><ele>242.0</ele><time>2026-04-06T09:15:17Z</time></trkpt><trkpt lat="45.965272151597034" lon="12.141889024938983"><ele>242.0</ele><time>2026-04-06T09:15:19Z</time></trkpt><trkpt lat="45.9652892044582" lon="12.141993535579495"><ele>242.0</ele><time>2026-04-06T09:15:20Z</time></trkpt><trkpt lat="45.96532971094101" lon="12.142103462881009"><ele>242.0</ele><time>2026-04-06T09:15:21Z</time></trkpt><trkpt lat="45.965373197912065" lon="12.14222128655918"><ele>242.0</ele><time>2026-04-06T09:15:22Z</time></trkpt><trkpt lat="45.96539728318146" lon="12.142352898695485"><ele>242.0</ele><time>2026-04-06T09:15:23Z</time></trkpt><trkpt lat="45.96540434329941" lon="12.142529903341648"><ele>242.0</ele><time>2026-04-06T09:15:24Z</time></trkpt><trkpt lat="45.965412912289715" lon="12.142760166130442"><ele>241.66666666666669</ele><time>2026-04-06T09:15:25Z</time></trkpt><trkpt lat="45.96541510154285" lon="12.143004006579302"><ele>241.33333333333331</ele><time>2026-04-06T09:15:26Z</time></trkpt><trkpt lat="45.965418310003" lon="12.143249061905703"><ele>241.0</ele><time>2026-04-06T09:15:27Z</time></trkpt><trkpt lat="45.9654431735124" lon="12.14353302775279"><ele>240.66666666666666</ele><time>2026-04-06T09:15:28Z</time></trkpt><trkpt lat="45.96546272808022" lon="12.143823726294755"><ele>240.33333333333331</ele><time>2026-04-06T09:15:29Z</time></trkpt><trkpt lat="45.965474802666286" lon="12.144076735314975"><ele>240.0</ele><time>2026-04-06T09:15:30Z</time></trkpt><trkpt lat="45.9654877506551" lon="12.14430506885843"><ele>239.25</ele><time>2026-04-06T09:15:31Z</time></trkpt><trkpt lat="45.965498287525556" lon="12.144531940676101"><ele>238.5</ele><time>2026-04-06T09:15:32Z</time></trkpt><trkpt lat="45.965517333913006" lon="12.144741310181514"><ele>237.75</ele><time>2026-04-06T09:15:33Z</time></trkpt><trkpt lat="45.96553284625553" lon="12.14493389661403"><ele>237.0</ele><time>2026-04-06T09:15:34Z</time></trkpt><trkpt lat="45.965553196904956" lon="12.14511884467079"><ele>237.0</ele><time>2026-04-06T09:15:35Z</time></trkpt><trkpt lat="45.965584314968034" lon="12.14530606645408"><ele>237.0</ele><time>2026-04-06T09:15:36Z</time></trkpt><trkpt lat="45.965627908012436" lon="12.145499628944718"><ele>237.0</ele><time>2026-04-06T09:15:37Z</time></trkpt><trkpt lat="45.9656661481363" lon="12.145677071071194"><ele>237.0</ele><time>2026-04-06T09:15:38Z</time></trkpt><trkpt lat="45.96570539232217" lon="12.145867435861884"><ele>237.0</ele><time>2026-04-06T09:15:39Z</time></trkpt><trkpt lat="45.96576130456341" lon="12.146064421826825"><ele>237.0</ele><time>2026-04-06T09:15:40Z</time></trkpt><trkpt lat="45.96582165073867" lon="12.146260571439422"><ele>237.0</ele><time>2026-04-06T09:15:41Z</time></trkpt><trkpt lat="45.96587910490078" lon="12.146444322985394"><ele>237.0</ele><time>2026-04-06T09:15:42Z</time></trkpt><trkpt lat="45.96596175288579" lon="12.146628096238667"><ele>238.33333333333331</ele><time>2026-04-06T09:15:43Z</time></trkpt><trkpt lat="45.966045785174934" lon="12.146872330019264"><ele>239.66666666666666</ele><time>2026-04-06T09:15:44Z</time></trkpt><trkpt lat="45.966155123686434" lon="12.147144275327573"><ele>241.0</ele><time>2026-04-06T09:15:45Z</time></trkpt><trkpt lat="45.966278760405245" lon="12.147453831563292"><ele>242.0</ele><time>2026-04-06T09:15:46Z</time></trkpt><trkpt lat="45.96641617264318" lon="12.147795221762301"><ele>243.0</ele><time>2026-04-06T09:15:47Z</time></trkpt><trkpt lat="45.966559955714544" lon="12.148141653295937"><ele>245.5</ele><time>2026-04-06T09:15:48Z</time></trkpt><trkpt lat="45.9666838581697" lon="12.148458017548334"><ele>248.0</ele><time>2026-04-06T09:15:49Z</time></trkpt><trkpt lat="45.96680795456165" lon="12.148779503122896"><ele>249.5</ele><time>2026-04-06T09:15:50Z</time></trkpt><trkpt lat="45.966925524059775" lon="12.14908727833389"><ele>251.0</ele><time>2026-04-06T09:15:51Z</time></trkpt><trkpt lat="45.96702885239467" lon="12.14940315420233"><ele>251.0</ele><time>2026-04-06T09:15:52Z</time></trkpt><trkpt lat="45.96711997954022" lon="12.14968920659502"><ele>251.0</ele><time>2026-04-06T09:15:53Z</time></trkpt><trkpt lat="45.967207745349995" lon="12.149942466826383"><ele>251.0</ele><time>2026-04-06T09:15:54Z</time></trkpt><trkpt lat="45.967295496351554" lon="12.150186719591247"><ele>251.0</ele><time>2026-04-06T09:15:55Z</time></trkpt><trkpt lat="45.96737513433605" lon="12.150432865617674"><ele>251.0</ele><time>2026-04-06T09:15:56Z</time></trkpt><trkpt lat="45.967446042267674" lon="12.15067126470369"><ele>251.0</ele><time>2026-04-06T09:15:57Z</time></trkpt><trkpt lat="45.96750570303843" lon="12.150895104327972"><ele>254.33333333333334</ele><time>2026-04-06T09:15:58Z</time></trkpt><trkpt lat="45.96756553242238" lon="12.151100644251386"><ele>257.6666666666667</ele><time>2026-04-06T09:15:59Z</time></trkpt><trkpt lat="45.96763591489632" lon="12.151319152689979"><ele>261.0</ele><time>2026-04-06T09:16:00Z</time></trkpt><trkpt lat="45.967714962607886" lon="12.15155818154762"><ele>261.0</ele><time>2026-04-06T09:16:01Z</time></trkpt><trkpt lat="45.96778060778394" lon="12.151770117002544"><ele>261.0</ele><time>2026-04-06T09:16:02Z</time></trkpt><trkpt lat="45.96784921141818" lon="12.151999785372164"><ele>261.0</ele><time>2026-04-06T09:16:03Z</time></trkpt><trkpt lat="45.967913685635175" lon="12.152221264790297"><ele>258.3333333333333</ele><time>2026-04-06T09:16:04Z</time></trkpt><trkpt lat="45.96797677789476" lon="12.152436794495939"><ele>255.66666666666666</ele><time>2026-04-06T09:16:05Z</time></trkpt><trkpt lat="45.96803275837525" lon="12.152636147367735"><ele>253.0</ele><time>2026-04-06T09:16:06Z</time></trkpt><trkpt lat="45.96808539371585" lon="12.152826403304479"><ele>253.0</ele><time>2026-04-06T09:16:07Z</time></trkpt><trkpt lat="45.968153035640086" lon="12.15300887424768"><ele>253.0</ele><time>2026-04-06T09:16:08Z</time></trkpt><trkpt lat="45.96820478578792" lon="12.15320918977583"><ele>253.0</ele><time>2026-04-06T09:16:09Z</time></trkpt><trkpt lat="45.96828645944943" lon="12.153413815896995"><ele>256.0</ele><time>2026-04-06T09:16:10Z</time></trkpt><trkpt lat="45.968373391173174" lon="12.153613235163006"><ele>259.0</ele><time>2026-04-06T09:16:11Z</time></trkpt><trkpt lat="45.96846262529925" lon="12.153803297775125"><ele>262.0</ele><time>2026-04-06T09:16:12Z</time></trkpt><trkpt lat="45.9685557382258" lon="12.15398063925385"><ele>259.66666666666663</ele><time>2026-04-06T09:16:13Z</time></trkpt><trkpt lat="45.968648660613475" lon="12.154149465723883"><ele>257.3333333333333</ele><time>2026-04-06T09:16:14Z</time></trkpt><trkpt lat="45.96874409198253" lon="12.15431752882323"><ele>255.0</ele><time>2026-04-06T09:16:15Z</time></trkpt><trkpt lat="45.96883778342379" lon="12.154493882157215"><ele>255.0</ele><time>2026-04-06T09:16:16Z</time></trkpt><trkpt lat="45.96893268120514" lon="12.154668487156178"><ele>255.0</ele><time>2026-04-06T09:16:17Z</time></trkpt><trkpt lat="45.969029595129925" lon="12.154844513556547"><ele>255.0</ele><time>2026-04-06T09:16:18Z</time></trkpt><trkpt lat="45.96912716064231" lon="12.155029886526185"><ele>257.3333333333333</ele><time>2026-04-06T09:16:19Z</time></trkpt><trkpt lat="45.9692295437292" lon="12.155214200570052"><ele>259.66666666666663</ele><time>2026-04-06T09:16:20Z</time></trkpt><trkpt lat="45.96934218135193" lon="12.155426776083518"><ele>262.0</ele><time>2026-04-06T09:16:21Z</time></trkpt><trkpt lat="45.96948028366596" lon="12.155678661190029"><ele>258.3333333333333</ele><time>2026-04-06T09:16:22Z</time></trkpt><trkpt lat="45.96962326455586" lon="12.155933411000891"><ele>254.66666666666669</ele><time>2026-04-06T09:16:23Z</time></trkpt><trkpt lat="45.96974557096174" lon="12.156186007023342"><ele>251.0</ele><time>2026-04-06T09:16:24Z</time></trkpt><trkpt lat="45.96986300383619" lon="12.156410152585424"><ele>246.33333333333334</ele><time>2026-04-06T09:16:25Z</time></trkpt><trkpt lat="45.97001012156879" lon="12.15666598436517"><ele>241.66666666666669</ele><time>2026-04-06T09:16:26Z</time></trkpt><trkpt lat="45.97012751473632" lon="12.15688309471673"><ele>237.0</ele><time>2026-04-06T09:16:27Z</time></trkpt><trkpt lat="45.97023832542148" lon="12.157095325172435"><ele>243.66666666666669</ele><time>2026-04-06T09:16:28Z</time></trkpt><trkpt lat="45.97034723423524" lon="12.157293727769401"><ele>250.33333333333334</ele><time>2026-04-06T09:16:29Z</time></trkpt><trkpt lat="45.97045416251068" lon="12.15750012959921"><ele>257.0</ele><time>2026-04-06T09:16:30Z</time></trkpt><trkpt lat="45.97056782592645" lon="12.157713173036765"><ele>257.0</ele><time>2026-04-06T09:16:31Z</time></trkpt><trkpt lat="45.97068482528164" lon="12.157927842294567"><ele>257.0</ele><time>2026-04-06T09:16:32Z</time></trkpt><trkpt lat="45.97079021091202" lon="12.158136664044575"><ele>257.0</ele><time>2026-04-06T09:16:33Z</time></trkpt><trkpt lat="45.97086930885108" lon="12.158345699252838"><ele>264.0</ele><time>2026-04-06T09:16:34Z</time></trkpt><trkpt lat="45.97092436072962" lon="12.158567647457375"><ele>271.0</ele><time>2026-04-06T09:16:35Z</time></trkpt><trkpt lat="45.97098712121331" lon="12.15878904377762"><ele>278.0</ele><time>2026-04-06T09:16:36Z</time></trkpt><trkpt lat="45.97105160061854" lon="12.159015404218009"><ele>275.0</ele><time>2026-04-06T09:16:37Z</time></trkpt><trkpt lat="45.971108004864874" lon="12.159249088328226"><ele>272.0</ele><time>2026-04-06T09:16:38Z</time></trkpt><trkpt lat="45.97117075598397" lon="12.159493587955383"><ele>269.0</ele><time>2026-04-06T09:16:39Z</time></trkpt><trkpt lat="45.971257296170414" lon="12.159764108662102"><ele>261.0</ele><time>2026-04-06T09:16:40Z</time></trkpt><trkpt lat="45.97133721733411" lon="12.160080468183168"><ele>253.0</ele><time>2026-04-06T09:16:41Z</time></trkpt><trkpt lat="45.971399301344235" lon="12.160398434549364"><ele>253.0</ele><time>2026-04-06T09:16:42Z</time></trkpt><trkpt lat="45.97147370813967" lon="12.160679300355262"><ele>253.0</ele><time>2026-04-06T09:16:43Z</time></trkpt><trkpt lat="45.971543527588665" lon="12.160940418296459"><ele>253.0</ele><time>2026-04-06T09:16:44Z</time></trkpt><trkpt lat="45.97160404853515" lon="12.161195083863118"><ele>255.0</ele><time>2026-04-06T09:16:45Z</time></trkpt><trkpt lat="45.97164748558632" lon="12.161410525256166"><ele>257.0</ele><time>2026-04-06T09:16:46Z</time></trkpt><trkpt lat="45.97167018421771" lon="12.161602301445729"><ele>259.0</ele><time>2026-04-06T09:16:47Z</time></trkpt><trkpt lat="45.971680321358356" lon="12.161789906358464"><ele>261.0</ele><time>2026-04-06T09:16:48Z</time></trkpt><trkpt lat="45.971690715269474" lon="12.161972700622384"><ele>261.0</ele><time>2026-04-06T09:16:49Z</time></trkpt><trkpt lat="45.97170600679922" lon="12.162143330107178"><ele>261.0</ele><time>2026-04-06T09:16:50Z</time></trkpt><trkpt lat="45.9717048739067" lon="12.162280860704032"><ele>261.0</ele><time>2026-04-06T09:16:51Z</time></trkpt><trkpt lat="45.97170428311008" lon="12.162391036620386"><ele>261.0</ele><time>2026-04-06T09:16:52Z</time></trkpt><trkpt lat="45.97170310892439" lon="12.162493730943797"><ele>261.0</ele><time>2026-04-06T09:16:53Z</time></trkpt><trkpt lat="45.97169959493805" lon="12.162592677522241"><ele>261.0</ele><time>2026-04-06T09:16:54Z</time></trkpt><trkpt lat="45.97169471452054" lon="12.16275009608597"><ele>261.0</ele><time>2026-04-06T09:16:56Z</time></trkpt><trkpt lat="45.97169328789288" lon="12.162923094638915"><ele>261.0</ele><time>2026-04-06T09:16:58Z</time></trkpt><trkpt lat="45.97169050119241" lon="12.16303896053013"><ele>261.0</ele><time>2026-04-06T09:16:59Z</time></trkpt><trkpt lat="45.97168862293795" lon="12.163173668919459"><ele>261.0</ele><time>2026-04-06T09:17:00Z</time></trkpt><trkpt lat="45.97169715699648" lon="12.163301167353998"><ele>261.0</ele><time>2026-04-06T09:17:01Z</time></trkpt><trkpt lat="45.97168845218108" lon="12.163426368487757"><ele>261.0</ele><time>2026-04-06T09:17:02Z</time></trkpt><trkpt lat="45.971706329144524" lon="12.16359067559064"><ele>261.0</ele><time>2026-04-06T09:17:03Z</time></trkpt><trkpt lat="45.97170821373217" lon="12.163775910070196"><ele>261.0</ele><time>2026-04-06T09:17:04Z</time></trkpt><trkpt lat="45.971713707356066" lon="12.16396197911353"><ele>261.0</ele><time>2026-04-06T09:17:05Z</time></trkpt><trkpt lat="45.97170049080073" lon="12.16415144282404"><ele>261.0</ele><time>2026-04-06T09:17:06Z</time></trkpt><trkpt lat="45.971704767354126" lon="12.164394306845228"><ele>261.0</ele><time>2026-04-06T09:17:07Z</time></trkpt><trkpt lat="45.9717105363821" lon="12.164685209230946"><ele>261.0</ele><time>2026-04-06T09:17:08Z</time></trkpt><trkpt lat="45.97172829795172" lon="12.165020232735044"><ele>261.0</ele><time>2026-04-06T09:17:09Z</time></trkpt><trkpt lat="45.97173002635309" lon="12.16536650099323"><ele>261.0</ele><time>2026-04-06T09:17:10Z</time></trkpt><trkpt lat="45.97174909766053" lon="12.165699567855269"><ele>263.0</ele><time>2026-04-06T09:17:11Z</time></trkpt><trkpt lat="45.97175651307167" lon="12.16604427082622"><ele>265.0</ele><time>2026-04-06T09:17:12Z</time></trkpt><trkpt lat="45.97176836015694" lon="12.166420660078382"><ele>267.5</ele><time>2026-04-06T09:17:13Z</time></trkpt><trkpt lat="45.971816710015425" lon="12.166785528221075"><ele>270.0</ele><time>2026-04-06T09:17:14Z</time></trkpt><trkpt lat="45.97187023347923" lon="12.167133954435297"><ele>269.0</ele><time>2026-04-06T09:17:15Z</time></trkpt><trkpt lat="45.971939196532716" lon="12.167471678738034"><ele>268.0</ele><time>2026-04-06T09:17:16Z</time></trkpt><trkpt lat="45.972008256139254" lon="12.16784236053228"><ele>266.0</ele><time>2026-04-06T09:17:17Z</time></trkpt><trkpt lat="45.97208204081339" lon="12.168234955203452"><ele>264.0</ele><time>2026-04-06T09:17:18Z</time></trkpt><trkpt lat="45.97215307826055" lon="12.16864964558782"><ele>260.0</ele><time>2026-04-06T09:17:19Z</time></trkpt><trkpt lat="45.97222152661059" lon="12.169049719010074"><ele>256.0</ele><time>2026-04-06T09:17:20Z</time></trkpt><trkpt lat="45.97228450913759" lon="12.16940373594068"><ele>256.0</ele><time>2026-04-06T09:17:21Z</time></trkpt><trkpt lat="45.97234475156663" lon="12.169728273149662"><ele>256.0</ele><time>2026-04-06T09:17:22Z</time></trkpt><trkpt lat="45.97240516986164" lon="12.170050967120494"><ele>251.5</ele><time>2026-04-06T09:17:23Z</time></trkpt><trkpt lat="45.972467907961295" lon="12.170381885446417"><ele>247.0</ele><time>2026-04-06T09:17:24Z</time></trkpt><trkpt lat="45.972531226655896" lon="12.170727619024492"><ele>272.0</ele><time>2026-04-06T09:17:25Z</time></trkpt><trkpt lat="45.97261289431449" lon="12.17109345839942"><ele>297.0</ele><time>2026-04-06T09:17:26Z</time></trkpt><trkpt lat="45.97271908886659" lon="12.171467522514655"><ele>286.0</ele><time>2026-04-06T09:17:27Z</time></trkpt><trkpt lat="45.97283506184377" lon="12.171853234907905"><ele>275.0</ele><time>2026-04-06T09:17:28Z</time></trkpt><trkpt lat="45.972943388868224" lon="12.172230434189904"><ele>263.5</ele><time>2026-04-06T09:17:29Z</time></trkpt><trkpt lat="45.97304658411604" lon="12.17257166516665"><ele>252.0</ele><time>2026-04-06T09:17:30Z</time></trkpt><trkpt lat="45.97313680784812" lon="12.172878083416638"><ele>252.0</ele><time>2026-04-06T09:17:31Z</time></trkpt><trkpt lat="45.97321733954727" lon="12.17315632006999"><ele>252.0</ele><time>2026-04-06T09:17:32Z</time></trkpt><trkpt lat="45.9733008245651" lon="12.173429013614419"><ele>252.0</ele><time>2026-04-06T09:17:33Z</time></trkpt><trkpt lat="45.97337843060755" lon="12.173716939022217"><ele>245.0</ele><time>2026-04-06T09:17:34Z</time></trkpt><trkpt lat="45.97345339660374" lon="12.174030261300762"><ele>238.0</ele><time>2026-04-06T09:17:35Z</time></trkpt><trkpt lat="45.973521703609705" lon="12.174365710485858"><ele>238.0</ele><time>2026-04-06T09:17:36Z</time></trkpt><trkpt lat="45.97357776798447" lon="12.174694185279716"><ele>238.0</ele><time>2026-04-06T09:17:37Z</time></trkpt><trkpt lat="45.973617384402786" lon="12.174989588270877"><ele>238.0</ele><time>2026-04-06T09:17:38Z</time></trkpt><trkpt lat="45.973654595936615" lon="12.17525944597824"><ele>238.66666666666666</ele><time>2026-04-06T09:17:39Z</time></trkpt><trkpt lat="45.97368521698839" lon="12.17549420410107"><ele>239.33333333333331</ele><time>2026-04-06T09:17:40Z</time></trkpt><trkpt lat="45.97371494847238" lon="12.175718925527848"><ele>240.0</ele><time>2026-04-06T09:17:41Z</time></trkpt><trkpt lat="45.973748498936175" lon="12.175943492766768"><ele>239.0</ele><time>2026-04-06T09:17:42Z</time></trkpt><trkpt lat="45.973777286416166" lon="12.176177321583127"><ele>238.0</ele><time>2026-04-06T09:17:43Z</time></trkpt><trkpt lat="45.97380257070111" lon="12.176391822735548"><ele>237.0</ele><time>2026-04-06T09:17:44Z</time></trkpt><trkpt lat="45.97383613295215" lon="12.17657690844531"><ele>236.0</ele><time>2026-04-06T09:17:45Z</time></trkpt><trkpt lat="45.97386000773791" lon="12.176751395116275"><ele>236.0</ele><time>2026-04-06T09:17:46Z</time></trkpt><trkpt lat="45.97388424131489" lon="12.17691770835494"><ele>236.0</ele><time>2026-04-06T09:17:47Z</time></trkpt><trkpt lat="45.97392690675641" lon="12.17713453358669"><ele>236.0</ele><time>2026-04-06T09:17:48Z</time></trkpt><trkpt lat="45.97397095509046" lon="12.177430444246573"><ele>236.0</ele><time>2026-04-06T09:17:49Z</time></trkpt><trkpt lat="45.97402145117986" lon="12.177772282360795"><ele>236.0</ele><time>2026-04-06T09:17:50Z</time></trkpt><trkpt lat="45.97407056644545" lon="12.1781565821006"><ele>236.5</ele><time>2026-04-06T09:17:51Z</time></trkpt><trkpt lat="45.974125318155394" lon="12.178577709716267"><ele>237.0</ele><time>2026-04-06T09:17:52Z</time></trkpt><trkpt lat="45.97418630989975" lon="12.178995088641937"><ele>237.0</ele><time>2026-04-06T09:17:53Z</time></trkpt><trkpt lat="45.97425270215994" lon="12.179445127442337"><ele>237.0</ele><time>2026-04-06T09:17:54Z</time></trkpt><trkpt lat="45.9743193501925" lon="12.179910811831043"><ele>235.5</ele><time>2026-04-06T09:17:55Z</time></trkpt><trkpt lat="45.974383829425506" lon="12.180360577736204"><ele>234.0</ele><time>2026-04-06T09:17:56Z</time></trkpt><trkpt lat="45.97444706787369" lon="12.180810791021585"><ele>233.0</ele><time>2026-04-06T09:17:57Z</time></trkpt><trkpt lat="45.97451405491796" lon="12.181275839465872"><ele>232.0</ele><time>2026-04-06T09:17:58Z</time></trkpt><trkpt lat="45.97458622292855" lon="12.18177210768103"><ele>231.5</ele><time>2026-04-06T09:17:59Z</time></trkpt><trkpt lat="45.97465725090789" lon="12.182272982757992"><ele>231.0</ele><time>2026-04-06T09:18:00Z</time></trkpt><trkpt lat="45.974723933500904" lon="12.182727613840282"><ele>233.5</ele><time>2026-04-06T09:18:01Z</time></trkpt><trkpt lat="45.9747828128781" lon="12.183139102633474"><ele>236.0</ele><time>2026-04-06T09:18:02Z</time></trkpt><trkpt lat="45.97483800266971" lon="12.183557539492716"><ele>235.5</ele><time>2026-04-06T09:18:03Z</time></trkpt><trkpt lat="45.97489576896986" lon="12.183983888384834"><ele>235.0</ele><time>2026-04-06T09:18:04Z</time></trkpt><trkpt lat="45.974964737699054" lon="12.18440723191925"><ele>235.0</ele><time>2026-04-06T09:18:05Z</time></trkpt><trkpt lat="45.97501897463641" lon="12.18480234968577"><ele>235.0</ele><time>2026-04-06T09:18:06Z</time></trkpt><trkpt lat="45.97507296362598" lon="12.185157002710866"><ele>238.0</ele><time>2026-04-06T09:18:07Z</time></trkpt><trkpt lat="45.975126760146374" lon="12.185496640013048"><ele>241.0</ele><time>2026-04-06T09:18:08Z</time></trkpt><trkpt lat="45.97519964755325" lon="12.185814486471028"><ele>241.0</ele><time>2026-04-06T09:18:09Z</time></trkpt><trkpt lat="45.97529801024231" lon="12.18613433952185"><ele>241.0</ele><time>2026-04-06T09:18:10Z</time></trkpt><trkpt lat="45.97541985245887" lon="12.186456281175275"><ele>236.0</ele><time>2026-04-06T09:18:11Z</time></trkpt><trkpt lat="45.97555501082028" lon="12.186781298189064"><ele>231.0</ele><time>2026-04-06T09:18:12Z</time></trkpt><trkpt lat="45.9756925259034" lon="12.187114290006086"><ele>230.0</ele><time>2026-04-06T09:18:13Z</time></trkpt><trkpt lat="45.975834838095125" lon="12.187455459081239"><ele>229.0</ele><time>2026-04-06T09:18:14Z</time></trkpt><trkpt lat="45.975973776722356" lon="12.187786047212619"><ele>231.0</ele><time>2026-04-06T09:18:15Z</time></trkpt><trkpt lat="45.976100010378495" lon="12.188081654837397"><ele>233.0</ele><time>2026-04-06T09:18:16Z</time></trkpt><trkpt lat="45.97621605039962" lon="12.188361029989935"><ele>233.0</ele><time>2026-04-06T09:18:17Z</time></trkpt><trkpt lat="45.9763256651103" lon="12.188628967340119"><ele>233.0</ele><time>2026-04-06T09:18:18Z</time></trkpt><trkpt lat="45.97643453782578" lon="12.188893146769484"><ele>233.0</ele><time>2026-04-06T09:18:19Z</time></trkpt><trkpt lat="45.97654825792365" lon="12.189165182658199"><ele>231.0</ele><time>2026-04-06T09:18:20Z</time></trkpt><trkpt lat="45.97665842757843" lon="12.189441083353042"><ele>229.0</ele><time>2026-04-06T09:18:21Z</time></trkpt><trkpt lat="45.97676434864755" lon="12.18974057448371"><ele>230.5</ele><time>2026-04-06T09:18:22Z</time></trkpt><trkpt lat="45.97686418162924" lon="12.190076850138826"><ele>232.0</ele><time>2026-04-06T09:18:23Z</time></trkpt><trkpt lat="45.976963234626844" lon="12.190438549664881"><ele>229.0</ele><time>2026-04-06T09:18:24Z</time></trkpt><trkpt lat="45.97707114021989" lon="12.190804131240444"><ele>226.0</ele><time>2026-04-06T09:18:25Z</time></trkpt><trkpt lat="45.97718129225612" lon="12.191177802495256"><ele>227.0</ele><time>2026-04-06T09:18:26Z</time></trkpt><trkpt lat="45.97729581784228" lon="12.19156248625921"><ele>228.0</ele><time>2026-04-06T09:18:27Z</time></trkpt><trkpt lat="45.97739984284811" lon="12.191907408306527"><ele>228.0</ele><time>2026-04-06T09:18:28Z</time></trkpt><trkpt lat="45.977482102557836" lon="12.19217719664114"><ele>228.0</ele><time>2026-04-06T09:18:29Z</time></trkpt><trkpt lat="45.977559905322515" lon="12.19241995281937"><ele>228.0</ele><time>2026-04-06T09:18:30Z</time></trkpt><trkpt lat="45.977637125736194" lon="12.1926623383368"><ele>229.0</ele><time>2026-04-06T09:18:31Z</time></trkpt><trkpt lat="45.97771025817398" lon="12.19291691960516"><ele>230.0</ele><time>2026-04-06T09:18:32Z</time></trkpt><trkpt lat="45.977786246202626" lon="12.193172001177043"><ele>231.0</ele><time>2026-04-06T09:18:33Z</time></trkpt><trkpt lat="45.977866856429344" lon="12.193427054305904"><ele>231.0</ele><time>2026-04-06T09:18:34Z</time></trkpt><trkpt lat="45.977950154259915" lon="12.193705435376799"><ele>231.0</ele><time>2026-04-06T09:18:35Z</time></trkpt><trkpt lat="45.97803239078778" lon="12.194003773723843"><ele>231.0</ele><time>2026-04-06T09:18:36Z</time></trkpt><trkpt lat="45.97812671292997" lon="12.194321174261455"><ele>230.5</ele><time>2026-04-06T09:18:37Z</time></trkpt><trkpt lat="45.978240856564966" lon="12.194663419884437"><ele>230.0</ele><time>2026-04-06T09:18:38Z</time></trkpt><trkpt lat="45.97834916768244" lon="12.195030213903236"><ele>230.5</ele><time>2026-04-06T09:18:39Z</time></trkpt><trkpt lat="45.978458808691855" lon="12.195404994075385"><ele>231.0</ele><time>2026-04-06T09:18:40Z</time></trkpt><trkpt lat="45.97857373723786" lon="12.195780695992985"><ele>229.0</ele><time>2026-04-06T09:18:41Z</time></trkpt><trkpt lat="45.97868374495932" lon="12.196139567621941"><ele>227.0</ele><time>2026-04-06T09:18:42Z</time></trkpt><trkpt lat="45.97879927283472" lon="12.196470270058432"><ele>226.5</ele><time>2026-04-06T09:18:43Z</time></trkpt><trkpt lat="45.97892283813554" lon="12.196783277133122"><ele>226.0</ele><time>2026-04-06T09:18:44Z</time></trkpt><trkpt lat="45.97904313546369" lon="12.197070175132268"><ele>226.0</ele><time>2026-04-06T09:18:45Z</time></trkpt><trkpt lat="45.97915866446397" lon="12.197333965641027"><ele>226.0</ele><time>2026-04-06T09:18:46Z</time></trkpt><trkpt lat="45.979272556684066" lon="12.197581127637584"><ele>226.0</ele><time>2026-04-06T09:18:47Z</time></trkpt><trkpt lat="45.979384698840015" lon="12.197826116769026"><ele>227.33333333333331</ele><time>2026-04-06T09:18:48Z</time></trkpt><trkpt lat="45.979489995104224" lon="12.198071139086235"><ele>228.66666666666669</ele><time>2026-04-06T09:18:49Z</time></trkpt><trkpt lat="45.97959280427025" lon="12.19830892837341"><ele>230.0</ele><time>2026-04-06T09:18:50Z</time></trkpt><trkpt lat="45.97969216307836" lon="12.198534258352572"><ele>230.0</ele><time>2026-04-06T09:18:51Z</time></trkpt><trkpt lat="45.97978699693523" lon="12.198747048748254"><ele>230.0</ele><time>2026-04-06T09:18:52Z</time></trkpt><trkpt lat="45.97987287577927" lon="12.198947227786123"><ele>230.0</ele><time>2026-04-06T09:18:53Z</time></trkpt><trkpt lat="45.979957879385346" lon="12.19914288095194"><ele>231.66666666666669</ele><time>2026-04-06T09:18:54Z</time></trkpt><trkpt lat="45.980043912009236" lon="12.199335048266686"><ele>233.33333333333331</ele><time>2026-04-06T09:18:55Z</time></trkpt><trkpt lat="45.98013715451416" lon="12.199531450119975"><ele>235.0</ele><time>2026-04-06T09:18:56Z</time></trkpt><trkpt lat="45.980258414684684" lon="12.199777438082561"><ele>233.5</ele><time>2026-04-06T09:18:57Z</time></trkpt><trkpt lat="45.980381939145914" lon="12.20007545857126"><ele>232.0</ele><time>2026-04-06T09:18:58Z</time></trkpt><trkpt lat="45.980511544668246" lon="12.200418612265914"><ele>230.0</ele><time>2026-04-06T09:18:59Z</time></trkpt><trkpt lat="45.98067525608624" lon="12.200778177126356"><ele>228.0</ele><time>2026-04-06T09:19:00Z</time></trkpt><trkpt lat="45.98082198871223" lon="12.201112552381481"><ele>230.5</ele><time>2026-04-06T09:19:01Z</time></trkpt><trkpt lat="45.98097283171747" lon="12.201436988708483"><ele>233.0</ele><time>2026-04-06T09:19:02Z</time></trkpt><trkpt lat="45.98112231019727" lon="12.20177522071735"><ele>233.0</ele><time>2026-04-06T09:19:03Z</time></trkpt><trkpt lat="45.98126740923137" lon="12.202136517242039"><ele>233.0</ele><time>2026-04-06T09:19:04Z</time></trkpt><trkpt lat="45.981400585602785" lon="12.202541725905713"><ele>233.0</ele><time>2026-04-06T09:19:05Z</time></trkpt><trkpt lat="45.9815236310942" lon="12.202984040110454"><ele>233.0</ele><time>2026-04-06T09:19:06Z</time></trkpt><trkpt lat="45.98164561854362" lon="12.203458415968484"><ele>236.0</ele><time>2026-04-06T09:19:07Z</time></trkpt><trkpt lat="45.981778909743085" lon="12.203954784884743"><ele>239.0</ele><time>2026-04-06T09:19:08Z</time></trkpt><trkpt lat="45.98190748191446" lon="12.204419419922669"><ele>237.5</ele><time>2026-04-06T09:19:09Z</time></trkpt><trkpt lat="45.98202909193049" lon="12.204857267812223"><ele>236.0</ele><time>2026-04-06T09:19:10Z</time></trkpt><trkpt lat="45.98213915811909" lon="12.205251368304001"><ele>236.0</ele><time>2026-04-06T09:19:11Z</time></trkpt><trkpt lat="45.98224606938931" lon="12.205636096448634"><ele>236.0</ele><time>2026-04-06T09:19:12Z</time></trkpt><trkpt lat="45.98235379112602" lon="12.206017569348596"><ele>236.0</ele><time>2026-04-06T09:19:13Z</time></trkpt><trkpt lat="45.982460635219915" lon="12.206397952989365"><ele>236.0</ele><time>2026-04-06T09:19:14Z</time></trkpt><trkpt lat="45.982564535717145" lon="12.206774333486061"><ele>236.0</ele><time>2026-04-06T09:19:15Z</time></trkpt><trkpt lat="45.982665795138104" lon="12.207138643070076"><ele>236.0</ele><time>2026-04-06T09:19:16Z</time></trkpt><trkpt lat="45.98276212765022" lon="12.207486378563972"><ele>236.5</ele><time>2026-04-06T09:19:17Z</time></trkpt><trkpt lat="45.982857088281854" lon="12.20782461451363"><ele>237.0</ele><time>2026-04-06T09:19:18Z</time></trkpt><trkpt lat="45.98294787806769" lon="12.208156920487893"><ele>235.0</ele><time>2026-04-06T09:19:19Z</time></trkpt><trkpt lat="45.98303521731343" lon="12.208472488083965"><ele>233.0</ele><time>2026-04-06T09:19:20Z</time></trkpt><trkpt lat="45.98311904597837" lon="12.208766438809917"><ele>232.66666666666669</ele><time>2026-04-06T09:19:21Z</time></trkpt><trkpt lat="45.98319865750958" lon="12.209039401994595"><ele>232.33333333333331</ele><time>2026-04-06T09:19:22Z</time></trkpt><trkpt lat="45.98327508662313" lon="12.209294738882608"><ele>232.0</ele><time>2026-04-06T09:19:23Z</time></trkpt><trkpt lat="45.98335045950759" lon="12.209525877822777"><ele>232.66666666666666</ele><time>2026-04-06T09:19:24Z</time></trkpt><trkpt lat="45.98343474532187" lon="12.209743564413658"><ele>233.33333333333331</ele><time>2026-04-06T09:19:25Z</time></trkpt><trkpt lat="45.98351295763492" lon="12.20995235499887"><ele>234.0</ele><time>2026-04-06T09:19:26Z</time></trkpt><trkpt lat="45.983569769199654" lon="12.210151717978366"><ele>234.0</ele><time>2026-04-06T09:19:27Z</time></trkpt><trkpt lat="45.98358297279245" lon="12.21033555171474"><ele>233.99999999999997</ele><time>2026-04-06T09:19:28Z</time></trkpt><trkpt lat="45.98356347335863" lon="12.210443390434538"><ele>233.99999999999997</ele><time>2026-04-06T09:19:29Z</time></trkpt><trkpt lat="45.98354774792621" lon="12.21053756654384"><ele>234.0</ele><time>2026-04-06T09:19:30Z</time></trkpt><trkpt lat="45.983561925054325" lon="12.21043116171874"><ele>234.0</ele><time>2026-04-06T09:19:31Z</time></trkpt><trkpt lat="45.983713266898214" lon="12.210586532030273"><ele>234.0</ele><time>2026-04-06T09:19:37Z</time></trkpt><trkpt lat="45.98381835378288" lon="12.210644823687803"><ele>234.0</ele><time>2026-04-06T09:19:38Z</time></trkpt><trkpt lat="45.98391901541559" lon="12.210723403177722"><ele>234.0</ele><time>2026-04-06T09:19:39Z</time></trkpt><trkpt lat="45.98402188439433" lon="12.210841451905077"><ele>234.0</ele><time>2026-04-06T09:19:40Z</time></trkpt><trkpt lat="45.98411109334653" lon="12.211068462481999"><ele>234.5</ele><time>2026-04-06T09:19:41Z</time></trkpt><trkpt lat="45.98424933138892" lon="12.211319268435863"><ele>235.0</ele><time>2026-04-06T09:19:42Z</time></trkpt><trkpt lat="45.98437154173643" lon="12.211595773298987"><ele>235.0</ele><time>2026-04-06T09:19:43Z</time></trkpt><trkpt lat="45.98451643815808" lon="12.211871009030654"><ele>235.0</ele><time>2026-04-06T09:19:44Z</time></trkpt><trkpt lat="45.98466389016837" lon="12.212179166175535"><ele>235.0</ele><time>2026-04-06T09:19:45Z</time></trkpt><trkpt lat="45.98480619327999" lon="12.212473391188167"><ele>235.0</ele><time>2026-04-06T09:19:46Z</time></trkpt><trkpt lat="45.98494379406596" lon="12.212751571255314"><ele>236.5</ele><time>2026-04-06T09:19:47Z</time></trkpt><trkpt lat="45.98508629224892" lon="12.21303318128317"><ele>238.0</ele><time>2026-04-06T09:19:48Z</time></trkpt><trkpt lat="45.98522487628181" lon="12.213335134119328"><ele>238.0</ele><time>2026-04-06T09:19:49Z</time></trkpt><trkpt lat="45.985364571236474" lon="12.21361042362807"><ele>238.0</ele><time>2026-04-06T09:19:50Z</time></trkpt><trkpt lat="45.985494418446315" lon="12.213868796046489"><ele>237.66666666666666</ele><time>2026-04-06T09:19:51Z</time></trkpt><trkpt lat="45.985610881765" lon="12.214105819152751"><ele>237.33333333333331</ele><time>2026-04-06T09:19:52Z</time></trkpt><trkpt lat="45.985722483918124" lon="12.21431799278788"><ele>237.0</ele><time>2026-04-06T09:19:53Z</time></trkpt><trkpt lat="45.985817289193676" lon="12.214524153522902"><ele>238.33333333333331</ele><time>2026-04-06T09:19:54Z</time></trkpt><trkpt lat="45.98591547255951" lon="12.214716938930874"><ele>239.66666666666666</ele><time>2026-04-06T09:19:55Z</time></trkpt><trkpt lat="45.98597110059977" lon="12.214941547631433"><ele>241.0</ele><time>2026-04-06T09:19:56Z</time></trkpt><trkpt lat="45.986022752467576" lon="12.215193507513398"><ele>241.0</ele><time>2026-04-06T09:19:57Z</time></trkpt><trkpt lat="45.98606314451588" lon="12.215456062629363"><ele>241.0</ele><time>2026-04-06T09:19:58Z</time></trkpt><trkpt lat="45.98611805610681" lon="12.215718997093894"><ele>241.0</ele><time>2026-04-06T09:19:59Z</time></trkpt><trkpt lat="45.98614985564046" lon="12.215957962869501"><ele>240.75</ele><time>2026-04-06T09:20:00Z</time></trkpt><trkpt lat="45.98618281072832" lon="12.21617415705071"><ele>240.5</ele><time>2026-04-06T09:20:01Z</time></trkpt><trkpt lat="45.98620233488902" lon="12.216381766100397"><ele>240.25</ele><time>2026-04-06T09:20:02Z</time></trkpt><trkpt lat="45.98624230435941" lon="12.216546911545782"><ele>240.0</ele><time>2026-04-06T09:20:03Z</time></trkpt><trkpt lat="45.98625848957664" lon="12.216714280679128"><ele>240.0</ele><time>2026-04-06T09:20:04Z</time></trkpt><trkpt lat="45.98628222264735" lon="12.21686662067677"><ele>240.0</ele><time>2026-04-06T09:20:05Z</time></trkpt><trkpt lat="45.98630625950996" lon="12.217003591792116"><ele>240.0</ele><time>2026-04-06T09:20:06Z</time></trkpt><trkpt lat="45.98632625479041" lon="12.217133510430275"><ele>240.0</ele><time>2026-04-06T09:20:07Z</time></trkpt><trkpt lat="45.986346693309294" lon="12.217265980392224"><ele>240.0</ele><time>2026-04-06T09:20:08Z</time></trkpt><trkpt lat="45.986370218209046" lon="12.217413341559679"><ele>239.83333333333334</ele><time>2026-04-06T09:20:09Z</time></trkpt><trkpt lat="45.98640891104615" lon="12.217543974908065"><ele>239.66666666666669</ele><time>2026-04-06T09:20:10Z</time></trkpt><trkpt lat="45.986446179039056" lon="12.217658393227975"><ele>239.5</ele><time>2026-04-06T09:20:11Z</time></trkpt><trkpt lat="45.986471545882715" lon="12.21776086107844"><ele>239.33333333333334</ele><time>2026-04-06T09:20:12Z</time></trkpt><trkpt lat="45.98650397414743" lon="12.217851352381407"><ele>239.16666666666669</ele><time>2026-04-06T09:20:13Z</time></trkpt><trkpt lat="45.98652843721097" lon="12.217944595748946"><ele>239.0</ele><time>2026-04-06T09:20:14Z</time></trkpt><trkpt lat="45.98655838395762" lon="12.218035162511395"><ele>239.00000000000003</ele><time>2026-04-06T09:20:15Z</time></trkpt><trkpt lat="45.986586008902094" lon="12.218119447467695"><ele>239.0</ele><time>2026-04-06T09:20:16Z</time></trkpt><trkpt lat="45.986637695753906" lon="12.218267436666478"><ele>239.0</ele><time>2026-04-06T09:20:18Z</time></trkpt><trkpt lat="45.98669000714005" lon="12.218426423259737"><ele>239.0</ele><time>2026-04-06T09:20:20Z</time></trkpt><trkpt lat="45.98672290890812" lon="12.218511298852544"><ele>239.00000000000003</ele><time>2026-04-06T09:20:21Z</time></trkpt><trkpt lat="45.98675152081029" lon="12.21859922464403"><ele>239.0</ele><time>2026-04-06T09:20:22Z</time></trkpt><trkpt lat="45.98678061954521" lon="12.218684826739516"><ele>240.00000000000003</ele><time>2026-04-06T09:20:23Z</time></trkpt><trkpt lat="45.98681493120052" lon="12.218773497534565"><ele>241.0</ele><time>2026-04-06T09:20:24Z</time></trkpt><trkpt lat="45.98684083725721" lon="12.218863392040385"><ele>242.0</ele><time>2026-04-06T09:20:25Z</time></trkpt><trkpt lat="45.986873080697734" lon="12.218953100627878"><ele>243.0</ele><time>2026-04-06T09:20:26Z</time></trkpt><trkpt lat="45.98692107685859" lon="12.219040072659828"><ele>244.00000000000003</ele><time>2026-04-06T09:20:27Z</time></trkpt><trkpt lat="45.98697512177115" lon="12.219129534239045"><ele>245.0</ele><time>2026-04-06T09:20:28Z</time></trkpt><trkpt lat="45.987036954972595" lon="12.219219205716783"><ele>245.0</ele><time>2026-04-06T09:20:29Z</time></trkpt><trkpt lat="45.98710318076787" lon="12.219314633216426"><ele>245.0</ele><time>2026-04-06T09:20:30Z</time></trkpt><trkpt lat="45.98717406650595" lon="12.219412185854713"><ele>245.0</ele><time>2026-04-06T09:20:31Z</time></trkpt><trkpt lat="45.98724388503457" lon="12.219518330038838"><ele>245.0</ele><time>2026-04-06T09:20:32Z</time></trkpt><trkpt lat="45.98730630693988" lon="12.219641225764365"><ele>245.0</ele><time>2026-04-06T09:20:33Z</time></trkpt><trkpt lat="45.98736100436187" lon="12.219774537929267"><ele>244.0</ele><time>2026-04-06T09:20:34Z</time></trkpt><trkpt lat="45.98742367291398" lon="12.219890410381744"><ele>243.0</ele><time>2026-04-06T09:20:35Z</time></trkpt><trkpt lat="45.98748742235018" lon="12.220008524598226"><ele>242.0</ele><time>2026-04-06T09:20:36Z</time></trkpt><trkpt lat="45.98754119772046" lon="12.220157692989876"><ele>241.0</ele><time>2026-04-06T09:20:37Z</time></trkpt><trkpt lat="45.98761855331161" lon="12.220322942118722"><ele>242.0</ele><time>2026-04-06T09:20:38Z</time></trkpt><trkpt lat="45.987711513216375" lon="12.220515282398315"><ele>243.0</ele><time>2026-04-06T09:20:39Z</time></trkpt><trkpt lat="45.98781952820749" lon="12.220731391654502"><ele>244.0</ele><time>2026-04-06T09:20:40Z</time></trkpt><trkpt lat="45.98795026329638" lon="12.220946658598896"><ele>244.0</ele><time>2026-04-06T09:20:41Z</time></trkpt><trkpt lat="45.98805379311058" lon="12.221178439722626"><ele>244.0</ele><time>2026-04-06T09:20:42Z</time></trkpt><trkpt lat="45.988161825836094" lon="12.221393469520734"><ele>244.0</ele><time>2026-04-06T09:20:43Z</time></trkpt><trkpt lat="45.98827003504557" lon="12.221603859718385"><ele>249.0</ele><time>2026-04-06T09:20:44Z</time></trkpt><trkpt lat="45.98836324566203" lon="12.221812567613107"><ele>254.0</ele><time>2026-04-06T09:20:45Z</time></trkpt><trkpt lat="45.988439654651216" lon="12.222016745140175"><ele>259.0</ele><time>2026-04-06T09:20:46Z</time></trkpt><trkpt lat="45.98846923025359" lon="12.222224017994055"><ele>257.5</ele><time>2026-04-06T09:20:47Z</time></trkpt><trkpt lat="45.98851179141461" lon="12.222423750091107"><ele>256.0</ele><time>2026-04-06T09:20:48Z</time></trkpt><trkpt lat="45.9885291733899" lon="12.222633825727806"><ele>254.5</ele><time>2026-04-06T09:20:49Z</time></trkpt><trkpt lat="45.988552269753136" lon="12.222857585223153"><ele>253.0</ele><time>2026-04-06T09:20:50Z</time></trkpt><trkpt lat="45.98857142953013" lon="12.223107009944098"><ele>251.66666666666666</ele><time>2026-04-06T09:20:51Z</time></trkpt><trkpt lat="45.988593064179746" lon="12.223388764527408"><ele>250.33333333333331</ele><time>2026-04-06T09:20:52Z</time></trkpt><trkpt lat="45.98862443831447" lon="12.22368488882121"><ele>249.0</ele><time>2026-04-06T09:20:53Z</time></trkpt><trkpt lat="45.98866116475003" lon="12.22400083324907"><ele>247.0</ele><time>2026-04-06T09:20:54Z</time></trkpt><trkpt lat="45.98869421222964" lon="12.22432983160006"><ele>245.0</ele><time>2026-04-06T09:20:55Z</time></trkpt><trkpt lat="45.98872857485435" lon="12.224662981886027"><ele>244.0</ele><time>2026-04-06T09:20:56Z</time></trkpt><trkpt lat="45.98876637150167" lon="12.224992705518448"><ele>243.0</ele><time>2026-04-06T09:20:57Z</time></trkpt><trkpt lat="45.98880686048133" lon="12.225312130631158"><ele>243.0</ele><time>2026-04-06T09:20:58Z</time></trkpt><trkpt lat="45.98885354122845" lon="12.225632720347855"><ele>243.0</ele><time>2026-04-06T09:20:59Z</time></trkpt><trkpt lat="45.98891240432873" lon="12.225965934410059"><ele>240.0</ele><time>2026-04-06T09:21:00Z</time></trkpt><trkpt lat="45.988994802076206" lon="12.226299220692459"><ele>237.0</ele><time>2026-04-06T09:21:01Z</time></trkpt><trkpt lat="45.9890877315811" lon="12.226613554647534"><ele>240.0</ele><time>2026-04-06T09:21:02Z</time></trkpt><trkpt lat="45.98919179790635" lon="12.226909365358186"><ele>243.0</ele><time>2026-04-06T09:21:03Z</time></trkpt><trkpt lat="45.98929768285776" lon="12.227201769731142"><ele>240.5</ele><time>2026-04-06T09:21:04Z</time></trkpt><trkpt lat="45.989410585646716" lon="12.227505416440994"><ele>238.0</ele><time>2026-04-06T09:21:05Z</time></trkpt><trkpt lat="45.98953141950318" lon="12.227815579262545"><ele>238.0</ele><time>2026-04-06T09:21:06Z</time></trkpt><trkpt lat="45.9896508732072" lon="12.228117699401341"><ele>238.0</ele><time>2026-04-06T09:21:07Z</time></trkpt><trkpt lat="45.989765062411706" lon="12.22841416336355"><ele>237.66666666666666</ele><time>2026-04-06T09:21:08Z</time></trkpt><trkpt lat="45.98987312417528" lon="12.228708503540709"><ele>237.33333333333331</ele><time>2026-04-06T09:21:09Z</time></trkpt><trkpt lat="45.98997243248669" lon="12.228960646680534"><ele>237.0</ele><time>2026-04-06T09:21:10Z</time></trkpt><trkpt lat="45.99005999224677" lon="12.229178279194267"><ele>237.0</ele><time>2026-04-06T09:21:11Z</time></trkpt><trkpt lat="45.990136881754715" lon="12.229375265498344"><ele>237.0</ele><time>2026-04-06T09:21:12Z</time></trkpt><trkpt lat="45.99021564383572" lon="12.229568750188882"><ele>237.0</ele><time>2026-04-06T09:21:13Z</time></trkpt><trkpt lat="45.99029480170796" lon="12.229813403907537"><ele>237.0</ele><time>2026-04-06T09:21:14Z</time></trkpt><trkpt lat="45.99041061983396" lon="12.23007487465695"><ele>237.0</ele><time>2026-04-06T09:21:15Z</time></trkpt><trkpt lat="45.99050050741816" lon="12.230356905752554"><ele>237.0</ele><time>2026-04-06T09:21:16Z</time></trkpt><trkpt lat="45.99059378378212" lon="12.230607500928667"><ele>237.66666666666669</ele><time>2026-04-06T09:21:17Z</time></trkpt><trkpt lat="45.990677725656774" lon="12.230832135447885"><ele>238.33333333333334</ele><time>2026-04-06T09:21:18Z</time></trkpt><trkpt lat="45.99078397013228" lon="12.231051233791002"><ele>239.0</ele><time>2026-04-06T09:21:19Z</time></trkpt><trkpt lat="45.99093223732669" lon="12.23127005093664"><ele>242.0</ele><time>2026-04-06T09:21:20Z</time></trkpt><trkpt lat="45.99109913573739" lon="12.231507356798259"><ele>245.0</ele><time>2026-04-06T09:21:21Z</time></trkpt><trkpt lat="45.991242738360796" lon="12.231732790327015"><ele>248.0</ele><time>2026-04-06T09:21:22Z</time></trkpt><trkpt lat="45.99137125868159" lon="12.231942050182768"><ele>248.0</ele><time>2026-04-06T09:21:23Z</time></trkpt><trkpt lat="45.99146179057207" lon="12.232157091161962"><ele>248.0</ele><time>2026-04-06T09:21:24Z</time></trkpt><trkpt lat="45.991535516640546" lon="12.232369726221192"><ele>248.0</ele><time>2026-04-06T09:21:25Z</time></trkpt><trkpt lat="45.99160743257354" lon="12.232560940222754"><ele>247.5</ele><time>2026-04-06T09:21:26Z</time></trkpt><trkpt lat="45.99167146941037" lon="12.232744860407925"><ele>247.0</ele><time>2026-04-06T09:21:27Z</time></trkpt><trkpt lat="45.99172370275543" lon="12.232918299670793"><ele>246.5</ele><time>2026-04-06T09:21:28Z</time></trkpt><trkpt lat="45.99177958812709" lon="12.233085759761149"><ele>246.0</ele><time>2026-04-06T09:21:29Z</time></trkpt><trkpt lat="45.99184855791563" lon="12.233275892833142"><ele>246.33333333333331</ele><time>2026-04-06T09:21:30Z</time></trkpt><trkpt lat="45.99192968355702" lon="12.23349700697646"><ele>246.66666666666666</ele><time>2026-04-06T09:21:31Z</time></trkpt><trkpt lat="45.99201696007861" lon="12.23375070911721"><ele>247.0</ele><time>2026-04-06T09:21:32Z</time></trkpt><trkpt lat="45.992099257142904" lon="12.234031406721357"><ele>247.0</ele><time>2026-04-06T09:21:33Z</time></trkpt><trkpt lat="45.99217580200853" lon="12.234305812871815"><ele>247.0</ele><time>2026-04-06T09:21:34Z</time></trkpt><trkpt lat="45.99223470426141" lon="12.234557579913218"><ele>247.0</ele><time>2026-04-06T09:21:35Z</time></trkpt><trkpt lat="45.992281231431335" lon="12.234789113779044"><ele>246.0</ele><time>2026-04-06T09:21:36Z</time></trkpt><trkpt lat="45.99232725079715" lon="12.23499452677368"><ele>245.0</ele><time>2026-04-06T09:21:37Z</time></trkpt><trkpt lat="45.99236306539588" lon="12.235142456903079"><ele>244.0</ele><time>2026-04-06T09:21:38Z</time></trkpt><trkpt lat="45.99237744907479" lon="12.235268807682989"><ele>243.0</ele><time>2026-04-06T09:21:39Z</time></trkpt><trkpt lat="45.992403851708374" lon="12.235384749661455"><ele>242.0</ele><time>2026-04-06T09:21:40Z</time></trkpt><trkpt lat="45.99243924377671" lon="12.235505395406003"><ele>243.25</ele><time>2026-04-06T09:21:41Z</time></trkpt><trkpt lat="45.992474682809735" lon="12.235657586405702"><ele>244.5</ele><time>2026-04-06T09:21:42Z</time></trkpt><trkpt lat="45.99254094057133" lon="12.23584532936808"><ele>245.75</ele><time>2026-04-06T09:21:43Z</time></trkpt><trkpt lat="45.99262206897795" lon="12.236050253981123"><ele>247.0</ele><time>2026-04-06T09:21:44Z</time></trkpt><trkpt lat="45.99271064937367" lon="12.23626458716446"><ele>244.33333333333331</ele><time>2026-04-06T09:21:45Z</time></trkpt><trkpt lat="45.99283489725537" lon="12.236494330951505"><ele>241.66666666666669</ele><time>2026-04-06T09:21:46Z</time></trkpt><trkpt lat="45.99297697757626" lon="12.236735646224174"><ele>239.0</ele><time>2026-04-06T09:21:47Z</time></trkpt><trkpt lat="45.993116188303205" lon="12.236976134295617"><ele>239.0</ele><time>2026-04-06T09:21:48Z</time></trkpt><trkpt lat="45.99321738605222" lon="12.237148613698649"><ele>239.0</ele><time>2026-04-06T09:21:49Z</time></trkpt><trkpt lat="45.993314980210315" lon="12.237310566116316"><ele>239.0</ele><time>2026-04-06T09:21:50Z</time></trkpt><trkpt lat="45.993399262991744" lon="12.237498487494715"><ele>240.0</ele><time>2026-04-06T09:21:51Z</time></trkpt><trkpt lat="45.99349528873645" lon="12.237690303152867"><ele>241.0</ele><time>2026-04-06T09:21:52Z</time></trkpt><trkpt lat="45.993619264061124" lon="12.237905570221875"><ele>242.0</ele><time>2026-04-06T09:21:53Z</time></trkpt><trkpt lat="45.99375686092921" lon="12.23814088236905"><ele>239.0</ele><time>2026-04-06T09:21:54Z</time></trkpt><trkpt lat="45.99389763571235" lon="12.238398980397319"><ele>236.0</ele><time>2026-04-06T09:21:55Z</time></trkpt><trkpt lat="45.994041980100434" lon="12.238664340933248"><ele>240.0</ele><time>2026-04-06T09:21:56Z</time></trkpt><trkpt lat="45.99419347226395" lon="12.2389439317694"><ele>244.0</ele><time>2026-04-06T09:21:57Z</time></trkpt><trkpt lat="45.994346407368944" lon="12.239221547856488"><ele>244.0</ele><time>2026-04-06T09:21:58Z</time></trkpt><trkpt lat="45.9944878028493" lon="12.239479663247637"><ele>244.0</ele><time>2026-04-06T09:21:59Z</time></trkpt><trkpt lat="45.99461929190802" lon="12.23972181558457"><ele>244.0</ele><time>2026-04-06T09:22:00Z</time></trkpt><trkpt lat="45.9947399177783" lon="12.239952378561266"><ele>241.66666666666666</ele><time>2026-04-06T09:22:01Z</time></trkpt><trkpt lat="45.99485328203714" lon="12.240171630572005"><ele>239.33333333333331</ele><time>2026-04-06T09:22:02Z</time></trkpt><trkpt lat="45.994966782150925" lon="12.240376211839065"><ele>237.0</ele><time>2026-04-06T09:22:03Z</time></trkpt><trkpt lat="45.99506841447854" lon="12.240580507636961"><ele>243.66666666666669</ele><time>2026-04-06T09:22:04Z</time></trkpt><trkpt lat="45.99516345153" lon="12.240797586513658"><ele>250.33333333333334</ele><time>2026-04-06T09:22:05Z</time></trkpt><trkpt lat="45.99525911881114" lon="12.241050251683223"><ele>257.0</ele><time>2026-04-06T09:22:06Z</time></trkpt><trkpt lat="45.995342257740724" lon="12.241333572075295"><ele>252.66666666666669</ele><time>2026-04-06T09:22:07Z</time></trkpt><trkpt lat="45.995403145496574" lon="12.241628936126833"><ele>248.33333333333331</ele><time>2026-04-06T09:22:08Z</time></trkpt><trkpt lat="45.99545925388364" lon="12.241908855467084"><ele>244.0</ele><time>2026-04-06T09:22:09Z</time></trkpt><trkpt lat="45.99550545364302" lon="12.242176607374269"><ele>242.0</ele><time>2026-04-06T09:22:10Z</time></trkpt><trkpt lat="45.99552775592745" lon="12.242418037814156"><ele>240.0</ele><time>2026-04-06T09:22:11Z</time></trkpt><trkpt lat="45.99555506033111" lon="12.24264162942841"><ele>238.0</ele><time>2026-04-06T09:22:12Z</time></trkpt><trkpt lat="45.99559691897189" lon="12.242859366515146"><ele>238.0</ele><time>2026-04-06T09:22:13Z</time></trkpt><trkpt lat="45.99563028386859" lon="12.243071875959348"><ele>238.0</ele><time>2026-04-06T09:22:14Z</time></trkpt><trkpt lat="45.99568285371484" lon="12.243276669749969"><ele>238.0</ele><time>2026-04-06T09:22:15Z</time></trkpt><trkpt lat="45.995753643438306" lon="12.243469296492425"><ele>239.0</ele><time>2026-04-06T09:22:16Z</time></trkpt><trkpt lat="45.99583190715377" lon="12.24365890175016"><ele>240.0</ele><time>2026-04-06T09:22:17Z</time></trkpt><trkpt lat="45.99591884558956" lon="12.243856653978183"><ele>241.0</ele><time>2026-04-06T09:22:18Z</time></trkpt><trkpt lat="45.99602133294953" lon="12.244072523277305"><ele>241.0</ele><time>2026-04-06T09:22:19Z</time></trkpt><trkpt lat="45.99612703904579" lon="12.24427253550487"><ele>241.0</ele><time>2026-04-06T09:22:20Z</time></trkpt><trkpt lat="45.996227335105715" lon="12.2444667788339"><ele>241.0</ele><time>2026-04-06T09:22:21Z</time></trkpt><trkpt lat="45.996327585722426" lon="12.24465745746968"><ele>238.33333333333331</ele><time>2026-04-06T09:22:22Z</time></trkpt><trkpt lat="45.99642214779126" lon="12.244836050138163"><ele>235.66666666666669</ele><time>2026-04-06T09:22:23Z</time></trkpt><trkpt lat="45.99652126503655" lon="12.24501993424966"><ele>233.0</ele><time>2026-04-06T09:22:24Z</time></trkpt><trkpt lat="45.996624841704126" lon="12.245191909064483"><ele>236.66666666666669</ele><time>2026-04-06T09:22:25Z</time></trkpt><trkpt lat="45.99672614543789" lon="12.245365965881108"><ele>240.33333333333331</ele><time>2026-04-06T09:22:26Z</time></trkpt><trkpt lat="45.99682239757385" lon="12.245548261784895"><ele>244.0</ele><time>2026-04-06T09:22:27Z</time></trkpt><trkpt lat="45.996921524607764" lon="12.245730077383195"><ele>244.0</ele><time>2026-04-06T09:22:28Z</time></trkpt><trkpt lat="45.99702195257859" lon="12.245914404110893"><ele>244.0</ele><time>2026-04-06T09:22:29Z</time></trkpt><trkpt lat="45.997112913435316" lon="12.246089008490436"><ele>244.0</ele><time>2026-04-06T09:22:30Z</time></trkpt><trkpt lat="45.99720178139996" lon="12.246255966544853"><ele>244.0</ele><time>2026-04-06T09:22:31Z</time></trkpt><trkpt lat="45.99728559732914" lon="12.24641676249679"><ele>244.0</ele><time>2026-04-06T09:22:32Z</time></trkpt><trkpt lat="45.99736522154349" lon="12.246575504673503"><ele>244.0</ele><time>2026-04-06T09:22:33Z</time></trkpt><trkpt lat="45.99743877642302" lon="12.246730036741445"><ele>244.0</ele><time>2026-04-06T09:22:34Z</time></trkpt><trkpt lat="45.99750958076076" lon="12.246891741868392"><ele>245.5</ele><time>2026-04-06T09:22:35Z</time></trkpt><trkpt lat="45.99757894797533" lon="12.247063750553183"><ele>247.0</ele><time>2026-04-06T09:22:36Z</time></trkpt><trkpt lat="45.9976402966454" lon="12.247250765725385"><ele>248.5</ele><time>2026-04-06T09:22:37Z</time></trkpt><trkpt lat="45.99768107490423" lon="12.247443037453007"><ele>250.0</ele><time>2026-04-06T09:22:38Z</time></trkpt><trkpt lat="45.99771198094905" lon="12.24764167307589"><ele>250.0</ele><time>2026-04-06T09:22:39Z</time></trkpt><trkpt lat="45.99774123886668" lon="12.247856453298919"><ele>250.0</ele><time>2026-04-06T09:22:40Z</time></trkpt><trkpt lat="45.99775177557316" lon="12.248074559444582"><ele>250.0</ele><time>2026-04-06T09:22:41Z</time></trkpt><trkpt lat="45.99775180112988" lon="12.248297748265893"><ele>247.33333333333331</ele><time>2026-04-06T09:22:42Z</time></trkpt><trkpt lat="45.997742788532875" lon="12.24852166847983"><ele>244.66666666666669</ele><time>2026-04-06T09:22:43Z</time></trkpt><trkpt lat="45.99772755947146" lon="12.24874198667485"><ele>242.0</ele><time>2026-04-06T09:22:44Z</time></trkpt><trkpt lat="45.99771389892926" lon="12.248964000252332"><ele>242.0</ele><time>2026-04-06T09:22:45Z</time></trkpt><trkpt lat="45.99770155739738" lon="12.249191320575367"><ele>242.0</ele><time>2026-04-06T09:22:46Z</time></trkpt><trkpt lat="45.997686641716676" lon="12.249414643229256"><ele>242.0</ele><time>2026-04-06T09:22:47Z</time></trkpt><trkpt lat="45.997673678394506" lon="12.2496387877857"><ele>243.0</ele><time>2026-04-06T09:22:48Z</time></trkpt><trkpt lat="45.997668412152706" lon="12.249876116320442"><ele>244.0</ele><time>2026-04-06T09:22:49Z</time></trkpt><trkpt lat="45.99765708040037" lon="12.250093880686169"><ele>245.0</ele><time>2026-04-06T09:22:50Z</time></trkpt><trkpt lat="45.997644692025524" lon="12.250303015761594"><ele>245.0</ele><time>2026-04-06T09:22:51Z</time></trkpt><trkpt lat="45.99763652417237" lon="12.250504020270277"><ele>245.0</ele><time>2026-04-06T09:22:52Z</time></trkpt><trkpt lat="45.99762771914107" lon="12.250681335532198"><ele>245.0</ele><time>2026-04-06T09:22:53Z</time></trkpt><trkpt lat="45.997618483811245" lon="12.250844288665812"><ele>245.0</ele><time>2026-04-06T09:22:54Z</time></trkpt><trkpt lat="45.99761194981919" lon="12.25099822373664"><ele>245.25</ele><time>2026-04-06T09:22:55Z</time></trkpt><trkpt lat="45.997607718380486" lon="12.251151172265663"><ele>245.5</ele><time>2026-04-06T09:22:56Z</time></trkpt><trkpt lat="45.997601964219086" lon="12.2513247406908"><ele>245.75</ele><time>2026-04-06T09:22:57Z</time></trkpt><trkpt lat="45.997599718581085" lon="12.251505945290022"><ele>246.0</ele><time>2026-04-06T09:22:58Z</time></trkpt><trkpt lat="45.99761155017712" lon="12.251682756913597"><ele>246.25</ele><time>2026-04-06T09:22:59Z</time></trkpt><trkpt lat="45.997631289237475" lon="12.251859526506784"><ele>246.5</ele><time>2026-04-06T09:23:00Z</time></trkpt><trkpt lat="45.9976730668636" lon="12.252050881961548"><ele>246.75</ele><time>2026-04-06T09:23:01Z</time></trkpt><trkpt lat="45.997719655681" lon="12.252263987075022"><ele>247.0</ele><time>2026-04-06T09:23:02Z</time></trkpt><trkpt lat="45.99778075352245" lon="12.252463677216507"><ele>246.33333333333331</ele><time>2026-04-06T09:23:03Z</time></trkpt><trkpt lat="45.99787218306888" lon="12.252651362399149"><ele>245.66666666666669</ele><time>2026-04-06T09:23:04Z</time></trkpt><trkpt lat="45.99796747669676" lon="12.252831716379351"><ele>245.0</ele><time>2026-04-06T09:23:05Z</time></trkpt><trkpt lat="45.998055959744285" lon="12.253001462612087"><ele>245.0</ele><time>2026-04-06T09:23:06Z</time></trkpt><trkpt lat="45.9981512084833" lon="12.253183366018298"><ele>245.0</ele><time>2026-04-06T09:23:07Z</time></trkpt><trkpt lat="45.99825984608504" lon="12.253374482991104"><ele>245.0</ele><time>2026-04-06T09:23:08Z</time></trkpt><trkpt lat="45.99837788662173" lon="12.253574302394076"><ele>246.33333333333334</ele><time>2026-04-06T09:23:09Z</time></trkpt><trkpt lat="45.998496489141225" lon="12.253817367680078"><ele>247.66666666666669</ele><time>2026-04-06T09:23:10Z</time></trkpt><trkpt lat="45.99865054863322" lon="12.254058354494367"><ele>249.0</ele><time>2026-04-06T09:23:11Z</time></trkpt><trkpt lat="45.99878472361077" lon="12.254316940611721"><ele>249.0</ele><time>2026-04-06T09:23:12Z</time></trkpt><trkpt lat="45.998913414265296" lon="12.254555746350967"><ele>249.0</ele><time>2026-04-06T09:23:13Z</time></trkpt><trkpt lat="45.99898256517866" lon="12.254682832756815"><ele>249.0</ele><time>2026-04-06T09:23:14Z</time></trkpt><trkpt lat="45.99907019240122" lon="12.254833586140471"><ele>248.79999999999998</ele><time>2026-04-06T09:23:15Z</time></trkpt><trkpt lat="45.999150059158254" lon="12.254976146882916"><ele>248.59999999999997</ele><time>2026-04-06T09:23:16Z</time></trkpt><trkpt lat="45.99922396751136" lon="12.255105327108952"><ele>248.4</ele><time>2026-04-06T09:23:17Z</time></trkpt><trkpt lat="45.999283316349995" lon="12.255211113728592"><ele>248.2</ele><time>2026-04-06T09:23:18Z</time></trkpt><trkpt lat="45.99934154405188" lon="12.255312233354877"><ele>248.0</ele><time>2026-04-06T09:23:19Z</time></trkpt><trkpt lat="45.99939560334064" lon="12.255410518834875"><ele>249.0</ele><time>2026-04-06T09:23:20Z</time></trkpt><trkpt lat="45.99944454106722" lon="12.255553304441122"><ele>250.0</ele><time>2026-04-06T09:23:21Z</time></trkpt><trkpt lat="45.999504618904005" lon="12.255725506042793"><ele>251.0</ele><time>2026-04-06T09:23:22Z</time></trkpt><trkpt lat="45.99957267360618" lon="12.255908611975261"><ele>252.0</ele><time>2026-04-06T09:23:23Z</time></trkpt><trkpt lat="45.99964783365953" lon="12.256077343407572"><ele>252.0</ele><time>2026-04-06T09:23:24Z</time></trkpt><trkpt lat="45.99970317539309" lon="12.256247403883135"><ele>252.0</ele><time>2026-04-06T09:23:25Z</time></trkpt><trkpt lat="45.99975637617192" lon="12.256408438650384"><ele>252.0</ele><time>2026-04-06T09:23:26Z</time></trkpt><trkpt lat="45.999828329739046" lon="12.256564940620551"><ele>252.0</ele><time>2026-04-06T09:23:27Z</time></trkpt><trkpt lat="45.99991058263177" lon="12.256709382144633"><ele>251.0</ele><time>2026-04-06T09:23:28Z</time></trkpt><trkpt lat="46.000009338638925" lon="12.256834335990087"><ele>250.0</ele><time>2026-04-06T09:23:29Z</time></trkpt><trkpt lat="46.000101358821944" lon="12.256940242136135"><ele>249.0</ele><time>2026-04-06T09:23:30Z</time></trkpt><trkpt lat="46.00018555709337" lon="12.25705378418081"><ele>248.0</ele><time>2026-04-06T09:23:31Z</time></trkpt><trkpt lat="46.000275233626496" lon="12.25717864723579"><ele>247.33333333333334</ele><time>2026-04-06T09:23:32Z</time></trkpt><trkpt lat="46.00036615943982" lon="12.257305058285807"><ele>246.66666666666669</ele><time>2026-04-06T09:23:33Z</time></trkpt><trkpt lat="46.000464676423704" lon="12.257469967691733"><ele>246.0</ele><time>2026-04-06T09:23:34Z</time></trkpt><trkpt lat="46.000569201594715" lon="12.257681114664981"><ele>246.0</ele><time>2026-04-06T09:23:35Z</time></trkpt><trkpt lat="46.00069705658527" lon="12.25794243122785"><ele>246.0</ele><time>2026-04-06T09:23:36Z</time></trkpt><trkpt lat="46.0008107113628" lon="12.258224838918263"><ele>246.0</ele><time>2026-04-06T09:23:37Z</time></trkpt><trkpt lat="46.000910641932556" lon="12.258468664974835"><ele>245.0</ele><time>2026-04-06T09:23:38Z</time></trkpt><trkpt lat="46.00100279933124" lon="12.258702290559874"><ele>244.0</ele><time>2026-04-06T09:23:39Z</time></trkpt><trkpt lat="46.00106205446063" lon="12.258946233315003"><ele>243.0</ele><time>2026-04-06T09:23:40Z</time></trkpt><trkpt lat="46.00109331032044" lon="12.259208095590765"><ele>240.66666666666669</ele><time>2026-04-06T09:23:41Z</time></trkpt><trkpt lat="46.00109125664063" lon="12.259489547926243"><ele>238.33333333333334</ele><time>2026-04-06T09:23:42Z</time></trkpt><trkpt lat="46.00107780017969" lon="12.259794005135955"><ele>236.0</ele><time>2026-04-06T09:23:43Z</time></trkpt><trkpt lat="46.00103118222562" lon="12.26011012884267"><ele>236.0</ele><time>2026-04-06T09:23:44Z</time></trkpt><trkpt lat="46.000994417000484" lon="12.260407675033294"><ele>236.0</ele><time>2026-04-06T09:23:45Z</time></trkpt><trkpt lat="46.00094129822787" lon="12.260675038996887"><ele>236.0</ele><time>2026-04-06T09:23:46Z</time></trkpt><trkpt lat="46.00090157038079" lon="12.260918639247317"><ele>237.33333333333334</ele><time>2026-04-06T09:23:47Z</time></trkpt><trkpt lat="46.00086131148061" lon="12.261153339668274"><ele>238.66666666666669</ele><time>2026-04-06T09:23:48Z</time></trkpt><trkpt lat="46.00084227609859" lon="12.261418311350083"><ele>240.0</ele><time>2026-04-06T09:23:49Z</time></trkpt><trkpt lat="46.000859529130295" lon="12.261703925514496"><ele>240.66666666666669</ele><time>2026-04-06T09:23:50Z</time></trkpt><trkpt lat="46.0008865363261" lon="12.261991262776526"><ele>241.33333333333334</ele><time>2026-04-06T09:23:51Z</time></trkpt><trkpt lat="46.00094202186262" lon="12.262278559370332"><ele>242.0</ele><time>2026-04-06T09:23:52Z</time></trkpt><trkpt lat="46.00102632762626" lon="12.262562010721043"><ele>242.5</ele><time>2026-04-06T09:23:53Z</time></trkpt><trkpt lat="46.00112404255436" lon="12.26283924072486"><ele>243.0</ele><time>2026-04-06T09:23:54Z</time></trkpt><trkpt lat="46.00128323323226" lon="12.26311800156208"><ele>240.0</ele><time>2026-04-06T09:23:55Z</time></trkpt><trkpt lat="46.001425512932585" lon="12.263378840503732"><ele>237.0</ele><time>2026-04-06T09:23:56Z</time></trkpt><trkpt lat="46.001564683931306" lon="12.263641217579329"><ele>237.0</ele><time>2026-04-06T09:23:57Z</time></trkpt><trkpt lat="46.00171285149064" lon="12.26392431286392"><ele>237.0</ele><time>2026-04-06T09:23:58Z</time></trkpt><trkpt lat="46.0018700491173" lon="12.264228729033883"><ele>232.5</ele><time>2026-04-06T09:23:59Z</time></trkpt><trkpt lat="46.002020554791635" lon="12.264525396887446"><ele>228.0</ele><time>2026-04-06T09:24:00Z</time></trkpt><trkpt lat="46.0021565837011" lon="12.264794628342095"><ele>225.66666666666669</ele><time>2026-04-06T09:24:01Z</time></trkpt><trkpt lat="46.00227807166457" lon="12.265039383680234"><ele>223.33333333333334</ele><time>2026-04-06T09:24:02Z</time></trkpt><trkpt lat="46.002392073294374" lon="12.265263893281617"><ele>221.0</ele><time>2026-04-06T09:24:03Z</time></trkpt><trkpt lat="46.002491208140945" lon="12.265462412585878"><ele>220.66666666666669</ele><time>2026-04-06T09:24:04Z</time></trkpt><trkpt lat="46.00258977536749" lon="12.265637640940188"><ele>220.33333333333331</ele><time>2026-04-06T09:24:05Z</time></trkpt><trkpt lat="46.00270581728773" lon="12.265779084222565"><ele>220.0</ele><time>2026-04-06T09:24:06Z</time></trkpt><trkpt lat="46.00284410528989" lon="12.265890251947438"><ele>220.0</ele><time>2026-04-06T09:24:07Z</time></trkpt><trkpt lat="46.00299643842254" lon="12.265975012215408"><ele>220.0</ele><time>2026-04-06T09:24:08Z</time></trkpt><trkpt lat="46.00315611282721" lon="12.266009605885467"><ele>220.0</ele><time>2026-04-06T09:24:09Z</time></trkpt><trkpt lat="46.003345260731386" lon="12.266013915179045"><ele>219.0</ele><time>2026-04-06T09:24:10Z</time></trkpt><trkpt lat="46.003546283841935" lon="12.265989089165553"><ele>218.0</ele><time>2026-04-06T09:24:11Z</time></trkpt><trkpt lat="46.00373163618846" lon="12.26595325374839"><ele>217.0</ele><time>2026-04-06T09:24:12Z</time></trkpt><trkpt lat="46.003900431651545" lon="12.265950289825522"><ele>217.0</ele><time>2026-04-06T09:24:13Z</time></trkpt><trkpt lat="46.00405669293627" lon="12.265982096511038"><ele>217.0</ele><time>2026-04-06T09:24:14Z</time></trkpt><trkpt lat="46.004201019538115" lon="12.266036484064927"><ele>217.0</ele><time>2026-04-06T09:24:15Z</time></trkpt><trkpt lat="46.004345839671366" lon="12.266163920467271"><ele>216.33333333333331</ele><time>2026-04-06T09:24:16Z</time></trkpt><trkpt lat="46.004468321831084" lon="12.266326753019769"><ele>215.66666666666669</ele><time>2026-04-06T09:24:17Z</time></trkpt><trkpt lat="46.00457314882642" lon="12.266538860722306"><ele>215.0</ele><time>2026-04-06T09:24:18Z</time></trkpt><trkpt lat="46.00467741044707" lon="12.266801442239961"><ele>211.0</ele><time>2026-04-06T09:24:19Z</time></trkpt><trkpt lat="46.004786337552915" lon="12.26710975646889"><ele>207.0</ele><time>2026-04-06T09:24:20Z</time></trkpt><trkpt lat="46.004904841407544" lon="12.267420562396694"><ele>207.66666666666669</ele><time>2026-04-06T09:24:21Z</time></trkpt><trkpt lat="46.00501906227235" lon="12.267700374127132"><ele>208.33333333333334</ele><time>2026-04-06T09:24:22Z</time></trkpt><trkpt lat="46.005126416233345" lon="12.2679645929339"><ele>209.0</ele><time>2026-04-06T09:24:23Z</time></trkpt><trkpt lat="46.00522320418472" lon="12.268214307559868"><ele>205.66666666666669</ele><time>2026-04-06T09:24:24Z</time></trkpt><trkpt lat="46.00530553123286" lon="12.268441276105973"><ele>202.33333333333331</ele><time>2026-04-06T09:24:25Z</time></trkpt><trkpt lat="46.005379398039416" lon="12.268639794946239"><ele>199.0</ele><time>2026-04-06T09:24:26Z</time></trkpt><trkpt lat="46.00545961097146" lon="12.268839655517203"><ele>197.33333333333331</ele><time>2026-04-06T09:24:27Z</time></trkpt><trkpt lat="46.005530264023655" lon="12.269045788651988"><ele>195.66666666666669</ele><time>2026-04-06T09:24:28Z</time></trkpt><trkpt lat="46.0056036179411" lon="12.269271008564049"><ele>194.0</ele><time>2026-04-06T09:24:29Z</time></trkpt><trkpt lat="46.00567361224034" lon="12.269531404225715"><ele>192.0</ele><time>2026-04-06T09:24:30Z</time></trkpt><trkpt lat="46.00573395101981" lon="12.269834757205883"><ele>190.0</ele><time>2026-04-06T09:24:31Z</time></trkpt><trkpt lat="46.005774615186425" lon="12.270181546840645"><ele>190.0</ele><time>2026-04-06T09:24:32Z</time></trkpt><trkpt lat="46.005822938459985" lon="12.270506641818455"><ele>190.0</ele><time>2026-04-06T09:24:33Z</time></trkpt><trkpt lat="46.005877062875285" lon="12.270814405642124"><ele>190.66666666666669</ele><time>2026-04-06T09:24:34Z</time></trkpt><trkpt lat="46.005918731226075" lon="12.271114625755462"><ele>191.33333333333334</ele><time>2026-04-06T09:24:35Z</time></trkpt><trkpt lat="46.00596136000048" lon="12.271396460118389"><ele>192.0</ele><time>2026-04-06T09:24:36Z</time></trkpt><trkpt lat="46.00601200138233" lon="12.271665316587294"><ele>192.0</ele><time>2026-04-06T09:24:37Z</time></trkpt><trkpt lat="46.00605403059196" lon="12.271922385678785"><ele>192.0</ele><time>2026-04-06T09:24:38Z</time></trkpt><trkpt lat="46.00609057733626" lon="12.272175401114277"><ele>192.0</ele><time>2026-04-06T09:24:39Z</time></trkpt><trkpt lat="46.00612756178725" lon="12.27241817196145"><ele>191.66666666666666</ele><time>2026-04-06T09:24:40Z</time></trkpt><trkpt lat="46.006163880782736" lon="12.272668020949666"><ele>191.33333333333331</ele><time>2026-04-06T09:24:41Z</time></trkpt><trkpt lat="46.006209120801714" lon="12.272931494279037"><ele>191.0</ele><time>2026-04-06T09:24:42Z</time></trkpt><trkpt lat="46.0062536791023" lon="12.273198066360866"><ele>190.33333333333331</ele><time>2026-04-06T09:24:43Z</time></trkpt><trkpt lat="46.00629464108428" lon="12.273448881337329"><ele>189.66666666666666</ele><time>2026-04-06T09:24:44Z</time></trkpt><trkpt lat="46.0063347577343" lon="12.27369350724411"><ele>189.0</ele><time>2026-04-06T09:24:45Z</time></trkpt><trkpt lat="46.00636999138094" lon="12.273931001295553"><ele>187.0</ele><time>2026-04-06T09:24:46Z</time></trkpt><trkpt lat="46.00640271234796" lon="12.274153041732616"><ele>185.0</ele><time>2026-04-06T09:24:47Z</time></trkpt><trkpt lat="46.00643115246846" lon="12.274322305743281"><ele>183.0</ele><time>2026-04-06T09:24:48Z</time></trkpt><trkpt lat="46.006459285398066" lon="12.274487515584706"><ele>181.0</ele><time>2026-04-06T09:24:49Z</time></trkpt><trkpt lat="46.0064856858821" lon="12.274660313638416"><ele>180.0</ele><time>2026-04-06T09:24:50Z</time></trkpt><trkpt lat="46.00651322056998" lon="12.274835795949897"><ele>179.0</ele><time>2026-04-06T09:24:51Z</time></trkpt><trkpt lat="46.006546032997846" lon="12.275024797682253"><ele>178.0</ele><time>2026-04-06T09:24:52Z</time></trkpt><trkpt lat="46.00657503021695" lon="12.275213122931095"><ele>177.0</ele><time>2026-04-06T09:24:53Z</time></trkpt><trkpt lat="46.00660043286734" lon="12.275390792026576"><ele>177.0</ele><time>2026-04-06T09:24:54Z</time></trkpt><trkpt lat="46.00662363373368" lon="12.275565643709912"><ele>177.0</ele><time>2026-04-06T09:24:55Z</time></trkpt><trkpt lat="46.00665114029884" lon="12.275733393285412"><ele>177.0</ele><time>2026-04-06T09:24:56Z</time></trkpt><trkpt lat="46.006682684207114" lon="12.27589110324651"><ele>177.0</ele><time>2026-04-06T09:24:57Z</time></trkpt><trkpt lat="46.00670789770558" lon="12.27605307094899"><ele>177.2</ele><time>2026-04-06T09:24:58Z</time></trkpt><trkpt lat="46.00673014200723" lon="12.276224753475606"><ele>177.39999999999998</ele><time>2026-04-06T09:24:59Z</time></trkpt><trkpt lat="46.00675464971998" lon="12.276362148495494"><ele>177.60000000000002</ele><time>2026-04-06T09:25:00Z</time></trkpt><trkpt lat="46.00678034504583" lon="12.276502966408524"><ele>177.8</ele><time>2026-04-06T09:25:01Z</time></trkpt><trkpt lat="46.006800146733376" lon="12.276659780392105"><ele>178.0</ele><time>2026-04-06T09:25:02Z</time></trkpt><trkpt lat="46.006813948839394" lon="12.276824639607012"><ele>176.8</ele><time>2026-04-06T09:25:03Z</time></trkpt><trkpt lat="46.006821315705444" lon="12.276989563290131"><ele>175.60000000000002</ele><time>2026-04-06T09:25:04Z</time></trkpt><trkpt lat="46.00683645950905" lon="12.277145964935103"><ele>174.39999999999998</ele><time>2026-04-06T09:25:05Z</time></trkpt><trkpt lat="46.00684574917959" lon="12.277292408973706"><ele>173.2</ele><time>2026-04-06T09:25:06Z</time></trkpt><trkpt lat="46.00684747653942" lon="12.277427532508934"><ele>172.0</ele><time>2026-04-06T09:25:07Z</time></trkpt><trkpt lat="46.00684980687744" lon="12.277547239920622"><ele>171.2</ele><time>2026-04-06T09:25:08Z</time></trkpt><trkpt lat="46.00685056996349" lon="12.277651270741462"><ele>170.39999999999998</ele><time>2026-04-06T09:25:09Z</time></trkpt><trkpt lat="46.00685329333627" lon="12.277762516047405"><ele>169.60000000000002</ele><time>2026-04-06T09:25:10Z</time></trkpt><trkpt lat="46.00686045480104" lon="12.277885880082053"><ele>168.8</ele><time>2026-04-06T09:25:11Z</time></trkpt><trkpt lat="46.00687338258377" lon="12.278044774927245"><ele>168.0</ele><time>2026-04-06T09:25:12Z</time></trkpt><trkpt lat="46.00686688417993" lon="12.278253424381369"><ele>167.66666666666666</ele><time>2026-04-06T09:25:13Z</time></trkpt><trkpt lat="46.00688462836213" lon="12.27850838101128"><ele>167.33333333333331</ele><time>2026-04-06T09:25:14Z</time></trkpt><trkpt lat="46.006875063400784" lon="12.278755775938574"><ele>167.0</ele><time>2026-04-06T09:25:15Z</time></trkpt><trkpt lat="46.006877550220175" lon="12.279037485077309"><ele>167.0</ele><time>2026-04-06T09:25:16Z</time></trkpt><trkpt lat="46.0068896818253" lon="12.279311267754476"><ele>167.0</ele><time>2026-04-06T09:25:17Z</time></trkpt><trkpt lat="46.00690658338789" lon="12.279575747609877"><ele>167.0</ele><time>2026-04-06T09:25:18Z</time></trkpt><trkpt lat="46.00691607805453" lon="12.279830742501154"><ele>167.33333333333331</ele><time>2026-04-06T09:25:19Z</time></trkpt><trkpt lat="46.00691852700222" lon="12.280064506692563"><ele>167.66666666666666</ele><time>2026-04-06T09:25:20Z</time></trkpt><trkpt lat="46.0069235497714" lon="12.280290130214038"><ele>168.0</ele><time>2026-04-06T09:25:21Z</time></trkpt><trkpt lat="46.006929933714446" lon="12.28052166765735"><ele>167.5</ele><time>2026-04-06T09:25:22Z</time></trkpt><trkpt lat="46.00693452453132" lon="12.280744228919088"><ele>167.0</ele><time>2026-04-06T09:25:23Z</time></trkpt><trkpt lat="46.006943469598106" lon="12.28094327413028"><ele>166.5</ele><time>2026-04-06T09:25:24Z</time></trkpt><trkpt lat="46.006947849212196" lon="12.281130962177013"><ele>166.0</ele><time>2026-04-06T09:25:25Z</time></trkpt><trkpt lat="46.00695394272457" lon="12.281320939145223"><ele>166.0</ele><time>2026-04-06T09:25:26Z</time></trkpt><trkpt lat="46.00695717963149" lon="12.281515589194777"><ele>166.0</ele><time>2026-04-06T09:25:27Z</time></trkpt><trkpt lat="46.00696201102795" lon="12.281700756817207"><ele>166.0</ele><time>2026-04-06T09:25:28Z</time></trkpt><trkpt lat="46.00696564118986" lon="12.28188192875135"><ele>166.0</ele><time>2026-04-06T09:25:29Z</time></trkpt><trkpt lat="46.006968367828165" lon="12.282069881601393"><ele>166.0</ele><time>2026-04-06T09:25:30Z</time></trkpt><trkpt lat="46.00697062371619" lon="12.282245983526652"><ele>166.0</ele><time>2026-04-06T09:25:31Z</time></trkpt><trkpt lat="46.0069760155972" lon="12.282413524233291"><ele>166.0</ele><time>2026-04-06T09:25:32Z</time></trkpt><trkpt lat="46.00698310408171" lon="12.282581499013261"><ele>166.0</ele><time>2026-04-06T09:25:33Z</time></trkpt><trkpt lat="46.00699063321521" lon="12.28274984165176"><ele>165.5</ele><time>2026-04-06T09:25:34Z</time></trkpt><trkpt lat="46.006997171485864" lon="12.282921462775214"><ele>165.0</ele><time>2026-04-06T09:25:35Z</time></trkpt><trkpt lat="46.00700442824731" lon="12.28309719686794"><ele>164.5</ele><time>2026-04-06T09:25:36Z</time></trkpt><trkpt lat="46.00699678152132" lon="12.28329069607279"><ele>164.0</ele><time>2026-04-06T09:25:37Z</time></trkpt><trkpt lat="46.006976616935816" lon="12.28348116979853"><ele>163.5</ele><time>2026-04-06T09:25:38Z</time></trkpt><trkpt lat="46.006944304672984" lon="12.283652928314895"><ele>163.0</ele><time>2026-04-06T09:25:39Z</time></trkpt><trkpt lat="46.00690036956668" lon="12.28381161432739"><ele>162.5</ele><time>2026-04-06T09:25:40Z</time></trkpt><trkpt lat="46.006858948575726" lon="12.283976519368796"><ele>162.0</ele><time>2026-04-06T09:25:41Z</time></trkpt><trkpt lat="46.00681249276229" lon="12.284129786250208"><ele>161.8</ele><time>2026-04-06T09:25:42Z</time></trkpt><trkpt lat="46.00677813701144" lon="12.284274520078249"><ele>161.6</ele><time>2026-04-06T09:25:43Z</time></trkpt><trkpt lat="46.006743189264576" lon="12.284378037381215"><ele>161.4</ele><time>2026-04-06T09:25:44Z</time></trkpt><trkpt lat="46.00670668709451" lon="12.28451964065616"><ele>161.20000000000002</ele><time>2026-04-06T09:25:45Z</time></trkpt><trkpt lat="46.00666686418452" lon="12.284632476977405"><ele>161.0</ele><time>2026-04-06T09:25:46Z</time></trkpt><trkpt lat="46.00663697562506" lon="12.28474515301032"><ele>162.83333333333331</ele><time>2026-04-06T09:25:47Z</time></trkpt><trkpt lat="46.00661342802411" lon="12.28484711691484"><ele>164.66666666666666</ele><time>2026-04-06T09:25:48Z</time></trkpt><trkpt lat="46.00658514298405" lon="12.284957326928295"><ele>166.5</ele><time>2026-04-06T09:25:49Z</time></trkpt><trkpt lat="46.0065464639624" lon="12.285080898284733"><ele>168.33333333333334</ele><time>2026-04-06T09:25:50Z</time></trkpt><trkpt lat="46.00651559692488" lon="12.285171859078828"><ele>170.16666666666669</ele><time>2026-04-06T09:25:51Z</time></trkpt><trkpt lat="46.006493953307306" lon="12.285290949053216"><ele>172.0</ele><time>2026-04-06T09:25:59Z</time></trkpt><trkpt lat="46.00648230483025" lon="12.28540227494092"><ele>172.0</ele><time>2026-04-06T09:26:10Z</time></trkpt><trkpt lat="46.00646151125822" lon="12.28551560447236"><ele>172.0</ele><time>2026-04-06T09:26:13Z</time></trkpt><trkpt lat="46.006449376584996" lon="12.285610919441227"><ele>172.0</ele><time>2026-04-06T09:26:47Z</time></trkpt><trkpt lat="46.00643890441175" lon="12.285746572851444"><ele>172.0</ele><time>2026-04-06T09:26:55Z</time></trkpt><trkpt lat="46.00655700981253" lon="12.2858515187073"><ele>172.0</ele><time>2026-04-06T09:26:57Z</time></trkpt><trkpt lat="46.00664743050999" lon="12.285867684547178"><ele>167.75</ele><time>2026-04-06T09:26:58Z</time></trkpt><trkpt lat="46.00676669363125" lon="12.28585974021094"><ele>163.5</ele><time>2026-04-06T09:26:59Z</time></trkpt><trkpt lat="46.00688558278807" lon="12.285869683972935"><ele>159.25</ele><time>2026-04-06T09:27:00Z</time></trkpt><trkpt lat="46.00702400340255" lon="12.285897271330514"><ele>155.0</ele><time>2026-04-06T09:27:01Z</time></trkpt><trkpt lat="46.007177431004884" lon="12.285922189981722"><ele>155.0</ele><time>2026-04-06T09:27:02Z</time></trkpt><trkpt lat="46.00732046298006" lon="12.28593994826697"><ele>155.0</ele><time>2026-04-06T09:27:03Z</time></trkpt><trkpt lat="46.00746885243035" lon="12.285964376526579"><ele>155.0</ele><time>2026-04-06T09:27:04Z</time></trkpt><trkpt lat="46.00761476135736" lon="12.285992986423"><ele>155.0</ele><time>2026-04-06T09:27:05Z</time></trkpt><trkpt lat="46.00775788028577" lon="12.286018986877322"><ele>155.5</ele><time>2026-04-06T09:27:06Z</time></trkpt><trkpt lat="46.007885988075095" lon="12.286041560315041"><ele>156.0</ele><time>2026-04-06T09:27:07Z</time></trkpt><trkpt lat="46.00802013370792" lon="12.286065453536972"><ele>156.5</ele><time>2026-04-06T09:27:08Z</time></trkpt><trkpt lat="46.00815006267094" lon="12.28608397499429"><ele>157.0</ele><time>2026-04-06T09:27:09Z</time></trkpt><trkpt lat="46.00828829794054" lon="12.286112890821949"><ele>157.5</ele><time>2026-04-06T09:27:10Z</time></trkpt><trkpt lat="46.008425259935606" lon="12.286141846671965"><ele>158.0</ele><time>2026-04-06T09:27:11Z</time></trkpt><trkpt lat="46.00856048181095" lon="12.286151181069545"><ele>158.5</ele><time>2026-04-06T09:27:12Z</time></trkpt><trkpt lat="46.00867060662796" lon="12.286168920949292"><ele>159.0</ele><time>2026-04-06T09:27:13Z</time></trkpt><trkpt lat="46.00878075261815" lon="12.286199185002987"><ele>159.0</ele><time>2026-04-06T09:27:14Z</time></trkpt><trkpt lat="46.00889616211567" lon="12.286214902800745"><ele>159.0</ele><time>2026-04-06T09:27:15Z</time></trkpt><trkpt lat="46.009017248953704" lon="12.28624807557958"><ele>159.0</ele><time>2026-04-06T09:27:16Z</time></trkpt><trkpt lat="46.009127269700784" lon="12.286340136226464"><ele>159.0</ele><time>2026-04-06T09:27:17Z</time></trkpt><trkpt lat="46.00920356632187" lon="12.286428307336983"><ele>159.16666666666666</ele><time>2026-04-06T09:27:18Z</time></trkpt><trkpt lat="46.00925562926097" lon="12.286525233732304"><ele>159.33333333333334</ele><time>2026-04-06T09:27:19Z</time></trkpt><trkpt lat="46.009291663851045" lon="12.286625487523418"><ele>159.5</ele><time>2026-04-06T09:27:20Z</time></trkpt><trkpt lat="46.00929844926833" lon="12.28674288365062"><ele>159.66666666666669</ele><time>2026-04-06T09:27:21Z</time></trkpt><trkpt lat="46.00926277016147" lon="12.28686532098849"><ele>159.83333333333334</ele><time>2026-04-06T09:27:22Z</time></trkpt><trkpt lat="46.009201564940696" lon="12.286970350017617"><ele>160.0</ele><time>2026-04-06T09:27:23Z</time></trkpt><trkpt lat="46.009150804630885" lon="12.287075081605387"><ele>159.5</ele><time>2026-04-06T09:27:24Z</time></trkpt><trkpt lat="46.0091473063151" lon="12.287187969117491"><ele>159.0</ele><time>2026-04-06T09:27:25Z</time></trkpt><trkpt lat="46.00918871108189" lon="12.287292115759135"><ele>158.5</ele><time>2026-04-06T09:27:26Z</time></trkpt><trkpt lat="46.00925683224887" lon="12.2873573952942"><ele>158.0</ele><time>2026-04-06T09:27:27Z</time></trkpt><trkpt lat="46.00933701175368" lon="12.287370674023252"><ele>157.5</ele><time>2026-04-06T09:27:28Z</time></trkpt><trkpt lat="46.00942390647478" lon="12.287338242912396"><ele>157.0</ele><time>2026-04-06T09:27:29Z</time></trkpt><trkpt lat="46.00952596165967" lon="12.28728313273569"><ele>156.66666666666669</ele><time>2026-04-06T09:27:30Z</time></trkpt><trkpt lat="46.00966012693975" lon="12.287288971540569"><ele>156.33333333333334</ele><time>2026-04-06T09:27:31Z</time></trkpt><trkpt lat="46.00982592947709" lon="12.28735688749488"><ele>156.0</ele><time>2026-04-06T09:27:32Z</time></trkpt><trkpt lat="46.00997136184526" lon="12.287450584392651"><ele>157.66666666666666</ele><time>2026-04-06T09:27:33Z</time></trkpt><trkpt lat="46.01011068019265" lon="12.287603080455066"><ele>159.33333333333331</ele><time>2026-04-06T09:27:34Z</time></trkpt><trkpt lat="46.0102431663621" lon="12.287815904408948"><ele>161.0</ele><time>2026-04-06T09:27:35Z</time></trkpt><trkpt lat="46.01036989718544" lon="12.287990752216"><ele>160.66666666666666</ele><time>2026-04-06T09:27:36Z</time></trkpt><trkpt lat="46.01049638657321" lon="12.288149902056743"><ele>160.33333333333334</ele><time>2026-04-06T09:27:37Z</time></trkpt><trkpt lat="46.01062128667987" lon="12.288323251731637"><ele>160.0</ele><time>2026-04-06T09:27:38Z</time></trkpt><trkpt lat="46.01074954884358" lon="12.288505753993451"><ele>160.33333333333334</ele><time>2026-04-06T09:27:39Z</time></trkpt><trkpt lat="46.01087216880082" lon="12.288681318548486"><ele>160.66666666666666</ele><time>2026-04-06T09:27:40Z</time></trkpt><trkpt lat="46.01099587045249" lon="12.288857100941046"><ele>161.0</ele><time>2026-04-06T09:27:41Z</time></trkpt><trkpt lat="46.011117146644395" lon="12.289035855492418"><ele>160.0</ele><time>2026-04-06T09:27:42Z</time></trkpt><trkpt lat="46.01123896445452" lon="12.289194380765665"><ele>159.0</ele><time>2026-04-06T09:27:43Z</time></trkpt><trkpt lat="46.01135574817045" lon="12.28933751810039"><ele>158.0</ele><time>2026-04-06T09:27:44Z</time></trkpt><trkpt lat="46.011482404204365" lon="12.289473901740982"><ele>158.0</ele><time>2026-04-06T09:27:45Z</time></trkpt><trkpt lat="46.0115842148408" lon="12.289556450839113"><ele>158.0</ele><time>2026-04-06T09:27:46Z</time></trkpt><trkpt lat="46.011671174556305" lon="12.289634365430949"><ele>158.0</ele><time>2026-04-06T09:27:47Z</time></trkpt><trkpt lat="46.01177877715148" lon="12.289693927207335"><ele>158.0</ele><time>2026-04-06T09:27:48Z</time></trkpt><trkpt lat="46.012101989466146" lon="12.289786528923367"><ele>159.33333333333331</ele><time>2026-04-06T09:27:49Z</time></trkpt><trkpt lat="46.01227268698179" lon="12.289801918165397"><ele>160.66666666666666</ele><time>2026-04-06T09:27:50Z</time></trkpt><trkpt lat="46.01242700395125" lon="12.289819223532604"><ele>162.0</ele><time>2026-04-06T09:27:51Z</time></trkpt><trkpt lat="46.01257202559764" lon="12.28985776020969"><ele>165.0</ele><time>2026-04-06T09:27:52Z</time></trkpt><trkpt lat="46.01272501398437" lon="12.28993758895806"><ele>168.0</ele><time>2026-04-06T09:27:53Z</time></trkpt><trkpt lat="46.01287868362405" lon="12.289997495821497"><ele>171.0</ele><time>2026-04-06T09:27:54Z</time></trkpt><trkpt lat="46.01301838345605" lon="12.290090542978456"><ele>171.0</ele><time>2026-04-06T09:27:55Z</time></trkpt><trkpt lat="46.01315053667499" lon="12.290158115828987"><ele>171.0</ele><time>2026-04-06T09:27:56Z</time></trkpt><trkpt lat="46.01326613467025" lon="12.290248722810123"><ele>171.0</ele><time>2026-04-06T09:27:57Z</time></trkpt><trkpt lat="46.01337691006388" lon="12.290290497189416"><ele>171.0</ele><time>2026-04-06T09:27:58Z</time></trkpt><trkpt lat="46.013489195036016" lon="12.290265193337605"><ele>171.75</ele><time>2026-04-06T09:27:59Z</time></trkpt><trkpt lat="46.01359831133454" lon="12.290180774853777"><ele>172.5</ele><time>2026-04-06T09:28:00Z</time></trkpt><trkpt lat="46.01372634505107" lon="12.290039042869935"><ele>173.25</ele><time>2026-04-06T09:28:01Z</time></trkpt><trkpt lat="46.0138029157209" lon="12.289872114648244"><ele>174.0</ele><time>2026-04-06T09:28:02Z</time></trkpt><trkpt lat="46.01387205323431" lon="12.289687932110972"><ele>173.25</ele><time>2026-04-06T09:28:03Z</time></trkpt><trkpt lat="46.01393254142182" lon="12.289494458778515"><ele>172.5</ele><time>2026-04-06T09:28:04Z</time></trkpt><trkpt lat="46.01400764894414" lon="12.289332559787868"><ele>171.75</ele><time>2026-04-06T09:28:05Z</time></trkpt><trkpt lat="46.014099077969654" lon="12.289185296474182"><ele>171.0</ele><time>2026-04-06T09:28:06Z</time></trkpt><trkpt lat="46.01421876056988" lon="12.289095009856142"><ele>171.0</ele><time>2026-04-06T09:28:07Z</time></trkpt><trkpt lat="46.01434003630156" lon="12.289043850532044"><ele>171.0</ele><time>2026-04-06T09:28:08Z</time></trkpt><trkpt lat="46.014481288855954" lon="12.289027788482336"><ele>171.0</ele><time>2026-04-06T09:28:09Z</time></trkpt><trkpt lat="46.01463056531626" lon="12.289017109168325"><ele>171.0</ele><time>2026-04-06T09:28:10Z</time></trkpt><trkpt lat="46.014770021377274" lon="12.288990198751401"><ele>171.0</ele><time>2026-04-06T09:28:11Z</time></trkpt><trkpt lat="46.01490284569337" lon="12.288981339550126"><ele>171.0</ele><time>2026-04-06T09:28:12Z</time></trkpt><trkpt lat="46.015041916116914" lon="12.288928475120105"><ele>171.0</ele><time>2026-04-06T09:28:13Z</time></trkpt><trkpt lat="46.01518417908036" lon="12.288887521563128"><ele>171.0</ele><time>2026-04-06T09:28:14Z</time></trkpt><trkpt lat="46.015320074299936" lon="12.288849716565561"><ele>172.75</ele><time>2026-04-06T09:28:15Z</time></trkpt><trkpt lat="46.01544473597622" lon="12.288773004461795"><ele>174.5</ele><time>2026-04-06T09:28:16Z</time></trkpt><trkpt lat="46.01558938285143" lon="12.28878118663589"><ele>176.25</ele><time>2026-04-06T09:28:17Z</time></trkpt><trkpt lat="46.01574705121121" lon="12.28879730706686"><ele>178.0</ele><time>2026-04-06T09:28:18Z</time></trkpt><trkpt lat="46.015898960141094" lon="12.288809470047292"><ele>179.0</ele><time>2026-04-06T09:28:19Z</time></trkpt><trkpt lat="46.016039099568076" lon="12.288820759604858"><ele>180.0</ele><time>2026-04-06T09:28:20Z</time></trkpt><trkpt lat="46.01616947244777" lon="12.28885176722028"><ele>181.0</ele><time>2026-04-06T09:28:21Z</time></trkpt><trkpt lat="46.01629663674051" lon="12.288844504582066"><ele>182.0</ele><time>2026-04-06T09:28:22Z</time></trkpt><trkpt lat="46.01641996226919" lon="12.288802004516594"><ele>182.0</ele><time>2026-04-06T09:28:23Z</time></trkpt><trkpt lat="46.01653959270671" lon="12.288791022576895"><ele>182.0</ele><time>2026-04-06T09:28:24Z</time></trkpt><trkpt lat="46.01665480305226" lon="12.28882320471054"><ele>182.0</ele><time>2026-04-06T09:28:25Z</time></trkpt><trkpt lat="46.016777720276664" lon="12.288898374838675"><ele>182.0</ele><time>2026-04-06T09:28:26Z</time></trkpt><trkpt lat="46.01691252394972" lon="12.288977798352647"><ele>175.0</ele><time>2026-04-06T09:28:27Z</time></trkpt><trkpt lat="46.0170507657885" lon="12.289067787744797"><ele>168.0</ele><time>2026-04-06T09:28:28Z</time></trkpt><trkpt lat="46.01718149475058" lon="12.289179143773742"><ele>161.0</ele><time>2026-04-06T09:28:29Z</time></trkpt><trkpt lat="46.01731235836303" lon="12.289293497539374"><ele>161.0</ele><time>2026-04-06T09:28:30Z</time></trkpt><trkpt lat="46.01744175405193" lon="12.289402286942018"><ele>161.0</ele><time>2026-04-06T09:28:31Z</time></trkpt><trkpt lat="46.01756045551472" lon="12.28953176831525"><ele>161.0</ele><time>2026-04-06T09:28:32Z</time></trkpt><trkpt lat="46.01769520905157" lon="12.289641475856298"><ele>161.0</ele><time>2026-04-06T09:28:33Z</time></trkpt><trkpt lat="46.017832630943005" lon="12.289751718906349"><ele>161.0</ele><time>2026-04-06T09:28:34Z</time></trkpt><trkpt lat="46.01794717859933" lon="12.289860143447251"><ele>161.0</ele><time>2026-04-06T09:28:35Z</time></trkpt><trkpt lat="46.018063662850814" lon="12.289945440736362"><ele>161.0</ele><time>2026-04-06T09:28:36Z</time></trkpt><trkpt lat="46.018190641452804" lon="12.290018450087812"><ele>161.0</ele><time>2026-04-06T09:28:37Z</time></trkpt><trkpt lat="46.018315262027194" lon="12.290092911757167"><ele>161.0</ele><time>2026-04-06T09:28:38Z</time></trkpt><trkpt lat="46.01842946574197" lon="12.290173643353105"><ele>161.0</ele><time>2026-04-06T09:28:39Z</time></trkpt><trkpt lat="46.018545539853754" lon="12.290246444266044"><ele>161.0</ele><time>2026-04-06T09:28:40Z</time></trkpt><trkpt lat="46.01866064695165" lon="12.290311353916625"><ele>161.75</ele><time>2026-04-06T09:28:41Z</time></trkpt><trkpt lat="46.01877342504145" lon="12.290377913632438"><ele>162.5</ele><time>2026-04-06T09:28:42Z</time></trkpt><trkpt lat="46.018884627976654" lon="12.290446137185366"><ele>163.25</ele><time>2026-04-06T09:28:43Z</time></trkpt><trkpt lat="46.018998352167266" lon="12.29050964887621"><ele>164.0</ele><time>2026-04-06T09:28:44Z</time></trkpt><trkpt lat="46.019119027330404" lon="12.290574512766922"><ele>164.25</ele><time>2026-04-06T09:28:45Z</time></trkpt><trkpt lat="46.01925166414668" lon="12.290644075490073"><ele>164.5</ele><time>2026-04-06T09:28:46Z</time></trkpt><trkpt lat="46.019383657023496" lon="12.290718787747888"><ele>164.75</ele><time>2026-04-06T09:28:47Z</time></trkpt><trkpt lat="46.019524872042446" lon="12.290801864022074"><ele>165.0</ele><time>2026-04-06T09:28:48Z</time></trkpt><trkpt lat="46.019691246103385" lon="12.290884591442165"><ele>165.0</ele><time>2026-04-06T09:28:49Z</time></trkpt><trkpt lat="46.01986577473584" lon="12.290986323399578"><ele>165.0</ele><time>2026-04-06T09:28:50Z</time></trkpt><trkpt lat="46.02002977090815" lon="12.291105295291985"><ele>165.0</ele><time>2026-04-06T09:28:51Z</time></trkpt><trkpt lat="46.02021320896003" lon="12.291216145284901"><ele>165.0</ele><time>2026-04-06T09:28:52Z</time></trkpt><trkpt lat="46.02042032232502" lon="12.291330440351985"><ele>165.0</ele><time>2026-04-06T09:28:53Z</time></trkpt><trkpt lat="46.02062377012594" lon="12.291454104150343"><ele>165.0</ele><time>2026-04-06T09:28:54Z</time></trkpt><trkpt lat="46.020798332304594" lon="12.291565498875467"><ele>166.66666666666666</ele><time>2026-04-06T09:28:55Z</time></trkpt><trkpt lat="46.02096096730088" lon="12.291674011795596"><ele>168.33333333333331</ele><time>2026-04-06T09:28:56Z</time></trkpt><trkpt lat="46.02110594157645" lon="12.291815612434357"><ele>170.0</ele><time>2026-04-06T09:28:57Z</time></trkpt><trkpt lat="46.02124603764228" lon="12.29197741091662"><ele>170.0</ele><time>2026-04-06T09:28:58Z</time></trkpt><trkpt lat="46.02138669408043" lon="12.292133530948847"><ele>170.0</ele><time>2026-04-06T09:28:59Z</time></trkpt><trkpt lat="46.02152263372096" lon="12.292307911247622"><ele>170.0</ele><time>2026-04-06T09:29:00Z</time></trkpt><trkpt lat="46.02165245097038" lon="12.292491665223995"><ele>169.66666666666666</ele><time>2026-04-06T09:29:01Z</time></trkpt><trkpt lat="46.021775316121925" lon="12.292666436126856"><ele>169.33333333333334</ele><time>2026-04-06T09:29:02Z</time></trkpt><trkpt lat="46.02189682479326" lon="12.292838299213843"><ele>169.0</ele><time>2026-04-06T09:29:03Z</time></trkpt><trkpt lat="46.02201892656093" lon="12.293008910161726"><ele>168.0</ele><time>2026-04-06T09:29:04Z</time></trkpt><trkpt lat="46.02213495425935" lon="12.293172292167675"><ele>167.0</ele><time>2026-04-06T09:29:05Z</time></trkpt><trkpt lat="46.02224942158688" lon="12.293329545312645"><ele>166.0</ele><time>2026-04-06T09:29:06Z</time></trkpt><trkpt lat="46.02236451110385" lon="12.293494885701689"><ele>166.33333333333334</ele><time>2026-04-06T09:29:07Z</time></trkpt><trkpt lat="46.02248191112598" lon="12.293665084314279"><ele>166.66666666666666</ele><time>2026-04-06T09:29:08Z</time></trkpt><trkpt lat="46.02260225211501" lon="12.293841340794238"><ele>167.0</ele><time>2026-04-06T09:29:09Z</time></trkpt><trkpt lat="46.022734439481574" lon="12.294025667449706"><ele>165.66666666666666</ele><time>2026-04-06T09:29:10Z</time></trkpt><trkpt lat="46.02286614859237" lon="12.294208515400078"><ele>164.33333333333334</ele><time>2026-04-06T09:29:11Z</time></trkpt><trkpt lat="46.02298738384735" lon="12.29438639947862"><ele>163.0</ele><time>2026-04-06T09:29:12Z</time></trkpt><trkpt lat="46.02310423660398" lon="12.294551954066272"><ele>163.0</ele><time>2026-04-06T09:29:13Z</time></trkpt><trkpt lat="46.0232193665187" lon="12.294708142385478"><ele>163.0</ele><time>2026-04-06T09:29:14Z</time></trkpt><trkpt lat="46.023337430827056" lon="12.294846875867401"><ele>163.0</ele><time>2026-04-06T09:29:15Z</time></trkpt><trkpt lat="46.02348459658641" lon="12.29495073435917"><ele>163.66666666666669</ele><time>2026-04-06T09:29:16Z</time></trkpt><trkpt lat="46.02366070570462" lon="12.295010946358554"><ele>164.33333333333334</ele><time>2026-04-06T09:29:17Z</time></trkpt><trkpt lat="46.02381646106503" lon="12.295082241483433"><ele>165.0</ele><time>2026-04-06T09:29:18Z</time></trkpt><trkpt lat="46.02396154221997" lon="12.295156849936431"><ele>165.0</ele><time>2026-04-06T09:29:19Z</time></trkpt><trkpt lat="46.02410353754867" lon="12.295253086895972"><ele>165.0</ele><time>2026-04-06T09:29:20Z</time></trkpt><trkpt lat="46.02423646346753" lon="12.295387959765979"><ele>165.0</ele><time>2026-04-06T09:29:21Z</time></trkpt><trkpt lat="46.02437449640168" lon="12.295518865525448"><ele>164.66666666666666</ele><time>2026-04-06T09:29:22Z</time></trkpt><trkpt lat="46.02452091725503" lon="12.295646708408746"><ele>164.33333333333331</ele><time>2026-04-06T09:29:23Z</time></trkpt><trkpt lat="46.02466727036651" lon="12.295784789310352"><ele>164.0</ele><time>2026-04-06T09:29:24Z</time></trkpt><trkpt lat="46.02480448026942" lon="12.295915169703134"><ele>164.0</ele><time>2026-04-06T09:29:25Z</time></trkpt><trkpt lat="46.02493005493686" lon="12.296042490362119"><ele>164.0</ele><time>2026-04-06T09:29:26Z</time></trkpt><trkpt lat="46.02505565116622" lon="12.29618401059089"><ele>164.0</ele><time>2026-04-06T09:29:27Z</time></trkpt><trkpt lat="46.02518153590622" lon="12.296324773487768"><ele>162.0</ele><time>2026-04-06T09:29:28Z</time></trkpt><trkpt lat="46.02530052383727" lon="12.296461364003644"><ele>160.0</ele><time>2026-04-06T09:29:29Z</time></trkpt><trkpt lat="46.02540725091449" lon="12.296606484747286"><ele>158.0</ele><time>2026-04-06T09:29:30Z</time></trkpt><trkpt lat="46.02551354050956" lon="12.296765378622183"><ele>158.0</ele><time>2026-04-06T09:29:31Z</time></trkpt><trkpt lat="46.025625417433204" lon="12.296930947303276"><ele>158.0</ele><time>2026-04-06T09:29:32Z</time></trkpt><trkpt lat="46.02572547309204" lon="12.297108157086202"><ele>158.0</ele><time>2026-04-06T09:29:33Z</time></trkpt><trkpt lat="46.02580381107978" lon="12.297297879838245"><ele>160.0</ele><time>2026-04-06T09:29:34Z</time></trkpt><trkpt lat="46.02588843111673" lon="12.297463726255412"><ele>162.0</ele><time>2026-04-06T09:29:35Z</time></trkpt><trkpt lat="46.0259600126367" lon="12.297631080705786"><ele>164.0</ele><time>2026-04-06T09:29:36Z</time></trkpt><trkpt lat="46.026039069554336" lon="12.297806566114337"><ele>166.0</ele><time>2026-04-06T09:29:37Z</time></trkpt><trkpt lat="46.02617009336744" lon="12.297989340369742"><ele>166.0</ele><time>2026-04-06T09:29:38Z</time></trkpt><trkpt lat="46.026327579486555" lon="12.298195617493414"><ele>166.0</ele><time>2026-04-06T09:29:39Z</time></trkpt><trkpt lat="46.02649131490672" lon="12.298415604296489"><ele>166.0</ele><time>2026-04-06T09:29:40Z</time></trkpt><trkpt lat="46.02665135807181" lon="12.298646590614847"><ele>166.0</ele><time>2026-04-06T09:29:41Z</time></trkpt><trkpt lat="46.026814139565204" lon="12.298903072737655"><ele>166.0</ele><time>2026-04-06T09:29:42Z</time></trkpt><trkpt lat="46.02700092606408" lon="12.29914154522412"><ele>165.66666666666669</ele><time>2026-04-06T09:29:43Z</time></trkpt><trkpt lat="46.027150827949576" lon="12.29939148169819"><ele>165.33333333333334</ele><time>2026-04-06T09:29:44Z</time></trkpt><trkpt lat="46.02730311432539" lon="12.299602748726157"><ele>165.0</ele><time>2026-04-06T09:29:45Z</time></trkpt><trkpt lat="46.02744812858166" lon="12.299805049941886"><ele>164.66666666666666</ele><time>2026-04-06T09:29:46Z</time></trkpt><trkpt lat="46.027580264812414" lon="12.29999673630022"><ele>164.33333333333331</ele><time>2026-04-06T09:29:47Z</time></trkpt><trkpt lat="46.02770839043618" lon="12.300178738124803"><ele>164.0</ele><time>2026-04-06T09:29:48Z</time></trkpt><trkpt lat="46.02782574731799" lon="12.30035116935633"><ele>164.0</ele><time>2026-04-06T09:29:49Z</time></trkpt><trkpt lat="46.02793499292031" lon="12.300517653305793"><ele>164.0</ele><time>2026-04-06T09:29:50Z</time></trkpt><trkpt lat="46.02805386277254" lon="12.300675268117926"><ele>164.0</ele><time>2026-04-06T09:29:51Z</time></trkpt><trkpt lat="46.02816526648162" lon="12.300834533564466"><ele>164.25</ele><time>2026-04-06T09:29:52Z</time></trkpt><trkpt lat="46.02826223064957" lon="12.300995300906317"><ele>164.5</ele><time>2026-04-06T09:29:53Z</time></trkpt><trkpt lat="46.0283668201909" lon="12.301134827972172"><ele>164.75</ele><time>2026-04-06T09:29:54Z</time></trkpt><trkpt lat="46.02847117709835" lon="12.301273981548198"><ele>165.0</ele><time>2026-04-06T09:29:55Z</time></trkpt><trkpt lat="46.02856860264511" lon="12.301438987741069"><ele>165.0</ele><time>2026-04-06T09:29:56Z</time></trkpt><trkpt lat="46.02865030482004" lon="12.301630033627"><ele>165.0</ele><time>2026-04-06T09:29:57Z</time></trkpt><trkpt lat="46.02869254052883" lon="12.301848908506646"><ele>165.0</ele><time>2026-04-06T09:29:58Z</time></trkpt><trkpt lat="46.02873589279988" lon="12.30207803573597"><ele>165.0</ele><time>2026-04-06T09:29:59Z</time></trkpt><trkpt lat="46.02875509529937" lon="12.302294723027519"><ele>165.0</ele><time>2026-04-06T09:30:00Z</time></trkpt><trkpt lat="46.02876775857967" lon="12.30250236151271"><ele>165.0</ele><time>2026-04-06T09:30:01Z</time></trkpt><trkpt lat="46.02877630659173" lon="12.302706464158645"><ele>165.0</ele><time>2026-04-06T09:30:02Z</time></trkpt><trkpt lat="46.02879738222264" lon="12.30289922354707"><ele>167.75</ele><time>2026-04-06T09:30:03Z</time></trkpt><trkpt lat="46.02881249044385" lon="12.303087432148322"><ele>170.5</ele><time>2026-04-06T09:30:04Z</time></trkpt><trkpt lat="46.02883566286889" lon="12.303283028526465"><ele>173.25</ele><time>2026-04-06T09:30:05Z</time></trkpt><trkpt lat="46.02889349773779" lon="12.303470490057077"><ele>176.0</ele><time>2026-04-06T09:30:06Z</time></trkpt><trkpt lat="46.02897151373375" lon="12.303633751095997"><ele>176.0</ele><time>2026-04-06T09:30:07Z</time></trkpt><trkpt lat="46.029073561535476" lon="12.303759743776684"><ele>176.0</ele><time>2026-04-06T09:30:08Z</time></trkpt><trkpt lat="46.02918809553112" lon="12.303870469819106"><ele>176.0</ele><time>2026-04-06T09:30:09Z</time></trkpt><trkpt lat="46.02930883037605" lon="12.303954048746222"><ele>176.0</ele><time>2026-04-06T09:30:10Z</time></trkpt><trkpt lat="46.02943493416692" lon="12.303982079051378"><ele>175.5</ele><time>2026-04-06T09:30:11Z</time></trkpt><trkpt lat="46.029543727682125" lon="12.303954396167503"><ele>175.0</ele><time>2026-04-06T09:30:12Z</time></trkpt><trkpt lat="46.02965543504388" lon="12.303872477028605"><ele>174.5</ele><time>2026-04-06T09:30:13Z</time></trkpt><trkpt lat="46.029748261980416" lon="12.303732966688163"><ele>174.0</ele><time>2026-04-06T09:30:14Z</time></trkpt><trkpt lat="46.02981453882966" lon="12.303554630847403"><ele>174.0</ele><time>2026-04-06T09:30:15Z</time></trkpt><trkpt lat="46.029859352780065" lon="12.303353572966246"><ele>174.0</ele><time>2026-04-06T09:30:16Z</time></trkpt><trkpt lat="46.029923298423824" lon="12.30319849046369"><ele>174.0</ele><time>2026-04-06T09:30:17Z</time></trkpt><trkpt lat="46.02995866612771" lon="12.303046103043037"><ele>174.0</ele><time>2026-04-06T09:30:18Z</time></trkpt><trkpt lat="46.03000722178635" lon="12.302901068322882"><ele>176.75</ele><time>2026-04-06T09:30:19Z</time></trkpt><trkpt lat="46.03007916738933" lon="12.302764178582787"><ele>179.5</ele><time>2026-04-06T09:30:20Z</time></trkpt><trkpt lat="46.0301348286768" lon="12.302621011790013"><ele>182.25</ele><time>2026-04-06T09:30:21Z</time></trkpt><trkpt lat="46.03022837634986" lon="12.302519663431427"><ele>185.0</ele><time>2026-04-06T09:30:22Z</time></trkpt><trkpt lat="46.030318004681284" lon="12.30240126548858"><ele>185.0</ele><time>2026-04-06T09:30:23Z</time></trkpt><trkpt lat="46.030399417136415" lon="12.30227952779478"><ele>185.0</ele><time>2026-04-06T09:30:24Z</time></trkpt><trkpt lat="46.03046306714037" lon="12.302131661313062"><ele>185.0</ele><time>2026-04-06T09:30:25Z</time></trkpt><trkpt lat="46.03050679000755" lon="12.301996611580803"><ele>185.0</ele><time>2026-04-06T09:30:26Z</time></trkpt><trkpt lat="46.03057878350853" lon="12.30189686735505"><ele>185.0</ele><time>2026-04-06T09:30:27Z</time></trkpt><trkpt lat="46.03068435687071" lon="12.301847105876941"><ele>184.5</ele><time>2026-04-06T09:30:28Z</time></trkpt><trkpt lat="46.03080800092613" lon="12.301864835950527"><ele>184.0</ele><time>2026-04-06T09:30:29Z</time></trkpt><trkpt lat="46.03092846401113" lon="12.30195364924464"><ele>183.5</ele><time>2026-04-06T09:30:30Z</time></trkpt><trkpt lat="46.031049268295135" lon="12.302022187450229"><ele>183.0</ele><time>2026-04-06T09:30:31Z</time></trkpt><trkpt lat="46.03114391388041" lon="12.302132024463189"><ele>187.0</ele><time>2026-04-06T09:30:32Z</time></trkpt><trkpt lat="46.03123469712751" lon="12.302265341096264"><ele>191.0</ele><time>2026-04-06T09:30:33Z</time></trkpt><trkpt lat="46.031303526784484" lon="12.30243271520035"><ele>195.0</ele><time>2026-04-06T09:30:34Z</time></trkpt><trkpt lat="46.03136282488486" lon="12.302610153740764"><ele>199.0</ele><time>2026-04-06T09:30:35Z</time></trkpt><trkpt lat="46.03144870292803" lon="12.302808635583084"><ele>199.0</ele><time>2026-04-06T09:30:36Z</time></trkpt><trkpt lat="46.03157574058129" lon="12.303041585005536"><ele>199.0</ele><time>2026-04-06T09:30:37Z</time></trkpt><trkpt lat="46.03168839047282" lon="12.303321096943424"><ele>199.0</ele><time>2026-04-06T09:30:38Z</time></trkpt><trkpt lat="46.03179396670962" lon="12.303589359895877"><ele>198.0</ele><time>2026-04-06T09:30:39Z</time></trkpt><trkpt lat="46.03192234779733" lon="12.303827606507749"><ele>197.0</ele><time>2026-04-06T09:30:40Z</time></trkpt><trkpt lat="46.03207176709823" lon="12.304045319615362"><ele>196.0</ele><time>2026-04-06T09:30:41Z</time></trkpt><trkpt lat="46.03225833458749" lon="12.30427049032061"><ele>191.0</ele><time>2026-04-06T09:30:42Z</time></trkpt><trkpt lat="46.032475810224376" lon="12.304504825547479"><ele>186.0</ele><time>2026-04-06T09:30:43Z</time></trkpt><trkpt lat="46.032709779421616" lon="12.304741634036466"><ele>188.0</ele><time>2026-04-06T09:30:44Z</time></trkpt><trkpt lat="46.03293067324281" lon="12.304967469045465"><ele>190.0</ele><time>2026-04-06T09:30:45Z</time></trkpt><trkpt lat="46.033132278527425" lon="12.305180644904645"><ele>189.5</ele><time>2026-04-06T09:30:46Z</time></trkpt><trkpt lat="46.03331879638329" lon="12.305387258709034"><ele>189.0</ele><time>2026-04-06T09:30:47Z</time></trkpt><trkpt lat="46.03350394179144" lon="12.305592003449899"><ele>189.0</ele><time>2026-04-06T09:30:48Z</time></trkpt><trkpt lat="46.033688851355684" lon="12.305785924858242"><ele>189.0</ele><time>2026-04-06T09:30:49Z</time></trkpt><trkpt lat="46.03386252332594" lon="12.305966602128553"><ele>189.0</ele><time>2026-04-06T09:30:50Z</time></trkpt><trkpt lat="46.03403178061036" lon="12.306137884449422"><ele>189.33333333333334</ele><time>2026-04-06T09:30:51Z</time></trkpt><trkpt lat="46.03419666640144" lon="12.306312021670678"><ele>189.66666666666669</ele><time>2026-04-06T09:30:52Z</time></trkpt><trkpt lat="46.034347325101805" lon="12.30651385134017"><ele>190.0</ele><time>2026-04-06T09:30:53Z</time></trkpt><trkpt lat="46.03448265889972" lon="12.30672891651627"><ele>191.66666666666669</ele><time>2026-04-06T09:30:54Z</time></trkpt><trkpt lat="46.03462923980207" lon="12.306943035822147"><ele>193.33333333333334</ele><time>2026-04-06T09:30:55Z</time></trkpt><trkpt lat="46.03477641885088" lon="12.307144503867063"><ele>195.0</ele><time>2026-04-06T09:30:56Z</time></trkpt><trkpt lat="46.03490437496837" lon="12.307329639850714"><ele>195.33333333333331</ele><time>2026-04-06T09:30:57Z</time></trkpt><trkpt lat="46.03503341168864" lon="12.307515748856412"><ele>195.66666666666666</ele><time>2026-04-06T09:30:58Z</time></trkpt><trkpt lat="46.035195379926535" lon="12.307721789523196"><ele>196.0</ele><time>2026-04-06T09:30:59Z</time></trkpt><trkpt lat="46.03538214669503" lon="12.307944437994253"><ele>200.0</ele><time>2026-04-06T09:31:00Z</time></trkpt><trkpt lat="46.035551380905844" lon="12.30814512311121"><ele>204.0</ele><time>2026-04-06T09:31:01Z</time></trkpt><trkpt lat="46.03571736363233" lon="12.308332738105259"><ele>208.0</ele><time>2026-04-06T09:31:02Z</time></trkpt><trkpt lat="46.035905775122664" lon="12.30850356331745"><ele>208.0</ele><time>2026-04-06T09:31:03Z</time></trkpt><trkpt lat="46.03611557787123" lon="12.30863203546526"><ele>208.0</ele><time>2026-04-06T09:31:04Z</time></trkpt><trkpt lat="46.036343567838806" lon="12.308752035836388"><ele>208.0</ele><time>2026-04-06T09:31:05Z</time></trkpt><trkpt lat="46.036573737530105" lon="12.3088044071476"><ele>208.0</ele><time>2026-04-06T09:31:06Z</time></trkpt><trkpt lat="46.03677742212479" lon="12.308883661897402"><ele>208.0</ele><time>2026-04-06T09:31:07Z</time></trkpt><trkpt lat="46.03696547746826" lon="12.308962040671734"><ele>208.66666666666666</ele><time>2026-04-06T09:31:08Z</time></trkpt><trkpt lat="46.03716232486741" lon="12.309057037011149"><ele>209.33333333333331</ele><time>2026-04-06T09:31:09Z</time></trkpt><trkpt lat="46.037361906051196" lon="12.309206077147895"><ele>210.0</ele><time>2026-04-06T09:31:10Z</time></trkpt><trkpt lat="46.03753994799756" lon="12.309365222295048"><ele>210.0</ele><time>2026-04-06T09:31:11Z</time></trkpt><trkpt lat="46.03770539566246" lon="12.309512437674167"><ele>210.0</ele><time>2026-04-06T09:31:12Z</time></trkpt><trkpt lat="46.037854095898425" lon="12.30967754700286"><ele>210.0</ele><time>2026-04-06T09:31:13Z</time></trkpt><trkpt lat="46.037989940466716" lon="12.309842925244453"><ele>216.0</ele><time>2026-04-06T09:31:14Z</time></trkpt><trkpt lat="46.038123020860795" lon="12.309957455515669"><ele>222.0</ele><time>2026-04-06T09:31:15Z</time></trkpt><trkpt lat="46.03827009577961" lon="12.310028307507517"><ele>228.0</ele><time>2026-04-06T09:31:16Z</time></trkpt><trkpt lat="46.03842028718764" lon="12.310088500461875"><ele>228.0</ele><time>2026-04-06T09:31:17Z</time></trkpt><trkpt lat="46.0386115459212" lon="12.31010813706433"><ele>228.0</ele><time>2026-04-06T09:31:18Z</time></trkpt><trkpt lat="46.03880390724098" lon="12.310113789356393"><ele>228.0</ele><time>2026-04-06T09:31:19Z</time></trkpt><trkpt lat="46.03898907072639" lon="12.310050782535034"><ele>228.0</ele><time>2026-04-06T09:31:20Z</time></trkpt><trkpt lat="46.039170125275916" lon="12.309954482982851"><ele>228.0</ele><time>2026-04-06T09:31:21Z</time></trkpt><trkpt lat="46.039360601268115" lon="12.309805592448152"><ele>228.0</ele><time>2026-04-06T09:31:22Z</time></trkpt><trkpt lat="46.03954071211302" lon="12.309615369042753"><ele>220.0</ele><time>2026-04-06T09:31:23Z</time></trkpt><trkpt lat="46.039739724068006" lon="12.30941663784875"><ele>212.0</ele><time>2026-04-06T09:31:24Z</time></trkpt><trkpt lat="46.03992724392014" lon="12.309230076210293"><ele>214.66666666666669</ele><time>2026-04-06T09:31:25Z</time></trkpt><trkpt lat="46.040094270118026" lon="12.309063189024226"><ele>217.33333333333331</ele><time>2026-04-06T09:31:26Z</time></trkpt><trkpt lat="46.04025325975807" lon="12.308908538311451"><ele>220.0</ele><time>2026-04-06T09:31:27Z</time></trkpt><trkpt lat="46.040403671973884" lon="12.308772866729884"><ele>220.0</ele><time>2026-04-06T09:31:28Z</time></trkpt><trkpt lat="46.04053626314925" lon="12.308640543644177"><ele>220.0</ele><time>2026-04-06T09:31:29Z</time></trkpt><trkpt lat="46.04065941070939" lon="12.308518341491945"><ele>220.0</ele><time>2026-04-06T09:31:30Z</time></trkpt><trkpt lat="46.04076372348841" lon="12.308415481112199"><ele>220.0</ele><time>2026-04-06T09:31:31Z</time></trkpt><trkpt lat="46.040852344104316" lon="12.30835424229425"><ele>226.33333333333331</ele><time>2026-04-06T09:31:32Z</time></trkpt><trkpt lat="46.04098184379359" lon="12.308379678563037"><ele>232.66666666666669</ele><time>2026-04-06T09:31:33Z</time></trkpt><trkpt lat="46.04114663105237" lon="12.308463722512355"><ele>239.0</ele><time>2026-04-06T09:31:34Z</time></trkpt><trkpt lat="46.041328997099924" lon="12.308583349585911"><ele>239.0</ele><time>2026-04-06T09:31:35Z</time></trkpt><trkpt lat="46.04148963418206" lon="12.308671538648184"><ele>239.0</ele><time>2026-04-06T09:31:36Z</time></trkpt><trkpt lat="46.041681127907516" lon="12.30868637650832"><ele>239.0</ele><time>2026-04-06T09:31:37Z</time></trkpt><trkpt lat="46.04183445453649" lon="12.308745303744038"><ele>241.25</ele><time>2026-04-06T09:31:38Z</time></trkpt><trkpt lat="46.04196426958764" lon="12.308817761600523"><ele>243.5</ele><time>2026-04-06T09:31:39Z</time></trkpt><trkpt lat="46.04210660529296" lon="12.308822341972338"><ele>245.75</ele><time>2026-04-06T09:31:40Z</time></trkpt><trkpt lat="46.04223416904181" lon="12.308775052213855"><ele>248.0</ele><time>2026-04-06T09:31:41Z</time></trkpt><trkpt lat="46.042338428038995" lon="12.308674306770433"><ele>248.0</ele><time>2026-04-06T09:31:42Z</time></trkpt><trkpt lat="46.04241885038405" lon="12.308519792567173"><ele>248.0</ele><time>2026-04-06T09:31:43Z</time></trkpt><trkpt lat="46.04248999828897" lon="12.308269511900082"><ele>248.0</ele><time>2026-04-06T09:31:44Z</time></trkpt><trkpt lat="46.04251024493462" lon="12.308025679254028"><ele>245.33333333333334</ele><time>2026-04-06T09:31:45Z</time></trkpt><trkpt lat="46.04249158849509" lon="12.307767510591718"><ele>242.66666666666669</ele><time>2026-04-06T09:31:46Z</time></trkpt><trkpt lat="46.04245370323261" lon="12.30754929341996"><ele>240.0</ele><time>2026-04-06T09:31:47Z</time></trkpt><trkpt lat="46.042444554185884" lon="12.30736621395965"><ele>246.25</ele><time>2026-04-06T09:31:48Z</time></trkpt><trkpt lat="46.04247609230785" lon="12.307208411174337"><ele>252.5</ele><time>2026-04-06T09:31:49Z</time></trkpt><trkpt lat="46.04252932529682" lon="12.307065814856523"><ele>258.75</ele><time>2026-04-06T09:31:50Z</time></trkpt><trkpt lat="46.04263214826451" lon="12.306936127322265"><ele>265.0</ele><time>2026-04-06T09:31:51Z</time></trkpt><trkpt lat="46.042745863695586" lon="12.306854891797476"><ele>265.0</ele><time>2026-04-06T09:31:52Z</time></trkpt><trkpt lat="46.0428899356156" lon="12.306798031656134"><ele>265.0</ele><time>2026-04-06T09:31:53Z</time></trkpt><trkpt lat="46.04307118184376" lon="12.306786798358521"><ele>265.0</ele><time>2026-04-06T09:31:54Z</time></trkpt><trkpt lat="46.04328630669851" lon="12.306817408863399"><ele>270.5</ele><time>2026-04-06T09:31:55Z</time></trkpt><trkpt lat="46.04349850804829" lon="12.306835400615332"><ele>276.0</ele><time>2026-04-06T09:31:56Z</time></trkpt><trkpt lat="46.04374444374802" lon="12.306790461399846"><ele>276.0</ele><time>2026-04-06T09:31:57Z</time></trkpt><trkpt lat="46.04397417840072" lon="12.30677267253845"><ele>276.0</ele><time>2026-04-06T09:31:58Z</time></trkpt><trkpt lat="46.044167472865084" lon="12.306725347914435"><ele>276.0</ele><time>2026-04-06T09:31:59Z</time></trkpt><trkpt lat="46.04433879182762" lon="12.30666965879672"><ele>276.6666666666667</ele><time>2026-04-06T09:32:00Z</time></trkpt><trkpt lat="46.04449590858992" lon="12.306675006652409"><ele>277.33333333333337</ele><time>2026-04-06T09:32:01Z</time></trkpt><trkpt lat="46.0446480341722" lon="12.30674070810927"><ele>278.0</ele><time>2026-04-06T09:32:02Z</time></trkpt><trkpt lat="46.0447994580914" lon="12.306868204051813"><ele>278.0</ele><time>2026-04-06T09:32:03Z</time></trkpt><trkpt lat="46.04491327015733" lon="12.307048520551916"><ele>278.0</ele><time>2026-04-06T09:32:04Z</time></trkpt><trkpt lat="46.044992363229554" lon="12.307259093121813"><ele>278.0</ele><time>2026-04-06T09:32:05Z</time></trkpt><trkpt lat="46.045044386793556" lon="12.307548590774447"><ele>279.0</ele><time>2026-04-06T09:32:06Z</time></trkpt><trkpt lat="46.0450755563044" lon="12.307821461781057"><ele>280.0</ele><time>2026-04-06T09:32:07Z</time></trkpt><trkpt lat="46.04512134979797" lon="12.308041367393578"><ele>281.0</ele><time>2026-04-06T09:32:08Z</time></trkpt><trkpt lat="46.04518535114743" lon="12.3082301629387"><ele>281.0</ele><time>2026-04-06T09:32:09Z</time></trkpt><trkpt lat="46.045280361327244" lon="12.308402953123387"><ele>281.0</ele><time>2026-04-06T09:32:10Z</time></trkpt><trkpt lat="46.04542930193636" lon="12.308543531715998"><ele>281.0</ele><time>2026-04-06T09:32:11Z</time></trkpt><trkpt lat="46.04560773749655" lon="12.308623453967071"><ele>284.0</ele><time>2026-04-06T09:32:12Z</time></trkpt><trkpt lat="46.04582395258914" lon="12.308677865965137"><ele>287.0</ele><time>2026-04-06T09:32:13Z</time></trkpt><trkpt lat="46.04604364038789" lon="12.308748478366415"><ele>290.0</ele><time>2026-04-06T09:32:14Z</time></trkpt><trkpt lat="46.04623695784522" lon="12.308834539726082"><ele>290.0</ele><time>2026-04-06T09:32:15Z</time></trkpt><trkpt lat="46.04640987479134" lon="12.308890563708678"><ele>290.0</ele><time>2026-04-06T09:32:16Z</time></trkpt><trkpt lat="46.04656621887928" lon="12.308951170138625"><ele>290.0</ele><time>2026-04-06T09:32:17Z</time></trkpt><trkpt lat="46.04671041297681" lon="12.309015222007604"><ele>291.25</ele><time>2026-04-06T09:32:18Z</time></trkpt><trkpt lat="46.04684186901392" lon="12.309063760256612"><ele>292.5</ele><time>2026-04-06T09:32:19Z</time></trkpt><trkpt lat="46.04696008197379" lon="12.309156683102804"><ele>293.75</ele><time>2026-04-06T09:32:20Z</time></trkpt><trkpt lat="46.047072720686366" lon="12.309286351014151"><ele>295.0</ele><time>2026-04-06T09:32:21Z</time></trkpt><trkpt lat="46.04719446281086" lon="12.309448257842767"><ele>295.0</ele><time>2026-04-06T09:32:22Z</time></trkpt><trkpt lat="46.047324163790336" lon="12.309670049889528"><ele>295.0</ele><time>2026-04-06T09:32:23Z</time></trkpt><trkpt lat="46.04746754611417" lon="12.30991785340346"><ele>295.0</ele><time>2026-04-06T09:32:24Z</time></trkpt><trkpt lat="46.04761227302466" lon="12.310123700400514"><ele>293.66666666666663</ele><time>2026-04-06T09:32:25Z</time></trkpt><trkpt lat="46.047746180827524" lon="12.310315820756378"><ele>292.3333333333333</ele><time>2026-04-06T09:32:26Z</time></trkpt><trkpt lat="46.0478727599464" lon="12.310498921406127"><ele>291.0</ele><time>2026-04-06T09:32:27Z</time></trkpt><trkpt lat="46.04799573121329" lon="12.3106856129205"><ele>291.0</ele><time>2026-04-06T09:32:28Z</time></trkpt><trkpt lat="46.04813176825066" lon="12.310881237238918"><ele>291.0</ele><time>2026-04-06T09:32:29Z</time></trkpt><trkpt lat="46.048284589784856" lon="12.31108838275873"><ele>291.0</ele><time>2026-04-06T09:32:30Z</time></trkpt><trkpt lat="46.04843837498958" lon="12.31131302826872"><ele>290.5</ele><time>2026-04-06T09:32:31Z</time></trkpt><trkpt lat="46.04860078502171" lon="12.311543979326833"><ele>290.0</ele><time>2026-04-06T09:32:32Z</time></trkpt><trkpt lat="46.04876815956386" lon="12.311784627852296"><ele>290.0</ele><time>2026-04-06T09:32:33Z</time></trkpt><trkpt lat="46.0489389019382" lon="12.312034009377772"><ele>290.0</ele><time>2026-04-06T09:32:34Z</time></trkpt><trkpt lat="46.04909736220793" lon="12.312264856480164"><ele>290.0</ele><time>2026-04-06T09:32:35Z</time></trkpt><trkpt lat="46.04925985174521" lon="12.312496308155948"><ele>290.0</ele><time>2026-04-06T09:32:36Z</time></trkpt><trkpt lat="46.04942476570009" lon="12.31273890935806"><ele>290.0</ele><time>2026-04-06T09:32:37Z</time></trkpt><trkpt lat="46.04958665548325" lon="12.312982525045141"><ele>290.0</ele><time>2026-04-06T09:32:38Z</time></trkpt><trkpt lat="46.04976065576406" lon="12.313218481611258"><ele>290.5</ele><time>2026-04-06T09:32:39Z</time></trkpt><trkpt lat="46.0499584740505" lon="12.313455878667796"><ele>291.0</ele><time>2026-04-06T09:32:40Z</time></trkpt><trkpt lat="46.05018858044535" lon="12.313685681861294"><ele>294.0</ele><time>2026-04-06T09:32:41Z</time></trkpt><trkpt lat="46.05043096429115" lon="12.313925943055558"><ele>297.0</ele><time>2026-04-06T09:32:42Z</time></trkpt><trkpt lat="46.0506792261411" lon="12.314175505710278"><ele>292.5</ele><time>2026-04-06T09:32:43Z</time></trkpt><trkpt lat="46.05092976212267" lon="12.31443215500516"><ele>288.0</ele><time>2026-04-06T09:32:44Z</time></trkpt><trkpt lat="46.051161830415936" lon="12.314670522554014"><ele>292.5</ele><time>2026-04-06T09:32:45Z</time></trkpt><trkpt lat="46.05136985301697" lon="12.314889173753341"><ele>297.0</ele><time>2026-04-06T09:32:46Z</time></trkpt><trkpt lat="46.05156865029426" lon="12.315094563983385"><ele>291.5</ele><time>2026-04-06T09:32:47Z</time></trkpt><trkpt lat="46.05176360629425" lon="12.315299148876724"><ele>286.0</ele><time>2026-04-06T09:32:48Z</time></trkpt><trkpt lat="46.05194499679831" lon="12.315484474226624"><ele>285.66666666666663</ele><time>2026-04-06T09:32:49Z</time></trkpt><trkpt lat="46.052125441148696" lon="12.315674773714344"><ele>285.3333333333333</ele><time>2026-04-06T09:32:50Z</time></trkpt><trkpt lat="46.0523073570568" lon="12.315862447968163"><ele>285.0</ele><time>2026-04-06T09:32:51Z</time></trkpt><trkpt lat="46.052478663313316" lon="12.316039813049363"><ele>285.0</ele><time>2026-04-06T09:32:52Z</time></trkpt><trkpt lat="46.05263573795437" lon="12.316206358984017"><ele>285.0</ele><time>2026-04-06T09:32:53Z</time></trkpt><trkpt lat="46.05278947447255" lon="12.316370553227882"><ele>285.0</ele><time>2026-04-06T09:32:54Z</time></trkpt><trkpt lat="46.05293903725824" lon="12.316524428573837"><ele>285.0</ele><time>2026-04-06T09:32:55Z</time></trkpt><trkpt lat="46.0530990534623" lon="12.316691796066198"><ele>285.0</ele><time>2026-04-06T09:32:56Z</time></trkpt><trkpt lat="46.05324584087444" lon="12.316851028426445"><ele>285.0</ele><time>2026-04-06T09:32:57Z</time></trkpt><trkpt lat="46.053388964209134" lon="12.316989473292614"><ele>285.0</ele><time>2026-04-06T09:32:58Z</time></trkpt><trkpt lat="46.05352481177332" lon="12.317132855842091"><ele>285.0</ele><time>2026-04-06T09:32:59Z</time></trkpt><trkpt lat="46.05364038094628" lon="12.317314405193795"><ele>285.0</ele><time>2026-04-06T09:33:00Z</time></trkpt><trkpt lat="46.053739034668375" lon="12.317563922954438"><ele>288.6666666666667</ele><time>2026-04-06T09:33:01Z</time></trkpt><trkpt lat="46.053825599315715" lon="12.31785511840052"><ele>292.33333333333337</ele><time>2026-04-06T09:33:02Z</time></trkpt><trkpt lat="46.05389974871888" lon="12.318125912222529"><ele>296.0</ele><time>2026-04-06T09:33:03Z</time></trkpt><trkpt lat="46.05397346644282" lon="12.318360533518872"><ele>295.0</ele><time>2026-04-06T09:33:04Z</time></trkpt><trkpt lat="46.05405020119571" lon="12.31857474541898"><ele>294.0</ele><time>2026-04-06T09:33:05Z</time></trkpt><trkpt lat="46.05410636800778" lon="12.318813782597932"><ele>293.0</ele><time>2026-04-06T09:33:06Z</time></trkpt><trkpt lat="46.054136513370025" lon="12.319061154415014"><ele>293.0</ele><time>2026-04-06T09:33:07Z</time></trkpt><trkpt lat="46.05416079712641" lon="12.319346838122772"><ele>293.0</ele><time>2026-04-06T09:33:08Z</time></trkpt><trkpt lat="46.05417528078146" lon="12.31959898123137"><ele>293.0</ele><time>2026-04-06T09:33:09Z</time></trkpt><trkpt lat="46.05423451179468" lon="12.319825757151353"><ele>296.6666666666667</ele><time>2026-04-06T09:33:10Z</time></trkpt><trkpt lat="46.05433023524917" lon="12.320059327575342"><ele>300.3333333333333</ele><time>2026-04-06T09:33:11Z</time></trkpt><trkpt lat="46.054430538183304" lon="12.320269437205779"><ele>304.0</ele><time>2026-04-06T09:33:12Z</time></trkpt><trkpt lat="46.05455433028853" lon="12.320467373254333"><ele>311.0</ele><time>2026-04-06T09:33:13Z</time></trkpt><trkpt lat="46.05469240281035" lon="12.320634455502951"><ele>318.0</ele><time>2026-04-06T09:33:14Z</time></trkpt><trkpt lat="46.054827908645464" lon="12.320774103321815"><ele>325.0</ele><time>2026-04-06T09:33:15Z</time></trkpt><trkpt lat="46.05494983699939" lon="12.32090913486756"><ele>314.66666666666663</ele><time>2026-04-06T09:33:16Z</time></trkpt><trkpt lat="46.05507746046065" lon="12.321028501941774"><ele>304.3333333333333</ele><time>2026-04-06T09:33:17Z</time></trkpt><trkpt lat="46.05523959737696" lon="12.321102769577514"><ele>294.0</ele><time>2026-04-06T09:33:18Z</time></trkpt><trkpt lat="46.05541105814042" lon="12.321190193210912"><ele>294.0</ele><time>2026-04-06T09:33:19Z</time></trkpt><trkpt lat="46.055570676694614" lon="12.321281865560907"><ele>294.0</ele><time>2026-04-06T09:33:20Z</time></trkpt><trkpt lat="46.055743226968836" lon="12.321473778412507"><ele>294.0</ele><time>2026-04-06T09:33:21Z</time></trkpt><trkpt lat="46.05590498247284" lon="12.321646533612293"><ele>295.3333333333333</ele><time>2026-04-06T09:33:22Z</time></trkpt><trkpt lat="46.05604769232951" lon="12.321802173196998"><ele>296.66666666666663</ele><time>2026-04-06T09:33:23Z</time></trkpt><trkpt lat="46.05618575033407" lon="12.321972160828292"><ele>298.0</ele><time>2026-04-06T09:33:24Z</time></trkpt><trkpt lat="46.0563166173766" lon="12.322139130808239"><ele>298.66666666666663</ele><time>2026-04-06T09:33:25Z</time></trkpt><trkpt lat="46.056441812820374" lon="12.322292867530166"><ele>299.3333333333333</ele><time>2026-04-06T09:33:26Z</time></trkpt><trkpt lat="46.05655628792423" lon="12.322429997596634"><ele>300.0</ele><time>2026-04-06T09:33:27Z</time></trkpt><trkpt lat="46.05665139095123" lon="12.322586030362276"><ele>300.0</ele><time>2026-04-06T09:33:28Z</time></trkpt><trkpt lat="46.05673920008799" lon="12.322804294798896"><ele>300.0</ele><time>2026-04-06T09:33:29Z</time></trkpt><trkpt lat="46.05674816338093" lon="12.323071326290103"><ele>300.0</ele><time>2026-04-06T09:33:30Z</time></trkpt><trkpt lat="46.056783400367074" lon="12.323328396701786"><ele>307.0</ele><time>2026-04-06T09:33:31Z</time></trkpt><trkpt lat="46.056881615465095" lon="12.323530994325477"><ele>314.0</ele><time>2026-04-06T09:33:32Z</time></trkpt><trkpt lat="46.05702509672792" lon="12.323702222603421"><ele>321.0</ele><time>2026-04-06T09:33:33Z</time></trkpt><trkpt lat="46.05720677612083" lon="12.323888109923558"><ele>317.6666666666667</ele><time>2026-04-06T09:33:34Z</time></trkpt><trkpt lat="46.05740359830338" lon="12.324063727554515"><ele>314.33333333333337</ele><time>2026-04-06T09:33:35Z</time></trkpt><trkpt lat="46.057582402093985" lon="12.324241431419809"><ele>311.0</ele><time>2026-04-06T09:33:36Z</time></trkpt><trkpt lat="46.05773409118349" lon="12.324417528358909"><ele>311.0</ele><time>2026-04-06T09:33:37Z</time></trkpt><trkpt lat="46.05787396476803" lon="12.324628199217393"><ele>311.0</ele><time>2026-04-06T09:33:38Z</time></trkpt><trkpt lat="46.05800731295456" lon="12.324844375486311"><ele>311.0</ele><time>2026-04-06T09:33:39Z</time></trkpt><trkpt lat="46.058199154533874" lon="12.325002003218804"><ele>310.6666666666667</ele><time>2026-04-06T09:33:40Z</time></trkpt><trkpt lat="46.05839037807144" lon="12.325157700938288"><ele>310.3333333333333</ele><time>2026-04-06T09:33:41Z</time></trkpt><trkpt lat="46.05856546133038" lon="12.325290968129574"><ele>310.0</ele><time>2026-04-06T09:33:42Z</time></trkpt><trkpt lat="46.058726397990505" lon="12.325413183441391"><ele>310.0</ele><time>2026-04-06T09:33:43Z</time></trkpt><trkpt lat="46.05888862639352" lon="12.325552553930532"><ele>310.0</ele><time>2026-04-06T09:33:44Z</time></trkpt><trkpt lat="46.05904675830327" lon="12.325698008737671"><ele>310.0</ele><time>2026-04-06T09:33:45Z</time></trkpt><trkpt lat="46.05921612553228" lon="12.325844942579481"><ele>311.0</ele><time>2026-04-06T09:33:46Z</time></trkpt><trkpt lat="46.0593814887776" lon="12.326036468185443"><ele>312.0</ele><time>2026-04-06T09:33:47Z</time></trkpt><trkpt lat="46.05952926667046" lon="12.326258823856872"><ele>313.0</ele><time>2026-04-06T09:33:48Z</time></trkpt><trkpt lat="46.05968231187329" lon="12.32644744791083"><ele>316.66666666666663</ele><time>2026-04-06T09:33:49Z</time></trkpt><trkpt lat="46.05982772737107" lon="12.326601309753118"><ele>320.3333333333333</ele><time>2026-04-06T09:33:50Z</time></trkpt><trkpt lat="46.0599770134534" lon="12.32672960995363"><ele>324.0</ele><time>2026-04-06T09:33:51Z</time></trkpt><trkpt lat="46.06012762269717" lon="12.326858551608396"><ele>324.0</ele><time>2026-04-06T09:33:52Z</time></trkpt><trkpt lat="46.06026887031538" lon="12.32702271949654"><ele>324.0</ele><time>2026-04-06T09:33:53Z</time></trkpt><trkpt lat="46.060396487101194" lon="12.327244854226194"><ele>324.0</ele><time>2026-04-06T09:33:54Z</time></trkpt><trkpt lat="46.06052125220504" lon="12.327505827580772"><ele>321.0</ele><time>2026-04-06T09:33:55Z</time></trkpt><trkpt lat="46.06065499056051" lon="12.32774754106183"><ele>318.0</ele><time>2026-04-06T09:33:56Z</time></trkpt><trkpt lat="46.060814181853154" lon="12.327952822319187"><ele>315.0</ele><time>2026-04-06T09:33:57Z</time></trkpt><trkpt lat="46.060994588645315" lon="12.328141891342597"><ele>326.0</ele><time>2026-04-06T09:33:58Z</time></trkpt><trkpt lat="46.061169471591064" lon="12.328327968165114"><ele>337.0</ele><time>2026-04-06T09:33:59Z</time></trkpt><trkpt lat="46.06133963846417" lon="12.328480675810157"><ele>348.0</ele><time>2026-04-06T09:34:00Z</time></trkpt><trkpt lat="46.06150126467007" lon="12.328612778915302"><ele>345.6666666666667</ele><time>2026-04-06T09:34:01Z</time></trkpt><trkpt lat="46.06165605691157" lon="12.328771828992233"><ele>343.33333333333337</ele><time>2026-04-06T09:34:02Z</time></trkpt><trkpt lat="46.061808212741475" lon="12.32896871108569"><ele>341.0</ele><time>2026-04-06T09:34:03Z</time></trkpt><trkpt lat="46.061963361901334" lon="12.329201908387432"><ele>341.0</ele><time>2026-04-06T09:34:04Z</time></trkpt><trkpt lat="46.06211999060438" lon="12.329466970013183"><ele>341.0</ele><time>2026-04-06T09:34:05Z</time></trkpt><trkpt lat="46.062275873501235" lon="12.32974563901479"><ele>341.5</ele><time>2026-04-06T09:34:06Z</time></trkpt><trkpt lat="46.06243937207836" lon="12.330012833730152"><ele>342.0</ele><time>2026-04-06T09:34:07Z</time></trkpt><trkpt lat="46.06260320574746" lon="12.330232851340229"><ele>342.0</ele><time>2026-04-06T09:34:08Z</time></trkpt><trkpt lat="46.062757103925414" lon="12.33044643776499"><ele>342.0</ele><time>2026-04-06T09:34:09Z</time></trkpt><trkpt lat="46.06290791930521" lon="12.330661302772494"><ele>342.0</ele><time>2026-04-06T09:34:10Z</time></trkpt><trkpt lat="46.06306134474111" lon="12.330882783175177"><ele>340.5</ele><time>2026-04-06T09:34:11Z</time></trkpt><trkpt lat="46.063218949563016" lon="12.331113345750287"><ele>339.0</ele><time>2026-04-06T09:34:12Z</time></trkpt><trkpt lat="46.063377800880716" lon="12.331345957483354"><ele>347.6666666666667</ele><time>2026-04-06T09:34:13Z</time></trkpt><trkpt lat="46.06353638911977" lon="12.331575923432368"><ele>356.33333333333337</ele><time>2026-04-06T09:34:14Z</time></trkpt><trkpt lat="46.06369152435937" lon="12.331807451728485"><ele>365.0</ele><time>2026-04-06T09:34:15Z</time></trkpt><trkpt lat="46.06383734924529" lon="12.332038696248627"><ele>360.33333333333337</ele><time>2026-04-06T09:34:16Z</time></trkpt><trkpt lat="46.06398081308143" lon="12.332261847148128"><ele>355.6666666666667</ele><time>2026-04-06T09:34:17Z</time></trkpt><trkpt lat="46.064124856134754" lon="12.332459538542555"><ele>351.0</ele><time>2026-04-06T09:34:18Z</time></trkpt><trkpt lat="46.06427353805192" lon="12.332642683936418"><ele>351.0</ele><time>2026-04-06T09:34:19Z</time></trkpt><trkpt lat="46.06442088424064" lon="12.332812971316184"><ele>351.0</ele><time>2026-04-06T09:34:20Z</time></trkpt><trkpt lat="46.064566925124595" lon="12.332970694476348"><ele>351.0</ele><time>2026-04-06T09:34:21Z</time></trkpt><trkpt lat="46.06470844419818" lon="12.333146773631512"><ele>358.6666666666667</ele><time>2026-04-06T09:34:22Z</time></trkpt><trkpt lat="46.064809738151844" lon="12.333396333410807"><ele>366.33333333333337</ele><time>2026-04-06T09:34:23Z</time></trkpt><trkpt lat="46.06492190817318" lon="12.333686186458458"><ele>374.0</ele><time>2026-04-06T09:34:24Z</time></trkpt><trkpt lat="46.06503932155957" lon="12.333989081344695"><ele>374.0</ele><time>2026-04-06T09:34:25Z</time></trkpt><trkpt lat="46.06519452967643" lon="12.33426748917031"><ele>374.0</ele><time>2026-04-06T09:34:26Z</time></trkpt><trkpt lat="46.065381101207784" lon="12.334535460419072"><ele>385.0</ele><time>2026-04-06T09:34:27Z</time></trkpt><trkpt lat="46.0655519876202" lon="12.33478048667228"><ele>396.0</ele><time>2026-04-06T09:34:28Z</time></trkpt><trkpt lat="46.06568729242089" lon="12.335038784164272"><ele>392.0</ele><time>2026-04-06T09:34:29Z</time></trkpt><trkpt lat="46.065822722971085" lon="12.33526996261033"><ele>388.0</ele><time>2026-04-06T09:34:30Z</time></trkpt><trkpt lat="46.06596471754014" lon="12.335495576906125"><ele>384.0</ele><time>2026-04-06T09:34:31Z</time></trkpt><trkpt lat="46.06611020425005" lon="12.335717276329893"><ele>384.0</ele><time>2026-04-06T09:34:32Z</time></trkpt><trkpt lat="46.066281463229366" lon="12.335914383744967"><ele>384.0</ele><time>2026-04-06T09:34:33Z</time></trkpt><trkpt lat="46.06648718043922" lon="12.336081549904723"><ele>375.5</ele><time>2026-04-06T09:34:34Z</time></trkpt><trkpt lat="46.06670238770597" lon="12.336229147335333"><ele>367.0</ele><time>2026-04-06T09:34:35Z</time></trkpt><trkpt lat="46.06692007087397" lon="12.336373731813408"><ele>382.0</ele><time>2026-04-06T09:34:36Z</time></trkpt><trkpt lat="46.06714834595692" lon="12.33651512070292"><ele>397.0</ele><time>2026-04-06T09:34:37Z</time></trkpt><trkpt lat="46.067382930886744" lon="12.336627864617842"><ele>389.0</ele><time>2026-04-06T09:34:38Z</time></trkpt><trkpt lat="46.06759813297602" lon="12.336702713846925"><ele>381.0</ele><time>2026-04-06T09:34:39Z</time></trkpt><trkpt lat="46.067800230749334" lon="12.336770083766739"><ele>373.0</ele><time>2026-04-06T09:34:40Z</time></trkpt><trkpt lat="46.06798847407541" lon="12.336863030674625"><ele>373.0</ele><time>2026-04-06T09:34:41Z</time></trkpt><trkpt lat="46.06818010653869" lon="12.3369503092534"><ele>373.0</ele><time>2026-04-06T09:34:42Z</time></trkpt><trkpt lat="46.06835666824989" lon="12.337107830370128"><ele>373.0</ele><time>2026-04-06T09:34:43Z</time></trkpt><trkpt lat="46.06852189205586" lon="12.33729483113716"><ele>379.3333333333333</ele><time>2026-04-06T09:34:44Z</time></trkpt><trkpt lat="46.06867326120477" lon="12.337474270236996"><ele>385.66666666666663</ele><time>2026-04-06T09:34:45Z</time></trkpt><trkpt lat="46.06881113016744" lon="12.3376578288115"><ele>392.0</ele><time>2026-04-06T09:34:46Z</time></trkpt><trkpt lat="46.06892638849767" lon="12.337896636125322"><ele>391.3333333333333</ele><time>2026-04-06T09:34:47Z</time></trkpt><trkpt lat="46.06904595465296" lon="12.338173467958987"><ele>390.66666666666663</ele><time>2026-04-06T09:34:48Z</time></trkpt><trkpt lat="46.069186090038535" lon="12.338412489740406"><ele>390.0</ele><time>2026-04-06T09:34:49Z</time></trkpt><trkpt lat="46.06935025359072" lon="12.338565330834642"><ele>390.0</ele><time>2026-04-06T09:34:50Z</time></trkpt><trkpt lat="46.06948161751999" lon="12.338701634470343"><ele>390.0</ele><time>2026-04-06T09:34:51Z</time></trkpt><trkpt lat="46.06960005399097" lon="12.338858543578695"><ele>390.0</ele><time>2026-04-06T09:34:52Z</time></trkpt><trkpt lat="46.06971600585453" lon="12.339087819090045"><ele>392.33333333333337</ele><time>2026-04-06T09:34:53Z</time></trkpt><trkpt lat="46.06980768118751" lon="12.339363177388144"><ele>394.6666666666667</ele><time>2026-04-06T09:34:54Z</time></trkpt><trkpt lat="46.069903000669974" lon="12.339636322673636"><ele>397.0</ele><time>2026-04-06T09:34:55Z</time></trkpt><trkpt lat="46.06997917051733" lon="12.339896054667268"><ele>397.0</ele><time>2026-04-06T09:34:56Z</time></trkpt><trkpt lat="46.07010284279168" lon="12.340129839626345"><ele>397.0</ele><time>2026-04-06T09:34:57Z</time></trkpt><trkpt lat="46.070259940426084" lon="12.34033707017073"><ele>397.0</ele><time>2026-04-06T09:34:58Z</time></trkpt><trkpt lat="46.07038181391211" lon="12.340537804568967"><ele>407.33333333333337</ele><time>2026-04-06T09:34:59Z</time></trkpt><trkpt lat="46.07048091033712" lon="12.340718141992944"><ele>417.66666666666663</ele><time>2026-04-06T09:35:00Z</time></trkpt><trkpt lat="46.07061868508114" lon="12.340848299241154"><ele>428.0</ele><time>2026-04-06T09:35:01Z</time></trkpt><trkpt lat="46.070770164191224" lon="12.340920060166628"><ele>417.3333333333333</ele><time>2026-04-06T09:35:02Z</time></trkpt><trkpt lat="46.070951086701356" lon="12.340932757921907"><ele>406.66666666666663</ele><time>2026-04-06T09:35:03Z</time></trkpt><trkpt lat="46.071136630246066" lon="12.340965074605098"><ele>396.0</ele><time>2026-04-06T09:35:04Z</time></trkpt><trkpt lat="46.07132732394698" lon="12.341083220136994"><ele>396.0</ele><time>2026-04-06T09:35:05Z</time></trkpt><trkpt lat="46.07150495147849" lon="12.341237662532167"><ele>396.0</ele><time>2026-04-06T09:35:06Z</time></trkpt><trkpt lat="46.07164843525766" lon="12.341396818769452"><ele>396.0</ele><time>2026-04-06T09:35:07Z</time></trkpt><trkpt lat="46.07180842015518" lon="12.341492688563187"><ele>400.33333333333337</ele><time>2026-04-06T09:35:08Z</time></trkpt><trkpt lat="46.07194492210314" lon="12.34156164365541"><ele>404.6666666666667</ele><time>2026-04-06T09:35:09Z</time></trkpt><trkpt lat="46.07208673189114" lon="12.341562974135094"><ele>409.0</ele><time>2026-04-06T09:35:10Z</time></trkpt><trkpt lat="46.07225526266822" lon="12.341524494509336"><ele>409.0</ele><time>2026-04-06T09:35:11Z</time></trkpt><trkpt lat="46.07240200212175" lon="12.341491499339092"><ele>409.0</ele><time>2026-04-06T09:35:12Z</time></trkpt><trkpt lat="46.0725311073852" lon="12.34143655680155"><ele>409.0</ele><time>2026-04-06T09:35:13Z</time></trkpt><trkpt lat="46.07265266199064" lon="12.341333093804389"><ele>409.0</ele><time>2026-04-06T09:35:14Z</time></trkpt><trkpt lat="46.0727621670043" lon="12.341197438787756"><ele>405.75</ele><time>2026-04-06T09:35:15Z</time></trkpt><trkpt lat="46.072873133119145" lon="12.341072984799327"><ele>402.5</ele><time>2026-04-06T09:35:16Z</time></trkpt><trkpt lat="46.0729982701503" lon="12.34099046187654"><ele>399.25</ele><time>2026-04-06T09:35:17Z</time></trkpt><trkpt lat="46.07310797568245" lon="12.34091825410468"><ele>396.0</ele><time>2026-04-06T09:35:18Z</time></trkpt><trkpt lat="46.07321000361315" lon="12.34084649892469"><ele>398.5</ele><time>2026-04-06T09:35:19Z</time></trkpt><trkpt lat="46.07330182630047" lon="12.340749887648505"><ele>401.0</ele><time>2026-04-06T09:35:20Z</time></trkpt><trkpt lat="46.07337326527019" lon="12.340602874171214"><ele>403.5</ele><time>2026-04-06T09:35:21Z</time></trkpt><trkpt lat="46.07342250946549" lon="12.340391713762262"><ele>406.0</ele><time>2026-04-06T09:35:22Z</time></trkpt><trkpt lat="46.073445940764095" lon="12.340161860611097"><ele>406.0</ele><time>2026-04-06T09:35:23Z</time></trkpt><trkpt lat="46.07349131553681" lon="12.339967309211476"><ele>406.0</ele><time>2026-04-06T09:35:24Z</time></trkpt><trkpt lat="46.07353571613721" lon="12.339786638111258"><ele>406.0</ele><time>2026-04-06T09:35:25Z</time></trkpt><trkpt lat="46.07359688249692" lon="12.33960669183525"><ele>406.0</ele><time>2026-04-06T09:35:26Z</time></trkpt><trkpt lat="46.07369856304339" lon="12.339428081295424"><ele>405.0</ele><time>2026-04-06T09:35:27Z</time></trkpt><trkpt lat="46.07378503601079" lon="12.339243663165151"><ele>404.0</ele><time>2026-04-06T09:35:28Z</time></trkpt><trkpt lat="46.073856350164505" lon="12.339062303922002"><ele>403.0</ele><time>2026-04-06T09:35:29Z</time></trkpt><trkpt lat="46.07391548730861" lon="12.338878162840484"><ele>402.0</ele><time>2026-04-06T09:35:30Z</time></trkpt><trkpt lat="46.07395682136276" lon="12.338697792486519"><ele>399.5</ele><time>2026-04-06T09:35:31Z</time></trkpt><trkpt lat="46.07401511645362" lon="12.338537130590444"><ele>397.0</ele><time>2026-04-06T09:35:32Z</time></trkpt><trkpt lat="46.07411046154664" lon="12.338403350663832"><ele>394.5</ele><time>2026-04-06T09:35:33Z</time></trkpt><trkpt lat="46.07421116215318" lon="12.338279157130673"><ele>392.0</ele><time>2026-04-06T09:35:34Z</time></trkpt><trkpt lat="46.074299759984925" lon="12.338162804717136"><ele>396.0</ele><time>2026-04-06T09:35:35Z</time></trkpt><trkpt lat="46.07439527678005" lon="12.338080661493368"><ele>400.0</ele><time>2026-04-06T09:35:36Z</time></trkpt><trkpt lat="46.07450452521853" lon="12.338025696639546"><ele>404.0</ele><time>2026-04-06T09:35:37Z</time></trkpt><trkpt lat="46.07461516023775" lon="12.33796263044427"><ele>408.0</ele><time>2026-04-06T09:35:38Z</time></trkpt><trkpt lat="46.07470247751018" lon="12.337844611138678"><ele>408.0</ele><time>2026-04-06T09:35:39Z</time></trkpt><trkpt lat="46.07475615112369" lon="12.337686600595788"><ele>408.0</ele><time>2026-04-06T09:35:40Z</time></trkpt><trkpt lat="46.07476656992631" lon="12.337489137696165"><ele>408.0</ele><time>2026-04-06T09:35:41Z</time></trkpt><trkpt lat="46.07478915931724" lon="12.337282609887817"><ele>408.0</ele><time>2026-04-06T09:35:42Z</time></trkpt><trkpt lat="46.074852993159254" lon="12.33709673335306"><ele>406.75</ele><time>2026-04-06T09:35:43Z</time></trkpt><trkpt lat="46.074922816347346" lon="12.336906391756743"><ele>405.5</ele><time>2026-04-06T09:35:44Z</time></trkpt><trkpt lat="46.07499009467213" lon="12.336721690081937"><ele>404.25</ele><time>2026-04-06T09:35:45Z</time></trkpt><trkpt lat="46.07507154152092" lon="12.336542141575606"><ele>403.0</ele><time>2026-04-06T09:35:46Z</time></trkpt><trkpt lat="46.07515683348669" lon="12.336351462734175"><ele>408.33333333333337</ele><time>2026-04-06T09:35:47Z</time></trkpt><trkpt lat="46.07524739795906" lon="12.336156329231818"><ele>413.66666666666663</ele><time>2026-04-06T09:35:48Z</time></trkpt><trkpt lat="46.07534258428207" lon="12.335978238733"><ele>419.0</ele><time>2026-04-06T09:35:49Z</time></trkpt><trkpt lat="46.07543275609349" lon="12.3358090135603"><ele>419.0</ele><time>2026-04-06T09:35:50Z</time></trkpt><trkpt lat="46.07551061698682" lon="12.335653003716905"><ele>419.0</ele><time>2026-04-06T09:35:51Z</time></trkpt><trkpt lat="46.07558424324065" lon="12.335502501713346"><ele>419.0</ele><time>2026-04-06T09:35:52Z</time></trkpt><trkpt lat="46.075654991849824" lon="12.335358427498585"><ele>419.0</ele><time>2026-04-06T09:35:53.001Z</time></trkpt><trkpt lat="46.07572693893725" lon="12.335201911245539"><ele>420.75</ele><time>2026-04-06T09:35:54.001Z</time></trkpt><trkpt lat="46.075795080477626" lon="12.335041596006919"><ele>422.5</ele><time>2026-04-06T09:35:55.001Z</time></trkpt><trkpt lat="46.07586705490841" lon="12.334886499991363"><ele>424.25</ele><time>2026-04-06T09:35:56.001Z</time></trkpt><trkpt lat="46.07594291396568" lon="12.334742767228155"><ele>426.0</ele><time>2026-04-06T09:35:57.001Z</time></trkpt><trkpt lat="46.07600837103728" lon="12.334614253344759"><ele>426.0</ele><time>2026-04-06T09:35:58.001Z</time></trkpt><trkpt lat="46.076069046864056" lon="12.33449238056024"><ele>426.0</ele><time>2026-04-06T09:35:59.001Z</time></trkpt><trkpt lat="46.07612966663677" lon="12.334381051351727"><ele>426.0</ele><time>2026-04-06T09:36:00.001Z</time></trkpt><trkpt lat="46.07619231388094" lon="12.334275483946415"><ele>426.0</ele><time>2026-04-06T09:36:01.001Z</time></trkpt><trkpt lat="46.076247716157475" lon="12.334173189786"><ele>426.0</ele><time>2026-04-06T09:36:02Z</time></trkpt><trkpt lat="46.0762953383638" lon="12.334072466873295"><ele>426.0</ele><time>2026-04-06T09:36:03Z</time></trkpt><trkpt lat="46.076343476311" lon="12.333984677635554"><ele>426.0</ele><time>2026-04-06T09:36:04Z</time></trkpt><trkpt lat="46.0764026102536" lon="12.333910531830302"><ele>426.0</ele><time>2026-04-06T09:36:05Z</time></trkpt><trkpt lat="46.07647048560946" lon="12.333863363788192"><ele>426.0</ele><time>2026-04-06T09:36:06Z</time></trkpt><trkpt lat="46.07654712142163" lon="12.333861262645868"><ele>426.0</ele><time>2026-04-06T09:36:07Z</time></trkpt><trkpt lat="46.07662534783069" lon="12.333896307041323"><ele>426.0</ele><time>2026-04-06T09:36:08Z</time></trkpt><trkpt lat="46.07669629288549" lon="12.333977523108837"><ele>428.8</ele><time>2026-04-06T09:36:09Z</time></trkpt><trkpt lat="46.07675327072324" lon="12.334096814987324"><ele>431.6</ele><time>2026-04-06T09:36:10Z</time></trkpt><trkpt lat="46.07679078816225" lon="12.334254850910343"><ele>434.4</ele><time>2026-04-06T09:36:11Z</time></trkpt><trkpt lat="46.07682049564813" lon="12.334406923454017"><ele>437.2</ele><time>2026-04-06T09:36:12Z</time></trkpt><trkpt lat="46.07685999816421" lon="12.334538854741858"><ele>440.0</ele><time>2026-04-06T09:36:13Z</time></trkpt><trkpt lat="46.07688787997335" lon="12.334683467371914"><ele>440.75</ele><time>2026-04-06T09:36:14Z</time></trkpt><trkpt lat="46.07690295598499" lon="12.33485067549932"><ele>441.5</ele><time>2026-04-06T09:36:15Z</time></trkpt><trkpt lat="46.076895839628584" lon="12.335036446860208"><ele>442.25</ele><time>2026-04-06T09:36:16Z</time></trkpt><trkpt lat="46.07688772389464" lon="12.335208615911682"><ele>443.0</ele><time>2026-04-06T09:36:17Z</time></trkpt><trkpt lat="46.076883306525076" lon="12.335399125971506"><ele>443.2</ele><time>2026-04-06T09:36:18Z</time></trkpt><trkpt lat="46.076882873228485" lon="12.33556327824948"><ele>443.4</ele><time>2026-04-06T09:36:19Z</time></trkpt><trkpt lat="46.07688455708464" lon="12.335708992646829"><ele>443.59999999999997</ele><time>2026-04-06T09:36:20Z</time></trkpt><trkpt lat="46.07689389085806" lon="12.335847734227585"><ele>443.79999999999995</ele><time>2026-04-06T09:36:21Z</time></trkpt><trkpt lat="46.07691681712253" lon="12.335979898515092"><ele>444.0</ele><time>2026-04-06T09:36:22Z</time></trkpt><trkpt lat="46.0769626994377" lon="12.33609395926073"><ele>444.0</ele><time>2026-04-06T09:36:23Z</time></trkpt><trkpt lat="46.077029887766514" lon="12.33618426187182"><ele>444.0</ele><time>2026-04-06T09:36:24Z</time></trkpt><trkpt lat="46.07710589207045" lon="12.336248357110371"><ele>444.0</ele><time>2026-04-06T09:36:25Z</time></trkpt><trkpt lat="46.07718321809223" lon="12.336301626523976"><ele>444.0</ele><time>2026-04-06T09:36:26Z</time></trkpt><trkpt lat="46.07726156664889" lon="12.33635563674978"><ele>444.0</ele><time>2026-04-06T09:36:27Z</time></trkpt><trkpt lat="46.077340940793576" lon="12.336407189855736"><ele>444.0</ele><time>2026-04-06T09:36:28Z</time></trkpt><trkpt lat="46.077421662337244" lon="12.336458376659362"><ele>445.79999999999995</ele><time>2026-04-06T09:36:29Z</time></trkpt><trkpt lat="46.07750589487539" lon="12.336521214487158"><ele>447.59999999999997</ele><time>2026-04-06T09:36:30Z</time></trkpt><trkpt lat="46.0775920378164" lon="12.336578200046132"><ele>449.4</ele><time>2026-04-06T09:36:31Z</time></trkpt><trkpt lat="46.07767552849889" lon="12.336632176258613"><ele>451.2</ele><time>2026-04-06T09:36:32Z</time></trkpt><trkpt lat="46.07775464560623" lon="12.33668604818624"><ele>453.0</ele><time>2026-04-06T09:36:33Z</time></trkpt><trkpt lat="46.077830483420136" lon="12.336742809634929"><ele>453.0</ele><time>2026-04-06T09:36:34Z</time></trkpt><trkpt lat="46.077912035808666" lon="12.336795287658145"><ele>452.99999999999994</ele><time>2026-04-06T09:36:35Z</time></trkpt><trkpt lat="46.07800257073385" lon="12.336836673961724"><ele>452.99999999999994</ele><time>2026-04-06T09:36:36Z</time></trkpt><trkpt lat="46.078102354890795" lon="12.336839858148362"><ele>453.0</ele><time>2026-04-06T09:36:37Z</time></trkpt><trkpt lat="46.07819607877439" lon="12.336799369439662"><ele>453.0</ele><time>2026-04-06T09:36:38Z</time></trkpt><trkpt lat="46.07828333965154" lon="12.336749533733668"><ele>455.2</ele><time>2026-04-06T09:36:39Z</time></trkpt><trkpt lat="46.07834340005643" lon="12.336651468550086"><ele>457.4</ele><time>2026-04-06T09:36:40Z</time></trkpt><trkpt lat="46.078388263297136" lon="12.336531809156973"><ele>459.59999999999997</ele><time>2026-04-06T09:36:41Z</time></trkpt><trkpt lat="46.0784001019202" lon="12.3363628201074"><ele>461.79999999999995</ele><time>2026-04-06T09:36:42Z</time></trkpt><trkpt lat="46.07836437207335" lon="12.336220458969986"><ele>464.0</ele><time>2026-04-06T09:36:43Z</time></trkpt><trkpt lat="46.07833894421315" lon="12.336090002036212"><ele>463.6</ele><time>2026-04-06T09:36:44Z</time></trkpt><trkpt lat="46.07825757932632" lon="12.335982556545364"><ele>463.2</ele><time>2026-04-06T09:36:45Z</time></trkpt><trkpt lat="46.07819713465485" lon="12.335857616411838"><ele>462.80000000000007</ele><time>2026-04-06T09:36:46Z</time></trkpt><trkpt lat="46.07812866202959" lon="12.335746933819278"><ele>462.40000000000003</ele><time>2026-04-06T09:36:47Z</time></trkpt><trkpt lat="46.078051961991484" lon="12.335655840332523"><ele>462.0</ele><time>2026-04-06T09:36:48Z</time></trkpt><trkpt lat="46.07799795842898" lon="12.335533739492284"><ele>461.8</ele><time>2026-04-06T09:36:49Z</time></trkpt><trkpt lat="46.0779201130937" lon="12.335432985590474"><ele>461.6</ele><time>2026-04-06T09:36:50Z</time></trkpt><trkpt lat="46.077862414794076" lon="12.335303405273617"><ele>461.40000000000003</ele><time>2026-04-06T09:36:51Z</time></trkpt><trkpt lat="46.077813442014914" lon="12.33517021776373"><ele>461.20000000000005</ele><time>2026-04-06T09:36:52Z</time></trkpt><trkpt lat="46.07780374961806" lon="12.335025308442967"><ele>461.0</ele><time>2026-04-06T09:36:53Z</time></trkpt><trkpt lat="46.07783352655712" lon="12.334884891452473"><ele>461.0</ele><time>2026-04-06T09:36:54Z</time></trkpt><trkpt lat="46.07790098107079" lon="12.334743333696112"><ele>461.0</ele><time>2026-04-06T09:36:55Z</time></trkpt><trkpt lat="46.07795582990888" lon="12.334587175531357"><ele>461.0</ele><time>2026-04-06T09:36:56Z</time></trkpt><trkpt lat="46.07802908962962" lon="12.334473121421514"><ele>461.0</ele><time>2026-04-06T09:36:57Z</time></trkpt><trkpt lat="46.07808107388877" lon="12.334360893725659"><ele>461.0</ele><time>2026-04-06T09:36:58Z</time></trkpt><trkpt lat="46.07812892997528" lon="12.334257578248453"><ele>461.0</ele><time>2026-04-06T09:36:59Z</time></trkpt><trkpt lat="46.07817850539093" lon="12.334150550969806"><ele>461.0</ele><time>2026-04-06T09:37:00Z</time></trkpt><trkpt lat="46.07822514850218" lon="12.334035134979223"><ele>461.0</ele><time>2026-04-06T09:37:01Z</time></trkpt><trkpt lat="46.078305733472924" lon="12.333948238072272"><ele>461.0</ele><time>2026-04-06T09:37:02Z</time></trkpt><trkpt lat="46.07840472134929" lon="12.333887609572308"><ele>461.0</ele><time>2026-04-06T09:37:03Z</time></trkpt><trkpt lat="46.07851337396331" lon="12.333869566644896"><ele>464.0</ele><time>2026-04-06T09:37:04Z</time></trkpt><trkpt lat="46.078620430352125" lon="12.333893600209567"><ele>467.0</ele><time>2026-04-06T09:37:05Z</time></trkpt><trkpt lat="46.07871596862873" lon="12.333968883391886"><ele>470.0</ele><time>2026-04-06T09:37:06Z</time></trkpt><trkpt lat="46.07880336828127" lon="12.334071921462973"><ele>473.0</ele><time>2026-04-06T09:37:07Z</time></trkpt><trkpt lat="46.078874378989276" lon="12.334203430825758"><ele>476.0</ele><time>2026-04-06T09:37:08Z</time></trkpt><trkpt lat="46.07894078747452" lon="12.33434969645263"><ele>476.0</ele><time>2026-04-06T09:37:09Z</time></trkpt><trkpt lat="46.07899481833066" lon="12.334502051495596"><ele>476.0</ele><time>2026-04-06T09:37:10Z</time></trkpt><trkpt lat="46.07905004548341" lon="12.334653623518783"><ele>476.0</ele><time>2026-04-06T09:37:11Z</time></trkpt><trkpt lat="46.07911440362503" lon="12.334816690343969"><ele>476.0</ele><time>2026-04-06T09:37:12Z</time></trkpt><trkpt lat="46.07916236688518" lon="12.334993883888592"><ele>476.5</ele><time>2026-04-06T09:37:13Z</time></trkpt><trkpt lat="46.079207854235314" lon="12.33518015904811"><ele>477.0</ele><time>2026-04-06T09:37:14Z</time></trkpt><trkpt lat="46.07925147719075" lon="12.335363470602694"><ele>477.5</ele><time>2026-04-06T09:37:15Z</time></trkpt><trkpt lat="46.079284867484205" lon="12.335539872976645"><ele>478.0</ele><time>2026-04-06T09:37:16Z</time></trkpt><trkpt lat="46.07932303566416" lon="12.335706720280049"><ele>478.0</ele><time>2026-04-06T09:37:17Z</time></trkpt><trkpt lat="46.079362857718706" lon="12.335870798815554"><ele>478.0</ele><time>2026-04-06T09:37:18Z</time></trkpt><trkpt lat="46.07939732178393" lon="12.336029879164759"><ele>478.0</ele><time>2026-04-06T09:37:19Z</time></trkpt><trkpt lat="46.079432092084716" lon="12.336186012443374"><ele>478.0</ele><time>2026-04-06T09:37:20Z</time></trkpt><trkpt lat="46.07946748970615" lon="12.336339020987849"><ele>478.75</ele><time>2026-04-06T09:37:21Z</time></trkpt><trkpt lat="46.07952452694571" lon="12.336477521673183"><ele>479.5</ele><time>2026-04-06T09:37:22Z</time></trkpt><trkpt lat="46.07960727752582" lon="12.336599841130768"><ele>480.25</ele><time>2026-04-06T09:37:23Z</time></trkpt><trkpt lat="46.07970777988965" lon="12.336682531825828"><ele>481.0</ele><time>2026-04-06T09:37:24Z</time></trkpt><trkpt lat="46.07982580154234" lon="12.336728361272606"><ele>484.0</ele><time>2026-04-06T09:37:25Z</time></trkpt><trkpt lat="46.07994958879122" lon="12.336737724982763"><ele>487.0</ele><time>2026-04-06T09:37:26Z</time></trkpt><trkpt lat="46.08007861028646" lon="12.336715618398399"><ele>490.0</ele><time>2026-04-06T09:37:27Z</time></trkpt><trkpt lat="46.08020120657619" lon="12.33668618974675"><ele>493.0</ele><time>2026-04-06T09:37:28Z</time></trkpt><trkpt lat="46.08031098703783" lon="12.336648401043071"><ele>493.0</ele><time>2026-04-06T09:37:29Z</time></trkpt><trkpt lat="46.08042573157615" lon="12.336614314858624"><ele>492.99999999999994</ele><time>2026-04-06T09:37:30Z</time></trkpt><trkpt lat="46.08054055098394" lon="12.336577708170873"><ele>492.99999999999994</ele><time>2026-04-06T09:37:31Z</time></trkpt><trkpt lat="46.08064531404589" lon="12.336544564837173"><ele>493.0</ele><time>2026-04-06T09:37:32Z</time></trkpt><trkpt lat="46.0807428182317" lon="12.33651386101037"><ele>493.0</ele><time>2026-04-06T09:37:33Z</time></trkpt><trkpt lat="46.08083369706278" lon="12.33648676038754"><ele>492.6666666666667</ele><time>2026-04-06T09:37:34Z</time></trkpt><trkpt lat="46.08092480310129" lon="12.336459126654074"><ele>492.33333333333337</ele><time>2026-04-06T09:37:35Z</time></trkpt><trkpt lat="46.08100945759805" lon="12.336451782659527"><ele>492.0</ele><time>2026-04-06T09:37:36Z</time></trkpt><trkpt lat="46.081088293057476" lon="12.336443547335517"><ele>491.66666666666663</ele><time>2026-04-06T09:37:37Z</time></trkpt><trkpt lat="46.08116026593859" lon="12.33643120460299"><ele>491.3333333333333</ele><time>2026-04-06T09:37:38Z</time></trkpt><trkpt lat="46.08122491188899" lon="12.336428271200985"><ele>491.0</ele><time>2026-04-06T09:37:39Z</time></trkpt><trkpt lat="46.08134065287648" lon="12.336402760432026"><ele>492.0</ele><time>2026-04-06T09:37:41Z</time></trkpt><trkpt lat="46.08145198885848" lon="12.336345564298279"><ele>493.0</ele><time>2026-04-06T09:37:43Z</time></trkpt><trkpt lat="46.081535245478065" lon="12.336302025448955"><ele>494.0</ele><time>2026-04-06T09:37:45Z</time></trkpt><trkpt lat="46.08159072750012" lon="12.336247441726922"><ele>495.0</ele><time>2026-04-06T09:39:05Z</time></trkpt><trkpt lat="46.08168911617218" lon="12.3361616161263"><ele>496.0</ele><time>2026-04-06T09:39:07Z</time></trkpt><trkpt lat="46.08179120054561" lon="12.336129031611522"><ele>496.0</ele><time>2026-04-06T09:39:08Z</time></trkpt><trkpt lat="46.08188640881354" lon="12.33609845241313"><ele>496.0</ele><time>2026-04-06T09:39:09Z</time></trkpt><trkpt lat="46.08201007867051" lon="12.336053614117889"><ele>496.0</ele><time>2026-04-06T09:39:10Z</time></trkpt><trkpt lat="46.08214009907087" lon="12.33602243067028"><ele>496.0</ele><time>2026-04-06T09:39:11Z</time></trkpt><trkpt lat="46.082264465833475" lon="12.336002275339245"><ele>496.0</ele><time>2026-04-06T09:39:12Z</time></trkpt><trkpt lat="46.082399431707074" lon="12.335963161092549"><ele>496.0</ele><time>2026-04-06T09:39:13Z</time></trkpt><trkpt lat="46.08265115973957" lon="12.335843910017271"><ele>496.0</ele><time>2026-04-06T09:39:14Z</time></trkpt><trkpt lat="46.08287912814637" lon="12.335803249099095"><ele>494.0</ele><time>2026-04-06T09:39:15Z</time></trkpt><trkpt lat="46.083088623180394" lon="12.33579935806923"><ele>492.0</ele><time>2026-04-06T09:39:16Z</time></trkpt><trkpt lat="46.083281582402144" lon="12.335795249427754"><ele>490.0</ele><time>2026-04-06T09:39:17Z</time></trkpt><trkpt lat="46.08345800883831" lon="12.335810575767994"><ele>488.0</ele><time>2026-04-06T09:39:18Z</time></trkpt><trkpt lat="46.08361688774086" lon="12.335836140753825"><ele>486.0</ele><time>2026-04-06T09:39:19Z</time></trkpt><trkpt lat="46.08376765193554" lon="12.335848875885672"><ele>484.0</ele><time>2026-04-06T09:39:20Z</time></trkpt><trkpt lat="46.08392496273558" lon="12.335892119738206"><ele>484.0</ele><time>2026-04-06T09:39:21Z</time></trkpt><trkpt lat="46.08409630808512" lon="12.335993576581805"><ele>484.0</ele><time>2026-04-06T09:39:22Z</time></trkpt><trkpt lat="46.084246991244015" lon="12.336127259474898"><ele>484.0</ele><time>2026-04-06T09:39:23Z</time></trkpt><trkpt lat="46.08439811347292" lon="12.336311842698205"><ele>484.6666666666667</ele><time>2026-04-06T09:39:24Z</time></trkpt><trkpt lat="46.084548814374735" lon="12.336560208677813"><ele>485.33333333333337</ele><time>2026-04-06T09:39:25Z</time></trkpt><trkpt lat="46.08468542725406" lon="12.336787845313173"><ele>486.0</ele><time>2026-04-06T09:39:26Z</time></trkpt><trkpt lat="46.08482314893622" lon="12.33699394288281"><ele>485.0</ele><time>2026-04-06T09:39:27Z</time></trkpt><trkpt lat="46.08494172396419" lon="12.337195326366883"><ele>484.0</ele><time>2026-04-06T09:39:28Z</time></trkpt><trkpt lat="46.08505083893626" lon="12.33736328241242"><ele>483.0</ele><time>2026-04-06T09:39:29Z</time></trkpt><trkpt lat="46.085165117419116" lon="12.337488613769558"><ele>483.0</ele><time>2026-04-06T09:39:30Z</time></trkpt><trkpt lat="46.08529692349383" lon="12.33755899496967"><ele>483.0</ele><time>2026-04-06T09:39:31Z</time></trkpt><trkpt lat="46.08543564892754" lon="12.337575579573375"><ele>483.0</ele><time>2026-04-06T09:39:32Z</time></trkpt><trkpt lat="46.08557930044665" lon="12.337548667225994"><ele>483.0</ele><time>2026-04-06T09:39:33Z</time></trkpt><trkpt lat="46.08571251023028" lon="12.337487017931595"><ele>477.75</ele><time>2026-04-06T09:39:34Z</time></trkpt><trkpt lat="46.08582010379364" lon="12.337375857898316"><ele>472.5</ele><time>2026-04-06T09:39:35Z</time></trkpt><trkpt lat="46.08590307961776" lon="12.337225768718602"><ele>467.25</ele><time>2026-04-06T09:39:36Z</time></trkpt><trkpt lat="46.0859596168573" lon="12.337024972113747"><ele>462.0</ele><time>2026-04-06T09:39:37Z</time></trkpt><trkpt lat="46.08597282372577" lon="12.336795030024621"><ele>459.0</ele><time>2026-04-06T09:39:38Z</time></trkpt><trkpt lat="46.08595425048595" lon="12.336558761488634"><ele>456.0</ele><time>2026-04-06T09:39:39Z</time></trkpt><trkpt lat="46.08591813301135" lon="12.336324151067338"><ele>453.0</ele><time>2026-04-06T09:39:40Z</time></trkpt><trkpt lat="46.08587604788" lon="12.336035728105461"><ele>452.66666666666663</ele><time>2026-04-06T09:39:41Z</time></trkpt><trkpt lat="46.08584390684082" lon="12.335781996079275"><ele>452.3333333333333</ele><time>2026-04-06T09:39:42Z</time></trkpt><trkpt lat="46.085804266902734" lon="12.335542186582867"><ele>452.0</ele><time>2026-04-06T09:39:43Z</time></trkpt><trkpt lat="46.08580906431185" lon="12.335299983832618"><ele>453.3333333333333</ele><time>2026-04-06T09:39:44Z</time></trkpt><trkpt lat="46.085834515814696" lon="12.335033485003168"><ele>454.66666666666663</ele><time>2026-04-06T09:39:45Z</time></trkpt><trkpt lat="46.08590023640414" lon="12.334771954450627"><ele>456.0</ele><time>2026-04-06T09:39:46Z</time></trkpt><trkpt lat="46.08599005600118" lon="12.334529463186925"><ele>458.66666666666663</ele><time>2026-04-06T09:39:47Z</time></trkpt><trkpt lat="46.08607524771125" lon="12.33427989351958"><ele>461.3333333333333</ele><time>2026-04-06T09:39:48Z</time></trkpt><trkpt lat="46.08623137973265" lon="12.334104275708388"><ele>464.0</ele><time>2026-04-06T09:39:49Z</time></trkpt><trkpt lat="46.08640775493214" lon="12.333960582757657"><ele>463.66666666666663</ele><time>2026-04-06T09:39:50Z</time></trkpt><trkpt lat="46.0866065441916" lon="12.333873939880894"><ele>463.33333333333337</ele><time>2026-04-06T09:39:51Z</time></trkpt><trkpt lat="46.08683106766286" lon="12.333892329224385"><ele>463.0</ele><time>2026-04-06T09:39:52Z</time></trkpt><trkpt lat="46.08707003340221" lon="12.333893928950804"><ele>455.5</ele><time>2026-04-06T09:39:53Z</time></trkpt><trkpt lat="46.08731307049134" lon="12.333906273151046"><ele>448.0</ele><time>2026-04-06T09:39:54Z</time></trkpt><trkpt lat="46.08752929170563" lon="12.333917432170086"><ele>446.0</ele><time>2026-04-06T09:39:55Z</time></trkpt><trkpt lat="46.0877267692814" lon="12.333927264697092"><ele>444.0</ele><time>2026-04-06T09:39:56Z</time></trkpt><trkpt lat="46.087882043301484" lon="12.333907047871415"><ele>442.0</ele><time>2026-04-06T09:39:57Z</time></trkpt><trkpt lat="46.088024859594064" lon="12.333926019527981"><ele>442.0</ele><time>2026-04-06T09:39:58Z</time></trkpt><trkpt lat="46.08816431544852" lon="12.33390787392852"><ele>442.0</ele><time>2026-04-06T09:39:59Z</time></trkpt><trkpt lat="46.088302766547656" lon="12.33390067424494"><ele>442.0</ele><time>2026-04-06T09:40:00Z</time></trkpt><trkpt lat="46.088441111118755" lon="12.333889966537189"><ele>442.0</ele><time>2026-04-06T09:40:01Z</time></trkpt><trkpt lat="46.08858134791024" lon="12.33392460626902"><ele>440.0</ele><time>2026-04-06T09:40:02Z</time></trkpt><trkpt lat="46.088717028035504" lon="12.333994773903344"><ele>438.0</ele><time>2026-04-06T09:40:03Z</time></trkpt><trkpt lat="46.088842891615194" lon="12.334143420242007"><ele>436.0</ele><time>2026-04-06T09:40:04Z</time></trkpt><trkpt lat="46.0889483538319" lon="12.334366803192943"><ele>436.0</ele><time>2026-04-06T09:40:05Z</time></trkpt><trkpt lat="46.08908068936317" lon="12.334500579048534"><ele>436.0</ele><time>2026-04-06T09:40:06Z</time></trkpt><trkpt lat="46.08923483309026" lon="12.334588154886152"><ele>436.0</ele><time>2026-04-06T09:40:07Z</time></trkpt><trkpt lat="46.08936586685329" lon="12.334723242782351"><ele>434.5</ele><time>2026-04-06T09:40:08Z</time></trkpt><trkpt lat="46.08949985048066" lon="12.33480719793705"><ele>433.0</ele><time>2026-04-06T09:40:09Z</time></trkpt><trkpt lat="46.08961487815735" lon="12.33488627362859"><ele>431.5</ele><time>2026-04-06T09:40:10Z</time></trkpt><trkpt lat="46.08971130929489" lon="12.33495715582369"><ele>430.0</ele><time>2026-04-06T09:40:11Z</time></trkpt><trkpt lat="46.08979659832109" lon="12.335019997610738"><ele>430.0</ele><time>2026-04-06T09:40:12Z</time></trkpt><trkpt lat="46.08988287066448" lon="12.335028315283814"><ele>430.0</ele><time>2026-04-06T09:40:13Z</time></trkpt><trkpt lat="46.08997266406364" lon="12.334973620951487"><ele>430.0</ele><time>2026-04-06T09:40:14Z</time></trkpt><trkpt lat="46.09002821627123" lon="12.334851373860639"><ele>430.0</ele><time>2026-04-06T09:40:15Z</time></trkpt><trkpt lat="46.0900526442305" lon="12.334694234036228"><ele>430.0</ele><time>2026-04-06T09:40:16Z</time></trkpt><trkpt lat="46.0900394033344" lon="12.334523474752617"><ele>430.0</ele><time>2026-04-06T09:40:17Z</time></trkpt><trkpt lat="46.08999286882135" lon="12.33433997604231"><ele>430.0</ele><time>2026-04-06T09:40:18Z</time></trkpt><trkpt lat="46.089954848591184" lon="12.33414323739514"><ele>430.0</ele><time>2026-04-06T09:40:19Z</time></trkpt><trkpt lat="46.08995848885977" lon="12.333973080332742"><ele>430.0</ele><time>2026-04-06T09:40:20Z</time></trkpt><trkpt lat="46.08996835704326" lon="12.333817761283559"><ele>433.75</ele><time>2026-04-06T09:40:21Z</time></trkpt><trkpt lat="46.09001792200086" lon="12.3336652453835"><ele>437.5</ele><time>2026-04-06T09:40:22Z</time></trkpt><trkpt lat="46.090106365723976" lon="12.333615207325133"><ele>441.25</ele><time>2026-04-06T09:40:23Z</time></trkpt><trkpt lat="46.090216345879405" lon="12.333588567794072"><ele>445.0</ele><time>2026-04-06T09:40:24Z</time></trkpt><trkpt lat="46.090372663172346" lon="12.333565086790832"><ele>445.0</ele><time>2026-04-06T09:40:25Z</time></trkpt><trkpt lat="46.09051150580068" lon="12.333504614460765"><ele>445.0</ele><time>2026-04-06T09:40:26Z</time></trkpt><trkpt lat="46.090638412324076" lon="12.333371956294107"><ele>445.0</ele><time>2026-04-06T09:40:27Z</time></trkpt><trkpt lat="46.09076668190985" lon="12.333211198032181"><ele>443.5</ele><time>2026-04-06T09:40:28Z</time></trkpt><trkpt lat="46.09089886803755" lon="12.333075533593654"><ele>442.0</ele><time>2026-04-06T09:40:29Z</time></trkpt><trkpt lat="46.09101306132719" lon="12.332948678218605"><ele>440.5</ele><time>2026-04-06T09:40:30Z</time></trkpt><trkpt lat="46.09112389424334" lon="12.33282627045006"><ele>439.0</ele><time>2026-04-06T09:40:31Z</time></trkpt><trkpt lat="46.09122494118431" lon="12.332703255914426"><ele>439.0</ele><time>2026-04-06T09:40:32Z</time></trkpt><trkpt lat="46.091302705252474" lon="12.332555940588524"><ele>439.0</ele><time>2026-04-06T09:40:33Z</time></trkpt><trkpt lat="46.09139699809998" lon="12.332437487103444"><ele>439.0</ele><time>2026-04-06T09:40:34Z</time></trkpt><trkpt lat="46.091475446268845" lon="12.332308088956326"><ele>439.0</ele><time>2026-04-06T09:40:35Z</time></trkpt><trkpt lat="46.0915504129663" lon="12.332184433892214"><ele>435.75</ele><time>2026-04-06T09:40:36Z</time></trkpt><trkpt lat="46.09162469959669" lon="12.332061000794457"><ele>432.5</ele><time>2026-04-06T09:40:37Z</time></trkpt><trkpt lat="46.09170054884105" lon="12.33193476069331"><ele>429.25</ele><time>2026-04-06T09:40:38Z</time></trkpt><trkpt lat="46.09178588384081" lon="12.331781093015662"><ele>426.0</ele><time>2026-04-06T09:40:39Z</time></trkpt><trkpt lat="46.09185800060193" lon="12.331597880643514"><ele>426.0</ele><time>2026-04-06T09:40:40Z</time></trkpt><trkpt lat="46.09191743842701" lon="12.331403551439791"><ele>426.0</ele><time>2026-04-06T09:40:41Z</time></trkpt><trkpt lat="46.09194525861465" lon="12.331132666258267"><ele>426.0</ele><time>2026-04-06T09:40:42Z</time></trkpt><trkpt lat="46.09199454625163" lon="12.330873207077145"><ele>426.5</ele><time>2026-04-06T09:40:43Z</time></trkpt><trkpt lat="46.0920281481389" lon="12.330631948329717"><ele>427.0</ele><time>2026-04-06T09:40:44Z</time></trkpt><trkpt lat="46.0920758725363" lon="12.330439166072168"><ele>427.5</ele><time>2026-04-06T09:40:45Z</time></trkpt><trkpt lat="46.0921391693721" lon="12.330286723840644"><ele>428.0</ele><time>2026-04-06T09:40:46Z</time></trkpt><trkpt lat="46.092218522128704" lon="12.330146358809742"><ele>428.5</ele><time>2026-04-06T09:40:47Z</time></trkpt><trkpt lat="46.09230751775608" lon="12.330033022644193"><ele>429.0</ele><time>2026-04-06T09:40:48Z</time></trkpt><trkpt lat="46.09241003577508" lon="12.329892392008933"><ele>429.5</ele><time>2026-04-06T09:40:49Z</time></trkpt><trkpt lat="46.09251323285438" lon="12.329744367734703"><ele>430.0</ele><time>2026-04-06T09:40:50Z</time></trkpt><trkpt lat="46.09263948091343" lon="12.329649586062358"><ele>427.0</ele><time>2026-04-06T09:40:51Z</time></trkpt><trkpt lat="46.092768907713854" lon="12.329604121202408"><ele>424.0</ele><time>2026-04-06T09:40:52Z</time></trkpt><trkpt lat="46.092885033297584" lon="12.329524066187142"><ele>421.0</ele><time>2026-04-06T09:40:53Z</time></trkpt><trkpt lat="46.093001391348224" lon="12.329458293921618"><ele>418.0</ele><time>2026-04-06T09:40:54Z</time></trkpt><trkpt lat="46.093103299078095" lon="12.329404235667248"><ele>418.00000000000006</ele><time>2026-04-06T09:40:55Z</time></trkpt><trkpt lat="46.09317336520457" lon="12.329358996527896"><ele>418.0</ele><time>2026-04-06T09:40:56Z</time></trkpt><trkpt lat="46.093243844076255" lon="12.329310568412323"><ele>418.0</ele><time>2026-04-06T09:40:57Z</time></trkpt><trkpt lat="46.09330701812968" lon="12.329241812608077"><ele>418.0</ele><time>2026-04-06T09:40:58Z</time></trkpt><trkpt lat="46.09335984723919" lon="12.329172864549761"><ele>418.00000000000006</ele><time>2026-04-06T09:40:59Z</time></trkpt><trkpt lat="46.09342036771884" lon="12.329075484737698"><ele>418.0</ele><time>2026-04-06T09:41:01Z</time></trkpt><trkpt lat="46.09346428398083" lon="12.32900703013724"><ele>418.0</ele><time>2026-04-06T09:41:07Z</time></trkpt><trkpt lat="46.09341587347867" lon="12.32909510952523"><ele>418.0</ele><time>2026-04-06T09:41:12Z</time></trkpt><trkpt lat="46.09336974375773" lon="12.3291755363786"><ele>418.0</ele><time>2026-04-06T09:41:14Z</time></trkpt><trkpt lat="46.09334945501726" lon="12.329289306815657"><ele>418.0</ele><time>2026-04-06T09:41:15Z</time></trkpt><trkpt lat="46.093201773526275" lon="12.32930492959287"><ele>418.0</ele><time>2026-04-06T09:41:16Z</time></trkpt><trkpt lat="46.0930882852789" lon="12.329391414877408"><ele>418.0</ele><time>2026-04-06T09:41:17Z</time></trkpt><trkpt lat="46.09295219072251" lon="12.32946382501794"><ele>418.0</ele><time>2026-04-06T09:41:18Z</time></trkpt><trkpt lat="46.09278919943891" lon="12.32953745475157"><ele>418.0</ele><time>2026-04-06T09:41:19Z</time></trkpt><trkpt lat="46.09264204145937" lon="12.329620936128054"><ele>418.0</ele><time>2026-04-06T09:41:20Z</time></trkpt><trkpt lat="46.09249429687573" lon="12.329722562177562"><ele>418.0</ele><time>2026-04-06T09:41:21Z</time></trkpt><trkpt lat="46.09234439756107" lon="12.329878374102323"><ele>418.0</ele><time>2026-04-06T09:41:22Z</time></trkpt><trkpt lat="46.09222399487737" lon="12.330056900307204"><ele>420.5</ele><time>2026-04-06T09:41:23Z</time></trkpt><trkpt lat="46.092123312012674" lon="12.330207678064301"><ele>423.0</ele><time>2026-04-06T09:41:24Z</time></trkpt><trkpt lat="46.092039849592474" lon="12.330357658919898"><ele>425.5</ele><time>2026-04-06T09:41:25Z</time></trkpt><trkpt lat="46.09198438733881" lon="12.330553668325528"><ele>428.0</ele><time>2026-04-06T09:41:26Z</time></trkpt><trkpt lat="46.09194186208796" lon="12.330794773948206"><ele>428.0</ele><time>2026-04-06T09:41:27Z</time></trkpt><trkpt lat="46.09191933314633" lon="12.33107842894001"><ele>428.0</ele><time>2026-04-06T09:41:28Z</time></trkpt><trkpt lat="46.09188408493474" lon="12.331333220272315"><ele>428.0</ele><time>2026-04-06T09:41:29Z</time></trkpt><trkpt lat="46.091841019308085" lon="12.331564313438568"><ele>427.3333333333333</ele><time>2026-04-06T09:41:30Z</time></trkpt><trkpt lat="46.09175584216324" lon="12.331782606742307"><ele>426.66666666666663</ele><time>2026-04-06T09:41:31Z</time></trkpt><trkpt lat="46.09162897400926" lon="12.332004155994053"><ele>426.0</ele><time>2026-04-06T09:41:32Z</time></trkpt><trkpt lat="46.09147126948376" lon="12.332223262949682"><ele>430.33333333333337</ele><time>2026-04-06T09:41:33Z</time></trkpt><trkpt lat="46.09133141403603" lon="12.332437961854108"><ele>434.6666666666667</ele><time>2026-04-06T09:41:34Z</time></trkpt><trkpt lat="46.09121317717175" lon="12.332648763679282"><ele>439.0</ele><time>2026-04-06T09:41:35Z</time></trkpt><trkpt lat="46.0910576230721" lon="12.332839101132114"><ele>439.0</ele><time>2026-04-06T09:41:36Z</time></trkpt><trkpt lat="46.09088580547634" lon="12.333051444336759"><ele>439.0</ele><time>2026-04-06T09:41:37Z</time></trkpt><trkpt lat="46.09071806893916" lon="12.333211991396556"><ele>439.0</ele><time>2026-04-06T09:41:38Z</time></trkpt><trkpt lat="46.09058398082043" lon="12.333365461332724"><ele>440.5</ele><time>2026-04-06T09:41:39Z</time></trkpt><trkpt lat="46.09047807704689" lon="12.333481466228328"><ele>442.0</ele><time>2026-04-06T09:41:40Z</time></trkpt><trkpt lat="46.09034316896417" lon="12.333532654330373"><ele>443.5</ele><time>2026-04-06T09:41:41Z</time></trkpt><trkpt lat="46.09019344549837" lon="12.33354649757053"><ele>445.0</ele><time>2026-04-06T09:41:42Z</time></trkpt><trkpt lat="46.09006068631319" lon="12.333587723394443"><ele>445.0</ele><time>2026-04-06T09:41:43Z</time></trkpt><trkpt lat="46.08996205626758" lon="12.33366687180295"><ele>445.0</ele><time>2026-04-06T09:41:44Z</time></trkpt><trkpt lat="46.089902502351435" lon="12.333820078832314"><ele>445.0</ele><time>2026-04-06T09:41:45Z</time></trkpt><trkpt lat="46.08987842196973" lon="12.333991686259742"><ele>445.0</ele><time>2026-04-06T09:41:46Z</time></trkpt><trkpt lat="46.08990228002377" lon="12.334200970091773"><ele>441.25</ele><time>2026-04-06T09:41:47Z</time></trkpt><trkpt lat="46.089935036088555" lon="12.334411181796693"><ele>437.5</ele><time>2026-04-06T09:41:48Z</time></trkpt><trkpt lat="46.08998073164148" lon="12.334584096546532"><ele>433.75</ele><time>2026-04-06T09:41:49Z</time></trkpt><trkpt lat="46.08999909367614" lon="12.334742043206912"><ele>430.0</ele><time>2026-04-06T09:41:50Z</time></trkpt><trkpt lat="46.08995158565627" lon="12.334881497064503"><ele>430.0</ele><time>2026-04-06T09:41:51Z</time></trkpt><trkpt lat="46.08986758451368" lon="12.334966305934525"><ele>430.0</ele><time>2026-04-06T09:41:52Z</time></trkpt><trkpt lat="46.08976002299124" lon="12.334984843635599"><ele>430.0</ele><time>2026-04-06T09:41:53Z</time></trkpt><trkpt lat="46.08964986940744" lon="12.334937045691127"><ele>430.0</ele><time>2026-04-06T09:41:54Z</time></trkpt><trkpt lat="46.08955413478668" lon="12.334790149952603"><ele>432.0</ele><time>2026-04-06T09:41:55Z</time></trkpt><trkpt lat="46.0894042117781" lon="12.33470075276469"><ele>434.0</ele><time>2026-04-06T09:41:56Z</time></trkpt><trkpt lat="46.08923312465321" lon="12.33458245188613"><ele>436.0</ele><time>2026-04-06T09:41:57Z</time></trkpt><trkpt lat="46.08905837078008" lon="12.334422097887808"><ele>436.0</ele><time>2026-04-06T09:41:58Z</time></trkpt><trkpt lat="46.08891115448114" lon="12.334255263347215"><ele>436.0</ele><time>2026-04-06T09:41:59Z</time></trkpt><trkpt lat="46.08879009249485" lon="12.334090400225767"><ele>436.0</ele><time>2026-04-06T09:42:00Z</time></trkpt><trkpt lat="46.088660905411054" lon="12.33397242032836"><ele>441.6666666666667</ele><time>2026-04-06T09:42:01Z</time></trkpt><trkpt lat="46.088529465517155" lon="12.333878825676523"><ele>447.33333333333337</ele><time>2026-04-06T09:42:02Z</time></trkpt><trkpt lat="46.08837106545915" lon="12.333859873432587"><ele>453.0</ele><time>2026-04-06T09:42:03Z</time></trkpt><trkpt lat="46.08817301082282" lon="12.33384972690891"><ele>454.66666666666663</ele><time>2026-04-06T09:42:04Z</time></trkpt><trkpt lat="46.087969718961816" lon="12.333886192928734"><ele>456.3333333333333</ele><time>2026-04-06T09:42:05Z</time></trkpt><trkpt lat="46.0877684792313" lon="12.33390081445472"><ele>458.0</ele><time>2026-04-06T09:42:06Z</time></trkpt><trkpt lat="46.08757694883757" lon="12.333882104195377"><ele>459.66666666666663</ele><time>2026-04-06T09:42:07Z</time></trkpt><trkpt lat="46.08737364061249" lon="12.333867678225525"><ele>461.33333333333337</ele><time>2026-04-06T09:42:08Z</time></trkpt><trkpt lat="46.08716061217324" lon="12.333864244273784"><ele>463.0</ele><time>2026-04-06T09:42:09Z</time></trkpt><trkpt lat="46.086956571963334" lon="12.333849064728328"><ele>463.0</ele><time>2026-04-06T09:42:10Z</time></trkpt><trkpt lat="46.086772104657946" lon="12.333829799061704"><ele>463.0</ele><time>2026-04-06T09:42:11Z</time></trkpt><trkpt lat="46.08659495177432" lon="12.333848176479064"><ele>463.0</ele><time>2026-04-06T09:42:12Z</time></trkpt><trkpt lat="46.08641660513681" lon="12.333918681237979"><ele>463.33333333333337</ele><time>2026-04-06T09:42:13Z</time></trkpt><trkpt lat="46.086248746101745" lon="12.334044293458993"><ele>463.66666666666663</ele><time>2026-04-06T09:42:14Z</time></trkpt><trkpt lat="46.08609649273046" lon="12.33420891308557"><ele>464.0</ele><time>2026-04-06T09:42:15Z</time></trkpt><trkpt lat="46.085971094857015" lon="12.334413257052885"><ele>464.0</ele><time>2026-04-06T09:42:16Z</time></trkpt><trkpt lat="46.085870667713486" lon="12.334644486161139"><ele>464.0</ele><time>2026-04-06T09:42:17Z</time></trkpt><trkpt lat="46.08579424686315" lon="12.33489100984242"><ele>464.0</ele><time>2026-04-06T09:42:18Z</time></trkpt><trkpt lat="46.08575532618859" lon="12.335150230967633"><ele>466.3333333333333</ele><time>2026-04-06T09:42:19Z</time></trkpt><trkpt lat="46.08574897246457" lon="12.33542582125159"><ele>468.66666666666663</ele><time>2026-04-06T09:42:20Z</time></trkpt><trkpt lat="46.08577532448691" lon="12.33572692741265"><ele>471.0</ele><time>2026-04-06T09:42:21Z</time></trkpt><trkpt lat="46.085813935892276" lon="12.336020896602967"><ele>465.0</ele><time>2026-04-06T09:42:22Z</time></trkpt><trkpt lat="46.0858564842841" lon="12.33627868717253"><ele>459.0</ele><time>2026-04-06T09:42:23Z</time></trkpt><trkpt lat="46.08589322459581" lon="12.336502055935473"><ele>453.0</ele><time>2026-04-06T09:42:24Z</time></trkpt><trkpt lat="46.08593064498346" lon="12.336704868180869"><ele>453.0</ele><time>2026-04-06T09:42:25Z</time></trkpt><trkpt lat="46.08593930774249" lon="12.336904155355352"><ele>453.0</ele><time>2026-04-06T09:42:26Z</time></trkpt><trkpt lat="46.08590921535774" lon="12.337095319254772"><ele>453.0</ele><time>2026-04-06T09:42:27Z</time></trkpt><trkpt lat="46.08582774986425" lon="12.337272832015152"><ele>453.0</ele><time>2026-04-06T09:42:28Z</time></trkpt><trkpt lat="46.085713583519976" lon="12.337416068855818"><ele>460.5</ele><time>2026-04-06T09:42:29Z</time></trkpt><trkpt lat="46.08558826066206" lon="12.337502335492779"><ele>468.0</ele><time>2026-04-06T09:42:30Z</time></trkpt><trkpt lat="46.08544726120144" lon="12.337535096195886"><ele>475.5</ele><time>2026-04-06T09:42:31Z</time></trkpt><trkpt lat="46.08529490799351" lon="12.337487740814376"><ele>483.0</ele><time>2026-04-06T09:42:32Z</time></trkpt><trkpt lat="46.085160390854995" lon="12.337391063450484"><ele>483.0</ele><time>2026-04-06T09:42:33Z</time></trkpt><trkpt lat="46.085045520149336" lon="12.337246196805225"><ele>483.0</ele><time>2026-04-06T09:42:34Z</time></trkpt><trkpt lat="46.08492566699348" lon="12.33705408619294"><ele>483.0</ele><time>2026-04-06T09:42:35Z</time></trkpt><trkpt lat="46.08478151101916" lon="12.336854562943055"><ele>484.0</ele><time>2026-04-06T09:42:36Z</time></trkpt><trkpt lat="46.08465185504561" lon="12.336647260642492"><ele>485.0</ele><time>2026-04-06T09:42:37Z</time></trkpt><trkpt lat="46.08455530977831" lon="12.33646261646334"><ele>486.0</ele><time>2026-04-06T09:42:38Z</time></trkpt><trkpt lat="46.084452426871046" lon="12.336304442689366"><ele>485.33333333333337</ele><time>2026-04-06T09:42:39Z</time></trkpt><trkpt lat="46.08432370692347" lon="12.336154264310332"><ele>484.6666666666667</ele><time>2026-04-06T09:42:40Z</time></trkpt><trkpt lat="46.084184465333884" lon="12.33600281495256"><ele>484.0</ele><time>2026-04-06T09:42:41Z</time></trkpt><trkpt lat="46.08403889717239" lon="12.335883385982255"><ele>484.0</ele><time>2026-04-06T09:42:42Z</time></trkpt><trkpt lat="46.08388228540779" lon="12.335824624932698"><ele>484.0</ele><time>2026-04-06T09:42:43Z</time></trkpt><trkpt lat="46.083720778460375" lon="12.335788408244916"><ele>484.0</ele><time>2026-04-06T09:42:44Z</time></trkpt><trkpt lat="46.08355449809253" lon="12.335778183818421"><ele>484.0</ele><time>2026-04-06T09:42:45Z</time></trkpt><trkpt lat="46.08338545897329" lon="12.335770409923693"><ele>484.0</ele><time>2026-04-06T09:42:46Z</time></trkpt><trkpt lat="46.08320867727514" lon="12.335753531740332"><ele>484.0</ele><time>2026-04-06T09:42:47Z</time></trkpt><trkpt lat="46.08302053104295" lon="12.33574916231802"><ele>486.0</ele><time>2026-04-06T09:42:48Z</time></trkpt><trkpt lat="46.082841750588486" lon="12.335759451362966"><ele>488.0</ele><time>2026-04-06T09:42:49Z</time></trkpt><trkpt lat="46.08268159424264" lon="12.335774394906975"><ele>490.0</ele><time>2026-04-06T09:42:50Z</time></trkpt><trkpt lat="46.08254127911487" lon="12.335809313366823"><ele>491.5</ele><time>2026-04-06T09:42:51Z</time></trkpt><trkpt lat="46.08241699205383" lon="12.335854864054133"><ele>493.0</ele><time>2026-04-06T09:42:52Z</time></trkpt><trkpt lat="46.08229951873491" lon="12.335892612121192"><ele>494.5</ele><time>2026-04-06T09:42:53Z</time></trkpt><trkpt lat="46.08219788385136" lon="12.33592575835914"><ele>496.0</ele><time>2026-04-06T09:42:54Z</time></trkpt><trkpt lat="46.08210046313109" lon="12.335960623327"><ele>496.0</ele><time>2026-04-06T09:42:55Z</time></trkpt><trkpt lat="46.0820041414387" lon="12.336001384757662"><ele>496.0</ele><time>2026-04-06T09:42:56Z</time></trkpt><trkpt lat="46.08189862623255" lon="12.336042451950677"><ele>496.0</ele><time>2026-04-06T09:42:57Z</time></trkpt><trkpt lat="46.08179632137444" lon="12.336070802300737"><ele>496.0</ele><time>2026-04-06T09:42:58Z</time></trkpt><trkpt lat="46.08171504904899" lon="12.336117161444145"><ele>496.0</ele><time>2026-04-06T09:42:59Z</time></trkpt><trkpt lat="46.08164863998659" lon="12.336142635443727"><ele>495.1666666666667</ele><time>2026-04-06T09:43:00Z</time></trkpt><trkpt lat="46.081570609955186" lon="12.336164658521373"><ele>494.33333333333337</ele><time>2026-04-06T09:43:02Z</time></trkpt><trkpt lat="46.08149526773983" lon="12.336214832690326"><ele>493.5</ele><time>2026-04-06T09:43:08Z</time></trkpt><trkpt lat="46.08141575917444" lon="12.336224402766515"><ele>492.66666666666663</ele><time>2026-04-06T09:43:11Z</time></trkpt><trkpt lat="46.081407817252014" lon="12.336391192267572"><ele>491.8333333333333</ele><time>2026-04-06T09:43:12Z</time></trkpt><trkpt lat="46.08138018640014" lon="12.336475459153705"><ele>491.0</ele><time>2026-04-06T09:44:13Z</time></trkpt><trkpt lat="46.08139560034876" lon="12.336587037244863"><ele>490.99999999999994</ele><time>2026-04-06T09:44:17Z</time></trkpt><trkpt lat="46.08141633897158" lon="12.33670436915593"><ele>491.0</ele><time>2026-04-06T09:44:20Z</time></trkpt><trkpt lat="46.08143264164457" lon="12.336826083231367"><ele>491.0</ele><time>2026-04-06T09:44:30Z</time></trkpt><trkpt lat="46.08140850832741" lon="12.336911770960285"><ele>491.0</ele><time>2026-04-06T09:44:33Z</time></trkpt><trkpt lat="46.08136983074371" lon="12.336840047758002"><ele>490.99999999999994</ele><time>2026-04-06T09:44:40Z</time></trkpt><trkpt lat="46.08137236472617" lon="12.336730318215645"><ele>491.0</ele><time>2026-04-06T09:44:47Z</time></trkpt><trkpt lat="46.08133714618538" lon="12.336484497742134"><ele>491.0</ele><time>2026-04-06T09:44:48Z</time></trkpt><trkpt lat="46.081388573437245" lon="12.336580444480358"><ele>491.0</ele><time>2026-04-06T09:44:56Z</time></trkpt><trkpt lat="46.081331946849396" lon="12.3364759219091"><ele>491.0</ele><time>2026-04-06T09:45:45.027Z</time></trkpt><trkpt lat="46.081515752550885" lon="12.336344979260845"><ele>491.0</ele><time>2026-04-06T09:47:24.059Z</time></trkpt><trkpt lat="46.081370675421404" lon="12.336463150133547"><ele>491.0</ele><time>2026-04-06T09:47:43.012Z</time></trkpt><trkpt lat="46.08129813766147" lon="12.336373822054034"><ele>491.0</ele><time>2026-04-06T09:50:50Z</time></trkpt><trkpt lat="46.08122881825411" lon="12.336385910609328"><ele>491.0</ele><time>2026-04-06T09:50:51Z</time></trkpt><trkpt lat="46.08113270624695" lon="12.336372490685886"><ele>491.0</ele><time>2026-04-06T09:50:53Z</time></trkpt><trkpt lat="46.080981842429786" lon="12.336362469626987"><ele>491.0</ele><time>2026-04-06T09:50:55Z</time></trkpt><trkpt lat="46.0808433256233" lon="12.336400032130536"><ele>491.66666666666663</ele><time>2026-04-06T09:50:56Z</time></trkpt><trkpt lat="46.080674177130575" lon="12.336468808303955"><ele>492.33333333333337</ele><time>2026-04-06T09:50:57Z</time></trkpt><trkpt lat="46.08046949763452" lon="12.336549694225655"><ele>493.0</ele><time>2026-04-06T09:50:58Z</time></trkpt><trkpt lat="46.08026324750187" lon="12.336619675075235"><ele>493.0</ele><time>2026-04-06T09:50:59Z</time></trkpt><trkpt lat="46.08012530265421" lon="12.336676897707576"><ele>493.0</ele><time>2026-04-06T09:51:00Z</time></trkpt><trkpt lat="46.079985216876096" lon="12.336708736347681"><ele>493.0</ele><time>2026-04-06T09:51:01Z</time></trkpt><trkpt lat="46.079843990315574" lon="12.336695747670023"><ele>493.0</ele><time>2026-04-06T09:51:02Z</time></trkpt><trkpt lat="46.079715926704694" lon="12.336658447223124"><ele>490.0</ele><time>2026-04-06T09:51:03Z</time></trkpt><trkpt lat="46.07962080200174" lon="12.336550307018431"><ele>487.0</ele><time>2026-04-06T09:51:04Z</time></trkpt><trkpt lat="46.079546648994885" lon="12.33643910455697"><ele>484.0</ele><time>2026-04-06T09:51:05Z</time></trkpt><trkpt lat="46.07949401361483" lon="12.336239632603577"><ele>481.0</ele><time>2026-04-06T09:51:06Z</time></trkpt><trkpt lat="46.07943448199336" lon="12.335995172934942"><ele>480.0</ele><time>2026-04-06T09:51:07Z</time></trkpt><trkpt lat="46.079376094296244" lon="12.335736464664183"><ele>479.0</ele><time>2026-04-06T09:51:08Z</time></trkpt><trkpt lat="46.07932154159089" lon="12.33548886106373"><ele>478.0</ele><time>2026-04-06T09:51:09Z</time></trkpt><trkpt lat="46.079268648997946" lon="12.33525218827174"><ele>477.33333333333337</ele><time>2026-04-06T09:51:10Z</time></trkpt><trkpt lat="46.07920205223058" lon="12.335041029057914"><ele>476.66666666666663</ele><time>2026-04-06T09:51:11Z</time></trkpt><trkpt lat="46.079141021640005" lon="12.3347978504043"><ele>476.0</ele><time>2026-04-06T09:51:12Z</time></trkpt><trkpt lat="46.07906332827156" lon="12.334569737723138"><ele>476.0</ele><time>2026-04-06T09:51:13Z</time></trkpt><trkpt lat="46.07898930657939" lon="12.33436518194088"><ele>476.0</ele><time>2026-04-06T09:51:14Z</time></trkpt><trkpt lat="46.07892238098108" lon="12.334198783871512"><ele>476.0</ele><time>2026-04-06T09:51:15Z</time></trkpt><trkpt lat="46.078856392641384" lon="12.334059996283486"><ele>476.0</ele><time>2026-04-06T09:51:16Z</time></trkpt><trkpt lat="46.078770241220504" lon="12.333943084850036"><ele>475.25</ele><time>2026-04-06T09:51:17Z</time></trkpt><trkpt lat="46.0786754619809" lon="12.333859618902625"><ele>474.5</ele><time>2026-04-06T09:51:18Z</time></trkpt><trkpt lat="46.07857025420675" lon="12.333820343167414"><ele>473.75</ele><time>2026-04-06T09:51:19Z</time></trkpt><trkpt lat="46.078456742523954" lon="12.333827019138916"><ele>473.0</ele><time>2026-04-06T09:51:20Z</time></trkpt><trkpt lat="46.07834291680578" lon="12.333865575904623"><ele>470.0</ele><time>2026-04-06T09:51:21Z</time></trkpt><trkpt lat="46.078241879101746" lon="12.3339522433565"><ele>467.0</ele><time>2026-04-06T09:51:22Z</time></trkpt><trkpt lat="46.07816051476319" lon="12.334072300009446"><ele>464.0</ele><time>2026-04-06T09:51:23Z</time></trkpt><trkpt lat="46.078093066847515" lon="12.334225549554958"><ele>461.0</ele><time>2026-04-06T09:51:24Z</time></trkpt><trkpt lat="46.07803279020436" lon="12.334377644080005"><ele>461.0</ele><time>2026-04-06T09:51:25Z</time></trkpt><trkpt lat="46.07796010380917" lon="12.334517643992731"><ele>461.0</ele><time>2026-04-06T09:51:26Z</time></trkpt><trkpt lat="46.07789783487826" lon="12.334659115217805"><ele>461.0</ele><time>2026-04-06T09:51:27Z</time></trkpt><trkpt lat="46.0778320198355" lon="12.334781396046674"><ele>461.0</ele><time>2026-04-06T09:51:28Z</time></trkpt><trkpt lat="46.077780064353384" lon="12.334904844029522"><ele>461.0</ele><time>2026-04-06T09:51:29Z</time></trkpt><trkpt lat="46.07775676023177" lon="12.335048539242505"><ele>461.0</ele><time>2026-04-06T09:51:30Z</time></trkpt><trkpt lat="46.07777252740687" lon="12.335188427921938"><ele>461.0</ele><time>2026-04-06T09:51:31Z</time></trkpt><trkpt lat="46.07781716763828" lon="12.335324000288551"><ele>461.0</ele><time>2026-04-06T09:51:32Z</time></trkpt><trkpt lat="46.077892953502584" lon="12.335470249003379"><ele>461.0</ele><time>2026-04-06T09:51:33Z</time></trkpt><trkpt lat="46.07798985865829" lon="12.335606372134512"><ele>461.20000000000005</ele><time>2026-04-06T09:51:34Z</time></trkpt><trkpt lat="46.07806727538132" lon="12.335742614377237"><ele>461.40000000000003</ele><time>2026-04-06T09:51:35Z</time></trkpt><trkpt lat="46.07814388749601" lon="12.335869332766304"><ele>461.6</ele><time>2026-04-06T09:51:36Z</time></trkpt><trkpt lat="46.07821312901301" lon="12.335981417205804"><ele>461.8</ele><time>2026-04-06T09:51:37Z</time></trkpt><trkpt lat="46.078271779442495" lon="12.336100195403192"><ele>462.0</ele><time>2026-04-06T09:51:38Z</time></trkpt><trkpt lat="46.078323563041366" lon="12.33622564789039"><ele>462.40000000000003</ele><time>2026-04-06T09:51:39Z</time></trkpt><trkpt lat="46.07833970354927" lon="12.336368526001587"><ele>462.80000000000007</ele><time>2026-04-06T09:51:40Z</time></trkpt><trkpt lat="46.078329972359306" lon="12.33650732483651"><ele>463.2</ele><time>2026-04-06T09:51:41Z</time></trkpt><trkpt lat="46.07829116682975" lon="12.336629105374554"><ele>463.6</ele><time>2026-04-06T09:51:42Z</time></trkpt><trkpt lat="46.07823361326315" lon="12.336720963145511"><ele>464.0</ele><time>2026-04-06T09:51:43Z</time></trkpt><trkpt lat="46.07815980993044" lon="12.336776488622128"><ele>461.79999999999995</ele><time>2026-04-06T09:51:44Z</time></trkpt><trkpt lat="46.07807897860128" lon="12.336798054748483"><ele>459.59999999999997</ele><time>2026-04-06T09:51:45Z</time></trkpt><trkpt lat="46.07798509339791" lon="12.336798652904347"><ele>457.4</ele><time>2026-04-06T09:51:46Z</time></trkpt><trkpt lat="46.077879131403215" lon="12.33675870007188"><ele>455.2</ele><time>2026-04-06T09:51:47Z</time></trkpt><trkpt lat="46.07775689356067" lon="12.33667265369626"><ele>453.0</ele><time>2026-04-06T09:51:48Z</time></trkpt><trkpt lat="46.07763928371245" lon="12.336585222677373"><ele>453.0</ele><time>2026-04-06T09:51:49Z</time></trkpt><trkpt lat="46.07752804787378" lon="12.33649987170101"><ele>453.0</ele><time>2026-04-06T09:51:50Z</time></trkpt><trkpt lat="46.07741696561763" lon="12.336430762221251"><ele>453.0</ele><time>2026-04-06T09:51:51Z</time></trkpt><trkpt lat="46.07730895479733" lon="12.336350154537554"><ele>453.0</ele><time>2026-04-06T09:51:52Z</time></trkpt><trkpt lat="46.0771984985256" lon="12.336264230960639"><ele>451.2</ele><time>2026-04-06T09:51:53Z</time></trkpt><trkpt lat="46.07709292830729" lon="12.336188016076838"><ele>449.4</ele><time>2026-04-06T09:51:54Z</time></trkpt><trkpt lat="46.077009773436146" lon="12.33609413144672"><ele>447.59999999999997</ele><time>2026-04-06T09:51:55Z</time></trkpt><trkpt lat="46.07695439881529" lon="12.335965134151788"><ele>445.79999999999995</ele><time>2026-04-06T09:51:56Z</time></trkpt><trkpt lat="46.07692138630723" lon="12.335798143706132"><ele>444.0</ele><time>2026-04-06T09:51:57Z</time></trkpt><trkpt lat="46.076912672301106" lon="12.335595445390252"><ele>443.75</ele><time>2026-04-06T09:51:58Z</time></trkpt><trkpt lat="46.07691888444233" lon="12.335386630678551"><ele>443.5</ele><time>2026-04-06T09:51:59Z</time></trkpt><trkpt lat="46.07691442327981" lon="12.335193517865955"><ele>443.25</ele><time>2026-04-06T09:52:00Z</time></trkpt><trkpt lat="46.07692476894545" lon="12.335005853235558"><ele>443.0</ele><time>2026-04-06T09:52:01Z</time></trkpt><trkpt lat="46.07692887527707" lon="12.334815970307014"><ele>442.25</ele><time>2026-04-06T09:52:02Z</time></trkpt><trkpt lat="46.07690986503231" lon="12.334624065260336"><ele>441.5</ele><time>2026-04-06T09:52:03Z</time></trkpt><trkpt lat="46.07687021502602" lon="12.334429945157693"><ele>440.75</ele><time>2026-04-06T09:52:04Z</time></trkpt><trkpt lat="46.07682163123105" lon="12.334251370129945"><ele>440.0</ele><time>2026-04-06T09:52:05Z</time></trkpt><trkpt lat="46.07677681308868" lon="12.334092159989313"><ele>440.0</ele><time>2026-04-06T09:52:06Z</time></trkpt><trkpt lat="46.07672798459681" lon="12.333961225406831"><ele>440.0</ele><time>2026-04-06T09:52:07Z</time></trkpt><trkpt lat="46.07665632686589" lon="12.333869359659126"><ele>440.0</ele><time>2026-04-06T09:52:08.001Z</time></trkpt><trkpt lat="46.07656678930468" lon="12.333814670927906"><ele>440.0</ele><time>2026-04-06T09:52:09.001Z</time></trkpt><trkpt lat="46.076471620608615" lon="12.333822610556503"><ele>440.0</ele><time>2026-04-06T09:52:10.001Z</time></trkpt><trkpt lat="46.07638252079379" lon="12.333878750504594"><ele>436.5</ele><time>2026-04-06T09:52:11.001Z</time></trkpt><trkpt lat="46.076304264910405" lon="12.333974002779245"><ele>433.0</ele><time>2026-04-06T09:52:12.001Z</time></trkpt><trkpt lat="46.076229505304966" lon="12.334121025351369"><ele>429.5</ele><time>2026-04-06T09:52:13.001Z</time></trkpt><trkpt lat="46.07614288347992" lon="12.334291458268474"><ele>426.0</ele><time>2026-04-06T09:52:14.001Z</time></trkpt><trkpt lat="46.076023824193584" lon="12.334458516343334"><ele>426.0</ele><time>2026-04-06T09:52:15.001Z</time></trkpt><trkpt lat="46.075898063392984" lon="12.3346789419894"><ele>426.0</ele><time>2026-04-06T09:52:16Z</time></trkpt><trkpt lat="46.075760198771036" lon="12.334943460376168"><ele>426.0</ele><time>2026-04-06T09:52:17Z</time></trkpt><trkpt lat="46.07563083093013" lon="12.33522349731866"><ele>422.5</ele><time>2026-04-06T09:52:18Z</time></trkpt><trkpt lat="46.07549690533934" lon="12.335534367787647"><ele>419.0</ele><time>2026-04-06T09:52:19Z</time></trkpt><trkpt lat="46.07535717695752" lon="12.33581023221818"><ele>419.0</ele><time>2026-04-06T09:52:20Z</time></trkpt><trkpt lat="46.07522324454867" lon="12.336072774110184"><ele>419.0</ele><time>2026-04-06T09:52:21Z</time></trkpt><trkpt lat="46.07510123375562" lon="12.336325836873169"><ele>419.0</ele><time>2026-04-06T09:52:22Z</time></trkpt><trkpt lat="46.07498899005791" lon="12.336564173329919"><ele>415.3333333333333</ele><time>2026-04-06T09:52:23Z</time></trkpt><trkpt lat="46.07489435663847" lon="12.336798641951441"><ele>411.66666666666663</ele><time>2026-04-06T09:52:24Z</time></trkpt><trkpt lat="46.0748269767141" lon="12.33703682820634"><ele>408.0</ele><time>2026-04-06T09:52:25Z</time></trkpt><trkpt lat="46.074781120655736" lon="12.337253641526365"><ele>408.0</ele><time>2026-04-06T09:52:26Z</time></trkpt><trkpt lat="46.0747431320439" lon="12.337444594506337"><ele>408.0</ele><time>2026-04-06T09:52:27Z</time></trkpt><trkpt lat="46.0747295943133" lon="12.337615657810952"><ele>408.0</ele><time>2026-04-06T09:52:28Z</time></trkpt><trkpt lat="46.07470674272595" lon="12.337751797971679"><ele>408.0</ele><time>2026-04-06T09:52:29Z</time></trkpt><trkpt lat="46.07463529433025" lon="12.337867827382473"><ele>408.0</ele><time>2026-04-06T09:52:30Z</time></trkpt><trkpt lat="46.0745174100026" lon="12.337971200840723"><ele>408.0</ele><time>2026-04-06T09:52:31Z</time></trkpt><trkpt lat="46.07438909953211" lon="12.338053936107835"><ele>408.0</ele><time>2026-04-06T09:52:32Z</time></trkpt><trkpt lat="46.0742605040662" lon="12.338171762985471"><ele>408.0</ele><time>2026-04-06T09:52:33Z</time></trkpt><trkpt lat="46.074148214539875" lon="12.33831396101797"><ele>406.5</ele><time>2026-04-06T09:52:34Z</time></trkpt><trkpt lat="46.07405017163855" lon="12.338440235045224"><ele>405.0</ele><time>2026-04-06T09:52:35Z</time></trkpt><trkpt lat="46.0739553872325" lon="12.338603768597306"><ele>403.5</ele><time>2026-04-06T09:52:36Z</time></trkpt><trkpt lat="46.07389633917417" lon="12.338820253188388"><ele>402.0</ele><time>2026-04-06T09:52:37Z</time></trkpt><trkpt lat="46.07384335974329" lon="12.339072975220464"><ele>402.0</ele><time>2026-04-06T09:52:38Z</time></trkpt><trkpt lat="46.0737402124054" lon="12.339314196955172"><ele>402.0</ele><time>2026-04-06T09:52:39Z</time></trkpt><trkpt lat="46.07362718570848" lon="12.339526695560204"><ele>402.0</ele><time>2026-04-06T09:52:40Z</time></trkpt><trkpt lat="46.07353829266515" lon="12.339705764983295"><ele>403.33333333333337</ele><time>2026-04-06T09:52:41Z</time></trkpt><trkpt lat="46.07345931273875" lon="12.339901921937535"><ele>404.6666666666667</ele><time>2026-04-06T09:52:42Z</time></trkpt><trkpt lat="46.07339522875228" lon="12.34013004174268"><ele>406.0</ele><time>2026-04-06T09:52:43Z</time></trkpt><trkpt lat="46.07338335294174" lon="12.340355493123674"><ele>406.0</ele><time>2026-04-06T09:52:44Z</time></trkpt><trkpt lat="46.07335058699838" lon="12.340543005576533"><ele>406.0</ele><time>2026-04-06T09:52:45Z</time></trkpt><trkpt lat="46.07329014645279" lon="12.340714468432404"><ele>406.0</ele><time>2026-04-06T09:52:46Z</time></trkpt><trkpt lat="46.07319438319985" lon="12.34084019646731"><ele>406.0</ele><time>2026-04-06T09:52:47Z</time></trkpt><trkpt lat="46.073048062940835" lon="12.340917460299618"><ele>402.6666666666667</ele><time>2026-04-06T09:52:48Z</time></trkpt><trkpt lat="46.07288344338798" lon="12.341058895229947"><ele>399.33333333333337</ele><time>2026-04-06T09:52:49Z</time></trkpt><trkpt lat="46.07270773639819" lon="12.341173888038794"><ele>396.0</ele><time>2026-04-06T09:52:50Z</time></trkpt><trkpt lat="46.072585208956646" lon="12.3413608236444"><ele>400.33333333333337</ele><time>2026-04-06T09:52:51Z</time></trkpt><trkpt lat="46.07245383014214" lon="12.341488366033436"><ele>404.6666666666667</ele><time>2026-04-06T09:52:52Z</time></trkpt><trkpt lat="46.072284057431304" lon="12.341497285830853"><ele>409.0</ele><time>2026-04-06T09:52:53Z</time></trkpt><trkpt lat="46.072101051792295" lon="12.341530543396429"><ele>409.0</ele><time>2026-04-06T09:52:54Z</time></trkpt><trkpt lat="46.07195820556144" lon="12.341528373034489"><ele>409.0</ele><time>2026-04-06T09:52:55Z</time></trkpt><trkpt lat="46.07183985263391" lon="12.341492027220205"><ele>409.0</ele><time>2026-04-06T09:52:56Z</time></trkpt><trkpt lat="46.071682722349784" lon="12.341365363735711"><ele>409.0</ele><time>2026-04-06T09:52:57Z</time></trkpt><trkpt lat="46.07150332075222" lon="12.341224798265294"><ele>404.6666666666667</ele><time>2026-04-06T09:52:58Z</time></trkpt><trkpt lat="46.07134111429869" lon="12.341076576101248"><ele>400.33333333333337</ele><time>2026-04-06T09:52:59Z</time></trkpt><trkpt lat="46.07119252493108" lon="12.340986371534747"><ele>396.0</ele><time>2026-04-06T09:53:00Z</time></trkpt><trkpt lat="46.07108091186402" lon="12.340893256705963"><ele>396.0</ele><time>2026-04-06T09:53:01Z</time></trkpt><trkpt lat="46.07094536543473" lon="12.340859923780807"><ele>396.0</ele><time>2026-04-06T09:53:02Z</time></trkpt><trkpt lat="46.07080008908731" lon="12.340871761439484"><ele>396.0</ele><time>2026-04-06T09:53:03Z</time></trkpt><trkpt lat="46.070670719662075" lon="12.340839309193399"><ele>396.0</ele><time>2026-04-06T09:53:04Z</time></trkpt><trkpt lat="46.07055042259219" lon="12.340751175629295"><ele>396.33333333333337</ele><time>2026-04-06T09:53:05Z</time></trkpt><trkpt lat="46.070439994221786" lon="12.340582870575892"><ele>396.6666666666667</ele><time>2026-04-06T09:53:06Z</time></trkpt><trkpt lat="46.07033131344822" lon="12.340387579097957"><ele>397.0</ele><time>2026-04-06T09:53:07Z</time></trkpt><trkpt lat="46.07021272454401" lon="12.34019424027102"><ele>397.0</ele><time>2026-04-06T09:53:08Z</time></trkpt><trkpt lat="46.0701024052992" lon="12.340029200848507"><ele>397.0</ele><time>2026-04-06T09:53:09Z</time></trkpt><trkpt lat="46.06999747367972" lon="12.339867979951158"><ele>397.0</ele><time>2026-04-06T09:53:10Z</time></trkpt><trkpt lat="46.0699359175859" lon="12.33968016623068"><ele>403.0</ele><time>2026-04-06T09:53:11Z</time></trkpt><trkpt lat="46.06987290909397" lon="12.33946491490777"><ele>409.0</ele><time>2026-04-06T09:53:12Z</time></trkpt><trkpt lat="46.06979823285575" lon="12.339259390360247"><ele>415.0</ele><time>2026-04-06T09:53:13Z</time></trkpt><trkpt lat="46.06973624366952" lon="12.339062788487114"><ele>406.6666666666667</ele><time>2026-04-06T09:53:14Z</time></trkpt><trkpt lat="46.069648150732775" lon="12.338879519532778"><ele>398.33333333333337</ele><time>2026-04-06T09:53:15Z</time></trkpt><trkpt lat="46.06954512259647" lon="12.338706740157603"><ele>390.0</ele><time>2026-04-06T09:53:16Z</time></trkpt><trkpt lat="46.069407738279416" lon="12.338556611282032"><ele>390.0</ele><time>2026-04-06T09:53:17Z</time></trkpt><trkpt lat="46.06923302711165" lon="12.338389007547894"><ele>390.0</ele><time>2026-04-06T09:53:18Z</time></trkpt><trkpt lat="46.06909193670605" lon="12.338156569618842"><ele>390.0</ele><time>2026-04-06T09:53:19Z</time></trkpt><trkpt lat="46.06896869371512" lon="12.337908340421277"><ele>390.66666666666663</ele><time>2026-04-06T09:53:20Z</time></trkpt><trkpt lat="46.06885192004294" lon="12.337681073073668"><ele>391.3333333333333</ele><time>2026-04-06T09:53:21Z</time></trkpt><trkpt lat="46.06872479463581" lon="12.337463649188447"><ele>392.0</ele><time>2026-04-06T09:53:22Z</time></trkpt><trkpt lat="46.06855193697056" lon="12.337252535994528"><ele>385.66666666666663</ele><time>2026-04-06T09:53:23Z</time></trkpt><trkpt lat="46.068384010400315" lon="12.337095791059737"><ele>379.3333333333333</ele><time>2026-04-06T09:53:24Z</time></trkpt><trkpt lat="46.06822543774603" lon="12.336951075267535"><ele>373.0</ele><time>2026-04-06T09:53:25Z</time></trkpt><trkpt lat="46.06803414088115" lon="12.336831926736844"><ele>373.0</ele><time>2026-04-06T09:53:26Z</time></trkpt><trkpt lat="46.06779148881294" lon="12.336741106755017"><ele>373.0</ele><time>2026-04-06T09:53:27Z</time></trkpt><trkpt lat="46.06754091615449" lon="12.336652100472755"><ele>385.0</ele><time>2026-04-06T09:53:28Z</time></trkpt><trkpt lat="46.067307441851874" lon="12.336561080145637"><ele>397.0</ele><time>2026-04-06T09:53:29Z</time></trkpt><trkpt lat="46.06709397122924" lon="12.33643326557906"><ele>382.0</ele><time>2026-04-06T09:53:30Z</time></trkpt><trkpt lat="46.06688079344961" lon="12.336289730973006"><ele>367.0</ele><time>2026-04-06T09:53:31Z</time></trkpt><trkpt lat="46.066677119588014" lon="12.336146829284704"><ele>372.66666666666663</ele><time>2026-04-06T09:53:32Z</time></trkpt><trkpt lat="46.06650058246184" lon="12.33601274078225"><ele>378.3333333333333</ele><time>2026-04-06T09:53:33Z</time></trkpt><trkpt lat="46.06632706388267" lon="12.335867354124888"><ele>384.0</ele><time>2026-04-06T09:53:34Z</time></trkpt><trkpt lat="46.0661500935901" lon="12.33568633471043"><ele>390.0</ele><time>2026-04-06T09:53:35Z</time></trkpt><trkpt lat="46.065968584332865" lon="12.335417672328676"><ele>396.0</ele><time>2026-04-06T09:53:36Z</time></trkpt><trkpt lat="46.06577547603731" lon="12.335100848083968"><ele>396.0</ele><time>2026-04-06T09:53:37Z</time></trkpt><trkpt lat="46.0655813619195" lon="12.33478279300354"><ele>396.0</ele><time>2026-04-06T09:53:38Z</time></trkpt><trkpt lat="46.06539651225559" lon="12.33448050264657"><ele>385.0</ele><time>2026-04-06T09:53:39Z</time></trkpt><trkpt lat="46.06522781220483" lon="12.33420801250712"><ele>374.0</ele><time>2026-04-06T09:53:40Z</time></trkpt><trkpt lat="46.06508265783721" lon="12.333952789196747"><ele>375.33333333333337</ele><time>2026-04-06T09:53:41Z</time></trkpt><trkpt lat="46.064961155204074" lon="12.333680275917269"><ele>376.6666666666667</ele><time>2026-04-06T09:53:42Z</time></trkpt><trkpt lat="46.064846752161934" lon="12.333428184029954"><ele>378.0</ele><time>2026-04-06T09:53:43Z</time></trkpt><trkpt lat="46.064742017495085" lon="12.333166224203842"><ele>364.5</ele><time>2026-04-06T09:53:44Z</time></trkpt><trkpt lat="46.06458401234646" lon="12.332909165221317"><ele>351.0</ele><time>2026-04-06T09:53:45Z</time></trkpt><trkpt lat="46.064388579196596" lon="12.332649345512564"><ele>351.0</ele><time>2026-04-06T09:53:46Z</time></trkpt><trkpt lat="46.064148590900686" lon="12.332381591950643"><ele>351.0</ele><time>2026-04-06T09:53:47Z</time></trkpt><trkpt lat="46.06391073209612" lon="12.332056245804283"><ele>345.0</ele><time>2026-04-06T09:53:47.999Z</time></trkpt><trkpt lat="46.06367378083243" lon="12.331681313758796"><ele>339.0</ele><time>2026-04-06T09:53:48.999Z</time></trkpt><trkpt lat="46.0634244655035" lon="12.331305225511649"><ele>354.5</ele><time>2026-04-06T09:53:49.999Z</time></trkpt><trkpt lat="46.06316890209466" lon="12.330937783970162"><ele>370.0</ele><time>2026-04-06T09:53:50.999Z</time></trkpt><trkpt lat="46.06293274801433" lon="12.330596400692253"><ele>356.0</ele><time>2026-04-06T09:53:51.999Z</time></trkpt><trkpt lat="46.06271091167194" lon="12.330279516003989"><ele>342.0</ele><time>2026-04-06T09:53:52.999Z</time></trkpt><trkpt lat="46.06250261334062" lon="12.32998223504331"><ele>341.5</ele><time>2026-04-06T09:53:53.999Z</time></trkpt><trkpt lat="46.06230851186022" lon="12.329696252998426"><ele>341.0</ele><time>2026-04-06T09:53:54.999Z</time></trkpt><trkpt lat="46.062135105370956" lon="12.329401116753251"><ele>341.0</ele><time>2026-04-06T09:53:55.999Z</time></trkpt><trkpt lat="46.06195809861865" lon="12.329143431039977"><ele>341.0</ele><time>2026-04-06T09:53:56.999Z</time></trkpt><trkpt lat="46.06178399480826" lon="12.328885351463066"><ele>344.5</ele><time>2026-04-06T09:53:57.999Z</time></trkpt><trkpt lat="46.061588688465854" lon="12.328643460774414"><ele>348.0</ele><time>2026-04-06T09:53:58.999Z</time></trkpt><trkpt lat="46.061386848943144" lon="12.328430762804992"><ele>348.0</ele><time>2026-04-06T09:53:59.999Z</time></trkpt><trkpt lat="46.06119290453961" lon="12.328248296337089"><ele>348.0</ele><time>2026-04-06T09:54:00.999Z</time></trkpt><trkpt lat="46.06100316471563" lon="12.32808419570427"><ele>348.3333333333333</ele><time>2026-04-06T09:54:01.999Z</time></trkpt><trkpt lat="46.060833889251995" lon="12.327917498000392"><ele>348.66666666666663</ele><time>2026-04-06T09:54:02.999Z</time></trkpt><trkpt lat="46.06069709721414" lon="12.3277033927117"><ele>349.0</ele><time>2026-04-06T09:54:03.999Z</time></trkpt><trkpt lat="46.060562015905724" lon="12.327490755354704"><ele>349.0</ele><time>2026-04-06T09:54:04.999Z</time></trkpt><trkpt lat="46.06041429278056" lon="12.327264564837037"><ele>349.0</ele><time>2026-04-06T09:54:05.999Z</time></trkpt><trkpt lat="46.060280420156765" lon="12.32702520816234"><ele>349.0</ele><time>2026-04-06T09:54:06.999Z</time></trkpt><trkpt lat="46.060108767613514" lon="12.326805226473509"><ele>352.0</ele><time>2026-04-06T09:54:07.999Z</time></trkpt><trkpt lat="46.05989897376194" lon="12.326596621651326"><ele>355.0</ele><time>2026-04-06T09:54:08.999Z</time></trkpt><trkpt lat="46.059674463055615" lon="12.326388541925189"><ele>334.0</ele><time>2026-04-06T09:54:09.999Z</time></trkpt><trkpt lat="46.05947811234043" lon="12.326123603375601"><ele>313.0</ele><time>2026-04-06T09:54:10.999Z</time></trkpt><trkpt lat="46.05927136429809" lon="12.32586975606621"><ele>311.5</ele><time>2026-04-06T09:54:11.999Z</time></trkpt><trkpt lat="46.05904317225433" lon="12.325666220600269"><ele>310.0</ele><time>2026-04-06T09:54:12.999Z</time></trkpt><trkpt lat="46.0588068392989" lon="12.325457251396914"><ele>310.0</ele><time>2026-04-06T09:54:14Z</time></trkpt><trkpt lat="46.058564667620864" lon="12.32526570406317"><ele>310.0</ele><time>2026-04-06T09:54:15Z</time></trkpt><trkpt lat="46.05835413520767" lon="12.325067564184254"><ele>310.5</ele><time>2026-04-06T09:54:16Z</time></trkpt><trkpt lat="46.05814404654988" lon="12.32489231649125"><ele>311.0</ele><time>2026-04-06T09:54:17Z</time></trkpt><trkpt lat="46.057937613089265" lon="12.324683364411054"><ele>311.0</ele><time>2026-04-06T09:54:18Z</time></trkpt><trkpt lat="46.057721764486224" lon="12.324467610791876"><ele>311.0</ele><time>2026-04-06T09:54:19Z</time></trkpt><trkpt lat="46.05753675414843" lon="12.324216176662249"><ele>316.0</ele><time>2026-04-06T09:54:20Z</time></trkpt><trkpt lat="46.057344086706074" lon="12.323990417645062"><ele>321.0</ele><time>2026-04-06T09:54:21Z</time></trkpt><trkpt lat="46.05716805128624" lon="12.323820960155068"><ele>321.0</ele><time>2026-04-06T09:54:22Z</time></trkpt><trkpt lat="46.05702266930917" lon="12.323668129449198"><ele>321.0</ele><time>2026-04-06T09:54:23Z</time></trkpt><trkpt lat="46.05689672612695" lon="12.323499020058598"><ele>321.0</ele><time>2026-04-06T09:54:24Z</time></trkpt><trkpt lat="46.056794382048814" lon="12.323308679820357"><ele>321.0</ele><time>2026-04-06T09:54:25Z</time></trkpt><trkpt lat="46.05673126191722" lon="12.323086077289743"><ele>321.0</ele><time>2026-04-06T09:54:26Z</time></trkpt><trkpt lat="46.05669653451099" lon="12.322854857157987"><ele>321.0</ele><time>2026-04-06T09:54:27Z</time></trkpt><trkpt lat="46.05667152216709" lon="12.322650598864614"><ele>323.0</ele><time>2026-04-06T09:54:28Z</time></trkpt><trkpt lat="46.05660474787889" lon="12.322468606578552"><ele>325.0</ele><time>2026-04-06T09:54:29Z</time></trkpt><trkpt lat="46.05647804360623" lon="12.322278210135773"><ele>327.0</ele><time>2026-04-06T09:54:30Z</time></trkpt><trkpt lat="46.056299074923764" lon="12.322075528337033"><ele>312.5</ele><time>2026-04-06T09:54:31Z</time></trkpt><trkpt lat="46.0561037089892" lon="12.321857517510402"><ele>298.0</ele><time>2026-04-06T09:54:32Z</time></trkpt><trkpt lat="46.055927397269535" lon="12.321637714637324"><ele>296.66666666666663</ele><time>2026-04-06T09:54:33Z</time></trkpt><trkpt lat="46.05576118451849" lon="12.321462343160066"><ele>295.3333333333333</ele><time>2026-04-06T09:54:34Z</time></trkpt><trkpt lat="46.05560714638281" lon="12.321304174590786"><ele>294.0</ele><time>2026-04-06T09:54:35Z</time></trkpt><trkpt lat="46.055454636166964" lon="12.321165171427255"><ele>294.0</ele><time>2026-04-06T09:54:36Z</time></trkpt><trkpt lat="46.05528339731073" lon="12.321052274259888"><ele>294.0</ele><time>2026-04-06T09:54:37Z</time></trkpt><trkpt lat="46.055102279626325" lon="12.320971908898738"><ele>294.0</ele><time>2026-04-06T09:54:38Z</time></trkpt><trkpt lat="46.05494243902409" lon="12.320869548210972"><ele>297.3333333333333</ele><time>2026-04-06T09:54:39Z</time></trkpt><trkpt lat="46.05479459861327" lon="12.320728999123743"><ele>300.66666666666663</ele><time>2026-04-06T09:54:40Z</time></trkpt><trkpt lat="46.05464886773382" lon="12.320539090684843"><ele>304.0</ele><time>2026-04-06T09:54:41Z</time></trkpt><trkpt lat="46.05450525555733" lon="12.320352599408565"><ele>304.0</ele><time>2026-04-06T09:54:42Z</time></trkpt><trkpt lat="46.054382060036396" lon="12.320148979637079"><ele>304.0</ele><time>2026-04-06T09:54:43Z</time></trkpt><trkpt lat="46.05427768282319" lon="12.3199051025767"><ele>304.0</ele><time>2026-04-06T09:54:44Z</time></trkpt><trkpt lat="46.054211023210485" lon="12.319652592408723"><ele>305.66666666666663</ele><time>2026-04-06T09:54:45Z</time></trkpt><trkpt lat="46.0541610283728" lon="12.319395954792157"><ele>307.3333333333333</ele><time>2026-04-06T09:54:46Z</time></trkpt><trkpt lat="46.05413340214065" lon="12.319117149509745"><ele>309.0</ele><time>2026-04-06T09:54:47Z</time></trkpt><trkpt lat="46.05412144727072" lon="12.318833831976784"><ele>309.0</ele><time>2026-04-06T09:54:48Z</time></trkpt><trkpt lat="46.0540820077509" lon="12.318550533774108"><ele>309.0</ele><time>2026-04-06T09:54:49Z</time></trkpt><trkpt lat="46.054001686790095" lon="12.318264766984482"><ele>309.0</ele><time>2026-04-06T09:54:50Z</time></trkpt><trkpt lat="46.0539044933835" lon="12.318015095818797"><ele>304.6666666666667</ele><time>2026-04-06T09:54:51Z</time></trkpt><trkpt lat="46.05382139787029" lon="12.31777158563061"><ele>300.33333333333337</ele><time>2026-04-06T09:54:52Z</time></trkpt><trkpt lat="46.0537479439885" lon="12.31754016928227"><ele>296.0</ele><time>2026-04-06T09:54:53Z</time></trkpt><trkpt lat="46.05366559102008" lon="12.317321153881407"><ele>295.0</ele><time>2026-04-06T09:54:54Z</time></trkpt><trkpt lat="46.05356502594873" lon="12.317125832373819"><ele>294.0</ele><time>2026-04-06T09:54:55Z</time></trkpt><trkpt lat="46.053429753842956" lon="12.316957601500073"><ele>293.0</ele><time>2026-04-06T09:54:56Z</time></trkpt><trkpt lat="46.05327458556383" lon="12.316811118413165"><ele>293.0</ele><time>2026-04-06T09:54:57Z</time></trkpt><trkpt lat="46.053132231690654" lon="12.316671530536919"><ele>293.0</ele><time>2026-04-06T09:54:58Z</time></trkpt><trkpt lat="46.05300214412773" lon="12.316539446427806"><ele>293.0</ele><time>2026-04-06T09:54:59Z</time></trkpt><trkpt lat="46.05287883249834" lon="12.316404303977654"><ele>292.6666666666667</ele><time>2026-04-06T09:55:00Z</time></trkpt><trkpt lat="46.052740308689074" lon="12.316261657803702"><ele>292.3333333333333</ele><time>2026-04-06T09:55:01Z</time></trkpt><trkpt lat="46.05258549189433" lon="12.316112648052755"><ele>292.0</ele><time>2026-04-06T09:55:02Z</time></trkpt><trkpt lat="46.052434421621925" lon="12.31592741605811"><ele>292.0</ele><time>2026-04-06T09:55:03Z</time></trkpt><trkpt lat="46.0522608411699" lon="12.31577334866791"><ele>292.0</ele><time>2026-04-06T09:55:04Z</time></trkpt><trkpt lat="46.052099317023995" lon="12.315596022394436"><ele>292.0</ele><time>2026-04-06T09:55:05Z</time></trkpt><trkpt lat="46.05192725479399" lon="12.315415640273983"><ele>293.66666666666663</ele><time>2026-04-06T09:55:06Z</time></trkpt><trkpt lat="46.051754352614296" lon="12.315235499101854"><ele>295.3333333333333</ele><time>2026-04-06T09:55:07Z</time></trkpt><trkpt lat="46.05159204204175" lon="12.315062567379783"><ele>297.0</ele><time>2026-04-06T09:55:08Z</time></trkpt><trkpt lat="46.051434995084186" lon="12.314897777996515"><ele>294.0</ele><time>2026-04-06T09:55:09Z</time></trkpt><trkpt lat="46.05127626925429" lon="12.314736409324375"><ele>291.0</ele><time>2026-04-06T09:55:10Z</time></trkpt><trkpt lat="46.05111927539812" lon="12.3145731987741"><ele>288.0</ele><time>2026-04-06T09:55:11Z</time></trkpt><trkpt lat="46.05097671321151" lon="12.314422762308924"><ele>288.0</ele><time>2026-04-06T09:55:12Z</time></trkpt><trkpt lat="46.05083824216255" lon="12.314279651028317"><ele>288.0</ele><time>2026-04-06T09:55:13Z</time></trkpt><trkpt lat="46.05069834405134" lon="12.31412849604764"><ele>288.0</ele><time>2026-04-06T09:55:14Z</time></trkpt><trkpt lat="46.05055805757492" lon="12.31397381528091"><ele>289.0</ele><time>2026-04-06T09:55:15Z</time></trkpt><trkpt lat="46.05042188573685" lon="12.3138358987848"><ele>290.0</ele><time>2026-04-06T09:55:16Z</time></trkpt><trkpt lat="46.05029388472868" lon="12.313702484797204"><ele>291.0</ele><time>2026-04-06T09:55:17Z</time></trkpt><trkpt lat="46.05016970486272" lon="12.313571554951373"><ele>291.0</ele><time>2026-04-06T09:55:18Z</time></trkpt><trkpt lat="46.05004950160305" lon="12.313446557370632"><ele>291.0</ele><time>2026-04-06T09:55:19Z</time></trkpt><trkpt lat="46.049933117547056" lon="12.313327169757905"><ele>291.0</ele><time>2026-04-06T09:55:20Z</time></trkpt><trkpt lat="46.049819966520126" lon="12.313194542333482"><ele>291.0</ele><time>2026-04-06T09:55:21Z</time></trkpt><trkpt lat="46.04971700094143" lon="12.313070282974806"><ele>290.75</ele><time>2026-04-06T09:55:22Z</time></trkpt><trkpt lat="46.04961066519942" lon="12.31294672574888"><ele>290.5</ele><time>2026-04-06T09:55:23Z</time></trkpt><trkpt lat="46.04951330079492" lon="12.312801104037428"><ele>290.25</ele><time>2026-04-06T09:55:24Z</time></trkpt><trkpt lat="46.049408005179785" lon="12.312652437347927"><ele>290.0</ele><time>2026-04-06T09:55:25Z</time></trkpt><trkpt lat="46.04929392592056" lon="12.312493488884874"><ele>290.0</ele><time>2026-04-06T09:55:26Z</time></trkpt><trkpt lat="46.049186939446926" lon="12.312332131342908"><ele>290.0</ele><time>2026-04-06T09:55:27Z</time></trkpt><trkpt lat="46.04907268830926" lon="12.312174822116225"><ele>290.0</ele><time>2026-04-06T09:55:28Z</time></trkpt><trkpt lat="46.04895912007866" lon="12.312020593238971"><ele>290.0</ele><time>2026-04-06T09:55:28.999Z</time></trkpt><trkpt lat="46.0488603489601" lon="12.311870641625307"><ele>290.0</ele><time>2026-04-06T09:55:29.999Z</time></trkpt><trkpt lat="46.04876305486801" lon="12.311725439156264"><ele>290.0</ele><time>2026-04-06T09:55:30.999Z</time></trkpt><trkpt lat="46.04866341975671" lon="12.311579991680814"><ele>290.0</ele><time>2026-04-06T09:55:31.999Z</time></trkpt><trkpt lat="46.04855689177011" lon="12.311426623709572"><ele>290.33333333333337</ele><time>2026-04-06T09:55:32.999Z</time></trkpt><trkpt lat="46.04844361322363" lon="12.311261845159986"><ele>290.6666666666667</ele><time>2026-04-06T09:55:33.999Z</time></trkpt><trkpt lat="46.04832946794815" lon="12.311092405843876"><ele>291.0</ele><time>2026-04-06T09:55:34.999Z</time></trkpt><trkpt lat="46.048205499335616" lon="12.310917418884385"><ele>291.0</ele><time>2026-04-06T09:55:35.999Z</time></trkpt><trkpt lat="46.048069678722754" lon="12.310700220956024"><ele>291.0</ele><time>2026-04-06T09:55:36.999Z</time></trkpt><trkpt lat="46.0479154497456" lon="12.310445907488123"><ele>291.0</ele><time>2026-04-06T09:55:37.999Z</time></trkpt><trkpt lat="46.047752890247146" lon="12.310169333777269"><ele>290.75</ele><time>2026-04-06T09:55:38.999Z</time></trkpt><trkpt lat="46.04776352848376" lon="12.310264091386284"><ele>290.5</ele><time>2026-04-06T09:55:39.999Z</time></trkpt><trkpt lat="46.04764103965245" lon="12.310085110609716"><ele>290.25</ele><time>2026-04-06T09:55:40.999Z</time></trkpt><trkpt lat="46.047518669757416" lon="12.309907872149747"><ele>290.0</ele><time>2026-04-06T09:55:41.999Z</time></trkpt><trkpt lat="46.047398059856086" lon="12.309748058413508"><ele>291.6666666666667</ele><time>2026-04-06T09:55:42.999Z</time></trkpt><trkpt lat="46.04728636407637" lon="12.309577596513241"><ele>293.3333333333333</ele><time>2026-04-06T09:55:43.999Z</time></trkpt><trkpt lat="46.04717702220404" lon="12.309410743930625"><ele>295.0</ele><time>2026-04-06T09:55:44.999Z</time></trkpt><trkpt lat="46.04706622777411" lon="12.309266037559286"><ele>295.0</ele><time>2026-04-06T09:55:45.999Z</time></trkpt><trkpt lat="46.046966579297504" lon="12.309130879839334"><ele>295.0</ele><time>2026-04-06T09:55:46.999Z</time></trkpt><trkpt lat="46.04685901820364" lon="12.309018676175665"><ele>295.0</ele><time>2026-04-06T09:55:47.999Z</time></trkpt><trkpt lat="46.04672122246599" lon="12.308929627453425"><ele>295.0</ele><time>2026-04-06T09:55:48.999Z</time></trkpt><trkpt lat="46.046563934268924" lon="12.308854094119075"><ele>293.3333333333333</ele><time>2026-04-06T09:55:49.999Z</time></trkpt><trkpt lat="46.04640332354474" lon="12.308799026024529"><ele>291.6666666666667</ele><time>2026-04-06T09:55:50.999Z</time></trkpt><trkpt lat="46.04623372556062" lon="12.308742805863375"><ele>290.0</ele><time>2026-04-06T09:55:51.999Z</time></trkpt><trkpt lat="46.046060795646305" lon="12.308670488643555"><ele>290.0</ele><time>2026-04-06T09:55:52.999Z</time></trkpt><trkpt lat="46.04587926571046" lon="12.308587122823095"><ele>290.0</ele><time>2026-04-06T09:55:53.999Z</time></trkpt><trkpt lat="46.0457093632409" lon="12.308541089182476"><ele>290.0</ele><time>2026-04-06T09:55:54.999Z</time></trkpt><trkpt lat="46.045552533836535" lon="12.308500147305134"><ele>288.0</ele><time>2026-04-06T09:55:55.999Z</time></trkpt><trkpt lat="46.045421070445805" lon="12.308412001211373"><ele>286.0</ele><time>2026-04-06T09:55:56.999Z</time></trkpt><trkpt lat="46.04529309997043" lon="12.308298148818805"><ele>284.0</ele><time>2026-04-06T09:55:57.999Z</time></trkpt><trkpt lat="46.04520425087311" lon="12.308139288792159"><ele>282.0</ele><time>2026-04-06T09:55:58.999Z</time></trkpt><trkpt lat="46.04512811169582" lon="12.307942359277105"><ele>282.0</ele><time>2026-04-06T09:55:59.999Z</time></trkpt><trkpt lat="46.045066603131" lon="12.307696839278435"><ele>282.0</ele><time>2026-04-06T09:56:00.999Z</time></trkpt><trkpt lat="46.0450095421498" lon="12.307455354488244"><ele>282.0</ele><time>2026-04-06T09:56:01.999Z</time></trkpt><trkpt lat="46.04495725053008" lon="12.307239975055438"><ele>281.0</ele><time>2026-04-06T09:56:02.999Z</time></trkpt><trkpt lat="46.04487977929096" lon="12.307051002751118"><ele>280.0</ele><time>2026-04-06T09:56:03.999Z</time></trkpt><trkpt lat="46.04479965752729" lon="12.306870782714176"><ele>279.0</ele><time>2026-04-06T09:56:04.999Z</time></trkpt><trkpt lat="46.04469031712162" lon="12.306730419966115"><ele>278.0</ele><time>2026-04-06T09:56:05.999Z</time></trkpt><trkpt lat="46.04455208404924" lon="12.306629550168966"><ele>278.0</ele><time>2026-04-06T09:56:06.999Z</time></trkpt><trkpt lat="46.0443972455899" lon="12.306581194948478"><ele>278.0</ele><time>2026-04-06T09:56:07.999Z</time></trkpt><trkpt lat="46.044211293581654" lon="12.306593951452518"><ele>278.0</ele><time>2026-04-06T09:56:08.999Z</time></trkpt><trkpt lat="46.043997463217885" lon="12.3066467053446"><ele>277.0</ele><time>2026-04-06T09:56:09.999Z</time></trkpt><trkpt lat="46.04376716882872" lon="12.306728974973415"><ele>276.0</ele><time>2026-04-06T09:56:10.999Z</time></trkpt><trkpt lat="46.04354366439653" lon="12.306787785646076"><ele>276.0</ele><time>2026-04-06T09:56:11.999Z</time></trkpt><trkpt lat="46.04334121943328" lon="12.306811643279797"><ele>276.0</ele><time>2026-04-06T09:56:12.999Z</time></trkpt><trkpt lat="46.04315452980594" lon="12.306801710137684"><ele>276.0</ele><time>2026-04-06T09:56:13.999Z</time></trkpt><trkpt lat="46.04299542237004" lon="12.306792257214203"><ele>273.25</ele><time>2026-04-06T09:56:14.999Z</time></trkpt><trkpt lat="46.042848600223095" lon="12.306803808954786"><ele>270.5</ele><time>2026-04-06T09:56:15.999Z</time></trkpt><trkpt lat="46.04271207559329" lon="12.306836601155243"><ele>267.75</ele><time>2026-04-06T09:56:16.999Z</time></trkpt><trkpt lat="46.04259215550712" lon="12.30693474904247"><ele>265.0</ele><time>2026-04-06T09:56:17.999Z</time></trkpt><trkpt lat="46.0424830663305" lon="12.30708836751001"><ele>256.66666666666663</ele><time>2026-04-06T09:56:18.999Z</time></trkpt><trkpt lat="46.0423985019424" lon="12.307289251522539"><ele>248.33333333333331</ele><time>2026-04-06T09:56:20Z</time></trkpt><trkpt lat="46.042387656950964" lon="12.30753528564406"><ele>240.0</ele><time>2026-04-06T09:56:21Z</time></trkpt><trkpt lat="46.04239568830424" lon="12.307753560664347"><ele>240.0</ele><time>2026-04-06T09:56:22Z</time></trkpt><trkpt lat="46.04242660562546" lon="12.307966213735186"><ele>240.0</ele><time>2026-04-06T09:56:23Z</time></trkpt><trkpt lat="46.042439255333726" lon="12.308174749998322"><ele>240.0</ele><time>2026-04-06T09:56:24Z</time></trkpt><trkpt lat="46.04239573234796" lon="12.308372237395808"><ele>240.0</ele><time>2026-04-06T09:56:25Z</time></trkpt><trkpt lat="46.04233193957866" lon="12.308551380277285"><ele>242.0</ele><time>2026-04-06T09:56:26Z</time></trkpt><trkpt lat="46.04223322591571" lon="12.308677751757994"><ele>244.0</ele><time>2026-04-06T09:56:27Z</time></trkpt><trkpt lat="46.04211411591031" lon="12.3087663727906"><ele>246.0</ele><time>2026-04-06T09:56:28Z</time></trkpt><trkpt lat="46.041966375772226" lon="12.308757200326081"><ele>248.0</ele><time>2026-04-06T09:56:29Z</time></trkpt><trkpt lat="46.04181546203245" lon="12.308713631359721"><ele>248.0</ele><time>2026-04-06T09:56:30Z</time></trkpt><trkpt lat="46.041639412446386" lon="12.308644282232779"><ele>248.0</ele><time>2026-04-06T09:56:31Z</time></trkpt><trkpt lat="46.04144058894389" lon="12.308551772102435"><ele>248.0</ele><time>2026-04-06T09:56:32Z</time></trkpt><trkpt lat="46.04129456495277" lon="12.308457139760227"><ele>245.75</ele><time>2026-04-06T09:56:33Z</time></trkpt><trkpt lat="46.04115001723363" lon="12.308384905014714"><ele>243.5</ele><time>2026-04-06T09:56:34Z</time></trkpt><trkpt lat="46.04100349682549" lon="12.30832093148513"><ele>241.25</ele><time>2026-04-06T09:56:35Z</time></trkpt><trkpt lat="46.04087897342586" lon="12.308285731204188"><ele>239.0</ele><time>2026-04-06T09:56:36Z</time></trkpt><trkpt lat="46.040749359187444" lon="12.308308091988117"><ele>232.66666666666669</ele><time>2026-04-06T09:56:37Z</time></trkpt><trkpt lat="46.04064285230924" lon="12.308415790895909"><ele>226.33333333333331</ele><time>2026-04-06T09:56:38Z</time></trkpt><trkpt lat="46.04053926400371" lon="12.308596157400713"><ele>220.0</ele><time>2026-04-06T09:56:39Z</time></trkpt><trkpt lat="46.04038354302701" lon="12.308761404788077"><ele>217.33333333333331</ele><time>2026-04-06T09:56:40Z</time></trkpt><trkpt lat="46.04020789715133" lon="12.308910165491504"><ele>214.66666666666669</ele><time>2026-04-06T09:56:41Z</time></trkpt><trkpt lat="46.0400433963609" lon="12.30906427139244"><ele>212.0</ele><time>2026-04-06T09:56:42Z</time></trkpt><trkpt lat="46.03988171866647" lon="12.309209988279692"><ele>212.0</ele><time>2026-04-06T09:56:43Z</time></trkpt><trkpt lat="46.03971128241535" lon="12.309371941695538"><ele>212.0</ele><time>2026-04-06T09:56:44Z</time></trkpt><trkpt lat="46.039545842278" lon="12.309520570680691"><ele>212.0</ele><time>2026-04-06T09:56:45Z</time></trkpt><trkpt lat="46.03939386906432" lon="12.309668137772375"><ele>217.33333333333334</ele><time>2026-04-06T09:56:46Z</time></trkpt><trkpt lat="46.03924583249522" lon="12.309821198673863"><ele>222.66666666666669</ele><time>2026-04-06T09:56:47Z</time></trkpt><trkpt lat="46.03907860756895" lon="12.309952413988578"><ele>228.0</ele><time>2026-04-06T09:56:48Z</time></trkpt><trkpt lat="46.03889403139516" lon="12.310032685329972"><ele>228.0</ele><time>2026-04-06T09:56:49Z</time></trkpt><trkpt lat="46.038697649127435" lon="12.310065837694946"><ele>228.0</ele><time>2026-04-06T09:56:50Z</time></trkpt><trkpt lat="46.038506605323654" lon="12.310056281482442"><ele>228.0</ele><time>2026-04-06T09:56:51Z</time></trkpt><trkpt lat="46.03832953594275" lon="12.30999309244665"><ele>234.0</ele><time>2026-04-06T09:56:52Z</time></trkpt><trkpt lat="46.03816083646056" lon="12.309908255002227"><ele>240.0</ele><time>2026-04-06T09:56:53Z</time></trkpt><trkpt lat="46.0379937548254" lon="12.309775767316586"><ele>246.0</ele><time>2026-04-06T09:56:54Z</time></trkpt><trkpt lat="46.03783356199797" lon="12.30960950494395"><ele>241.33333333333331</ele><time>2026-04-06T09:56:55Z</time></trkpt><trkpt lat="46.037678289127804" lon="12.309422066648484"><ele>236.66666666666666</ele><time>2026-04-06T09:56:56Z</time></trkpt><trkpt lat="46.03751304519963" lon="12.309232423566545"><ele>232.0</ele><time>2026-04-06T09:56:57Z</time></trkpt><trkpt lat="46.03732286553987" lon="12.309071571130374"><ele>232.0</ele><time>2026-04-06T09:56:58Z</time></trkpt><trkpt lat="46.03712204644848" lon="12.30894932894368"><ele>232.0</ele><time>2026-04-06T09:56:59Z</time></trkpt><trkpt lat="46.03692041916121" lon="12.308852414311293"><ele>232.0</ele><time>2026-04-06T09:57:00Z</time></trkpt><trkpt lat="46.036721244335276" lon="12.308775421211752"><ele>224.0</ele><time>2026-04-06T09:57:01Z</time></trkpt><trkpt lat="46.03651914759509" lon="12.308722366955331"><ele>216.0</ele><time>2026-04-06T09:57:02Z</time></trkpt><trkpt lat="46.036318754340186" lon="12.308657770710376"><ele>208.0</ele><time>2026-04-06T09:57:03Z</time></trkpt><trkpt lat="46.036126568157044" lon="12.308587941998221"><ele>208.0</ele><time>2026-04-06T09:57:04Z</time></trkpt><trkpt lat="46.035948809960125" lon="12.308488451746426"><ele>208.0</ele><time>2026-04-06T09:57:05Z</time></trkpt><trkpt lat="46.035783081723494" lon="12.308352244156778"><ele>208.0</ele><time>2026-04-06T09:57:06Z</time></trkpt><trkpt lat="46.03562076669436" lon="12.308180264731849"><ele>204.0</ele><time>2026-04-06T09:57:07Z</time></trkpt><trkpt lat="46.035466438116764" lon="12.307986496467736"><ele>200.0</ele><time>2026-04-06T09:57:08Z</time></trkpt><trkpt lat="46.03531677508148" lon="12.307815832258735"><ele>196.0</ele><time>2026-04-06T09:57:09Z</time></trkpt><trkpt lat="46.035162239446535" lon="12.30766113725902"><ele>196.0</ele><time>2026-04-06T09:57:10Z</time></trkpt><trkpt lat="46.03502039946621" lon="12.307440309019489"><ele>196.0</ele><time>2026-04-06T09:57:11Z</time></trkpt><trkpt lat="46.03486685694945" lon="12.30721434441831"><ele>196.0</ele><time>2026-04-06T09:57:12Z</time></trkpt><trkpt lat="46.03471464342966" lon="12.307006436961103"><ele>195.66666666666666</ele><time>2026-04-06T09:57:13Z</time></trkpt><trkpt lat="46.03456808225331" lon="12.306798251617968"><ele>195.33333333333331</ele><time>2026-04-06T09:57:14Z</time></trkpt><trkpt lat="46.03443890076592" lon="12.306581346192262"><ele>195.0</ele><time>2026-04-06T09:57:15Z</time></trkpt><trkpt lat="46.03427928842646" lon="12.30638527786754"><ele>193.0</ele><time>2026-04-06T09:57:16Z</time></trkpt><trkpt lat="46.03411336831401" lon="12.306170959149643"><ele>191.0</ele><time>2026-04-06T09:57:17Z</time></trkpt><trkpt lat="46.03393730960162" lon="12.305989641822501"><ele>189.0</ele><time>2026-04-06T09:57:18Z</time></trkpt><trkpt lat="46.033765941102814" lon="12.305795186631922"><ele>189.0</ele><time>2026-04-06T09:57:19Z</time></trkpt><trkpt lat="46.03358276732401" lon="12.305601279232627"><ele>189.0</ele><time>2026-04-06T09:57:20Z</time></trkpt><trkpt lat="46.033398853874814" lon="12.30542831464144"><ele>189.0</ele><time>2026-04-06T09:57:21Z</time></trkpt><trkpt lat="46.033232858644986" lon="12.305248391270224"><ele>189.33333333333334</ele><time>2026-04-06T09:57:22Z</time></trkpt><trkpt lat="46.03307109806539" lon="12.305075441802353"><ele>189.66666666666669</ele><time>2026-04-06T09:57:23Z</time></trkpt><trkpt lat="46.03291304042855" lon="12.304912041231345"><ele>190.0</ele><time>2026-04-06T09:57:24Z</time></trkpt><trkpt lat="46.032755531380054" lon="12.304745523277067"><ele>188.66666666666669</ele><time>2026-04-06T09:57:25Z</time></trkpt><trkpt lat="46.03259877703617" lon="12.304576408903104"><ele>187.33333333333334</ele><time>2026-04-06T09:57:26Z</time></trkpt><trkpt lat="46.032443968290586" lon="12.304402213988505"><ele>186.0</ele><time>2026-04-06T09:57:27Z</time></trkpt><trkpt lat="46.032283706896266" lon="12.304232708690359"><ele>187.0</ele><time>2026-04-06T09:57:28Z</time></trkpt><trkpt lat="46.03212358192315" lon="12.30406413027782"><ele>188.0</ele><time>2026-04-06T09:57:29Z</time></trkpt><trkpt lat="46.03199059147985" lon="12.303860755489891"><ele>189.0</ele><time>2026-04-06T09:57:30Z</time></trkpt><trkpt lat="46.031871334938536" lon="12.30363658362549"><ele>189.0</ele><time>2026-04-06T09:57:31Z</time></trkpt><trkpt lat="46.031761729944996" lon="12.303399128795107"><ele>189.0</ele><time>2026-04-06T09:57:32Z</time></trkpt><trkpt lat="46.03164767350655" lon="12.303141924367322"><ele>189.0</ele><time>2026-04-06T09:57:33Z</time></trkpt><trkpt lat="46.03153548354751" lon="12.302888052761965"><ele>187.0</ele><time>2026-04-06T09:57:34Z</time></trkpt><trkpt lat="46.03142971676089" lon="12.302648716009521"><ele>185.0</ele><time>2026-04-06T09:57:35Z</time></trkpt><trkpt lat="46.03131967977494" lon="12.302440348383161"><ele>183.0</ele><time>2026-04-06T09:57:35.999Z</time></trkpt><trkpt lat="46.03123722818202" lon="12.30224382262156"><ele>183.0</ele><time>2026-04-06T09:57:36.999Z</time></trkpt><trkpt lat="46.03115593150604" lon="12.30208075698821"><ele>183.0</ele><time>2026-04-06T09:57:37.999Z</time></trkpt><trkpt lat="46.03103352044521" lon="12.301960698914035"><ele>183.0</ele><time>2026-04-06T09:57:38.999Z</time></trkpt><trkpt lat="46.03090017580499" lon="12.30186016109597"><ele>183.0</ele><time>2026-04-06T09:57:39.999Z</time></trkpt><trkpt lat="46.03077236562415" lon="12.301795336631843"><ele>182.25</ele><time>2026-04-06T09:57:40.999Z</time></trkpt><trkpt lat="46.030655507201324" lon="12.301785245086032"><ele>181.5</ele><time>2026-04-06T09:57:41.999Z</time></trkpt><trkpt lat="46.0305496824596" lon="12.301833074933432"><ele>180.75</ele><time>2026-04-06T09:57:42.999Z</time></trkpt><trkpt lat="46.030464534830806" lon="12.301942668940145"><ele>180.0</ele><time>2026-04-06T09:57:43.999Z</time></trkpt><trkpt lat="46.03039383134394" lon="12.302097862247363"><ele>181.66666666666666</ele><time>2026-04-06T09:57:44.999Z</time></trkpt><trkpt lat="46.03031688013134" lon="12.302292461158599"><ele>183.33333333333331</ele><time>2026-04-06T09:57:45.999Z</time></trkpt><trkpt lat="46.030216675549326" lon="12.302480899557224"><ele>185.0</ele><time>2026-04-06T09:57:46.999Z</time></trkpt><trkpt lat="46.03008321683065" lon="12.302631134455732"><ele>185.0</ele><time>2026-04-06T09:57:47.999Z</time></trkpt><trkpt lat="46.02997966611873" lon="12.302792965060124"><ele>185.0</ele><time>2026-04-06T09:57:48.999Z</time></trkpt><trkpt lat="46.029884270191324" lon="12.303021995187166"><ele>185.0</ele><time>2026-04-06T09:57:49.999Z</time></trkpt><trkpt lat="46.0298194473954" lon="12.303274982517296"><ele>182.25</ele><time>2026-04-06T09:57:50.999Z</time></trkpt><trkpt lat="46.029767453175126" lon="12.303496863025881"><ele>179.5</ele><time>2026-04-06T09:57:51.999Z</time></trkpt><trkpt lat="46.02972056379028" lon="12.303671419298082"><ele>176.75</ele><time>2026-04-06T09:57:52.999Z</time></trkpt><trkpt lat="46.02965064011915" lon="12.30380397023907"><ele>174.0</ele><time>2026-04-06T09:57:53.999Z</time></trkpt><trkpt lat="46.029538425232474" lon="12.303879046784392"><ele>174.0</ele><time>2026-04-06T09:57:54.999Z</time></trkpt><trkpt lat="46.02941317400635" lon="12.30390898555831"><ele>174.0</ele><time>2026-04-06T09:57:55.999Z</time></trkpt><trkpt lat="46.02928607652366" lon="12.30388681804337"><ele>174.0</ele><time>2026-04-06T09:57:56.999Z</time></trkpt><trkpt lat="46.02916864567445" lon="12.303777212650377"><ele>174.0</ele><time>2026-04-06T09:57:57.999Z</time></trkpt><trkpt lat="46.02903059196368" lon="12.30364787683739"><ele>174.66666666666666</ele><time>2026-04-06T09:57:58.999Z</time></trkpt><trkpt lat="46.02892598017014" lon="12.30347593195857"><ele>175.33333333333331</ele><time>2026-04-06T09:57:59.999Z</time></trkpt><trkpt lat="46.02885786110726" lon="12.303272560206098"><ele>176.0</ele><time>2026-04-06T09:58:00.999Z</time></trkpt><trkpt lat="46.02881043729181" lon="12.303050001907632"><ele>172.33333333333331</ele><time>2026-04-06T09:58:01.999Z</time></trkpt><trkpt lat="46.02879063344201" lon="12.30278307157893"><ele>168.66666666666666</ele><time>2026-04-06T09:58:02.999Z</time></trkpt><trkpt lat="46.02878312121156" lon="12.302495014875255"><ele>165.0</ele><time>2026-04-06T09:58:03.999Z</time></trkpt><trkpt lat="46.028777884528026" lon="12.30221620830103"><ele>165.0</ele><time>2026-04-06T09:58:04.999Z</time></trkpt><trkpt lat="46.028737171078966" lon="12.301959883442052"><ele>165.0</ele><time>2026-04-06T09:58:05.999Z</time></trkpt><trkpt lat="46.02868980132078" lon="12.30171351800145"><ele>165.0</ele><time>2026-04-06T09:58:06.999Z</time></trkpt><trkpt lat="46.02861885128948" lon="12.301478466064477"><ele>165.66666666666666</ele><time>2026-04-06T09:58:07.999Z</time></trkpt><trkpt lat="46.02851996830842" lon="12.301252649085761"><ele>166.33333333333331</ele><time>2026-04-06T09:58:08.999Z</time></trkpt><trkpt lat="46.02838834183067" lon="12.301043395623235"><ele>167.0</ele><time>2026-04-06T09:58:09.999Z</time></trkpt><trkpt lat="46.028241967327105" lon="12.300877527513087"><ele>166.0</ele><time>2026-04-06T09:58:10.999Z</time></trkpt><trkpt lat="46.02811324972043" lon="12.300709893117823"><ele>165.0</ele><time>2026-04-06T09:58:11.999Z</time></trkpt><trkpt lat="46.028000000907966" lon="12.300550273317612"><ele>164.0</ele><time>2026-04-06T09:58:12.999Z</time></trkpt><trkpt lat="46.027889271020754" lon="12.300391121365852"><ele>164.0</ele><time>2026-04-06T09:58:13.999Z</time></trkpt><trkpt lat="46.02778220441896" lon="12.300228349429467"><ele>164.0</ele><time>2026-04-06T09:58:14.999Z</time></trkpt><trkpt lat="46.02767855536058" lon="12.300069529946231"><ele>164.0</ele><time>2026-04-06T09:58:15.999Z</time></trkpt><trkpt lat="46.027585288431105" lon="12.299936049744867"><ele>164.0</ele><time>2026-04-06T09:58:16.999Z</time></trkpt><trkpt lat="46.02749050411129" lon="12.29980758990805"><ele>164.25</ele><time>2026-04-06T09:58:17.999Z</time></trkpt><trkpt lat="46.02739318540162" lon="12.299668484685846"><ele>164.5</ele><time>2026-04-06T09:58:18.999Z</time></trkpt><trkpt lat="46.02729176453401" lon="12.29951883267873"><ele>164.75</ele><time>2026-04-06T09:58:19.999Z</time></trkpt><trkpt lat="46.0271853823781" lon="12.299362536510442"><ele>165.0</ele><time>2026-04-06T09:58:20.999Z</time></trkpt><trkpt lat="46.02706215256696" lon="12.299197533837788"><ele>165.0</ele><time>2026-04-06T09:58:21.999Z</time></trkpt><trkpt lat="46.02692993717768" lon="12.29901453677641"><ele>165.0</ele><time>2026-04-06T09:58:22.999Z</time></trkpt><trkpt lat="46.02679472777365" lon="12.29880960044924"><ele>165.0</ele><time>2026-04-06T09:58:23.999Z</time></trkpt><trkpt lat="46.02664535516479" lon="12.298613812514985"><ele>164.66666666666666</ele><time>2026-04-06T09:58:24.999Z</time></trkpt><trkpt lat="46.0265071261518" lon="12.298434145513752"><ele>164.33333333333331</ele><time>2026-04-06T09:58:26Z</time></trkpt><trkpt lat="46.02638534197887" lon="12.29825372757341"><ele>164.0</ele><time>2026-04-06T09:58:27Z</time></trkpt><trkpt lat="46.0262717936038" lon="12.298078024841134"><ele>164.66666666666666</ele><time>2026-04-06T09:58:28Z</time></trkpt><trkpt lat="46.02615662161321" lon="12.297908604012084"><ele>165.33333333333334</ele><time>2026-04-06T09:58:29Z</time></trkpt><trkpt lat="46.026050228808685" lon="12.297727234003236"><ele>166.0</ele><time>2026-04-06T09:58:30Z</time></trkpt><trkpt lat="46.025952920889864" lon="12.297532997871325"><ele>166.0</ele><time>2026-04-06T09:58:31Z</time></trkpt><trkpt lat="46.025870572250575" lon="12.297331223699143"><ele>166.0</ele><time>2026-04-06T09:58:32Z</time></trkpt><trkpt lat="46.02577576389641" lon="12.297138451204429"><ele>166.0</ele><time>2026-04-06T09:58:33Z</time></trkpt><trkpt lat="46.02567598937324" lon="12.2969650671153"><ele>163.33333333333334</ele><time>2026-04-06T09:58:34Z</time></trkpt><trkpt lat="46.025586771540326" lon="12.296781833415716"><ele>160.66666666666666</ele><time>2026-04-06T09:58:35Z</time></trkpt><trkpt lat="46.02546178361548" lon="12.296624890410246"><ele>158.0</ele><time>2026-04-06T09:58:36Z</time></trkpt><trkpt lat="46.02534610400534" lon="12.296454653366517"><ele>160.0</ele><time>2026-04-06T09:58:37Z</time></trkpt><trkpt lat="46.02522286567628" lon="12.296302535553329"><ele>162.0</ele><time>2026-04-06T09:58:38Z</time></trkpt><trkpt lat="46.025099255022326" lon="12.29616027384472"><ele>164.0</ele><time>2026-04-06T09:58:39Z</time></trkpt><trkpt lat="46.024970378597494" lon="12.296025560759023"><ele>164.0</ele><time>2026-04-06T09:58:40Z</time></trkpt><trkpt lat="46.0248417929135" lon="12.295891301307208"><ele>164.0</ele><time>2026-04-06T09:58:41Z</time></trkpt><trkpt lat="46.024714598398404" lon="12.295764369378992"><ele>164.0</ele><time>2026-04-06T09:58:42Z</time></trkpt><trkpt lat="46.02458662452023" lon="12.295644775611423"><ele>166.66666666666666</ele><time>2026-04-06T09:58:43Z</time></trkpt><trkpt lat="46.024458222052566" lon="12.295526069739505"><ele>169.33333333333334</ele><time>2026-04-06T09:58:44Z</time></trkpt><trkpt lat="46.02432799267274" lon="12.295399022755374"><ele>172.0</ele><time>2026-04-06T09:58:45Z</time></trkpt><trkpt lat="46.02419155647936" lon="12.295272161147286"><ele>169.66666666666669</ele><time>2026-04-06T09:58:46Z</time></trkpt><trkpt lat="46.02404981195952" lon="12.295158670282701"><ele>167.33333333333334</ele><time>2026-04-06T09:58:47Z</time></trkpt><trkpt lat="46.023910122030706" lon="12.295057809687671"><ele>165.0</ele><time>2026-04-06T09:58:48Z</time></trkpt><trkpt lat="46.023767059106724" lon="12.294984472238763"><ele>165.0</ele><time>2026-04-06T09:58:49Z</time></trkpt><trkpt lat="46.02361189745037" lon="12.294936226319098"><ele>165.0</ele><time>2026-04-06T09:58:50Z</time></trkpt><trkpt lat="46.02345709958783" lon="12.2948611849022"><ele>165.0</ele><time>2026-04-06T09:58:51Z</time></trkpt><trkpt lat="46.023315587649584" lon="12.29476182564306"><ele>164.33333333333334</ele><time>2026-04-06T09:58:52Z</time></trkpt><trkpt lat="46.023191616497" lon="12.294611207168632"><ele>163.66666666666669</ele><time>2026-04-06T09:58:53Z</time></trkpt><trkpt lat="46.02307377996616" lon="12.294439180375521"><ele>163.0</ele><time>2026-04-06T09:58:54Z</time></trkpt><trkpt lat="46.02295866912191" lon="12.294279240030894"><ele>163.0</ele><time>2026-04-06T09:58:55Z</time></trkpt><trkpt lat="46.02285402671571" lon="12.29412645145074"><ele>163.0</ele><time>2026-04-06T09:58:56Z</time></trkpt><trkpt lat="46.02275245063069" lon="12.293993455054373"><ele>163.0</ele><time>2026-04-06T09:58:57Z</time></trkpt><trkpt lat="46.022654937222214" lon="12.293866142996805"><ele>163.0</ele><time>2026-04-06T09:58:58Z</time></trkpt><trkpt lat="46.02255881501569" lon="12.293723272876871"><ele>164.0</ele><time>2026-04-06T09:58:59Z</time></trkpt><trkpt lat="46.02245283992509" lon="12.2935654297226"><ele>165.0</ele><time>2026-04-06T09:59:00Z</time></trkpt><trkpt lat="46.02233739998294" lon="12.293410041462138"><ele>166.0</ele><time>2026-04-06T09:59:01Z</time></trkpt><trkpt lat="46.022229363506405" lon="12.293266086668014"><ele>166.0</ele><time>2026-04-06T09:59:02Z</time></trkpt><trkpt lat="46.022131210193514" lon="12.293115699934459"><ele>166.0</ele><time>2026-04-06T09:59:03Z</time></trkpt><trkpt lat="46.02202668190801" lon="12.292966235906425"><ele>166.0</ele><time>2026-04-06T09:59:04Z</time></trkpt><trkpt lat="46.02192089079675" lon="12.292827480782206"><ele>166.0</ele><time>2026-04-06T09:59:05Z</time></trkpt><trkpt lat="46.021825319556754" lon="12.292696711385208"><ele>165.75</ele><time>2026-04-06T09:59:06Z</time></trkpt><trkpt lat="46.021734250353205" lon="12.292564407265782"><ele>165.5</ele><time>2026-04-06T09:59:07Z</time></trkpt><trkpt lat="46.02164659559866" lon="12.292430720458675"><ele>165.25</ele><time>2026-04-06T09:59:08Z</time></trkpt><trkpt lat="46.021556012974905" lon="12.292300236345575"><ele>165.0</ele><time>2026-04-06T09:59:09Z</time></trkpt><trkpt lat="46.02145006387198" lon="12.292159026865331"><ele>166.66666666666666</ele><time>2026-04-06T09:59:10Z</time></trkpt><trkpt lat="46.02132762077215" lon="12.292002864559297"><ele>168.33333333333331</ele><time>2026-04-06T09:59:11Z</time></trkpt><trkpt lat="46.02118394541997" lon="12.29185551542112"><ele>170.0</ele><time>2026-04-06T09:59:12Z</time></trkpt><trkpt lat="46.02104891955487" lon="12.291717026554572"><ele>170.0</ele><time>2026-04-06T09:59:13Z</time></trkpt><trkpt lat="46.020919920407344" lon="12.291596903089083"><ele>170.0</ele><time>2026-04-06T09:59:14Z</time></trkpt><trkpt lat="46.020775758682596" lon="12.291492409734122"><ele>170.0</ele><time>2026-04-06T09:59:15Z</time></trkpt><trkpt lat="46.02063051849697" lon="12.291395779908443"><ele>170.0</ele><time>2026-04-06T09:59:16Z</time></trkpt><trkpt lat="46.02048328180453" lon="12.291314485371082"><ele>170.0</ele><time>2026-04-06T09:59:17Z</time></trkpt><trkpt lat="46.020342765496856" lon="12.291244418342838"><ele>170.0</ele><time>2026-04-06T09:59:18Z</time></trkpt><trkpt lat="46.02020401582" lon="12.291167387323435"><ele>170.0</ele><time>2026-04-06T09:59:19Z</time></trkpt><trkpt lat="46.02004646082259" lon="12.291079267289625"><ele>170.0</ele><time>2026-04-06T09:59:20Z</time></trkpt><trkpt lat="46.0198848815975" lon="12.290987352777945"><ele>170.0</ele><time>2026-04-06T09:59:21Z</time></trkpt><trkpt lat="46.01973528046874" lon="12.29089513099158"><ele>168.75</ele><time>2026-04-06T09:59:22Z</time></trkpt><trkpt lat="46.0195951320017" lon="12.290814513726803"><ele>167.5</ele><time>2026-04-06T09:59:23Z</time></trkpt><trkpt lat="46.01946453063145" lon="12.290740954529127"><ele>166.25</ele><time>2026-04-06T09:59:24Z</time></trkpt><trkpt lat="46.0193401238322" lon="12.290669216692867"><ele>165.0</ele><time>2026-04-06T09:59:25Z</time></trkpt><trkpt lat="46.01921657060359" lon="12.29059924734138"><ele>164.75</ele><time>2026-04-06T09:59:26Z</time></trkpt><trkpt lat="46.019097411027666" lon="12.29053494529826"><ele>164.5</ele><time>2026-04-06T09:59:27Z</time></trkpt><trkpt lat="46.01898024516237" lon="12.29047369579887"><ele>164.25</ele><time>2026-04-06T09:59:27.999Z</time></trkpt><trkpt lat="46.01886368208885" lon="12.290401251937235"><ele>164.0</ele><time>2026-04-06T09:59:28.999Z</time></trkpt><trkpt lat="46.018748786612925" lon="12.290328964034796"><ele>164.0</ele><time>2026-04-06T09:59:29.999Z</time></trkpt><trkpt lat="46.018634928809206" lon="12.290263043262476"><ele>164.0</ele><time>2026-04-06T09:59:30.999Z</time></trkpt><trkpt lat="46.01851156308465" lon="12.290190150210199"><ele>164.0</ele><time>2026-04-06T09:59:31.999Z</time></trkpt><trkpt lat="46.01837098785925" lon="12.290085415949674"><ele>164.0</ele><time>2026-04-06T09:59:32.999Z</time></trkpt><trkpt lat="46.01820489678701" lon="12.289974292918545"><ele>164.33333333333331</ele><time>2026-04-06T09:59:33.999Z</time></trkpt><trkpt lat="46.01801674575136" lon="12.289862308503665"><ele>164.66666666666666</ele><time>2026-04-06T09:59:34.999Z</time></trkpt><trkpt lat="46.0178418032218" lon="12.289716528140758"><ele>165.0</ele><time>2026-04-06T09:59:35.999Z</time></trkpt><trkpt lat="46.017677955295326" lon="12.289583811716804"><ele>165.0</ele><time>2026-04-06T09:59:36.999Z</time></trkpt><trkpt lat="46.01751438914518" lon="12.289443766218877"><ele>165.0</ele><time>2026-04-06T09:59:37.999Z</time></trkpt><trkpt lat="46.017365055906666" lon="12.289283260572752"><ele>165.0</ele><time>2026-04-06T09:59:38.999Z</time></trkpt><trkpt lat="46.01721857775945" lon="12.289146200670496"><ele>163.66666666666666</ele><time>2026-04-06T09:59:39.999Z</time></trkpt><trkpt lat="46.01707184315871" lon="12.289028069558393"><ele>162.33333333333331</ele><time>2026-04-06T09:59:40.999Z</time></trkpt><trkpt lat="46.01692485018717" lon="12.288944571355874"><ele>161.0</ele><time>2026-04-06T09:59:41.999Z</time></trkpt><trkpt lat="46.01678985259477" lon="12.288854552299057"><ele>168.0</ele><time>2026-04-06T09:59:42.999Z</time></trkpt><trkpt lat="46.01664828957359" lon="12.288785459989244"><ele>175.0</ele><time>2026-04-06T09:59:43.999Z</time></trkpt><trkpt lat="46.01648616976854" lon="12.288752602010238"><ele>182.0</ele><time>2026-04-06T09:59:44.999Z</time></trkpt><trkpt lat="46.01630186608411" lon="12.288768383317356"><ele>182.0</ele><time>2026-04-06T09:59:45.999Z</time></trkpt><trkpt lat="46.016112547176455" lon="12.288794547893117"><ele>182.0</ele><time>2026-04-06T09:59:46.999Z</time></trkpt><trkpt lat="46.015919455279416" lon="12.288781384135001"><ele>182.0</ele><time>2026-04-06T09:59:47.999Z</time></trkpt><trkpt lat="46.015732186770904" lon="12.288744057387381"><ele>180.66666666666666</ele><time>2026-04-06T09:59:48.999Z</time></trkpt><trkpt lat="46.015552882795824" lon="12.288725502631909"><ele>179.33333333333334</ele><time>2026-04-06T09:59:49.999Z</time></trkpt><trkpt lat="46.015375826801105" lon="12.288751745930197"><ele>178.0</ele><time>2026-04-06T09:59:50.999Z</time></trkpt><trkpt lat="46.01519892938066" lon="12.288830283915955"><ele>178.0</ele><time>2026-04-06T09:59:51.999Z</time></trkpt><trkpt lat="46.015015392409644" lon="12.288906314950077"><ele>178.0</ele><time>2026-04-06T09:59:52.999Z</time></trkpt><trkpt lat="46.01482430195576" lon="12.288953582989192"><ele>178.0</ele><time>2026-04-06T09:59:53.999Z</time></trkpt><trkpt lat="46.01464285930446" lon="12.288976447950969"><ele>175.66666666666669</ele><time>2026-04-06T09:59:54.999Z</time></trkpt><trkpt lat="46.01447655480822" lon="12.288973038399613"><ele>173.33333333333334</ele><time>2026-04-06T09:59:55.999Z</time></trkpt><trkpt lat="46.014328761572386" lon="12.288994139479342"><ele>171.0</ele><time>2026-04-06T09:59:56.999Z</time></trkpt><trkpt lat="46.01419054428374" lon="12.289057019449768"><ele>179.33333333333331</ele><time>2026-04-06T09:59:57.999Z</time></trkpt><trkpt lat="46.014062895791184" lon="12.28916255186518"><ele>187.66666666666666</ele><time>2026-04-06T09:59:58.999Z</time></trkpt><trkpt lat="46.0139565142974" lon="12.289311496456564"><ele>196.0</ele><time>2026-04-06T09:59:59.999Z</time></trkpt><trkpt lat="46.01386398809561" lon="12.289502580438379"><ele>196.0</ele><time>2026-04-06T10:00:00.999Z</time></trkpt><trkpt lat="46.01379236116883" lon="12.289706754327941"><ele>196.0</ele><time>2026-04-06T10:00:01.999Z</time></trkpt><trkpt lat="46.0137183623422" lon="12.28987955152874"><ele>196.0</ele><time>2026-04-06T10:00:02.999Z</time></trkpt><trkpt lat="46.01362880116723" lon="12.290023705445604"><ele>196.0</ele><time>2026-04-06T10:00:03.999Z</time></trkpt><trkpt lat="46.0135189723825" lon="12.290130563305075"><ele>190.5</ele><time>2026-04-06T10:00:04.999Z</time></trkpt><trkpt lat="46.01340558265827" lon="12.290197384562509"><ele>185.0</ele><time>2026-04-06T10:00:05.999Z</time></trkpt><trkpt lat="46.01329564170442" lon="12.29019636105431"><ele>179.5</ele><time>2026-04-06T10:00:06.999Z</time></trkpt><trkpt lat="46.013185274805785" lon="12.29012834731835"><ele>174.0</ele><time>2026-04-06T10:00:07.999Z</time></trkpt><trkpt lat="46.01305587998543" lon="12.290011166900621"><ele>173.0</ele><time>2026-04-06T10:00:08.999Z</time></trkpt><trkpt lat="46.01288579962542" lon="12.289920626926499"><ele>172.0</ele><time>2026-04-06T10:00:09.999Z</time></trkpt><trkpt lat="46.01273033264484" lon="12.289819238497639"><ele>171.0</ele><time>2026-04-06T10:00:10.999Z</time></trkpt><trkpt lat="46.012543065367815" lon="12.289821964786102"><ele>171.0</ele><time>2026-04-06T10:00:11.999Z</time></trkpt><trkpt lat="46.012379896506296" lon="12.28976912832112"><ele>171.0</ele><time>2026-04-06T10:00:12.999Z</time></trkpt><trkpt lat="46.01221888943261" lon="12.289735080875058"><ele>171.0</ele><time>2026-04-06T10:00:13.999Z</time></trkpt><trkpt lat="46.012059255321454" lon="12.289726477750397"><ele>171.0</ele><time>2026-04-06T10:00:14.999Z</time></trkpt><trkpt lat="46.01190940631675" lon="12.289698694399826"><ele>171.0</ele><time>2026-04-06T10:00:15.999Z</time></trkpt><trkpt lat="46.01177278499598" lon="12.289662110672325"><ele>171.0</ele><time>2026-04-06T10:00:16.999Z</time></trkpt><trkpt lat="46.01164791941592" lon="12.289562296464537"><ele>171.0</ele><time>2026-04-06T10:00:17.999Z</time></trkpt><trkpt lat="46.01153850502905" lon="12.289460696990238"><ele>167.75</ele><time>2026-04-06T10:00:18.999Z</time></trkpt><trkpt lat="46.01142639692189" lon="12.289346941783887"><ele>164.5</ele><time>2026-04-06T10:00:19.999Z</time></trkpt><trkpt lat="46.01132142456448" lon="12.28923332469994"><ele>161.25</ele><time>2026-04-06T10:00:20.999Z</time></trkpt><trkpt lat="46.01122310036015" lon="12.289107049521965"><ele>158.0</ele><time>2026-04-06T10:00:21.999Z</time></trkpt><trkpt lat="46.011132578255484" lon="12.288979333243915"><ele>158.5</ele><time>2026-04-06T10:00:22.999Z</time></trkpt><trkpt lat="46.01102822585641" lon="12.288857128990758"><ele>159.0</ele><time>2026-04-06T10:00:23.999Z</time></trkpt><trkpt lat="46.010932729111836" lon="12.288717332476885"><ele>159.5</ele><time>2026-04-06T10:00:24.999Z</time></trkpt><trkpt lat="46.010837121533086" lon="12.288578653906567"><ele>160.0</ele><time>2026-04-06T10:00:25.999Z</time></trkpt><trkpt lat="46.01072768707528" lon="12.28843123194317"><ele>160.0</ele><time>2026-04-06T10:00:26.999Z</time></trkpt><trkpt lat="46.010617615198576" lon="12.28827967014121"><ele>160.0</ele><time>2026-04-06T10:00:27.999Z</time></trkpt><trkpt lat="46.01049563327835" lon="12.288083616357598"><ele>160.0</ele><time>2026-04-06T10:00:28.999Z</time></trkpt><trkpt lat="46.01037681746095" lon="12.287917073651206"><ele>160.25</ele><time>2026-04-06T10:00:29.999Z</time></trkpt><trkpt lat="46.01025938727591" lon="12.287759665019829"><ele>160.5</ele><time>2026-04-06T10:00:30.999Z</time></trkpt><trkpt lat="46.010140578960055" lon="12.287626319690743"><ele>160.75</ele><time>2026-04-06T10:00:32Z</time></trkpt><trkpt lat="46.0100537797409" lon="12.28749328000191"><ele>161.0</ele><time>2026-04-06T10:00:33Z</time></trkpt><trkpt lat="46.00997550328448" lon="12.287379134225214"><ele>160.8</ele><time>2026-04-06T10:00:34Z</time></trkpt><trkpt lat="46.00990084747997" lon="12.287279061103106"><ele>160.60000000000002</ele><time>2026-04-06T10:00:35Z</time></trkpt><trkpt lat="46.00977960644986" lon="12.287271760005934"><ele>160.4</ele><time>2026-04-06T10:00:36Z</time></trkpt><trkpt lat="46.00969500983903" lon="12.287255089272694"><ele>160.2</ele><time>2026-04-06T10:00:37Z</time></trkpt><trkpt lat="46.00961674778615" lon="12.287246508047259"><ele>160.0</ele><time>2026-04-06T10:00:38Z</time></trkpt><trkpt lat="46.00951124611627" lon="12.287213260118257"><ele>160.0</ele><time>2026-04-06T10:00:40Z</time></trkpt><trkpt lat="46.00944321680781" lon="12.287078050393383"><ele>160.0</ele><time>2026-04-06T10:00:42Z</time></trkpt><trkpt lat="46.00942196038923" lon="12.286968291542372"><ele>160.0</ele><time>2026-04-06T10:00:43Z</time></trkpt><trkpt lat="46.00934471000234" lon="12.286919973648148"><ele>160.0</ele><time>2026-04-06T10:00:44Z</time></trkpt><trkpt lat="46.009259158786044" lon="12.28692364783294"><ele>160.0</ele><time>2026-04-06T10:00:45Z</time></trkpt><trkpt lat="46.00918155389106" lon="12.28698331904259"><ele>159.4</ele><time>2026-04-06T10:00:46Z</time></trkpt><trkpt lat="46.00912987328797" lon="12.287085093169303"><ele>158.8</ele><time>2026-04-06T10:00:47Z</time></trkpt><trkpt lat="46.00911052338933" lon="12.287222071360082"><ele>158.2</ele><time>2026-04-06T10:00:48Z</time></trkpt><trkpt lat="46.009100174313986" lon="12.287378912045645"><ele>157.6</ele><time>2026-04-06T10:00:49Z</time></trkpt><trkpt lat="46.009039228759484" lon="12.287529018276105"><ele>157.0</ele><time>2026-04-06T10:00:50Z</time></trkpt><trkpt lat="46.008948207907885" lon="12.287676824759469"><ele>160.66666666666669</ele><time>2026-04-06T10:00:51Z</time></trkpt><trkpt lat="46.008754166451766" lon="12.287732435509934"><ele>164.33333333333334</ele><time>2026-04-06T10:00:52Z</time></trkpt><trkpt lat="46.008583456159315" lon="12.287865427737625"><ele>168.0</ele><time>2026-04-06T10:00:53Z</time></trkpt><trkpt lat="46.00840670665255" lon="12.28799198330082"><ele>173.66666666666666</ele><time>2026-04-06T10:00:54Z</time></trkpt><trkpt lat="46.00822573605454" lon="12.288108468455595"><ele>179.33333333333331</ele><time>2026-04-06T10:00:55Z</time></trkpt><trkpt lat="46.00803852498101" lon="12.288242707579524"><ele>185.0</ele><time>2026-04-06T10:00:56Z</time></trkpt><trkpt lat="46.00785302874044" lon="12.28837567419766"><ele>185.0</ele><time>2026-04-06T10:00:57Z</time></trkpt><trkpt lat="46.00765763773988" lon="12.288514499890434"><ele>185.0</ele><time>2026-04-06T10:00:58Z</time></trkpt><trkpt lat="46.007424324289595" lon="12.288680269612458"><ele>186.0</ele><time>2026-04-06T10:00:59.069Z</time></trkpt><trkpt lat="46.00719808703459" lon="12.288832746991545"><ele>187.0</ele><time>2026-04-06T10:01:00.062Z</time></trkpt><trkpt lat="46.006996193592514" lon="12.288974838271708"><ele>195.0</ele><time>2026-04-06T10:01:01.062Z</time></trkpt><trkpt lat="46.00679585119864" lon="12.289106490743523"><ele>203.0</ele><time>2026-04-06T10:01:02.063Z</time></trkpt><trkpt lat="46.006611298256026" lon="12.289220017892767"><ele>211.0</ele><time>2026-04-06T10:01:03.06Z</time></trkpt><trkpt lat="46.00590234171862" lon="12.28959521749713"><ele>209.66666666666666</ele><time>2026-04-06T10:01:06.649Z</time></trkpt><trkpt lat="46.00570528020964" lon="12.289699274623997"><ele>208.33333333333331</ele><time>2026-04-06T10:01:07.649Z</time></trkpt><trkpt lat="46.00551566461282" lon="12.289831897920443"><ele>207.0</ele><time>2026-04-06T10:01:08.649Z</time></trkpt><trkpt lat="46.00532303329766" lon="12.289948138130702"><ele>215.66666666666669</ele><time>2026-04-06T10:01:09.644Z</time></trkpt><trkpt lat="46.0051243019402" lon="12.290052287408297"><ele>224.33333333333334</ele><time>2026-04-06T10:01:10.647Z</time></trkpt><trkpt lat="46.00494438586649" lon="12.290208146913999"><ele>233.0</ele><time>2026-04-06T10:01:11.645Z</time></trkpt><trkpt lat="46.00475309241995" lon="12.29033506274015"><ele>233.0</ele><time>2026-04-06T10:01:12.646Z</time></trkpt><trkpt lat="46.00457441700082" lon="12.290496799933408"><ele>233.0</ele><time>2026-04-06T10:01:13.647Z</time></trkpt><trkpt lat="46.00441084843009" lon="12.290688395868978"><ele>233.0</ele><time>2026-04-06T10:01:14.648Z</time></trkpt><trkpt lat="46.00424304922858" lon="12.29086935839929"><ele>255.66666666666669</ele><time>2026-04-06T10:01:15.649Z</time></trkpt><trkpt lat="46.00407067492829" lon="12.291043003497203"><ele>278.3333333333333</ele><time>2026-04-06T10:01:16.648Z</time></trkpt><trkpt lat="46.00392220152963" lon="12.29125609760045"><ele>301.0</ele><time>2026-04-06T10:01:17.645Z</time></trkpt><trkpt lat="46.003754879100306" lon="12.291440516203759"><ele>318.0</ele><time>2026-04-06T10:01:18.647Z</time></trkpt><trkpt lat="46.0036756" lon="12.2915753"><ele>335.0</ele><time>2026-04-06T10:01:19.648Z</time></trkpt><trkpt lat="45.99779163861209" lon="12.300339236490101"><ele>242.5</ele><time>2026-04-06T10:01:44.999Z</time></trkpt><trkpt lat="45.99760821780823" lon="12.300588055592454"><ele>150.0</ele><time>2026-04-06T10:01:45.999Z</time></trkpt><trkpt lat="45.99744913222404" lon="12.300865528540047"><ele>148.66666666666666</ele><time>2026-04-06T10:01:46.999Z</time></trkpt><trkpt lat="45.997304706982504" lon="12.301141076677059"><ele>147.33333333333331</ele><time>2026-04-06T10:01:47.999Z</time></trkpt><trkpt lat="45.99716033316489" lon="12.301349352545497"><ele>146.0</ele><time>2026-04-06T10:01:48.999Z</time></trkpt><trkpt lat="45.99703099681116" lon="12.301559193120577"><ele>146.0</ele><time>2026-04-06T10:01:49.999Z</time></trkpt><trkpt lat="45.9969247175522" lon="12.301652705535592"><ele>146.0</ele><time>2026-04-06T10:01:50.999Z</time></trkpt><trkpt lat="45.99680032379124" lon="12.30174457595234"><ele>146.0</ele><time>2026-04-06T10:01:51.999Z</time></trkpt><trkpt lat="45.99664204629733" lon="12.301712102567032"><ele>146.0</ele><time>2026-04-06T10:01:52.999Z</time></trkpt><trkpt lat="45.99657808954646" lon="12.301733780278392"><ele>145.8</ele><time>2026-04-06T10:01:53.999Z</time></trkpt><trkpt lat="45.996499257601286" lon="12.301730721318481"><ele>145.6</ele><time>2026-04-06T10:01:54.999Z</time></trkpt><trkpt lat="45.99637405579171" lon="12.301682257347586"><ele>145.4</ele><time>2026-04-06T10:01:56.999Z</time></trkpt><trkpt lat="45.99629350762591" lon="12.301665181599322"><ele>145.2</ele><time>2026-04-06T10:01:57.999Z</time></trkpt><trkpt lat="45.99621483578369" lon="12.301748948671023"><ele>145.0</ele><time>2026-04-06T10:01:58.999Z</time></trkpt><trkpt lat="45.99616396428508" lon="12.301882240357195"><ele>145.0</ele><time>2026-04-06T10:01:59.999Z</time></trkpt><trkpt lat="45.99612672175888" lon="12.302061780851876"><ele>145.0</ele><time>2026-04-06T10:02:00.999Z</time></trkpt><trkpt lat="45.99604585796325" lon="12.302191235244607"><ele>145.0</ele><time>2026-04-06T10:02:01.999Z</time></trkpt><trkpt lat="45.99594906235843" lon="12.302316528497323"><ele>145.0</ele><time>2026-04-06T10:02:02.999Z</time></trkpt><trkpt lat="45.995773842903105" lon="12.302394791846824"><ele>144.0</ele><time>2026-04-06T10:02:03.999Z</time></trkpt><trkpt lat="45.99561505023694" lon="12.302453192223988"><ele>143.0</ele><time>2026-04-06T10:02:04.999Z</time></trkpt><trkpt lat="45.995448900141604" lon="12.302464098463503"><ele>142.0</ele><time>2026-04-06T10:02:05.999Z</time></trkpt><trkpt lat="45.99528001318568" lon="12.302433059133374"><ele>142.0</ele><time>2026-04-06T10:02:06.999Z</time></trkpt><trkpt lat="45.99512209072915" lon="12.302359587511546"><ele>142.0</ele><time>2026-04-06T10:02:07.999Z</time></trkpt><trkpt lat="45.99497253981371" lon="12.302270447568356"><ele>142.0</ele><time>2026-04-06T10:02:08.999Z</time></trkpt><trkpt lat="45.99486077048934" lon="12.302148302746275"><ele>137.0</ele><time>2026-04-06T10:02:09.999Z</time></trkpt><trkpt lat="45.99450951184284" lon="12.301261702893772"><ele>137.0</ele><time>2026-04-06T10:02:10.999Z</time></trkpt><trkpt lat="45.99444050037516" lon="12.301187526901861"><ele>137.0</ele><time>2026-04-06T10:02:11.999Z</time></trkpt><trkpt lat="45.99436159500172" lon="12.301102716632688"><ele>137.0</ele><time>2026-04-06T10:02:13.999Z</time></trkpt><trkpt lat="45.99410943963084" lon="12.300988241761385"><ele>137.0</ele><time>2026-04-06T10:02:22.999Z</time></trkpt><trkpt lat="45.99401424183601" lon="12.301085608750983"><ele>137.25</ele><time>2026-04-06T10:02:23.999Z</time></trkpt><trkpt lat="45.99390738588524" lon="12.301199476195608"><ele>137.5</ele><time>2026-04-06T10:02:24.999Z</time></trkpt><trkpt lat="45.99382596040507" lon="12.301337980015171"><ele>137.75</ele><time>2026-04-06T10:02:25.999Z</time></trkpt><trkpt lat="45.99371088832515" lon="12.301453717775326"><ele>138.0</ele><time>2026-04-06T10:02:26.999Z</time></trkpt><trkpt lat="45.99359118746063" lon="12.30157740281788"><ele>138.0</ele><time>2026-04-06T10:02:27.999Z</time></trkpt><trkpt lat="45.99346064105507" lon="12.301744862535166"><ele>138.0</ele><time>2026-04-06T10:02:28.999Z</time></trkpt><trkpt lat="45.99336968486554" lon="12.30199143228817"><ele>138.0</ele><time>2026-04-06T10:02:29.999Z</time></trkpt><trkpt lat="45.99326996729894" lon="12.30220152289703"><ele>137.33333333333334</ele><time>2026-04-06T10:02:30.999Z</time></trkpt><trkpt lat="45.993156778510375" lon="12.3024192039467"><ele>136.66666666666669</ele><time>2026-04-06T10:02:31.999Z</time></trkpt><trkpt lat="45.993022893689535" lon="12.302693263377963"><ele>136.0</ele><time>2026-04-06T10:02:32.999Z</time></trkpt><trkpt lat="45.992895334173" lon="12.302854461064896"><ele>136.0</ele><time>2026-04-06T10:02:33.999Z</time></trkpt><trkpt lat="45.992762139809706" lon="12.303032920380714"><ele>136.0</ele><time>2026-04-06T10:02:34.999Z</time></trkpt><trkpt lat="45.99260642863797" lon="12.303210369895325"><ele>136.0</ele><time>2026-04-06T10:02:35.999Z</time></trkpt><trkpt lat="45.99245208751804" lon="12.303387449604028"><ele>135.66666666666669</ele><time>2026-04-06T10:02:36.999Z</time></trkpt><trkpt lat="45.99231674828211" lon="12.303542394425614"><ele>135.33333333333334</ele><time>2026-04-06T10:02:38Z</time></trkpt><trkpt lat="45.992197174985066" lon="12.303679268842371"><ele>135.0</ele><time>2026-04-06T10:02:39Z</time></trkpt><trkpt lat="45.99208050687685" lon="12.303812817565847"><ele>135.25</ele><time>2026-04-06T10:02:40Z</time></trkpt><trkpt lat="45.99197143867177" lon="12.303937667037719"><ele>135.5</ele><time>2026-04-06T10:02:41Z</time></trkpt><trkpt lat="45.99186129182112" lon="12.304063751082593"><ele>135.75</ele><time>2026-04-06T10:02:42Z</time></trkpt><trkpt lat="45.99173280128031" lon="12.304184367777648"><ele>136.0</ele><time>2026-04-06T10:02:43Z</time></trkpt><trkpt lat="45.991617209461054" lon="12.304359704307817"><ele>136.0</ele><time>2026-04-06T10:02:44Z</time></trkpt><trkpt lat="45.99147724310136" lon="12.304495888695298"><ele>136.0</ele><time>2026-04-06T10:02:45Z</time></trkpt><trkpt lat="45.99136383687895" lon="12.3046407074613"><ele>136.0</ele><time>2026-04-06T10:02:46Z</time></trkpt><trkpt lat="45.991257730113205" lon="12.304772677034148"><ele>135.6</ele><time>2026-04-06T10:02:47Z</time></trkpt><trkpt lat="45.991156307125536" lon="12.304895874585407"><ele>135.2</ele><time>2026-04-06T10:02:48Z</time></trkpt><trkpt lat="45.99107109427235" lon="12.305006021365516"><ele>134.8</ele><time>2026-04-06T10:02:49Z</time></trkpt><trkpt lat="45.99098795873204" lon="12.305103351887732"><ele>134.4</ele><time>2026-04-06T10:02:50Z</time></trkpt><trkpt lat="45.99092760456927" lon="12.305172562700308"><ele>134.0</ele><time>2026-04-06T10:02:51Z</time></trkpt><trkpt lat="45.99084011030666" lon="12.305286757902357"><ele>133.25</ele><time>2026-04-06T10:02:53Z</time></trkpt><trkpt lat="45.99078081858686" lon="12.305364322412403"><ele>132.5</ele><time>2026-04-06T10:02:54Z</time></trkpt><trkpt lat="45.99069273770125" lon="12.305487202117698"><ele>131.75</ele><time>2026-04-06T10:02:55Z</time></trkpt><trkpt lat="45.99057694525084" lon="12.305622417003457"><ele>131.0</ele><time>2026-04-06T10:02:56Z</time></trkpt><trkpt lat="45.99046076796875" lon="12.305726747924803"><ele>131.0</ele><time>2026-04-06T10:02:57Z</time></trkpt><trkpt lat="45.990356522112855" lon="12.305836916872762"><ele>131.0</ele><time>2026-04-06T10:02:58Z</time></trkpt><trkpt lat="45.990251592178126" lon="12.305965828357172"><ele>131.0</ele><time>2026-04-06T10:02:59Z</time></trkpt><trkpt lat="45.99013279998736" lon="12.30610372356189"><ele>131.0</ele><time>2026-04-06T10:03:00Z</time></trkpt><trkpt lat="45.98999097523801" lon="12.306246031373725"><ele>131.0</ele><time>2026-04-06T10:03:01Z</time></trkpt><trkpt lat="45.989862497661846" lon="12.306394204553655"><ele>131.0</ele><time>2026-04-06T10:03:02Z</time></trkpt><trkpt lat="45.98973689060203" lon="12.3065555909439"><ele>131.0</ele><time>2026-04-06T10:03:03Z</time></trkpt><trkpt lat="45.989595818711415" lon="12.306716834749725"><ele>131.0</ele><time>2026-04-06T10:03:04Z</time></trkpt><trkpt lat="45.98945816400132" lon="12.306872002979567"><ele>131.0</ele><time>2026-04-06T10:03:05Z</time></trkpt><trkpt lat="45.98932835585189" lon="12.307021380798025"><ele>131.0</ele><time>2026-04-06T10:03:06Z</time></trkpt><trkpt lat="45.98920327218161" lon="12.307156469688902"><ele>132.0</ele><time>2026-04-06T10:03:07Z</time></trkpt><trkpt lat="45.98908837498021" lon="12.30728245859857"><ele>133.0</ele><time>2026-04-06T10:03:08Z</time></trkpt><trkpt lat="45.98897001449511" lon="12.307399048009746"><ele>134.0</ele><time>2026-04-06T10:03:09Z</time></trkpt><trkpt lat="45.98882389714672" lon="12.307481193820239"><ele>135.0</ele><time>2026-04-06T10:03:10Z</time></trkpt><trkpt lat="45.988685000976375" lon="12.307587571126335"><ele>135.0</ele><time>2026-04-06T10:03:11Z</time></trkpt><trkpt lat="45.988576039315255" lon="12.3077197613689"><ele>135.0</ele><time>2026-04-06T10:03:12Z</time></trkpt><trkpt lat="45.988484830186295" lon="12.307834946401814"><ele>135.0</ele><time>2026-04-06T10:03:13Z</time></trkpt><trkpt lat="45.98841855471889" lon="12.3079282149975"><ele>135.0</ele><time>2026-04-06T10:03:14Z</time></trkpt><trkpt lat="45.988343172011426" lon="12.307979709800907"><ele>135.0</ele><time>2026-04-06T10:03:15Z</time></trkpt><trkpt lat="45.98826062303476" lon="12.307986083847442"><ele>134.5</ele><time>2026-04-06T10:03:16Z</time></trkpt><trkpt lat="45.9881953807157" lon="12.308014801251392"><ele>134.0</ele><time>2026-04-06T10:03:17Z</time></trkpt><trkpt lat="45.98815831416702" lon="12.308100175364142"><ele>133.5</ele><time>2026-04-06T10:03:18Z</time></trkpt><trkpt lat="45.98814889595833" lon="12.308197576744602"><ele>133.0</ele><time>2026-04-06T10:03:19Z</time></trkpt><trkpt lat="45.98819791169653" lon="12.308298490381139"><ele>132.5</ele><time>2026-04-06T10:03:20Z</time></trkpt><trkpt lat="45.98828536158627" lon="12.308353573201387"><ele>132.0</ele><time>2026-04-06T10:03:21Z</time></trkpt><trkpt lat="45.98834751232657" lon="12.308451671034216"><ele>132.0</ele><time>2026-04-06T10:03:22Z</time></trkpt><trkpt lat="45.988324923229804" lon="12.308635895472957"><ele>132.0</ele><time>2026-04-06T10:03:23Z</time></trkpt><trkpt lat="45.98831148722494" lon="12.30881864209239"><ele>132.0</ele><time>2026-04-06T10:03:24Z</time></trkpt><trkpt lat="45.988288470879255" lon="12.30904333296843"><ele>132.0</ele><time>2026-04-06T10:03:25Z</time></trkpt><trkpt lat="45.98828468561918" lon="12.309279353796692"><ele>132.25</ele><time>2026-04-06T10:03:26Z</time></trkpt><trkpt lat="45.98826346125284" lon="12.309487316896465"><ele>132.5</ele><time>2026-04-06T10:03:27Z</time></trkpt><trkpt lat="45.98825608956891" lon="12.309671051131033"><ele>132.75</ele><time>2026-04-06T10:03:28Z</time></trkpt><trkpt lat="45.98824790946143" lon="12.309853884822926"><ele>133.0</ele><time>2026-04-06T10:03:29Z</time></trkpt><trkpt lat="45.98823335315378" lon="12.310071836881322"><ele>133.0</ele><time>2026-04-06T10:03:30Z</time></trkpt><trkpt lat="45.98822628936574" lon="12.31031503991141"><ele>133.0</ele><time>2026-04-06T10:03:31Z</time></trkpt><trkpt lat="45.98821236549493" lon="12.310573631174899"><ele>133.0</ele><time>2026-04-06T10:03:32Z</time></trkpt><trkpt lat="45.98819854712331" lon="12.310848036727787"><ele>133.0</ele><time>2026-04-06T10:03:33Z</time></trkpt><trkpt lat="45.98819887592377" lon="12.311096719987212"><ele>133.0</ele><time>2026-04-06T10:03:34Z</time></trkpt><trkpt lat="45.988203036254596" lon="12.311332230626215"><ele>133.0</ele><time>2026-04-06T10:03:35Z</time></trkpt><trkpt lat="45.98818887477504" lon="12.311577119782868"><ele>133.0</ele><time>2026-04-06T10:03:36Z</time></trkpt><trkpt lat="45.98816350743185" lon="12.311806741349223"><ele>133.0</ele><time>2026-04-06T10:03:36.999Z</time></trkpt><trkpt lat="45.988147682688705" lon="12.312019937796924"><ele>133.0</ele><time>2026-04-06T10:03:37.999Z</time></trkpt><trkpt lat="45.98813180703553" lon="12.312234326911323"><ele>132.75</ele><time>2026-04-06T10:03:38.999Z</time></trkpt><trkpt lat="45.9881137435986" lon="12.312443539512447"><ele>132.5</ele><time>2026-04-06T10:03:39.999Z</time></trkpt><trkpt lat="45.988093726438294" lon="12.312644860352217"><ele>132.25</ele><time>2026-04-06T10:03:40.999Z</time></trkpt><trkpt lat="45.98806174429407" lon="12.31284122159885"><ele>132.0</ele><time>2026-04-06T10:03:41.999Z</time></trkpt><trkpt lat="45.98802592355007" lon="12.313053539557183"><ele>132.33333333333334</ele><time>2026-04-06T10:03:42.999Z</time></trkpt><trkpt lat="45.987979887474104" lon="12.31326995718154"><ele>132.66666666666669</ele><time>2026-04-06T10:03:43.999Z</time></trkpt><trkpt lat="45.98790661858469" lon="12.313493078108568"><ele>133.0</ele><time>2026-04-06T10:03:44.999Z</time></trkpt><trkpt lat="45.987858946092345" lon="12.313697183704347"><ele>133.0</ele><time>2026-04-06T10:03:45.999Z</time></trkpt><trkpt lat="45.98781543185187" lon="12.313888197558406"><ele>133.0</ele><time>2026-04-06T10:03:46.999Z</time></trkpt><trkpt lat="45.98777031179275" lon="12.31406438738903"><ele>133.0</ele><time>2026-04-06T10:03:47.999Z</time></trkpt><trkpt lat="45.98772588210647" lon="12.314230504799026"><ele>133.0</ele><time>2026-04-06T10:03:48.999Z</time></trkpt><trkpt lat="45.98767787129085" lon="12.314402152039348"><ele>133.0</ele><time>2026-04-06T10:03:49.999Z</time></trkpt><trkpt lat="45.98763263483286" lon="12.314576396134825"><ele>133.0</ele><time>2026-04-06T10:03:50.999Z</time></trkpt><trkpt lat="45.9875895278872" lon="12.314758780318277"><ele>133.0</ele><time>2026-04-06T10:03:51.999Z</time></trkpt><trkpt lat="45.98754423176423" lon="12.314942816867859"><ele>133.0</ele><time>2026-04-06T10:03:52.999Z</time></trkpt><trkpt lat="45.987498801931615" lon="12.315147538247647"><ele>132.33333333333334</ele><time>2026-04-06T10:03:53.999Z</time></trkpt><trkpt lat="45.987446497289696" lon="12.315365202141832"><ele>131.66666666666666</ele><time>2026-04-06T10:03:54.999Z</time></trkpt><trkpt lat="45.98738820389514" lon="12.315578676360525"><ele>131.0</ele><time>2026-04-06T10:03:55.999Z</time></trkpt><trkpt lat="45.98733347016001" lon="12.315779031697936"><ele>131.0</ele><time>2026-04-06T10:03:56.999Z</time></trkpt><trkpt lat="45.98727818519216" lon="12.315960466534065"><ele>131.0</ele><time>2026-04-06T10:03:57.999Z</time></trkpt><trkpt lat="45.98721283437583" lon="12.31612875096743"><ele>131.0</ele><time>2026-04-06T10:03:58.999Z</time></trkpt><trkpt lat="45.98715269681723" lon="12.31628537412093"><ele>131.0</ele><time>2026-04-06T10:03:59.999Z</time></trkpt><trkpt lat="45.98709242115073" lon="12.31643382571773"><ele>130.75</ele><time>2026-04-06T10:04:00.999Z</time></trkpt><trkpt lat="45.98702741691975" lon="12.31657577673464"><ele>130.5</ele><time>2026-04-06T10:04:01.999Z</time></trkpt><trkpt lat="45.986961078603855" lon="12.31672452395889"><ele>130.25</ele><time>2026-04-06T10:04:02.999Z</time></trkpt><trkpt lat="45.98688485319193" lon="12.316872175007482"><ele>130.0</ele><time>2026-04-06T10:04:03.999Z</time></trkpt><trkpt lat="45.986806072528296" lon="12.31703257455943"><ele>130.0</ele><time>2026-04-06T10:04:04.999Z</time></trkpt><trkpt lat="45.986732634105074" lon="12.317209022130582"><ele>130.0</ele><time>2026-04-06T10:04:05.999Z</time></trkpt><trkpt lat="45.986652198865166" lon="12.317380696991021"><ele>130.0</ele><time>2026-04-06T10:04:06.999Z</time></trkpt><trkpt lat="45.98657647639681" lon="12.317547797499254"><ele>130.0</ele><time>2026-04-06T10:04:07.999Z</time></trkpt><trkpt lat="45.98649840411944" lon="12.31772190838056"><ele>129.5</ele><time>2026-04-06T10:04:08.999Z</time></trkpt><trkpt lat="45.986417298258445" lon="12.317907800081478"><ele>129.0</ele><time>2026-04-06T10:04:09.999Z</time></trkpt><trkpt lat="45.986342603420184" lon="12.318096111548774"><ele>128.5</ele><time>2026-04-06T10:04:10.999Z</time></trkpt><trkpt lat="45.98629087537938" lon="12.318266515351825"><ele>128.0</ele><time>2026-04-06T10:04:11.999Z</time></trkpt><trkpt lat="45.98624302656931" lon="12.318440054123556"><ele>128.0</ele><time>2026-04-06T10:04:12.999Z</time></trkpt><trkpt lat="45.98620167054917" lon="12.318596335363626"><ele>128.0</ele><time>2026-04-06T10:04:13.999Z</time></trkpt><trkpt lat="45.98616340658457" lon="12.318747102716808"><ele>128.0</ele><time>2026-04-06T10:04:14.999Z</time></trkpt><trkpt lat="45.986131458017724" lon="12.318897119128975"><ele>128.0</ele><time>2026-04-06T10:04:15.999Z</time></trkpt><trkpt lat="45.986099915880146" lon="12.319060417013377"><ele>128.4</ele><time>2026-04-06T10:04:16.999Z</time></trkpt><trkpt lat="45.986075349530346" lon="12.31921177607464"><ele>128.8</ele><time>2026-04-06T10:04:17.999Z</time></trkpt><trkpt lat="45.986058630430634" lon="12.31934829716554"><ele>129.2</ele><time>2026-04-06T10:04:18.999Z</time></trkpt><trkpt lat="45.98605454088468" lon="12.319472417081007"><ele>129.6</ele><time>2026-04-06T10:04:19.999Z</time></trkpt><trkpt lat="45.98603958505262" lon="12.31958620508108"><ele>130.0</ele><time>2026-04-06T10:04:20.999Z</time></trkpt><trkpt lat="45.98599706147306" lon="12.319693797611466"><ele>130.5</ele><time>2026-04-06T10:04:21.999Z</time></trkpt><trkpt lat="45.98594541922454" lon="12.319777301064095"><ele>131.0</ele><time>2026-04-06T10:04:22.999Z</time></trkpt><trkpt lat="45.98587692876826" lon="12.319843295172298"><ele>131.5</ele><time>2026-04-06T10:04:23.999Z</time></trkpt><trkpt lat="45.98579266109647" lon="12.319889572980554"><ele>132.0</ele><time>2026-04-06T10:04:24.999Z</time></trkpt><trkpt lat="45.98570356954529" lon="12.319932953542862"><ele>132.5</ele><time>2026-04-06T10:04:25.999Z</time></trkpt><trkpt lat="45.98563198746071" lon="12.320011547542228"><ele>133.0</ele><time>2026-04-06T10:04:26.999Z</time></trkpt><trkpt lat="45.98558293156172" lon="12.320131375679088"><ele>132.16666666666669</ele><time>2026-04-06T10:04:27.999Z</time></trkpt><trkpt lat="45.98555228436209" lon="12.320258629599651"><ele>131.33333333333334</ele><time>2026-04-06T10:04:28.999Z</time></trkpt><trkpt lat="45.98554340643542" lon="12.320375249897193"><ele>130.5</ele><time>2026-04-06T10:04:29.999Z</time></trkpt><trkpt lat="45.985577737415326" lon="12.32046379290186"><ele>129.66666666666666</ele><time>2026-04-06T10:04:30.999Z</time></trkpt><trkpt lat="45.98559000481742" lon="12.32055576086627"><ele>128.83333333333331</ele><time>2026-04-06T10:04:31.999Z</time></trkpt><trkpt lat="45.98563562915161" lon="12.320636495778237"><ele>128.0</ele><time>2026-04-06T10:04:32.999Z</time></trkpt><trkpt lat="45.985692359036044" lon="12.320708503629444"><ele>127.99999999999999</ele><time>2026-04-06T10:04:33.999Z</time></trkpt><trkpt lat="45.9857572761777" lon="12.320764965476869"><ele>128.0</ele><time>2026-04-06T10:04:34.999Z</time></trkpt><trkpt lat="45.98582814831639" lon="12.320792230641372"><ele>128.0</ele><time>2026-04-06T10:04:35.999Z</time></trkpt><trkpt lat="45.98590922060543" lon="12.320797534215917"><ele>128.0</ele><time>2026-04-06T10:04:36.999Z</time></trkpt><trkpt lat="45.985990845585675" lon="12.320761598293425"><ele>127.99999999999999</ele><time>2026-04-06T10:04:37.999Z</time></trkpt><trkpt lat="45.98607086204063" lon="12.320695109583546"><ele>128.0</ele><time>2026-04-06T10:04:38.999Z</time></trkpt><trkpt lat="45.98613607000037" lon="12.320597611792019"><ele>128.83333333333331</ele><time>2026-04-06T10:04:39.999Z</time></trkpt><trkpt lat="45.986180203447965" lon="12.32047048809106"><ele>129.66666666666666</ele><time>2026-04-06T10:04:40.999Z</time></trkpt><trkpt lat="45.98619492543704" lon="12.320333703474413"><ele>130.5</ele><time>2026-04-06T10:04:41.999Z</time></trkpt><trkpt lat="45.9861787618097" lon="12.320210307152792"><ele>131.33333333333334</ele><time>2026-04-06T10:04:42.999Z</time></trkpt><trkpt lat="45.98614314080915" lon="12.32010318270131"><ele>132.16666666666669</ele><time>2026-04-06T10:04:44Z</time></trkpt><trkpt lat="45.98612681446939" lon="12.32000747457717"><ele>133.0</ele><time>2026-04-06T10:04:45Z</time></trkpt><trkpt lat="45.986104464964534" lon="12.319867164473926"><ele>133.0</ele><time>2026-04-06T10:04:47Z</time></trkpt><trkpt lat="45.98598554746612" lon="12.319904510800013"><ele>133.0</ele><time>2026-04-06T10:04:48Z</time></trkpt><trkpt lat="45.9859179472722" lon="12.319879300250387"><ele>133.0</ele><time>2026-04-06T10:05:14Z</time></trkpt><trkpt lat="45.98584553025226" lon="12.319857452604477"><ele>133.0</ele><time>2026-04-06T10:05:15Z</time></trkpt><trkpt lat="45.98575930968167" lon="12.319883052622805"><ele>133.0</ele><time>2026-04-06T10:05:16Z</time></trkpt><trkpt lat="45.98567854840861" lon="12.319941791391054"><ele>133.0</ele><time>2026-04-06T10:05:17Z</time></trkpt><trkpt lat="45.98558899542221" lon="12.3200310539126"><ele>131.5</ele><time>2026-04-06T10:05:18Z</time></trkpt><trkpt lat="45.98548465203461" lon="12.320098600430205"><ele>130.0</ele><time>2026-04-06T10:05:19Z</time></trkpt><trkpt lat="45.985359423512335" lon="12.320106751668598"><ele>128.5</ele><time>2026-04-06T10:05:20Z</time></trkpt><trkpt lat="45.985200927827826" lon="12.320057981121453"><ele>127.0</ele><time>2026-04-06T10:05:21Z</time></trkpt><trkpt lat="45.98501746460972" lon="12.319971749521974"><ele>125.5</ele><time>2026-04-06T10:05:22Z</time></trkpt><trkpt lat="45.98480122911647" lon="12.319871974919465"><ele>124.0</ele><time>2026-04-06T10:05:23Z</time></trkpt><trkpt lat="45.984548368626974" lon="12.319777448362768"><ele>124.0</ele><time>2026-04-06T10:05:24Z</time></trkpt><trkpt lat="45.984311553271176" lon="12.31970013191182"><ele>124.0</ele><time>2026-04-06T10:05:25Z</time></trkpt><trkpt lat="45.984091637593494" lon="12.319613878594481"><ele>124.0</ele><time>2026-04-06T10:05:26Z</time></trkpt><trkpt lat="45.9838955907688" lon="12.319518808994113"><ele>124.0</ele><time>2026-04-06T10:05:27Z</time></trkpt><trkpt lat="45.98371555873258" lon="12.319427368485885"><ele>124.0</ele><time>2026-04-06T10:05:28Z</time></trkpt><trkpt lat="45.98354687376475" lon="12.31935281061429"><ele>124.0</ele><time>2026-04-06T10:05:29Z</time></trkpt><trkpt lat="45.98338911751204" lon="12.319260933503069"><ele>124.0</ele><time>2026-04-06T10:05:30Z</time></trkpt><trkpt lat="45.9832431957857" lon="12.319158776115591"><ele>124.0</ele><time>2026-04-06T10:05:31Z</time></trkpt><trkpt lat="45.98312871640586" lon="12.319064040034183"><ele>123.75</ele><time>2026-04-06T10:05:32Z</time></trkpt><trkpt lat="45.98302669976315" lon="12.318989924113314"><ele>123.5</ele><time>2026-04-06T10:05:33Z</time></trkpt><trkpt lat="45.982940753223225" lon="12.318868309001669"><ele>123.25</ele><time>2026-04-06T10:05:34Z</time></trkpt><trkpt lat="45.982869571493" lon="12.318665043288807"><ele>123.0</ele><time>2026-04-06T10:05:35Z</time></trkpt><trkpt lat="45.98268752709505" lon="12.318524248567938"><ele>120.0</ele><time>2026-04-06T10:05:36Z</time></trkpt><trkpt lat="45.98251384035382" lon="12.318322807234377"><ele>117.0</ele><time>2026-04-06T10:05:37Z</time></trkpt><trkpt lat="45.98233486249046" lon="12.318086067772033"><ele>117.0</ele><time>2026-04-06T10:05:38Z</time></trkpt><trkpt lat="45.98216724568878" lon="12.317855648746152"><ele>117.0</ele><time>2026-04-06T10:05:39Z</time></trkpt><trkpt lat="45.98201269642451" lon="12.317655176963392"><ele>117.0</ele><time>2026-04-06T10:05:40Z</time></trkpt><trkpt lat="45.98188190215538" lon="12.317468446117092"><ele>117.0</ele><time>2026-04-06T10:05:41Z</time></trkpt><trkpt lat="45.98176030869815" lon="12.317277707638477"><ele>117.0</ele><time>2026-04-06T10:05:42Z</time></trkpt><trkpt lat="45.981652583996954" lon="12.317087681528141"><ele>117.0</ele><time>2026-04-06T10:05:43Z</time></trkpt><trkpt lat="45.98155083984544" lon="12.31691360309592"><ele>117.0</ele><time>2026-04-06T10:05:44Z</time></trkpt><trkpt lat="45.98146398420467" lon="12.316738382617242"><ele>117.0</ele><time>2026-04-06T10:05:45Z</time></trkpt><trkpt lat="45.98138586495792" lon="12.316558396246693"><ele>117.0</ele><time>2026-04-06T10:05:46Z</time></trkpt><trkpt lat="45.981315786035665" lon="12.316380769327157"><ele>117.0</ele><time>2026-04-06T10:05:46.999Z</time></trkpt><trkpt lat="45.98124924228397" lon="12.316200229209874"><ele>117.75</ele><time>2026-04-06T10:05:47.999Z</time></trkpt><trkpt lat="45.98119904348473" lon="12.316041456364465"><ele>118.5</ele><time>2026-04-06T10:05:48.999Z</time></trkpt><trkpt lat="45.98115913733896" lon="12.315883180655877"><ele>119.25</ele><time>2026-04-06T10:05:49.999Z</time></trkpt><trkpt lat="45.98112645519975" lon="12.315733746102362"><ele>120.0</ele><time>2026-04-06T10:05:50.999Z</time></trkpt><trkpt lat="45.981094069340585" lon="12.315592870865908"><ele>120.25</ele><time>2026-04-06T10:05:51.999Z</time></trkpt><trkpt lat="45.98105411213056" lon="12.315440901670113"><ele>120.5</ele><time>2026-04-06T10:05:52.999Z</time></trkpt><trkpt lat="45.98102021325559" lon="12.315240203742224"><ele>120.75</ele><time>2026-04-06T10:05:53.999Z</time></trkpt><trkpt lat="45.9809658063705" lon="12.315028332068552"><ele>121.0</ele><time>2026-04-06T10:05:54.999Z</time></trkpt><trkpt lat="45.98091184147809" lon="12.3148201099802"><ele>119.5</ele><time>2026-04-06T10:05:55.999Z</time></trkpt><trkpt lat="45.980847781580906" lon="12.314635850318215"><ele>118.0</ele><time>2026-04-06T10:05:56.999Z</time></trkpt><trkpt lat="45.980804841095456" lon="12.314456300948335"><ele>116.5</ele><time>2026-04-06T10:05:57.999Z</time></trkpt><trkpt lat="45.98077520031282" lon="12.314341551680345"><ele>115.0</ele><time>2026-04-06T10:05:58.999Z</time></trkpt><trkpt lat="45.98075658470223" lon="12.314193712842092"><ele>115.0</ele><time>2026-04-06T10:06:00.999Z</time></trkpt><trkpt lat="45.980734159243134" lon="12.314101743359965"><ele>115.0</ele><time>2026-04-06T10:06:01.999Z</time></trkpt><trkpt lat="45.98069739877225" lon="12.31394877907998"><ele>115.0</ele><time>2026-04-06T10:06:02.999Z</time></trkpt><trkpt lat="45.98065932121063" lon="12.313790591892337"><ele>115.0</ele><time>2026-04-06T10:06:03.999Z</time></trkpt><trkpt lat="45.98061217867133" lon="12.313594745308876"><ele>115.0</ele><time>2026-04-06T10:06:04.999Z</time></trkpt><trkpt lat="45.98056172469053" lon="12.313385142190938"><ele>115.33333333333334</ele><time>2026-04-06T10:06:05.999Z</time></trkpt><trkpt lat="45.98050790918019" lon="12.313161574280105"><ele>115.66666666666666</ele><time>2026-04-06T10:06:06.999Z</time></trkpt><trkpt lat="45.98044648294096" lon="12.312906388590426"><ele>116.0</ele><time>2026-04-06T10:06:07.999Z</time></trkpt><trkpt lat="45.98038323405245" lon="12.31264363093668"><ele>116.33333333333333</ele><time>2026-04-06T10:06:08.999Z</time></trkpt><trkpt lat="45.980312798280266" lon="12.312397847299692"><ele>116.66666666666666</ele><time>2026-04-06T10:06:09.999Z</time></trkpt><trkpt lat="45.98024996103755" lon="12.312127302685443"><ele>117.0</ele><time>2026-04-06T10:06:10.999Z</time></trkpt><trkpt lat="45.98017688008855" lon="12.311841222982068"><ele>117.33333333333334</ele><time>2026-04-06T10:06:11.999Z</time></trkpt><trkpt lat="45.98010551164271" lon="12.31155438671908"><ele>117.66666666666667</ele><time>2026-04-06T10:06:12.999Z</time></trkpt><trkpt lat="45.980039824469365" lon="12.311274316781393"><ele>118.0</ele><time>2026-04-06T10:06:13.999Z</time></trkpt><trkpt lat="45.97997623019158" lon="12.311020847535952"><ele>118.0</ele><time>2026-04-06T10:06:14.999Z</time></trkpt><trkpt lat="45.97992843606902" lon="12.3108372034958"><ele>118.0</ele><time>2026-04-06T10:06:15.999Z</time></trkpt><trkpt lat="45.979880966214786" lon="12.310635661623763"><ele>118.0</ele><time>2026-04-06T10:06:16.999Z</time></trkpt><trkpt lat="45.979833171210096" lon="12.310423392183042"><ele>118.0</ele><time>2026-04-06T10:06:17.999Z</time></trkpt><trkpt lat="45.97977478346828" lon="12.31018913032354"><ele>118.0</ele><time>2026-04-06T10:06:18.999Z</time></trkpt><trkpt lat="45.979716354936514" lon="12.309957600814716"><ele>118.0</ele><time>2026-04-06T10:06:19.999Z</time></trkpt><trkpt lat="45.97966675396988" lon="12.30974640972181"><ele>118.0</ele><time>2026-04-06T10:06:20.999Z</time></trkpt><trkpt lat="45.97962336516501" lon="12.30955918636503"><ele>118.33333333333334</ele><time>2026-04-06T10:06:21.999Z</time></trkpt><trkpt lat="45.97958733626171" lon="12.309419118225795"><ele>118.66666666666667</ele><time>2026-04-06T10:06:22.999Z</time></trkpt><trkpt lat="45.979561096342515" lon="12.309314514793856"><ele>119.0</ele><time>2026-04-06T10:06:23.999Z</time></trkpt><trkpt lat="45.97953868501613" lon="12.309220610660926"><ele>119.33333333333334</ele><time>2026-04-06T10:06:24.999Z</time></trkpt><trkpt lat="45.97951492868174" lon="12.30913424761496"><ele>119.66666666666667</ele><time>2026-04-06T10:06:25.999Z</time></trkpt><trkpt lat="45.97948692273528" lon="12.309028369832658"><ele>120.0</ele><time>2026-04-06T10:06:27.999Z</time></trkpt><trkpt lat="45.9794657740672" lon="12.30893705925756"><ele>119.8</ele><time>2026-04-06T10:06:29.999Z</time></trkpt><trkpt lat="45.979442181101234" lon="12.30878189998682"><ele>119.6</ele><time>2026-04-06T10:06:34.999Z</time></trkpt><trkpt lat="45.97940170878616" lon="12.308654986316425"><ele>119.4</ele><time>2026-04-06T10:06:35.999Z</time></trkpt><trkpt lat="45.9793707843886" lon="12.308539246217657"><ele>119.2</ele><time>2026-04-06T10:06:36.999Z</time></trkpt><trkpt lat="45.97933796197048" lon="12.30840970729161"><ele>119.0</ele><time>2026-04-06T10:06:37.999Z</time></trkpt><trkpt lat="45.97930819135528" lon="12.308262828025335"><ele>119.0</ele><time>2026-04-06T10:06:38.999Z</time></trkpt><trkpt lat="45.9792812212812" lon="12.308099220555498"><ele>119.0</ele><time>2026-04-06T10:06:39.999Z</time></trkpt><trkpt lat="45.97925319765627" lon="12.30792842709873"><ele>119.0</ele><time>2026-04-06T10:06:40.999Z</time></trkpt><trkpt lat="45.97919653081553" lon="12.307778157009107"><ele>119.0</ele><time>2026-04-06T10:06:41.999Z</time></trkpt><trkpt lat="45.97914990814643" lon="12.307603213442206"><ele>119.25</ele><time>2026-04-06T10:06:42.999Z</time></trkpt><trkpt lat="45.97911214977602" lon="12.307429002618196"><ele>119.5</ele><time>2026-04-06T10:06:43.999Z</time></trkpt><trkpt lat="45.97906644131427" lon="12.307243125923256"><ele>119.75</ele><time>2026-04-06T10:06:44.999Z</time></trkpt><trkpt lat="45.979025627195796" lon="12.307094791869373"><ele>120.0</ele><time>2026-04-06T10:06:45.999Z</time></trkpt><trkpt lat="45.97899864052789" lon="12.306967640229471"><ele>120.16666666666667</ele><time>2026-04-06T10:06:46.999Z</time></trkpt><trkpt lat="45.978979307116184" lon="12.306866489820521"><ele>120.33333333333334</ele><time>2026-04-06T10:06:47.999Z</time></trkpt><trkpt lat="45.97896826901453" lon="12.306707390858664"><ele>120.5</ele><time>2026-04-06T10:06:49.999Z</time></trkpt><trkpt lat="45.97900108566831" lon="12.306587242392636"><ele>120.66666666666667</ele><time>2026-04-06T10:06:51.999Z</time></trkpt><trkpt lat="45.979059423815244" lon="12.306483068765916"><ele>120.83333333333334</ele><time>2026-04-06T10:06:53.999Z</time></trkpt><trkpt lat="45.97908734387417" lon="12.306383501384158"><ele>121.0</ele><time>2026-04-06T10:06:54.999Z</time></trkpt><trkpt lat="45.97908372608595" lon="12.30627776407035"><ele>121.8</ele><time>2026-04-06T10:06:55.999Z</time></trkpt><trkpt lat="45.979067654615086" lon="12.306176808228916"><ele>122.6</ele><time>2026-04-06T10:06:56.999Z</time></trkpt><trkpt lat="45.978959913662216" lon="12.306130604592267"><ele>123.4</ele><time>2026-04-06T10:06:57.999Z</time></trkpt><trkpt lat="45.97887291749461" lon="12.306114004299792"><ele>124.2</ele><time>2026-04-06T10:06:58.999Z</time></trkpt><trkpt lat="45.978790098764804" lon="12.30613992525374"><ele>125.0</ele><time>2026-04-06T10:06:59.999Z</time></trkpt><trkpt lat="45.97870245303236" lon="12.306204168379939"><ele>125.0</ele><time>2026-04-06T10:07:00.999Z</time></trkpt><trkpt lat="45.97858992454277" lon="12.30629849611109"><ele>125.0</ele><time>2026-04-06T10:07:01.999Z</time></trkpt><trkpt lat="45.97844256696864" lon="12.306366999698433"><ele>125.0</ele><time>2026-04-06T10:07:02.999Z</time></trkpt><trkpt lat="45.978282349256276" lon="12.306427699760869"><ele>122.66666666666666</ele><time>2026-04-06T10:07:03.999Z</time></trkpt><trkpt lat="45.97812144375593" lon="12.3064847596109"><ele>120.33333333333334</ele><time>2026-04-06T10:07:04.999Z</time></trkpt><trkpt lat="45.97793836774487" lon="12.30654492057438"><ele>118.0</ele><time>2026-04-06T10:07:05.999Z</time></trkpt><trkpt lat="45.97777398915134" lon="12.306618207019804"><ele>118.0</ele><time>2026-04-06T10:07:06.999Z</time></trkpt><trkpt lat="45.97762353674406" lon="12.306680319057063"><ele>118.0</ele><time>2026-04-06T10:07:07.999Z</time></trkpt><trkpt lat="45.977484392783566" lon="12.30673515954379"><ele>118.0</ele><time>2026-04-06T10:07:08.999Z</time></trkpt><trkpt lat="45.977357494474425" lon="12.306783940685907"><ele>118.0</ele><time>2026-04-06T10:07:09.999Z</time></trkpt><trkpt lat="45.97719724095239" lon="12.306832954291808"><ele>118.4</ele><time>2026-04-06T10:07:10.999Z</time></trkpt><trkpt lat="45.97708037806658" lon="12.306882888195393"><ele>118.80000000000001</ele><time>2026-04-06T10:07:11.999Z</time></trkpt><trkpt lat="45.97696810252237" lon="12.306931664029763"><ele>119.2</ele><time>2026-04-06T10:07:12.999Z</time></trkpt><trkpt lat="45.97686678916696" lon="12.306978090773498"><ele>119.6</ele><time>2026-04-06T10:07:13.999Z</time></trkpt><trkpt lat="45.976776126046786" lon="12.30701936973985"><ele>120.0</ele><time>2026-04-06T10:07:14.999Z</time></trkpt><trkpt lat="45.976696947480214" lon="12.307051681418525"><ele>119.8</ele><time>2026-04-06T10:07:15.999Z</time></trkpt><trkpt lat="45.97662526001654" lon="12.307086971101977"><ele>119.6</ele><time>2026-04-06T10:07:16.999Z</time></trkpt><trkpt lat="45.97653915421677" lon="12.307127516054297"><ele>119.4</ele><time>2026-04-06T10:07:18.999Z</time></trkpt><trkpt lat="45.976472617607016" lon="12.307169554357051"><ele>119.2</ele><time>2026-04-06T10:07:22.999Z</time></trkpt><trkpt lat="45.976317442711654" lon="12.307259198887644"><ele>119.0</ele><time>2026-04-06T10:07:36.999Z</time></trkpt><trkpt lat="45.97619871978684" lon="12.307315795867394"><ele>119.0</ele><time>2026-04-06T10:07:37.999Z</time></trkpt><trkpt lat="45.976061318791544" lon="12.307378369195032"><ele>119.0</ele><time>2026-04-06T10:07:38.999Z</time></trkpt><trkpt lat="45.975902005813666" lon="12.307442813303654"><ele>119.0</ele><time>2026-04-06T10:07:39.999Z</time></trkpt><trkpt lat="45.97573233784911" lon="12.30750660609785"><ele>119.0</ele><time>2026-04-06T10:07:40.999Z</time></trkpt><trkpt lat="45.97554794829804" lon="12.307580837647164"><ele>119.0</ele><time>2026-04-06T10:07:41.999Z</time></trkpt><trkpt lat="45.97536814261843" lon="12.307659383926481"><ele>119.0</ele><time>2026-04-06T10:07:42.999Z</time></trkpt><trkpt lat="45.97518698969108" lon="12.307745550799504"><ele>119.33333333333333</ele><time>2026-04-06T10:07:43.999Z</time></trkpt><trkpt lat="45.97499063327631" lon="12.307826789768718"><ele>119.66666666666666</ele><time>2026-04-06T10:07:44.999Z</time></trkpt><trkpt lat="45.97479316774613" lon="12.30790173738192"><ele>120.0</ele><time>2026-04-06T10:07:45.999Z</time></trkpt><trkpt lat="45.97461762611707" lon="12.307974268364298"><ele>120.0</ele><time>2026-04-06T10:07:46.999Z</time></trkpt><trkpt lat="45.97444929267694" lon="12.30805156416369"><ele>120.0</ele><time>2026-04-06T10:07:47.999Z</time></trkpt><trkpt lat="45.97429492262504" lon="12.308111409449104"><ele>120.0</ele><time>2026-04-06T10:07:48.999Z</time></trkpt><trkpt lat="45.974140384266995" lon="12.308176265500798"><ele>119.0</ele><time>2026-04-06T10:07:49.999Z</time></trkpt><trkpt lat="45.97397457983638" lon="12.30826350985055"><ele>118.0</ele><time>2026-04-06T10:07:50.999Z</time></trkpt><trkpt lat="45.973806786396985" lon="12.308389954031366"><ele>117.0</ele><time>2026-04-06T10:07:51.999Z</time></trkpt><trkpt lat="45.97364946890802" lon="12.308544401222097"><ele>117.0</ele><time>2026-04-06T10:07:52.999Z</time></trkpt><trkpt lat="45.97351326647302" lon="12.308699578441914"><ele>117.0</ele><time>2026-04-06T10:07:53.999Z</time></trkpt><trkpt lat="45.97337790483156" lon="12.308867941928511"><ele>117.0</ele><time>2026-04-06T10:07:54.999Z</time></trkpt><trkpt lat="45.97325912308037" lon="12.3090362268213"><ele>117.0</ele><time>2026-04-06T10:07:55.999Z</time></trkpt><trkpt lat="45.97314247058639" lon="12.309204578794718"><ele>117.0</ele><time>2026-04-06T10:07:56.999Z</time></trkpt><trkpt lat="45.97301401479344" lon="12.309383322923086"><ele>117.0</ele><time>2026-04-06T10:07:57.999Z</time></trkpt><trkpt lat="45.972872960441485" lon="12.309571767234704"><ele>117.33333333333334</ele><time>2026-04-06T10:07:58.999Z</time></trkpt><trkpt lat="45.972741197405306" lon="12.309750822295399"><ele>117.66666666666667</ele><time>2026-04-06T10:07:59.999Z</time></trkpt><trkpt lat="45.97261730906963" lon="12.309917280038178"><ele>118.0</ele><time>2026-04-06T10:08:00.999Z</time></trkpt><trkpt lat="45.97250128478568" lon="12.310072020950654"><ele>118.0</ele><time>2026-04-06T10:08:01.999Z</time></trkpt><trkpt lat="45.972387550058166" lon="12.310228642034154"><ele>118.0</ele><time>2026-04-06T10:08:02.999Z</time></trkpt><trkpt lat="45.97227067504217" lon="12.310386371802077"><ele>118.0</ele><time>2026-04-06T10:08:03.999Z</time></trkpt><trkpt lat="45.97215131420208" lon="12.310551559462166"><ele>117.33333333333334</ele><time>2026-04-06T10:08:04.999Z</time></trkpt><trkpt lat="45.972029992729595" lon="12.310715114191733"><ele>116.66666666666666</ele><time>2026-04-06T10:08:05.999Z</time></trkpt><trkpt lat="45.97191728281371" lon="12.31086321371375"><ele>116.0</ele><time>2026-04-06T10:08:06.999Z</time></trkpt><trkpt lat="45.97182069177166" lon="12.310995469387347"><ele>116.0</ele><time>2026-04-06T10:08:07.999Z</time></trkpt><trkpt lat="45.97172935957739" lon="12.311125447426443"><ele>116.0</ele><time>2026-04-06T10:08:08.999Z</time></trkpt><trkpt lat="45.97164487011571" lon="12.311234044821056"><ele>116.0</ele><time>2026-04-06T10:08:09.999Z</time></trkpt><trkpt lat="45.97156432409132" lon="12.311311709240973"><ele>116.0</ele><time>2026-04-06T10:08:10.999Z</time></trkpt><trkpt lat="45.9714878232172" lon="12.311367154304083"><ele>116.0</ele><time>2026-04-06T10:08:11.999Z</time></trkpt><trkpt lat="45.97140319103295" lon="12.311380089650758"><ele>116.33333333333333</ele><time>2026-04-06T10:08:12.999Z</time></trkpt><trkpt lat="45.97132895462009" lon="12.311378604553454"><ele>116.66666666666666</ele><time>2026-04-06T10:08:13.999Z</time></trkpt><trkpt lat="45.97123973565175" lon="12.311358571507341"><ele>117.0</ele><time>2026-04-06T10:08:14.999Z</time></trkpt><trkpt lat="45.97117131300677" lon="12.311370820774982"><ele>117.33333333333334</ele><time>2026-04-06T10:08:15.999Z</time></trkpt><trkpt lat="45.971123260187504" lon="12.311439095424404"><ele>117.66666666666667</ele><time>2026-04-06T10:08:16.999Z</time></trkpt><trkpt lat="45.97109414394455" lon="12.311548975125916"><ele>118.0</ele><time>2026-04-06T10:08:17.999Z</time></trkpt><trkpt lat="45.97109757913256" lon="12.311707583423145"><ele>116.75</ele><time>2026-04-06T10:08:18.999Z</time></trkpt><trkpt lat="45.971152169225135" lon="12.311841464234725"><ele>115.5</ele><time>2026-04-06T10:08:19.999Z</time></trkpt><trkpt lat="45.971064083421425" lon="12.312019641609933"><ele>114.25</ele><time>2026-04-06T10:08:20.999Z</time></trkpt><trkpt lat="45.9709792989171" lon="12.312170454043406"><ele>113.0</ele><time>2026-04-06T10:08:21.999Z</time></trkpt><trkpt lat="45.97087542342416" lon="12.312305342240448"><ele>113.5</ele><time>2026-04-06T10:08:22.999Z</time></trkpt><trkpt lat="45.970787411913626" lon="12.31241105882336"><ele>114.0</ele><time>2026-04-06T10:08:23.999Z</time></trkpt><trkpt lat="45.97070994534407" lon="12.312517820288987"><ele>114.5</ele><time>2026-04-06T10:08:24.999Z</time></trkpt><trkpt lat="45.97063180099045" lon="12.31262900371376"><ele>115.0</ele><time>2026-04-06T10:08:25.999Z</time></trkpt><trkpt lat="45.970531524045896" lon="12.312775921780476"><ele>115.0</ele><time>2026-04-06T10:08:26.999Z</time></trkpt><trkpt lat="45.97041019340154" lon="12.312952058623663"><ele>115.0</ele><time>2026-04-06T10:08:27.999Z</time></trkpt><trkpt lat="45.97026952955377" lon="12.31312718765416"><ele>115.0</ele><time>2026-04-06T10:08:28.999Z</time></trkpt><trkpt lat="45.97013048948274" lon="12.313293430177604"><ele>114.66666666666667</ele><time>2026-04-06T10:08:29.999Z</time></trkpt><trkpt lat="45.96999752558394" lon="12.313479926796916"><ele>114.33333333333334</ele><time>2026-04-06T10:08:30.999Z</time></trkpt><trkpt lat="45.969876115429635" lon="12.31366721033575"><ele>114.0</ele><time>2026-04-06T10:08:31.999Z</time></trkpt><trkpt lat="45.969737708191786" lon="12.313860764462024"><ele>113.33333333333334</ele><time>2026-04-06T10:08:32.999Z</time></trkpt><trkpt lat="45.96959165577775" lon="12.314059191390978"><ele>112.66666666666667</ele><time>2026-04-06T10:08:33.999Z</time></trkpt><trkpt lat="45.96944510093212" lon="12.314263733606095"><ele>112.0</ele><time>2026-04-06T10:08:34.999Z</time></trkpt><trkpt lat="45.96929805500554" lon="12.314450746268678"><ele>112.0</ele><time>2026-04-06T10:08:35.999Z</time></trkpt><trkpt lat="45.96915320636851" lon="12.314629227547623"><ele>112.0</ele><time>2026-04-06T10:08:36.999Z</time></trkpt><trkpt lat="45.96902776484057" lon="12.314807818552998"><ele>112.0</ele><time>2026-04-06T10:08:37.999Z</time></trkpt><trkpt lat="45.96891008875826" lon="12.314979034547965"><ele>111.66666666666667</ele><time>2026-04-06T10:08:38.999Z</time></trkpt><trkpt lat="45.968799518325056" lon="12.315126242970084"><ele>111.33333333333334</ele><time>2026-04-06T10:08:39.999Z</time></trkpt><trkpt lat="45.96868908951419" lon="12.315275231629776"><ele>111.0</ele><time>2026-04-06T10:08:40.999Z</time></trkpt><trkpt lat="45.96856972750303" lon="12.315438726770656"><ele>111.0</ele><time>2026-04-06T10:08:41.999Z</time></trkpt><trkpt lat="45.968426343621815" lon="12.315638046689891"><ele>111.0</ele><time>2026-04-06T10:08:42.999Z</time></trkpt><trkpt lat="45.96827079616912" lon="12.315848257703722"><ele>111.0</ele><time>2026-04-06T10:08:43.999Z</time></trkpt><trkpt lat="45.96811998751377" lon="12.316054751284852"><ele>111.0</ele><time>2026-04-06T10:08:44.999Z</time></trkpt><trkpt lat="45.96798627162478" lon="12.316244424651156"><ele>111.0</ele><time>2026-04-06T10:08:45.999Z</time></trkpt><trkpt lat="45.96786760439782" lon="12.316420273814254"><ele>111.0</ele><time>2026-04-06T10:08:46.999Z</time></trkpt><trkpt lat="45.96775445876713" lon="12.31658758356692"><ele>111.0</ele><time>2026-04-06T10:08:47.999Z</time></trkpt><trkpt lat="45.96764540109045" lon="12.31675062765875"><ele>111.0</ele><time>2026-04-06T10:08:48.999Z</time></trkpt><trkpt lat="45.96753746087915" lon="12.316905214536726"><ele>111.0</ele><time>2026-04-06T10:08:49.999Z</time></trkpt><trkpt lat="45.96742356543274" lon="12.317071864778946"><ele>110.33333333333334</ele><time>2026-04-06T10:08:50.999Z</time></trkpt><trkpt lat="45.96730738144419" lon="12.31724398605316"><ele>109.66666666666667</ele><time>2026-04-06T10:08:51.999Z</time></trkpt><trkpt lat="45.96718215567476" lon="12.317438052107509"><ele>109.0</ele><time>2026-04-06T10:08:52.999Z</time></trkpt><trkpt lat="45.96704206175385" lon="12.317653827448185"><ele>109.0</ele><time>2026-04-06T10:08:53.999Z</time></trkpt><trkpt lat="45.96689148349504" lon="12.317872003992496"><ele>109.0</ele><time>2026-04-06T10:08:54.999Z</time></trkpt><trkpt lat="45.96675100374262" lon="12.318077917663409"><ele>109.0</ele><time>2026-04-06T10:08:55.998Z</time></trkpt><trkpt lat="45.966622067880905" lon="12.318275570353215"><ele>109.33333333333334</ele><time>2026-04-06T10:08:56.998Z</time></trkpt><trkpt lat="45.966502725733235" lon="12.318458878141774"><ele>109.66666666666666</ele><time>2026-04-06T10:08:57.998Z</time></trkpt><trkpt lat="45.966385258762536" lon="12.318629059228847"><ele>110.0</ele><time>2026-04-06T10:08:58.998Z</time></trkpt><trkpt lat="45.96627316102352" lon="12.318793818603774"><ele>109.66666666666666</ele><time>2026-04-06T10:08:59.998Z</time></trkpt><trkpt lat="45.9661629942763" lon="12.318970197136325"><ele>109.33333333333334</ele><time>2026-04-06T10:09:00.998Z</time></trkpt><trkpt lat="45.966038750951014" lon="12.319180013281475"><ele>109.0</ele><time>2026-04-06T10:09:01.998Z</time></trkpt><trkpt lat="45.965907786107266" lon="12.319406752167218"><ele>109.33333333333334</ele><time>2026-04-06T10:09:02.998Z</time></trkpt><trkpt lat="45.965782056175755" lon="12.319623313135795"><ele>109.66666666666666</ele><time>2026-04-06T10:09:03.998Z</time></trkpt><trkpt lat="45.96567601377161" lon="12.319816047240932"><ele>110.0</ele><time>2026-04-06T10:09:04.998Z</time></trkpt><trkpt lat="45.96557948735161" lon="12.320009145772568"><ele>110.0</ele><time>2026-04-06T10:09:05.998Z</time></trkpt><trkpt lat="45.9654964528948" lon="12.32019955446895"><ele>110.0</ele><time>2026-04-06T10:09:06.998Z</time></trkpt><trkpt lat="45.96542017929141" lon="12.320386813105028"><ele>110.0</ele><time>2026-04-06T10:09:07.998Z</time></trkpt><trkpt lat="45.96534808488942" lon="12.320562596282574"><ele>110.0</ele><time>2026-04-06T10:09:08.998Z</time></trkpt><trkpt lat="45.965283098912806" lon="12.320724532190946"><ele>109.6</ele><time>2026-04-06T10:09:09.998Z</time></trkpt><trkpt lat="45.96523093652672" lon="12.320870948864131"><ele>109.2</ele><time>2026-04-06T10:09:10.998Z</time></trkpt><trkpt lat="45.96517479418628" lon="12.321002899160316"><ele>108.80000000000001</ele><time>2026-04-06T10:09:11.998Z</time></trkpt><trkpt lat="45.96511537520123" lon="12.321126265197245"><ele>108.4</ele><time>2026-04-06T10:09:12.998Z</time></trkpt><trkpt lat="45.9650365333409" lon="12.321228620317969"><ele>108.0</ele><time>2026-04-06T10:09:13.999Z</time></trkpt><trkpt lat="45.964961923577974" lon="12.321337191384131"><ele>107.75</ele><time>2026-04-06T10:09:14.999Z</time></trkpt><trkpt lat="45.96489618631454" lon="12.321458212343954"><ele>107.5</ele><time>2026-04-06T10:09:15.999Z</time></trkpt><trkpt lat="45.964823772235576" lon="12.32158040146342"><ele>107.25</ele><time>2026-04-06T10:09:16.999Z</time></trkpt><trkpt lat="45.964737226004615" lon="12.32169760326666"><ele>107.0</ele><time>2026-04-06T10:09:17.999Z</time></trkpt><trkpt lat="45.96464690778525" lon="12.321812477753989"><ele>107.0</ele><time>2026-04-06T10:09:18.999Z</time></trkpt><trkpt lat="45.964554510834596" lon="12.321913489379467"><ele>107.0</ele><time>2026-04-06T10:09:19.999Z</time></trkpt><trkpt lat="45.964449774414284" lon="12.322020884641717"><ele>107.0</ele><time>2026-04-06T10:09:20.999Z</time></trkpt><trkpt lat="45.964362932730225" lon="12.322145735103595"><ele>107.0</ele><time>2026-04-06T10:09:21.999Z</time></trkpt><trkpt lat="45.96428098628032" lon="12.322267777275167"><ele>107.25</ele><time>2026-04-06T10:09:22.999Z</time></trkpt><trkpt lat="45.964193779483935" lon="12.322391298758"><ele>107.5</ele><time>2026-04-06T10:09:23.999Z</time></trkpt><trkpt lat="45.964106622141784" lon="12.322510059460324"><ele>107.75</ele><time>2026-04-06T10:09:24.999Z</time></trkpt><trkpt lat="45.964022581022455" lon="12.322614807072215"><ele>108.0</ele><time>2026-04-06T10:09:25.999Z</time></trkpt><trkpt lat="45.963931683814245" lon="12.322719213038697"><ele>108.0</ele><time>2026-04-06T10:09:26.999Z</time></trkpt><trkpt lat="45.96383031453164" lon="12.322816110895415"><ele>108.0</ele><time>2026-04-06T10:09:27.999Z</time></trkpt><trkpt lat="45.963723535397264" lon="12.322906182500342"><ele>108.0</ele><time>2026-04-06T10:09:28.999Z</time></trkpt><trkpt lat="45.96360460445887" lon="12.323003150886677"><ele>108.0</ele><time>2026-04-06T10:09:29.999Z</time></trkpt><trkpt lat="45.96348214622031" lon="12.323097529469434"><ele>107.66666666666666</ele><time>2026-04-06T10:09:30.999Z</time></trkpt><trkpt lat="45.963354402163866" lon="12.323191692039348"><ele>107.33333333333333</ele><time>2026-04-06T10:09:31.999Z</time></trkpt><trkpt lat="45.96319927254689" lon="12.323288905276808"><ele>107.0</ele><time>2026-04-06T10:09:32.999Z</time></trkpt><trkpt lat="45.96302363894748" lon="12.323390980741534"><ele>107.0</ele><time>2026-04-06T10:09:33.999Z</time></trkpt><trkpt lat="45.96286033285252" lon="12.323481421527134"><ele>107.0</ele><time>2026-04-06T10:09:34.999Z</time></trkpt><trkpt lat="45.962707584529" lon="12.323556991987621"><ele>107.0</ele><time>2026-04-06T10:09:35.999Z</time></trkpt><trkpt lat="45.962569586912466" lon="12.323627189395701"><ele>107.0</ele><time>2026-04-06T10:09:36.999Z</time></trkpt><trkpt lat="45.96243698786642" lon="12.323699121064898"><ele>107.0</ele><time>2026-04-06T10:09:37.999Z</time></trkpt><trkpt lat="45.96228206893064" lon="12.323793150586516"><ele>107.0</ele><time>2026-04-06T10:09:38.999Z</time></trkpt><trkpt lat="45.962094550342485" lon="12.32390040571449"><ele>107.0</ele><time>2026-04-06T10:09:39.999Z</time></trkpt><trkpt lat="45.961890603545484" lon="12.324002992059997"><ele>107.0</ele><time>2026-04-06T10:09:40.999Z</time></trkpt><trkpt lat="45.96169805618547" lon="12.324096186687028"><ele>107.0</ele><time>2026-04-06T10:09:41.999Z</time></trkpt><trkpt lat="45.96150870437405" lon="12.324216127756813"><ele>107.0</ele><time>2026-04-06T10:09:42.999Z</time></trkpt><trkpt lat="45.96130875759334" lon="12.324321435747116"><ele>107.0</ele><time>2026-04-06T10:09:43.999Z</time></trkpt><trkpt lat="45.96110315720021" lon="12.324419740405311"><ele>107.0</ele><time>2026-04-06T10:09:44.999Z</time></trkpt><trkpt lat="45.960917728884986" lon="12.324520563970543"><ele>106.0</ele><time>2026-04-06T10:09:45.999Z</time></trkpt><trkpt lat="45.96074571931462" lon="12.324633323478123"><ele>105.0</ele><time>2026-04-06T10:09:46.999Z</time></trkpt><trkpt lat="45.96057367905257" lon="12.324721213334794"><ele>104.0</ele><time>2026-04-06T10:09:47.999Z</time></trkpt><trkpt lat="45.96040864605359" lon="12.324792568851315"><ele>104.0</ele><time>2026-04-06T10:09:48.999Z</time></trkpt><trkpt lat="45.96023431371871" lon="12.324863105830046"><ele>104.0</ele><time>2026-04-06T10:09:49.999Z</time></trkpt><trkpt lat="45.96004279772761" lon="12.324912288395605"><ele>104.0</ele><time>2026-04-06T10:09:50.999Z</time></trkpt><trkpt lat="45.95984685349584" lon="12.324930095391194"><ele>105.0</ele><time>2026-04-06T10:09:51.999Z</time></trkpt><trkpt lat="45.959600562109024" lon="12.324946443889596"><ele>106.0</ele><time>2026-04-06T10:09:52.999Z</time></trkpt><trkpt lat="45.95937980268257" lon="12.324926623319241"><ele>105.33333333333334</ele><time>2026-04-06T10:09:53.999Z</time></trkpt><trkpt lat="45.95917683491785" lon="12.3248945687753"><ele>104.66666666666666</ele><time>2026-04-06T10:09:54.999Z</time></trkpt><trkpt lat="45.9589721804092" lon="12.324871503117766"><ele>104.0</ele><time>2026-04-06T10:09:55.999Z</time></trkpt><trkpt lat="45.95875822924128" lon="12.324832682762139"><ele>104.0</ele><time>2026-04-06T10:09:56.999Z</time></trkpt><trkpt lat="45.95853704806303" lon="12.324805824680801"><ele>104.0</ele><time>2026-04-06T10:09:57.999Z</time></trkpt><trkpt lat="45.958306363026686" lon="12.324777812660336"><ele>103.5</ele><time>2026-04-06T10:09:58.999Z</time></trkpt><trkpt lat="45.958068467089234" lon="12.324749545263707"><ele>103.0</ele><time>2026-04-06T10:09:59.999Z</time></trkpt><trkpt lat="45.95782177988745" lon="12.324748348520735"><ele>102.5</ele><time>2026-04-06T10:10:00.999Z</time></trkpt><trkpt lat="45.95758783442697" lon="12.324711424469841"><ele>102.0</ele><time>2026-04-06T10:10:01.999Z</time></trkpt><trkpt lat="45.957369259113555" lon="12.324686159260219"><ele>101.66666666666666</ele><time>2026-04-06T10:10:02.999Z</time></trkpt><trkpt lat="45.95715468712589" lon="12.324660101432372"><ele>101.33333333333333</ele><time>2026-04-06T10:10:03.999Z</time></trkpt><trkpt lat="45.95693648995331" lon="12.324635284727"><ele>101.0</ele><time>2026-04-06T10:10:04.999Z</time></trkpt><trkpt lat="45.95672472263995" lon="12.32461023542844"><ele>100.66666666666666</ele><time>2026-04-06T10:10:05.999Z</time></trkpt><trkpt lat="45.95653138530123" lon="12.324588499754501"><ele>100.33333333333334</ele><time>2026-04-06T10:10:06.999Z</time></trkpt><trkpt lat="45.956355967921624" lon="12.324566519796052"><ele>100.0</ele><time>2026-04-06T10:10:07.999Z</time></trkpt><trkpt lat="45.95618372623882" lon="12.324547562982918"><ele>100.0</ele><time>2026-04-06T10:10:08.999Z</time></trkpt><trkpt lat="45.95600965055228" lon="12.324504195160202"><ele>100.0</ele><time>2026-04-06T10:10:09.999Z</time></trkpt><trkpt lat="45.955812690350356" lon="12.324480477294072"><ele>100.0</ele><time>2026-04-06T10:10:10.999Z</time></trkpt><trkpt lat="45.95561001999518" lon="12.324457798051297"><ele>101.66666666666667</ele><time>2026-04-06T10:10:11.999Z</time></trkpt><trkpt lat="45.95542892494227" lon="12.324433311218897"><ele>103.33333333333334</ele><time>2026-04-06T10:10:12.999Z</time></trkpt><trkpt lat="45.95525548626535" lon="12.324411637941777"><ele>105.0</ele><time>2026-04-06T10:10:13.999Z</time></trkpt><trkpt lat="45.95508135553333" lon="12.324390673424366"><ele>104.66666666666666</ele><time>2026-04-06T10:10:14.999Z</time></trkpt><trkpt lat="45.954896806408556" lon="12.32441536652845"><ele>104.33333333333333</ele><time>2026-04-06T10:10:15.999Z</time></trkpt><trkpt lat="45.95471803715408" lon="12.324389238088974"><ele>104.0</ele><time>2026-04-06T10:10:16.999Z</time></trkpt><trkpt lat="45.954557486649804" lon="12.324353093296029"><ele>104.0</ele><time>2026-04-06T10:10:17.999Z</time></trkpt><trkpt lat="45.954410755300906" lon="12.324330177980196"><ele>104.0</ele><time>2026-04-06T10:10:18.999Z</time></trkpt><trkpt lat="45.95426912864991" lon="12.32431366611956"><ele>104.0</ele><time>2026-04-06T10:10:19.999Z</time></trkpt><trkpt lat="45.954109471440525" lon="12.324275405212541"><ele>103.33333333333333</ele><time>2026-04-06T10:10:20.999Z</time></trkpt><trkpt lat="45.953926074958574" lon="12.324252480742029"><ele>102.66666666666666</ele><time>2026-04-06T10:10:21.999Z</time></trkpt><trkpt lat="45.95374977102633" lon="12.32425244716814"><ele>102.0</ele><time>2026-04-06T10:10:22.999Z</time></trkpt><trkpt lat="45.95358992644195" lon="12.324228479492119"><ele>102.0</ele><time>2026-04-06T10:10:23.999Z</time></trkpt><trkpt lat="45.9534236598049" lon="12.324216849033867"><ele>102.0</ele><time>2026-04-06T10:10:24.999Z</time></trkpt><trkpt lat="45.95322937327922" lon="12.32417018648612"><ele>102.0</ele><time>2026-04-06T10:10:25.999Z</time></trkpt><trkpt lat="45.953015362505404" lon="12.324160487156826"><ele>101.66666666666666</ele><time>2026-04-06T10:10:26.999Z</time></trkpt><trkpt lat="45.95281856735967" lon="12.324134825802783"><ele>101.33333333333333</ele><time>2026-04-06T10:10:27.999Z</time></trkpt><trkpt lat="45.95263601847377" lon="12.324117730363064"><ele>101.0</ele><time>2026-04-06T10:10:28.999Z</time></trkpt><trkpt lat="45.952464297541376" lon="12.324096765696595"><ele>100.66666666666666</ele><time>2026-04-06T10:10:29.999Z</time></trkpt><trkpt lat="45.95229388729443" lon="12.324076800599666"><ele>100.33333333333334</ele><time>2026-04-06T10:10:30.999Z</time></trkpt><trkpt lat="45.95211572972532" lon="12.32403673036186"><ele>100.0</ele><time>2026-04-06T10:10:31.999Z</time></trkpt><trkpt lat="45.95189857749009" lon="12.324011325536645"><ele>101.0</ele><time>2026-04-06T10:10:32.999Z</time></trkpt><trkpt lat="45.95166376453379" lon="12.323990081789884"><ele>102.0</ele><time>2026-04-06T10:10:33.999Z</time></trkpt><trkpt lat="45.95139874463365" lon="12.323964818810323"><ele>102.0</ele><time>2026-04-06T10:10:34.999Z</time></trkpt><trkpt lat="45.95113254774906" lon="12.323940793085617"><ele>102.0</ele><time>2026-04-06T10:10:35.999Z</time></trkpt><trkpt lat="45.95085789973524" lon="12.323912059070723"><ele>100.5</ele><time>2026-04-06T10:10:36.999Z</time></trkpt><trkpt lat="45.950597899465116" lon="12.323853627388482"><ele>99.0</ele><time>2026-04-06T10:10:37.999Z</time></trkpt><trkpt lat="45.95033833076188" lon="12.32381729045391"><ele>99.0</ele><time>2026-04-06T10:10:38.999Z</time></trkpt><trkpt lat="45.95007693088441" lon="12.323787874517663"><ele>99.0</ele><time>2026-04-06T10:10:39.999Z</time></trkpt><trkpt lat="45.94982351945857" lon="12.323756587343695"><ele>99.0</ele><time>2026-04-06T10:10:40.999Z</time></trkpt><trkpt lat="45.9495635287033" lon="12.32373723456966"><ele>99.0</ele><time>2026-04-06T10:10:41.999Z</time></trkpt><trkpt lat="45.949289804469885" lon="12.3237040078403"><ele>99.5</ele><time>2026-04-06T10:10:42.999Z</time></trkpt><trkpt lat="45.94903292083963" lon="12.323681176275075"><ele>100.0</ele><time>2026-04-06T10:10:43.999Z</time></trkpt><trkpt lat="45.94879788516417" lon="12.323652054971285"><ele>100.0</ele><time>2026-04-06T10:10:44.999Z</time></trkpt><trkpt lat="45.948584770235875" lon="12.323625183169762"><ele>100.0</ele><time>2026-04-06T10:10:45.999Z</time></trkpt><trkpt lat="45.948390755171026" lon="12.323591794026372"><ele>100.0</ele><time>2026-04-06T10:10:46.999Z</time></trkpt><trkpt lat="45.94821633398301" lon="12.32357162266999"><ele>99.75</ele><time>2026-04-06T10:10:47.999Z</time></trkpt><trkpt lat="45.94806045470015" lon="12.323566462816947"><ele>99.5</ele><time>2026-04-06T10:10:48.999Z</time></trkpt><trkpt lat="45.94792408237542" lon="12.32355172799291"><ele>99.25</ele><time>2026-04-06T10:10:49.999Z</time></trkpt><trkpt lat="45.94780876930553" lon="12.323527480961758"><ele>99.0</ele><time>2026-04-06T10:10:50.999Z</time></trkpt><trkpt lat="45.94771259804409" lon="12.323508011690292"><ele>99.0</ele><time>2026-04-06T10:10:51.999Z</time></trkpt><trkpt lat="45.947650037860264" lon="12.323456956677118"><ele>99.0</ele><time>2026-04-06T10:10:52.999Z</time></trkpt><trkpt lat="45.94757910896279" lon="12.323327427780093"><ele>99.0</ele><time>2026-04-06T10:10:54.999Z</time></trkpt><trkpt lat="45.947532322316405" lon="12.323213492899779"><ele>99.0</ele><time>2026-04-06T10:10:55.999Z</time></trkpt><trkpt lat="45.9474626688332" lon="12.323095425856446"><ele>99.0</ele><time>2026-04-06T10:10:56.999Z</time></trkpt><trkpt lat="45.94737216585418" lon="12.323034408706086"><ele>98.80000000000001</ele><time>2026-04-06T10:10:57.999Z</time></trkpt><trkpt lat="45.947271240646145" lon="12.323028509389678"><ele>98.60000000000001</ele><time>2026-04-06T10:10:58.999Z</time></trkpt><trkpt lat="45.94716654034181" lon="12.323069403934703"><ele>98.4</ele><time>2026-04-06T10:10:59.999Z</time></trkpt><trkpt lat="45.94708059443361" lon="12.323161440266245"><ele>98.2</ele><time>2026-04-06T10:11:00.999Z</time></trkpt><trkpt lat="45.94701494791863" lon="12.32326692186486"><ele>98.0</ele><time>2026-04-06T10:11:01.999Z</time></trkpt><trkpt lat="45.94697478193371" lon="12.323372498912486"><ele>97.75</ele><time>2026-04-06T10:11:02.999Z</time></trkpt><trkpt lat="45.94686282781786" lon="12.323408803632244"><ele>97.5</ele><time>2026-04-06T10:11:03.999Z</time></trkpt><trkpt lat="45.94675801085522" lon="12.323422902315913"><ele>97.25</ele><time>2026-04-06T10:11:04.999Z</time></trkpt><trkpt lat="45.94663790056494" lon="12.323405845435794"><ele>97.0</ele><time>2026-04-06T10:11:05.999Z</time></trkpt><trkpt lat="45.946496528261285" lon="12.323362426066186"><ele>96.66666666666667</ele><time>2026-04-06T10:11:06.999Z</time></trkpt><trkpt lat="45.94632778082796" lon="12.323356355276335"><ele>96.33333333333334</ele><time>2026-04-06T10:11:07.999Z</time></trkpt><trkpt lat="45.94617810770782" lon="12.323331726943497"><ele>96.0</ele><time>2026-04-06T10:11:08.999Z</time></trkpt><trkpt lat="45.946037459987515" lon="12.323301048099378"><ele>96.0</ele><time>2026-04-06T10:11:09.999Z</time></trkpt><trkpt lat="45.94591776357409" lon="12.323311960909052"><ele>96.0</ele><time>2026-04-06T10:11:10.999Z</time></trkpt><trkpt lat="45.94581161788792" lon="12.323296783900739"><ele>96.0</ele><time>2026-04-06T10:11:11.999Z</time></trkpt><trkpt lat="45.94571204243929" lon="12.323287382012523"><ele>96.0</ele><time>2026-04-06T10:11:12.999Z</time></trkpt><trkpt lat="45.94560993171081" lon="12.323273745669635"><ele>96.0</ele><time>2026-04-06T10:11:13.999Z</time></trkpt><trkpt lat="45.94549973672654" lon="12.323251952102988"><ele>96.0</ele><time>2026-04-06T10:11:14.999Z</time></trkpt><trkpt lat="45.94539011675266" lon="12.323242864328725"><ele>96.0</ele><time>2026-04-06T10:11:15.999Z</time></trkpt><trkpt lat="45.94527269644134" lon="12.32323187853765"><ele>96.0</ele><time>2026-04-06T10:11:16.999Z</time></trkpt><trkpt lat="45.94514946065364" lon="12.323217447254349"><ele>96.0</ele><time>2026-04-06T10:11:17.999Z</time></trkpt><trkpt lat="45.94502234251582" lon="12.32320211913869"><ele>95.5</ele><time>2026-04-06T10:11:18.999Z</time></trkpt><trkpt lat="45.94490212165977" lon="12.323188005498368"><ele>95.0</ele><time>2026-04-06T10:11:19.999Z</time></trkpt><trkpt lat="45.94477902532534" lon="12.323172742592309"><ele>94.5</ele><time>2026-04-06T10:11:20.999Z</time></trkpt><trkpt lat="45.94465856416986" lon="12.32313414046689"><ele>94.0</ele><time>2026-04-06T10:11:21.999Z</time></trkpt><trkpt lat="45.94453552242838" lon="12.323118720473921"><ele>94.0</ele><time>2026-04-06T10:11:22.999Z</time></trkpt><trkpt lat="45.94440916043032" lon="12.323104087378063"><ele>94.0</ele><time>2026-04-06T10:11:23.999Z</time></trkpt><trkpt lat="45.94427863672763" lon="12.323087821954982"><ele>94.0</ele><time>2026-04-06T10:11:24.999Z</time></trkpt><trkpt lat="45.94414861428969" lon="12.323073000963051"><ele>94.0</ele><time>2026-04-06T10:11:25.999Z</time></trkpt><trkpt lat="45.94402403589659" lon="12.323058570442923"><ele>94.0</ele><time>2026-04-06T10:11:26.999Z</time></trkpt><trkpt lat="45.94390110954602" lon="12.32304433127706"><ele>94.0</ele><time>2026-04-06T10:11:27.999Z</time></trkpt><trkpt lat="45.943780525135146" lon="12.323052972441205"><ele>94.0</ele><time>2026-04-06T10:11:28.999Z</time></trkpt><trkpt lat="45.943665695906894" lon="12.323015293518766"><ele>94.0</ele><time>2026-04-06T10:11:29.999Z</time></trkpt><trkpt lat="45.943547835850254" lon="12.323000661962332"><ele>94.0</ele><time>2026-04-06T10:11:30.999Z</time></trkpt><trkpt lat="45.943423392960504" lon="12.322986713488158"><ele>94.0</ele><time>2026-04-06T10:11:31.999Z</time></trkpt><trkpt lat="45.94329283326652" lon="12.322972181570888"><ele>94.0</ele><time>2026-04-06T10:11:32.999Z</time></trkpt><trkpt lat="45.94316715558744" lon="12.32295653027213"><ele>94.0</ele><time>2026-04-06T10:11:33.999Z</time></trkpt><trkpt lat="45.94304821641296" lon="12.322976084102063"><ele>94.2</ele><time>2026-04-06T10:11:34.999Z</time></trkpt><trkpt lat="45.94293891834752" lon="12.322973245913538"><ele>94.4</ele><time>2026-04-06T10:11:36Z</time></trkpt><trkpt lat="45.942837009035635" lon="12.322973238904364"><ele>94.6</ele><time>2026-04-06T10:11:37Z</time></trkpt><trkpt lat="45.942741566280326" lon="12.322978510005573"><ele>94.8</ele><time>2026-04-06T10:11:38Z</time></trkpt><trkpt lat="45.94265297360568" lon="12.322989440360294"><ele>95.0</ele><time>2026-04-06T10:11:39Z</time></trkpt><trkpt lat="45.94256718927618" lon="12.322988440602936"><ele>94.42857142857143</ele><time>2026-04-06T10:11:40Z</time></trkpt><trkpt lat="45.942489084347145" lon="12.32298078848823"><ele>93.85714285714286</ele><time>2026-04-06T10:11:41Z</time></trkpt><trkpt lat="45.942417581549755" lon="12.322965872729982"><ele>93.28571428571428</ele><time>2026-04-06T10:11:42Z</time></trkpt><trkpt lat="45.942349359888944" lon="12.322933058453735"><ele>92.71428571428572</ele><time>2026-04-06T10:11:43Z</time></trkpt><trkpt lat="45.942284873963146" lon="12.322883848044919"><ele>92.14285714285714</ele><time>2026-04-06T10:11:44Z</time></trkpt><trkpt lat="45.9422217491572" lon="12.32281646179912"><ele>91.57142857142857</ele><time>2026-04-06T10:11:45Z</time></trkpt><trkpt lat="45.94215854563103" lon="12.322759025316401"><ele>91.0</ele><time>2026-04-06T10:11:46Z</time></trkpt><trkpt lat="45.94209221380048" lon="12.32272100453181"><ele>91.0</ele><time>2026-04-06T10:11:47Z</time></trkpt><trkpt lat="45.94201841613912" lon="12.322710745079863"><ele>91.0</ele><time>2026-04-06T10:11:48Z</time></trkpt><trkpt lat="45.94194430689392" lon="12.322738543259241"><ele>91.0</ele><time>2026-04-06T10:11:49Z</time></trkpt><trkpt lat="45.94187034717081" lon="12.322789060760554"><ele>91.0</ele><time>2026-04-06T10:11:50Z</time></trkpt><trkpt lat="45.941809534082665" lon="12.322921913519686"><ele>91.0</ele><time>2026-04-06T10:11:52Z</time></trkpt><trkpt lat="45.941804320009524" lon="12.323015696496064"><ele>91.0</ele><time>2026-04-06T10:11:53Z</time></trkpt><trkpt lat="45.94181784465738" lon="12.323111136111562"><ele>91.16666666666666</ele><time>2026-04-06T10:11:54Z</time></trkpt><trkpt lat="45.94185454347311" lon="12.323209807203911"><ele>91.33333333333333</ele><time>2026-04-06T10:11:55Z</time></trkpt><trkpt lat="45.94191491761203" lon="12.32330109202124"><ele>91.5</ele><time>2026-04-06T10:11:56Z</time></trkpt><trkpt lat="45.94198989857474" lon="12.323356490882276"><ele>91.66666666666667</ele><time>2026-04-06T10:11:57Z</time></trkpt><trkpt lat="45.9420766061352" lon="12.323354213584985"><ele>91.83333333333334</ele><time>2026-04-06T10:11:58Z</time></trkpt><trkpt lat="45.94216102530667" lon="12.323309353531796"><ele>92.0</ele><time>2026-04-06T10:11:59Z</time></trkpt><trkpt lat="45.94223214992176" lon="12.32321480453096"><ele>92.0</ele><time>2026-04-06T10:12:00Z</time></trkpt><trkpt lat="45.94226562154547" lon="12.323089398491863"><ele>92.0</ele><time>2026-04-06T10:12:01Z</time></trkpt><trkpt lat="45.94226392619167" lon="12.322953570074572"><ele>92.0</ele><time>2026-04-06T10:12:02Z</time></trkpt><trkpt lat="45.942219484194496" lon="12.32283024317778"><ele>92.0</ele><time>2026-04-06T10:12:03Z</time></trkpt><trkpt lat="45.942143577026535" lon="12.322746874171601"><ele>92.0</ele><time>2026-04-06T10:12:04Z</time></trkpt><trkpt lat="45.94205504189124" lon="12.322719988477454"><ele>91.75</ele><time>2026-04-06T10:12:05Z</time></trkpt><trkpt lat="45.94195911517892" lon="12.3227469615755"><ele>91.5</ele><time>2026-04-06T10:12:06Z</time></trkpt><trkpt lat="45.941858184772016" lon="12.322804279851436"><ele>91.25</ele><time>2026-04-06T10:12:07Z</time></trkpt><trkpt lat="45.94173387243608" lon="12.322854433991527"><ele>91.0</ele><time>2026-04-06T10:12:08Z</time></trkpt><trkpt lat="45.941588536690915" lon="12.32285569446618"><ele>91.0</ele><time>2026-04-06T10:12:09Z</time></trkpt><trkpt lat="45.9414174998317" lon="12.32277863272835"><ele>91.0</ele><time>2026-04-06T10:12:10Z</time></trkpt><trkpt lat="45.941205807981184" lon="12.322731603663891"><ele>91.0</ele><time>2026-04-06T10:12:11Z</time></trkpt><trkpt lat="45.940973102610826" lon="12.322718088965246"><ele>92.0</ele><time>2026-04-06T10:12:12Z</time></trkpt><trkpt lat="45.94073403760682" lon="12.322667420481537"><ele>93.0</ele><time>2026-04-06T10:12:13Z</time></trkpt><trkpt lat="45.940474179922255" lon="12.322636709241014"><ele>93.0</ele><time>2026-04-06T10:12:14Z</time></trkpt><trkpt lat="45.9402228127242" lon="12.322627846341135"><ele>93.0</ele><time>2026-04-06T10:12:15Z</time></trkpt><trkpt lat="45.93997486976142" lon="12.322598365853734"><ele>91.5</ele><time>2026-04-06T10:12:16Z</time></trkpt><trkpt lat="45.939746936461304" lon="12.3225677680801"><ele>90.0</ele><time>2026-04-06T10:12:17Z</time></trkpt><trkpt lat="45.93951767388047" lon="12.322537739019563"><ele>90.0</ele><time>2026-04-06T10:12:18Z</time></trkpt><trkpt lat="45.939284340630735" lon="12.32250688250491"><ele>90.0</ele><time>2026-04-06T10:12:19Z</time></trkpt><trkpt lat="45.93904416921135" lon="12.322476589606651"><ele>89.0</ele><time>2026-04-06T10:12:20Z</time></trkpt><trkpt lat="45.938797903431755" lon="12.32244590579171"><ele>88.0</ele><time>2026-04-06T10:12:21Z</time></trkpt><trkpt lat="45.93856765882754" lon="12.322418332095037"><ele>88.5</ele><time>2026-04-06T10:12:22Z</time></trkpt><trkpt lat="45.93834059190526" lon="12.322388008792185"><ele>89.0</ele><time>2026-04-06T10:12:23Z</time></trkpt><trkpt lat="45.93810458431177" lon="12.322359594520242"><ele>89.0</ele><time>2026-04-06T10:12:24Z</time></trkpt><trkpt lat="45.9378605125573" lon="12.32233028799504"><ele>89.0</ele><time>2026-04-06T10:12:25Z</time></trkpt><trkpt lat="45.93761147772183" lon="12.322302378990598"><ele>88.5</ele><time>2026-04-06T10:12:26Z</time></trkpt><trkpt lat="45.9373581217565" lon="12.32228052387444"><ele>88.0</ele><time>2026-04-06T10:12:27Z</time></trkpt><trkpt lat="45.9371091215604" lon="12.322229674103973"><ele>88.0</ele><time>2026-04-06T10:12:28Z</time></trkpt><trkpt lat="45.936876648179" lon="12.322201818464839"><ele>88.0</ele><time>2026-04-06T10:12:29Z</time></trkpt><trkpt lat="45.93665140117585" lon="12.322174826737541"><ele>88.0</ele><time>2026-04-06T10:12:30Z</time></trkpt><trkpt lat="45.93641856345601" lon="12.322146925399675"><ele>88.0</ele><time>2026-04-06T10:12:31Z</time></trkpt><trkpt lat="45.936181495438355" lon="12.32211851714196"><ele>88.0</ele><time>2026-04-06T10:12:32Z</time></trkpt><trkpt lat="45.935959697359166" lon="12.322091938716737"><ele>88.0</ele><time>2026-04-06T10:12:33Z</time></trkpt><trkpt lat="45.935737541662334" lon="12.322065239403932"><ele>88.0</ele><time>2026-04-06T10:12:34Z</time></trkpt><trkpt lat="45.93550842792288" lon="12.322037651381864"><ele>88.0</ele><time>2026-04-06T10:12:35Z</time></trkpt><trkpt lat="45.935278679875466" lon="12.322009197529281"><ele>88.0</ele><time>2026-04-06T10:12:36Z</time></trkpt><trkpt lat="45.93504863308707" lon="12.321982646706457"><ele>88.0</ele><time>2026-04-06T10:12:37Z</time></trkpt><trkpt lat="45.934815726003144" lon="12.321957008871124"><ele>88.0</ele><time>2026-04-06T10:12:38Z</time></trkpt><trkpt lat="45.93459044758842" lon="12.321952502828506"><ele>88.0</ele><time>2026-04-06T10:12:39Z</time></trkpt><trkpt lat="45.934384324869725" lon="12.321906035495045"><ele>88.0</ele><time>2026-04-06T10:12:40Z</time></trkpt><trkpt lat="45.93418658454506" lon="12.321882328191185"><ele>88.0</ele><time>2026-04-06T10:12:41Z</time></trkpt><trkpt lat="45.933994563647985" lon="12.321859306616787"><ele>87.0</ele><time>2026-04-06T10:12:42Z</time></trkpt><trkpt lat="45.93380090120373" lon="12.32183608823734"><ele>86.0</ele><time>2026-04-06T10:12:43Z</time></trkpt><trkpt lat="45.93359116642258" lon="12.321810942920047"><ele>85.0</ele><time>2026-04-06T10:12:44Z</time></trkpt><trkpt lat="45.93342107655064" lon="12.321836781800208"><ele>84.66666666666666</ele><time>2026-04-06T10:12:45Z</time></trkpt><trkpt lat="45.93324205372669" lon="12.32180538729188"><ele>84.33333333333333</ele><time>2026-04-06T10:12:46Z</time></trkpt><trkpt lat="45.93307220217972" lon="12.321759474690166"><ele>84.0</ele><time>2026-04-06T10:12:47Z</time></trkpt><trkpt lat="45.93291893107639" lon="12.321743825074186"><ele>84.0</ele><time>2026-04-06T10:12:48Z</time></trkpt><trkpt lat="45.932788540446886" lon="12.321726226462653"><ele>84.0</ele><time>2026-04-06T10:12:49Z</time></trkpt><trkpt lat="45.93268725958447" lon="12.32171145311539"><ele>84.0</ele><time>2026-04-06T10:12:50Z</time></trkpt><trkpt lat="45.93261165281299" lon="12.321701518205058"><ele>84.0</ele><time>2026-04-06T10:12:51Z</time></trkpt><trkpt lat="45.93252471459863" lon="12.32169467656405"><ele>84.0</ele><time>2026-04-06T10:12:53Z</time></trkpt><trkpt lat="45.932394032623684" lon="12.321669228902977"><ele>84.25</ele><time>2026-04-06T10:12:59.999Z</time></trkpt><trkpt lat="45.932287740825025" lon="12.321650575431855"><ele>84.5</ele><time>2026-04-06T10:13:00.999Z</time></trkpt><trkpt lat="45.93217148489103" lon="12.321639852452691"><ele>84.75</ele><time>2026-04-06T10:13:01.999Z</time></trkpt><trkpt lat="45.93204660110292" lon="12.32162205196052"><ele>85.0</ele><time>2026-04-06T10:13:02.999Z</time></trkpt><trkpt lat="45.931893520400465" lon="12.3216000203525"><ele>85.0</ele><time>2026-04-06T10:13:03.999Z</time></trkpt><trkpt lat="45.931730183699486" lon="12.321599449455881"><ele>85.0</ele><time>2026-04-06T10:13:04.999Z</time></trkpt><trkpt lat="45.93153381699957" lon="12.321579620793662"><ele>85.0</ele><time>2026-04-06T10:13:05.999Z</time></trkpt><trkpt lat="45.93134798194946" lon="12.321547885940946"><ele>85.33333333333333</ele><time>2026-04-06T10:13:07Z</time></trkpt><trkpt lat="45.931133821844725" lon="12.321534959103378"><ele>85.66666666666667</ele><time>2026-04-06T10:13:08Z</time></trkpt><trkpt lat="45.93091334583315" lon="12.32151322663591"><ele>86.0</ele><time>2026-04-06T10:13:09Z</time></trkpt><trkpt lat="45.93069583551627" lon="12.321481749524217"><ele>85.0</ele><time>2026-04-06T10:13:10Z</time></trkpt><trkpt lat="45.93048370495768" lon="12.321452128244132"><ele>84.0</ele><time>2026-04-06T10:13:11Z</time></trkpt><trkpt lat="45.93026032777291" lon="12.321424506398516"><ele>83.0</ele><time>2026-04-06T10:13:12Z</time></trkpt><trkpt lat="45.930024659022735" lon="12.321403300236192"><ele>83.0</ele><time>2026-04-06T10:13:13Z</time></trkpt><trkpt lat="45.92978131043302" lon="12.321381552152369"><ele>83.0</ele><time>2026-04-06T10:13:14Z</time></trkpt><trkpt lat="45.92952557100002" lon="12.321352344977525"><ele>83.0</ele><time>2026-04-06T10:13:15Z</time></trkpt><trkpt lat="45.92926807731496" lon="12.321321551239372"><ele>83.0</ele><time>2026-04-06T10:13:16Z</time></trkpt><trkpt lat="45.92900415407942" lon="12.321290426081827"><ele>81.5</ele><time>2026-04-06T10:13:17Z</time></trkpt><trkpt lat="45.9287535421373" lon="12.321259912722669"><ele>80.0</ele><time>2026-04-06T10:13:18Z</time></trkpt><trkpt lat="45.928511338767926" lon="12.321227479079154"><ele>79.5</ele><time>2026-04-06T10:13:19Z</time></trkpt><trkpt lat="45.92825557473591" lon="12.321194506260893"><ele>79.0</ele><time>2026-04-06T10:13:20Z</time></trkpt><trkpt lat="45.92798817771109" lon="12.321161917341563"><ele>79.0</ele><time>2026-04-06T10:13:21Z</time></trkpt><trkpt lat="45.92771267217227" lon="12.321127086334126"><ele>79.0</ele><time>2026-04-06T10:13:22Z</time></trkpt><trkpt lat="45.927431754541516" lon="12.321092663837542"><ele>81.0</ele><time>2026-04-06T10:13:23Z</time></trkpt><trkpt lat="45.92716176144433" lon="12.321063536319205"><ele>83.0</ele><time>2026-04-06T10:13:24Z</time></trkpt><trkpt lat="45.926906814638556" lon="12.321034426358523"><ele>82.0</ele><time>2026-04-06T10:13:25Z</time></trkpt><trkpt lat="45.92665001966413" lon="12.321004374250846"><ele>81.0</ele><time>2026-04-06T10:13:26Z</time></trkpt><trkpt lat="45.92638640436784" lon="12.320969596824009"><ele>81.0</ele><time>2026-04-06T10:13:27Z</time></trkpt><trkpt lat="45.926124638456656" lon="12.320938240666674"><ele>81.0</ele><time>2026-04-06T10:13:28Z</time></trkpt><trkpt lat="45.92586626869786" lon="12.320909311605067"><ele>81.0</ele><time>2026-04-06T10:13:29Z</time></trkpt><trkpt lat="45.92560496787037" lon="12.320882851681873"><ele>81.0</ele><time>2026-04-06T10:13:30Z</time></trkpt><trkpt lat="45.925339062508904" lon="12.320851912972945"><ele>81.0</ele><time>2026-04-06T10:13:31Z</time></trkpt><trkpt lat="45.925078680524386" lon="12.320819925187283"><ele>81.0</ele><time>2026-04-06T10:13:32Z</time></trkpt><trkpt lat="45.924843190556956" lon="12.320793490410272"><ele>80.0</ele><time>2026-04-06T10:13:33Z</time></trkpt><trkpt lat="45.924630918245605" lon="12.320768415787867"><ele>79.0</ele><time>2026-04-06T10:13:34Z</time></trkpt><trkpt lat="45.92443352075241" lon="12.320745323872895"><ele>78.0</ele><time>2026-04-06T10:13:35Z</time></trkpt><trkpt lat="45.92425214495693" lon="12.320725878756637"><ele>77.66666666666667</ele><time>2026-04-06T10:13:36Z</time></trkpt><trkpt lat="45.92404878343572" lon="12.320709260891514"><ele>77.33333333333334</ele><time>2026-04-06T10:13:37Z</time></trkpt><trkpt lat="45.92381982130828" lon="12.320690431448215"><ele>77.0</ele><time>2026-04-06T10:13:38Z</time></trkpt><trkpt lat="45.92356097212142" lon="12.320640024232638"><ele>77.0</ele><time>2026-04-06T10:13:39Z</time></trkpt><trkpt lat="45.92327718220992" lon="12.320587072524688"><ele>77.0</ele><time>2026-04-06T10:13:40Z</time></trkpt><trkpt lat="45.92297797012682" lon="12.320551937459474"><ele>77.5</ele><time>2026-04-06T10:13:41Z</time></trkpt><trkpt lat="45.92267829991031" lon="12.320518045371948"><ele>78.0</ele><time>2026-04-06T10:13:42Z</time></trkpt><trkpt lat="45.92239960874953" lon="12.32048917996281"><ele>79.0</ele><time>2026-04-06T10:13:43Z</time></trkpt><trkpt lat="45.92212372221198" lon="12.320454750917584"><ele>80.0</ele><time>2026-04-06T10:13:44Z</time></trkpt><trkpt lat="45.92184579317937" lon="12.320414076675293"><ele>80.0</ele><time>2026-04-06T10:13:45Z</time></trkpt><trkpt lat="45.92156934882694" lon="12.320378971289152"><ele>80.0</ele><time>2026-04-06T10:13:46Z</time></trkpt><trkpt lat="45.92131085423987" lon="12.320354798462116"><ele>80.0</ele><time>2026-04-06T10:13:47Z</time></trkpt><trkpt lat="45.921062124375375" lon="12.32032456048158"><ele>80.0</ele><time>2026-04-06T10:13:48Z</time></trkpt><trkpt lat="45.92079634120929" lon="12.320288452668766"><ele>79.0</ele><time>2026-04-06T10:13:49Z</time></trkpt><trkpt lat="45.92052295399009" lon="12.32026817982864"><ele>78.0</ele><time>2026-04-06T10:13:50Z</time></trkpt><trkpt lat="45.92024930121572" lon="12.32027301159187"><ele>76.5</ele><time>2026-04-06T10:13:51Z</time></trkpt><trkpt lat="45.919971931100235" lon="12.320307676276927"><ele>75.0</ele><time>2026-04-06T10:13:52Z</time></trkpt><trkpt lat="45.9196963818852" lon="12.320366972156831"><ele>75.0</ele><time>2026-04-06T10:13:53Z</time></trkpt><trkpt lat="45.91941817261645" lon="12.320466472559618"><ele>75.0</ele><time>2026-04-06T10:13:54Z</time></trkpt><trkpt lat="45.91912310312539" lon="12.32060965591396"><ele>74.0</ele><time>2026-04-06T10:13:55Z</time></trkpt><trkpt lat="45.91880625699316" lon="12.320775654596332"><ele>73.0</ele><time>2026-04-06T10:13:56Z</time></trkpt><trkpt lat="45.91847169451068" lon="12.320951833650753"><ele>73.0</ele><time>2026-04-06T10:13:57Z</time></trkpt><trkpt lat="45.91812253503824" lon="12.321128064342204"><ele>73.0</ele><time>2026-04-06T10:13:58Z</time></trkpt><trkpt lat="45.91776539285987" lon="12.321304048411946"><ele>74.0</ele><time>2026-04-06T10:13:59Z</time></trkpt><trkpt lat="45.9174368128808" lon="12.321468516653804"><ele>75.0</ele><time>2026-04-06T10:14:00Z</time></trkpt><trkpt lat="45.917132412278995" lon="12.321625402502573"><ele>75.0</ele><time>2026-04-06T10:14:01Z</time></trkpt><trkpt lat="45.91682366672213" lon="12.321782027314642"><ele>75.0</ele><time>2026-04-06T10:14:02Z</time></trkpt><trkpt lat="45.91651550490081" lon="12.321938574373567"><ele>75.0</ele><time>2026-04-06T10:14:03Z</time></trkpt><trkpt lat="45.916224623428086" lon="12.322082767148796"><ele>75.0</ele><time>2026-04-06T10:14:04Z</time></trkpt><trkpt lat="45.91594292099986" lon="12.32222838494458"><ele>73.0</ele><time>2026-04-06T10:14:05Z</time></trkpt><trkpt lat="45.915657347482316" lon="12.322369497733375"><ele>71.0</ele><time>2026-04-06T10:14:06Z</time></trkpt><trkpt lat="45.91537391504781" lon="12.322510636015725"><ele>71.0</ele><time>2026-04-06T10:14:07Z</time></trkpt><trkpt lat="45.91508565039248" lon="12.322660953442686"><ele>71.0</ele><time>2026-04-06T10:14:08Z</time></trkpt><trkpt lat="45.91478964727079" lon="12.322817983245818"><ele>71.5</ele><time>2026-04-06T10:14:09Z</time></trkpt><trkpt lat="45.914476351288954" lon="12.322977047723276"><ele>72.0</ele><time>2026-04-06T10:14:10Z</time></trkpt><trkpt lat="45.914143134546634" lon="12.323146323940742"><ele>72.5</ele><time>2026-04-06T10:14:11Z</time></trkpt><trkpt lat="45.91380564238705" lon="12.323319540354758"><ele>73.0</ele><time>2026-04-06T10:14:12Z</time></trkpt><trkpt lat="45.91349031571028" lon="12.323459442605419"><ele>72.0</ele><time>2026-04-06T10:14:13Z</time></trkpt><trkpt lat="45.9132308297219" lon="12.323591016885034"><ele>71.0</ele><time>2026-04-06T10:14:14Z</time></trkpt><trkpt lat="45.91298910816239" lon="12.32373267850867"><ele>71.0</ele><time>2026-04-06T10:14:15Z</time></trkpt><trkpt lat="45.91275814196721" lon="12.323844165790103"><ele>71.0</ele><time>2026-04-06T10:14:16Z</time></trkpt><trkpt lat="45.912523482066206" lon="12.323961635423393"><ele>71.5</ele><time>2026-04-06T10:14:17Z</time></trkpt><trkpt lat="45.91228538964612" lon="12.324088149081105"><ele>72.0</ele><time>2026-04-06T10:14:18Z</time></trkpt><trkpt lat="45.91205901594491" lon="12.324200817751283"><ele>72.0</ele><time>2026-04-06T10:14:19Z</time></trkpt><trkpt lat="45.91184841468944" lon="12.324307159203316"><ele>72.0</ele><time>2026-04-06T10:14:20Z</time></trkpt><trkpt lat="45.911637834209316" lon="12.324418434983725"><ele>72.0</ele><time>2026-04-06T10:14:21Z</time></trkpt><trkpt lat="45.91142789759673" lon="12.32452684860751"><ele>71.5</ele><time>2026-04-06T10:14:22Z</time></trkpt><trkpt lat="45.911219200591866" lon="12.324625441551664"><ele>71.0</ele><time>2026-04-06T10:14:23Z</time></trkpt><trkpt lat="45.910999624137645" lon="12.324750578558545"><ele>70.0</ele><time>2026-04-06T10:14:24Z</time></trkpt><trkpt lat="45.910746272080246" lon="12.324891690652365"><ele>69.0</ele><time>2026-04-06T10:14:25Z</time></trkpt><trkpt lat="45.9104654544979" lon="12.325015786163634"><ele>69.0</ele><time>2026-04-06T10:14:26Z</time></trkpt><trkpt lat="45.910159826489526" lon="12.325157268176227"><ele>69.0</ele><time>2026-04-06T10:14:27Z</time></trkpt><trkpt lat="45.90987125533406" lon="12.32530670170514"><ele>69.0</ele><time>2026-04-06T10:14:28Z</time></trkpt><trkpt lat="45.90959970208943" lon="12.325443026126523"><ele>69.0</ele><time>2026-04-06T10:14:29Z</time></trkpt><trkpt lat="45.9093058180676" lon="12.325586431106915"><ele>69.5</ele><time>2026-04-06T10:14:30Z</time></trkpt><trkpt lat="45.90899528714944" lon="12.325746424401352"><ele>70.0</ele><time>2026-04-06T10:14:31Z</time></trkpt><trkpt lat="45.908677060004585" lon="12.325910636888587"><ele>69.0</ele><time>2026-04-06T10:14:32Z</time></trkpt><trkpt lat="45.90835354983422" lon="12.326080168815386"><ele>68.0</ele><time>2026-04-06T10:14:33Z</time></trkpt><trkpt lat="45.90802900043783" lon="12.326248980022763"><ele>67.0</ele><time>2026-04-06T10:14:34Z</time></trkpt><trkpt lat="45.90770274437177" lon="12.326410320645707"><ele>66.0</ele><time>2026-04-06T10:14:35Z</time></trkpt><trkpt lat="45.90738090220151" lon="12.326571472342827"><ele>66.0</ele><time>2026-04-06T10:14:36Z</time></trkpt><trkpt lat="45.90706836207852" lon="12.326729308249142"><ele>66.0</ele><time>2026-04-06T10:14:37Z</time></trkpt><trkpt lat="45.90678398003098" lon="12.32687265556238"><ele>67.0</ele><time>2026-04-06T10:14:38Z</time></trkpt><trkpt lat="45.90652042036868" lon="12.327007519647843"><ele>68.0</ele><time>2026-04-06T10:14:39Z</time></trkpt><trkpt lat="45.90626305368815" lon="12.327132311839733"><ele>68.0</ele><time>2026-04-06T10:14:40Z</time></trkpt><trkpt lat="45.90600121393783" lon="12.327262810973053"><ele>68.0</ele><time>2026-04-06T10:14:41Z</time></trkpt><trkpt lat="45.90574070133223" lon="12.327400050797856"><ele>67.0</ele><time>2026-04-06T10:14:42Z</time></trkpt><trkpt lat="45.90563867531244" lon="12.328121324560485"><ele>67.0</ele><time>2026-04-06T10:14:43Z</time></trkpt><trkpt lat="45.90537753859026" lon="12.32823401062713"><ele>67.0</ele><time>2026-04-06T10:14:44Z</time></trkpt><trkpt lat="45.90513886379881" lon="12.328332633674727"><ele>66.0</ele><time>2026-04-06T10:14:45Z</time></trkpt><trkpt lat="45.9047737544364" lon="12.32789391421904"><ele>66.0</ele><time>2026-04-06T10:14:46Z</time></trkpt><trkpt lat="45.90456793307207" lon="12.327995199809452"><ele>66.0</ele><time>2026-04-06T10:14:47Z</time></trkpt><trkpt lat="45.90436978432312" lon="12.328091168737268"><ele>66.0</ele><time>2026-04-06T10:14:48Z</time></trkpt><trkpt lat="45.90417823375197" lon="12.328189262164429"><ele>65.33333333333333</ele><time>2026-04-06T10:14:49Z</time></trkpt><trkpt lat="45.903992786731855" lon="12.328282812402795"><ele>64.66666666666666</ele><time>2026-04-06T10:14:50Z</time></trkpt><trkpt lat="45.903815749789864" lon="12.328370533583131"><ele>64.0</ele><time>2026-04-06T10:14:51Z</time></trkpt><trkpt lat="45.903650853071234" lon="12.328454173485008"><ele>64.0</ele><time>2026-04-06T10:14:52Z</time></trkpt><trkpt lat="45.903494130838574" lon="12.32853394113746"><ele>64.0</ele><time>2026-04-06T10:14:53Z</time></trkpt><trkpt lat="45.90334501352808" lon="12.328604939907802"><ele>64.0</ele><time>2026-04-06T10:14:54Z</time></trkpt><trkpt lat="45.903208140125706" lon="12.328672812898795"><ele>64.0</ele><time>2026-04-06T10:14:55Z</time></trkpt><trkpt lat="45.90308201766935" lon="12.328736344843069"><ele>64.0</ele><time>2026-04-06T10:14:56Z</time></trkpt><trkpt lat="45.90296403637762" lon="12.328793440080192"><ele>64.0</ele><time>2026-04-06T10:14:57Z</time></trkpt><trkpt lat="45.9028506579971" lon="12.328849298415394"><ele>64.0</ele><time>2026-04-06T10:14:58Z</time></trkpt><trkpt lat="45.90274807835695" lon="12.328906399073302"><ele>63.99999999999999</ele><time>2026-04-06T10:14:59Z</time></trkpt><trkpt lat="45.90265189700101" lon="12.328958470704253"><ele>64.0</ele><time>2026-04-06T10:15:00Z</time></trkpt><trkpt lat="45.90256292674975" lon="12.329002422260327"><ele>64.0</ele><time>2026-04-06T10:15:01Z</time></trkpt><trkpt lat="45.90248349719019" lon="12.329042053175419"><ele>64.0</ele><time>2026-04-06T10:15:02Z</time></trkpt><trkpt lat="45.902405979037646" lon="12.32908208864899"><ele>63.99999999999999</ele><time>2026-04-06T10:15:03Z</time></trkpt><trkpt lat="45.90233534756942" lon="12.329120887714465"><ele>64.0</ele><time>2026-04-06T10:15:04Z</time></trkpt><trkpt lat="45.90227386094824" lon="12.329153410924574"><ele>63.49999999999999</ele><time>2026-04-06T10:15:05Z</time></trkpt><trkpt lat="45.9021663324693" lon="12.329213118002544"><ele>63.0</ele><time>2026-04-06T10:15:07Z</time></trkpt><trkpt lat="45.90209953936131" lon="12.329262714586154"><ele>62.5</ele><time>2026-04-06T10:15:09Z</time></trkpt><trkpt lat="45.902015607356" lon="12.329318339574733"><ele>62.0</ele><time>2026-04-06T10:15:12Z</time></trkpt><trkpt lat="45.90195234909909" lon="12.329335840004948"><ele>61.49999999999999</ele><time>2026-04-06T10:15:15Z</time></trkpt><trkpt lat="45.90186319319365" lon="12.329399861635766"><ele>61.0</ele><time>2026-04-06T10:16:46Z</time></trkpt><trkpt lat="45.90178449585706" lon="12.329459796084057"><ele>60.75</ele><time>2026-04-06T10:16:47Z</time></trkpt><trkpt lat="45.901711405777824" lon="12.329529329489377"><ele>60.5</ele><time>2026-04-06T10:16:48Z</time></trkpt><trkpt lat="45.901625901371865" lon="12.329617974260463"><ele>60.25</ele><time>2026-04-06T10:16:49Z</time></trkpt><trkpt lat="45.90151788436243" lon="12.32973146675304"><ele>60.0</ele><time>2026-04-06T10:16:50Z</time></trkpt><trkpt lat="45.90138969877526" lon="12.329868045965434"><ele>60.0</ele><time>2026-04-06T10:16:51Z</time></trkpt><trkpt lat="45.90126361486961" lon="12.330003768896667"><ele>60.0</ele><time>2026-04-06T10:16:52Z</time></trkpt><trkpt lat="45.901124306049624" lon="12.330163909032876"><ele>60.0</ele><time>2026-04-06T10:16:53Z</time></trkpt><trkpt lat="45.90097145412373" lon="12.33033885036046"><ele>60.66666666666667</ele><time>2026-04-06T10:16:54Z</time></trkpt><trkpt lat="45.9008065557149" lon="12.330517789753106"><ele>61.333333333333336</ele><time>2026-04-06T10:16:55Z</time></trkpt><trkpt lat="45.90064770992178" lon="12.330693913419275"><ele>62.0</ele><time>2026-04-06T10:16:56Z</time></trkpt><trkpt lat="45.900486392178195" lon="12.330873807737493"><ele>62.333333333333336</ele><time>2026-04-06T10:16:57Z</time></trkpt><trkpt lat="45.90033543180919" lon="12.33103792709913"><ele>62.66666666666667</ele><time>2026-04-06T10:16:58Z</time></trkpt><trkpt lat="45.90019572937488" lon="12.331194965734337"><ele>63.0</ele><time>2026-04-06T10:16:59Z</time></trkpt><trkpt lat="45.900066363996736" lon="12.331345990184438"><ele>61.75</ele><time>2026-04-06T10:17:00Z</time></trkpt><trkpt lat="45.89994051511557" lon="12.331481200080741"><ele>60.5</ele><time>2026-04-06T10:17:01Z</time></trkpt><trkpt lat="45.899818799514854" lon="12.331597259222518"><ele>59.25</ele><time>2026-04-06T10:17:02Z</time></trkpt><trkpt lat="45.89969970391659" lon="12.331692302293163"><ele>58.0</ele><time>2026-04-06T10:17:03Z</time></trkpt><trkpt lat="45.89957940845145" lon="12.33176301744575"><ele>58.0</ele><time>2026-04-06T10:17:04Z</time></trkpt><trkpt lat="45.899444894527726" lon="12.331828334432865"><ele>58.0</ele><time>2026-04-06T10:17:05Z</time></trkpt><trkpt lat="45.89930444370083" lon="12.331878203985582"><ele>58.0</ele><time>2026-04-06T10:17:06Z</time></trkpt><trkpt lat="45.899161817321335" lon="12.331905905247346"><ele>58.0</ele><time>2026-04-06T10:17:07Z</time></trkpt><trkpt lat="45.899016897141514" lon="12.331918166231567"><ele>58.0</ele><time>2026-04-06T10:17:08Z</time></trkpt><trkpt lat="45.898868251483094" lon="12.331898485548793"><ele>58.0</ele><time>2026-04-06T10:17:09Z</time></trkpt><trkpt lat="45.89871967937432" lon="12.331849264192696"><ele>58.0</ele><time>2026-04-06T10:17:10Z</time></trkpt><trkpt lat="45.89856678479144" lon="12.33176594457075"><ele>59.33333333333333</ele><time>2026-04-06T10:17:11Z</time></trkpt><trkpt lat="45.89839440653128" lon="12.33167459919876"><ele>60.66666666666667</ele><time>2026-04-06T10:17:12Z</time></trkpt><trkpt lat="45.898206809348146" lon="12.331573506594141"><ele>62.0</ele><time>2026-04-06T10:17:13Z</time></trkpt><trkpt lat="45.898008684884246" lon="12.331448690858203"><ele>61.333333333333336</ele><time>2026-04-06T10:17:14Z</time></trkpt><trkpt lat="45.89780415528275" lon="12.331323672038348"><ele>60.66666666666667</ele><time>2026-04-06T10:17:15Z</time></trkpt><trkpt lat="45.897608777200915" lon="12.331207454980776"><ele>60.0</ele><time>2026-04-06T10:17:16Z</time></trkpt><trkpt lat="45.89742298900873" lon="12.331061559348436"><ele>60.0</ele><time>2026-04-06T10:17:17Z</time></trkpt><trkpt lat="45.89722377433749" lon="12.330932496955196"><ele>60.0</ele><time>2026-04-06T10:17:18Z</time></trkpt><trkpt lat="45.897017061918895" lon="12.330798769957745"><ele>60.0</ele><time>2026-04-06T10:17:19Z</time></trkpt><trkpt lat="45.896797443739665" lon="12.330655831384682"><ele>58.5</ele><time>2026-04-06T10:17:20Z</time></trkpt><trkpt lat="45.89653060233468" lon="12.33049367981396"><ele>57.0</ele><time>2026-04-06T10:17:21Z</time></trkpt><trkpt lat="45.89628113777489" lon="12.33032756494482"><ele>57.0</ele><time>2026-04-06T10:17:22Z</time></trkpt><trkpt lat="45.89601193044682" lon="12.33016068614054"><ele>57.0</ele><time>2026-04-06T10:17:23Z</time></trkpt><trkpt lat="45.89574534873861" lon="12.329988040189837"><ele>56.5</ele><time>2026-04-06T10:17:24Z</time></trkpt><trkpt lat="45.895487031860824" lon="12.3298170903795"><ele>56.0</ele><time>2026-04-06T10:17:25Z</time></trkpt><trkpt lat="45.89522453315792" lon="12.329644409992127"><ele>56.5</ele><time>2026-04-06T10:17:26Z</time></trkpt><trkpt lat="45.89496042332328" lon="12.329477005628902"><ele>57.0</ele><time>2026-04-06T10:17:27Z</time></trkpt><trkpt lat="45.894709314588965" lon="12.329314649636045"><ele>57.0</ele><time>2026-04-06T10:17:28Z</time></trkpt><trkpt lat="45.894475222772456" lon="12.329163628753944"><ele>57.0</ele><time>2026-04-06T10:17:29Z</time></trkpt><trkpt lat="45.89425735020192" lon="12.329023978743676"><ele>56.0</ele><time>2026-04-06T10:17:30Z</time></trkpt><trkpt lat="45.89404881229548" lon="12.328882025094419"><ele>55.0</ele><time>2026-04-06T10:17:31Z</time></trkpt><trkpt lat="45.89383033428758" lon="12.328721437032652"><ele>55.0</ele><time>2026-04-06T10:17:32Z</time></trkpt><trkpt lat="45.8936087593457" lon="12.328537327364902"><ele>55.0</ele><time>2026-04-06T10:17:33Z</time></trkpt><trkpt lat="45.8933932584526" lon="12.328350506591311"><ele>55.0</ele><time>2026-04-06T10:17:34Z</time></trkpt><trkpt lat="45.893175828582805" lon="12.3281591259782"><ele>55.0</ele><time>2026-04-06T10:17:35Z</time></trkpt><trkpt lat="45.89296574338686" lon="12.327952226118256"><ele>55.0</ele><time>2026-04-06T10:17:36Z</time></trkpt><trkpt lat="45.89274963490715" lon="12.327732660865133"><ele>55.0</ele><time>2026-04-06T10:17:37Z</time></trkpt><trkpt lat="45.89253492760456" lon="12.32750583057428"><ele>55.0</ele><time>2026-04-06T10:17:38Z</time></trkpt><trkpt lat="45.89232580049944" lon="12.32726790043099"><ele>55.0</ele><time>2026-04-06T10:17:39Z</time></trkpt><trkpt lat="45.89212431742984" lon="12.32704412903708"><ele>55.0</ele><time>2026-04-06T10:17:40Z</time></trkpt><trkpt lat="45.89192857283218" lon="12.326831847856441"><ele>55.0</ele><time>2026-04-06T10:17:41Z</time></trkpt><trkpt lat="45.89173787372299" lon="12.326624115441904"><ele>54.0</ele><time>2026-04-06T10:17:42Z</time></trkpt><trkpt lat="45.89154432627469" lon="12.326409794396506"><ele>53.0</ele><time>2026-04-06T10:17:43Z</time></trkpt><trkpt lat="45.89135112642852" lon="12.326187984287069"><ele>52.5</ele><time>2026-04-06T10:17:44Z</time></trkpt><trkpt lat="45.891152518180895" lon="12.32596644157649"><ele>52.0</ele><time>2026-04-06T10:17:45Z</time></trkpt><trkpt lat="45.89094946683152" lon="12.32575356222832"><ele>53.0</ele><time>2026-04-06T10:17:46Z</time></trkpt><trkpt lat="45.89076184493997" lon="12.325549374867661"><ele>54.0</ele><time>2026-04-06T10:17:47Z</time></trkpt><trkpt lat="45.89058706022811" lon="12.325354096437467"><ele>54.0</ele><time>2026-04-06T10:17:48Z</time></trkpt><trkpt lat="45.89041809190748" lon="12.325162736460925"><ele>54.0</ele><time>2026-04-06T10:17:49Z</time></trkpt><trkpt lat="45.89025023675786" lon="12.324979390925725"><ele>54.0</ele><time>2026-04-06T10:17:50Z</time></trkpt><trkpt lat="45.89009037006397" lon="12.324803090676347"><ele>54.0</ele><time>2026-04-06T10:17:51Z</time></trkpt><trkpt lat="45.88992767273939" lon="12.324622791916392"><ele>54.0</ele><time>2026-04-06T10:17:52Z</time></trkpt><trkpt lat="45.88976501523118" lon="12.324447965119685"><ele>54.0</ele><time>2026-04-06T10:17:53Z</time></trkpt><trkpt lat="45.88960730697247" lon="12.32426945761964"><ele>54.0</ele><time>2026-04-06T10:17:54Z</time></trkpt><trkpt lat="45.88946349590796" lon="12.32410208389444"><ele>54.0</ele><time>2026-04-06T10:17:55Z</time></trkpt><trkpt lat="45.889327008764894" lon="12.32393991683588"><ele>54.0</ele><time>2026-04-06T10:17:56Z</time></trkpt><trkpt lat="45.88918809391342" lon="12.323772213931324"><ele>54.0</ele><time>2026-04-06T10:17:57Z</time></trkpt><trkpt lat="45.88904324971673" lon="12.323588271487088"><ele>54.0</ele><time>2026-04-06T10:17:58Z</time></trkpt><trkpt lat="45.888894258410446" lon="12.323408308114624"><ele>54.0</ele><time>2026-04-06T10:17:59Z</time></trkpt><trkpt lat="45.88874464143885" lon="12.323210164169138"><ele>54.33333333333333</ele><time>2026-04-06T10:18:00Z</time></trkpt><trkpt lat="45.88859108938605" lon="12.323015161297189"><ele>54.666666666666664</ele><time>2026-04-06T10:18:01Z</time></trkpt><trkpt lat="45.88843654294644" lon="12.32282974495065"><ele>55.0</ele><time>2026-04-06T10:18:02Z</time></trkpt><trkpt lat="45.88828240338208" lon="12.322639439692182"><ele>55.0</ele><time>2026-04-06T10:18:03Z</time></trkpt><trkpt lat="45.88813033391785" lon="12.322446683534451"><ele>55.0</ele><time>2026-04-06T10:18:04Z</time></trkpt><trkpt lat="45.88797550115292" lon="12.322259639909491"><ele>55.0</ele><time>2026-04-06T10:18:05Z</time></trkpt><trkpt lat="45.887815985586336" lon="12.322056331803086"><ele>54.33333333333333</ele><time>2026-04-06T10:18:06Z</time></trkpt><trkpt lat="45.88766496588965" lon="12.321854349661344"><ele>53.66666666666667</ele><time>2026-04-06T10:18:07Z</time></trkpt><trkpt lat="45.88752547144033" lon="12.321684191004168"><ele>53.0</ele><time>2026-04-06T10:18:08Z</time></trkpt><trkpt lat="45.88741732547825" lon="12.321551848359881"><ele>52.75</ele><time>2026-04-06T10:18:09Z</time></trkpt><trkpt lat="45.887320870827175" lon="12.321435959321466"><ele>52.5</ele><time>2026-04-06T10:18:10Z</time></trkpt><trkpt lat="45.887209021257526" lon="12.321308574673399"><ele>52.25</ele><time>2026-04-06T10:18:11Z</time></trkpt><trkpt lat="45.88707447004273" lon="12.321140277961806"><ele>52.0</ele><time>2026-04-06T10:18:12Z</time></trkpt><trkpt lat="45.88692811696724" lon="12.320930206238916"><ele>52.0</ele><time>2026-04-06T10:18:13Z</time></trkpt><trkpt lat="45.88676163749401" lon="12.320706904140007"><ele>52.0</ele><time>2026-04-06T10:18:14Z</time></trkpt><trkpt lat="45.88656736016864" lon="12.320472796085804"><ele>52.0</ele><time>2026-04-06T10:18:15Z</time></trkpt><trkpt lat="45.88638627224976" lon="12.320251446872806"><ele>52.0</ele><time>2026-04-06T10:18:16Z</time></trkpt><trkpt lat="45.8861948062545" lon="12.320015621859104"><ele>52.0</ele><time>2026-04-06T10:18:17Z</time></trkpt><trkpt lat="45.88602613628031" lon="12.319808088499332"><ele>52.0</ele><time>2026-04-06T10:18:18Z</time></trkpt><trkpt lat="45.88582726571028" lon="12.319576070230282"><ele>51.5</ele><time>2026-04-06T10:18:19Z</time></trkpt><trkpt lat="45.88561988351976" lon="12.31933322990344"><ele>51.0</ele><time>2026-04-06T10:18:20Z</time></trkpt><trkpt lat="45.88541409960781" lon="12.319092184154934"><ele>51.0</ele><time>2026-04-06T10:18:21Z</time></trkpt><trkpt lat="45.885224582693546" lon="12.318873679548862"><ele>51.0</ele><time>2026-04-06T10:18:22Z</time></trkpt><trkpt lat="45.88503053088879" lon="12.318648363808892"><ele>51.0</ele><time>2026-04-06T10:18:23Z</time></trkpt><trkpt lat="45.88485175506375" lon="12.318422597505254"><ele>51.0</ele><time>2026-04-06T10:18:24Z</time></trkpt><trkpt lat="45.88468170879353" lon="12.318217408923106"><ele>50.66666666666667</ele><time>2026-04-06T10:18:25Z</time></trkpt><trkpt lat="45.884516207777324" lon="12.318026894621923"><ele>50.333333333333336</ele><time>2026-04-06T10:18:26Z</time></trkpt><trkpt lat="45.88436250723347" lon="12.31784996271651"><ele>50.0</ele><time>2026-04-06T10:18:27Z</time></trkpt><trkpt lat="45.884225156946705" lon="12.317673959536796"><ele>50.0</ele><time>2026-04-06T10:18:28Z</time></trkpt><trkpt lat="45.884097336775774" lon="12.317507994591153"><ele>50.0</ele><time>2026-04-06T10:18:29Z</time></trkpt><trkpt lat="45.883978373428334" lon="12.317373028933424"><ele>50.0</ele><time>2026-04-06T10:18:30Z</time></trkpt><trkpt lat="45.883875687991484" lon="12.317252300206006"><ele>50.2</ele><time>2026-04-06T10:18:31Z</time></trkpt><trkpt lat="45.883797306802734" lon="12.317131680568941"><ele>50.4</ele><time>2026-04-06T10:18:32Z</time></trkpt><trkpt lat="45.8837394131176" lon="12.31698758748074"><ele>50.599999999999994</ele><time>2026-04-06T10:18:33Z</time></trkpt><trkpt lat="45.8837127732627" lon="12.316826528349917"><ele>50.8</ele><time>2026-04-06T10:18:34Z</time></trkpt><trkpt lat="45.883676930040345" lon="12.316695210991663"><ele>51.0</ele><time>2026-04-06T10:18:35Z</time></trkpt><trkpt lat="45.883583861995014" lon="12.316625932961832"><ele>51.0</ele><time>2026-04-06T10:18:36Z</time></trkpt><trkpt lat="45.88346821696177" lon="12.316603407345369"><ele>51.0</ele><time>2026-04-06T10:18:37Z</time></trkpt><trkpt lat="45.88334049769271" lon="12.316590407621439"><ele>51.0</ele><time>2026-04-06T10:18:38Z</time></trkpt><trkpt lat="45.883223319795206" lon="12.31651824459394"><ele>51.0</ele><time>2026-04-06T10:18:39Z</time></trkpt><trkpt lat="45.88310750128268" lon="12.31639858154922"><ele>50.66666666666667</ele><time>2026-04-06T10:18:40Z</time></trkpt><trkpt lat="45.88297509508693" lon="12.316255473478726"><ele>50.333333333333336</ele><time>2026-04-06T10:18:41Z</time></trkpt><trkpt lat="45.882826362783504" lon="12.316083750876926"><ele>50.0</ele><time>2026-04-06T10:18:42Z</time></trkpt><trkpt lat="45.8826870642785" lon="12.315908564143513"><ele>50.66666666666667</ele><time>2026-04-06T10:18:43Z</time></trkpt><trkpt lat="45.882545850354504" lon="12.31575963558956"><ele>51.33333333333333</ele><time>2026-04-06T10:18:44Z</time></trkpt><trkpt lat="45.88239523213588" lon="12.31558400901648"><ele>52.0</ele><time>2026-04-06T10:18:45Z</time></trkpt><trkpt lat="45.8822438494366" lon="12.315395821788337"><ele>52.0</ele><time>2026-04-06T10:18:46Z</time></trkpt><trkpt lat="45.88208770313393" lon="12.31521780421839"><ele>52.0</ele><time>2026-04-06T10:18:47Z</time></trkpt><trkpt lat="45.881917380672476" lon="12.315021256174983"><ele>52.0</ele><time>2026-04-06T10:18:48Z</time></trkpt><trkpt lat="45.88174652249199" lon="12.314795825006694"><ele>51.666666666666664</ele><time>2026-04-06T10:18:49Z</time></trkpt><trkpt lat="45.88156882228961" lon="12.314601109784876"><ele>51.33333333333333</ele><time>2026-04-06T10:18:50Z</time></trkpt><trkpt lat="45.88139750960511" lon="12.314411414735693"><ele>51.0</ele><time>2026-04-06T10:18:51Z</time></trkpt><trkpt lat="45.88122441022662" lon="12.31420695871723"><ele>51.0</ele><time>2026-04-06T10:18:52Z</time></trkpt><trkpt lat="45.88105719490567" lon="12.31400257507435"><ele>51.0</ele><time>2026-04-06T10:18:53Z</time></trkpt><trkpt lat="45.880900902339" lon="12.313812691653634"><ele>51.0</ele><time>2026-04-06T10:18:54Z</time></trkpt><trkpt lat="45.8807580947546" lon="12.313640048993937"><ele>51.0</ele><time>2026-04-06T10:18:55Z</time></trkpt><trkpt lat="45.88062551359669" lon="12.313486248887887"><ele>51.0</ele><time>2026-04-06T10:18:56Z</time></trkpt><trkpt lat="45.880506785085885" lon="12.313346309373488"><ele>51.0</ele><time>2026-04-06T10:18:57Z</time></trkpt><trkpt lat="45.880413768568346" lon="12.313208282542854"><ele>51.0</ele><time>2026-04-06T10:18:58Z</time></trkpt><trkpt lat="45.88034492527363" lon="12.313084374800365"><ele>51.0</ele><time>2026-04-06T10:18:59Z</time></trkpt><trkpt lat="45.88029145110642" lon="12.312960550239458"><ele>51.0</ele><time>2026-04-06T10:19:00Z</time></trkpt><trkpt lat="45.88025242538747" lon="12.312835169977733"><ele>51.0</ele><time>2026-04-06T10:19:01Z</time></trkpt><trkpt lat="45.88023721516872" lon="12.31270074889561"><ele>51.0</ele><time>2026-04-06T10:19:02Z</time></trkpt><trkpt lat="45.88023424929854" lon="12.31255592076597"><ele>51.0</ele><time>2026-04-06T10:19:03Z</time></trkpt><trkpt lat="45.880197852933875" lon="12.312421979751077"><ele>51.0</ele><time>2026-04-06T10:19:04Z</time></trkpt><trkpt lat="45.8801226423851" lon="12.312321975466785"><ele>51.0</ele><time>2026-04-06T10:19:05Z</time></trkpt><trkpt lat="45.88002753983219" lon="12.312258488426249"><ele>51.0</ele><time>2026-04-06T10:19:06Z</time></trkpt><trkpt lat="45.87992251322898" lon="12.312210533188733"><ele>51.0</ele><time>2026-04-06T10:19:07Z</time></trkpt><trkpt lat="45.8798125684985" lon="12.312116662469828"><ele>51.0</ele><time>2026-04-06T10:19:08Z</time></trkpt><trkpt lat="45.87971239810286" lon="12.311966139921797"><ele>51.0</ele><time>2026-04-06T10:19:09Z</time></trkpt><trkpt lat="45.87959597628447" lon="12.311785290682979"><ele>51.0</ele><time>2026-04-06T10:19:10Z</time></trkpt><trkpt lat="45.87949655651757" lon="12.3116053936174"><ele>51.0</ele><time>2026-04-06T10:19:11Z</time></trkpt><trkpt lat="45.879426896541766" lon="12.311433697699997"><ele>51.0</ele><time>2026-04-06T10:19:12Z</time></trkpt><trkpt lat="45.87938503214529" lon="12.311272699025933"><ele>51.0</ele><time>2026-04-06T10:19:13Z</time></trkpt><trkpt lat="45.879386088223356" lon="12.311102723636122"><ele>51.0</ele><time>2026-04-06T10:19:14Z</time></trkpt><trkpt lat="45.87941156148578" lon="12.310938597460257"><ele>51.0</ele><time>2026-04-06T10:19:15Z</time></trkpt><trkpt lat="45.879451161466505" lon="12.310791867304788"><ele>51.0</ele><time>2026-04-06T10:19:16Z</time></trkpt><trkpt lat="45.879455122150624" lon="12.310652152091205"><ele>51.0</ele><time>2026-04-06T10:19:17Z</time></trkpt><trkpt lat="45.87940838332735" lon="12.310530871436342"><ele>51.0</ele><time>2026-04-06T10:19:18Z</time></trkpt><trkpt lat="45.879334464136846" lon="12.310434492836906"><ele>51.0</ele><time>2026-04-06T10:19:19Z</time></trkpt><trkpt lat="45.87922981248334" lon="12.310361316282174"><ele>51.0</ele><time>2026-04-06T10:19:20Z</time></trkpt><trkpt lat="45.87912152260365" lon="12.31024867593899"><ele>51.0</ele><time>2026-04-06T10:19:21Z</time></trkpt><trkpt lat="45.87904329726087" lon="12.310062387440809"><ele>51.0</ele><time>2026-04-06T10:19:22Z</time></trkpt><trkpt lat="45.87897687614056" lon="12.309818565640862"><ele>51.33333333333333</ele><time>2026-04-06T10:19:23Z</time></trkpt><trkpt lat="45.878912335957395" lon="12.309528326960262"><ele>51.666666666666664</ele><time>2026-04-06T10:19:24Z</time></trkpt><trkpt lat="45.87885936691817" lon="12.309256017111966"><ele>52.0</ele><time>2026-04-06T10:19:25Z</time></trkpt><trkpt lat="45.87880743726774" lon="12.308982222127593"><ele>52.0</ele><time>2026-04-06T10:19:26Z</time></trkpt><trkpt lat="45.87873920083403" lon="12.308690912884689"><ele>52.0</ele><time>2026-04-06T10:19:27Z</time></trkpt><trkpt lat="45.87867861007565" lon="12.308376404600141"><ele>52.0</ele><time>2026-04-06T10:19:28Z</time></trkpt><trkpt lat="45.87861827074559" lon="12.308091473743055"><ele>52.0</ele><time>2026-04-06T10:19:29Z</time></trkpt><trkpt lat="45.8785563186474" lon="12.307807859257277"><ele>52.0</ele><time>2026-04-06T10:19:30Z</time></trkpt><trkpt lat="45.87853404791251" lon="12.3074882301785"><ele>52.0</ele><time>2026-04-06T10:19:31Z</time></trkpt><trkpt lat="45.87847506394422" lon="12.307181776731396"><ele>51.666666666666664</ele><time>2026-04-06T10:19:32Z</time></trkpt><trkpt lat="45.87841340008803" lon="12.306902166878107"><ele>51.33333333333333</ele><time>2026-04-06T10:19:33Z</time></trkpt><trkpt lat="45.87836353600479" lon="12.306638858836985"><ele>51.0</ele><time>2026-04-06T10:19:34Z</time></trkpt><trkpt lat="45.87832085053526" lon="12.306417120962976"><ele>51.25</ele><time>2026-04-06T10:19:35Z</time></trkpt><trkpt lat="45.87827975534819" lon="12.306216637282652"><ele>51.5</ele><time>2026-04-06T10:19:36Z</time></trkpt><trkpt lat="45.87824117138574" lon="12.306029718519957"><ele>51.75</ele><time>2026-04-06T10:19:37Z</time></trkpt><trkpt lat="45.878207611506646" lon="12.305830790196858"><ele>52.0</ele><time>2026-04-06T10:19:38Z</time></trkpt><trkpt lat="45.878167211407856" lon="12.305622213182623"><ele>52.0</ele><time>2026-04-06T10:19:39Z</time></trkpt><trkpt lat="45.87814083606111" lon="12.305431638432859"><ele>52.0</ele><time>2026-04-06T10:19:40Z</time></trkpt><trkpt lat="45.878107698278285" lon="12.3052569828915"><ele>52.0</ele><time>2026-04-06T10:19:41Z</time></trkpt><trkpt lat="45.87807675539844" lon="12.305093901741008"><ele>52.0</ele><time>2026-04-06T10:19:42Z</time></trkpt><trkpt lat="45.878044008310084" lon="12.304921306429573"><ele>52.0</ele><time>2026-04-06T10:19:43Z</time></trkpt><trkpt lat="45.87801118835964" lon="12.304748327097323"><ele>52.0</ele><time>2026-04-06T10:19:44Z</time></trkpt><trkpt lat="45.877978049825295" lon="12.30457803769065"><ele>52.0</ele><time>2026-04-06T10:19:45Z</time></trkpt><trkpt lat="45.87794407154701" lon="12.304403469497808"><ele>52.0</ele><time>2026-04-06T10:19:46Z</time></trkpt><trkpt lat="45.87790781049257" lon="12.304221185170212"><ele>52.5</ele><time>2026-04-06T10:19:47Z</time></trkpt><trkpt lat="45.87785830582806" lon="12.304053014354194"><ele>53.0</ele><time>2026-04-06T10:19:48Z</time></trkpt><trkpt lat="45.87783469022641" lon="12.303876173930151"><ele>53.5</ele><time>2026-04-06T10:19:49Z</time></trkpt><trkpt lat="45.87780698856059" lon="12.303696705355687"><ele>54.0</ele><time>2026-04-06T10:19:50Z</time></trkpt><trkpt lat="45.87777447618944" lon="12.303530197110838"><ele>54.0</ele><time>2026-04-06T10:19:51Z</time></trkpt><trkpt lat="45.877734739410855" lon="12.303355288104141"><ele>54.0</ele><time>2026-04-06T10:19:52Z</time></trkpt><trkpt lat="45.87768727223148" lon="12.303132751808175"><ele>54.0</ele><time>2026-04-06T10:19:53Z</time></trkpt><trkpt lat="45.87762377886271" lon="12.302880353293974"><ele>54.33333333333333</ele><time>2026-04-06T10:19:54Z</time></trkpt><trkpt lat="45.877581590021876" lon="12.302592738127169"><ele>54.666666666666664</ele><time>2026-04-06T10:19:55Z</time></trkpt><trkpt lat="45.87752734665225" lon="12.302290110125057"><ele>55.0</ele><time>2026-04-06T10:19:56Z</time></trkpt><trkpt lat="45.87745239598564" lon="12.30195731391882"><ele>55.0</ele><time>2026-04-06T10:19:57Z</time></trkpt><trkpt lat="45.87739780237886" lon="12.301668100369417"><ele>55.0</ele><time>2026-04-06T10:19:58Z</time></trkpt><trkpt lat="45.87734109759075" lon="12.30140801315439"><ele>55.0</ele><time>2026-04-06T10:19:59Z</time></trkpt><trkpt lat="45.877288964019854" lon="12.30116355975104"><ele>55.0</ele><time>2026-04-06T10:20:00Z</time></trkpt><trkpt lat="45.87724327303796" lon="12.300928153753047"><ele>55.0</ele><time>2026-04-06T10:20:01Z</time></trkpt><trkpt lat="45.877195434953606" lon="12.300681235248707"><ele>55.0</ele><time>2026-04-06T10:20:02Z</time></trkpt><trkpt lat="45.877137964072375" lon="12.300408290616957"><ele>55.0</ele><time>2026-04-06T10:20:03Z</time></trkpt><trkpt lat="45.87707904619951" lon="12.300099986787401"><ele>55.0</ele><time>2026-04-06T10:20:04Z</time></trkpt><trkpt lat="45.877019871028445" lon="12.29978760555993"><ele>55.0</ele><time>2026-04-06T10:20:05Z</time></trkpt><trkpt lat="45.87695448810874" lon="12.299478364962505"><ele>55.0</ele><time>2026-04-06T10:20:06Z</time></trkpt><trkpt lat="45.87690285759973" lon="12.299142794493758"><ele>55.0</ele><time>2026-04-06T10:20:07Z</time></trkpt><trkpt lat="45.87682232996866" lon="12.298811683148758"><ele>56.0</ele><time>2026-04-06T10:20:08Z</time></trkpt><trkpt lat="45.87676253068403" lon="12.298472926341958"><ele>57.0</ele><time>2026-04-06T10:20:09Z</time></trkpt><trkpt lat="45.876705594096954" lon="12.298164454044265"><ele>57.0</ele><time>2026-04-06T10:20:10Z</time></trkpt><trkpt lat="45.87663938916" lon="12.297868539379849"><ele>57.0</ele><time>2026-04-06T10:20:11Z</time></trkpt><trkpt lat="45.87658351384888" lon="12.297575902285812"><ele>57.0</ele><time>2026-04-06T10:20:12Z</time></trkpt><trkpt lat="45.87652922128372" lon="12.297298758086228"><ele>57.0</ele><time>2026-04-06T10:20:13Z</time></trkpt><trkpt lat="45.876478126302324" lon="12.297017203233123"><ele>57.0</ele><time>2026-04-06T10:20:14Z</time></trkpt><trkpt lat="45.87642998161892" lon="12.296762214196995"><ele>57.0</ele><time>2026-04-06T10:20:15Z</time></trkpt><trkpt lat="45.8763795605622" lon="12.29651943418929"><ele>56.66666666666667</ele><time>2026-04-06T10:20:16Z</time></trkpt><trkpt lat="45.87633590569084" lon="12.296290639876748"><ele>56.333333333333336</ele><time>2026-04-06T10:20:17Z</time></trkpt><trkpt lat="45.876290646902675" lon="12.296063886865598"><ele>56.0</ele><time>2026-04-06T10:20:18Z</time></trkpt><trkpt lat="45.876239829184485" lon="12.295824675370437"><ele>56.0</ele><time>2026-04-06T10:20:19Z</time></trkpt><trkpt lat="45.87619463320004" lon="12.295568694147882"><ele>56.0</ele><time>2026-04-06T10:20:20Z</time></trkpt><trkpt lat="45.876147147815196" lon="12.295316855581886"><ele>56.0</ele><time>2026-04-06T10:20:21Z</time></trkpt><trkpt lat="45.87609724698273" lon="12.295084267715424"><ele>56.0</ele><time>2026-04-06T10:20:22Z</time></trkpt><trkpt lat="45.87605658569345" lon="12.294873404135414"><ele>56.0</ele><time>2026-04-06T10:20:23Z</time></trkpt><trkpt lat="45.87602246949781" lon="12.294688899196224"><ele>56.0</ele><time>2026-04-06T10:20:24Z</time></trkpt><trkpt lat="45.87599406717746" lon="12.294531944953079"><ele>56.0</ele><time>2026-04-06T10:20:25Z</time></trkpt><trkpt lat="45.875984994944744" lon="12.294408819821466"><ele>56.333333333333336</ele><time>2026-04-06T10:20:26Z</time></trkpt><trkpt lat="45.8759863117283" lon="12.294309238663786"><ele>56.66666666666667</ele><time>2026-04-06T10:20:27Z</time></trkpt><trkpt lat="45.876002190851956" lon="12.294166568403702"><ele>57.0</ele><time>2026-04-06T10:20:29Z</time></trkpt><trkpt lat="45.87602230448391" lon="12.293986320493454"><ele>57.33333333333333</ele><time>2026-04-06T10:20:31Z</time></trkpt><trkpt lat="45.876003410916624" lon="12.293897465112721"><ele>57.666666666666664</ele><time>2026-04-06T10:20:32Z</time></trkpt><trkpt lat="45.87596146893361" lon="12.293817168634424"><ele>58.0</ele><time>2026-04-06T10:20:33Z</time></trkpt><trkpt lat="45.87590212573378" lon="12.293710708762594"><ele>57.25</ele><time>2026-04-06T10:20:34Z</time></trkpt><trkpt lat="45.87586739816356" lon="12.293576115002033"><ele>56.5</ele><time>2026-04-06T10:20:35Z</time></trkpt><trkpt lat="45.87585371060902" lon="12.293396874792101"><ele>55.75</ele><time>2026-04-06T10:20:36Z</time></trkpt><trkpt lat="45.875848190580264" lon="12.293155420422892"><ele>55.0</ele><time>2026-04-06T10:20:37Z</time></trkpt><trkpt lat="45.87584258916432" lon="12.29288386465277"><ele>55.0</ele><time>2026-04-06T10:20:38Z</time></trkpt><trkpt lat="45.8758348827553" lon="12.29261671542607"><ele>55.0</ele><time>2026-04-06T10:20:39Z</time></trkpt><trkpt lat="45.875838199028586" lon="12.292326568852523"><ele>55.0</ele><time>2026-04-06T10:20:40Z</time></trkpt><trkpt lat="45.875817103654576" lon="12.292059109072659"><ele>54.75</ele><time>2026-04-06T10:20:41Z</time></trkpt><trkpt lat="45.875815751935164" lon="12.291834188205602"><ele>54.5</ele><time>2026-04-06T10:20:42Z</time></trkpt><trkpt lat="45.87580933021424" lon="12.291623511867645"><ele>54.25</ele><time>2026-04-06T10:20:43Z</time></trkpt><trkpt lat="45.87581298477714" lon="12.291416256210965"><ele>54.0</ele><time>2026-04-06T10:20:44Z</time></trkpt><trkpt lat="45.8758045692213" lon="12.291190573152846"><ele>54.0</ele><time>2026-04-06T10:20:45Z</time></trkpt><trkpt lat="45.87578701317714" lon="12.290936663114959"><ele>54.0</ele><time>2026-04-06T10:20:46Z</time></trkpt><trkpt lat="45.87578050735143" lon="12.29068231724721"><ele>54.0</ele><time>2026-04-06T10:20:47Z</time></trkpt><trkpt lat="45.875780027757386" lon="12.290433892651768"><ele>54.0</ele><time>2026-04-06T10:20:48Z</time></trkpt><trkpt lat="45.87577303641762" lon="12.290213811123126"><ele>54.0</ele><time>2026-04-06T10:20:49Z</time></trkpt><trkpt lat="45.87576221472472" lon="12.289988025353114"><ele>54.0</ele><time>2026-04-06T10:20:50Z</time></trkpt><trkpt lat="45.87575185718389" lon="12.289759242077801"><ele>55.0</ele><time>2026-04-06T10:20:51Z</time></trkpt><trkpt lat="45.875738434208756" lon="12.28950646153398"><ele>56.0</ele><time>2026-04-06T10:20:52Z</time></trkpt><trkpt lat="45.87571309568316" lon="12.28922602631338"><ele>57.0</ele><time>2026-04-06T10:20:53Z</time></trkpt><trkpt lat="45.87571134042499" lon="12.288900118202369"><ele>57.0</ele><time>2026-04-06T10:20:54Z</time></trkpt><trkpt lat="45.875716886973095" lon="12.28855316655487"><ele>57.0</ele><time>2026-04-06T10:20:55Z</time></trkpt><trkpt lat="45.87569827003641" lon="12.288215587877877"><ele>56.0</ele><time>2026-04-06T10:20:56Z</time></trkpt><trkpt lat="45.87567430181839" lon="12.287877793790502"><ele>55.0</ele><time>2026-04-06T10:20:57Z</time></trkpt><trkpt lat="45.87566597044246" lon="12.287539063980898"><ele>55.33333333333333</ele><time>2026-04-06T10:20:58Z</time></trkpt><trkpt lat="45.87566173709099" lon="12.287215696523777"><ele>55.66666666666667</ele><time>2026-04-06T10:20:59Z</time></trkpt><trkpt lat="45.87564943320559" lon="12.2869018447715"><ele>56.0</ele><time>2026-04-06T10:21:00Z</time></trkpt><trkpt lat="45.87562108303683" lon="12.286586638384215"><ele>56.333333333333336</ele><time>2026-04-06T10:21:01Z</time></trkpt><trkpt lat="45.875584114593224" lon="12.286297263183416"><ele>56.66666666666667</ele><time>2026-04-06T10:21:02Z</time></trkpt><trkpt lat="45.87554148347548" lon="12.286017465334545"><ele>57.0</ele><time>2026-04-06T10:21:03Z</time></trkpt><trkpt lat="45.8754786626957" lon="12.285724045243022"><ele>57.66666666666667</ele><time>2026-04-06T10:21:04Z</time></trkpt><trkpt lat="45.875414946556866" lon="12.285436519284998"><ele>58.333333333333336</ele><time>2026-04-06T10:21:05Z</time></trkpt><trkpt lat="45.875361249204154" lon="12.285170745182993"><ele>59.0</ele><time>2026-04-06T10:21:06Z</time></trkpt><trkpt lat="45.875307089264425" lon="12.284924138171789"><ele>58.25</ele><time>2026-04-06T10:21:07Z</time></trkpt><trkpt lat="45.87526720744195" lon="12.28470380396858"><ele>57.5</ele><time>2026-04-06T10:21:08Z</time></trkpt><trkpt lat="45.87523045040128" lon="12.28451101930051"><ele>56.75</ele><time>2026-04-06T10:21:09Z</time></trkpt><trkpt lat="45.875193646815134" lon="12.284342595308233"><ele>56.0</ele><time>2026-04-06T10:21:10Z</time></trkpt><trkpt lat="45.87516407632842" lon="12.284193066750989"><ele>56.00000000000001</ele><time>2026-04-06T10:21:11Z</time></trkpt><trkpt lat="45.87515066932232" lon="12.284065891144976"><ele>56.0</ele><time>2026-04-06T10:21:12Z</time></trkpt><trkpt lat="45.875154107101835" lon="12.283974373092827"><ele>56.0</ele><time>2026-04-06T10:21:13Z</time></trkpt><trkpt lat="45.875187090722804" lon="12.283813728266345"><ele>56.0</ele><time>2026-04-06T10:21:15Z</time></trkpt><trkpt lat="45.875225027573286" lon="12.283716876853193"><ele>56.00000000000001</ele><time>2026-04-06T10:21:16Z</time></trkpt><trkpt lat="45.875249205797566" lon="12.283628311693574"><ele>56.0</ele><time>2026-04-06T10:21:17Z</time></trkpt><trkpt lat="45.87521174455132" lon="12.283461620915036"><ele>56.0</ele><time>2026-04-06T10:21:19Z</time></trkpt><trkpt lat="45.8751649282814" lon="12.283376658321135"><ele>56.0</ele><time>2026-04-06T10:21:20Z</time></trkpt><trkpt lat="45.87508357313932" lon="12.283265902218542"><ele>56.0</ele><time>2026-04-06T10:21:21Z</time></trkpt><trkpt lat="45.874974659788194" lon="12.283129502777232"><ele>56.0</ele><time>2026-04-06T10:21:22Z</time></trkpt><trkpt lat="45.8748727101179" lon="12.282946722016828"><ele>56.5</ele><time>2026-04-06T10:21:23Z</time></trkpt><trkpt lat="45.87479303184079" lon="12.282782079029017"><ele>57.0</ele><time>2026-04-06T10:21:24Z</time></trkpt><trkpt lat="45.874706389480394" lon="12.282672251334338"><ele>57.5</ele><time>2026-04-06T10:21:25Z</time></trkpt><trkpt lat="45.874603164988294" lon="12.282570527880623"><ele>58.0</ele><time>2026-04-06T10:21:26Z</time></trkpt><trkpt lat="45.874513103401284" lon="12.282422206680394"><ele>58.0</ele><time>2026-04-06T10:21:27Z</time></trkpt><trkpt lat="45.87439214592271" lon="12.282294716603117"><ele>58.0</ele><time>2026-04-06T10:21:28Z</time></trkpt><trkpt lat="45.874286310870666" lon="12.282147445628508"><ele>58.0</ele><time>2026-04-06T10:21:29Z</time></trkpt><trkpt lat="45.874181175867264" lon="12.281998690463137"><ele>58.0</ele><time>2026-04-06T10:21:30Z</time></trkpt><trkpt lat="45.87406513499151" lon="12.28186637503382"><ele>58.0</ele><time>2026-04-06T10:21:31Z</time></trkpt><trkpt lat="45.87395505652876" lon="12.281731178981524"><ele>58.0</ele><time>2026-04-06T10:21:32Z</time></trkpt><trkpt lat="45.87386306626389" lon="12.281591083139803"><ele>58.0</ele><time>2026-04-06T10:21:33Z</time></trkpt><trkpt lat="45.8737802106924" lon="12.28146545141083"><ele>58.0</ele><time>2026-04-06T10:21:34Z</time></trkpt><trkpt lat="45.8736976214255" lon="12.281353682291089"><ele>58.25</ele><time>2026-04-06T10:21:35Z</time></trkpt><trkpt lat="45.87361740107651" lon="12.281252863136771"><ele>58.5</ele><time>2026-04-06T10:21:36Z</time></trkpt><trkpt lat="45.87353409816748" lon="12.281154098969647"><ele>58.75</ele><time>2026-04-06T10:21:37Z</time></trkpt><trkpt lat="45.87344781834696" lon="12.281021349983453"><ele>59.0</ele><time>2026-04-06T10:21:38Z</time></trkpt><trkpt lat="45.87332980991491" lon="12.280865870218845"><ele>58.66666666666667</ele><time>2026-04-06T10:21:39Z</time></trkpt><trkpt lat="45.87320015617382" lon="12.28069504666987"><ele>58.33333333333333</ele><time>2026-04-06T10:21:40Z</time></trkpt><trkpt lat="45.873070393440514" lon="12.280521455832861"><ele>58.0</ele><time>2026-04-06T10:21:41Z</time></trkpt><trkpt lat="45.872962364055994" lon="12.280375973064015"><ele>58.0</ele><time>2026-04-06T10:21:42Z</time></trkpt><trkpt lat="45.87284060357604" lon="12.280246739506536"><ele>58.0</ele><time>2026-04-06T10:21:43Z</time></trkpt><trkpt lat="45.87273209226235" lon="12.2800794002798"><ele>58.0</ele><time>2026-04-06T10:21:44Z</time></trkpt><trkpt lat="45.872586556102966" lon="12.27994446014697"><ele>58.33333333333333</ele><time>2026-04-06T10:21:45Z</time></trkpt><trkpt lat="45.87245796764952" lon="12.279760106621527"><ele>58.66666666666667</ele><time>2026-04-06T10:21:46Z</time></trkpt><trkpt lat="45.8723121844816" lon="12.279576286164238"><ele>59.0</ele><time>2026-04-06T10:21:47Z</time></trkpt><trkpt lat="45.87216826631784" lon="12.27939181327778"><ele>59.0</ele><time>2026-04-06T10:21:48Z</time></trkpt><trkpt lat="45.87204412621662" lon="12.279199782913796"><ele>59.0</ele><time>2026-04-06T10:21:49Z</time></trkpt><trkpt lat="45.87192220855164" lon="12.279040540275666"><ele>59.0</ele><time>2026-04-06T10:21:50Z</time></trkpt><trkpt lat="45.87181416411241" lon="12.278898181343697"><ele>59.0</ele><time>2026-04-06T10:21:51Z</time></trkpt><trkpt lat="45.87172352090176" lon="12.278770720783887"><ele>59.0</ele><time>2026-04-06T10:21:52Z</time></trkpt><trkpt lat="45.87163657984328" lon="12.278651081934834"><ele>59.0</ele><time>2026-04-06T10:21:53Z</time></trkpt><trkpt lat="45.87155527154574" lon="12.27854446320602"><ele>59.0</ele><time>2026-04-06T10:21:54Z</time></trkpt><trkpt lat="45.87147381681703" lon="12.278445618002799"><ele>59.0</ele><time>2026-04-06T10:21:55Z</time></trkpt><trkpt lat="45.87137225496718" lon="12.278297851369915"><ele>59.0</ele><time>2026-04-06T10:21:56Z</time></trkpt><trkpt lat="45.871232766435874" lon="12.278135247559126"><ele>59.0</ele><time>2026-04-06T10:21:57Z</time></trkpt><trkpt lat="45.87110471375069" lon="12.277941950000866"><ele>58.66666666666667</ele><time>2026-04-06T10:21:58Z</time></trkpt><trkpt lat="45.870964050606574" lon="12.277771589896593"><ele>58.33333333333333</ele><time>2026-04-06T10:21:59Z</time></trkpt><trkpt lat="45.87082943305938" lon="12.277622966116585"><ele>58.0</ele><time>2026-04-06T10:22:00Z</time></trkpt><trkpt lat="45.87071635594282" lon="12.277480852097677"><ele>58.0</ele><time>2026-04-06T10:22:01Z</time></trkpt><trkpt lat="45.870637622758174" lon="12.277327464712906"><ele>58.0</ele><time>2026-04-06T10:22:02Z</time></trkpt><trkpt lat="45.87054123850996" lon="12.277200016421853"><ele>58.0</ele><time>2026-04-06T10:22:03Z</time></trkpt><trkpt lat="45.87043513525318" lon="12.277059858478573"><ele>58.0</ele><time>2026-04-06T10:22:04Z</time></trkpt><trkpt lat="45.87032350180289" lon="12.276912395409393"><ele>58.33333333333333</ele><time>2026-04-06T10:22:05Z</time></trkpt><trkpt lat="45.87020776705774" lon="12.276759514692195"><ele>58.66666666666667</ele><time>2026-04-06T10:22:06Z</time></trkpt><trkpt lat="45.870090866315884" lon="12.276606661647863"><ele>59.0</ele><time>2026-04-06T10:22:07Z</time></trkpt><trkpt lat="45.869985125724355" lon="12.276468647633925"><ele>58.75</ele><time>2026-04-06T10:22:08Z</time></trkpt><trkpt lat="45.86988539163085" lon="12.276338473379939"><ele>58.5</ele><time>2026-04-06T10:22:09Z</time></trkpt><trkpt lat="45.86979220245241" lon="12.276215485534035"><ele>58.25</ele><time>2026-04-06T10:22:10Z</time></trkpt><trkpt lat="45.869698015753904" lon="12.276090989407551"><ele>58.0</ele><time>2026-04-06T10:22:11Z</time></trkpt><trkpt lat="45.86960559754716" lon="12.275968830877748"><ele>58.0</ele><time>2026-04-06T10:22:12Z</time></trkpt><trkpt lat="45.86951690365227" lon="12.275851677420555"><ele>58.0</ele><time>2026-04-06T10:22:13Z</time></trkpt><trkpt lat="45.86941553431896" lon="12.275719074902145"><ele>58.0</ele><time>2026-04-06T10:22:14Z</time></trkpt><trkpt lat="45.86931898392073" lon="12.275592776143109"><ele>58.0</ele><time>2026-04-06T10:22:15Z</time></trkpt><trkpt lat="45.86921384371221" lon="12.275455240936063"><ele>58.666666666666664</ele><time>2026-04-06T10:22:16Z</time></trkpt><trkpt lat="45.86908243184223" lon="12.275283746676186"><ele>59.33333333333333</ele><time>2026-04-06T10:22:17Z</time></trkpt><trkpt lat="45.86891895722829" lon="12.275095051416807"><ele>60.0</ele><time>2026-04-06T10:22:18Z</time></trkpt><trkpt lat="45.8687560663447" lon="12.274856444130258"><ele>59.66666666666667</ele><time>2026-04-06T10:22:19Z</time></trkpt><trkpt lat="45.86858495072515" lon="12.274646071671892"><ele>59.333333333333336</ele><time>2026-04-06T10:22:20Z</time></trkpt><trkpt lat="45.86842111633729" lon="12.274437833667394"><ele>59.0</ele><time>2026-04-06T10:22:21Z</time></trkpt><trkpt lat="45.86824500684823" lon="12.274209047510691"><ele>59.0</ele><time>2026-04-06T10:22:22Z</time></trkpt><trkpt lat="45.86808203925845" lon="12.273996395144572"><ele>59.0</ele><time>2026-04-06T10:22:23Z</time></trkpt><trkpt lat="45.86793760034044" lon="12.273804392942"><ele>59.0</ele><time>2026-04-06T10:22:24Z</time></trkpt><trkpt lat="45.867769994415454" lon="12.273608222255401"><ele>59.5</ele><time>2026-04-06T10:22:25Z</time></trkpt><trkpt lat="45.86759012966162" lon="12.273382811496758"><ele>60.0</ele><time>2026-04-06T10:22:26Z</time></trkpt><trkpt lat="45.86741553823156" lon="12.273117691229992"><ele>61.0</ele><time>2026-04-06T10:22:27Z</time></trkpt><trkpt lat="45.86724763929202" lon="12.272877484452437"><ele>62.0</ele><time>2026-04-06T10:22:28Z</time></trkpt><trkpt lat="45.867089320961156" lon="12.272669001446134"><ele>62.0</ele><time>2026-04-06T10:22:29Z</time></trkpt><trkpt lat="45.866939671108305" lon="12.27247993036265"><ele>62.0</ele><time>2026-04-06T10:22:30Z</time></trkpt><trkpt lat="45.866798299253496" lon="12.272300409284082"><ele>62.0</ele><time>2026-04-06T10:22:31Z</time></trkpt><trkpt lat="45.86669634728581" lon="12.272145767900417"><ele>62.0</ele><time>2026-04-06T10:22:32Z</time></trkpt><trkpt lat="45.86661615246908" lon="12.271999276965305"><ele>62.0</ele><time>2026-04-06T10:22:33Z</time></trkpt><trkpt lat="45.86656887268957" lon="12.271831392761564"><ele>62.0</ele><time>2026-04-06T10:22:34Z</time></trkpt><trkpt lat="45.86647445747007" lon="12.271633034061946"><ele>62.0</ele><time>2026-04-06T10:22:35Z</time></trkpt><trkpt lat="45.86646794884604" lon="12.271483670131675"><ele>61.6</ele><time>2026-04-06T10:22:36Z</time></trkpt><trkpt lat="45.86647860104593" lon="12.271357787953598"><ele>61.2</ele><time>2026-04-06T10:22:37Z</time></trkpt><trkpt lat="45.8665174195299" lon="12.271234371354405"><ele>60.8</ele><time>2026-04-06T10:22:38Z</time></trkpt><trkpt lat="45.866587965454244" lon="12.27109669853192"><ele>60.4</ele><time>2026-04-06T10:22:39Z</time></trkpt><trkpt lat="45.866622493727974" lon="12.270935725591613"><ele>60.0</ele><time>2026-04-06T10:22:40Z</time></trkpt><trkpt lat="45.86661027225923" lon="12.270768530607373"><ele>60.0</ele><time>2026-04-06T10:22:41Z</time></trkpt><trkpt lat="45.86655938916814" lon="12.270635513233715"><ele>60.0</ele><time>2026-04-06T10:22:42Z</time></trkpt><trkpt lat="45.86648304972415" lon="12.270536618533365"><ele>60.0</ele><time>2026-04-06T10:22:43Z</time></trkpt><trkpt lat="45.86637605515009" lon="12.270467331360189"><ele>60.0</ele><time>2026-04-06T10:22:44Z</time></trkpt><trkpt lat="45.866247112700144" lon="12.270455969279311"><ele>60.0</ele><time>2026-04-06T10:22:45Z</time></trkpt><trkpt lat="45.86612257361976" lon="12.270512722081312"><ele>60.0</ele><time>2026-04-06T10:22:46Z</time></trkpt><trkpt lat="45.866006708596416" lon="12.270606727528401"><ele>60.0</ele><time>2026-04-06T10:22:47Z</time></trkpt><trkpt lat="45.86590040834001" lon="12.270744744221307"><ele>60.0</ele><time>2026-04-06T10:22:48Z</time></trkpt><trkpt lat="45.86580029934986" lon="12.270831715463206"><ele>60.0</ele><time>2026-04-06T10:22:49Z</time></trkpt><trkpt lat="45.86566143729664" lon="12.270809937142602"><ele>60.0</ele><time>2026-04-06T10:22:50Z</time></trkpt><trkpt lat="45.86555900438273" lon="12.270683483711903"><ele>60.0</ele><time>2026-04-06T10:22:51Z</time></trkpt><trkpt lat="45.86546611973746" lon="12.27054762830872"><ele>60.0</ele><time>2026-04-06T10:22:52Z</time></trkpt><trkpt lat="45.86535023028045" lon="12.270392075011246"><ele>60.33333333333333</ele><time>2026-04-06T10:22:53Z</time></trkpt><trkpt lat="45.86519579808783" lon="12.27021739395258"><ele>60.666666666666664</ele><time>2026-04-06T10:22:54Z</time></trkpt><trkpt lat="45.86504019082576" lon="12.26997990657288"><ele>61.0</ele><time>2026-04-06T10:22:55Z</time></trkpt><trkpt lat="45.864848540680434" lon="12.269751237502444"><ele>61.5</ele><time>2026-04-06T10:22:56Z</time></trkpt><trkpt lat="45.86467463273119" lon="12.269491483224384"><ele>62.0</ele><time>2026-04-06T10:22:57Z</time></trkpt><trkpt lat="45.8645170456313" lon="12.269280391180612"><ele>62.0</ele><time>2026-04-06T10:22:58Z</time></trkpt><trkpt lat="45.864371623413994" lon="12.269085294298721"><ele>62.0</ele><time>2026-04-06T10:22:59Z</time></trkpt><trkpt lat="45.86421689021055" lon="12.26889442082212"><ele>62.0</ele><time>2026-04-06T10:23:00Z</time></trkpt><trkpt lat="45.864078297611265" lon="12.268692031239407"><ele>62.0</ele><time>2026-04-06T10:23:01Z</time></trkpt><trkpt lat="45.86393188071714" lon="12.268501975404643"><ele>62.0</ele><time>2026-04-06T10:23:02Z</time></trkpt><trkpt lat="45.86378005919377" lon="12.268309288321484"><ele>62.0</ele><time>2026-04-06T10:23:03Z</time></trkpt><trkpt lat="45.8636299544666" lon="12.268108550865673"><ele>61.66666666666667</ele><time>2026-04-06T10:23:04Z</time></trkpt><trkpt lat="45.86348164767986" lon="12.267903620644303"><ele>61.33333333333333</ele><time>2026-04-06T10:23:05Z</time></trkpt><trkpt lat="45.86333551617725" lon="12.267703496998488"><ele>61.0</ele><time>2026-04-06T10:23:06Z</time></trkpt><trkpt lat="45.8631876793054" lon="12.267511747910733"><ele>61.0</ele><time>2026-04-06T10:23:07Z</time></trkpt><trkpt lat="45.863033457803766" lon="12.267307719332623"><ele>61.0</ele><time>2026-04-06T10:23:08Z</time></trkpt><trkpt lat="45.86287671630402" lon="12.267093815934249"><ele>61.0</ele><time>2026-04-06T10:23:09Z</time></trkpt><trkpt lat="45.862732031073406" lon="12.266898042382303"><ele>61.33333333333333</ele><time>2026-04-06T10:23:10Z</time></trkpt><trkpt lat="45.862598755169714" lon="12.26670955935177"><ele>61.66666666666667</ele><time>2026-04-06T10:23:11Z</time></trkpt><trkpt lat="45.86245079179542" lon="12.266522950871817"><ele>62.0</ele><time>2026-04-06T10:23:12Z</time></trkpt><trkpt lat="45.86231086957021" lon="12.266343348536498"><ele>62.0</ele><time>2026-04-06T10:23:13Z</time></trkpt><trkpt lat="45.86218932260415" lon="12.2661682002677"><ele>62.0</ele><time>2026-04-06T10:23:14Z</time></trkpt><trkpt lat="45.8620867840083" lon="12.266019307996498"><ele>62.0</ele><time>2026-04-06T10:23:15Z</time></trkpt><trkpt lat="45.86200806670394" lon="12.265885489939848"><ele>62.0</ele><time>2026-04-06T10:23:16Z</time></trkpt><trkpt lat="45.861957810292985" lon="12.265726103253726"><ele>61.75</ele><time>2026-04-06T10:23:17Z</time></trkpt><trkpt lat="45.86191867669066" lon="12.265551315996607"><ele>61.5</ele><time>2026-04-06T10:23:18Z</time></trkpt><trkpt lat="45.86184857645067" lon="12.265424860476163"><ele>61.25</ele><time>2026-04-06T10:23:19Z</time></trkpt><trkpt lat="45.8617423442147" lon="12.265347253733065"><ele>61.0</ele><time>2026-04-06T10:23:20Z</time></trkpt><trkpt lat="45.861591718103924" lon="12.265283522482664"><ele>61.666666666666664</ele><time>2026-04-06T10:23:21Z</time></trkpt><trkpt lat="45.861425529839146" lon="12.265170879645774"><ele>62.33333333333333</ele><time>2026-04-06T10:23:22Z</time></trkpt><trkpt lat="45.861258934473234" lon="12.264956533021294"><ele>63.0</ele><time>2026-04-06T10:23:23Z</time></trkpt><trkpt lat="45.861074981809445" lon="12.264695849118299"><ele>64.0</ele><time>2026-04-06T10:23:24Z</time></trkpt><trkpt lat="45.8608722554625" lon="12.264410117464623"><ele>65.0</ele><time>2026-04-06T10:23:25Z</time></trkpt><trkpt lat="45.860664655221875" lon="12.264135895424632"><ele>65.0</ele><time>2026-04-06T10:23:26Z</time></trkpt><trkpt lat="45.86046845967825" lon="12.263874115481915"><ele>65.0</ele><time>2026-04-06T10:23:27Z</time></trkpt><trkpt lat="45.86026352345124" lon="12.263602613353305"><ele>64.5</ele><time>2026-04-06T10:23:28Z</time></trkpt><trkpt lat="45.860060962349465" lon="12.263323838408835"><ele>64.0</ele><time>2026-04-06T10:23:29Z</time></trkpt><trkpt lat="45.85986731937422" lon="12.263057585812938"><ele>64.0</ele><time>2026-04-06T10:23:30Z</time></trkpt><trkpt lat="45.859671106836025" lon="12.26278734356207"><ele>64.0</ele><time>2026-04-06T10:23:31Z</time></trkpt><trkpt lat="45.859464944516105" lon="12.2625103383563"><ele>63.5</ele><time>2026-04-06T10:23:32Z</time></trkpt><trkpt lat="45.85925456435457" lon="12.262228193299764"><ele>63.0</ele><time>2026-04-06T10:23:33Z</time></trkpt><trkpt lat="45.85904383455349" lon="12.261946964032758"><ele>63.0</ele><time>2026-04-06T10:23:34Z</time></trkpt><trkpt lat="45.85884776795686" lon="12.261692016373377"><ele>63.0</ele><time>2026-04-06T10:23:35Z</time></trkpt><trkpt lat="45.85867131878964" lon="12.261455794414616"><ele>62.66666666666667</ele><time>2026-04-06T10:23:36Z</time></trkpt><trkpt lat="45.858509991690205" lon="12.261228629565478"><ele>62.333333333333336</ele><time>2026-04-06T10:23:37Z</time></trkpt><trkpt lat="45.8583502296828" lon="12.261007868219647"><ele>62.0</ele><time>2026-04-06T10:23:38Z</time></trkpt><trkpt lat="45.85817762261468" lon="12.260783598221584"><ele>62.0</ele><time>2026-04-06T10:23:39Z</time></trkpt><trkpt lat="45.85800580748389" lon="12.260563465102296"><ele>62.0</ele><time>2026-04-06T10:23:40Z</time></trkpt><trkpt lat="45.85785232742236" lon="12.260355532024624"><ele>62.0</ele><time>2026-04-06T10:23:41Z</time></trkpt><trkpt lat="45.85770913429146" lon="12.260164284341299"><ele>62.66666666666667</ele><time>2026-04-06T10:23:42Z</time></trkpt><trkpt lat="45.85757223672968" lon="12.259993243196702"><ele>63.33333333333333</ele><time>2026-04-06T10:23:43Z</time></trkpt><trkpt lat="45.857449632938895" lon="12.259823992279161"><ele>64.0</ele><time>2026-04-06T10:23:44Z</time></trkpt><trkpt lat="45.85733215944727" lon="12.259637795889645"><ele>64.33333333333333</ele><time>2026-04-06T10:23:45Z</time></trkpt><trkpt lat="45.85718698336344" lon="12.259437025438897"><ele>64.66666666666667</ele><time>2026-04-06T10:23:46Z</time></trkpt><trkpt lat="45.85701232455499" lon="12.259235788295616"><ele>65.0</ele><time>2026-04-06T10:23:47Z</time></trkpt><trkpt lat="45.85685758156061" lon="12.259015466027629"><ele>66.0</ele><time>2026-04-06T10:23:48Z</time></trkpt><trkpt lat="45.856716116408684" lon="12.258826330209173"><ele>67.0</ele><time>2026-04-06T10:23:49Z</time></trkpt><trkpt lat="45.85657855617206" lon="12.258642241131868"><ele>68.0</ele><time>2026-04-06T10:23:50Z</time></trkpt><trkpt lat="45.85643508576961" lon="12.258449975821062"><ele>68.0</ele><time>2026-04-06T10:23:51Z</time></trkpt><trkpt lat="45.85629096900488" lon="12.258256844307963"><ele>68.0</ele><time>2026-04-06T10:23:52Z</time></trkpt><trkpt lat="45.856151689074785" lon="12.25807170307692"><ele>68.0</ele><time>2026-04-06T10:23:53Z</time></trkpt><trkpt lat="45.856025018277386" lon="12.257925350355592"><ele>68.25</ele><time>2026-04-06T10:23:54Z</time></trkpt><trkpt lat="45.855925415638595" lon="12.257788713361721"><ele>68.5</ele><time>2026-04-06T10:23:55Z</time></trkpt><trkpt lat="45.85582827751334" lon="12.257656271010429"><ele>68.75</ele><time>2026-04-06T10:23:56Z</time></trkpt><trkpt lat="45.855722533904526" lon="12.257496452688327"><ele>69.0</ele><time>2026-04-06T10:23:57Z</time></trkpt><trkpt lat="45.8555819589512" lon="12.257310339664201"><ele>69.33333333333333</ele><time>2026-04-06T10:23:58Z</time></trkpt><trkpt lat="45.855419445278464" lon="12.257115920036037"><ele>69.66666666666666</ele><time>2026-04-06T10:23:59Z</time></trkpt><trkpt lat="45.85527304159446" lon="12.256915987061483"><ele>70.0</ele><time>2026-04-06T10:24:00Z</time></trkpt><trkpt lat="45.855129983169" lon="12.256742225323976"><ele>70.33333333333333</ele><time>2026-04-06T10:24:01Z</time></trkpt><trkpt lat="45.854979363463215" lon="12.256544697354471"><ele>70.66666666666667</ele><time>2026-04-06T10:24:02Z</time></trkpt><trkpt lat="45.85481674651726" lon="12.256295585576035"><ele>71.0</ele><time>2026-04-06T10:24:03Z</time></trkpt><trkpt lat="45.85463344097133" lon="12.256027814885371"><ele>71.0</ele><time>2026-04-06T10:24:04Z</time></trkpt><trkpt lat="45.85442411953479" lon="12.255759555735857"><ele>71.0</ele><time>2026-04-06T10:24:05Z</time></trkpt><trkpt lat="45.85420545585232" lon="12.255479666117015"><ele>70.5</ele><time>2026-04-06T10:24:06Z</time></trkpt><trkpt lat="45.85401362693714" lon="12.25522559075568"><ele>70.0</ele><time>2026-04-06T10:24:07Z</time></trkpt><trkpt lat="45.85383170145065" lon="12.254984077810464"><ele>70.5</ele><time>2026-04-06T10:24:08Z</time></trkpt><trkpt lat="45.85366028193566" lon="12.254751621670914"><ele>71.0</ele><time>2026-04-06T10:24:09Z</time></trkpt><trkpt lat="45.85348437191862" lon="12.254513791429948"><ele>71.0</ele><time>2026-04-06T10:24:10Z</time></trkpt><trkpt lat="45.85330478820247" lon="12.254273179264041"><ele>71.0</ele><time>2026-04-06T10:24:11Z</time></trkpt><trkpt lat="45.8531181884091" lon="12.254026911137556"><ele>71.5</ele><time>2026-04-06T10:24:12Z</time></trkpt><trkpt lat="45.85291639292038" lon="12.253765743755034"><ele>72.0</ele><time>2026-04-06T10:24:13Z</time></trkpt><trkpt lat="45.852718226799595" lon="12.253497611546354"><ele>72.0</ele><time>2026-04-06T10:24:14Z</time></trkpt><trkpt lat="45.85252184025805" lon="12.253232716292715"><ele>72.0</ele><time>2026-04-06T10:24:15Z</time></trkpt><trkpt lat="45.85234553563814" lon="12.252999622798447"><ele>72.66666666666667</ele><time>2026-04-06T10:24:16Z</time></trkpt><trkpt lat="45.852181210242875" lon="12.252783777687624"><ele>73.33333333333334</ele><time>2026-04-06T10:24:17Z</time></trkpt><trkpt lat="45.852022526465966" lon="12.252574230242372"><ele>74.0</ele><time>2026-04-06T10:24:18Z</time></trkpt><trkpt lat="45.851856248191844" lon="12.252357791216197"><ele>73.5</ele><time>2026-04-06T10:24:19Z</time></trkpt><trkpt lat="45.85168494030406" lon="12.25213298787329"><ele>73.0</ele><time>2026-04-06T10:24:20Z</time></trkpt><trkpt lat="45.85152326296764" lon="12.251907822594887"><ele>73.0</ele><time>2026-04-06T10:24:21Z</time></trkpt><trkpt lat="45.851378653923256" lon="12.25169709663041"><ele>73.0</ele><time>2026-04-06T10:24:22Z</time></trkpt><trkpt lat="45.851236316908086" lon="12.251512141593619"><ele>73.0</ele><time>2026-04-06T10:24:23Z</time></trkpt><trkpt lat="45.85110029247762" lon="12.251335685743351"><ele>73.33333333333333</ele><time>2026-04-06T10:24:24Z</time></trkpt><trkpt lat="45.8509762666084" lon="12.251163768794692"><ele>73.66666666666667</ele><time>2026-04-06T10:24:25Z</time></trkpt><trkpt lat="45.85085890071845" lon="12.251006029300397"><ele>74.0</ele><time>2026-04-06T10:24:26Z</time></trkpt><trkpt lat="45.850746192430094" lon="12.250857513558733"><ele>74.25</ele><time>2026-04-06T10:24:27Z</time></trkpt><trkpt lat="45.85063732828617" lon="12.25072222603641"><ele>74.5</ele><time>2026-04-06T10:24:28Z</time></trkpt><trkpt lat="45.850535432389485" lon="12.250587402428934"><ele>74.75</ele><time>2026-04-06T10:24:29Z</time></trkpt><trkpt lat="45.85042262914018" lon="12.250436807158911"><ele>75.0</ele><time>2026-04-06T10:24:30Z</time></trkpt><trkpt lat="45.85029079851292" lon="12.250261809790528"><ele>75.0</ele><time>2026-04-06T10:24:31Z</time></trkpt><trkpt lat="45.850150592865894" lon="12.25006680955797"><ele>75.0</ele><time>2026-04-06T10:24:32Z</time></trkpt><trkpt lat="45.85001512597658" lon="12.249884630423985"><ele>75.0</ele><time>2026-04-06T10:24:33Z</time></trkpt><trkpt lat="45.8498917267336" lon="12.249722165510326"><ele>75.66666666666667</ele><time>2026-04-06T10:24:34Z</time></trkpt><trkpt lat="45.84976900697046" lon="12.249564999897583"><ele>76.33333333333334</ele><time>2026-04-06T10:24:35Z</time></trkpt><trkpt lat="45.84965246124028" lon="12.249410835446135"><ele>77.0</ele><time>2026-04-06T10:24:36Z</time></trkpt><trkpt lat="45.84954651313049" lon="12.249268355579868"><ele>77.0</ele><time>2026-04-06T10:24:37Z</time></trkpt><trkpt lat="45.84944729839894" lon="12.249134077583898"><ele>77.0</ele><time>2026-04-06T10:24:38Z</time></trkpt><trkpt lat="45.84935401580038" lon="12.249002828140776"><ele>77.0</ele><time>2026-04-06T10:24:39Z</time></trkpt><trkpt lat="45.84926780194168" lon="12.248881564259058"><ele>77.0</ele><time>2026-04-06T10:24:40Z</time></trkpt><trkpt lat="45.84917265254614" lon="12.248769159165915"><ele>77.0</ele><time>2026-04-06T10:24:41Z</time></trkpt><trkpt lat="45.84907348154439" lon="12.24868540942217"><ele>77.0</ele><time>2026-04-06T10:24:42Z</time></trkpt><trkpt lat="45.84897333177399" lon="12.248623497113043"><ele>77.0</ele><time>2026-04-06T10:24:43Z</time></trkpt><trkpt lat="45.84887313177594" lon="12.248579678303836"><ele>77.0</ele><time>2026-04-06T10:24:44Z</time></trkpt><trkpt lat="45.848778143542596" lon="12.248532181415287"><ele>77.0</ele><time>2026-04-06T10:24:45Z</time></trkpt><trkpt lat="45.848688476012846" lon="12.248492953863419"><ele>77.0</ele><time>2026-04-06T10:24:46Z</time></trkpt><trkpt lat="45.84860344419941" lon="12.248460614656803"><ele>77.0</ele><time>2026-04-06T10:24:47Z</time></trkpt><trkpt lat="45.84852236869561" lon="12.248431682783956"><ele>77.0</ele><time>2026-04-06T10:24:48Z</time></trkpt><trkpt lat="45.848440086752994" lon="12.248365589380033"><ele>77.0</ele><time>2026-04-06T10:24:49Z</time></trkpt><trkpt lat="45.848367275388526" lon="12.248256545857663"><ele>77.0</ele><time>2026-04-06T10:24:50Z</time></trkpt><trkpt lat="45.848308871178716" lon="12.248142377495336"><ele>76.6</ele><time>2026-04-06T10:24:51Z</time></trkpt><trkpt lat="45.84823903570542" lon="12.248076580310377"><ele>76.2</ele><time>2026-04-06T10:24:52Z</time></trkpt><trkpt lat="45.848155075866906" lon="12.248065537344099"><ele>75.8</ele><time>2026-04-06T10:24:53Z</time></trkpt><trkpt lat="45.84806478737368" lon="12.248090334355442"><ele>75.4</ele><time>2026-04-06T10:24:54Z</time></trkpt><trkpt lat="45.84797467374471" lon="12.248157271300476"><ele>75.0</ele><time>2026-04-06T10:24:55Z</time></trkpt><trkpt lat="45.84790449945445" lon="12.248250501332002"><ele>74.8</ele><time>2026-04-06T10:24:56Z</time></trkpt><trkpt lat="45.847854736095584" lon="12.248363380440281"><ele>74.6</ele><time>2026-04-06T10:24:57Z</time></trkpt><trkpt lat="45.84779316992231" lon="12.248474847540288"><ele>74.4</ele><time>2026-04-06T10:24:58Z</time></trkpt><trkpt lat="45.84769238026619" lon="12.248548065323"><ele>74.2</ele><time>2026-04-06T10:24:59Z</time></trkpt><trkpt lat="45.84755988269722" lon="12.248596993496099"><ele>74.0</ele><time>2026-04-06T10:25:00Z</time></trkpt><trkpt lat="45.84739652538285" lon="12.24863113753764"><ele>73.66666666666667</ele><time>2026-04-06T10:25:01Z</time></trkpt><trkpt lat="45.847202101498254" lon="12.24867431914127"><ele>73.33333333333333</ele><time>2026-04-06T10:25:02Z</time></trkpt><trkpt lat="45.8469910077468" lon="12.24873937631492"><ele>73.0</ele><time>2026-04-06T10:25:03Z</time></trkpt><trkpt lat="45.84678422127834" lon="12.248820068680873"><ele>72.5</ele><time>2026-04-06T10:25:04Z</time></trkpt><trkpt lat="45.84656422487752" lon="12.248951198995998"><ele>72.0</ele><time>2026-04-06T10:25:05Z</time></trkpt><trkpt lat="45.84633131816939" lon="12.24911996265237"><ele>72.0</ele><time>2026-04-06T10:25:06Z</time></trkpt><trkpt lat="45.84609443409348" lon="12.249301979095824"><ele>72.0</ele><time>2026-04-06T10:25:07Z</time></trkpt><trkpt lat="45.84582363699071" lon="12.249479862788933"><ele>71.0</ele><time>2026-04-06T10:25:08Z</time></trkpt><trkpt lat="45.84554459293845" lon="12.249658005075212"><ele>70.0</ele><time>2026-04-06T10:25:09Z</time></trkpt><trkpt lat="45.845279734738384" lon="12.249830417438"><ele>70.5</ele><time>2026-04-06T10:25:10Z</time></trkpt><trkpt lat="45.84501771822727" lon="12.249976197001851"><ele>71.0</ele><time>2026-04-06T10:25:11Z</time></trkpt><trkpt lat="45.844775267425696" lon="12.250124260146455"><ele>71.0</ele><time>2026-04-06T10:25:12Z</time></trkpt><trkpt lat="45.84455473223896" lon="12.250275260005957"><ele>71.0</ele><time>2026-04-06T10:25:13Z</time></trkpt><trkpt lat="45.84434231274459" lon="12.250412862052324"><ele>70.5</ele><time>2026-04-06T10:25:14Z</time></trkpt><trkpt lat="45.84413109888699" lon="12.250549631177728"><ele>70.0</ele><time>2026-04-06T10:25:15Z</time></trkpt><trkpt lat="45.84392595876563" lon="12.250685266289276"><ele>70.0</ele><time>2026-04-06T10:25:16Z</time></trkpt><trkpt lat="45.843725122252614" lon="12.250817021261831"><ele>70.0</ele><time>2026-04-06T10:25:17Z</time></trkpt><trkpt lat="45.84352707859921" lon="12.250950646052804"><ele>70.0</ele><time>2026-04-06T10:25:18Z</time></trkpt><trkpt lat="45.84332899068624" lon="12.251082048507234"><ele>69.0</ele><time>2026-04-06T10:25:19Z</time></trkpt><trkpt lat="45.843120120317444" lon="12.251225675989255"><ele>68.0</ele><time>2026-04-06T10:25:20Z</time></trkpt><trkpt lat="45.84289567499533" lon="12.251392949323586"><ele>67.5</ele><time>2026-04-06T10:25:21Z</time></trkpt><trkpt lat="45.84264862251089" lon="12.251551903449835"><ele>67.0</ele><time>2026-04-06T10:25:22Z</time></trkpt><trkpt lat="45.84238425157948" lon="12.251697794359101"><ele>67.0</ele><time>2026-04-06T10:25:23Z</time></trkpt><trkpt lat="45.842125321436576" lon="12.251860926270059"><ele>67.0</ele><time>2026-04-06T10:25:24Z</time></trkpt><trkpt lat="45.841891881156805" lon="12.252017865515189"><ele>67.5</ele><time>2026-04-06T10:25:25Z</time></trkpt><trkpt lat="45.841646541592524" lon="12.2521819034121"><ele>68.0</ele><time>2026-04-06T10:25:26Z</time></trkpt><trkpt lat="45.84139362987741" lon="12.25234792038107"><ele>67.0</ele><time>2026-04-06T10:25:27Z</time></trkpt><trkpt lat="45.8411447461793" lon="12.252513590271695"><ele>66.0</ele><time>2026-04-06T10:25:28Z</time></trkpt><trkpt lat="45.840912637314084" lon="12.252674079125848"><ele>65.5</ele><time>2026-04-06T10:25:29Z</time></trkpt><trkpt lat="45.84070066203112" lon="12.252821546604729"><ele>65.0</ele><time>2026-04-06T10:25:30Z</time></trkpt><trkpt lat="45.84048920806204" lon="12.252962303369252"><ele>65.0</ele><time>2026-04-06T10:25:31Z</time></trkpt><trkpt lat="45.84026398636132" lon="12.253103062106462"><ele>65.0</ele><time>2026-04-06T10:25:32Z</time></trkpt><trkpt lat="45.8400280723519" lon="12.253247056698532"><ele>65.5</ele><time>2026-04-06T10:25:33Z</time></trkpt><trkpt lat="45.83978555500228" lon="12.253400952124075"><ele>66.0</ele><time>2026-04-06T10:25:34Z</time></trkpt><trkpt lat="45.83953056845124" lon="12.253576384148955"><ele>66.5</ele><time>2026-04-06T10:25:35Z</time></trkpt><trkpt lat="45.83926123446174" lon="12.253750950104736"><ele>67.0</ele><time>2026-04-06T10:25:36Z</time></trkpt><trkpt lat="45.83897337111894" lon="12.25392814631694"><ele>66.5</ele><time>2026-04-06T10:25:37Z</time></trkpt><trkpt lat="45.83867215648074" lon="12.254117480784284"><ele>66.0</ele><time>2026-04-06T10:25:38Z</time></trkpt><trkpt lat="45.83836830577213" lon="12.254310180723955"><ele>66.0</ele><time>2026-04-06T10:25:39Z</time></trkpt><trkpt lat="45.83815620955548" lon="12.25446173536331"><ele>66.0</ele><time>2026-04-06T10:25:40Z</time></trkpt><trkpt lat="45.83790941840152" lon="12.25461538136076"><ele>66.0</ele><time>2026-04-06T10:25:41Z</time></trkpt><trkpt lat="45.837675153182445" lon="12.254753827761638"><ele>66.0</ele><time>2026-04-06T10:25:42Z</time></trkpt><trkpt lat="45.837462196207674" lon="12.254879289992017"><ele>66.66666666666667</ele><time>2026-04-06T10:25:43Z</time></trkpt><trkpt lat="45.83725641997015" lon="12.255005585565668"><ele>67.33333333333334</ele><time>2026-04-06T10:25:44Z</time></trkpt><trkpt lat="45.83705192713752" lon="12.255122395876866"><ele>68.0</ele><time>2026-04-06T10:25:45Z</time></trkpt><trkpt lat="45.8368345569697" lon="12.255213523547443"><ele>66.5</ele><time>2026-04-06T10:25:46Z</time></trkpt><trkpt lat="45.836589624538554" lon="12.25527747769997"><ele>65.0</ele><time>2026-04-06T10:25:47Z</time></trkpt><trkpt lat="45.83632772888239" lon="12.255338602527145"><ele>65.0</ele><time>2026-04-06T10:25:48Z</time></trkpt><trkpt lat="45.83604047905994" lon="12.255386565901656"><ele>65.0</ele><time>2026-04-06T10:25:49Z</time></trkpt><trkpt lat="45.835739034967034" lon="12.255467946891041"><ele>64.0</ele><time>2026-04-06T10:25:50Z</time></trkpt><trkpt lat="45.83545893087445" lon="12.25551620918999"><ele>63.0</ele><time>2026-04-06T10:25:51Z</time></trkpt><trkpt lat="45.835191401029164" lon="12.255559141649021"><ele>64.5</ele><time>2026-04-06T10:25:52Z</time></trkpt><trkpt lat="45.83494358932906" lon="12.255629563899388"><ele>66.0</ele><time>2026-04-06T10:25:53Z</time></trkpt><trkpt lat="45.834706019940924" lon="12.25566632876032"><ele>66.0</ele><time>2026-04-06T10:25:54Z</time></trkpt><trkpt lat="45.834464971386765" lon="12.255708004207602"><ele>66.0</ele><time>2026-04-06T10:25:55Z</time></trkpt><trkpt lat="45.83420992785337" lon="12.255761782471042"><ele>66.0</ele><time>2026-04-06T10:25:56Z</time></trkpt><trkpt lat="45.83394136320033" lon="12.255820037982438"><ele>66.0</ele><time>2026-04-06T10:25:57Z</time></trkpt><trkpt lat="45.833665176285166" lon="12.255864567610633"><ele>66.0</ele><time>2026-04-06T10:25:58Z</time></trkpt><trkpt lat="45.8333791629805" lon="12.255904892398988"><ele>66.0</ele><time>2026-04-06T10:25:59Z</time></trkpt><trkpt lat="45.8330953460913" lon="12.255955238441375"><ele>66.0</ele><time>2026-04-06T10:26:00Z</time></trkpt><trkpt lat="45.83282018894456" lon="12.256024688987987"><ele>66.0</ele><time>2026-04-06T10:26:01Z</time></trkpt><trkpt lat="45.832573796710285" lon="12.2560797496385"><ele>66.0</ele><time>2026-04-06T10:26:02Z</time></trkpt><trkpt lat="45.83233402977073" lon="12.256125718093493"><ele>66.0</ele><time>2026-04-06T10:26:03Z</time></trkpt><trkpt lat="45.83209123083455" lon="12.256176537602435"><ele>66.0</ele><time>2026-04-06T10:26:04Z</time></trkpt><trkpt lat="45.831833993141906" lon="12.256233730437621"><ele>66.0</ele><time>2026-04-06T10:26:05Z</time></trkpt><trkpt lat="45.83155851550291" lon="12.256291449975539"><ele>66.5</ele><time>2026-04-06T10:26:06Z</time></trkpt><trkpt lat="45.83126789722943" lon="12.256327480106124"><ele>67.0</ele><time>2026-04-06T10:26:07Z</time></trkpt><trkpt lat="45.830986602765165" lon="12.256367390324373"><ele>66.5</ele><time>2026-04-06T10:26:08Z</time></trkpt><trkpt lat="45.83072926862804" lon="12.25641661413029"><ele>66.0</ele><time>2026-04-06T10:26:09Z</time></trkpt><trkpt lat="45.83049602227376" lon="12.256466445803884"><ele>67.0</ele><time>2026-04-06T10:26:10Z</time></trkpt><trkpt lat="45.830275211992756" lon="12.256494571641193"><ele>68.0</ele><time>2026-04-06T10:26:11Z</time></trkpt><trkpt lat="45.83004423231981" lon="12.25649837064433"><ele>68.5</ele><time>2026-04-06T10:26:12Z</time></trkpt><trkpt lat="45.82980295292181" lon="12.25649711253857"><ele>69.0</ele><time>2026-04-06T10:26:13Z</time></trkpt><trkpt lat="45.82954788379561" lon="12.25639438969272"><ele>68.0</ele><time>2026-04-06T10:26:14Z</time></trkpt><trkpt lat="45.82927682984402" lon="12.256290864398196"><ele>67.0</ele><time>2026-04-06T10:26:15Z</time></trkpt><trkpt lat="45.82899824092175" lon="12.256192158700346"><ele>67.0</ele><time>2026-04-06T10:26:16Z</time></trkpt><trkpt lat="45.828718487247016" lon="12.256097761897928"><ele>67.0</ele><time>2026-04-06T10:26:17Z</time></trkpt><trkpt lat="45.82844814676216" lon="12.256005047106598"><ele>67.5</ele><time>2026-04-06T10:26:18Z</time></trkpt><trkpt lat="45.82819512306179" lon="12.255923734443702"><ele>68.0</ele><time>2026-04-06T10:26:19Z</time></trkpt><trkpt lat="45.8279613963547" lon="12.255846631962378"><ele>68.0</ele><time>2026-04-06T10:26:20Z</time></trkpt><trkpt lat="45.82773753481864" lon="12.255764096750994"><ele>68.0</ele><time>2026-04-06T10:26:21Z</time></trkpt><trkpt lat="45.827512448116096" lon="12.25568377964604"><ele>67.66666666666667</ele><time>2026-04-06T10:26:22Z</time></trkpt><trkpt lat="45.8272890185611" lon="12.255605476877392"><ele>67.33333333333333</ele><time>2026-04-06T10:26:23Z</time></trkpt><trkpt lat="45.827082723596355" lon="12.25552768655016"><ele>67.0</ele><time>2026-04-06T10:26:24Z</time></trkpt><trkpt lat="45.8268819503315" lon="12.255452094801463"><ele>67.66666666666666</ele><time>2026-04-06T10:26:25Z</time></trkpt><trkpt lat="45.826674395986686" lon="12.255392754104307"><ele>68.33333333333333</ele><time>2026-04-06T10:26:26Z</time></trkpt><trkpt lat="45.826449985020496" lon="12.255325221476195"><ele>69.0</ele><time>2026-04-06T10:26:27Z</time></trkpt><trkpt lat="45.826214567688695" lon="12.255246396016183"><ele>68.0</ele><time>2026-04-06T10:26:28Z</time></trkpt><trkpt lat="45.825974261581095" lon="12.255161024808531"><ele>67.0</ele><time>2026-04-06T10:26:29Z</time></trkpt><trkpt lat="45.82574715202989" lon="12.255081287242133"><ele>67.0</ele><time>2026-04-06T10:26:30Z</time></trkpt><trkpt lat="45.82554139984801" lon="12.255020087475584"><ele>67.0</ele><time>2026-04-06T10:26:31Z</time></trkpt><trkpt lat="45.82534762144173" lon="12.254951605264583"><ele>67.0</ele><time>2026-04-06T10:26:32Z</time></trkpt><trkpt lat="45.82515444197409" lon="12.254876429453692"><ele>67.0</ele><time>2026-04-06T10:26:33Z</time></trkpt><trkpt lat="45.82495446874309" lon="12.254811141152075"><ele>67.0</ele><time>2026-04-06T10:26:34Z</time></trkpt><trkpt lat="45.8247494430556" lon="12.25474464029987"><ele>67.0</ele><time>2026-04-06T10:26:35Z</time></trkpt><trkpt lat="45.82454263229452" lon="12.254673959248544"><ele>67.0</ele><time>2026-04-06T10:26:36Z</time></trkpt><trkpt lat="45.82434678012923" lon="12.254599700079247"><ele>67.0</ele><time>2026-04-06T10:26:37Z</time></trkpt><trkpt lat="45.82416809790749" lon="12.254537107960454"><ele>67.0</ele><time>2026-04-06T10:26:38Z</time></trkpt><trkpt lat="45.82399820190811" lon="12.254483955085854"><ele>67.33333333333333</ele><time>2026-04-06T10:26:39Z</time></trkpt><trkpt lat="45.823837026147274" lon="12.254424836919247"><ele>67.66666666666667</ele><time>2026-04-06T10:26:40Z</time></trkpt><trkpt lat="45.82368294970489" lon="12.254370405833916"><ele>68.0</ele><time>2026-04-06T10:26:41Z</time></trkpt><trkpt lat="45.823535682962465" lon="12.254322962187956"><ele>68.0</ele><time>2026-04-06T10:26:42Z</time></trkpt><trkpt lat="45.823404070585475" lon="12.254277872380863"><ele>68.0</ele><time>2026-04-06T10:26:43Z</time></trkpt><trkpt lat="45.823280743581684" lon="12.254236839386524"><ele>68.0</ele><time>2026-04-06T10:26:44Z</time></trkpt><trkpt lat="45.823168196878775" lon="12.254191989309547"><ele>68.0</ele><time>2026-04-06T10:26:45Z</time></trkpt><trkpt lat="45.82307898426867" lon="12.25413934872802"><ele>68.0</ele><time>2026-04-06T10:26:46Z</time></trkpt><trkpt lat="45.823005677112874" lon="12.254100586313324"><ele>68.0</ele><time>2026-04-06T10:26:47Z</time></trkpt><trkpt lat="45.82289309110652" lon="12.254050466989336"><ele>68.0</ele><time>2026-04-06T10:26:49Z</time></trkpt><trkpt lat="45.822805540542454" lon="12.253956291812823"><ele>68.0</ele><time>2026-04-06T10:26:59Z</time></trkpt><trkpt lat="45.8227432266803" lon="12.253872830644085"><ele>68.0</ele><time>2026-04-06T10:27:00Z</time></trkpt><trkpt lat="45.822670155447504" lon="12.253795056035916"><ele>68.0</ele><time>2026-04-06T10:27:01Z</time></trkpt><trkpt lat="45.822592225740415" lon="12.253772778103082"><ele>68.0</ele><time>2026-04-06T10:27:02Z</time></trkpt><trkpt lat="45.822514957479456" lon="12.2538048858052"><ele>68.0</ele><time>2026-04-06T10:27:03Z</time></trkpt><trkpt lat="45.82242809479826" lon="12.253870693992456"><ele>68.0</ele><time>2026-04-06T10:27:04Z</time></trkpt><trkpt lat="45.82233260894168" lon="12.253913232862894"><ele>68.0</ele><time>2026-04-06T10:27:05Z</time></trkpt><trkpt lat="45.82222292921889" lon="12.253894917711081"><ele>68.0</ele><time>2026-04-06T10:27:06Z</time></trkpt><trkpt lat="45.82207425822703" lon="12.253831473092962"><ele>68.0</ele><time>2026-04-06T10:27:07Z</time></trkpt><trkpt lat="45.82191666234547" lon="12.253755522769932"><ele>68.0</ele><time>2026-04-06T10:27:08Z</time></trkpt><trkpt lat="45.82176295694064" lon="12.25371391636399"><ele>67.66666666666667</ele><time>2026-04-06T10:27:09Z</time></trkpt><trkpt lat="45.8215897665783" lon="12.253673679250511"><ele>67.33333333333333</ele><time>2026-04-06T10:27:10Z</time></trkpt><trkpt lat="45.82140225006542" lon="12.253600425698865"><ele>67.0</ele><time>2026-04-06T10:27:11Z</time></trkpt><trkpt lat="45.82122301028604" lon="12.253532232700207"><ele>67.0</ele><time>2026-04-06T10:27:12Z</time></trkpt><trkpt lat="45.821042935664245" lon="12.253467600829094"><ele>67.0</ele><time>2026-04-06T10:27:13Z</time></trkpt><trkpt lat="45.82086977937625" lon="12.253405186832369"><ele>67.0</ele><time>2026-04-06T10:27:14Z</time></trkpt><trkpt lat="45.82069233976011" lon="12.25332223205405"><ele>67.0</ele><time>2026-04-06T10:27:15Z</time></trkpt><trkpt lat="45.82049709972662" lon="12.253223802805076"><ele>67.0</ele><time>2026-04-06T10:27:16Z</time></trkpt><trkpt lat="45.82031630724756" lon="12.253122743882727"><ele>67.0</ele><time>2026-04-06T10:27:17Z</time></trkpt><trkpt lat="45.82015600462578" lon="12.25303036377944"><ele>67.0</ele><time>2026-04-06T10:27:18Z</time></trkpt><trkpt lat="45.820008108682444" lon="12.252941891759704"><ele>67.0</ele><time>2026-04-06T10:27:19Z</time></trkpt><trkpt lat="45.819871120072996" lon="12.252848607209739"><ele>67.0</ele><time>2026-04-06T10:27:20Z</time></trkpt><trkpt lat="45.81972875239373" lon="12.25275025635746"><ele>67.0</ele><time>2026-04-06T10:27:21Z</time></trkpt><trkpt lat="45.81958419175107" lon="12.252630353571707"><ele>67.0</ele><time>2026-04-06T10:27:22Z</time></trkpt><trkpt lat="45.8194429018606" lon="12.252504794774891"><ele>67.0</ele><time>2026-04-06T10:27:23Z</time></trkpt><trkpt lat="45.819325898565154" lon="12.252370225638368"><ele>67.0</ele><time>2026-04-06T10:27:24Z</time></trkpt><trkpt lat="45.81920293035745" lon="12.252255869492396"><ele>67.0</ele><time>2026-04-06T10:27:25Z</time></trkpt><trkpt lat="45.81908007573188" lon="12.252141987567008"><ele>67.0</ele><time>2026-04-06T10:27:26Z</time></trkpt><trkpt lat="45.81893174976444" lon="12.25202906328159"><ele>67.0</ele><time>2026-04-06T10:27:27Z</time></trkpt><trkpt lat="45.818801040352405" lon="12.251911363194475"><ele>67.0</ele><time>2026-04-06T10:27:28Z</time></trkpt><trkpt lat="45.81869075581234" lon="12.251782943409431"><ele>67.0</ele><time>2026-04-06T10:27:29Z</time></trkpt><trkpt lat="45.818566732066564" lon="12.251694936557776"><ele>67.0</ele><time>2026-04-06T10:27:30Z</time></trkpt><trkpt lat="45.81845387615284" lon="12.251587439868054"><ele>66.75</ele><time>2026-04-06T10:27:31Z</time></trkpt><trkpt lat="45.81834652966632" lon="12.25146252536811"><ele>66.5</ele><time>2026-04-06T10:27:32Z</time></trkpt><trkpt lat="45.818224622151526" lon="12.251349211740807"><ele>66.25</ele><time>2026-04-06T10:27:33Z</time></trkpt><trkpt lat="45.818089573442556" lon="12.251252612172493"><ele>66.0</ele><time>2026-04-06T10:27:34Z</time></trkpt><trkpt lat="45.81796220176438" lon="12.25113386398154"><ele>65.75</ele><time>2026-04-06T10:27:35Z</time></trkpt><trkpt lat="45.81784014493552" lon="12.25101737044617"><ele>65.5</ele><time>2026-04-06T10:27:36Z</time></trkpt><trkpt lat="45.81772151770897" lon="12.250901847186556"><ele>65.25</ele><time>2026-04-06T10:27:37Z</time></trkpt><trkpt lat="45.81759034860864" lon="12.250782139488303"><ele>65.0</ele><time>2026-04-06T10:27:38Z</time></trkpt><trkpt lat="45.817448814105944" lon="12.250662392996846"><ele>64.33333333333334</ele><time>2026-04-06T10:27:39Z</time></trkpt><trkpt lat="45.817305121099714" lon="12.250501867318594"><ele>63.66666666666667</ele><time>2026-04-06T10:27:40Z</time></trkpt><trkpt lat="45.817133836500595" lon="12.250344024052447"><ele>63.0</ele><time>2026-04-06T10:27:41Z</time></trkpt><trkpt lat="45.81693517218159" lon="12.250187035334951"><ele>62.0</ele><time>2026-04-06T10:27:42Z</time></trkpt><trkpt lat="45.816742278876596" lon="12.249995877111209"><ele>61.0</ele><time>2026-04-06T10:27:43Z</time></trkpt><trkpt lat="45.81655563355064" lon="12.249828470857034"><ele>60.666666666666664</ele><time>2026-04-06T10:27:44Z</time></trkpt><trkpt lat="45.81637996056885" lon="12.249674928055706"><ele>60.33333333333333</ele><time>2026-04-06T10:27:45Z</time></trkpt><trkpt lat="45.81622093156557" lon="12.249526296641054"><ele>60.0</ele><time>2026-04-06T10:27:46Z</time></trkpt><trkpt lat="45.81606661051921" lon="12.249383992762866"><ele>60.33333333333333</ele><time>2026-04-06T10:27:47Z</time></trkpt><trkpt lat="45.81591956929228" lon="12.249250120558674"><ele>60.666666666666664</ele><time>2026-04-06T10:27:48Z</time></trkpt><trkpt lat="45.81576966878389" lon="12.249111737311498"><ele>61.0</ele><time>2026-04-06T10:27:49Z</time></trkpt><trkpt lat="45.8156293339511" lon="12.248979078339058"><ele>61.5</ele><time>2026-04-06T10:27:50Z</time></trkpt><trkpt lat="45.81549693499057" lon="12.248860916205924"><ele>62.0</ele><time>2026-04-06T10:27:51Z</time></trkpt><trkpt lat="45.81537232817857" lon="12.248747754714753"><ele>62.5</ele><time>2026-04-06T10:27:52Z</time></trkpt><trkpt lat="45.81525751894451" lon="12.24864066491384"><ele>63.0</ele><time>2026-04-06T10:27:53Z</time></trkpt><trkpt lat="45.815158300963084" lon="12.248545179068206"><ele>64.4</ele><time>2026-04-06T10:27:54Z</time></trkpt><trkpt lat="45.81507713289709" lon="12.248465465218981"><ele>65.8</ele><time>2026-04-06T10:27:55Z</time></trkpt><trkpt lat="45.81500425861317" lon="12.248374020024539"><ele>67.2</ele><time>2026-04-06T10:27:56Z</time></trkpt><trkpt lat="45.81494392093829" lon="12.24826313361916"><ele>68.6</ele><time>2026-04-06T10:27:57Z</time></trkpt><trkpt lat="45.814893337248144" lon="12.24814130470628"><ele>70.0</ele><time>2026-04-06T10:27:58Z</time></trkpt><trkpt lat="45.81485706013292" lon="12.248015303386769"><ele>70.0</ele><time>2026-04-06T10:27:59Z</time></trkpt><trkpt lat="45.81483368402481" lon="12.247873922200945"><ele>70.0</ele><time>2026-04-06T10:28:00Z</time></trkpt><trkpt lat="45.81480858694389" lon="12.247727702794629"><ele>70.0</ele><time>2026-04-06T10:28:01Z</time></trkpt><trkpt lat="45.81476799417514" lon="12.247571265028071"><ele>70.0</ele><time>2026-04-06T10:28:02Z</time></trkpt><trkpt lat="45.81471956678674" lon="12.247391257507136"><ele>69.0</ele><time>2026-04-06T10:28:03Z</time></trkpt><trkpt lat="45.81466672485447" lon="12.247190022113715"><ele>68.0</ele><time>2026-04-06T10:28:04Z</time></trkpt><trkpt lat="45.81458697462979" lon="12.246977848437796"><ele>67.0</ele><time>2026-04-06T10:28:05Z</time></trkpt><trkpt lat="45.81448963816653" lon="12.246765188908013"><ele>67.0</ele><time>2026-04-06T10:28:06Z</time></trkpt><trkpt lat="45.81439967675082" lon="12.24656407606051"><ele>67.0</ele><time>2026-04-06T10:28:07Z</time></trkpt><trkpt lat="45.814319805711165" lon="12.246390430360789"><ele>67.0</ele><time>2026-04-06T10:28:08Z</time></trkpt><trkpt lat="45.81424059007653" lon="12.246265464345784"><ele>67.0</ele><time>2026-04-06T10:28:09Z</time></trkpt><trkpt lat="45.81419495577322" lon="12.246154453494777"><ele>67.25</ele><time>2026-04-06T10:28:10Z</time></trkpt><trkpt lat="45.814047615620964" lon="12.246160949257291"><ele>67.5</ele><time>2026-04-06T10:28:11Z</time></trkpt><trkpt lat="45.81393182793021" lon="12.246196266946956"><ele>67.75</ele><time>2026-04-06T10:28:12Z</time></trkpt><trkpt lat="45.81383010078538" lon="12.24627051063706"><ele>68.0</ele><time>2026-04-06T10:28:13Z</time></trkpt><trkpt lat="45.813728792805044" lon="12.2464002465685"><ele>68.33333333333334</ele><time>2026-04-06T10:28:14Z</time></trkpt><trkpt lat="45.813593474594484" lon="12.246576050982782"><ele>68.66666666666667</ele><time>2026-04-06T10:28:15Z</time></trkpt><trkpt lat="45.81344642282135" lon="12.246756615754979"><ele>69.0</ele><time>2026-04-06T10:28:16Z</time></trkpt><trkpt lat="45.81328228695817" lon="12.246942183717549"><ele>68.0</ele><time>2026-04-06T10:28:17Z</time></trkpt><trkpt lat="45.81312894623897" lon="12.247122419668862"><ele>67.0</ele><time>2026-04-06T10:28:18Z</time></trkpt><trkpt lat="45.812973764053346" lon="12.247300645482007"><ele>66.0</ele><time>2026-04-06T10:28:19Z</time></trkpt><trkpt lat="45.81281123710201" lon="12.247481539893826"><ele>65.66666666666667</ele><time>2026-04-06T10:28:20Z</time></trkpt><trkpt lat="45.81266394198904" lon="12.247652472249053"><ele>65.33333333333334</ele><time>2026-04-06T10:28:21Z</time></trkpt><trkpt lat="45.81252497053408" lon="12.247814532120742"><ele>65.0</ele><time>2026-04-06T10:28:22Z</time></trkpt><trkpt lat="45.812395677002286" lon="12.247963120443886"><ele>65.5</ele><time>2026-04-06T10:28:23Z</time></trkpt><trkpt lat="45.8122942243677" lon="12.248099338252013"><ele>66.0</ele><time>2026-04-06T10:28:24Z</time></trkpt><trkpt lat="45.81221012848284" lon="12.24826295004856"><ele>66.5</ele><time>2026-04-06T10:28:25Z</time></trkpt><trkpt lat="45.8121425781475" lon="12.24846057014623"><ele>67.0</ele><time>2026-04-06T10:28:26Z</time></trkpt><trkpt lat="45.81207825066024" lon="12.248657672000952"><ele>67.0</ele><time>2026-04-06T10:28:27Z</time></trkpt><trkpt lat="45.812002419818604" lon="12.248822616364501"><ele>67.0</ele><time>2026-04-06T10:28:28Z</time></trkpt><trkpt lat="45.81189889994298" lon="12.248960178608103"><ele>67.0</ele><time>2026-04-06T10:28:29Z</time></trkpt><trkpt lat="45.81177377226768" lon="12.249062311885181"><ele>67.0</ele><time>2026-04-06T10:28:30Z</time></trkpt><trkpt lat="45.8116220995264" lon="12.24912863259508"><ele>67.0</ele><time>2026-04-06T10:28:31Z</time></trkpt><trkpt lat="45.81143754046729" lon="12.249180642116569"><ele>67.0</ele><time>2026-04-06T10:28:32Z</time></trkpt><trkpt lat="45.81124474883007" lon="12.249262184032908"><ele>67.0</ele><time>2026-04-06T10:28:33Z</time></trkpt><trkpt lat="45.811062325573815" lon="12.249329423821473"><ele>67.5</ele><time>2026-04-06T10:28:34Z</time></trkpt><trkpt lat="45.810840201626334" lon="12.249401809514854"><ele>68.0</ele><time>2026-04-06T10:28:35Z</time></trkpt><trkpt lat="45.81060170799473" lon="12.249475375090896"><ele>68.0</ele><time>2026-04-06T10:28:36Z</time></trkpt><trkpt lat="45.8103553280163" lon="12.249546389446314"><ele>68.0</ele><time>2026-04-06T10:28:37Z</time></trkpt><trkpt lat="45.81011525625692" lon="12.249642872320512"><ele>66.5</ele><time>2026-04-06T10:28:38Z</time></trkpt><trkpt lat="45.80985873875107" lon="12.24974084162369"><ele>65.0</ele><time>2026-04-06T10:28:39Z</time></trkpt><trkpt lat="45.809588979401596" lon="12.249820952550978"><ele>65.0</ele><time>2026-04-06T10:28:40Z</time></trkpt><trkpt lat="45.80933013582418" lon="12.249887690445032"><ele>65.0</ele><time>2026-04-06T10:28:41Z</time></trkpt><trkpt lat="45.8090729819432" lon="12.249964209698565"><ele>65.0</ele><time>2026-04-06T10:28:42Z</time></trkpt><trkpt lat="45.80879743203524" lon="12.250051184299767"><ele>65.0</ele><time>2026-04-06T10:28:43Z</time></trkpt><trkpt lat="45.808507084862896" lon="12.250142431069808"><ele>64.0</ele><time>2026-04-06T10:28:44Z</time></trkpt><trkpt lat="45.808214067725" lon="12.25023474492966"><ele>63.0</ele><time>2026-04-06T10:28:45Z</time></trkpt><trkpt lat="45.807921320821116" lon="12.25032973435355"><ele>63.5</ele><time>2026-04-06T10:28:46Z</time></trkpt><trkpt lat="45.80762821039633" lon="12.250429330202923"><ele>64.0</ele><time>2026-04-06T10:28:47Z</time></trkpt><trkpt lat="45.80733035375237" lon="12.25052631453286"><ele>64.0</ele><time>2026-04-06T10:28:48Z</time></trkpt><trkpt lat="45.80703077436916" lon="12.25062589512021"><ele>64.0</ele><time>2026-04-06T10:28:49Z</time></trkpt><trkpt lat="45.806730539617035" lon="12.250730869270885"><ele>64.0</ele><time>2026-04-06T10:28:50Z</time></trkpt><trkpt lat="45.80643802819981" lon="12.250824775111328"><ele>64.0</ele><time>2026-04-06T10:28:51Z</time></trkpt><trkpt lat="45.806152661757146" lon="12.250918074833686"><ele>63.5</ele><time>2026-04-06T10:28:52Z</time></trkpt><trkpt lat="45.80586851305148" lon="12.25100892653392"><ele>63.0</ele><time>2026-04-06T10:28:53Z</time></trkpt><trkpt lat="45.805585745786324" lon="12.251099205039036"><ele>63.0</ele><time>2026-04-06T10:28:54Z</time></trkpt><trkpt lat="45.80531368101221" lon="12.251186443244514"><ele>63.0</ele><time>2026-04-06T10:28:55Z</time></trkpt><trkpt lat="45.80506009121447" lon="12.251270242335103"><ele>64.0</ele><time>2026-04-06T10:28:56Z</time></trkpt><trkpt lat="45.80476804454569" lon="12.25135885259776"><ele>65.0</ele><time>2026-04-06T10:28:57Z</time></trkpt><trkpt lat="45.804515347798954" lon="12.251449046407227"><ele>64.5</ele><time>2026-04-06T10:28:58Z</time></trkpt><trkpt lat="45.80426690718149" lon="12.251523195512624"><ele>64.0</ele><time>2026-04-06T10:28:59Z</time></trkpt><trkpt lat="45.80402042992022" lon="12.251603533398209"><ele>64.0</ele><time>2026-04-06T10:29:00Z</time></trkpt><trkpt lat="45.803768719913506" lon="12.251688619398582"><ele>64.0</ele><time>2026-04-06T10:29:01Z</time></trkpt><trkpt lat="45.8035245119268" lon="12.251776654128294"><ele>63.0</ele><time>2026-04-06T10:29:02Z</time></trkpt><trkpt lat="45.803262558656556" lon="12.251858380950043"><ele>62.0</ele><time>2026-04-06T10:29:03Z</time></trkpt><trkpt lat="45.80299994059832" lon="12.251943325125032"><ele>62.0</ele><time>2026-04-06T10:29:04Z</time></trkpt><trkpt lat="45.802731340709734" lon="12.252033971032589"><ele>62.0</ele><time>2026-04-06T10:29:05Z</time></trkpt><trkpt lat="45.80246171121249" lon="12.252122732875476"><ele>62.5</ele><time>2026-04-06T10:29:06Z</time></trkpt><trkpt lat="45.80218295070056" lon="12.252208447318928"><ele>63.0</ele><time>2026-04-06T10:29:07Z</time></trkpt><trkpt lat="45.80189214914422" lon="12.252302160317205"><ele>62.5</ele><time>2026-04-06T10:29:08Z</time></trkpt><trkpt lat="45.801600872430996" lon="12.252399083466344"><ele>62.0</ele><time>2026-04-06T10:29:09Z</time></trkpt><trkpt lat="45.801304089232524" lon="12.252500188241608"><ele>62.0</ele><time>2026-04-06T10:29:10Z</time></trkpt><trkpt lat="45.80100255848443" lon="12.252602715171975"><ele>62.0</ele><time>2026-04-06T10:29:11Z</time></trkpt><trkpt lat="45.80070181261055" lon="12.25269661125495"><ele>61.5</ele><time>2026-04-06T10:29:12Z</time></trkpt><trkpt lat="45.800417473483584" lon="12.25279074792741"><ele>61.0</ele><time>2026-04-06T10:29:13Z</time></trkpt><trkpt lat="45.80014072447993" lon="12.252884411388168"><ele>60.5</ele><time>2026-04-06T10:29:14Z</time></trkpt><trkpt lat="45.79986845473444" lon="12.25297251083563"><ele>60.0</ele><time>2026-04-06T10:29:15Z</time></trkpt><trkpt lat="45.799597178770405" lon="12.253064675173494"><ele>60.0</ele><time>2026-04-06T10:29:16Z</time></trkpt><trkpt lat="45.79933023155943" lon="12.253145059686528"><ele>60.0</ele><time>2026-04-06T10:29:17Z</time></trkpt><trkpt lat="45.799065148119915" lon="12.253234543733248"><ele>60.0</ele><time>2026-04-06T10:29:18Z</time></trkpt><trkpt lat="45.798799833607" lon="12.253322749045745"><ele>60.0</ele><time>2026-04-06T10:29:19Z</time></trkpt><trkpt lat="45.79852335071054" lon="12.253420116898992"><ele>59.5</ele><time>2026-04-06T10:29:20Z</time></trkpt><trkpt lat="45.79827101315062" lon="12.253505301752657"><ele>59.0</ele><time>2026-04-06T10:29:21Z</time></trkpt><trkpt lat="45.798030947222934" lon="12.25358100246842"><ele>59.0</ele><time>2026-04-06T10:29:22Z</time></trkpt><trkpt lat="45.79778561867891" lon="12.253657418800824"><ele>59.0</ele><time>2026-04-06T10:29:23Z</time></trkpt><trkpt lat="45.79753170412417" lon="12.253740120252424"><ele>57.5</ele><time>2026-04-06T10:29:24Z</time></trkpt><trkpt lat="45.79727316246516" lon="12.253832685802358"><ele>56.0</ele><time>2026-04-06T10:29:25Z</time></trkpt><trkpt lat="45.797010943594195" lon="12.253919816512"><ele>56.5</ele><time>2026-04-06T10:29:26Z</time></trkpt><trkpt lat="45.7967511690169" lon="12.254010244961124"><ele>57.0</ele><time>2026-04-06T10:29:27Z</time></trkpt><trkpt lat="45.796499289189384" lon="12.254103236595098"><ele>57.0</ele><time>2026-04-06T10:29:28Z</time></trkpt><trkpt lat="45.796245696666425" lon="12.25418303988687"><ele>57.0</ele><time>2026-04-06T10:29:29Z</time></trkpt><trkpt lat="45.79600195832952" lon="12.254258516449273"><ele>57.33333333333333</ele><time>2026-04-06T10:29:30Z</time></trkpt><trkpt lat="45.795776888276265" lon="12.254330348881998"><ele>57.666666666666664</ele><time>2026-04-06T10:29:31Z</time></trkpt><trkpt lat="45.795567797501924" lon="12.25439604344706"><ele>58.0</ele><time>2026-04-06T10:29:32Z</time></trkpt><trkpt lat="45.795371177658446" lon="12.254458311648982"><ele>58.0</ele><time>2026-04-06T10:29:33Z</time></trkpt><trkpt lat="45.79518253196495" lon="12.254522064959326"><ele>58.0</ele><time>2026-04-06T10:29:34Z</time></trkpt><trkpt lat="45.79498555866731" lon="12.254590651921"><ele>58.0</ele><time>2026-04-06T10:29:35Z</time></trkpt><trkpt lat="45.79476009829969" lon="12.254670553190405"><ele>58.5</ele><time>2026-04-06T10:29:36Z</time></trkpt><trkpt lat="45.7945115976979" lon="12.254746394017632"><ele>59.0</ele><time>2026-04-06T10:29:37Z</time></trkpt><trkpt lat="45.79426053679849" lon="12.254822218885986"><ele>58.0</ele><time>2026-04-06T10:29:38Z</time></trkpt><trkpt lat="45.79401492399697" lon="12.254907514123143"><ele>57.0</ele><time>2026-04-06T10:29:39Z</time></trkpt><trkpt lat="45.793774488110245" lon="12.25498769544785"><ele>57.0</ele><time>2026-04-06T10:29:40Z</time></trkpt><trkpt lat="45.79354118904657" lon="12.255062996088803"><ele>57.0</ele><time>2026-04-06T10:29:41Z</time></trkpt><trkpt lat="45.793326215091405" lon="12.255133513977327"><ele>57.0</ele><time>2026-04-06T10:29:42Z</time></trkpt><trkpt lat="45.793125232207714" lon="12.255198185345103"><ele>57.0</ele><time>2026-04-06T10:29:43Z</time></trkpt><trkpt lat="45.79293086841154" lon="12.255263794993462"><ele>57.0</ele><time>2026-04-06T10:29:44Z</time></trkpt><trkpt lat="45.79273802061624" lon="12.255325440231003"><ele>56.66666666666667</ele><time>2026-04-06T10:29:45Z</time></trkpt><trkpt lat="45.79253865611129" lon="12.255390635000767"><ele>56.333333333333336</ele><time>2026-04-06T10:29:46Z</time></trkpt><trkpt lat="45.79233418688301" lon="12.255456564237798"><ele>56.0</ele><time>2026-04-06T10:29:47Z</time></trkpt><trkpt lat="45.792128456485365" lon="12.25552203787262"><ele>56.0</ele><time>2026-04-06T10:29:48Z</time></trkpt><trkpt lat="45.79191835139832" lon="12.255595635344829"><ele>56.0</ele><time>2026-04-06T10:29:49Z</time></trkpt><trkpt lat="45.79168961615857" lon="12.255677030055432"><ele>56.5</ele><time>2026-04-06T10:29:50Z</time></trkpt><trkpt lat="45.79143629405683" lon="12.255759701011396"><ele>57.0</ele><time>2026-04-06T10:29:51Z</time></trkpt><trkpt lat="45.79117118746087" lon="12.255842970979437"><ele>58.0</ele><time>2026-04-06T10:29:52Z</time></trkpt><trkpt lat="45.79091536071076" lon="12.255921958233762"><ele>59.0</ele><time>2026-04-06T10:29:53Z</time></trkpt><trkpt lat="45.79067156986975" lon="12.256003524484017"><ele>59.0</ele><time>2026-04-06T10:29:54Z</time></trkpt><trkpt lat="45.790440165900975" lon="12.256081672698297"><ele>59.0</ele><time>2026-04-06T10:29:55Z</time></trkpt><trkpt lat="45.79019761521064" lon="12.25617114438626"><ele>57.0</ele><time>2026-04-06T10:29:56Z</time></trkpt><trkpt lat="45.78994058597039" lon="12.256257611905601"><ele>55.0</ele><time>2026-04-06T10:29:57Z</time></trkpt><trkpt lat="45.789672622922815" lon="12.256334241084799"><ele>55.0</ele><time>2026-04-06T10:29:58Z</time></trkpt><trkpt lat="45.78940979300174" lon="12.25641259165574"><ele>55.0</ele><time>2026-04-06T10:29:59Z</time></trkpt><trkpt lat="45.78914388422255" lon="12.256501581270852"><ele>55.5</ele><time>2026-04-06T10:30:00Z</time></trkpt><trkpt lat="45.78887752905607" lon="12.256591249229588"><ele>56.0</ele><time>2026-04-06T10:30:01Z</time></trkpt><trkpt lat="45.78861623101657" lon="12.256678310835083"><ele>56.0</ele><time>2026-04-06T10:30:02Z</time></trkpt><trkpt lat="45.78838074790576" lon="12.256758572114123"><ele>56.0</ele><time>2026-04-06T10:30:03Z</time></trkpt><trkpt lat="45.78816010432426" lon="12.25682925446135"><ele>56.0</ele><time>2026-04-06T10:30:04Z</time></trkpt><trkpt lat="45.78795176825526" lon="12.25689401352637"><ele>56.0</ele><time>2026-04-06T10:30:05Z</time></trkpt><trkpt lat="45.787741331410004" lon="12.256960832228984"><ele>56.0</ele><time>2026-04-06T10:30:06Z</time></trkpt><trkpt lat="45.787531270964074" lon="12.257030929759164"><ele>56.333333333333336</ele><time>2026-04-06T10:30:07Z</time></trkpt><trkpt lat="45.78733324754648" lon="12.25709857062679"><ele>56.66666666666667</ele><time>2026-04-06T10:30:08Z</time></trkpt><trkpt lat="45.78714314730446" lon="12.257160504383926"><ele>57.0</ele><time>2026-04-06T10:30:09Z</time></trkpt><trkpt lat="45.786956609005905" lon="12.257219108878711"><ele>57.0</ele><time>2026-04-06T10:30:10Z</time></trkpt><trkpt lat="45.786775306464556" lon="12.25727990319888"><ele>57.0</ele><time>2026-04-06T10:30:11Z</time></trkpt><trkpt lat="45.7866065119356" lon="12.257337906316483"><ele>57.0</ele><time>2026-04-06T10:30:12Z</time></trkpt><trkpt lat="45.7864390025537" lon="12.257394890142285"><ele>57.0</ele><time>2026-04-06T10:30:13Z</time></trkpt><trkpt lat="45.78625348401679" lon="12.257455378091354"><ele>57.0</ele><time>2026-04-06T10:30:14Z</time></trkpt><trkpt lat="45.78605895083533" lon="12.257516557439343"><ele>57.0</ele><time>2026-04-06T10:30:15Z</time></trkpt><trkpt lat="45.785875408179976" lon="12.257575806784997"><ele>57.0</ele><time>2026-04-06T10:30:16Z</time></trkpt><trkpt lat="45.78570014621985" lon="12.257634170599871"><ele>57.0</ele><time>2026-04-06T10:30:17Z</time></trkpt><trkpt lat="45.785508196599174" lon="12.257679100856999"><ele>57.0</ele><time>2026-04-06T10:30:18Z</time></trkpt><trkpt lat="45.78530343459858" lon="12.257783261135936"><ele>57.0</ele><time>2026-04-06T10:30:19Z</time></trkpt><trkpt lat="45.78508968236133" lon="12.257850404971226"><ele>57.0</ele><time>2026-04-06T10:30:20Z</time></trkpt><trkpt lat="45.784891896183545" lon="12.25790397337004"><ele>57.0</ele><time>2026-04-06T10:30:21Z</time></trkpt><trkpt lat="45.78471035865097" lon="12.257962238906472"><ele>57.0</ele><time>2026-04-06T10:30:22Z</time></trkpt><trkpt lat="45.784547796133566" lon="12.258019173822337"><ele>57.0</ele><time>2026-04-06T10:30:23Z</time></trkpt><trkpt lat="45.78440560672909" lon="12.258062950003618"><ele>57.0</ele><time>2026-04-06T10:30:24Z</time></trkpt><trkpt lat="45.78428223806619" lon="12.258098341230832"><ele>57.0</ele><time>2026-04-06T10:30:25Z</time></trkpt><trkpt lat="45.78416517487649" lon="12.25814141123151"><ele>56.5</ele><time>2026-04-06T10:30:26Z</time></trkpt><trkpt lat="45.78405429967234" lon="12.258155894087661"><ele>56.0</ele><time>2026-04-06T10:30:27Z</time></trkpt><trkpt lat="45.783953307250286" lon="12.25818900963155"><ele>55.5</ele><time>2026-04-06T10:30:28Z</time></trkpt><trkpt lat="45.78383551007469" lon="12.258227652476846"><ele>55.0</ele><time>2026-04-06T10:30:29Z</time></trkpt><trkpt lat="45.783698376046395" lon="12.258287304480437"><ele>55.0</ele><time>2026-04-06T10:30:30Z</time></trkpt><trkpt lat="45.78353166118133" lon="12.258339536454548"><ele>55.0</ele><time>2026-04-06T10:30:31Z</time></trkpt><trkpt lat="45.7833741795648" lon="12.258380690727279"><ele>55.0</ele><time>2026-04-06T10:30:32Z</time></trkpt><trkpt lat="45.78324262355568" lon="12.258424473497275"><ele>55.0</ele><time>2026-04-06T10:30:33Z</time></trkpt><trkpt lat="45.78314425934281" lon="12.258479688008352"><ele>55.0</ele><time>2026-04-06T10:30:34Z</time></trkpt><trkpt lat="45.78304578167687" lon="12.258510094926903"><ele>55.0</ele><time>2026-04-06T10:30:35Z</time></trkpt><trkpt lat="45.78294426345252" lon="12.258542355213109"><ele>55.0</ele><time>2026-04-06T10:30:36Z</time></trkpt><trkpt lat="45.7828244886736" lon="12.258583978473224"><ele>55.0</ele><time>2026-04-06T10:30:37Z</time></trkpt><trkpt lat="45.78267762543015" lon="12.258610830550317"><ele>55.33333333333333</ele><time>2026-04-06T10:30:38Z</time></trkpt><trkpt lat="45.782531491150024" lon="12.258680914527714"><ele>55.66666666666667</ele><time>2026-04-06T10:30:39Z</time></trkpt><trkpt lat="45.782371248215604" lon="12.258710074554882"><ele>56.0</ele><time>2026-04-06T10:30:40Z</time></trkpt><trkpt lat="45.782212880350734" lon="12.258761615227959"><ele>56.0</ele><time>2026-04-06T10:30:41Z</time></trkpt><trkpt lat="45.782057549903605" lon="12.258812726047587"><ele>56.0</ele><time>2026-04-06T10:30:42Z</time></trkpt><trkpt lat="45.78189911174677" lon="12.25890054038673"><ele>56.0</ele><time>2026-04-06T10:30:43Z</time></trkpt><trkpt lat="45.78174941379543" lon="12.258968776333319"><ele>56.66666666666667</ele><time>2026-04-06T10:30:44Z</time></trkpt><trkpt lat="45.78158947679312" lon="12.259003533329677"><ele>57.33333333333333</ele><time>2026-04-06T10:30:45Z</time></trkpt><trkpt lat="45.781431068163954" lon="12.259034397705719"><ele>58.0</ele><time>2026-04-06T10:30:46Z</time></trkpt><trkpt lat="45.78126589033757" lon="12.259098286558586"><ele>58.0</ele><time>2026-04-06T10:30:47Z</time></trkpt><trkpt lat="45.78111520251023" lon="12.259153845134941"><ele>58.0</ele><time>2026-04-06T10:30:48Z</time></trkpt><trkpt lat="45.78096900295889" lon="12.259178517572604"><ele>58.0</ele><time>2026-04-06T10:30:49Z</time></trkpt><trkpt lat="45.78083925496283" lon="12.259221032344836"><ele>58.0</ele><time>2026-04-06T10:30:50Z</time></trkpt><trkpt lat="45.78071223763323" lon="12.25926039478219"><ele>57.33333333333333</ele><time>2026-04-06T10:30:51Z</time></trkpt><trkpt lat="45.78057217508412" lon="12.259303344040841"><ele>56.66666666666667</ele><time>2026-04-06T10:30:52Z</time></trkpt><trkpt lat="45.78041235610424" lon="12.259351714311949"><ele>56.0</ele><time>2026-04-06T10:30:53Z</time></trkpt><trkpt lat="45.78024415682512" lon="12.259404269199099"><ele>56.0</ele><time>2026-04-06T10:30:54Z</time></trkpt><trkpt lat="45.780082145014866" lon="12.259467468328438"><ele>56.0</ele><time>2026-04-06T10:30:55Z</time></trkpt><trkpt lat="45.779927746911625" lon="12.259520961466311"><ele>56.0</ele><time>2026-04-06T10:30:56Z</time></trkpt><trkpt lat="45.77978146169558" lon="12.259569337786138"><ele>56.0</ele><time>2026-04-06T10:30:57Z</time></trkpt><trkpt lat="45.77963955143232" lon="12.25961347356828"><ele>56.0</ele><time>2026-04-06T10:30:58Z</time></trkpt><trkpt lat="45.77949539755615" lon="12.259646766075043"><ele>56.0</ele><time>2026-04-06T10:30:59Z</time></trkpt><trkpt lat="45.77934627062194" lon="12.259677723971986"><ele>56.0</ele><time>2026-04-06T10:31:00Z</time></trkpt><trkpt lat="45.77919934125518" lon="12.259702691302053"><ele>55.333333333333336</ele><time>2026-04-06T10:31:01Z</time></trkpt><trkpt lat="45.77904328925293" lon="12.2597193055001"><ele>54.66666666666667</ele><time>2026-04-06T10:31:02Z</time></trkpt><trkpt lat="45.77889184583519" lon="12.2597280461175"><ele>54.0</ele><time>2026-04-06T10:31:03Z</time></trkpt><trkpt lat="45.778745265826366" lon="12.259730316807921"><ele>54.0</ele><time>2026-04-06T10:31:04Z</time></trkpt><trkpt lat="45.778600209637595" lon="12.25972229184019"><ele>54.0</ele><time>2026-04-06T10:31:05Z</time></trkpt><trkpt lat="45.77845975105082" lon="12.259671318375414"><ele>54.0</ele><time>2026-04-06T10:31:06Z</time></trkpt><trkpt lat="45.778312627303805" lon="12.259658369992968"><ele>54.0</ele><time>2026-04-06T10:31:07Z</time></trkpt><trkpt lat="45.77815960481756" lon="12.259602026993345"><ele>54.0</ele><time>2026-04-06T10:31:08Z</time></trkpt><trkpt lat="45.777991955531036" lon="12.259534849518737"><ele>54.0</ele><time>2026-04-06T10:31:09Z</time></trkpt><trkpt lat="45.777818111989255" lon="12.259470543233075"><ele>54.0</ele><time>2026-04-06T10:31:10Z</time></trkpt><trkpt lat="45.777656546678315" lon="12.259400440355371"><ele>54.0</ele><time>2026-04-06T10:31:11Z</time></trkpt><trkpt lat="45.77750999560025" lon="12.259329423039727"><ele>54.0</ele><time>2026-04-06T10:31:12Z</time></trkpt><trkpt lat="45.777378778953405" lon="12.259258490041688"><ele>54.0</ele><time>2026-04-06T10:31:13Z</time></trkpt><trkpt lat="45.777253306531684" lon="12.259181151617682"><ele>54.0</ele><time>2026-04-06T10:31:14Z</time></trkpt><trkpt lat="45.77714148225082" lon="12.259110893244287"><ele>54.0</ele><time>2026-04-06T10:31:15Z</time></trkpt><trkpt lat="45.77703600978442" lon="12.259043081324494"><ele>54.0</ele><time>2026-04-06T10:31:16Z</time></trkpt><trkpt lat="45.77694021283393" lon="12.258970274788707"><ele>54.0</ele><time>2026-04-06T10:31:17Z</time></trkpt><trkpt lat="45.776839040181436" lon="12.258891260222875"><ele>54.0</ele><time>2026-04-06T10:31:18Z</time></trkpt><trkpt lat="45.776724959655034" lon="12.258795147337139"><ele>54.0</ele><time>2026-04-06T10:31:19Z</time></trkpt><trkpt lat="45.776613863965885" lon="12.258685489322424"><ele>54.0</ele><time>2026-04-06T10:31:20Z</time></trkpt><trkpt lat="45.77649832860521" lon="12.258576087885704"><ele>54.0</ele><time>2026-04-06T10:31:21Z</time></trkpt><trkpt lat="45.77637460342901" lon="12.258454844367078"><ele>54.0</ele><time>2026-04-06T10:31:22Z</time></trkpt><trkpt lat="45.776253133510494" lon="12.25831626092744"><ele>54.0</ele><time>2026-04-06T10:31:23Z</time></trkpt><trkpt lat="45.77613853808828" lon="12.258153348896201"><ele>54.0</ele><time>2026-04-06T10:31:24Z</time></trkpt><trkpt lat="45.776028336678934" lon="12.258007224819666"><ele>54.0</ele><time>2026-04-06T10:31:25Z</time></trkpt><trkpt lat="45.77591957654898" lon="12.257857737119659"><ele>53.66666666666667</ele><time>2026-04-06T10:31:26Z</time></trkpt><trkpt lat="45.77580514281235" lon="12.257700451169423"><ele>53.333333333333336</ele><time>2026-04-06T10:31:27Z</time></trkpt><trkpt lat="45.775681980929285" lon="12.257531168646098"><ele>53.0</ele><time>2026-04-06T10:31:28Z</time></trkpt><trkpt lat="45.775556424994306" lon="12.257385696962116"><ele>53.333333333333336</ele><time>2026-04-06T10:31:29Z</time></trkpt><trkpt lat="45.77546566890761" lon="12.257211926207399"><ele>53.66666666666667</ele><time>2026-04-06T10:31:30Z</time></trkpt><trkpt lat="45.775343295510574" lon="12.257067895286289"><ele>54.0</ele><time>2026-04-06T10:31:31Z</time></trkpt><trkpt lat="45.77523547919334" lon="12.256920463688282"><ele>53.66666666666667</ele><time>2026-04-06T10:31:32Z</time></trkpt><trkpt lat="45.7751226610344" lon="12.256769079414719"><ele>53.333333333333336</ele><time>2026-04-06T10:31:33Z</time></trkpt><trkpt lat="45.77498233812255" lon="12.25663402257897"><ele>53.0</ele><time>2026-04-06T10:31:34Z</time></trkpt><trkpt lat="45.774842014252656" lon="12.256482498776078"><ele>52.66666666666667</ele><time>2026-04-06T10:31:35Z</time></trkpt><trkpt lat="45.77467720881351" lon="12.256366405531997"><ele>52.33333333333333</ele><time>2026-04-06T10:31:36Z</time></trkpt><trkpt lat="45.77449548284243" lon="12.256200022316381"><ele>52.0</ele><time>2026-04-06T10:31:37Z</time></trkpt><trkpt lat="45.77428748151015" lon="12.25603942363717"><ele>52.0</ele><time>2026-04-06T10:31:38Z</time></trkpt><trkpt lat="45.774078699954366" lon="12.255889389221778"><ele>52.0</ele><time>2026-04-06T10:31:39Z</time></trkpt><trkpt lat="45.773890994299826" lon="12.255748039780064"><ele>52.0</ele><time>2026-04-06T10:31:40Z</time></trkpt><trkpt lat="45.77369780068301" lon="12.255596819607122"><ele>52.5</ele><time>2026-04-06T10:31:41Z</time></trkpt><trkpt lat="45.77349613598711" lon="12.255434575296277"><ele>53.0</ele><time>2026-04-06T10:31:42Z</time></trkpt><trkpt lat="45.773285614330206" lon="12.255277988660225"><ele>53.0</ele><time>2026-04-06T10:31:43Z</time></trkpt><trkpt lat="45.773070427575355" lon="12.255133473247039"><ele>53.0</ele><time>2026-04-06T10:31:44Z</time></trkpt><trkpt lat="45.77285473824266" lon="12.254992453274115"><ele>53.0</ele><time>2026-04-06T10:31:45Z</time></trkpt><trkpt lat="45.77263439145917" lon="12.254853172412364"><ele>53.0</ele><time>2026-04-06T10:31:46Z</time></trkpt><trkpt lat="45.7724092621954" lon="12.254716665680041"><ele>53.5</ele><time>2026-04-06T10:31:47Z</time></trkpt><trkpt lat="45.772181857592834" lon="12.254569245759349"><ele>54.0</ele><time>2026-04-06T10:31:48Z</time></trkpt><trkpt lat="45.77195989791698" lon="12.254415267397878"><ele>53.33333333333333</ele><time>2026-04-06T10:31:49Z</time></trkpt><trkpt lat="45.77175775924694" lon="12.254279076625533"><ele>52.666666666666664</ele><time>2026-04-06T10:31:50Z</time></trkpt><trkpt lat="45.771571295767096" lon="12.2541537999256"><ele>52.0</ele><time>2026-04-06T10:31:51Z</time></trkpt><trkpt lat="45.771396976971424" lon="12.254035897268443"><ele>51.666666666666664</ele><time>2026-04-06T10:31:52Z</time></trkpt><trkpt lat="45.77121916258029" lon="12.253909503522621"><ele>51.33333333333333</ele><time>2026-04-06T10:31:53Z</time></trkpt><trkpt lat="45.77104078214318" lon="12.25378321668364"><ele>51.0</ele><time>2026-04-06T10:31:54Z</time></trkpt><trkpt lat="45.77087496544261" lon="12.25367723607807"><ele>51.0</ele><time>2026-04-06T10:31:55Z</time></trkpt><trkpt lat="45.77071658419691" lon="12.253568487960033"><ele>51.0</ele><time>2026-04-06T10:31:56Z</time></trkpt><trkpt lat="45.77057150393904" lon="12.253477750565224"><ele>51.0</ele><time>2026-04-06T10:31:57Z</time></trkpt><trkpt lat="45.7704510973557" lon="12.253374917654165"><ele>51.0</ele><time>2026-04-06T10:31:58Z</time></trkpt><trkpt lat="45.77034104514519" lon="12.253308393420426"><ele>51.0</ele><time>2026-04-06T10:31:59Z</time></trkpt><trkpt lat="45.770260055903485" lon="12.253182735057662"><ele>51.0</ele><time>2026-04-06T10:32:00Z</time></trkpt><trkpt lat="45.77020216265633" lon="12.253052885131577"><ele>51.0</ele><time>2026-04-06T10:32:01Z</time></trkpt><trkpt lat="45.77012993602649" lon="12.252966293864349"><ele>51.0</ele><time>2026-04-06T10:32:02Z</time></trkpt><trkpt lat="45.77002792496126" lon="12.252919914954424"><ele>49.666666666666664</ele><time>2026-04-06T10:32:03Z</time></trkpt><trkpt lat="45.769889450342504" lon="12.252908750108073"><ele>48.33333333333333</ele><time>2026-04-06T10:32:04Z</time></trkpt><trkpt lat="45.769719962244814" lon="12.252870763451755"><ele>47.0</ele><time>2026-04-06T10:32:05Z</time></trkpt><trkpt lat="45.769541969127594" lon="12.252730455890894"><ele>48.0</ele><time>2026-04-06T10:32:06Z</time></trkpt><trkpt lat="45.769321473560815" lon="12.252584113517434"><ele>49.0</ele><time>2026-04-06T10:32:07Z</time></trkpt><trkpt lat="45.76906702729058" lon="12.252427845873077"><ele>50.0</ele><time>2026-04-06T10:32:08Z</time></trkpt><trkpt lat="45.76883024619891" lon="12.252260736643853"><ele>51.0</ele><time>2026-04-06T10:32:09Z</time></trkpt><trkpt lat="45.76860714774345" lon="12.252112803438772"><ele>51.5</ele><time>2026-04-06T10:32:10Z</time></trkpt><trkpt lat="45.76839025023937" lon="12.251955772736498"><ele>52.0</ele><time>2026-04-06T10:32:11Z</time></trkpt><trkpt lat="45.76818604599196" lon="12.251815160182861"><ele>52.0</ele><time>2026-04-06T10:32:12Z</time></trkpt><trkpt lat="45.76795846315483" lon="12.251697395669257"><ele>52.0</ele><time>2026-04-06T10:32:13Z</time></trkpt><trkpt lat="45.76769416418461" lon="12.25157825438151"><ele>51.0</ele><time>2026-04-06T10:32:14Z</time></trkpt><trkpt lat="45.76740622749394" lon="12.251467662633335"><ele>50.0</ele><time>2026-04-06T10:32:15Z</time></trkpt><trkpt lat="45.76711509386622" lon="12.251373554021312"><ele>49.0</ele><time>2026-04-06T10:32:16Z</time></trkpt><trkpt lat="45.76685797776948" lon="12.251256258038504"><ele>48.0</ele><time>2026-04-06T10:32:17Z</time></trkpt><trkpt lat="45.76661306036926" lon="12.251162166529376"><ele>48.0</ele><time>2026-04-06T10:32:18Z</time></trkpt><trkpt lat="45.76637395469666" lon="12.251074466898832"><ele>48.0</ele><time>2026-04-06T10:32:19Z</time></trkpt><trkpt lat="45.76615395764755" lon="12.250999510135403"><ele>48.0</ele><time>2026-04-06T10:32:20Z</time></trkpt><trkpt lat="45.76589691237626" lon="12.250896179461023"><ele>48.0</ele><time>2026-04-06T10:32:21Z</time></trkpt><trkpt lat="45.76564730033436" lon="12.25085429710841"><ele>48.0</ele><time>2026-04-06T10:32:22Z</time></trkpt><trkpt lat="45.765367635394945" lon="12.250858944105822"><ele>48.0</ele><time>2026-04-06T10:32:23Z</time></trkpt><trkpt lat="45.76507785836878" lon="12.250891889978517"><ele>48.0</ele><time>2026-04-06T10:32:24Z</time></trkpt><trkpt lat="45.76480329319997" lon="12.2509107976358"><ele>48.0</ele><time>2026-04-06T10:32:25Z</time></trkpt><trkpt lat="45.764561356636506" lon="12.250918176640928"><ele>48.33333333333333</ele><time>2026-04-06T10:32:26Z</time></trkpt><trkpt lat="45.76433460578988" lon="12.250925897028438"><ele>48.666666666666664</ele><time>2026-04-06T10:32:27Z</time></trkpt><trkpt lat="45.76411298128074" lon="12.2509285226266"><ele>49.0</ele><time>2026-04-06T10:32:28Z</time></trkpt><trkpt lat="45.763894613814365" lon="12.250930565351203"><ele>49.0</ele><time>2026-04-06T10:32:29Z</time></trkpt><trkpt lat="45.763685490238565" lon="12.250946701341022"><ele>49.0</ele><time>2026-04-06T10:32:30Z</time></trkpt><trkpt lat="45.76348936051532" lon="12.250951834184402"><ele>49.0</ele><time>2026-04-06T10:32:31Z</time></trkpt><trkpt lat="45.76327705132926" lon="12.250964853388782"><ele>48.5</ele><time>2026-04-06T10:32:32Z</time></trkpt><trkpt lat="45.763050629224175" lon="12.25097457145"><ele>48.0</ele><time>2026-04-06T10:32:33Z</time></trkpt><trkpt lat="45.76280573453484" lon="12.250983423571803"><ele>47.5</ele><time>2026-04-06T10:32:34Z</time></trkpt><trkpt lat="45.76255503034658" lon="12.250970901882036"><ele>47.0</ele><time>2026-04-06T10:32:35Z</time></trkpt><trkpt lat="45.76231923123604" lon="12.250979684708895"><ele>47.0</ele><time>2026-04-06T10:32:36Z</time></trkpt><trkpt lat="45.76209869617264" lon="12.25099374096413"><ele>47.0</ele><time>2026-04-06T10:32:37Z</time></trkpt><trkpt lat="45.761872220489565" lon="12.251013672128341"><ele>47.0</ele><time>2026-04-06T10:32:38Z</time></trkpt><trkpt lat="45.76164441162383" lon="12.251027752889627"><ele>48.5</ele><time>2026-04-06T10:32:39Z</time></trkpt><trkpt lat="45.761421118333786" lon="12.251047898601911"><ele>50.0</ele><time>2026-04-06T10:32:40Z</time></trkpt><trkpt lat="45.76119347939585" lon="12.251085239922263"><ele>51.66666666666667</ele><time>2026-04-06T10:32:41Z</time></trkpt><trkpt lat="45.76096885439373" lon="12.251111442026799"><ele>53.33333333333333</ele><time>2026-04-06T10:32:42Z</time></trkpt><trkpt lat="45.76074521807011" lon="12.25112426088633"><ele>55.0</ele><time>2026-04-06T10:32:43Z</time></trkpt><trkpt lat="45.76052523780216" lon="12.25114144933464"><ele>55.0</ele><time>2026-04-06T10:32:44Z</time></trkpt><trkpt lat="45.76030121028826" lon="12.251168122428473"><ele>55.0</ele><time>2026-04-06T10:32:45Z</time></trkpt><trkpt lat="45.76007805846711" lon="12.251193789394513"><ele>55.0</ele><time>2026-04-06T10:32:46Z</time></trkpt><trkpt lat="45.75986824360895" lon="12.251213542746285"><ele>52.666666666666664</ele><time>2026-04-06T10:32:47Z</time></trkpt><trkpt lat="45.75967570122511" lon="12.251234973860967"><ele>50.33333333333333</ele><time>2026-04-06T10:32:48Z</time></trkpt><trkpt lat="45.759493316323386" lon="12.251260026509295"><ele>48.0</ele><time>2026-04-06T10:32:49Z</time></trkpt><trkpt lat="45.75931778231283" lon="12.251283287255154"><ele>47.333333333333336</ele><time>2026-04-06T10:32:50Z</time></trkpt><trkpt lat="45.75914206132633" lon="12.251300392076763"><ele>46.66666666666667</ele><time>2026-04-06T10:32:51Z</time></trkpt><trkpt lat="45.758969132684456" lon="12.251319895987688"><ele>46.0</ele><time>2026-04-06T10:32:52Z</time></trkpt><trkpt lat="45.758805870334406" lon="12.251339691415804"><ele>46.0</ele><time>2026-04-06T10:32:53Z</time></trkpt><trkpt lat="45.75865468389027" lon="12.251366539310453"><ele>46.0</ele><time>2026-04-06T10:32:54Z</time></trkpt><trkpt lat="45.758506293005624" lon="12.251391070896664"><ele>46.0</ele><time>2026-04-06T10:32:55Z</time></trkpt><trkpt lat="45.75835972425568" lon="12.251410050670447"><ele>46.0</ele><time>2026-04-06T10:32:56Z</time></trkpt><trkpt lat="45.75821233302225" lon="12.251434201378466"><ele>46.0</ele><time>2026-04-06T10:32:57Z</time></trkpt><trkpt lat="45.75806392143685" lon="12.251434722394677"><ele>46.0</ele><time>2026-04-06T10:32:58Z</time></trkpt><trkpt lat="45.75788124567307" lon="12.251411702387244"><ele>46.0</ele><time>2026-04-06T10:32:59Z</time></trkpt><trkpt lat="45.757689488871975" lon="12.251396914614773"><ele>46.0</ele><time>2026-04-06T10:33:00Z</time></trkpt><trkpt lat="45.7574804927007" lon="12.251397777715407"><ele>46.0</ele><time>2026-04-06T10:33:01Z</time></trkpt><trkpt lat="45.757262757633654" lon="12.251384006609708"><ele>46.0</ele><time>2026-04-06T10:33:02Z</time></trkpt><trkpt lat="45.757060313076074" lon="12.251363397780281"><ele>46.0</ele><time>2026-04-06T10:33:03Z</time></trkpt><trkpt lat="45.75687053895947" lon="12.251343357870079"><ele>46.0</ele><time>2026-04-06T10:33:04Z</time></trkpt><trkpt lat="45.756702336706056" lon="12.251312402322723"><ele>46.0</ele><time>2026-04-06T10:33:05Z</time></trkpt><trkpt lat="45.75653970251697" lon="12.251287816839358"><ele>46.66666666666667</ele><time>2026-04-06T10:33:06Z</time></trkpt><trkpt lat="45.75637505806431" lon="12.251274569245302"><ele>47.333333333333336</ele><time>2026-04-06T10:33:07Z</time></trkpt><trkpt lat="45.756219373123514" lon="12.25125763532799"><ele>48.0</ele><time>2026-04-06T10:33:08Z</time></trkpt><trkpt lat="45.75606873202707" lon="12.251222377818587"><ele>48.0</ele><time>2026-04-06T10:33:09Z</time></trkpt><trkpt lat="45.75591615256069" lon="12.251191719321016"><ele>48.0</ele><time>2026-04-06T10:33:10Z</time></trkpt><trkpt lat="45.755772252305455" lon="12.251171487089932"><ele>48.0</ele><time>2026-04-06T10:33:11Z</time></trkpt><trkpt lat="45.75563438783778" lon="12.25116083154524"><ele>48.0</ele><time>2026-04-06T10:33:12Z</time></trkpt><trkpt lat="45.75550077230955" lon="12.251144634760479"><ele>48.0</ele><time>2026-04-06T10:33:13Z</time></trkpt><trkpt lat="45.7553675207695" lon="12.251131449581848"><ele>48.0</ele><time>2026-04-06T10:33:14Z</time></trkpt><trkpt lat="45.75523023757056" lon="12.251106678669409"><ele>48.0</ele><time>2026-04-06T10:33:15Z</time></trkpt><trkpt lat="45.75507187790269" lon="12.251074538474526"><ele>48.0</ele><time>2026-04-06T10:33:16Z</time></trkpt><trkpt lat="45.754886598752975" lon="12.251044327339232"><ele>46.666666666666664</ele><time>2026-04-06T10:33:17Z</time></trkpt><trkpt lat="45.754677378359666" lon="12.25102600105893"><ele>45.33333333333333</ele><time>2026-04-06T10:33:18Z</time></trkpt><trkpt lat="45.75445408421661" lon="12.250999923784624"><ele>44.0</ele><time>2026-04-06T10:33:19Z</time></trkpt><trkpt lat="45.754231296756295" lon="12.250964640703288"><ele>43.5</ele><time>2026-04-06T10:33:20Z</time></trkpt><trkpt lat="45.75400682908021" lon="12.250945357249991"><ele>43.0</ele><time>2026-04-06T10:33:21Z</time></trkpt><trkpt lat="45.7537615779879" lon="12.250902152495103"><ele>43.5</ele><time>2026-04-06T10:33:22Z</time></trkpt><trkpt lat="45.75350262135819" lon="12.250843455409505"><ele>44.0</ele><time>2026-04-06T10:33:23Z</time></trkpt><trkpt lat="45.753236225192715" lon="12.250799929298676"><ele>44.0</ele><time>2026-04-06T10:33:24Z</time></trkpt><trkpt lat="45.75296437008788" lon="12.250764533114507"><ele>44.0</ele><time>2026-04-06T10:33:25Z</time></trkpt><trkpt lat="45.75268982684398" lon="12.250722014405381"><ele>43.5</ele><time>2026-04-06T10:33:26Z</time></trkpt><trkpt lat="45.75242080204437" lon="12.250677563279247"><ele>43.0</ele><time>2026-04-06T10:33:27Z</time></trkpt><trkpt lat="45.75217464345338" lon="12.250641660529599"><ele>42.5</ele><time>2026-04-06T10:33:28Z</time></trkpt><trkpt lat="45.75192853553983" lon="12.250604197122964"><ele>42.0</ele><time>2026-04-06T10:33:29Z</time></trkpt><trkpt lat="45.75166215794345" lon="12.250562292479856"><ele>42.0</ele><time>2026-04-06T10:33:30Z</time></trkpt><trkpt lat="45.75138940161735" lon="12.25051965246519"><ele>42.0</ele><time>2026-04-06T10:33:31Z</time></trkpt><trkpt lat="45.75112883211132" lon="12.250483365394407"><ele>41.0</ele><time>2026-04-06T10:33:32Z</time></trkpt><trkpt lat="45.7508898515584" lon="12.250447936218658"><ele>40.0</ele><time>2026-04-06T10:33:33Z</time></trkpt><trkpt lat="45.750666630730144" lon="12.25041196468126"><ele>40.0</ele><time>2026-04-06T10:33:34Z</time></trkpt><trkpt lat="45.75044144292059" lon="12.250378256181751"><ele>40.0</ele><time>2026-04-06T10:33:35Z</time></trkpt><trkpt lat="45.750212968244995" lon="12.250344764593601"><ele>41.0</ele><time>2026-04-06T10:33:36Z</time></trkpt><trkpt lat="45.74997810711832" lon="12.250313165796609"><ele>42.0</ele><time>2026-04-06T10:33:37Z</time></trkpt><trkpt lat="45.74974554532318" lon="12.250285146372219"><ele>42.0</ele><time>2026-04-06T10:33:38Z</time></trkpt><trkpt lat="45.74950620579812" lon="12.250256714547389"><ele>42.0</ele><time>2026-04-06T10:33:39Z</time></trkpt><trkpt lat="45.74925035323762" lon="12.250192438144747"><ele>42.0</ele><time>2026-04-06T10:33:40Z</time></trkpt><trkpt lat="45.74897961893508" lon="12.250130286185241"><ele>42.0</ele><time>2026-04-06T10:33:41Z</time></trkpt><trkpt lat="45.74869254544299" lon="12.250086512963449"><ele>41.0</ele><time>2026-04-06T10:33:42Z</time></trkpt><trkpt lat="45.74840114040472" lon="12.25004863103402"><ele>40.0</ele><time>2026-04-06T10:33:43Z</time></trkpt><trkpt lat="45.7481104088471" lon="12.250013066914386"><ele>40.0</ele><time>2026-04-06T10:33:44Z</time></trkpt><trkpt lat="45.747816150435426" lon="12.249969452057188"><ele>40.0</ele><time>2026-04-06T10:33:45Z</time></trkpt><trkpt lat="45.74754310094097" lon="12.249929789158712"><ele>41.0</ele><time>2026-04-06T10:33:46Z</time></trkpt><trkpt lat="45.74728252599556" lon="12.249889857216692"><ele>42.0</ele><time>2026-04-06T10:33:47Z</time></trkpt><trkpt lat="45.74700934769721" lon="12.249850043888088"><ele>40.5</ele><time>2026-04-06T10:33:48Z</time></trkpt><trkpt lat="45.74673625640569" lon="12.249801086334696"><ele>39.0</ele><time>2026-04-06T10:33:49Z</time></trkpt><trkpt lat="45.7464718636761" lon="12.249760854314562"><ele>38.5</ele><time>2026-04-06T10:33:50Z</time></trkpt><trkpt lat="45.74623672022793" lon="12.249721737845766"><ele>38.0</ele><time>2026-04-06T10:33:51Z</time></trkpt><trkpt lat="45.74601521422245" lon="12.249686372543577"><ele>38.0</ele><time>2026-04-06T10:33:52Z</time></trkpt><trkpt lat="45.74580460246896" lon="12.249648780053716"><ele>38.0</ele><time>2026-04-06T10:33:53Z</time></trkpt><trkpt lat="45.74560560971773" lon="12.249616665873976"><ele>38.0</ele><time>2026-04-06T10:33:54Z</time></trkpt><trkpt lat="45.74541492045222" lon="12.249587885534874"><ele>38.0</ele><time>2026-04-06T10:33:55Z</time></trkpt><trkpt lat="45.74523016960696" lon="12.249560828831122"><ele>38.0</ele><time>2026-04-06T10:33:56Z</time></trkpt><trkpt lat="45.74504233783486" lon="12.249532018261784"><ele>38.0</ele><time>2026-04-06T10:33:57Z</time></trkpt><trkpt lat="45.74484457155088" lon="12.249499735229264"><ele>38.0</ele><time>2026-04-06T10:33:58Z</time></trkpt><trkpt lat="45.74465873128611" lon="12.249468164105082"><ele>38.0</ele><time>2026-04-06T10:33:59Z</time></trkpt><trkpt lat="45.744449420238865" lon="12.249438064402726"><ele>38.0</ele><time>2026-04-06T10:34:00Z</time></trkpt><trkpt lat="45.744220481067295" lon="12.249405832573416"><ele>38.0</ele><time>2026-04-06T10:34:01Z</time></trkpt><trkpt lat="45.74398346975545" lon="12.249368843559514"><ele>38.0</ele><time>2026-04-06T10:34:02Z</time></trkpt><trkpt lat="45.74373804423148" lon="12.249325392696132"><ele>38.0</ele><time>2026-04-06T10:34:03Z</time></trkpt><trkpt lat="45.743482635481" lon="12.249284357278556"><ele>38.0</ele><time>2026-04-06T10:34:04Z</time></trkpt><trkpt lat="45.74321737263585" lon="12.249251913672706"><ele>38.0</ele><time>2026-04-06T10:34:05Z</time></trkpt><trkpt lat="45.74294253291311" lon="12.249218012480352"><ele>38.0</ele><time>2026-04-06T10:34:06Z</time></trkpt><trkpt lat="45.74266220825554" lon="12.249173628205618"><ele>39.0</ele><time>2026-04-06T10:34:07Z</time></trkpt><trkpt lat="45.742381863916734" lon="12.249126808012438"><ele>40.0</ele><time>2026-04-06T10:34:08Z</time></trkpt><trkpt lat="45.74212510335033" lon="12.249091826803392"><ele>40.0</ele><time>2026-04-06T10:34:09Z</time></trkpt><trkpt lat="45.741884430730735" lon="12.249059504407484"><ele>40.0</ele><time>2026-04-06T10:34:10Z</time></trkpt><trkpt lat="45.74165888012795" lon="12.249025503640851"><ele>39.0</ele><time>2026-04-06T10:34:11Z</time></trkpt><trkpt lat="45.74144555294079" lon="12.248988803520852"><ele>38.0</ele><time>2026-04-06T10:34:12Z</time></trkpt><trkpt lat="45.741232588180765" lon="12.248948916443105"><ele>37.0</ele><time>2026-04-06T10:34:13Z</time></trkpt><trkpt lat="45.741002264298075" lon="12.248920302144972"><ele>36.5</ele><time>2026-04-06T10:34:14Z</time></trkpt><trkpt lat="45.74076218447226" lon="12.248907821202845"><ele>36.0</ele><time>2026-04-06T10:34:15Z</time></trkpt><trkpt lat="45.74051486558222" lon="12.248897466469375"><ele>36.0</ele><time>2026-04-06T10:34:16Z</time></trkpt><trkpt lat="45.7402639134736" lon="12.24889008872645"><ele>36.0</ele><time>2026-04-06T10:34:17Z</time></trkpt><trkpt lat="45.740010869023976" lon="12.248902383806586"><ele>36.0</ele><time>2026-04-06T10:34:18Z</time></trkpt><trkpt lat="45.73975707034677" lon="12.248939317455777"><ele>36.0</ele><time>2026-04-06T10:34:19Z</time></trkpt><trkpt lat="45.7395027979221" lon="12.24898008787074"><ele>35.5</ele><time>2026-04-06T10:34:20Z</time></trkpt><trkpt lat="45.739253198250246" lon="12.249024053199465"><ele>35.0</ele><time>2026-04-06T10:34:21Z</time></trkpt><trkpt lat="45.73900195705479" lon="12.249082968032377"><ele>35.0</ele><time>2026-04-06T10:34:22Z</time></trkpt><trkpt lat="45.738756400628894" lon="12.249150410317966"><ele>35.0</ele><time>2026-04-06T10:34:23Z</time></trkpt><trkpt lat="45.73853579132721" lon="12.24921369703824"><ele>35.33333333333333</ele><time>2026-04-06T10:34:24Z</time></trkpt><trkpt lat="45.738339935048046" lon="12.249272949867336"><ele>35.666666666666664</ele><time>2026-04-06T10:34:25Z</time></trkpt><trkpt lat="45.73815190859273" lon="12.24933577576299"><ele>36.0</ele><time>2026-04-06T10:34:26Z</time></trkpt><trkpt lat="45.7379601228578" lon="12.249410935657153"><ele>36.0</ele><time>2026-04-06T10:34:27Z</time></trkpt><trkpt lat="45.737740967253664" lon="12.24950717555364"><ele>36.0</ele><time>2026-04-06T10:34:28Z</time></trkpt><trkpt lat="45.737496218516874" lon="12.249609079301818"><ele>36.5</ele><time>2026-04-06T10:34:29Z</time></trkpt><trkpt lat="45.73724244704444" lon="12.249675362499445"><ele>37.0</ele><time>2026-04-06T10:34:30Z</time></trkpt><trkpt lat="45.73699003232988" lon="12.2497652148922"><ele>36.5</ele><time>2026-04-06T10:34:31Z</time></trkpt><trkpt lat="45.73674178627461" lon="12.249868948454555"><ele>36.0</ele><time>2026-04-06T10:34:32Z</time></trkpt><trkpt lat="45.73650550922037" lon="12.249934600665565"><ele>36.0</ele><time>2026-04-06T10:34:33Z</time></trkpt><trkpt lat="45.736286385174786" lon="12.250011324642342"><ele>36.0</ele><time>2026-04-06T10:34:34Z</time></trkpt><trkpt lat="45.7360747778088" lon="12.250085198027197"><ele>36.0</ele><time>2026-04-06T10:34:35Z</time></trkpt><trkpt lat="45.73587096527931" lon="12.250154613574946"><ele>36.0</ele><time>2026-04-06T10:34:36Z</time></trkpt><trkpt lat="45.735670091863035" lon="12.250224203481324"><ele>36.0</ele><time>2026-04-06T10:34:37Z</time></trkpt><trkpt lat="45.73545522657207" lon="12.250299287325834"><ele>36.0</ele><time>2026-04-06T10:34:38Z</time></trkpt><trkpt lat="45.73524336830995" lon="12.25036590164988"><ele>36.0</ele><time>2026-04-06T10:34:39Z</time></trkpt><trkpt lat="45.73502618807238" lon="12.25044530702104"><ele>36.0</ele><time>2026-04-06T10:34:40Z</time></trkpt><trkpt lat="45.734800008507065" lon="12.250528131625813"><ele>36.0</ele><time>2026-04-06T10:34:41Z</time></trkpt><trkpt lat="45.73456168227401" lon="12.25061079218274"><ele>36.0</ele><time>2026-04-06T10:34:42Z</time></trkpt><trkpt lat="45.73432508729877" lon="12.250679656958466"><ele>36.0</ele><time>2026-04-06T10:34:43Z</time></trkpt><trkpt lat="45.734103934779306" lon="12.250750099565057"><ele>36.0</ele><time>2026-04-06T10:34:44Z</time></trkpt><trkpt lat="45.733885607296955" lon="12.250829214157266"><ele>36.0</ele><time>2026-04-06T10:34:45Z</time></trkpt><trkpt lat="45.733646283456714" lon="12.250917359600821"><ele>36.0</ele><time>2026-04-06T10:34:46Z</time></trkpt><trkpt lat="45.73338677360516" lon="12.250997311108538"><ele>35.0</ele><time>2026-04-06T10:34:47Z</time></trkpt><trkpt lat="45.733121686627165" lon="12.251078381635036"><ele>34.0</ele><time>2026-04-06T10:34:48Z</time></trkpt><trkpt lat="45.732858249827494" lon="12.251173094607035"><ele>34.0</ele><time>2026-04-06T10:34:49Z</time></trkpt><trkpt lat="45.73260374253785" lon="12.251265444353965"><ele>34.0</ele><time>2026-04-06T10:34:50Z</time></trkpt><trkpt lat="45.73235300171061" lon="12.251353093647191"><ele>34.0</ele><time>2026-04-06T10:34:51Z</time></trkpt><trkpt lat="45.7320993598436" lon="12.251444282642236"><ele>34.0</ele><time>2026-04-06T10:34:52Z</time></trkpt><trkpt lat="45.73183776414142" lon="12.251532159704405"><ele>34.5</ele><time>2026-04-06T10:34:53Z</time></trkpt><trkpt lat="45.73156581918659" lon="12.251607505260662"><ele>35.0</ele><time>2026-04-06T10:34:54Z</time></trkpt><trkpt lat="45.73129393540746" lon="12.251693807433123"><ele>33.0</ele><time>2026-04-06T10:34:55Z</time></trkpt><trkpt lat="45.73102738488324" lon="12.251785390156758"><ele>31.0</ele><time>2026-04-06T10:34:56Z</time></trkpt><trkpt lat="45.73075917232682" lon="12.251877448078192"><ele>31.0</ele><time>2026-04-06T10:34:57Z</time></trkpt><trkpt lat="45.73048948886831" lon="12.251973096182319"><ele>31.0</ele><time>2026-04-06T10:34:58Z</time></trkpt><trkpt lat="45.73023075097404" lon="12.252064867471912"><ele>32.0</ele><time>2026-04-06T10:34:59Z</time></trkpt><trkpt lat="45.7299781672433" lon="12.252154417467313"><ele>33.0</ele><time>2026-04-06T10:35:00Z</time></trkpt><trkpt lat="45.72972061848385" lon="12.252242042909264"><ele>33.0</ele><time>2026-04-06T10:35:01Z</time></trkpt><trkpt lat="45.72945793691737" lon="12.252327897447378"><ele>33.0</ele><time>2026-04-06T10:35:02Z</time></trkpt><trkpt lat="45.72919502345153" lon="12.252418922191541"><ele>33.0</ele><time>2026-04-06T10:35:03Z</time></trkpt><trkpt lat="45.728932147668445" lon="12.25251227680554"><ele>33.0</ele><time>2026-04-06T10:35:04Z</time></trkpt><trkpt lat="45.72866327579594" lon="12.252602554906893"><ele>33.5</ele><time>2026-04-06T10:35:05Z</time></trkpt><trkpt lat="45.72839936024302" lon="12.25269046836216"><ele>34.0</ele><time>2026-04-06T10:35:06Z</time></trkpt><trkpt lat="45.728140963676495" lon="12.252783704547996"><ele>34.0</ele><time>2026-04-06T10:35:07Z</time></trkpt><trkpt lat="45.72787761495917" lon="12.252876543766513"><ele>34.0</ele><time>2026-04-06T10:35:08Z</time></trkpt><trkpt lat="45.72761202457201" lon="12.252970644124836"><ele>33.5</ele><time>2026-04-06T10:35:09Z</time></trkpt><trkpt lat="45.72734413419625" lon="12.253069362496435"><ele>33.0</ele><time>2026-04-06T10:35:10Z</time></trkpt><trkpt lat="45.72706074873933" lon="12.253156641350216"><ele>33.0</ele><time>2026-04-06T10:35:11Z</time></trkpt><trkpt lat="45.72677733171024" lon="12.253240209249016"><ele>33.0</ele><time>2026-04-06T10:35:12Z</time></trkpt><trkpt lat="45.72651116955553" lon="12.253327332131613"><ele>33.0</ele><time>2026-04-06T10:35:13Z</time></trkpt><trkpt lat="45.726246677092114" lon="12.253417941856435"><ele>33.0</ele><time>2026-04-06T10:35:14Z</time></trkpt><trkpt lat="45.72604548103079" lon="12.2534823687222"><ele>33.5</ele><time>2026-04-06T10:35:15Z</time></trkpt><trkpt lat="45.72579957644049" lon="12.253559883027874"><ele>34.0</ele><time>2026-04-06T10:35:16Z</time></trkpt><trkpt lat="45.72553861527785" lon="12.253640938368926"><ele>34.0</ele><time>2026-04-06T10:35:17Z</time></trkpt><trkpt lat="45.725261898990546" lon="12.253720063754733"><ele>34.0</ele><time>2026-04-06T10:35:18Z</time></trkpt><trkpt lat="45.72498142836931" lon="12.253822786408335"><ele>32.5</ele><time>2026-04-06T10:35:19Z</time></trkpt><trkpt lat="45.72469019095557" lon="12.253950954807465"><ele>31.0</ele><time>2026-04-06T10:35:20Z</time></trkpt><trkpt lat="45.72438268989895" lon="12.254064848337038"><ele>30.0</ele><time>2026-04-06T10:35:21Z</time></trkpt><trkpt lat="45.724073064937876" lon="12.254159351901754"><ele>29.0</ele><time>2026-04-06T10:35:22Z</time></trkpt><trkpt lat="45.72376187724015" lon="12.25426360675056"><ele>29.5</ele><time>2026-04-06T10:35:23Z</time></trkpt><trkpt lat="45.72345754761639" lon="12.25437684013789"><ele>30.0</ele><time>2026-04-06T10:35:24Z</time></trkpt><trkpt lat="45.72318939395162" lon="12.254478794393323"><ele>30.0</ele><time>2026-04-06T10:35:25Z</time></trkpt><trkpt lat="45.72294205132333" lon="12.25456415408999"><ele>30.0</ele><time>2026-04-06T10:35:26Z</time></trkpt><trkpt lat="45.7226996098058" lon="12.25463944498681"><ele>30.0</ele><time>2026-04-06T10:35:27Z</time></trkpt><trkpt lat="45.72245416640485" lon="12.254727771665536"><ele>30.0</ele><time>2026-04-06T10:35:28Z</time></trkpt><trkpt lat="45.72220254860123" lon="12.254814221432596"><ele>30.0</ele><time>2026-04-06T10:35:29Z</time></trkpt><trkpt lat="45.72192914718072" lon="12.254914132030072"><ele>30.0</ele><time>2026-04-06T10:35:30Z</time></trkpt><trkpt lat="45.721633416766025" lon="12.255011688977513"><ele>30.0</ele><time>2026-04-06T10:35:31Z</time></trkpt><trkpt lat="45.72132529028063" lon="12.255094172861714"><ele>30.0</ele><time>2026-04-06T10:35:32Z</time></trkpt><trkpt lat="45.721015628684874" lon="12.255193755401102"><ele>29.0</ele><time>2026-04-06T10:35:33Z</time></trkpt><trkpt lat="45.720717313585205" lon="12.255299462431125"><ele>28.0</ele><time>2026-04-06T10:35:34Z</time></trkpt><trkpt lat="45.72044806328521" lon="12.255408725244077"><ele>28.5</ele><time>2026-04-06T10:35:35Z</time></trkpt><trkpt lat="45.72019843458467" lon="12.255495371183763"><ele>29.0</ele><time>2026-04-06T10:35:36Z</time></trkpt><trkpt lat="45.719989162154086" lon="12.255564057226385"><ele>29.0</ele><time>2026-04-06T10:35:37Z</time></trkpt><trkpt lat="45.719774385822426" lon="12.255633903666263"><ele>29.0</ele><time>2026-04-06T10:35:38Z</time></trkpt><trkpt lat="45.719570029245205" lon="12.25570132842351"><ele>29.0</ele><time>2026-04-06T10:35:39Z</time></trkpt><trkpt lat="45.719380154026474" lon="12.255764641145339"><ele>28.333333333333332</ele><time>2026-04-06T10:35:40Z</time></trkpt><trkpt lat="45.71920396239242" lon="12.25582575776576"><ele>27.666666666666664</ele><time>2026-04-06T10:35:41Z</time></trkpt><trkpt lat="45.719044114653165" lon="12.255879620588804"><ele>27.0</ele><time>2026-04-06T10:35:42Z</time></trkpt><trkpt lat="45.7188947852534" lon="12.255923979757458"><ele>27.0</ele><time>2026-04-06T10:35:43Z</time></trkpt><trkpt lat="45.71875891417079" lon="12.255966434662568"><ele>27.0</ele><time>2026-04-06T10:35:44Z</time></trkpt><trkpt lat="45.718635258113714" lon="12.256011948321305"><ele>27.0</ele><time>2026-04-06T10:35:45Z</time></trkpt><trkpt lat="45.71852416358705" lon="12.256026817731389"><ele>27.0</ele><time>2026-04-06T10:35:46Z</time></trkpt><trkpt lat="45.71842235022905" lon="12.256008687678838"><ele>27.166666666666668</ele><time>2026-04-06T10:35:47Z</time></trkpt><trkpt lat="45.71832931619905" lon="12.255984112273172"><ele>27.333333333333336</ele><time>2026-04-06T10:35:48Z</time></trkpt><trkpt lat="45.71824830455344" lon="12.255955715547328"><ele>27.5</ele><time>2026-04-06T10:35:49Z</time></trkpt><trkpt lat="45.71817062582075" lon="12.255904084876173"><ele>27.666666666666668</ele><time>2026-04-06T10:35:50Z</time></trkpt><trkpt lat="45.71809979226263" lon="12.25581895416541"><ele>27.833333333333336</ele><time>2026-04-06T10:35:51Z</time></trkpt><trkpt lat="45.718029597398605" lon="12.255759677319213"><ele>28.0</ele><time>2026-04-06T10:35:52Z</time></trkpt><trkpt lat="45.71795113850883" lon="12.25577651788734"><ele>28.0</ele><time>2026-04-06T10:35:53Z</time></trkpt><trkpt lat="45.717874848868966" lon="12.255850353889054"><ele>27.999999999999996</ele><time>2026-04-06T10:35:54Z</time></trkpt><trkpt lat="45.717815068322516" lon="12.255945371223055"><ele>27.999999999999996</ele><time>2026-04-06T10:35:55Z</time></trkpt><trkpt lat="45.71778002171873" lon="12.25604984402809"><ele>28.0</ele><time>2026-04-06T10:35:56Z</time></trkpt><trkpt lat="45.71773967079191" lon="12.256169783532991"><ele>28.0</ele><time>2026-04-06T10:35:57Z</time></trkpt><trkpt lat="45.71766230177843" lon="12.256278439994396"><ele>28.0</ele><time>2026-04-06T10:35:58Z</time></trkpt><trkpt lat="45.71757316615841" lon="12.256382881062251"><ele>27.999999999999996</ele><time>2026-04-06T10:35:59Z</time></trkpt><trkpt lat="45.71748655822179" lon="12.25645149141986"><ele>27.999999999999996</ele><time>2026-04-06T10:36:00Z</time></trkpt><trkpt lat="45.717405672996115" lon="12.256475952403004"><ele>28.0</ele><time>2026-04-06T10:36:01Z</time></trkpt><trkpt lat="45.71729688843888" lon="12.25648166603721"><ele>28.0</ele><time>2026-04-06T10:36:02Z</time></trkpt><trkpt lat="45.71716324117104" lon="12.256500599209808"><ele>28.0</ele><time>2026-04-06T10:36:03Z</time></trkpt><trkpt lat="45.71699776724755" lon="12.256565568000283"><ele>28.0</ele><time>2026-04-06T10:36:04Z</time></trkpt><trkpt lat="45.71679537852308" lon="12.256631844634157"><ele>28.0</ele><time>2026-04-06T10:36:05Z</time></trkpt><trkpt lat="45.71657396868564" lon="12.256707619584514"><ele>28.0</ele><time>2026-04-06T10:36:06Z</time></trkpt><trkpt lat="45.71636087975369" lon="12.256798730268088"><ele>28.0</ele><time>2026-04-06T10:36:07Z</time></trkpt><trkpt lat="45.71616055605014" lon="12.256872014944705"><ele>28.0</ele><time>2026-04-06T10:36:08Z</time></trkpt><trkpt lat="45.7159438917548" lon="12.256963389999463"><ele>27.333333333333336</ele><time>2026-04-06T10:36:09Z</time></trkpt><trkpt lat="45.71572428293945" lon="12.257032538788868"><ele>26.666666666666664</ele><time>2026-04-06T10:36:10Z</time></trkpt><trkpt lat="45.71552634138192" lon="12.257117908867112"><ele>26.0</ele><time>2026-04-06T10:36:11Z</time></trkpt><trkpt lat="45.715329875875874" lon="12.257227853552022"><ele>26.0</ele><time>2026-04-06T10:36:12Z</time></trkpt><trkpt lat="45.71514312021987" lon="12.257345084966934"><ele>26.0</ele><time>2026-04-06T10:36:13Z</time></trkpt><trkpt lat="45.7149756612223" lon="12.25746265176083"><ele>26.0</ele><time>2026-04-06T10:36:14Z</time></trkpt><trkpt lat="45.71482420495393" lon="12.257588436192394"><ele>26.0</ele><time>2026-04-06T10:36:15Z</time></trkpt><trkpt lat="45.714671406173366" lon="12.257718740912331"><ele>26.0</ele><time>2026-04-06T10:36:16Z</time></trkpt><trkpt lat="45.71452066154796" lon="12.257836865693902"><ele>26.0</ele><time>2026-04-06T10:36:17Z</time></trkpt><trkpt lat="45.71437742068008" lon="12.257962449467456"><ele>26.0</ele><time>2026-04-06T10:36:18Z</time></trkpt><trkpt lat="45.71422128691705" lon="12.258111649747953"><ele>26.0</ele><time>2026-04-06T10:36:19Z</time></trkpt><trkpt lat="45.714036346475076" lon="12.258248174961404"><ele>26.0</ele><time>2026-04-06T10:36:20Z</time></trkpt><trkpt lat="45.713860274723565" lon="12.25842679567549"><ele>26.0</ele><time>2026-04-06T10:36:21Z</time></trkpt><trkpt lat="45.713693915222265" lon="12.258562710356898"><ele>26.0</ele><time>2026-04-06T10:36:22Z</time></trkpt><trkpt lat="45.71355690571824" lon="12.258661175466873"><ele>26.0</ele><time>2026-04-06T10:36:23Z</time></trkpt><trkpt lat="45.71343969369658" lon="12.258738075449589"><ele>26.200000000000003</ele><time>2026-04-06T10:36:24Z</time></trkpt><trkpt lat="45.71334498288078" lon="12.258804600344781"><ele>26.400000000000002</ele><time>2026-04-06T10:36:25Z</time></trkpt><trkpt lat="45.7132637363157" lon="12.25887360745292"><ele>26.6</ele><time>2026-04-06T10:36:26Z</time></trkpt><trkpt lat="45.71318322523887" lon="12.258947371868771"><ele>26.8</ele><time>2026-04-06T10:36:27Z</time></trkpt><trkpt lat="45.7130987497146" lon="12.25903037384883"><ele>27.0</ele><time>2026-04-06T10:36:28Z</time></trkpt><trkpt lat="45.713004853365256" lon="12.25910657908224"><ele>27.25</ele><time>2026-04-06T10:36:29Z</time></trkpt><trkpt lat="45.712895051287916" lon="12.25919987831035"><ele>27.5</ele><time>2026-04-06T10:36:30Z</time></trkpt><trkpt lat="45.712784534141036" lon="12.259291765868666"><ele>27.75</ele><time>2026-04-06T10:36:31Z</time></trkpt><trkpt lat="45.712677935098576" lon="12.259382978625213"><ele>28.0</ele><time>2026-04-06T10:36:32Z</time></trkpt><trkpt lat="45.71257043983981" lon="12.259477928046119"><ele>27.5</ele><time>2026-04-06T10:36:33Z</time></trkpt><trkpt lat="45.71246225987417" lon="12.25957498219985"><ele>27.0</ele><time>2026-04-06T10:36:34Z</time></trkpt><trkpt lat="45.71234871868127" lon="12.25966198598066"><ele>26.5</ele><time>2026-04-06T10:36:35Z</time></trkpt><trkpt lat="45.71223237668648" lon="12.259719549940652"><ele>26.0</ele><time>2026-04-06T10:36:36Z</time></trkpt><trkpt lat="45.712104580242176" lon="12.259737606678042"><ele>26.0</ele><time>2026-04-06T10:36:37Z</time></trkpt><trkpt lat="45.71195856287047" lon="12.259749329023704"><ele>26.0</ele><time>2026-04-06T10:36:38Z</time></trkpt><trkpt lat="45.71178440960404" lon="12.259722247001813"><ele>26.0</ele><time>2026-04-06T10:36:39Z</time></trkpt><trkpt lat="45.71157963996598" lon="12.259720138848806"><ele>26.0</ele><time>2026-04-06T10:36:40Z</time></trkpt><trkpt lat="45.71136241469285" lon="12.259692284843068"><ele>26.0</ele><time>2026-04-06T10:36:41Z</time></trkpt><trkpt lat="45.711168761063206" lon="12.25970661887141"><ele>26.0</ele><time>2026-04-06T10:36:42Z</time></trkpt><trkpt lat="45.71099201813794" lon="12.259716731617956"><ele>26.333333333333332</ele><time>2026-04-06T10:36:43Z</time></trkpt><trkpt lat="45.710797441148245" lon="12.25971008085906"><ele>26.666666666666664</ele><time>2026-04-06T10:36:44Z</time></trkpt><trkpt lat="45.71058811483386" lon="12.259700729554885"><ele>27.0</ele><time>2026-04-06T10:36:45Z</time></trkpt><trkpt lat="45.710379168314454" lon="12.259706588496247"><ele>26.5</ele><time>2026-04-06T10:36:46Z</time></trkpt><trkpt lat="45.71015790906087" lon="12.25966768988964"><ele>26.0</ele><time>2026-04-06T10:36:47Z</time></trkpt><trkpt lat="45.70992071031923" lon="12.25966990311248"><ele>26.0</ele><time>2026-04-06T10:36:48Z</time></trkpt><trkpt lat="45.70968022138303" lon="12.25967029197418"><ele>26.0</ele><time>2026-04-06T10:36:49Z</time></trkpt><trkpt lat="45.70944602586858" lon="12.259647713951955"><ele>26.0</ele><time>2026-04-06T10:36:50Z</time></trkpt><trkpt lat="45.70919146369013" lon="12.25966015390985"><ele>26.0</ele><time>2026-04-06T10:36:51Z</time></trkpt><trkpt lat="45.70892322621974" lon="12.259629494082278"><ele>26.0</ele><time>2026-04-06T10:36:52Z</time></trkpt><trkpt lat="45.70865896706627" lon="12.25961845064794"><ele>26.0</ele><time>2026-04-06T10:36:53Z</time></trkpt><trkpt lat="45.70841684030406" lon="12.259622489480101"><ele>26.0</ele><time>2026-04-06T10:36:54Z</time></trkpt><trkpt lat="45.7081661105174" lon="12.259621753841124"><ele>26.0</ele><time>2026-04-06T10:36:55Z</time></trkpt><trkpt lat="45.707910878982" lon="12.259614726676732"><ele>25.5</ele><time>2026-04-06T10:36:56Z</time></trkpt><trkpt lat="45.707659755215204" lon="12.259609566534758"><ele>25.0</ele><time>2026-04-06T10:36:57Z</time></trkpt><trkpt lat="45.70741743206204" lon="12.259600571765063"><ele>25.0</ele><time>2026-04-06T10:36:58Z</time></trkpt><trkpt lat="45.70719201028103" lon="12.259592280801197"><ele>25.0</ele><time>2026-04-06T10:36:59Z</time></trkpt><trkpt lat="45.70697672453539" lon="12.259583738276675"><ele>25.0</ele><time>2026-04-06T10:37:00Z</time></trkpt><trkpt lat="45.70675588767247" lon="12.25957945397772"><ele>25.0</ele><time>2026-04-06T10:37:01Z</time></trkpt><trkpt lat="45.706518750278" lon="12.25956676486704"><ele>25.0</ele><time>2026-04-06T10:37:02Z</time></trkpt><trkpt lat="45.70627902106955" lon="12.259555262373302"><ele>22.5</ele><time>2026-04-06T10:37:03Z</time></trkpt><trkpt lat="45.706030229297866" lon="12.259550007094441"><ele>20.0</ele><time>2026-04-06T10:37:04Z</time></trkpt><trkpt lat="45.70576475590988" lon="12.25954683762461"><ele>20.0</ele><time>2026-04-06T10:37:05Z</time></trkpt><trkpt lat="45.7055085573622" lon="12.259535432258545"><ele>20.0</ele><time>2026-04-06T10:37:06Z</time></trkpt><trkpt lat="45.70527898811261" lon="12.259526711207435"><ele>20.333333333333336</ele><time>2026-04-06T10:37:07Z</time></trkpt><trkpt lat="45.705061345040086" lon="12.259523751884494"><ele>20.666666666666668</ele><time>2026-04-06T10:37:08Z</time></trkpt><trkpt lat="45.704843039039204" lon="12.259516893168287"><ele>21.0</ele><time>2026-04-06T10:37:09Z</time></trkpt><trkpt lat="45.704625610373704" lon="12.25950892083256"><ele>21.0</ele><time>2026-04-06T10:37:10Z</time></trkpt><trkpt lat="45.704420811873305" lon="12.259508486125553"><ele>21.0</ele><time>2026-04-06T10:37:11Z</time></trkpt><trkpt lat="45.704222069851205" lon="12.259504534548931"><ele>21.0</ele><time>2026-04-06T10:37:12Z</time></trkpt><trkpt lat="45.704015376235226" lon="12.259501095392855"><ele>22.0</ele><time>2026-04-06T10:37:13Z</time></trkpt><trkpt lat="45.70377535846702" lon="12.259512497229002"><ele>23.0</ele><time>2026-04-06T10:37:14Z</time></trkpt><trkpt lat="45.70351275159598" lon="12.259489677315798"><ele>23.0</ele><time>2026-04-06T10:37:15Z</time></trkpt><trkpt lat="45.703246942971134" lon="12.259452473931582"><ele>23.0</ele><time>2026-04-06T10:37:16Z</time></trkpt><trkpt lat="45.70300263064568" lon="12.259435821918352"><ele>23.0</ele><time>2026-04-06T10:37:17Z</time></trkpt><trkpt lat="45.70275647611278" lon="12.259419136315302"><ele>23.0</ele><time>2026-04-06T10:37:18Z</time></trkpt><trkpt lat="45.702502672288716" lon="12.259389294399966"><ele>21.5</ele><time>2026-04-06T10:37:19Z</time></trkpt><trkpt lat="45.702243702708834" lon="12.259346021102091"><ele>20.0</ele><time>2026-04-06T10:37:20Z</time></trkpt><trkpt lat="45.701980885222994" lon="12.259292465391525"><ele>20.5</ele><time>2026-04-06T10:37:21Z</time></trkpt><trkpt lat="45.70171021020478" lon="12.259235183136022"><ele>21.0</ele><time>2026-04-06T10:37:22Z</time></trkpt><trkpt lat="45.70143670005183" lon="12.25918660498954"><ele>21.0</ele><time>2026-04-06T10:37:23Z</time></trkpt><trkpt lat="45.70116383566378" lon="12.259140175850021"><ele>21.0</ele><time>2026-04-06T10:37:24Z</time></trkpt><trkpt lat="45.70091931061382" lon="12.25909469627848"><ele>21.333333333333332</ele><time>2026-04-06T10:37:25Z</time></trkpt><trkpt lat="45.70069452024333" lon="12.259049124566687"><ele>21.666666666666664</ele><time>2026-04-06T10:37:26Z</time></trkpt><trkpt lat="45.700474279874584" lon="12.259017315423657"><ele>22.0</ele><time>2026-04-06T10:37:27Z</time></trkpt><trkpt lat="45.70026024351353" lon="12.258985868091854"><ele>22.0</ele><time>2026-04-06T10:37:28Z</time></trkpt><trkpt lat="45.700051849959806" lon="12.258939631673673"><ele>22.0</ele><time>2026-04-06T10:37:29Z</time></trkpt><trkpt lat="45.699857733304455" lon="12.258892921382163"><ele>22.0</ele><time>2026-04-06T10:37:30Z</time></trkpt><trkpt lat="45.69967774488993" lon="12.258852482194929"><ele>22.0</ele><time>2026-04-06T10:37:31Z</time></trkpt><trkpt lat="45.69950643659286" lon="12.258801842956979"><ele>22.0</ele><time>2026-04-06T10:37:32Z</time></trkpt><trkpt lat="45.69935130255491" lon="12.258716609973147"><ele>22.0</ele><time>2026-04-06T10:37:33Z</time></trkpt><trkpt lat="45.699208890522044" lon="12.258604135832154"><ele>22.0</ele><time>2026-04-06T10:37:34Z</time></trkpt><trkpt lat="45.69907155279558" lon="12.258470484666917"><ele>22.0</ele><time>2026-04-06T10:37:35Z</time></trkpt><trkpt lat="45.69894383008595" lon="12.258304294202592"><ele>22.0</ele><time>2026-04-06T10:37:36Z</time></trkpt><trkpt lat="45.69880388593438" lon="12.258158369503706"><ele>21.333333333333332</ele><time>2026-04-06T10:37:37Z</time></trkpt><trkpt lat="45.698639332727524" lon="12.258012395707114"><ele>20.666666666666668</ele><time>2026-04-06T10:37:38Z</time></trkpt><trkpt lat="45.69848573662242" lon="12.257806432565268"><ele>20.0</ele><time>2026-04-06T10:37:39Z</time></trkpt><trkpt lat="45.69833764068644" lon="12.257550000035648"><ele>20.0</ele><time>2026-04-06T10:37:40Z</time></trkpt><trkpt lat="45.6981795200988" lon="12.257293219874505"><ele>20.0</ele><time>2026-04-06T10:37:41Z</time></trkpt><trkpt lat="45.698011186172145" lon="12.257059767707727"><ele>19.5</ele><time>2026-04-06T10:37:42Z</time></trkpt><trkpt lat="45.697851762327595" lon="12.256816536882834"><ele>19.0</ele><time>2026-04-06T10:37:43Z</time></trkpt><trkpt lat="45.69770265562149" lon="12.256584591733542"><ele>19.0</ele><time>2026-04-06T10:37:44Z</time></trkpt><trkpt lat="45.697554251860765" lon="12.256354773503674"><ele>19.0</ele><time>2026-04-06T10:37:45Z</time></trkpt><trkpt lat="45.697400276639065" lon="12.256119136424761"><ele>19.0</ele><time>2026-04-06T10:37:46Z</time></trkpt><trkpt lat="45.697239945685126" lon="12.255859153018317"><ele>19.0</ele><time>2026-04-06T10:37:47Z</time></trkpt><trkpt lat="45.69707094812638" lon="12.255604526750412"><ele>19.0</ele><time>2026-04-06T10:37:48Z</time></trkpt><trkpt lat="45.69689579050096" lon="12.255373850309716"><ele>19.0</ele><time>2026-04-06T10:37:49Z</time></trkpt><trkpt lat="45.69671432367731" lon="12.255151767370592"><ele>19.0</ele><time>2026-04-06T10:37:50Z</time></trkpt><trkpt lat="45.696509399862286" lon="12.254930246745452"><ele>18.5</ele><time>2026-04-06T10:37:51Z</time></trkpt><trkpt lat="45.69631637729571" lon="12.254738419906431"><ele>18.0</ele><time>2026-04-06T10:37:52Z</time></trkpt><trkpt lat="45.696132542445724" lon="12.254566728269369"><ele>17.666666666666668</ele><time>2026-04-06T10:37:53Z</time></trkpt><trkpt lat="45.69595270767319" lon="12.254403054355533"><ele>17.333333333333336</ele><time>2026-04-06T10:37:54Z</time></trkpt><trkpt lat="45.69576551778018" lon="12.254231851196545"><ele>17.0</ele><time>2026-04-06T10:37:55Z</time></trkpt><trkpt lat="45.69557354154927" lon="12.25406117187223"><ele>16.5</ele><time>2026-04-06T10:37:56Z</time></trkpt><trkpt lat="45.69536898278103" lon="12.253897356551565"><ele>16.0</ele><time>2026-04-06T10:37:57Z</time></trkpt><trkpt lat="45.6951647343044" lon="12.253702209041233"><ele>17.5</ele><time>2026-04-06T10:37:58Z</time></trkpt><trkpt lat="45.69496951257052" lon="12.2535050297999"><ele>19.0</ele><time>2026-04-06T10:37:59Z</time></trkpt><trkpt lat="45.694787004568546" lon="12.253334411853901"><ele>19.0</ele><time>2026-04-06T10:38:00Z</time></trkpt><trkpt lat="45.694624069164064" lon="12.253180873697247"><ele>19.0</ele><time>2026-04-06T10:38:01Z</time></trkpt><trkpt lat="45.694463593168614" lon="12.253039033333797"><ele>19.0</ele><time>2026-04-06T10:38:02Z</time></trkpt><trkpt lat="45.69431632506668" lon="12.252908007441661"><ele>18.5</ele><time>2026-04-06T10:38:03Z</time></trkpt><trkpt lat="45.69417590778998" lon="12.252791274028628"><ele>18.0</ele><time>2026-04-06T10:38:04Z</time></trkpt><trkpt lat="45.69406297222234" lon="12.252679300041263"><ele>17.5</ele><time>2026-04-06T10:38:05Z</time></trkpt><trkpt lat="45.69396259670642" lon="12.252563160097083"><ele>17.0</ele><time>2026-04-06T10:38:06Z</time></trkpt><trkpt lat="45.693883107218774" lon="12.25242769234279"><ele>17.0</ele><time>2026-04-06T10:38:07Z</time></trkpt><trkpt lat="45.693795395299" lon="12.252328177121518"><ele>17.0</ele><time>2026-04-06T10:38:08Z</time></trkpt><trkpt lat="45.6936739435573" lon="12.252253201982798"><ele>17.0</ele><time>2026-04-06T10:38:09Z</time></trkpt><trkpt lat="45.69351387208547" lon="12.252149479018208"><ele>17.0</ele><time>2026-04-06T10:38:10Z</time></trkpt><trkpt lat="45.69333845538705" lon="12.251992958270003"><ele>17.0</ele><time>2026-04-06T10:38:11Z</time></trkpt><trkpt lat="45.693142513590374" lon="12.25181251021859"><ele>17.0</ele><time>2026-04-06T10:38:12Z</time></trkpt><trkpt lat="45.6929602968246" lon="12.251666224826288"><ele>17.0</ele><time>2026-04-06T10:38:13Z</time></trkpt><trkpt lat="45.692759972354146" lon="12.251483806332162"><ele>17.0</ele><time>2026-04-06T10:38:14Z</time></trkpt><trkpt lat="45.69257263639009" lon="12.251308000785727"><ele>17.0</ele><time>2026-04-06T10:38:15Z</time></trkpt><trkpt lat="45.69239963553437" lon="12.251146169836808"><ele>17.0</ele><time>2026-04-06T10:38:16Z</time></trkpt><trkpt lat="45.6922413724822" lon="12.25100546315534"><ele>17.0</ele><time>2026-04-06T10:38:17Z</time></trkpt><trkpt lat="45.692090074284266" lon="12.250870829989102"><ele>17.0</ele><time>2026-04-06T10:38:18Z</time></trkpt><trkpt lat="45.69195107119157" lon="12.250733782885693"><ele>17.0</ele><time>2026-04-06T10:38:19Z</time></trkpt><trkpt lat="45.69180395216037" lon="12.250590898009476"><ele>17.666666666666668</ele><time>2026-04-06T10:38:20Z</time></trkpt><trkpt lat="45.6916286192601" lon="12.250454368098652"><ele>18.333333333333332</ele><time>2026-04-06T10:38:21Z</time></trkpt><trkpt lat="45.691446392745625" lon="12.250306514848367"><ele>19.0</ele><time>2026-04-06T10:38:22Z</time></trkpt><trkpt lat="45.69125872207949" lon="12.250124062959705"><ele>18.5</ele><time>2026-04-06T10:38:23Z</time></trkpt><trkpt lat="45.69106592193964" lon="12.24994582352856"><ele>18.0</ele><time>2026-04-06T10:38:24Z</time></trkpt><trkpt lat="45.6908613170997" lon="12.249772182840571"><ele>17.333333333333332</ele><time>2026-04-06T10:38:25Z</time></trkpt><trkpt lat="45.69067358678808" lon="12.249604856546002"><ele>16.666666666666664</ele><time>2026-04-06T10:38:26Z</time></trkpt><trkpt lat="45.69050777073294" lon="12.249446268459344"><ele>16.0</ele><time>2026-04-06T10:38:27Z</time></trkpt><trkpt lat="45.69034481230674" lon="12.249271361051022"><ele>16.333333333333332</ele><time>2026-04-06T10:38:28Z</time></trkpt><trkpt lat="45.69016831218946" lon="12.249107182235848"><ele>16.666666666666668</ele><time>2026-04-06T10:38:29Z</time></trkpt><trkpt lat="45.689983268949476" lon="12.248955741373903"><ele>17.0</ele><time>2026-04-06T10:38:30Z</time></trkpt><trkpt lat="45.689781748990455" lon="12.248786444079302"><ele>17.0</ele><time>2026-04-06T10:38:31Z</time></trkpt><trkpt lat="45.68957882414284" lon="12.2485835514182"><ele>17.0</ele><time>2026-04-06T10:38:32Z</time></trkpt><trkpt lat="45.689373959406645" lon="12.248366656982146"><ele>17.0</ele><time>2026-04-06T10:38:33Z</time></trkpt><trkpt lat="45.689174029556206" lon="12.248179253524091"><ele>17.0</ele><time>2026-04-06T10:38:34Z</time></trkpt><trkpt lat="45.68895926911885" lon="12.247991086075329"><ele>17.0</ele><time>2026-04-06T10:38:35Z</time></trkpt><trkpt lat="45.68874096462941" lon="12.247793816747903"><ele>17.0</ele><time>2026-04-06T10:38:36Z</time></trkpt><trkpt lat="45.68853411553298" lon="12.2476081427463"><ele>17.0</ele><time>2026-04-06T10:38:37Z</time></trkpt><trkpt lat="45.688342687622935" lon="12.24743410588578"><ele>17.0</ele><time>2026-04-06T10:38:38Z</time></trkpt><trkpt lat="45.68815574089064" lon="12.24726169172477"><ele>17.0</ele><time>2026-04-06T10:38:39Z</time></trkpt><trkpt lat="45.68797312657298" lon="12.247097656609851"><ele>16.666666666666668</ele><time>2026-04-06T10:38:40Z</time></trkpt><trkpt lat="45.68779503018678" lon="12.246933573379039"><ele>16.333333333333332</ele><time>2026-04-06T10:38:41Z</time></trkpt><trkpt lat="45.68763056827569" lon="12.246777253548107"><ele>16.0</ele><time>2026-04-06T10:38:42Z</time></trkpt><trkpt lat="45.68747349682875" lon="12.246627620992195"><ele>16.0</ele><time>2026-04-06T10:38:43Z</time></trkpt><trkpt lat="45.687316986588804" lon="12.246486674014259"><ele>16.0</ele><time>2026-04-06T10:38:44Z</time></trkpt><trkpt lat="45.68717063958796" lon="12.246352308960816"><ele>16.0</ele><time>2026-04-06T10:38:45Z</time></trkpt><trkpt lat="45.68701386323338" lon="12.24620646529261"><ele>16.333333333333332</ele><time>2026-04-06T10:38:46Z</time></trkpt><trkpt lat="45.686867436103384" lon="12.246083483031622"><ele>16.666666666666668</ele><time>2026-04-06T10:38:47Z</time></trkpt><trkpt lat="45.686700488900684" lon="12.245940048722163"><ele>17.0</ele><time>2026-04-06T10:38:48Z</time></trkpt><trkpt lat="45.68652961178427" lon="12.245777233965525"><ele>17.333333333333336</ele><time>2026-04-06T10:38:49Z</time></trkpt><trkpt lat="45.68635892947089" lon="12.245592377072317"><ele>17.666666666666668</ele><time>2026-04-06T10:38:50Z</time></trkpt><trkpt lat="45.6861774309945" lon="12.245421435130869"><ele>18.0</ele><time>2026-04-06T10:38:51Z</time></trkpt><trkpt lat="45.68598733156854" lon="12.245268989424876"><ele>18.0</ele><time>2026-04-06T10:38:52Z</time></trkpt><trkpt lat="45.68577414613401" lon="12.245116434366285"><ele>18.0</ele><time>2026-04-06T10:38:53Z</time></trkpt><trkpt lat="45.68555505141291" lon="12.244964785159473"><ele>18.0</ele><time>2026-04-06T10:38:54Z</time></trkpt><trkpt lat="45.68532344352629" lon="12.244799462009627"><ele>18.0</ele><time>2026-04-06T10:38:55Z</time></trkpt><trkpt lat="45.68509677079633" lon="12.244632109198003"><ele>17.0</ele><time>2026-04-06T10:38:56Z</time></trkpt><trkpt lat="45.684878519206535" lon="12.244466182910847"><ele>16.0</ele><time>2026-04-06T10:38:57Z</time></trkpt><trkpt lat="45.684677204429924" lon="12.244310498834725"><ele>16.0</ele><time>2026-04-06T10:38:58Z</time></trkpt><trkpt lat="45.684494753794155" lon="12.244166860178849"><ele>16.0</ele><time>2026-04-06T10:38:59Z</time></trkpt><trkpt lat="45.68432955949741" lon="12.24403088878429"><ele>16.0</ele><time>2026-04-06T10:39:00Z</time></trkpt><trkpt lat="45.684171178214854" lon="12.243901495444682"><ele>15.75</ele><time>2026-04-06T10:39:01Z</time></trkpt><trkpt lat="45.68403433290711" lon="12.243796816972123"><ele>15.5</ele><time>2026-04-06T10:39:02Z</time></trkpt><trkpt lat="45.68392260977398" lon="12.243712322055819"><ele>15.25</ele><time>2026-04-06T10:39:03Z</time></trkpt><trkpt lat="45.683833614496436" lon="12.243645115523368"><ele>15.0</ele><time>2026-04-06T10:39:04Z</time></trkpt><trkpt lat="45.68375577905535" lon="12.243594547782212"><ele>15.0</ele><time>2026-04-06T10:39:05Z</time></trkpt><trkpt lat="45.68369673206568" lon="12.243549452762338"><ele>15.0</ele><time>2026-04-06T10:39:06Z</time></trkpt><trkpt lat="45.68363430356407" lon="12.24350894048755"><ele>15.0</ele><time>2026-04-06T10:39:07Z</time></trkpt><trkpt lat="45.68353508136434" lon="12.24346091136148"><ele>15.0</ele><time>2026-04-06T10:39:09Z</time></trkpt><trkpt lat="45.68345891191735" lon="12.243380763440662"><ele>15.0</ele><time>2026-04-06T10:40:05Z</time></trkpt><trkpt lat="45.68338372715391" lon="12.243329814471807"><ele>15.0</ele><time>2026-04-06T10:40:06Z</time></trkpt><trkpt lat="45.683292942792974" lon="12.24325665967476"><ele>15.25</ele><time>2026-04-06T10:40:07Z</time></trkpt><trkpt lat="45.68320982263228" lon="12.243180875573817"><ele>15.5</ele><time>2026-04-06T10:40:08Z</time></trkpt><trkpt lat="45.68309966354847" lon="12.243095769108818"><ele>15.75</ele><time>2026-04-06T10:40:09Z</time></trkpt><trkpt lat="45.68296394437348" lon="12.243003175142805"><ele>16.0</ele><time>2026-04-06T10:40:10Z</time></trkpt><trkpt lat="45.68284533416747" lon="12.242922218003883"><ele>15.75</ele><time>2026-04-06T10:40:11Z</time></trkpt><trkpt lat="45.68272342387187" lon="12.242837175239577"><ele>15.5</ele><time>2026-04-06T10:40:12Z</time></trkpt><trkpt lat="45.682605268995864" lon="12.242739942009965"><ele>15.25</ele><time>2026-04-06T10:40:13Z</time></trkpt><trkpt lat="45.68249921777633" lon="12.242658917486402"><ele>15.0</ele><time>2026-04-06T10:40:14Z</time></trkpt><trkpt lat="45.68234846524915" lon="12.242544600410172"><ele>15.0</ele><time>2026-04-06T10:40:15Z</time></trkpt><trkpt lat="45.68224076009791" lon="12.242460043239934"><ele>15.0</ele><time>2026-04-06T10:40:16Z</time></trkpt><trkpt lat="45.68214402553981" lon="12.242374874251947"><ele>15.0</ele><time>2026-04-06T10:40:17Z</time></trkpt><trkpt lat="45.682039666655605" lon="12.242263720032412"><ele>15.0</ele><time>2026-04-06T10:40:18Z</time></trkpt><trkpt lat="45.681903127621" lon="12.24215566224946"><ele>15.333333333333332</ele><time>2026-04-06T10:40:19Z</time></trkpt><trkpt lat="45.68174816050298" lon="12.242038885935193"><ele>15.666666666666666</ele><time>2026-04-06T10:40:20Z</time></trkpt><trkpt lat="45.681592789979334" lon="12.241882077160747"><ele>16.0</ele><time>2026-04-06T10:40:21Z</time></trkpt><trkpt lat="45.68146799577226" lon="12.241776986613127"><ele>16.0</ele><time>2026-04-06T10:40:22Z</time></trkpt><trkpt lat="45.68130673411001" lon="12.241632334288484"><ele>16.0</ele><time>2026-04-06T10:40:23Z</time></trkpt><trkpt lat="45.68115623509324" lon="12.241454187473346"><ele>16.0</ele><time>2026-04-06T10:40:24Z</time></trkpt><trkpt lat="45.68099850257043" lon="12.241311240387313"><ele>16.333333333333332</ele><time>2026-04-06T10:40:25Z</time></trkpt><trkpt lat="45.68083757808412" lon="12.241141793775583"><ele>16.666666666666668</ele><time>2026-04-06T10:40:26Z</time></trkpt><trkpt lat="45.680669351077015" lon="12.240991665122595"><ele>17.0</ele><time>2026-04-06T10:40:27Z</time></trkpt><trkpt lat="45.68051588929752" lon="12.240807006867069"><ele>17.0</ele><time>2026-04-06T10:40:28Z</time></trkpt><trkpt lat="45.680378381439155" lon="12.24064247665704"><ele>17.0</ele><time>2026-04-06T10:40:29Z</time></trkpt><trkpt lat="45.68023110992768" lon="12.24049486980265"><ele>17.0</ele><time>2026-04-06T10:40:30Z</time></trkpt><trkpt lat="45.68009426751787" lon="12.240347906544926"><ele>16.666666666666668</ele><time>2026-04-06T10:40:31Z</time></trkpt><trkpt lat="45.6799595695588" lon="12.240216594314974"><ele>16.333333333333332</ele><time>2026-04-06T10:40:32Z</time></trkpt><trkpt lat="45.67982121260017" lon="12.240090925480537"><ele>16.0</ele><time>2026-04-06T10:40:33Z</time></trkpt><trkpt lat="45.679669577882564" lon="12.239944507739155"><ele>15.666666666666666</ele><time>2026-04-06T10:40:34Z</time></trkpt><trkpt lat="45.67952312049795" lon="12.239759547020649"><ele>15.333333333333332</ele><time>2026-04-06T10:40:35Z</time></trkpt><trkpt lat="45.679352264185795" lon="12.239580901407031"><ele>15.0</ele><time>2026-04-06T10:40:36Z</time></trkpt><trkpt lat="45.679173975060245" lon="12.23940367821443"><ele>14.666666666666668</ele><time>2026-04-06T10:40:37Z</time></trkpt><trkpt lat="45.67901482331218" lon="12.23922602302514"><ele>14.333333333333334</ele><time>2026-04-06T10:40:38Z</time></trkpt><trkpt lat="45.678863866993" lon="12.23907938850628"><ele>14.0</ele><time>2026-04-06T10:40:39Z</time></trkpt><trkpt lat="45.6787297965416" lon="12.238923947411733"><ele>15.333333333333334</ele><time>2026-04-06T10:40:40Z</time></trkpt><trkpt lat="45.67858949176264" lon="12.238755038214187"><ele>16.666666666666668</ele><time>2026-04-06T10:40:41Z</time></trkpt><trkpt lat="45.67843415069261" lon="12.23859270141602"><ele>18.0</ele><time>2026-04-06T10:40:42Z</time></trkpt><trkpt lat="45.67827038298265" lon="12.23843100923328"><ele>18.0</ele><time>2026-04-06T10:40:43Z</time></trkpt><trkpt lat="45.678111736572674" lon="12.238277686679973"><ele>18.0</ele><time>2026-04-06T10:40:44Z</time></trkpt><trkpt lat="45.677949587145754" lon="12.238100526294945"><ele>18.0</ele><time>2026-04-06T10:40:45Z</time></trkpt><trkpt lat="45.67778152680692" lon="12.237936497950447"><ele>17.666666666666668</ele><time>2026-04-06T10:40:46Z</time></trkpt><trkpt lat="45.6776209633252" lon="12.237777830135926"><ele>17.333333333333336</ele><time>2026-04-06T10:40:47Z</time></trkpt><trkpt lat="45.67748015239087" lon="12.237619809641503"><ele>17.0</ele><time>2026-04-06T10:40:48Z</time></trkpt><trkpt lat="45.67736023808687" lon="12.237492745679676"><ele>17.0</ele><time>2026-04-06T10:40:49Z</time></trkpt><trkpt lat="45.67726125567705" lon="12.237389859065596"><ele>17.0</ele><time>2026-04-06T10:40:50Z</time></trkpt><trkpt lat="45.67716978833189" lon="12.237290886985091"><ele>17.0</ele><time>2026-04-06T10:40:51Z</time></trkpt><trkpt lat="45.67708963235655" lon="12.23718539014763"><ele>17.0</ele><time>2026-04-06T10:40:52Z</time></trkpt><trkpt lat="45.67700183788175" lon="12.237112203902274"><ele>17.0</ele><time>2026-04-06T10:40:53Z</time></trkpt><trkpt lat="45.67692161619215" lon="12.237045476864202"><ele>16.25</ele><time>2026-04-06T10:40:54Z</time></trkpt><trkpt lat="45.67683264844762" lon="12.236966510360618"><ele>15.5</ele><time>2026-04-06T10:40:55Z</time></trkpt><trkpt lat="45.676723822472006" lon="12.236851973183274"><ele>14.75</ele><time>2026-04-06T10:40:56Z</time></trkpt><trkpt lat="45.67661297991029" lon="12.236704139841079"><ele>14.0</ele><time>2026-04-06T10:40:57Z</time></trkpt><trkpt lat="45.67649197880431" lon="12.236576847884661"><ele>14.0</ele><time>2026-04-06T10:40:58Z</time></trkpt><trkpt lat="45.676343238308824" lon="12.236420591804986"><ele>14.0</ele><time>2026-04-06T10:40:59Z</time></trkpt><trkpt lat="45.67620894641533" lon="12.236169713795043"><ele>14.0</ele><time>2026-04-06T10:41:00Z</time></trkpt><trkpt lat="45.6760584226981" lon="12.235887515256898"><ele>14.5</ele><time>2026-04-06T10:41:01Z</time></trkpt><trkpt lat="45.675894878769576" lon="12.23560475804314"><ele>15.0</ele><time>2026-04-06T10:41:02Z</time></trkpt><trkpt lat="45.67575948384994" lon="12.235315449891624"><ele>15.0</ele><time>2026-04-06T10:41:03Z</time></trkpt><trkpt lat="45.675602404869814" lon="12.235042004897883"><ele>15.0</ele><time>2026-04-06T10:41:04Z</time></trkpt><trkpt lat="45.675433436119" lon="12.234791859366144"><ele>15.0</ele><time>2026-04-06T10:41:05Z</time></trkpt><trkpt lat="45.675264798994824" lon="12.234562354151002"><ele>15.0</ele><time>2026-04-06T10:41:06Z</time></trkpt><trkpt lat="45.67509266644669" lon="12.234368996361667"><ele>15.0</ele><time>2026-04-06T10:41:07Z</time></trkpt><trkpt lat="45.67491121524891" lon="12.234225492957858"><ele>15.0</ele><time>2026-04-06T10:41:08Z</time></trkpt><trkpt lat="45.67474669264323" lon="12.234057398686456"><ele>15.0</ele><time>2026-04-06T10:41:09Z</time></trkpt><trkpt lat="45.674571831400215" lon="12.233901291725406"><ele>15.0</ele><time>2026-04-06T10:41:10Z</time></trkpt><trkpt lat="45.67438089208494" lon="12.233769547295081"><ele>15.0</ele><time>2026-04-06T10:41:11Z</time></trkpt><trkpt lat="45.67420814931753" lon="12.233643782042146"><ele>15.0</ele><time>2026-04-06T10:41:12Z</time></trkpt><trkpt lat="45.674041254731726" lon="12.233549426672012"><ele>15.0</ele><time>2026-04-06T10:41:13Z</time></trkpt><trkpt lat="45.67387900266745" lon="12.23348150841973"><ele>15.0</ele><time>2026-04-06T10:41:14Z</time></trkpt><trkpt lat="45.6737286453194" lon="12.23341280425342"><ele>15.0</ele><time>2026-04-06T10:41:15Z</time></trkpt><trkpt lat="45.67360365163627" lon="12.233347205260792"><ele>15.0</ele><time>2026-04-06T10:41:16Z</time></trkpt><trkpt lat="45.6734869746723" lon="12.233296612547086"><ele>15.0</ele><time>2026-04-06T10:41:17Z</time></trkpt><trkpt lat="45.67337832861416" lon="12.23324538825469"><ele>15.0</ele><time>2026-04-06T10:41:18Z</time></trkpt><trkpt lat="45.673280085882624" lon="12.23317698757505"><ele>15.0</ele><time>2026-04-06T10:41:19Z</time></trkpt><trkpt lat="45.67319000097958" lon="12.233110715321137"><ele>15.0</ele><time>2026-04-06T10:41:20Z</time></trkpt><trkpt lat="45.67311058377542" lon="12.233040019218889"><ele>14.75</ele><time>2026-04-06T10:41:21Z</time></trkpt><trkpt lat="45.67303144729987" lon="12.232953536822267"><ele>14.5</ele><time>2026-04-06T10:41:22Z</time></trkpt><trkpt lat="45.67294519107841" lon="12.232861643753038"><ele>14.25</ele><time>2026-04-06T10:41:23Z</time></trkpt><trkpt lat="45.67285958533001" lon="12.232749082841679"><ele>14.0</ele><time>2026-04-06T10:41:24Z</time></trkpt><trkpt lat="45.67277660257548" lon="12.232612532807819"><ele>14.0</ele><time>2026-04-06T10:41:25Z</time></trkpt><trkpt lat="45.67266614510924" lon="12.232490024959388"><ele>14.0</ele><time>2026-04-06T10:41:26Z</time></trkpt><trkpt lat="45.67256200328986" lon="12.232328705784711"><ele>14.0</ele><time>2026-04-06T10:41:27Z</time></trkpt><trkpt lat="45.67244250000671" lon="12.232152082091126"><ele>13.666666666666668</ele><time>2026-04-06T10:41:28Z</time></trkpt><trkpt lat="45.67232118908486" lon="12.231984879955032"><ele>13.333333333333332</ele><time>2026-04-06T10:41:29Z</time></trkpt><trkpt lat="45.6721964442754" lon="12.231756089435526"><ele>13.0</ele><time>2026-04-06T10:41:30Z</time></trkpt><trkpt lat="45.67206364238179" lon="12.23151079733664"><ele>13.666666666666666</ele><time>2026-04-06T10:41:31Z</time></trkpt><trkpt lat="45.67193464517514" lon="12.231265848324103"><ele>14.333333333333332</ele><time>2026-04-06T10:41:32Z</time></trkpt><trkpt lat="45.67180858632422" lon="12.231002603163711"><ele>15.0</ele><time>2026-04-06T10:41:33Z</time></trkpt><trkpt lat="45.67166462986175" lon="12.230730451585307"><ele>15.0</ele><time>2026-04-06T10:41:34Z</time></trkpt><trkpt lat="45.671525291602464" lon="12.230447264917197"><ele>15.0</ele><time>2026-04-06T10:41:35Z</time></trkpt><trkpt lat="45.671406453478525" lon="12.230189178333768"><ele>15.0</ele><time>2026-04-06T10:41:36Z</time></trkpt><trkpt lat="45.67129931589032" lon="12.229952370291272"><ele>15.0</ele><time>2026-04-06T10:41:37Z</time></trkpt><trkpt lat="45.671188171432135" lon="12.229748424579189"><ele>15.0</ele><time>2026-04-06T10:41:38Z</time></trkpt><trkpt lat="45.67108549932349" lon="12.229552434908669"><ele>14.5</ele><time>2026-04-06T10:41:39Z</time></trkpt><trkpt lat="45.67100079620981" lon="12.229362439986739"><ele>14.0</ele><time>2026-04-06T10:41:40Z</time></trkpt><trkpt lat="45.67092051383846" lon="12.229192513708739"><ele>13.5</ele><time>2026-04-06T10:41:41Z</time></trkpt><trkpt lat="45.670844759430075" lon="12.229042916640472"><ele>13.0</ele><time>2026-04-06T10:41:42Z</time></trkpt><trkpt lat="45.670782920290215" lon="12.228900158622853"><ele>12.8</ele><time>2026-04-06T10:41:43Z</time></trkpt><trkpt lat="45.670747381903794" lon="12.228762358073874"><ele>12.600000000000001</ele><time>2026-04-06T10:41:44Z</time></trkpt><trkpt lat="45.6707438144949" lon="12.228632240263785"><ele>12.399999999999999</ele><time>2026-04-06T10:41:45Z</time></trkpt><trkpt lat="45.670766190383105" lon="12.22848692156067"><ele>12.2</ele><time>2026-04-06T10:41:46Z</time></trkpt><trkpt lat="45.67079855756507" lon="12.228308251854036"><ele>12.0</ele><time>2026-04-06T10:41:47Z</time></trkpt><trkpt lat="45.670838477573184" lon="12.228137269735162"><ele>11.75</ele><time>2026-04-06T10:41:48Z</time></trkpt><trkpt lat="45.67084013067954" lon="12.227977090245655"><ele>11.5</ele><time>2026-04-06T10:41:49Z</time></trkpt><trkpt lat="45.67079885100532" lon="12.22781046245195"><ele>11.25</ele><time>2026-04-06T10:41:50Z</time></trkpt><trkpt lat="45.670746692054635" lon="12.227662156445984"><ele>11.0</ele><time>2026-04-06T10:41:51Z</time></trkpt><trkpt lat="45.67062113671377" lon="12.227590851273694"><ele>11.0</ele><time>2026-04-06T10:41:52Z</time></trkpt><trkpt lat="45.670520531394" lon="12.227551312329059"><ele>11.0</ele><time>2026-04-06T10:41:53Z</time></trkpt><trkpt lat="45.67042948632063" lon="12.227545858188876"><ele>11.0</ele><time>2026-04-06T10:41:54Z</time></trkpt><trkpt lat="45.67033813967972" lon="12.22754932405667"><ele>11.0</ele><time>2026-04-06T10:41:55Z</time></trkpt><trkpt lat="45.670242384329114" lon="12.227552915250486"><ele>11.0</ele><time>2026-04-06T10:41:56Z</time></trkpt><trkpt lat="45.67015564441326" lon="12.22750999210447"><ele>11.0</ele><time>2026-04-06T10:41:57Z</time></trkpt><trkpt lat="45.67007130726647" lon="12.22742292940539"><ele>11.0</ele><time>2026-04-06T10:41:58Z</time></trkpt><trkpt lat="45.66998871514413" lon="12.22731377432799"><ele>11.0</ele><time>2026-04-06T10:41:59Z</time></trkpt><trkpt lat="45.669901443106376" lon="12.227194249919604"><ele>11.0</ele><time>2026-04-06T10:42:00Z</time></trkpt><trkpt lat="45.669822719269234" lon="12.227055428652228"><ele>11.75</ele><time>2026-04-06T10:42:01Z</time></trkpt><trkpt lat="45.66976133284896" lon="12.226908758832058"><ele>12.5</ele><time>2026-04-06T10:42:02Z</time></trkpt><trkpt lat="45.669695269410866" lon="12.226760489617648"><ele>13.25</ele><time>2026-04-06T10:42:03Z</time></trkpt><trkpt lat="45.66961380536138" lon="12.226611535426096"><ele>14.0</ele><time>2026-04-06T10:42:04Z</time></trkpt><trkpt lat="45.6695308573718" lon="12.226449846282502"><ele>14.0</ele><time>2026-04-06T10:42:05Z</time></trkpt><trkpt lat="45.66944818442131" lon="12.226272847504063"><ele>14.0</ele><time>2026-04-06T10:42:06Z</time></trkpt><trkpt lat="45.66933674083725" lon="12.22608452591002"><ele>14.0</ele><time>2026-04-06T10:42:07Z</time></trkpt><trkpt lat="45.66920065612951" lon="12.225869932949589"><ele>14.0</ele><time>2026-04-06T10:42:08Z</time></trkpt><trkpt lat="45.66909382789261" lon="12.225575032428658"><ele>14.0</ele><time>2026-04-06T10:42:09Z</time></trkpt><trkpt lat="45.668958930646895" lon="12.225302559900715"><ele>14.0</ele><time>2026-04-06T10:42:10Z</time></trkpt><trkpt lat="45.668839983424036" lon="12.225083971864347"><ele>14.0</ele><time>2026-04-06T10:42:11Z</time></trkpt><trkpt lat="45.66872685883516" lon="12.224859747097948"><ele>14.0</ele><time>2026-04-06T10:42:12Z</time></trkpt><trkpt lat="45.668618058955175" lon="12.224606661045208"><ele>14.333333333333334</ele><time>2026-04-06T10:42:13Z</time></trkpt><trkpt lat="45.668525059505214" lon="12.224372242751675"><ele>14.666666666666668</ele><time>2026-04-06T10:42:14Z</time></trkpt><trkpt lat="45.66843681804322" lon="12.224163606326117"><ele>15.0</ele><time>2026-04-06T10:42:15Z</time></trkpt><trkpt lat="45.66835102290078" lon="12.223985272669044"><ele>15.6</ele><time>2026-04-06T10:42:16Z</time></trkpt><trkpt lat="45.66827607512211" lon="12.223829161243565"><ele>16.2</ele><time>2026-04-06T10:42:17Z</time></trkpt><trkpt lat="45.66821465912683" lon="12.22370025062869"><ele>16.8</ele><time>2026-04-06T10:42:18Z</time></trkpt><trkpt lat="45.66816633012871" lon="12.223593236844234"><ele>17.4</ele><time>2026-04-06T10:42:19Z</time></trkpt><trkpt lat="45.66812644223793" lon="12.223506938637554"><ele>18.0</ele><time>2026-04-06T10:42:20Z</time></trkpt><trkpt lat="45.66808411804834" lon="12.223360779360645"><ele>18.0</ele><time>2026-04-06T10:42:22Z</time></trkpt><trkpt lat="45.66812652922318" lon="12.22320078598468"><ele>18.0</ele><time>2026-04-06T10:42:24Z</time></trkpt><trkpt lat="45.668176278750565" lon="12.223104472845387"><ele>18.0</ele><time>2026-04-06T10:42:25Z</time></trkpt><trkpt lat="45.66821230582371" lon="12.222984564634334"><ele>18.0</ele><time>2026-04-06T10:42:26Z</time></trkpt><trkpt lat="45.66820405907657" lon="12.22284574607328"><ele>18.0</ele><time>2026-04-06T10:42:27Z</time></trkpt><trkpt lat="45.66816003484848" lon="12.222714911787971"><ele>17.6</ele><time>2026-04-06T10:42:28Z</time></trkpt><trkpt lat="45.66808929082241" lon="12.22260593569027"><ele>17.200000000000003</ele><time>2026-04-06T10:42:29Z</time></trkpt><trkpt lat="45.66800037544408" lon="12.222542179579332"><ele>16.8</ele><time>2026-04-06T10:42:30Z</time></trkpt><trkpt lat="45.667905585905466" lon="12.222526466836333"><ele>16.400000000000002</ele><time>2026-04-06T10:42:31Z</time></trkpt><trkpt lat="45.66780984480095" lon="12.222566521220816"><ele>16.0</ele><time>2026-04-06T10:42:32Z</time></trkpt><trkpt lat="45.667719268987966" lon="12.22264024518814"><ele>15.5</ele><time>2026-04-06T10:42:33Z</time></trkpt><trkpt lat="45.6676450150554" lon="12.222757204718024"><ele>15.0</ele><time>2026-04-06T10:42:34Z</time></trkpt><trkpt lat="45.66759978364597" lon="12.222875598145498"><ele>14.5</ele><time>2026-04-06T10:42:35Z</time></trkpt><trkpt lat="45.66756038881557" lon="12.222977743396989"><ele>14.0</ele><time>2026-04-06T10:42:36Z</time></trkpt><trkpt lat="45.66740515508581" lon="12.222859165091666"><ele>14.0</ele><time>2026-04-06T10:42:37Z</time></trkpt><trkpt lat="45.66728367924126" lon="12.222809151743816"><ele>14.0</ele><time>2026-04-06T10:42:38Z</time></trkpt><trkpt lat="45.667137212062876" lon="12.222741992952754"><ele>14.0</ele><time>2026-04-06T10:42:39Z</time></trkpt><trkpt lat="45.66696059818141" lon="12.222682314022213"><ele>14.666666666666668</ele><time>2026-04-06T10:42:40Z</time></trkpt><trkpt lat="45.66675226355852" lon="12.222598502545667"><ele>15.333333333333332</ele><time>2026-04-06T10:42:41Z</time></trkpt><trkpt lat="45.66653016489373" lon="12.22257418064635"><ele>16.0</ele><time>2026-04-06T10:42:42Z</time></trkpt><trkpt lat="45.66631733784873" lon="12.222527754555815"><ele>16.0</ele><time>2026-04-06T10:42:43Z</time></trkpt><trkpt lat="45.66610250233171" lon="12.222496564374177"><ele>16.0</ele><time>2026-04-06T10:42:44Z</time></trkpt><trkpt lat="45.66590299111791" lon="12.222438957921343"><ele>16.0</ele><time>2026-04-06T10:42:45Z</time></trkpt><trkpt lat="45.665681241994896" lon="12.222398030754912"><ele>16.0</ele><time>2026-04-06T10:42:46Z</time></trkpt><trkpt lat="45.66542892569501" lon="12.222351304273069"><ele>16.0</ele><time>2026-04-06T10:42:47Z</time></trkpt><trkpt lat="45.665175853108174" lon="12.222304876722161"><ele>14.5</ele><time>2026-04-06T10:42:48Z</time></trkpt><trkpt lat="45.664907971012966" lon="12.22227100205672"><ele>13.0</ele><time>2026-04-06T10:42:49Z</time></trkpt><trkpt lat="45.66463837697626" lon="12.22222649260922"><ele>15.0</ele><time>2026-04-06T10:42:50Z</time></trkpt><trkpt lat="45.66437745875316" lon="12.2221820991658"><ele>17.0</ele><time>2026-04-06T10:42:51Z</time></trkpt><trkpt lat="45.6641418589339" lon="12.222139487617968"><ele>17.0</ele><time>2026-04-06T10:42:52Z</time></trkpt><trkpt lat="45.66392931650041" lon="12.222101444061906"><ele>17.0</ele><time>2026-04-06T10:42:53Z</time></trkpt><trkpt lat="45.663733323396784" lon="12.222059365346015"><ele>17.0</ele><time>2026-04-06T10:42:54Z</time></trkpt><trkpt lat="45.66354292782241" lon="12.222012115098421"><ele>15.666666666666668</ele><time>2026-04-06T10:42:55Z</time></trkpt><trkpt lat="45.66336103918922" lon="12.221972967416015"><ele>14.333333333333332</ele><time>2026-04-06T10:42:56Z</time></trkpt><trkpt lat="45.66318927658126" lon="12.221945271386444"><ele>13.0</ele><time>2026-04-06T10:42:57Z</time></trkpt><trkpt lat="45.66302330544391" lon="12.221913007672226"><ele>13.0</ele><time>2026-04-06T10:42:58Z</time></trkpt><trkpt lat="45.662855222771455" lon="12.221860185451012"><ele>13.0</ele><time>2026-04-06T10:42:59Z</time></trkpt><trkpt lat="45.66268646619772" lon="12.221787680393462"><ele>13.0</ele><time>2026-04-06T10:43:00Z</time></trkpt><trkpt lat="45.66252943996156" lon="12.22169090541534"><ele>13.333333333333332</ele><time>2026-04-06T10:43:01Z</time></trkpt><trkpt lat="45.66238394280251" lon="12.221584877888336"><ele>13.666666666666668</ele><time>2026-04-06T10:43:02Z</time></trkpt><trkpt lat="45.66225118761519" lon="12.221468033518594"><ele>14.0</ele><time>2026-04-06T10:43:03Z</time></trkpt><trkpt lat="45.662125727173226" lon="12.221338074877973"><ele>14.0</ele><time>2026-04-06T10:43:04Z</time></trkpt><trkpt lat="45.66200755480611" lon="12.221196342533034"><ele>14.0</ele><time>2026-04-06T10:43:05Z</time></trkpt><trkpt lat="45.66189558069434" lon="12.22105005669562"><ele>14.0</ele><time>2026-04-06T10:43:06Z</time></trkpt><trkpt lat="45.66180376466527" lon="12.220885595020368"><ele>13.75</ele><time>2026-04-06T10:43:07Z</time></trkpt><trkpt lat="45.66170163945304" lon="12.220743998818149"><ele>13.5</ele><time>2026-04-06T10:43:08Z</time></trkpt><trkpt lat="45.66161986371354" lon="12.220596645552426"><ele>13.25</ele><time>2026-04-06T10:43:09Z</time></trkpt><trkpt lat="45.66155678761887" lon="12.220450390026684"><ele>13.0</ele><time>2026-04-06T10:43:10Z</time></trkpt><trkpt lat="45.66149608491758" lon="12.220340331782124"><ele>12.999999999999998</ele><time>2026-04-06T10:43:11Z</time></trkpt><trkpt lat="45.661449509187094" lon="12.22025411811395"><ele>13.0</ele><time>2026-04-06T10:43:12Z</time></trkpt><trkpt lat="45.6614050243093" lon="12.220172516023306"><ele>13.0</ele><time>2026-04-06T10:43:13Z</time></trkpt><trkpt lat="45.6613586887371" lon="12.220087031704363"><ele>13.0</ele><time>2026-04-06T10:43:14Z</time></trkpt><trkpt lat="45.661303752931914" lon="12.2199843396376"><ele>12.999999999999998</ele><time>2026-04-06T10:43:16Z</time></trkpt><trkpt lat="45.661250043631455" lon="12.219883450536672"><ele>13.0</ele><time>2026-04-06T10:43:23Z</time></trkpt><trkpt lat="45.66119578237766" lon="12.220094458969392"><ele>13.0</ele><time>2026-04-06T10:43:26Z</time></trkpt><trkpt lat="45.66125443654343" lon="12.22029122335145"><ele>13.0</ele><time>2026-04-06T10:43:28Z</time></trkpt><trkpt lat="45.66129806744673" lon="12.22041183252033"><ele>13.0</ele><time>2026-04-06T10:43:29Z</time></trkpt><trkpt lat="45.66135230251869" lon="12.22053707246124"><ele>13.0</ele><time>2026-04-06T10:43:30Z</time></trkpt><trkpt lat="45.66142949378466" lon="12.220686000720985"><ele>12.75</ele><time>2026-04-06T10:43:31Z</time></trkpt><trkpt lat="45.661505401406004" lon="12.220865842381208"><ele>12.5</ele><time>2026-04-06T10:43:32Z</time></trkpt><trkpt lat="45.66158862048478" lon="12.221022800607"><ele>12.25</ele><time>2026-04-06T10:43:33Z</time></trkpt><trkpt lat="45.66169844014805" lon="12.221182277609422"><ele>12.0</ele><time>2026-04-06T10:43:34Z</time></trkpt><trkpt lat="45.66180748281343" lon="12.221377630456924"><ele>12.333333333333332</ele><time>2026-04-06T10:43:35Z</time></trkpt><trkpt lat="45.66189003596568" lon="12.221576390286529"><ele>12.666666666666666</ele><time>2026-04-06T10:43:36Z</time></trkpt><trkpt lat="45.661967359851964" lon="12.221792609561886"><ele>13.0</ele><time>2026-04-06T10:43:37Z</time></trkpt><trkpt lat="45.66205474768743" lon="12.222017851988547"><ele>13.666666666666666</ele><time>2026-04-06T10:43:38Z</time></trkpt><trkpt lat="45.662140526538394" lon="12.222229955415749"><ele>14.333333333333332</ele><time>2026-04-06T10:43:39Z</time></trkpt><trkpt lat="45.662213576325094" lon="12.22242919514305"><ele>15.0</ele><time>2026-04-06T10:43:40Z</time></trkpt><trkpt lat="45.66227898793471" lon="12.222621390106568"><ele>15.0</ele><time>2026-04-06T10:43:41Z</time></trkpt><trkpt lat="45.6623456124885" lon="12.222787241314565"><ele>15.0</ele><time>2026-04-06T10:43:42Z</time></trkpt><trkpt lat="45.662404125413566" lon="12.222952502674746"><ele>15.0</ele><time>2026-04-06T10:43:43Z</time></trkpt><trkpt lat="45.662461551303416" lon="12.223102106542726"><ele>15.0</ele><time>2026-04-06T10:43:44Z</time></trkpt><trkpt lat="45.66251408961827" lon="12.223228193486605"><ele>15.4</ele><time>2026-04-06T10:43:45Z</time></trkpt><trkpt lat="45.66256040315136" lon="12.223354315176243"><ele>15.8</ele><time>2026-04-06T10:43:46Z</time></trkpt><trkpt lat="45.66260504421548" lon="12.223462483935402"><ele>16.2</ele><time>2026-04-06T10:43:47Z</time></trkpt><trkpt lat="45.662653125460345" lon="12.223603648932206"><ele>16.6</ele><time>2026-04-06T10:43:48Z</time></trkpt><trkpt lat="45.66262802628935" lon="12.223762406783742"><ele>17.0</ele><time>2026-04-06T10:43:49Z</time></trkpt><trkpt lat="45.662606101249295" lon="12.223967573518856"><ele>16.666666666666668</ele><time>2026-04-06T10:43:50Z</time></trkpt><trkpt lat="45.662592750298444" lon="12.22422036836652"><ele>16.333333333333332</ele><time>2026-04-06T10:43:51Z</time></trkpt><trkpt lat="45.662557245380725" lon="12.22445478675847"><ele>16.0</ele><time>2026-04-06T10:43:52Z</time></trkpt><trkpt lat="45.66254991410133" lon="12.224661167650329"><ele>15.25</ele><time>2026-04-06T10:43:53Z</time></trkpt><trkpt lat="45.662524572823855" lon="12.22485169001755"><ele>14.5</ele><time>2026-04-06T10:43:54Z</time></trkpt><trkpt lat="45.662525587944664" lon="12.225035597735317"><ele>13.75</ele><time>2026-04-06T10:43:55Z</time></trkpt><trkpt lat="45.66251355516441" lon="12.22522669234291"><ele>13.0</ele><time>2026-04-06T10:43:56Z</time></trkpt><trkpt lat="45.66251155778806" lon="12.22541369515185"><ele>13.0</ele><time>2026-04-06T10:43:57Z</time></trkpt><trkpt lat="45.66251449322148" lon="12.225602171052868"><ele>13.0</ele><time>2026-04-06T10:43:58Z</time></trkpt><trkpt lat="45.66250917382128" lon="12.225796215607472"><ele>13.0</ele><time>2026-04-06T10:43:59Z</time></trkpt><trkpt lat="45.66250931555601" lon="12.225995181724098"><ele>13.0</ele><time>2026-04-06T10:44:00Z</time></trkpt><trkpt lat="45.66251107496064" lon="12.226193113136874"><ele>13.0</ele><time>2026-04-06T10:44:01Z</time></trkpt><trkpt lat="45.66250902851779" lon="12.22638300191604"><ele>13.0</ele><time>2026-04-06T10:44:02Z</time></trkpt><trkpt lat="45.662517785680244" lon="12.226569825027601"><ele>13.0</ele><time>2026-04-06T10:44:03Z</time></trkpt><trkpt lat="45.66253093726764" lon="12.226749608630884"><ele>13.0</ele><time>2026-04-06T10:44:04Z</time></trkpt><trkpt lat="45.66254047948413" lon="12.226929429019936"><ele>13.0</ele><time>2026-04-06T10:44:05Z</time></trkpt><trkpt lat="45.66255008654844" lon="12.227104001295793"><ele>13.0</ele><time>2026-04-06T10:44:06Z</time></trkpt><trkpt lat="45.66256004750017" lon="12.227263351414022"><ele>13.0</ele><time>2026-04-06T10:44:07Z</time></trkpt><trkpt lat="45.66257617945925" lon="12.227361873621835"><ele>13.0</ele><time>2026-04-06T10:44:08Z</time></trkpt><trkpt lat="45.662582451301795" lon="12.227519711602751"><ele>13.0</ele><time>2026-04-06T10:44:10Z</time></trkpt><trkpt lat="45.66258435459912" lon="12.22762370583229"><ele>12.8</ele><time>2026-04-06T10:44:11Z</time></trkpt><trkpt lat="45.662596290012644" lon="12.227727033164376"><ele>12.600000000000001</ele><time>2026-04-06T10:44:12Z</time></trkpt><trkpt lat="45.662591254012604" lon="12.227855068726079"><ele>12.399999999999999</ele><time>2026-04-06T10:44:14Z</time></trkpt><trkpt lat="45.66244430502967" lon="12.227857875942087"><ele>12.2</ele><time>2026-04-06T10:44:16Z</time></trkpt><trkpt lat="45.662342218005506" lon="12.2278632661971"><ele>12.0</ele><time>2026-04-06T10:44:17Z</time></trkpt><trkpt lat="45.66224364136002" lon="12.227890250549649"><ele>12.0</ele><time>2026-04-06T10:44:18Z</time></trkpt><trkpt lat="45.66214762659991" lon="12.227894442556497"><ele>12.0</ele><time>2026-04-06T10:44:19Z</time></trkpt><trkpt lat="45.662061398220914" lon="12.22789857821713"><ele>12.0</ele><time>2026-04-06T10:44:20Z</time></trkpt><trkpt lat="45.66197265112368" lon="12.227895285683694"><ele>12.0</ele><time>2026-04-06T10:44:21Z</time></trkpt><trkpt lat="45.66187254788446" lon="12.22787613964486"><ele>12.0</ele><time>2026-04-06T10:44:22Z</time></trkpt><trkpt lat="45.661770321719914" lon="12.22783276099102"><ele>12.0</ele><time>2026-04-06T10:44:23Z</time></trkpt><trkpt lat="45.66166480255918" lon="12.227775581262344"><ele>12.0</ele><time>2026-04-06T10:44:24Z</time></trkpt><trkpt lat="45.66156015185132" lon="12.227668705749137"><ele>12.0</ele><time>2026-04-06T10:44:25Z</time></trkpt><trkpt lat="45.66145412037458" lon="12.227582952543516"><ele>12.0</ele><time>2026-04-06T10:44:26Z</time></trkpt><trkpt lat="45.66136398988118" lon="12.227537039445295"><ele>12.0</ele><time>2026-04-06T10:44:27Z</time></trkpt><trkpt lat="45.661288379640524" lon="12.227448953991887"><ele>12.0</ele><time>2026-04-06T10:44:28Z</time></trkpt><trkpt lat="45.66117788226315" lon="12.227383649943459"><ele>12.0</ele><time>2026-04-06T10:44:29Z</time></trkpt><trkpt lat="45.661054864071815" lon="12.227274876944147"><ele>12.0</ele><time>2026-04-06T10:44:30Z</time></trkpt><trkpt lat="45.66090779848969" lon="12.227201248730768"><ele>12.333333333333332</ele><time>2026-04-06T10:44:31Z</time></trkpt><trkpt lat="45.66073382141946" lon="12.227129733043224"><ele>12.666666666666666</ele><time>2026-04-06T10:44:32Z</time></trkpt><trkpt lat="45.660530749050494" lon="12.227045829498174"><ele>13.0</ele><time>2026-04-06T10:44:33Z</time></trkpt><trkpt lat="45.660331591816735" lon="12.226962462973667"><ele>12.666666666666666</ele><time>2026-04-06T10:44:34Z</time></trkpt><trkpt lat="45.660136727573686" lon="12.22690438303176"><ele>12.333333333333332</ele><time>2026-04-06T10:44:35Z</time></trkpt><trkpt lat="45.65995291328526" lon="12.22680580786513"><ele>12.0</ele><time>2026-04-06T10:44:36Z</time></trkpt><trkpt lat="45.659781740521346" lon="12.22673439053484"><ele>12.0</ele><time>2026-04-06T10:44:37Z</time></trkpt><trkpt lat="45.65961087641031" lon="12.226682256891081"><ele>12.0</ele><time>2026-04-06T10:44:38Z</time></trkpt><trkpt lat="45.65944954959537" lon="12.226611322017202"><ele>12.0</ele><time>2026-04-06T10:44:39Z</time></trkpt><trkpt lat="45.65930315878554" lon="12.226533006860567"><ele>12.5</ele><time>2026-04-06T10:44:40Z</time></trkpt><trkpt lat="45.65916320764466" lon="12.226474073491863"><ele>13.0</ele><time>2026-04-06T10:44:41Z</time></trkpt><trkpt lat="45.65903761614904" lon="12.226421146664274"><ele>13.5</ele><time>2026-04-06T10:44:42Z</time></trkpt><trkpt lat="45.65891605779407" lon="12.226383833313715"><ele>14.0</ele><time>2026-04-06T10:44:43Z</time></trkpt><trkpt lat="45.65879077127277" lon="12.22633398433185"><ele>14.0</ele><time>2026-04-06T10:44:44Z</time></trkpt><trkpt lat="45.658647496167795" lon="12.22625699568336"><ele>14.0</ele><time>2026-04-06T10:44:45Z</time></trkpt><trkpt lat="45.65848888036546" lon="12.22619094130672"><ele>14.0</ele><time>2026-04-06T10:44:46Z</time></trkpt><trkpt lat="45.6583443002569" lon="12.226152561654322"><ele>14.0</ele><time>2026-04-06T10:44:47Z</time></trkpt><trkpt lat="45.658218183912666" lon="12.226100038313207"><ele>14.0</ele><time>2026-04-06T10:44:48Z</time></trkpt><trkpt lat="45.65810128978667" lon="12.22602953613596"><ele>14.0</ele><time>2026-04-06T10:44:49Z</time></trkpt><trkpt lat="45.65798454191858" lon="12.226005135381879"><ele>14.0</ele><time>2026-04-06T10:44:50Z</time></trkpt><trkpt lat="45.65788285219987" lon="12.22595811592397"><ele>14.0</ele><time>2026-04-06T10:44:51Z</time></trkpt><trkpt lat="45.657785947662674" lon="12.22591951706049"><ele>13.999999999999998</ele><time>2026-04-06T10:44:52Z</time></trkpt><trkpt lat="45.6576954079495" lon="12.225882967500228"><ele>13.999999999999998</ele><time>2026-04-06T10:44:53Z</time></trkpt><trkpt lat="45.65761304509533" lon="12.22584520441099"><ele>14.0</ele><time>2026-04-06T10:44:54Z</time></trkpt><trkpt lat="45.65753204704824" lon="12.225811546165131"><ele>14.0</ele><time>2026-04-06T10:44:55Z</time></trkpt><trkpt lat="45.657436227330706" lon="12.225769968156486"><ele>13.799999999999999</ele><time>2026-04-06T10:44:56Z</time></trkpt><trkpt lat="45.65733975632221" lon="12.225715757856706"><ele>13.599999999999998</ele><time>2026-04-06T10:44:57Z</time></trkpt><trkpt lat="45.65725062782494" lon="12.225681257509391"><ele>13.4</ele><time>2026-04-06T10:44:58Z</time></trkpt><trkpt lat="45.65717866620818" lon="12.225660384990348"><ele>13.2</ele><time>2026-04-06T10:44:59Z</time></trkpt><trkpt lat="45.65710415001108" lon="12.225623588069826"><ele>13.0</ele><time>2026-04-06T10:45:01Z</time></trkpt><trkpt lat="45.65706315855865" lon="12.225390307211734"><ele>12.75</ele><time>2026-04-06T10:45:03Z</time></trkpt><trkpt lat="45.65702825621642" lon="12.225195793583207"><ele>12.5</ele><time>2026-04-06T10:45:04Z</time></trkpt><trkpt lat="45.656979243065024" lon="12.224999142631766"><ele>12.25</ele><time>2026-04-06T10:45:05Z</time></trkpt><trkpt lat="45.65694937547834" lon="12.224811894790362"><ele>12.0</ele><time>2026-04-06T10:45:06Z</time></trkpt><trkpt lat="45.65691157803759" lon="12.224594004697922"><ele>12.666666666666668</ele><time>2026-04-06T10:45:07Z</time></trkpt><trkpt lat="45.65685465978129" lon="12.224329240086377"><ele>13.333333333333334</ele><time>2026-04-06T10:45:08Z</time></trkpt><trkpt lat="45.656802645818274" lon="12.224030260345481"><ele>14.0</ele><time>2026-04-06T10:45:09Z</time></trkpt><trkpt lat="45.65675583346031" lon="12.223721064593255"><ele>14.333333333333334</ele><time>2026-04-06T10:45:10Z</time></trkpt><trkpt lat="45.65669949122429" lon="12.223422166879818"><ele>14.666666666666668</ele><time>2026-04-06T10:45:11Z</time></trkpt><trkpt lat="45.656633614636995" lon="12.223103976122214"><ele>15.0</ele><time>2026-04-06T10:45:12Z</time></trkpt><trkpt lat="45.65658448290286" lon="12.222798163544061"><ele>15.333333333333332</ele><time>2026-04-06T10:45:13Z</time></trkpt><trkpt lat="45.65653927964484" lon="12.222511993917621"><ele>15.666666666666666</ele><time>2026-04-06T10:45:14Z</time></trkpt><trkpt lat="45.6564890920784" lon="12.222246899663737"><ele>16.0</ele><time>2026-04-06T10:45:15Z</time></trkpt><trkpt lat="45.65644191243173" lon="12.22199861636395"><ele>16.0</ele><time>2026-04-06T10:45:16Z</time></trkpt><trkpt lat="45.6564048641758" lon="12.221762292913587"><ele>16.0</ele><time>2026-04-06T10:45:17Z</time></trkpt><trkpt lat="45.6563645849713" lon="12.221501593440752"><ele>16.0</ele><time>2026-04-06T10:45:18Z</time></trkpt><trkpt lat="45.656295416359384" lon="12.221248803036138"><ele>15.666666666666666</ele><time>2026-04-06T10:45:19Z</time></trkpt><trkpt lat="45.656187209292895" lon="12.221012703859149"><ele>15.333333333333332</ele><time>2026-04-06T10:45:20Z</time></trkpt><trkpt lat="45.656023866748725" lon="12.220782754215778"><ele>15.0</ele><time>2026-04-06T10:45:21Z</time></trkpt><trkpt lat="45.65583412636455" lon="12.220550151230501"><ele>14.666666666666668</ele><time>2026-04-06T10:45:22Z</time></trkpt><trkpt lat="45.655676820048775" lon="12.220322478946137"><ele>14.333333333333334</ele><time>2026-04-06T10:45:23Z</time></trkpt><trkpt lat="45.655540393105994" lon="12.220108152225833"><ele>14.0</ele><time>2026-04-06T10:45:24Z</time></trkpt><trkpt lat="45.655412800030625" lon="12.219911101597276"><ele>13.666666666666668</ele><time>2026-04-06T10:45:25Z</time></trkpt><trkpt lat="45.655277086566116" lon="12.219702158672733"><ele>13.333333333333332</ele><time>2026-04-06T10:45:26Z</time></trkpt><trkpt lat="45.65512582601844" lon="12.219479282678236"><ele>13.0</ele><time>2026-04-06T10:45:27Z</time></trkpt><trkpt lat="45.65496515451171" lon="12.219239199343914"><ele>13.0</ele><time>2026-04-06T10:45:28Z</time></trkpt><trkpt lat="45.654803887584166" lon="12.218984764920648"><ele>13.0</ele><time>2026-04-06T10:45:29Z</time></trkpt><trkpt lat="45.65464046516462" lon="12.218741925498225"><ele>13.0</ele><time>2026-04-06T10:45:30Z</time></trkpt><trkpt lat="45.65448471317227" lon="12.218524750059064"><ele>13.0</ele><time>2026-04-06T10:45:31Z</time></trkpt><trkpt lat="45.65434984966554" lon="12.218307387356774"><ele>13.0</ele><time>2026-04-06T10:45:32Z</time></trkpt><trkpt lat="45.65422345997845" lon="12.218092805338715"><ele>13.666666666666666</ele><time>2026-04-06T10:45:33Z</time></trkpt><trkpt lat="45.65409850132772" lon="12.217865118116817"><ele>14.333333333333332</ele><time>2026-04-06T10:45:34Z</time></trkpt><trkpt lat="45.653983670420104" lon="12.217607952007588"><ele>15.0</ele><time>2026-04-06T10:45:35Z</time></trkpt><trkpt lat="45.653875115351894" lon="12.21735152296248"><ele>14.666666666666668</ele><time>2026-04-06T10:45:36Z</time></trkpt><trkpt lat="45.65377220786947" lon="12.217110098169622"><ele>14.333333333333334</ele><time>2026-04-06T10:45:37Z</time></trkpt><trkpt lat="45.65368536117859" lon="12.216879876294167"><ele>14.0</ele><time>2026-04-06T10:45:38Z</time></trkpt><trkpt lat="45.65358134429396" lon="12.216671801244814"><ele>14.0</ele><time>2026-04-06T10:45:39Z</time></trkpt><trkpt lat="45.65345829842547" lon="12.21648734394254"><ele>14.0</ele><time>2026-04-06T10:45:40Z</time></trkpt><trkpt lat="45.65332024828584" lon="12.216338157657097"><ele>14.0</ele><time>2026-04-06T10:45:41Z</time></trkpt><trkpt lat="45.65316576707141" lon="12.216219156340683"><ele>14.0</ele><time>2026-04-06T10:45:42Z</time></trkpt><trkpt lat="45.65298208086237" lon="12.21608774006852"><ele>14.0</ele><time>2026-04-06T10:45:43Z</time></trkpt><trkpt lat="45.652791393795724" lon="12.21600171197595"><ele>14.0</ele><time>2026-04-06T10:45:44Z</time></trkpt><trkpt lat="45.652636117393264" lon="12.21590967639306"><ele>13.666666666666668</ele><time>2026-04-06T10:45:45Z</time></trkpt><trkpt lat="45.652490432262006" lon="12.215814953480727"><ele>13.333333333333332</ele><time>2026-04-06T10:45:46Z</time></trkpt><trkpt lat="45.65235754446322" lon="12.215684693218874"><ele>13.0</ele><time>2026-04-06T10:45:47Z</time></trkpt><trkpt lat="45.652225859078214" lon="12.215553485394995"><ele>13.0</ele><time>2026-04-06T10:45:48Z</time></trkpt><trkpt lat="45.65209563727832" lon="12.21541886896458"><ele>13.0</ele><time>2026-04-06T10:45:49Z</time></trkpt><trkpt lat="45.65198323922541" lon="12.215255113465066"><ele>13.0</ele><time>2026-04-06T10:45:50Z</time></trkpt><trkpt lat="45.65185031636639" lon="12.215110073355547"><ele>13.0</ele><time>2026-04-06T10:45:51Z</time></trkpt><trkpt lat="45.651731143585074" lon="12.214959511513692"><ele>13.0</ele><time>2026-04-06T10:45:52Z</time></trkpt><trkpt lat="45.65161694690951" lon="12.21481916862302"><ele>13.0</ele><time>2026-04-06T10:45:53Z</time></trkpt><trkpt lat="45.65151044315991" lon="12.21468579368052"><ele>13.0</ele><time>2026-04-06T10:45:54Z</time></trkpt><trkpt lat="45.6514175597271" lon="12.214568362363533"><ele>13.0</ele><time>2026-04-06T10:45:55Z</time></trkpt><trkpt lat="45.651326898557556" lon="12.214456096807671"><ele>13.0</ele><time>2026-04-06T10:45:56Z</time></trkpt><trkpt lat="45.6512175130105" lon="12.214327079878665"><ele>13.0</ele><time>2026-04-06T10:45:57Z</time></trkpt><trkpt lat="45.65110162570028" lon="12.214164043911646"><ele>13.333333333333332</ele><time>2026-04-06T10:45:58Z</time></trkpt><trkpt lat="45.65097177223931" lon="12.214002590204755"><ele>13.666666666666668</ele><time>2026-04-06T10:45:59Z</time></trkpt><trkpt lat="45.65083811956468" lon="12.213836470378062"><ele>14.0</ele><time>2026-04-06T10:46:00Z</time></trkpt><trkpt lat="45.650688905667344" lon="12.21365100918262"><ele>13.333333333333334</ele><time>2026-04-06T10:46:01Z</time></trkpt><trkpt lat="45.65053946426681" lon="12.213467853518233"><ele>12.666666666666668</ele><time>2026-04-06T10:46:02Z</time></trkpt><trkpt lat="45.6503918299181" lon="12.213285342330526"><ele>12.0</ele><time>2026-04-06T10:46:03Z</time></trkpt><trkpt lat="45.650242624006125" lon="12.213131163958577"><ele>12.0</ele><time>2026-04-06T10:46:04Z</time></trkpt><trkpt lat="45.650109017826814" lon="12.212934097382028"><ele>12.0</ele><time>2026-04-06T10:46:05Z</time></trkpt><trkpt lat="45.64996118441663" lon="12.21274979980865"><ele>12.0</ele><time>2026-04-06T10:46:06Z</time></trkpt><trkpt lat="45.649825637766575" lon="12.21259987976914"><ele>12.0</ele><time>2026-04-06T10:46:07Z</time></trkpt><trkpt lat="45.6497072775904" lon="12.212446581589674"><ele>12.0</ele><time>2026-04-06T10:46:08Z</time></trkpt><trkpt lat="45.64960668870789" lon="12.212317837030987"><ele>12.0</ele><time>2026-04-06T10:46:09Z</time></trkpt><trkpt lat="45.649541051756174" lon="12.212211202802528"><ele>12.0</ele><time>2026-04-06T10:46:10Z</time></trkpt><trkpt lat="45.649494238690764" lon="12.21214056957854"><ele>12.0</ele><time>2026-04-06T10:46:11Z</time></trkpt><trkpt lat="45.649449273775666" lon="12.212064433644143"><ele>12.0</ele><time>2026-04-06T10:46:13Z</time></trkpt><trkpt lat="45.64930754896392" lon="12.212226778993497"><ele>12.0</ele><time>2026-04-06T10:46:14Z</time></trkpt><trkpt lat="45.64920205733502" lon="12.212344578738438"><ele>12.0</ele><time>2026-04-06T10:46:15Z</time></trkpt><trkpt lat="45.64904190816555" lon="12.212439526043765"><ele>10.5</ele><time>2026-04-06T10:46:16Z</time></trkpt><trkpt lat="45.64884919150243" lon="12.212577248625667"><ele>9.0</ele><time>2026-04-06T10:46:17Z</time></trkpt><trkpt lat="45.64862772839201" lon="12.212693203032584"><ele>10.5</ele><time>2026-04-06T10:46:18Z</time></trkpt><trkpt lat="45.6484121588287" lon="12.21282235151818"><ele>12.0</ele><time>2026-04-06T10:46:19Z</time></trkpt><trkpt lat="45.64818085198366" lon="12.212965478855391"><ele>12.0</ele><time>2026-04-06T10:46:20Z</time></trkpt><trkpt lat="45.647922356135254" lon="12.213111202557563"><ele>12.0</ele><time>2026-04-06T10:46:21Z</time></trkpt><trkpt lat="45.64765194651494" lon="12.213266911713806"><ele>11.0</ele><time>2026-04-06T10:46:22Z</time></trkpt><trkpt lat="45.647400818703545" lon="12.213422293848291"><ele>10.0</ele><time>2026-04-06T10:46:23Z</time></trkpt><trkpt lat="45.6471513994643" lon="12.21357329590877"><ele>9.5</ele><time>2026-04-06T10:46:24Z</time></trkpt><trkpt lat="45.64688381675371" lon="12.21372685250198"><ele>9.0</ele><time>2026-04-06T10:46:25Z</time></trkpt><trkpt lat="45.646602338349716" lon="12.213884509115204"><ele>8.5</ele><time>2026-04-06T10:46:26Z</time></trkpt><trkpt lat="45.6463100617835" lon="12.214033000616519"><ele>8.0</ele><time>2026-04-06T10:46:27Z</time></trkpt><trkpt lat="45.646009873552565" lon="12.214176129609479"><ele>10.0</ele><time>2026-04-06T10:46:28Z</time></trkpt><trkpt lat="45.645713070100335" lon="12.21431206698291"><ele>12.0</ele><time>2026-04-06T10:46:29Z</time></trkpt><trkpt lat="45.645437446896736" lon="12.214439780125005"><ele>13.0</ele><time>2026-04-06T10:46:30Z</time></trkpt><trkpt lat="45.64516917625158" lon="12.214557497957292"><ele>14.0</ele><time>2026-04-06T10:46:31Z</time></trkpt><trkpt lat="45.644921772525265" lon="12.214670144139795"><ele>14.0</ele><time>2026-04-06T10:46:32Z</time></trkpt><trkpt lat="45.64468845010616" lon="12.214775049490687"><ele>14.0</ele><time>2026-04-06T10:46:33Z</time></trkpt><trkpt lat="45.6444636404092" lon="12.214873204741446"><ele>13.5</ele><time>2026-04-06T10:46:34Z</time></trkpt><trkpt lat="45.64424968150041" lon="12.214966461085845"><ele>13.0</ele><time>2026-04-06T10:46:35Z</time></trkpt><trkpt lat="45.644024995133755" lon="12.215070595286202"><ele>13.0</ele><time>2026-04-06T10:46:36Z</time></trkpt><trkpt lat="45.64379383237203" lon="12.215181822570564"><ele>13.0</ele><time>2026-04-06T10:46:37Z</time></trkpt><trkpt lat="45.64355450408832" lon="12.215288519253953"><ele>12.0</ele><time>2026-04-06T10:46:38Z</time></trkpt><trkpt lat="45.643310733328555" lon="12.215402687366533"><ele>11.0</ele><time>2026-04-06T10:46:39Z</time></trkpt><trkpt lat="45.64306452931995" lon="12.215523568260561"><ele>11.0</ele><time>2026-04-06T10:46:40Z</time></trkpt><trkpt lat="45.642820592441666" lon="12.21564796450603"><ele>11.0</ele><time>2026-04-06T10:46:41Z</time></trkpt><trkpt lat="45.64259760039814" lon="12.215769672052602"><ele>11.333333333333332</ele><time>2026-04-06T10:46:42Z</time></trkpt><trkpt lat="45.642387293112144" lon="12.215881287490474"><ele>11.666666666666666</ele><time>2026-04-06T10:46:43Z</time></trkpt><trkpt lat="45.64218747265056" lon="12.215985070372195"><ele>12.0</ele><time>2026-04-06T10:46:44Z</time></trkpt><trkpt lat="45.64199648786267" lon="12.216084825116086"><ele>12.666666666666668</ele><time>2026-04-06T10:46:45Z</time></trkpt><trkpt lat="45.64181741694054" lon="12.21618048399303"><ele>13.333333333333334</ele><time>2026-04-06T10:46:45.999Z</time></trkpt><trkpt lat="45.64164633385941" lon="12.21626944229596"><ele>14.0</ele><time>2026-04-06T10:46:46.999Z</time></trkpt><trkpt lat="45.64149681156534" lon="12.21634442875206"><ele>14.0</ele><time>2026-04-06T10:46:47.999Z</time></trkpt><trkpt lat="45.64136293645358" lon="12.216417431821926"><ele>14.0</ele><time>2026-04-06T10:46:48.999Z</time></trkpt><trkpt lat="45.64124971686664" lon="12.216493122109979"><ele>14.0</ele><time>2026-04-06T10:46:49.999Z</time></trkpt><trkpt lat="45.641151747061436" lon="12.216547020297481"><ele>14.0</ele><time>2026-04-06T10:46:50.999Z</time></trkpt><trkpt lat="45.6410488664265" lon="12.216552916302641"><ele>14.0</ele><time>2026-04-06T10:46:51.999Z</time></trkpt><trkpt lat="45.64101024934614" lon="12.216453076898647"><ele>13.999999999999998</ele><time>2026-04-06T10:46:53.999Z</time></trkpt><trkpt lat="45.64099607068971" lon="12.21635101194157"><ele>13.999999999999998</ele><time>2026-04-06T10:46:54.999Z</time></trkpt><trkpt lat="45.64100155521394" lon="12.216212188063295"><ele>14.0</ele><time>2026-04-06T10:46:56Z</time></trkpt><trkpt lat="45.64096589583301" lon="12.216009827493622"><ele>14.0</ele><time>2026-04-06T10:46:57Z</time></trkpt><trkpt lat="45.640909197144" lon="12.215758833966566"><ele>13.666666666666668</ele><time>2026-04-06T10:46:58Z</time></trkpt><trkpt lat="45.64084370789044" lon="12.21546465966306"><ele>13.333333333333332</ele><time>2026-04-06T10:46:59Z</time></trkpt><trkpt lat="45.64075985711548" lon="12.215194541918986"><ele>13.0</ele><time>2026-04-06T10:47:00Z</time></trkpt><trkpt lat="45.64064858923028" lon="12.214900348220118"><ele>13.0</ele><time>2026-04-06T10:47:01Z</time></trkpt><trkpt lat="45.64053031884296" lon="12.214567589812539"><ele>13.0</ele><time>2026-04-06T10:47:02Z</time></trkpt><trkpt lat="45.64042427756471" lon="12.214234412977815"><ele>13.5</ele><time>2026-04-06T10:47:03Z</time></trkpt><trkpt lat="45.64031588137148" lon="12.213911593344214"><ele>14.0</ele><time>2026-04-06T10:47:04Z</time></trkpt><trkpt lat="45.6402134862121" lon="12.21362229217717"><ele>14.0</ele><time>2026-04-06T10:47:05Z</time></trkpt><trkpt lat="45.64010506652581" lon="12.213376180206792"><ele>14.0</ele><time>2026-04-06T10:47:06Z</time></trkpt><trkpt lat="45.639998968277865" lon="12.213147720002372"><ele>14.0</ele><time>2026-04-06T10:47:07Z</time></trkpt><trkpt lat="45.639910434089416" lon="12.212936968687035"><ele>14.25</ele><time>2026-04-06T10:47:08Z</time></trkpt><trkpt lat="45.63983685055293" lon="12.212751584261301"><ele>14.5</ele><time>2026-04-06T10:47:09Z</time></trkpt><trkpt lat="45.639775419608846" lon="12.212599385809193"><ele>14.75</ele><time>2026-04-06T10:47:10Z</time></trkpt><trkpt lat="45.63971204821711" lon="12.212500552197824"><ele>15.0</ele><time>2026-04-06T10:47:11Z</time></trkpt><trkpt lat="45.639605637025824" lon="12.212454311160625"><ele>14.0</ele><time>2026-04-06T10:47:12Z</time></trkpt><trkpt lat="45.6394487882" lon="12.212433510793295"><ele>13.0</ele><time>2026-04-06T10:47:13Z</time></trkpt><trkpt lat="45.63924885842994" lon="12.212443295509562"><ele>12.0</ele><time>2026-04-06T10:47:14Z</time></trkpt><trkpt lat="45.63902286288974" lon="12.212436859407697"><ele>12.0</ele><time>2026-04-06T10:47:15Z</time></trkpt><trkpt lat="45.63881501817003" lon="12.212393325885591"><ele>12.0</ele><time>2026-04-06T10:47:16Z</time></trkpt><trkpt lat="45.63859587010101" lon="12.21237759627042"><ele>12.0</ele><time>2026-04-06T10:47:17Z</time></trkpt><trkpt lat="45.63840115081798" lon="12.212330464147191"><ele>11.333333333333334</ele><time>2026-04-06T10:47:18Z</time></trkpt><trkpt lat="45.63821891014167" lon="12.212274876662088"><ele>10.666666666666668</ele><time>2026-04-06T10:47:19Z</time></trkpt><trkpt lat="45.63802538686636" lon="12.21219043949607"><ele>10.0</ele><time>2026-04-06T10:47:20Z</time></trkpt><trkpt lat="45.637850026276915" lon="12.2120267066732"><ele>10.0</ele><time>2026-04-06T10:47:21Z</time></trkpt><trkpt lat="45.63768975168476" lon="12.211872518036238"><ele>10.0</ele><time>2026-04-06T10:47:22Z</time></trkpt><trkpt lat="45.637546007964026" lon="12.21167668084527"><ele>10.0</ele><time>2026-04-06T10:47:23Z</time></trkpt><trkpt lat="45.637439402598005" lon="12.211448813954837"><ele>10.0</ele><time>2026-04-06T10:47:24Z</time></trkpt><trkpt lat="45.63733528258165" lon="12.211237619982281"><ele>10.0</ele><time>2026-04-06T10:47:25Z</time></trkpt><trkpt lat="45.637273619093286" lon="12.211044566071847"><ele>10.0</ele><time>2026-04-06T10:47:26Z</time></trkpt><trkpt lat="45.63719153345197" lon="12.210908875859172"><ele>10.0</ele><time>2026-04-06T10:47:27Z</time></trkpt><trkpt lat="45.637079576025116" lon="12.210827918835054"><ele>10.0</ele><time>2026-04-06T10:47:28Z</time></trkpt><trkpt lat="45.6369323003657" lon="12.210801793337243"><ele>10.0</ele><time>2026-04-06T10:47:29Z</time></trkpt><trkpt lat="45.636760492500336" lon="12.210822488361316"><ele>10.0</ele><time>2026-04-06T10:47:30Z</time></trkpt><trkpt lat="45.63655618456554" lon="12.210864736504533"><ele>11.0</ele><time>2026-04-06T10:47:31Z</time></trkpt><trkpt lat="45.63631254028572" lon="12.210875237606778"><ele>12.0</ele><time>2026-04-06T10:47:32Z</time></trkpt><trkpt lat="45.63604538424784" lon="12.210889800704113"><ele>12.0</ele><time>2026-04-06T10:47:33Z</time></trkpt><trkpt lat="45.63576460926407" lon="12.210901483279889"><ele>12.0</ele><time>2026-04-06T10:47:34Z</time></trkpt><trkpt lat="45.635468130724995" lon="12.210913819252577"><ele>11.5</ele><time>2026-04-06T10:47:35Z</time></trkpt><trkpt lat="45.635155539896445" lon="12.210926825633392"><ele>11.0</ele><time>2026-04-06T10:47:36Z</time></trkpt><trkpt lat="45.63482880076563" lon="12.210942538941401"><ele>11.0</ele><time>2026-04-06T10:47:37Z</time></trkpt><trkpt lat="45.63451667802884" lon="12.210955421616772"><ele>11.0</ele><time>2026-04-06T10:47:38Z</time></trkpt><trkpt lat="45.63422189584437" lon="12.210967903756544"><ele>11.5</ele><time>2026-04-06T10:47:39Z</time></trkpt><trkpt lat="45.6339478975621" lon="12.21098023003907"><ele>12.0</ele><time>2026-04-06T10:47:40Z</time></trkpt><trkpt lat="45.63369925495582" lon="12.21099141564853"><ele>11.5</ele><time>2026-04-06T10:47:41Z</time></trkpt><trkpt lat="45.63345974430933" lon="12.21102583485699"><ele>11.0</ele><time>2026-04-06T10:47:42Z</time></trkpt><trkpt lat="45.633215401729466" lon="12.211012978660813"><ele>11.0</ele><time>2026-04-06T10:47:43Z</time></trkpt><trkpt lat="45.63296981233113" lon="12.21102298281825"><ele>11.0</ele><time>2026-04-06T10:47:44Z</time></trkpt><trkpt lat="45.63271532889098" lon="12.211032668831399"><ele>11.0</ele><time>2026-04-06T10:47:45Z</time></trkpt><trkpt lat="45.632434728775976" lon="12.211043348883052"><ele>11.0</ele><time>2026-04-06T10:47:46Z</time></trkpt><trkpt lat="45.63215594338325" lon="12.21105267785792"><ele>11.0</ele><time>2026-04-06T10:47:47Z</time></trkpt><trkpt lat="45.63189397205383" lon="12.211056534376361"><ele>11.0</ele><time>2026-04-06T10:47:48Z</time></trkpt><trkpt lat="45.631645109349506" lon="12.211043458606042"><ele>11.0</ele><time>2026-04-06T10:47:49Z</time></trkpt><trkpt lat="45.63139592408072" lon="12.211019343329014"><ele>11.0</ele><time>2026-04-06T10:47:50Z</time></trkpt><trkpt lat="45.63116224517087" lon="12.210995472483182"><ele>11.0</ele><time>2026-04-06T10:47:51Z</time></trkpt><trkpt lat="45.63095977334831" lon="12.210974789514095"><ele>11.0</ele><time>2026-04-06T10:47:52Z</time></trkpt><trkpt lat="45.630811522117796" lon="12.210958044615111"><ele>11.0</ele><time>2026-04-06T10:47:53Z</time></trkpt><trkpt lat="45.6306807055997" lon="12.210943282901642"><ele>11.0</ele><time>2026-04-06T10:47:54Z</time></trkpt><trkpt lat="45.630562278735354" lon="12.210928560058392"><ele>11.0</ele><time>2026-04-06T10:47:55Z</time></trkpt><trkpt lat="45.63046856325348" lon="12.210905667462573"><ele>11.0</ele><time>2026-04-06T10:47:56Z</time></trkpt><trkpt lat="45.630375334978424" lon="12.21087596214883"><ele>11.0</ele><time>2026-04-06T10:47:57Z</time></trkpt><trkpt lat="45.63028717436709" lon="12.210845045929144"><ele>11.0</ele><time>2026-04-06T10:47:58Z</time></trkpt><trkpt lat="45.63019314637505" lon="12.210804754209553"><ele>11.25</ele><time>2026-04-06T10:47:59Z</time></trkpt><trkpt lat="45.6300851218799" lon="12.210781690285732"><ele>11.5</ele><time>2026-04-06T10:48:00Z</time></trkpt><trkpt lat="45.62998327058261" lon="12.210757505863867"><ele>11.75</ele><time>2026-04-06T10:48:01Z</time></trkpt><trkpt lat="45.62988715688267" lon="12.210724157155665"><ele>12.0</ele><time>2026-04-06T10:48:02Z</time></trkpt><trkpt lat="45.629743908609214" lon="12.210867207485535"><ele>12.0</ele><time>2026-04-06T10:48:03Z</time></trkpt><trkpt lat="45.62959703899419" lon="12.21099493254223"><ele>12.0</ele><time>2026-04-06T10:48:04Z</time></trkpt><trkpt lat="45.62943203746325" lon="12.2110881240302"><ele>12.0</ele><time>2026-04-06T10:48:05Z</time></trkpt><trkpt lat="45.62929683668496" lon="12.211196319911728"><ele>12.0</ele><time>2026-04-06T10:48:06Z</time></trkpt><trkpt lat="45.62917085962772" lon="12.211286361732748"><ele>12.0</ele><time>2026-04-06T10:48:07Z</time></trkpt><trkpt lat="45.62905883135622" lon="12.211358406419153"><ele>12.0</ele><time>2026-04-06T10:48:08Z</time></trkpt><trkpt lat="45.628969081278875" lon="12.21143592607294"><ele>12.0</ele><time>2026-04-06T10:48:09Z</time></trkpt><trkpt lat="45.62890498393548" lon="12.211560721766032"><ele>12.0</ele><time>2026-04-06T10:48:10Z</time></trkpt><trkpt lat="45.628874697346" lon="12.211728533593016"><ele>12.0</ele><time>2026-04-06T10:48:11Z</time></trkpt><trkpt lat="45.62887850384979" lon="12.211935230281572"><ele>12.0</ele><time>2026-04-06T10:48:12Z</time></trkpt><trkpt lat="45.62890366589436" lon="12.212143427133293"><ele>12.0</ele><time>2026-04-06T10:48:13Z</time></trkpt><trkpt lat="45.628917582313505" lon="12.212302317250748"><ele>11.6</ele><time>2026-04-06T10:48:14Z</time></trkpt><trkpt lat="45.62892174982703" lon="12.212426994698461"><ele>11.2</ele><time>2026-04-06T10:48:15Z</time></trkpt><trkpt lat="45.62893014613158" lon="12.212549606752606"><ele>10.8</ele><time>2026-04-06T10:48:16Z</time></trkpt><trkpt lat="45.628942597582345" lon="12.21267178567399"><ele>10.4</ele><time>2026-04-06T10:48:17Z</time></trkpt><trkpt lat="45.62895298643504" lon="12.212840044615048"><ele>10.0</ele><time>2026-04-06T10:48:18Z</time></trkpt><trkpt lat="45.62893875210959" lon="12.213019313003803"><ele>10.0</ele><time>2026-04-06T10:48:19Z</time></trkpt><trkpt lat="45.62888915760506" lon="12.213150357988415"><ele>10.0</ele><time>2026-04-06T10:48:20Z</time></trkpt><trkpt lat="45.62882133225559" lon="12.213226570223107"><ele>10.0</ele><time>2026-04-06T10:48:21Z</time></trkpt><trkpt lat="45.62873126628413" lon="12.213277209495564"><ele>10.0</ele><time>2026-04-06T10:48:22Z</time></trkpt><trkpt lat="45.62862506872261" lon="12.213311949831631"><ele>10.0</ele><time>2026-04-06T10:48:23Z</time></trkpt><trkpt lat="45.628526418725635" lon="12.21337702994105"><ele>10.0</ele><time>2026-04-06T10:48:24Z</time></trkpt><trkpt lat="45.62845180961225" lon="12.213463968954587"><ele>10.0</ele><time>2026-04-06T10:48:25Z</time></trkpt><trkpt lat="45.62839462418747" lon="12.213617979786992"><ele>10.0</ele><time>2026-04-06T10:48:26Z</time></trkpt><trkpt lat="45.6283535824417" lon="12.213835840350741"><ele>10.0</ele><time>2026-04-06T10:48:27Z</time></trkpt><trkpt lat="45.62831243882102" lon="12.214049324087322"><ele>10.0</ele><time>2026-04-06T10:48:28Z</time></trkpt><trkpt lat="45.628269779616616" lon="12.214235709175872"><ele>10.0</ele><time>2026-04-06T10:48:29Z</time></trkpt><trkpt lat="45.628216511784466" lon="12.214449881497716"><ele>10.0</ele><time>2026-04-06T10:48:30Z</time></trkpt><trkpt lat="45.628153589125304" lon="12.21471451439093"><ele>10.0</ele><time>2026-04-06T10:48:31Z</time></trkpt><trkpt lat="45.62808828758609" lon="12.215006182407294"><ele>10.0</ele><time>2026-04-06T10:48:32Z</time></trkpt><trkpt lat="45.62801866789164" lon="12.215297707179971"><ele>10.0</ele><time>2026-04-06T10:48:33Z</time></trkpt><trkpt lat="45.62797205909119" lon="12.215553806692775"><ele>10.0</ele><time>2026-04-06T10:48:34Z</time></trkpt><trkpt lat="45.62791579332521" lon="12.215787329668657"><ele>10.0</ele><time>2026-04-06T10:48:35Z</time></trkpt><trkpt lat="45.6278580710523" lon="12.215997847435128"><ele>10.0</ele><time>2026-04-06T10:48:36Z</time></trkpt><trkpt lat="45.62780392761567" lon="12.216185738063775"><ele>10.0</ele><time>2026-04-06T10:48:37Z</time></trkpt><trkpt lat="45.62778328043878" lon="12.216380134564135"><ele>10.0</ele><time>2026-04-06T10:48:38Z</time></trkpt><trkpt lat="45.627793218899924" lon="12.216581333716865"><ele>10.0</ele><time>2026-04-06T10:48:39Z</time></trkpt><trkpt lat="45.62780035497293" lon="12.21677207392052"><ele>10.0</ele><time>2026-04-06T10:48:40Z</time></trkpt><trkpt lat="45.62778290694488" lon="12.216940585396253"><ele>10.0</ele><time>2026-04-06T10:48:41Z</time></trkpt><trkpt lat="45.6277479206643" lon="12.217084374593075"><ele>10.0</ele><time>2026-04-06T10:48:42Z</time></trkpt><trkpt lat="45.627707380882036" lon="12.217190702878957"><ele>10.0</ele><time>2026-04-06T10:48:43Z</time></trkpt><trkpt lat="45.6276511072208" lon="12.217271153157538"><ele>10.0</ele><time>2026-04-06T10:48:44Z</time></trkpt><trkpt lat="45.62756287635245" lon="12.217255697136581"><ele>10.0</ele><time>2026-04-06T10:48:45Z</time></trkpt><trkpt lat="45.62746599421968" lon="12.217273716179497"><ele>10.0</ele><time>2026-04-06T10:48:46Z</time></trkpt><trkpt lat="45.6273198948531" lon="12.217327459819689"><ele>10.0</ele><time>2026-04-06T10:48:47Z</time></trkpt><trkpt lat="45.627142032611786" lon="12.21736299429131"><ele>10.0</ele><time>2026-04-06T10:48:48Z</time></trkpt><trkpt lat="45.62693318592476" lon="12.217400088840186"><ele>10.0</ele><time>2026-04-06T10:48:49Z</time></trkpt><trkpt lat="45.626745229857384" lon="12.217445706421117"><ele>10.0</ele><time>2026-04-06T10:48:50Z</time></trkpt><trkpt lat="45.62657467712696" lon="12.217511471778264"><ele>10.0</ele><time>2026-04-06T10:48:51Z</time></trkpt><trkpt lat="45.626418301707965" lon="12.21753065514483"><ele>10.0</ele><time>2026-04-06T10:48:52Z</time></trkpt><trkpt lat="45.626309490067044" lon="12.217581929158527"><ele>10.0</ele><time>2026-04-06T10:48:53Z</time></trkpt><trkpt lat="45.62622375442611" lon="12.217595701261667"><ele>10.0</ele><time>2026-04-06T10:48:54Z</time></trkpt><trkpt lat="45.626136085472666" lon="12.217618428584544"><ele>10.0</ele><time>2026-04-06T10:48:56Z</time></trkpt><trkpt lat="45.62609003182066" lon="12.217458887051972"><ele>10.0</ele><time>2026-04-06T10:48:59Z</time></trkpt><trkpt lat="45.626054516358465" lon="12.217291378193654"><ele>10.25</ele><time>2026-04-06T10:49:00Z</time></trkpt><trkpt lat="45.626015433179695" lon="12.217126978866768"><ele>10.5</ele><time>2026-04-06T10:49:01Z</time></trkpt><trkpt lat="45.62596800844832" lon="12.216943802530189"><ele>10.75</ele><time>2026-04-06T10:49:02Z</time></trkpt><trkpt lat="45.62591180029009" lon="12.216721210757001"><ele>11.0</ele><time>2026-04-06T10:49:03Z</time></trkpt><trkpt lat="45.625847430565955" lon="12.21650631930107"><ele>11.0</ele><time>2026-04-06T10:49:04Z</time></trkpt><trkpt lat="45.62576292704437" lon="12.216269169684395"><ele>11.0</ele><time>2026-04-06T10:49:05Z</time></trkpt><trkpt lat="45.62566710196492" lon="12.216021030024917"><ele>11.0</ele><time>2026-04-06T10:49:06Z</time></trkpt><trkpt lat="45.62556004059138" lon="12.215798819774657"><ele>11.0</ele><time>2026-04-06T10:49:07Z</time></trkpt><trkpt lat="45.62544611158186" lon="12.215587903513851"><ele>11.0</ele><time>2026-04-06T10:49:08Z</time></trkpt><trkpt lat="45.62534331835457" lon="12.215396246427687"><ele>11.0</ele><time>2026-04-06T10:49:09Z</time></trkpt><trkpt lat="45.62523866328589" lon="12.21523622713351"><ele>11.333333333333332</ele><time>2026-04-06T10:49:10Z</time></trkpt><trkpt lat="45.62510785328429" lon="12.215128497368143"><ele>11.666666666666666</ele><time>2026-04-06T10:49:11Z</time></trkpt><trkpt lat="45.624931800718684" lon="12.21508830188837"><ele>12.0</ele><time>2026-04-06T10:49:12Z</time></trkpt><trkpt lat="45.624735986821634" lon="12.215082904178125"><ele>12.0</ele><time>2026-04-06T10:49:13Z</time></trkpt><trkpt lat="45.62450504422528" lon="12.21509101053918"><ele>12.0</ele><time>2026-04-06T10:49:14Z</time></trkpt><trkpt lat="45.624257724573035" lon="12.21509131301332"><ele>11.5</ele><time>2026-04-06T10:49:15Z</time></trkpt><trkpt lat="45.624004354094424" lon="12.215092599624679"><ele>11.0</ele><time>2026-04-06T10:49:16Z</time></trkpt><trkpt lat="45.62375969099094" lon="12.215089105774112"><ele>11.0</ele><time>2026-04-06T10:49:17Z</time></trkpt><trkpt lat="45.62353523511191" lon="12.215078485034189"><ele>11.0</ele><time>2026-04-06T10:49:18Z</time></trkpt><trkpt lat="45.623333115367835" lon="12.215085685605404"><ele>11.0</ele><time>2026-04-06T10:49:19Z</time></trkpt><trkpt lat="45.6231396247183" lon="12.215061114306241"><ele>11.0</ele><time>2026-04-06T10:49:20Z</time></trkpt><trkpt lat="45.62296236716028" lon="12.215033819793431"><ele>11.0</ele><time>2026-04-06T10:49:21Z</time></trkpt><trkpt lat="45.62279580337405" lon="12.215021592452858"><ele>11.0</ele><time>2026-04-06T10:49:22Z</time></trkpt><trkpt lat="45.6226599329937" lon="12.215024843772005"><ele>11.0</ele><time>2026-04-06T10:49:23Z</time></trkpt><trkpt lat="45.62255295384907" lon="12.2150304193398"><ele>11.0</ele><time>2026-04-06T10:49:24Z</time></trkpt><trkpt lat="45.62245980175271" lon="12.214996420117464"><ele>11.0</ele><time>2026-04-06T10:49:25Z</time></trkpt><trkpt lat="45.622385064353104" lon="12.214955955415027"><ele>11.0</ele><time>2026-04-06T10:49:26Z</time></trkpt><trkpt lat="45.62233789476202" lon="12.214778382998835"><ele>11.0</ele><time>2026-04-06T10:49:27Z</time></trkpt><trkpt lat="45.62228915798858" lon="12.214644360641108"><ele>11.0</ele><time>2026-04-06T10:49:28Z</time></trkpt><trkpt lat="45.62235744884139" lon="12.214407926598176"><ele>11.0</ele><time>2026-04-06T10:49:29Z</time></trkpt><trkpt lat="45.62235743076146" lon="12.214151473854136"><ele>11.0</ele><time>2026-04-06T10:49:30Z</time></trkpt><trkpt lat="45.622386644127204" lon="12.213846294148412"><ele>12.0</ele><time>2026-04-06T10:49:31Z</time></trkpt><trkpt lat="45.622403614556454" lon="12.213517477331541"><ele>13.0</ele><time>2026-04-06T10:49:32Z</time></trkpt><trkpt lat="45.62241791853204" lon="12.213186580404617"><ele>12.5</ele><time>2026-04-06T10:49:33Z</time></trkpt><trkpt lat="45.622428478993605" lon="12.212831285621219"><ele>12.0</ele><time>2026-04-06T10:49:34Z</time></trkpt><trkpt lat="45.62244712316868" lon="12.212466032365564"><ele>12.5</ele><time>2026-04-06T10:49:35Z</time></trkpt><trkpt lat="45.62246985777763" lon="12.212082064659203"><ele>13.0</ele><time>2026-04-06T10:49:36Z</time></trkpt><trkpt lat="45.62249068384595" lon="12.211702757006748"><ele>12.5</ele><time>2026-04-06T10:49:37Z</time></trkpt><trkpt lat="45.62251122081399" lon="12.211333728319513"><ele>12.0</ele><time>2026-04-06T10:49:38Z</time></trkpt><trkpt lat="45.62253130230178" lon="12.210948351970549"><ele>11.5</ele><time>2026-04-06T10:49:39Z</time></trkpt><trkpt lat="45.62256166566396" lon="12.2105617296136"><ele>11.0</ele><time>2026-04-06T10:49:40Z</time></trkpt><trkpt lat="45.62259408051301" lon="12.210172427009544"><ele>11.5</ele><time>2026-04-06T10:49:41Z</time></trkpt><trkpt lat="45.622622715095126" lon="12.209816455713195"><ele>12.0</ele><time>2026-04-06T10:49:42Z</time></trkpt><trkpt lat="45.62264989430423" lon="12.209482621738314"><ele>12.0</ele><time>2026-04-06T10:49:43Z</time></trkpt><trkpt lat="45.622677853248106" lon="12.209171008743821"><ele>12.0</ele><time>2026-04-06T10:49:44Z</time></trkpt><trkpt lat="45.622704845325174" lon="12.20887862485813"><ele>12.0</ele><time>2026-04-06T10:49:45Z</time></trkpt><trkpt lat="45.62272782187414" lon="12.208614151096723"><ele>12.0</ele><time>2026-04-06T10:49:46Z</time></trkpt><trkpt lat="45.622745907916574" lon="12.208359218789937"><ele>12.0</ele><time>2026-04-06T10:49:47Z</time></trkpt><trkpt lat="45.622776882506066" lon="12.208121297414284"><ele>12.0</ele><time>2026-04-06T10:49:48Z</time></trkpt><trkpt lat="45.622820716008476" lon="12.207890591917668"><ele>12.0</ele><time>2026-04-06T10:49:49Z</time></trkpt><trkpt lat="45.62287306422309" lon="12.207638039859859"><ele>12.0</ele><time>2026-04-06T10:49:50Z</time></trkpt><trkpt lat="45.62294321725507" lon="12.207386938748572"><ele>12.0</ele><time>2026-04-06T10:49:51Z</time></trkpt><trkpt lat="45.623006689854165" lon="12.207153942209285"><ele>12.0</ele><time>2026-04-06T10:49:52Z</time></trkpt><trkpt lat="45.62307168815017" lon="12.206898073853873"><ele>12.0</ele><time>2026-04-06T10:49:53Z</time></trkpt><trkpt lat="45.62315242049661" lon="12.206685117374754"><ele>12.0</ele><time>2026-04-06T10:49:54Z</time></trkpt><trkpt lat="45.62323695043443" lon="12.20647350132534"><ele>12.0</ele><time>2026-04-06T10:49:55Z</time></trkpt><trkpt lat="45.62330549427451" lon="12.206263835984252"><ele>12.0</ele><time>2026-04-06T10:49:56Z</time></trkpt><trkpt lat="45.623369423574516" lon="12.206074375691447"><ele>12.0</ele><time>2026-04-06T10:49:57Z</time></trkpt><trkpt lat="45.6234395239713" lon="12.205888790546421"><ele>12.0</ele><time>2026-04-06T10:49:58Z</time></trkpt><trkpt lat="45.62350910851603" lon="12.205694893188948"><ele>12.0</ele><time>2026-04-06T10:49:59Z</time></trkpt><trkpt lat="45.623578154733096" lon="12.205497991034951"><ele>12.0</ele><time>2026-04-06T10:50:00Z</time></trkpt><trkpt lat="45.623645985379085" lon="12.205309969889338"><ele>12.0</ele><time>2026-04-06T10:50:01Z</time></trkpt><trkpt lat="45.623702081565575" lon="12.205135156992451"><ele>12.0</ele><time>2026-04-06T10:50:02Z</time></trkpt><trkpt lat="45.62376101539739" lon="12.204967401041806"><ele>12.0</ele><time>2026-04-06T10:50:03Z</time></trkpt><trkpt lat="45.62380343516694" lon="12.204771996113598"><ele>12.0</ele><time>2026-04-06T10:50:04Z</time></trkpt><trkpt lat="45.62381934233792" lon="12.204540436061242"><ele>12.0</ele><time>2026-04-06T10:50:05Z</time></trkpt><trkpt lat="45.623824134102534" lon="12.204279999602711"><ele>12.0</ele><time>2026-04-06T10:50:06Z</time></trkpt><trkpt lat="45.62385659779869" lon="12.20399227019823"><ele>12.0</ele><time>2026-04-06T10:50:07Z</time></trkpt><trkpt lat="45.62387358317725" lon="12.203676171941371"><ele>12.0</ele><time>2026-04-06T10:50:08Z</time></trkpt><trkpt lat="45.623919029157214" lon="12.203362813888903"><ele>12.0</ele><time>2026-04-06T10:50:09Z</time></trkpt><trkpt lat="45.62396145742067" lon="12.20307403275672"><ele>12.0</ele><time>2026-04-06T10:50:10Z</time></trkpt><trkpt lat="45.624026762048054" lon="12.20281925290098"><ele>12.0</ele><time>2026-04-06T10:50:11Z</time></trkpt><trkpt lat="45.624089707283126" lon="12.20257991146136"><ele>12.0</ele><time>2026-04-06T10:50:12Z</time></trkpt><trkpt lat="45.62413056046942" lon="12.202326841622398"><ele>12.0</ele><time>2026-04-06T10:50:13Z</time></trkpt><trkpt lat="45.62417304830979" lon="12.202079182865944"><ele>12.0</ele><time>2026-04-06T10:50:14Z</time></trkpt><trkpt lat="45.62419212523764" lon="12.201833253755353"><ele>12.0</ele><time>2026-04-06T10:50:15Z</time></trkpt><trkpt lat="45.62418233823626" lon="12.201556893865202"><ele>12.0</ele><time>2026-04-06T10:50:16Z</time></trkpt><trkpt lat="45.6241981983805" lon="12.20123270399626"><ele>12.0</ele><time>2026-04-06T10:50:17Z</time></trkpt><trkpt lat="45.624193247346085" lon="12.20087339019686"><ele>12.0</ele><time>2026-04-06T10:50:18Z</time></trkpt><trkpt lat="45.62420513689646" lon="12.200490390505166"><ele>12.0</ele><time>2026-04-06T10:50:19Z</time></trkpt><trkpt lat="45.624205308819334" lon="12.200080797668093"><ele>12.0</ele><time>2026-04-06T10:50:20Z</time></trkpt><trkpt lat="45.624207741240944" lon="12.199689348708276"><ele>12.0</ele><time>2026-04-06T10:50:21Z</time></trkpt><trkpt lat="45.6242104565436" lon="12.199336861858688"><ele>12.0</ele><time>2026-04-06T10:50:22Z</time></trkpt><trkpt lat="45.624210462092" lon="12.198973517680686"><ele>12.5</ele><time>2026-04-06T10:50:23Z</time></trkpt><trkpt lat="45.62421443416583" lon="12.198593773899717"><ele>13.0</ele><time>2026-04-06T10:50:24Z</time></trkpt><trkpt lat="45.62422099442653" lon="12.198205349413401"><ele>13.0</ele><time>2026-04-06T10:50:25Z</time></trkpt><trkpt lat="45.62422496642994" lon="12.197803182362696"><ele>13.0</ele><time>2026-04-06T10:50:26Z</time></trkpt><trkpt lat="45.6242288070089" lon="12.197394861757012"><ele>13.0</ele><time>2026-04-06T10:50:27Z</time></trkpt><trkpt lat="45.62423351757361" lon="12.196982156775002"><ele>13.0</ele><time>2026-04-06T10:50:28Z</time></trkpt><trkpt lat="45.62423549941266" lon="12.196559440829363"><ele>13.0</ele><time>2026-04-06T10:50:29Z</time></trkpt><trkpt lat="45.62423252150971" lon="12.196130343291863"><ele>13.0</ele><time>2026-04-06T10:50:30Z</time></trkpt><trkpt lat="45.624213756683304" lon="12.195697890861332"><ele>13.0</ele><time>2026-04-06T10:50:31Z</time></trkpt><trkpt lat="45.624197855993266" lon="12.19525800219079"><ele>13.0</ele><time>2026-04-06T10:50:32Z</time></trkpt><trkpt lat="45.624173517363616" lon="12.194822499444719"><ele>12.5</ele><time>2026-04-06T10:50:33Z</time></trkpt><trkpt lat="45.624163049893404" lon="12.194438726028027"><ele>12.0</ele><time>2026-04-06T10:50:34Z</time></trkpt><trkpt lat="45.62414997808696" lon="12.194087128385064"><ele>12.0</ele><time>2026-04-06T10:50:35Z</time></trkpt><trkpt lat="45.624135462033" lon="12.193764248058883"><ele>12.0</ele><time>2026-04-06T10:50:36Z</time></trkpt><trkpt lat="45.62410649880337" lon="12.193455769062476"><ele>12.0</ele><time>2026-04-06T10:50:37Z</time></trkpt><trkpt lat="45.624084367082844" lon="12.1931570918074"><ele>12.0</ele><time>2026-04-06T10:50:38Z</time></trkpt><trkpt lat="45.62411055428543" lon="12.19284807753542"><ele>12.0</ele><time>2026-04-06T10:50:39Z</time></trkpt><trkpt lat="45.62413399036642" lon="12.19253238014656"><ele>12.0</ele><time>2026-04-06T10:50:40Z</time></trkpt><trkpt lat="45.624176515435" lon="12.192204013574884"><ele>12.0</ele><time>2026-04-06T10:50:41Z</time></trkpt><trkpt lat="45.624205255387224" lon="12.19189044858609"><ele>12.0</ele><time>2026-04-06T10:50:42Z</time></trkpt><trkpt lat="45.62422652593152" lon="12.19160640570258"><ele>12.0</ele><time>2026-04-06T10:50:43Z</time></trkpt><trkpt lat="45.62424237556491" lon="12.191338436110428"><ele>12.0</ele><time>2026-04-06T10:50:44Z</time></trkpt><trkpt lat="45.62425319365532" lon="12.19110258982759"><ele>12.0</ele><time>2026-04-06T10:50:45Z</time></trkpt><trkpt lat="45.62426236241964" lon="12.190892263541862"><ele>12.0</ele><time>2026-04-06T10:50:46Z</time></trkpt><trkpt lat="45.624271907085586" lon="12.190708122317824"><ele>12.0</ele><time>2026-04-06T10:50:47Z</time></trkpt><trkpt lat="45.624280684858846" lon="12.190531225677347"><ele>12.0</ele><time>2026-04-06T10:50:48Z</time></trkpt><trkpt lat="45.624290983105666" lon="12.190338777748332"><ele>12.0</ele><time>2026-04-06T10:50:49Z</time></trkpt><trkpt lat="45.62429608813343" lon="12.190101059549548"><ele>12.0</ele><time>2026-04-06T10:50:50Z</time></trkpt><trkpt lat="45.62430484475496" lon="12.189822089291427"><ele>12.333333333333332</ele><time>2026-04-06T10:50:51Z</time></trkpt><trkpt lat="45.624293723386224" lon="12.189550484897271"><ele>12.666666666666666</ele><time>2026-04-06T10:50:52Z</time></trkpt><trkpt lat="45.624304922022866" lon="12.189317504636561"><ele>13.0</ele><time>2026-04-06T10:50:53Z</time></trkpt><trkpt lat="45.62430713719366" lon="12.189129493960998"><ele>12.8</ele><time>2026-04-06T10:50:54Z</time></trkpt><trkpt lat="45.6243010741165" lon="12.188977566685333"><ele>12.600000000000001</ele><time>2026-04-06T10:50:55Z</time></trkpt><trkpt lat="45.62429156507866" lon="12.188846610981342"><ele>12.399999999999999</ele><time>2026-04-06T10:50:56Z</time></trkpt><trkpt lat="45.62426437330883" lon="12.188729720309086"><ele>12.2</ele><time>2026-04-06T10:50:57Z</time></trkpt><trkpt lat="45.62423110019047" lon="12.188644226090378"><ele>12.0</ele><time>2026-04-06T10:50:58Z</time></trkpt><trkpt lat="45.62418222755658" lon="12.188511076093205"><ele>12.0</ele><time>2026-04-06T10:51:00Z</time></trkpt><trkpt lat="45.62402193278132" lon="12.188559694694298"><ele>12.0</ele><time>2026-04-06T10:51:01Z</time></trkpt><trkpt lat="45.62389467135189" lon="12.188571739634625"><ele>12.0</ele><time>2026-04-06T10:51:02Z</time></trkpt><trkpt lat="45.62373170067525" lon="12.18856412206105"><ele>12.666666666666668</ele><time>2026-04-06T10:51:03Z</time></trkpt><trkpt lat="45.62354999297833" lon="12.188586469059594"><ele>13.333333333333334</ele><time>2026-04-06T10:51:04Z</time></trkpt><trkpt lat="45.62338714967418" lon="12.188569058366241"><ele>14.0</ele><time>2026-04-06T10:51:05Z</time></trkpt><trkpt lat="45.62323097408481" lon="12.188570849295457"><ele>14.0</ele><time>2026-04-06T10:51:06Z</time></trkpt><trkpt lat="45.62307939013715" lon="12.188593801769239"><ele>14.0</ele><time>2026-04-06T10:51:07Z</time></trkpt><trkpt lat="45.6229467350482" lon="12.188568295969704"><ele>14.0</ele><time>2026-04-06T10:51:08Z</time></trkpt><trkpt lat="45.62282895900471" lon="12.188539628239988"><ele>14.0</ele><time>2026-04-06T10:51:09Z</time></trkpt><trkpt lat="45.622690169186875" lon="12.188468333428256"><ele>14.333333333333334</ele><time>2026-04-06T10:51:10Z</time></trkpt><trkpt lat="45.62254482143996" lon="12.188360997132905"><ele>14.666666666666668</ele><time>2026-04-06T10:51:11Z</time></trkpt><trkpt lat="45.622407300213546" lon="12.188223810881583"><ele>15.0</ele><time>2026-04-06T10:51:12Z</time></trkpt><trkpt lat="45.622267768673886" lon="12.188122053593656"><ele>14.5</ele><time>2026-04-06T10:51:13Z</time></trkpt><trkpt lat="45.62214740387273" lon="12.188032444895642"><ele>14.0</ele><time>2026-04-06T10:51:14Z</time></trkpt><trkpt lat="45.622015058301635" lon="12.187986617708006"><ele>13.5</ele><time>2026-04-06T10:51:15Z</time></trkpt><trkpt lat="45.62184788052247" lon="12.187974555927063"><ele>13.0</ele><time>2026-04-06T10:51:16Z</time></trkpt><trkpt lat="45.62165924107192" lon="12.187934731118009"><ele>13.0</ele><time>2026-04-06T10:51:17Z</time></trkpt><trkpt lat="45.62143147220396" lon="12.187906315493176"><ele>13.0</ele><time>2026-04-06T10:51:18Z</time></trkpt><trkpt lat="45.62121479226536" lon="12.187879253839176"><ele>13.0</ele><time>2026-04-06T10:51:19Z</time></trkpt><trkpt lat="45.621016338649056" lon="12.187854758780377"><ele>12.666666666666666</ele><time>2026-04-06T10:51:20Z</time></trkpt><trkpt lat="45.620817236512664" lon="12.187833950695655"><ele>12.333333333333332</ele><time>2026-04-06T10:51:21Z</time></trkpt><trkpt lat="45.620617001740634" lon="12.18782457771001"><ele>12.0</ele><time>2026-04-06T10:51:22Z</time></trkpt><trkpt lat="45.62042901322212" lon="12.187838238208297"><ele>12.0</ele><time>2026-04-06T10:51:23Z</time></trkpt><trkpt lat="45.62025213503389" lon="12.187848601927149"><ele>12.0</ele><time>2026-04-06T10:51:24Z</time></trkpt><trkpt lat="45.62006660550859" lon="12.187857978422837"><ele>12.0</ele><time>2026-04-06T10:51:25Z</time></trkpt><trkpt lat="45.61986171044822" lon="12.187868335694532"><ele>12.0</ele><time>2026-04-06T10:51:26Z</time></trkpt><trkpt lat="45.61963819495282" lon="12.187892592319274"><ele>12.0</ele><time>2026-04-06T10:51:27Z</time></trkpt><trkpt lat="45.61940573533901" lon="12.187886269681403"><ele>12.333333333333332</ele><time>2026-04-06T10:51:28Z</time></trkpt><trkpt lat="45.619181727237475" lon="12.18789207681852"><ele>12.666666666666666</ele><time>2026-04-06T10:51:29Z</time></trkpt><trkpt lat="45.618969318640445" lon="12.187892580049553"><ele>13.0</ele><time>2026-04-06T10:51:30Z</time></trkpt><trkpt lat="45.6187674265372" lon="12.187882696595747"><ele>13.0</ele><time>2026-04-06T10:51:31Z</time></trkpt><trkpt lat="45.61858387182916" lon="12.187869617994505"><ele>13.0</ele><time>2026-04-06T10:51:32Z</time></trkpt><trkpt lat="45.618426809459876" lon="12.187858427013314"><ele>13.0</ele><time>2026-04-06T10:51:33Z</time></trkpt><trkpt lat="45.61830075320938" lon="12.187849445285353"><ele>13.0</ele><time>2026-04-06T10:51:34Z</time></trkpt><trkpt lat="45.618188234276225" lon="12.187836814071046"><ele>13.0</ele><time>2026-04-06T10:51:35Z</time></trkpt><trkpt lat="45.6180836438056" lon="12.187799187125643"><ele>13.0</ele><time>2026-04-06T10:51:36Z</time></trkpt><trkpt lat="45.61798095525831" lon="12.187710449460532"><ele>13.0</ele><time>2026-04-06T10:51:37Z</time></trkpt><trkpt lat="45.617873496017545" lon="12.187553786624935"><ele>13.0</ele><time>2026-04-06T10:51:38Z</time></trkpt><trkpt lat="45.61774659332731" lon="12.187367579842794"><ele>13.0</ele><time>2026-04-06T10:51:39Z</time></trkpt><trkpt lat="45.61762921121873" lon="12.187201621305123"><ele>13.0</ele><time>2026-04-06T10:51:40Z</time></trkpt><trkpt lat="45.61751363303718" lon="12.187076340154396"><ele>12.75</ele><time>2026-04-06T10:51:41Z</time></trkpt><trkpt lat="45.617403915975316" lon="12.186969643490716"><ele>12.5</ele><time>2026-04-06T10:51:42Z</time></trkpt><trkpt lat="45.61728177716039" lon="12.186905887500984"><ele>12.25</ele><time>2026-04-06T10:51:43Z</time></trkpt><trkpt lat="45.61712709670071" lon="12.186869494578094"><ele>12.0</ele><time>2026-04-06T10:51:44Z</time></trkpt><trkpt lat="45.6169421033044" lon="12.186820046100914"><ele>12.0</ele><time>2026-04-06T10:51:45Z</time></trkpt><trkpt lat="45.61673937754351" lon="12.186828588221312"><ele>12.0</ele><time>2026-04-06T10:51:46Z</time></trkpt><trkpt lat="45.61655878291131" lon="12.186804791695018"><ele>12.0</ele><time>2026-04-06T10:51:47Z</time></trkpt><trkpt lat="45.61639576221285" lon="12.186791381515544"><ele>12.0</ele><time>2026-04-06T10:51:48Z</time></trkpt><trkpt lat="45.61621175552685" lon="12.18674029793026"><ele>12.0</ele><time>2026-04-06T10:51:49Z</time></trkpt><trkpt lat="45.61598743563922" lon="12.186644529288976"><ele>12.0</ele><time>2026-04-06T10:51:50Z</time></trkpt><trkpt lat="45.61576455093912" lon="12.186550400552294"><ele>12.0</ele><time>2026-04-06T10:51:51Z</time></trkpt><trkpt lat="45.61556764138423" lon="12.186467241562836"><ele>12.0</ele><time>2026-04-06T10:51:52Z</time></trkpt><trkpt lat="45.61538305907794" lon="12.186398824470414"><ele>12.0</ele><time>2026-04-06T10:51:53Z</time></trkpt><trkpt lat="45.6152014082925" lon="12.18636053467476"><ele>12.0</ele><time>2026-04-06T10:51:54Z</time></trkpt><trkpt lat="45.61503170497071" lon="12.186353267349412"><ele>12.0</ele><time>2026-04-06T10:51:55Z</time></trkpt><trkpt lat="45.614859608056754" lon="12.186328721004031"><ele>12.0</ele><time>2026-04-06T10:51:56Z</time></trkpt><trkpt lat="45.614690570707815" lon="12.186290340603527"><ele>12.0</ele><time>2026-04-06T10:51:57Z</time></trkpt><trkpt lat="45.61453366684398" lon="12.186270039940803"><ele>12.0</ele><time>2026-04-06T10:51:58Z</time></trkpt><trkpt lat="45.61440670848376" lon="12.18624814786513"><ele>12.0</ele><time>2026-04-06T10:51:59Z</time></trkpt><trkpt lat="45.61431479388888" lon="12.186201375596621"><ele>12.0</ele><time>2026-04-06T10:52:00Z</time></trkpt><trkpt lat="45.614256258880026" lon="12.186125543548506"><ele>12.2</ele><time>2026-04-06T10:52:01Z</time></trkpt><trkpt lat="45.614233004634116" lon="12.186016737504449"><ele>12.399999999999999</ele><time>2026-04-06T10:52:02Z</time></trkpt><trkpt lat="45.614245364590595" lon="12.185893081232727"><ele>12.600000000000001</ele><time>2026-04-06T10:52:03Z</time></trkpt><trkpt lat="45.6142401635661" lon="12.185730795446965"><ele>12.8</ele><time>2026-04-06T10:52:04Z</time></trkpt><trkpt lat="45.614219836943036" lon="12.185583200041275"><ele>13.0</ele><time>2026-04-06T10:52:05Z</time></trkpt><trkpt lat="45.61416315425094" lon="12.185485069627413"><ele>12.5</ele><time>2026-04-06T10:52:06Z</time></trkpt><trkpt lat="45.61408093758603" lon="12.185424676425779"><ele>12.0</ele><time>2026-04-06T10:52:07Z</time></trkpt><trkpt lat="45.61396987358566" lon="12.185398519227146"><ele>11.5</ele><time>2026-04-06T10:52:08Z</time></trkpt><trkpt lat="45.61381438233948" lon="12.1854090530945"><ele>11.0</ele><time>2026-04-06T10:52:09Z</time></trkpt><trkpt lat="45.61363347172702" lon="12.18538581476116"><ele>11.0</ele><time>2026-04-06T10:52:10Z</time></trkpt><trkpt lat="45.613458995475476" lon="12.18540501807024"><ele>11.0</ele><time>2026-04-06T10:52:11Z</time></trkpt><trkpt lat="45.61327085420506" lon="12.185487541448051"><ele>11.0</ele><time>2026-04-06T10:52:12Z</time></trkpt><trkpt lat="45.61306507225041" lon="12.185615699340786"><ele>11.0</ele><time>2026-04-06T10:52:13Z</time></trkpt><trkpt lat="45.612869227314" lon="12.185784344266986"><ele>11.0</ele><time>2026-04-06T10:52:14Z</time></trkpt><trkpt lat="45.61270506996271" lon="12.185953993764482"><ele>11.0</ele><time>2026-04-06T10:52:15Z</time></trkpt><trkpt lat="45.612558058284726" lon="12.186066560644104"><ele>11.0</ele><time>2026-04-06T10:52:16Z</time></trkpt><trkpt lat="45.612416131850374" lon="12.186133541393112"><ele>11.0</ele><time>2026-04-06T10:52:17Z</time></trkpt><trkpt lat="45.612234349627585" lon="12.18615872980955"><ele>11.0</ele><time>2026-04-06T10:52:18Z</time></trkpt><trkpt lat="45.61200588516627" lon="12.186172083927142"><ele>11.5</ele><time>2026-04-06T10:52:19Z</time></trkpt><trkpt lat="45.61177252088819" lon="12.186223268249178"><ele>12.0</ele><time>2026-04-06T10:52:20Z</time></trkpt><trkpt lat="45.61153605543289" lon="12.186303422879638"><ele>12.0</ele><time>2026-04-06T10:52:21Z</time></trkpt><trkpt lat="45.61132873706346" lon="12.186399880995392"><ele>12.0</ele><time>2026-04-06T10:52:22Z</time></trkpt><trkpt lat="45.61114214373826" lon="12.186447913671284"><ele>12.0</ele><time>2026-04-06T10:52:23Z</time></trkpt><trkpt lat="45.610960912144805" lon="12.186454388405101"><ele>11.666666666666666</ele><time>2026-04-06T10:52:24Z</time></trkpt><trkpt lat="45.61075098428698" lon="12.186431279399187"><ele>11.333333333333332</ele><time>2026-04-06T10:52:25Z</time></trkpt><trkpt lat="45.610577925662476" lon="12.186411942651295"><ele>11.0</ele><time>2026-04-06T10:52:26Z</time></trkpt><trkpt lat="45.610416822879934" lon="12.186397554112798"><ele>11.333333333333332</ele><time>2026-04-06T10:52:27Z</time></trkpt><trkpt lat="45.61026220406858" lon="12.186382483182939"><ele>11.666666666666666</ele><time>2026-04-06T10:52:28Z</time></trkpt><trkpt lat="45.61011356723325" lon="12.186366262056048"><ele>12.0</ele><time>2026-04-06T10:52:29Z</time></trkpt><trkpt lat="45.60995175928777" lon="12.18636971115857"><ele>12.0</ele><time>2026-04-06T10:52:30Z</time></trkpt><trkpt lat="45.609779821658684" lon="12.186333211300134"><ele>12.0</ele><time>2026-04-06T10:52:31Z</time></trkpt><trkpt lat="45.609612492599" lon="12.186306968925015"><ele>12.0</ele><time>2026-04-06T10:52:32Z</time></trkpt><trkpt lat="45.60939437305315" lon="12.186256371541855"><ele>12.5</ele><time>2026-04-06T10:52:33Z</time></trkpt><trkpt lat="45.60916743385765" lon="12.186225503192022"><ele>13.0</ele><time>2026-04-06T10:52:34Z</time></trkpt><trkpt lat="45.60893841031168" lon="12.18618384295285"><ele>13.0</ele><time>2026-04-06T10:52:35Z</time></trkpt><trkpt lat="45.60871878598092" lon="12.186180501794768"><ele>13.0</ele><time>2026-04-06T10:52:36Z</time></trkpt><trkpt lat="45.60852694913112" lon="12.186192177216281"><ele>13.0</ele><time>2026-04-06T10:52:37Z</time></trkpt><trkpt lat="45.608346928873274" lon="12.186194946738372"><ele>12.600000000000001</ele><time>2026-04-06T10:52:38Z</time></trkpt><trkpt lat="45.6081937983796" lon="12.18617859639613"><ele>12.200000000000001</ele><time>2026-04-06T10:52:39Z</time></trkpt><trkpt lat="45.608076590702375" lon="12.186180825518594"><ele>11.8</ele><time>2026-04-06T10:52:40Z</time></trkpt><trkpt lat="45.60799461266605" lon="12.186180826535516"><ele>11.4</ele><time>2026-04-06T10:52:41Z</time></trkpt><trkpt lat="45.6079227500757" lon="12.186154792955307"><ele>11.0</ele><time>2026-04-06T10:52:43Z</time></trkpt><trkpt lat="45.60797466361595" lon="12.18594673742997"><ele>11.0</ele><time>2026-04-06T10:52:45Z</time></trkpt><trkpt lat="45.6079817406409" lon="12.185759790469683"><ele>11.0</ele><time>2026-04-06T10:52:46Z</time></trkpt><trkpt lat="45.60799077522572" lon="12.185521132160764"><ele>11.0</ele><time>2026-04-06T10:52:47Z</time></trkpt><trkpt lat="45.607998757617274" lon="12.185274139760566"><ele>11.333333333333332</ele><time>2026-04-06T10:52:48Z</time></trkpt><trkpt lat="45.6079953931501" lon="12.18498460801141"><ele>11.666666666666666</ele><time>2026-04-06T10:52:49Z</time></trkpt><trkpt lat="45.60801335639695" lon="12.18470415566422"><ele>12.0</ele><time>2026-04-06T10:52:50Z</time></trkpt><trkpt lat="45.60802300736882" lon="12.18440314829174"><ele>12.333333333333332</ele><time>2026-04-06T10:52:51Z</time></trkpt><trkpt lat="45.60802422344072" lon="12.184090288223267"><ele>12.666666666666666</ele><time>2026-04-06T10:52:52Z</time></trkpt><trkpt lat="45.608033531312266" lon="12.1838189283428"><ele>13.0</ele><time>2026-04-06T10:52:53Z</time></trkpt><trkpt lat="45.608043557042805" lon="12.18357160569673"><ele>13.0</ele><time>2026-04-06T10:52:54Z</time></trkpt><trkpt lat="45.60804192846837" lon="12.183344201372147"><ele>13.0</ele><time>2026-04-06T10:52:55Z</time></trkpt><trkpt lat="45.60806312044166" lon="12.183165937622004"><ele>13.0</ele><time>2026-04-06T10:52:56Z</time></trkpt><trkpt lat="45.608091565913455" lon="12.18302500580642"><ele>13.0</ele><time>2026-04-06T10:52:57Z</time></trkpt><trkpt lat="45.60814638476638" lon="12.18290287281539"><ele>13.0</ele><time>2026-04-06T10:52:58Z</time></trkpt><trkpt lat="45.60822477008634" lon="12.182804591467761"><ele>13.0</ele><time>2026-04-06T10:52:59Z</time></trkpt><trkpt lat="45.608348006039336" lon="12.182780845502043"><ele>13.0</ele><time>2026-04-06T10:53:00Z</time></trkpt><trkpt lat="45.6084432381102" lon="12.182684572596424"><ele>13.0</ele><time>2026-04-06T10:53:01Z</time></trkpt><trkpt lat="45.60853090044519" lon="12.182614239708915"><ele>13.0</ele><time>2026-04-06T10:53:02Z</time></trkpt><trkpt lat="45.608586002855716" lon="12.18246596147351"><ele>12.666666666666666</ele><time>2026-04-06T10:53:03Z</time></trkpt><trkpt lat="45.60859338813786" lon="12.18222403649223"><ele>12.333333333333332</ele><time>2026-04-06T10:53:04Z</time></trkpt><trkpt lat="45.60859196700292" lon="12.181956434525258"><ele>12.0</ele><time>2026-04-06T10:53:05Z</time></trkpt><trkpt lat="45.608621051815085" lon="12.181639651620733"><ele>12.5</ele><time>2026-04-06T10:53:06Z</time></trkpt><trkpt lat="45.60864287084304" lon="12.181288957493408"><ele>13.0</ele><time>2026-04-06T10:53:07Z</time></trkpt><trkpt lat="45.60865322118721" lon="12.180915743923071"><ele>13.5</ele><time>2026-04-06T10:53:08Z</time></trkpt><trkpt lat="45.60867716471796" lon="12.18054794300255"><ele>14.0</ele><time>2026-04-06T10:53:09Z</time></trkpt><trkpt lat="45.60870231578537" lon="12.180167823918282"><ele>13.5</ele><time>2026-04-06T10:53:10Z</time></trkpt><trkpt lat="45.60872903377699" lon="12.179795945668655"><ele>13.0</ele><time>2026-04-06T10:53:11Z</time></trkpt><trkpt lat="45.608746565888374" lon="12.179441320062391"><ele>13.0</ele><time>2026-04-06T10:53:12Z</time></trkpt><trkpt lat="45.60876256620585" lon="12.17909098134751"><ele>13.0</ele><time>2026-04-06T10:53:13Z</time></trkpt><trkpt lat="45.608769296313135" lon="12.178713720499042"><ele>13.0</ele><time>2026-04-06T10:53:14Z</time></trkpt><trkpt lat="45.60875326975607" lon="12.178309033159284"><ele>13.0</ele><time>2026-04-06T10:53:15Z</time></trkpt><trkpt lat="45.60874425989248" lon="12.177883739357231"><ele>12.5</ele><time>2026-04-06T10:53:16Z</time></trkpt><trkpt lat="45.60873951831191" lon="12.177478699400512"><ele>12.0</ele><time>2026-04-06T10:53:17Z</time></trkpt><trkpt lat="45.60873246461639" lon="12.177098723996712"><ele>12.0</ele><time>2026-04-06T10:53:18Z</time></trkpt><trkpt lat="45.60873254620952" lon="12.176715417754277"><ele>12.0</ele><time>2026-04-06T10:53:19Z</time></trkpt><trkpt lat="45.60870782205179" lon="12.176361537376668"><ele>12.0</ele><time>2026-04-06T10:53:20Z</time></trkpt><trkpt lat="45.608702646668554" lon="12.176039907763718"><ele>12.0</ele><time>2026-04-06T10:53:21Z</time></trkpt><trkpt lat="45.60868863504802" lon="12.175778367425119"><ele>12.0</ele><time>2026-04-06T10:53:22Z</time></trkpt><trkpt lat="45.60866763823921" lon="12.175551223058767"><ele>12.333333333333332</ele><time>2026-04-06T10:53:23Z</time></trkpt><trkpt lat="45.608676045082845" lon="12.175339650217525"><ele>12.666666666666666</ele><time>2026-04-06T10:53:24Z</time></trkpt><trkpt lat="45.60869799998082" lon="12.175121560841431"><ele>13.0</ele><time>2026-04-06T10:53:25Z</time></trkpt><trkpt lat="45.60875784500707" lon="12.174900062792977"><ele>13.0</ele><time>2026-04-06T10:53:26Z</time></trkpt><trkpt lat="45.6088266969251" lon="12.174680872527347"><ele>13.0</ele><time>2026-04-06T10:53:27Z</time></trkpt><trkpt lat="45.60895374613883" lon="12.174516514925372"><ele>13.0</ele><time>2026-04-06T10:53:28Z</time></trkpt><trkpt lat="45.60910186824355" lon="12.174352767166702"><ele>13.0</ele><time>2026-04-06T10:53:29Z</time></trkpt><trkpt lat="45.609262527162805" lon="12.174218427307025"><ele>13.0</ele><time>2026-04-06T10:53:30Z</time></trkpt><trkpt lat="45.60940358074762" lon="12.174102758292126"><ele>13.0</ele><time>2026-04-06T10:53:31Z</time></trkpt><trkpt lat="45.60952818023314" lon="12.174009396659129"><ele>13.333333333333332</ele><time>2026-04-06T10:53:32Z</time></trkpt><trkpt lat="45.609623989858086" lon="12.173869957914954"><ele>13.666666666666668</ele><time>2026-04-06T10:53:33Z</time></trkpt><trkpt lat="45.60969048201807" lon="12.173689669369105"><ele>14.0</ele><time>2026-04-06T10:53:34Z</time></trkpt><trkpt lat="45.609735481711304" lon="12.173445522782915"><ele>14.0</ele><time>2026-04-06T10:53:35Z</time></trkpt><trkpt lat="45.609770426098" lon="12.173138395938544"><ele>14.0</ele><time>2026-04-06T10:53:36Z</time></trkpt><trkpt lat="45.609812068308045" lon="12.17281659176261"><ele>14.0</ele><time>2026-04-06T10:53:37Z</time></trkpt><trkpt lat="45.60986272471478" lon="12.172466965530216"><ele>13.666666666666668</ele><time>2026-04-06T10:53:38Z</time></trkpt><trkpt lat="45.60990827067099" lon="12.172134051988255"><ele>13.333333333333332</ele><time>2026-04-06T10:53:39Z</time></trkpt><trkpt lat="45.609947835308766" lon="12.17184575712874"><ele>13.0</ele><time>2026-04-06T10:53:40Z</time></trkpt><trkpt lat="45.60998243732332" lon="12.171571222943722"><ele>13.0</ele><time>2026-04-06T10:53:41Z</time></trkpt><trkpt lat="45.61002691419905" lon="12.171296658214363"><ele>13.0</ele><time>2026-04-06T10:53:42Z</time></trkpt><trkpt lat="45.61010467282465" lon="12.171035975448689"><ele>13.0</ele><time>2026-04-06T10:53:43Z</time></trkpt><trkpt lat="45.61020116638552" lon="12.170817817535516"><ele>13.2</ele><time>2026-04-06T10:53:44Z</time></trkpt><trkpt lat="45.61027948188004" lon="12.170641498451907"><ele>13.4</ele><time>2026-04-06T10:53:45Z</time></trkpt><trkpt lat="45.610335938272634" lon="12.170495566655372"><ele>13.599999999999998</ele><time>2026-04-06T10:53:46Z</time></trkpt><trkpt lat="45.61036138415221" lon="12.170364424062743"><ele>13.799999999999999</ele><time>2026-04-06T10:53:47Z</time></trkpt><trkpt lat="45.61035779589062" lon="12.170239587294859"><ele>14.0</ele><time>2026-04-06T10:53:48Z</time></trkpt><trkpt lat="45.61035463796621" lon="12.170128016315758"><ele>14.000000000000002</ele><time>2026-04-06T10:53:49Z</time></trkpt><trkpt lat="45.61037873309134" lon="12.170030777893196"><ele>14.0</ele><time>2026-04-06T10:53:50Z</time></trkpt><trkpt lat="45.610373025153095" lon="12.16993361907421"><ele>14.0</ele><time>2026-04-06T10:53:51Z</time></trkpt><trkpt lat="45.6103215563173" lon="12.169848956322753"><ele>14.0</ele><time>2026-04-06T10:53:52Z</time></trkpt><trkpt lat="45.6102452702432" lon="12.169812033652763"><ele>14.000000000000002</ele><time>2026-04-06T10:53:53Z</time></trkpt><trkpt lat="45.610165314178076" lon="12.169831763078312"><ele>14.0</ele><time>2026-04-06T10:53:54Z</time></trkpt><trkpt lat="45.61010485078068" lon="12.16991867938234"><ele>14.0</ele><time>2026-04-06T10:53:55Z</time></trkpt><trkpt lat="45.610055784405155" lon="12.170042225847915"><ele>14.0</ele><time>2026-04-06T10:53:56Z</time></trkpt><trkpt lat="45.60999190362674" lon="12.170194737395585"><ele>14.0</ele><time>2026-04-06T10:53:57Z</time></trkpt><trkpt lat="45.60986771436739" lon="12.170323949905157"><ele>14.0</ele><time>2026-04-06T10:53:58Z</time></trkpt><trkpt lat="45.60968900136078" lon="12.17045235882831"><ele>14.0</ele><time>2026-04-06T10:53:59Z</time></trkpt><trkpt lat="45.60949980590697" lon="12.17058136249779"><ele>14.0</ele><time>2026-04-06T10:54:00Z</time></trkpt><trkpt lat="45.60931921609554" lon="12.170694251696172"><ele>14.0</ele><time>2026-04-06T10:54:01Z</time></trkpt><trkpt lat="45.60912015655598" lon="12.170822660156801"><ele>13.5</ele><time>2026-04-06T10:54:02Z</time></trkpt><trkpt lat="45.60890974662168" lon="12.170973263403209"><ele>13.0</ele><time>2026-04-06T10:54:03Z</time></trkpt><trkpt lat="45.60868565287149" lon="12.171121889385402"><ele>12.5</ele><time>2026-04-06T10:54:04Z</time></trkpt><trkpt lat="45.60847112604911" lon="12.171261885922178"><ele>12.0</ele><time>2026-04-06T10:54:05Z</time></trkpt><trkpt lat="45.6082556176464" lon="12.171415403111014"><ele>12.0</ele><time>2026-04-06T10:54:06Z</time></trkpt><trkpt lat="45.60803161691749" lon="12.171577200571964"><ele>12.0</ele><time>2026-04-06T10:54:07Z</time></trkpt><trkpt lat="45.60779464374505" lon="12.171733767758578"><ele>12.0</ele><time>2026-04-06T10:54:08Z</time></trkpt><trkpt lat="45.607550138542614" lon="12.171895274367591"><ele>12.0</ele><time>2026-04-06T10:54:09Z</time></trkpt><trkpt lat="45.60730859075805" lon="12.172058571078647"><ele>12.0</ele><time>2026-04-06T10:54:10Z</time></trkpt><trkpt lat="45.6070756201138" lon="12.172216316708342"><ele>12.0</ele><time>2026-04-06T10:54:11Z</time></trkpt><trkpt lat="45.60683976572148" lon="12.172380998153747"><ele>12.5</ele><time>2026-04-06T10:54:12Z</time></trkpt><trkpt lat="45.606606581995706" lon="12.172545735147066"><ele>13.0</ele><time>2026-04-06T10:54:13Z</time></trkpt><trkpt lat="45.6063942447685" lon="12.172689443806007"><ele>13.0</ele><time>2026-04-06T10:54:14Z</time></trkpt><trkpt lat="45.60619669037246" lon="12.172820848106593"><ele>13.0</ele><time>2026-04-06T10:54:15Z</time></trkpt><trkpt lat="45.606008100667204" lon="12.17294788316997"><ele>13.0</ele><time>2026-04-06T10:54:16Z</time></trkpt><trkpt lat="45.6058339023378" lon="12.173071133087879"><ele>13.0</ele><time>2026-04-06T10:54:17Z</time></trkpt><trkpt lat="45.60566729069706" lon="12.173183378199852"><ele>13.0</ele><time>2026-04-06T10:54:18Z</time></trkpt><trkpt lat="45.60552044312508" lon="12.173273916009647"><ele>13.0</ele><time>2026-04-06T10:54:19Z</time></trkpt><trkpt lat="45.60540489679599" lon="12.1733502131485"><ele>12.8</ele><time>2026-04-06T10:54:20Z</time></trkpt><trkpt lat="45.60531847595467" lon="12.173411826381935"><ele>12.600000000000001</ele><time>2026-04-06T10:54:21Z</time></trkpt><trkpt lat="45.60525456280109" lon="12.17346286245159"><ele>12.399999999999999</ele><time>2026-04-06T10:54:22Z</time></trkpt><trkpt lat="45.60521249412885" lon="12.173594214883412"><ele>12.2</ele><time>2026-04-06T10:54:24Z</time></trkpt><trkpt lat="45.60518385092172" lon="12.173739682404392"><ele>12.0</ele><time>2026-04-06T10:54:26Z</time></trkpt><trkpt lat="45.605099510347124" lon="12.173806235366333"><ele>12.0</ele><time>2026-04-06T10:54:28Z</time></trkpt><trkpt lat="45.605064869570086" lon="12.173902591006984"><ele>12.0</ele><time>2026-04-06T10:54:30Z</time></trkpt><trkpt lat="45.604977705514706" lon="12.174009794934406"><ele>12.0</ele><time>2026-04-06T10:55:17Z</time></trkpt><trkpt lat="45.6050536265243" lon="12.173946833791515"><ele>12.0</ele><time>2026-04-06T10:55:21Z</time></trkpt><trkpt lat="45.60495388666343" lon="12.173984753005694"><ele>12.0</ele><time>2026-04-06T10:58:46Z</time></trkpt><trkpt lat="45.60487500768327" lon="12.174004547425781"><ele>12.0</ele><time>2026-04-06T10:58:48Z</time></trkpt><trkpt lat="45.60478298142024" lon="12.173990968756568"><ele>12.0</ele><time>2026-04-06T10:58:50Z</time></trkpt><trkpt lat="45.60472097034402" lon="12.173941565739854"><ele>12.0</ele><time>2026-04-06T10:58:52Z</time></trkpt><trkpt lat="45.60463830427649" lon="12.173943863507555"><ele>12.0</ele><time>2026-04-06T10:58:55Z</time></trkpt><trkpt lat="45.604568582741436" lon="12.173960095395591"><ele>12.0</ele><time>2026-04-06T10:58:56Z</time></trkpt><trkpt lat="45.604488970735204" lon="12.173993381915999"><ele>12.0</ele><time>2026-04-06T10:58:57Z</time></trkpt><trkpt lat="45.604413128650194" lon="12.174033356343767"><ele>12.0</ele><time>2026-04-06T10:58:58Z</time></trkpt><trkpt lat="45.60433061133735" lon="12.174080651613306"><ele>12.0</ele><time>2026-04-06T10:58:59Z</time></trkpt><trkpt lat="45.60423548094342" lon="12.17415269200212"><ele>12.0</ele><time>2026-04-06T10:59:00Z</time></trkpt><trkpt lat="45.60411000187217" lon="12.174214850684498"><ele>12.0</ele><time>2026-04-06T10:59:01Z</time></trkpt><trkpt lat="45.60400937308191" lon="12.174306553961754"><ele>12.0</ele><time>2026-04-06T10:59:02Z</time></trkpt><trkpt lat="45.60390851263844" lon="12.174372331811005"><ele>12.0</ele><time>2026-04-06T10:59:03Z</time></trkpt><trkpt lat="45.60378874566901" lon="12.174454403355275"><ele>12.0</ele><time>2026-04-06T10:59:04Z</time></trkpt><trkpt lat="45.60365222511564" lon="12.17455503858275"><ele>12.0</ele><time>2026-04-06T10:59:05Z</time></trkpt><trkpt lat="45.60349840248175" lon="12.174665529962356"><ele>12.0</ele><time>2026-04-06T10:59:06Z</time></trkpt><trkpt lat="45.603361571135935" lon="12.174768025607715"><ele>12.0</ele><time>2026-04-06T10:59:07Z</time></trkpt><trkpt lat="45.60322632997686" lon="12.174892657127808"><ele>12.0</ele><time>2026-04-06T10:59:08Z</time></trkpt><trkpt lat="45.60307590573039" lon="12.175037593590424"><ele>11.666666666666666</ele><time>2026-04-06T10:59:09Z</time></trkpt><trkpt lat="45.602916318082244" lon="12.175199192571709"><ele>11.333333333333332</ele><time>2026-04-06T10:59:10Z</time></trkpt><trkpt lat="45.60274321154211" lon="12.175374763032053"><ele>11.0</ele><time>2026-04-06T10:59:11Z</time></trkpt><trkpt lat="45.602569468104164" lon="12.175573767371642"><ele>12.5</ele><time>2026-04-06T10:59:12Z</time></trkpt><trkpt lat="45.60240201437703" lon="12.17579615547467"><ele>14.0</ele><time>2026-04-06T10:59:13Z</time></trkpt><trkpt lat="45.602237842139466" lon="12.17602078618062"><ele>14.0</ele><time>2026-04-06T10:59:14Z</time></trkpt><trkpt lat="45.602099904785845" lon="12.176234342665756"><ele>14.0</ele><time>2026-04-06T10:59:15.001Z</time></trkpt><trkpt lat="45.60194350541722" lon="12.176441741711999"><ele>14.0</ele><time>2026-04-06T10:59:16.001Z</time></trkpt><trkpt lat="45.60178665888308" lon="12.176667083036461"><ele>13.0</ele><time>2026-04-06T10:59:17.001Z</time></trkpt><trkpt lat="45.601625191888644" lon="12.176899750090147"><ele>12.0</ele><time>2026-04-06T10:59:18.001Z</time></trkpt><trkpt lat="45.60147142261792" lon="12.177122579075347"><ele>11.0</ele><time>2026-04-06T10:59:19.001Z</time></trkpt><trkpt lat="45.60133646790469" lon="12.177317548190933"><ele>11.0</ele><time>2026-04-06T10:59:20.001Z</time></trkpt><trkpt lat="45.60120621943252" lon="12.177535928310956"><ele>11.0</ele><time>2026-04-06T10:59:21.001Z</time></trkpt><trkpt lat="45.60106840352105" lon="12.177717981065173"><ele>11.0</ele><time>2026-04-06T10:59:22.001Z</time></trkpt><trkpt lat="45.600943120220066" lon="12.177892106405144"><ele>11.333333333333332</ele><time>2026-04-06T10:59:23.001Z</time></trkpt><trkpt lat="45.600816463865456" lon="12.178058116153652"><ele>11.666666666666666</ele><time>2026-04-06T10:59:24.001Z</time></trkpt><trkpt lat="45.60070042932846" lon="12.178204314193101"><ele>12.0</ele><time>2026-04-06T10:59:25.001Z</time></trkpt><trkpt lat="45.60060405680656" lon="12.178339586905553"><ele>11.666666666666666</ele><time>2026-04-06T10:59:26.001Z</time></trkpt><trkpt lat="45.60052371323548" lon="12.178445399125826"><ele>11.333333333333334</ele><time>2026-04-06T10:59:27.001Z</time></trkpt><trkpt lat="45.60044761388268" lon="12.178522911948361"><ele>11.0</ele><time>2026-04-06T10:59:28.001Z</time></trkpt><trkpt lat="45.60036281405705" lon="12.17854657112702"><ele>10.666666666666668</ele><time>2026-04-06T10:59:29.001Z</time></trkpt><trkpt lat="45.600286901076224" lon="12.17857184458909"><ele>10.333333333333334</ele><time>2026-04-06T10:59:30.001Z</time></trkpt><trkpt lat="45.600220511539405" lon="12.178600885483974"><ele>10.0</ele><time>2026-04-06T10:59:31.001Z</time></trkpt><trkpt lat="45.600150179678344" lon="12.178623875212544"><ele>10.0</ele><time>2026-04-06T10:59:32.001Z</time></trkpt><trkpt lat="45.60010690777557" lon="12.178747217696523"><ele>10.0</ele><time>2026-04-06T10:59:33.001Z</time></trkpt><trkpt lat="45.60007527785076" lon="12.178924202426016"><ele>10.0</ele><time>2026-04-06T10:59:34.001Z</time></trkpt><trkpt lat="45.6000287896309" lon="12.179123897266962"><ele>10.0</ele><time>2026-04-06T10:59:35.001Z</time></trkpt><trkpt lat="45.599945837519314" lon="12.17927905248644"><ele>10.4</ele><time>2026-04-06T10:59:36.001Z</time></trkpt><trkpt lat="45.59987047872507" lon="12.179404936904577"><ele>10.8</ele><time>2026-04-06T10:59:37.001Z</time></trkpt><trkpt lat="45.59980723928857" lon="12.179499425730572"><ele>11.2</ele><time>2026-04-06T10:59:38.001Z</time></trkpt><trkpt lat="45.599749388600536" lon="12.179551725607096"><ele>11.6</ele><time>2026-04-06T10:59:39.001Z</time></trkpt><trkpt lat="45.59982645833244" lon="12.17974993257791"><ele>12.0</ele><time>2026-04-06T10:59:41.001Z</time></trkpt><trkpt lat="45.59991727445534" lon="12.179791556704512"><ele>12.5</ele><time>2026-04-06T10:59:42.001Z</time></trkpt><trkpt lat="45.599993909822494" lon="12.17992940477365"><ele>13.0</ele><time>2026-04-06T10:59:43.001Z</time></trkpt><trkpt lat="45.60006683745537" lon="12.180042539004559"><ele>13.5</ele><time>2026-04-06T10:59:44.001Z</time></trkpt><trkpt lat="45.60009393628782" lon="12.180201162590722"><ele>14.0</ele><time>2026-04-06T10:59:45.001Z</time></trkpt><trkpt lat="45.60003861315156" lon="12.180363559635177"><ele>14.0</ele><time>2026-04-06T10:59:46.001Z</time></trkpt><trkpt lat="45.59997922874081" lon="12.180509668521164"><ele>14.0</ele><time>2026-04-06T10:59:47.001Z</time></trkpt><trkpt lat="45.599894143685454" lon="12.180682221882781"><ele>14.0</ele><time>2026-04-06T10:59:48.001Z</time></trkpt><trkpt lat="45.599798134162434" lon="12.180879342847339"><ele>14.0</ele><time>2026-04-06T10:59:49.001Z</time></trkpt><trkpt lat="45.59966869111437" lon="12.181075042994376"><ele>13.666666666666668</ele><time>2026-04-06T10:59:50.001Z</time></trkpt><trkpt lat="45.599529231806166" lon="12.18130924190725"><ele>13.333333333333332</ele><time>2026-04-06T10:59:51.001Z</time></trkpt><trkpt lat="45.59939600660038" lon="12.181536394415266"><ele>13.0</ele><time>2026-04-06T10:59:52.001Z</time></trkpt><trkpt lat="45.59927799980174" lon="12.181759326725782"><ele>13.333333333333332</ele><time>2026-04-06T10:59:53.001Z</time></trkpt><trkpt lat="45.59916736194974" lon="12.181984626658158"><ele>13.666666666666668</ele><time>2026-04-06T10:59:54.001Z</time></trkpt><trkpt lat="45.59908371538033" lon="12.182221374873333"><ele>14.0</ele><time>2026-04-06T10:59:55.001Z</time></trkpt><trkpt lat="45.59902200294382" lon="12.182460632117595"><ele>14.0</ele><time>2026-04-06T10:59:56.001Z</time></trkpt><trkpt lat="45.59898331101361" lon="12.182723215653434"><ele>14.0</ele><time>2026-04-06T10:59:57.001Z</time></trkpt><trkpt lat="45.59897420881389" lon="12.183014219580718"><ele>14.0</ele><time>2026-04-06T10:59:58.001Z</time></trkpt><trkpt lat="45.59898730007751" lon="12.183336329582454"><ele>13.0</ele><time>2026-04-06T10:59:59.001Z</time></trkpt><trkpt lat="45.59897416073958" lon="12.183669308893162"><ele>12.0</ele><time>2026-04-06T11:00:00.001Z</time></trkpt><trkpt lat="45.59897491015307" lon="12.183984426880388"><ele>12.0</ele><time>2026-04-06T11:00:01.001Z</time></trkpt><trkpt lat="45.59897541029663" lon="12.18427145668092"><ele>12.0</ele><time>2026-04-06T11:00:02.001Z</time></trkpt><trkpt lat="45.598975878057274" lon="12.184539902151599"><ele>12.0</ele><time>2026-04-06T11:00:03.001Z</time></trkpt><trkpt lat="45.59897630075276" lon="12.184782485031146"><ele>11.8</ele><time>2026-04-06T11:00:04.001Z</time></trkpt><trkpt lat="45.59897717882254" lon="12.184984871287922"><ele>11.6</ele><time>2026-04-06T11:00:05.001Z</time></trkpt><trkpt lat="45.59899606581303" lon="12.185152114771522"><ele>11.4</ele><time>2026-04-06T11:00:06.001Z</time></trkpt><trkpt lat="45.59898966853898" lon="12.185283487210423"><ele>11.200000000000001</ele><time>2026-04-06T11:00:07.001Z</time></trkpt><trkpt lat="45.59901528859896" lon="12.18540344958644"><ele>11.0</ele><time>2026-04-06T11:00:08.001Z</time></trkpt><trkpt lat="45.59905238099681" lon="12.185511313650425"><ele>11.0</ele><time>2026-04-06T11:00:09.001Z</time></trkpt><trkpt lat="45.59917529986844" lon="12.185554433321128"><ele>11.0</ele><time>2026-04-06T11:00:10.001Z</time></trkpt><trkpt lat="45.59928934837366" lon="12.185573505847316"><ele>11.0</ele><time>2026-04-06T11:00:11.001Z</time></trkpt><trkpt lat="45.59943661117209" lon="12.185562580683209"><ele>11.0</ele><time>2026-04-06T11:00:12.001Z</time></trkpt><trkpt lat="45.599602184987404" lon="12.185554459286305"><ele>11.333333333333332</ele><time>2026-04-06T11:00:13.001Z</time></trkpt><trkpt lat="45.5997886204787" lon="12.185568710720315"><ele>11.666666666666666</ele><time>2026-04-06T11:00:14.001Z</time></trkpt><trkpt lat="45.59998092273653" lon="12.185574319452583"><ele>12.0</ele><time>2026-04-06T11:00:15.001Z</time></trkpt><trkpt lat="45.600148638651156" lon="12.185575879995266"><ele>12.0</ele><time>2026-04-06T11:00:16.001Z</time></trkpt><trkpt lat="45.60030215808003" lon="12.185594225422573"><ele>12.0</ele><time>2026-04-06T11:00:17.001Z</time></trkpt><trkpt lat="45.600446938070675" lon="12.18560385470429"><ele>12.0</ele><time>2026-04-06T11:00:18.001Z</time></trkpt><trkpt lat="45.60058152628179" lon="12.185608128921851"><ele>12.0</ele><time>2026-04-06T11:00:19.001Z</time></trkpt><trkpt lat="45.60070687517734" lon="12.185633199272406"><ele>11.75</ele><time>2026-04-06T11:00:20.001Z</time></trkpt><trkpt lat="45.600826367155015" lon="12.185683190981722"><ele>11.5</ele><time>2026-04-06T11:00:21.001Z</time></trkpt><trkpt lat="45.60094187667258" lon="12.18577644065825"><ele>11.25</ele><time>2026-04-06T11:00:22.001Z</time></trkpt><trkpt lat="45.601023241713506" lon="12.185914773726186"><ele>11.0</ele><time>2026-04-06T11:00:23.001Z</time></trkpt><trkpt lat="45.601100011267775" lon="12.186065924937147"><ele>11.0</ele><time>2026-04-06T11:00:24.001Z</time></trkpt><trkpt lat="45.60111485173748" lon="12.186281596557327"><ele>11.0</ele><time>2026-04-06T11:00:25.001Z</time></trkpt><trkpt lat="45.60113899643709" lon="12.186512707628511"><ele>11.0</ele><time>2026-04-06T11:00:26.001Z</time></trkpt><trkpt lat="45.6011696508884" lon="12.186766857046182"><ele>11.0</ele><time>2026-04-06T11:00:27.001Z</time></trkpt><trkpt lat="45.601195286590645" lon="12.187030621429326"><ele>11.0</ele><time>2026-04-06T11:00:28.001Z</time></trkpt><trkpt lat="45.60121739543098" lon="12.187275721156544"><ele>11.0</ele><time>2026-04-06T11:00:29.001Z</time></trkpt><trkpt lat="45.60124082589502" lon="12.187504952820197"><ele>11.0</ele><time>2026-04-06T11:00:30.001Z</time></trkpt><trkpt lat="45.601284354922974" lon="12.18771756273988"><ele>11.0</ele><time>2026-04-06T11:00:31.001Z</time></trkpt><trkpt lat="45.60136184338228" lon="12.18791334680888"><ele>11.0</ele><time>2026-04-06T11:00:32.001Z</time></trkpt><trkpt lat="45.601470491671364" lon="12.188095322857766"><ele>11.0</ele><time>2026-04-06T11:00:33.001Z</time></trkpt><trkpt lat="45.601618831843844" lon="12.188231250643318"><ele>11.0</ele><time>2026-04-06T11:00:34.001Z</time></trkpt><trkpt lat="45.60178680162069" lon="12.188328629257292"><ele>11.0</ele><time>2026-04-06T11:00:35.001Z</time></trkpt><trkpt lat="45.60192584456564" lon="12.188455947579735"><ele>10.666666666666666</ele><time>2026-04-06T11:00:36Z</time></trkpt><trkpt lat="45.602036773279124" lon="12.18860825316742"><ele>10.333333333333334</ele><time>2026-04-06T11:00:37Z</time></trkpt><trkpt lat="45.60213295776452" lon="12.188779654610242"><ele>10.0</ele><time>2026-04-06T11:00:38Z</time></trkpt><trkpt lat="45.602195515159686" lon="12.189001757583657"><ele>10.0</ele><time>2026-04-06T11:00:39Z</time></trkpt><trkpt lat="45.60220910093995" lon="12.18926642497693"><ele>10.0</ele><time>2026-04-06T11:00:40Z</time></trkpt><trkpt lat="45.60218844522916" lon="12.189573291580123"><ele>10.0</ele><time>2026-04-06T11:00:41Z</time></trkpt><trkpt lat="45.60214673379365" lon="12.189899470762406"><ele>10.0</ele><time>2026-04-06T11:00:42Z</time></trkpt><trkpt lat="45.60211427629465" lon="12.190245788423374"><ele>10.0</ele><time>2026-04-06T11:00:43Z</time></trkpt><trkpt lat="45.60208987537645" lon="12.190605943100293"><ele>10.5</ele><time>2026-04-06T11:00:44Z</time></trkpt><trkpt lat="45.602073767968704" lon="12.190981917765049"><ele>11.0</ele><time>2026-04-06T11:00:45Z</time></trkpt><trkpt lat="45.60205757644562" lon="12.191370329807562"><ele>11.0</ele><time>2026-04-06T11:00:46Z</time></trkpt><trkpt lat="45.60203330066733" lon="12.191752457594912"><ele>11.0</ele><time>2026-04-06T11:00:47Z</time></trkpt><trkpt lat="45.60200605676606" lon="12.192098214826096"><ele>11.0</ele><time>2026-04-06T11:00:48Z</time></trkpt><trkpt lat="45.60198654278504" lon="12.192419497635509"><ele>11.0</ele><time>2026-04-06T11:00:49Z</time></trkpt><trkpt lat="45.60197124659464" lon="12.192743375888297"><ele>11.0</ele><time>2026-04-06T11:00:50Z</time></trkpt><trkpt lat="45.601951639695194" lon="12.193062812343868"><ele>11.0</ele><time>2026-04-06T11:00:51Z</time></trkpt><trkpt lat="45.60193252784024" lon="12.193360541212176"><ele>11.0</ele><time>2026-04-06T11:00:52Z</time></trkpt><trkpt lat="45.6019129615499" lon="12.193638720463897"><ele>11.0</ele><time>2026-04-06T11:00:53Z</time></trkpt><trkpt lat="45.601894050379165" lon="12.193897288988234"><ele>11.0</ele><time>2026-04-06T11:00:54Z</time></trkpt><trkpt lat="45.601879244283445" lon="12.19414382300349"><ele>11.0</ele><time>2026-04-06T11:00:55Z</time></trkpt><trkpt lat="45.60186483928551" lon="12.194376925343597"><ele>11.0</ele><time>2026-04-06T11:00:56Z</time></trkpt><trkpt lat="45.6018496617067" lon="12.194582728657188"><ele>11.0</ele><time>2026-04-06T11:00:57Z</time></trkpt><trkpt lat="45.60183551636878" lon="12.194768014249545"><ele>11.0</ele><time>2026-04-06T11:00:58Z</time></trkpt><trkpt lat="45.60182422898294" lon="12.19493172995268"><ele>11.0</ele><time>2026-04-06T11:00:59Z</time></trkpt><trkpt lat="45.60181323453265" lon="12.195084321212878"><ele>10.8</ele><time>2026-04-06T11:01:00Z</time></trkpt><trkpt lat="45.601800847510724" lon="12.195228152040997"><ele>10.600000000000001</ele><time>2026-04-06T11:01:01Z</time></trkpt><trkpt lat="45.6017904554415" lon="12.195364687453507"><ele>10.4</ele><time>2026-04-06T11:01:02Z</time></trkpt><trkpt lat="45.60178235591773" lon="12.195495194290235"><ele>10.2</ele><time>2026-04-06T11:01:03Z</time></trkpt><trkpt lat="45.601774225009216" lon="12.195615218305456"><ele>10.0</ele><time>2026-04-06T11:01:04Z</time></trkpt><trkpt lat="45.60177025624357" lon="12.195730718162812"><ele>10.0</ele><time>2026-04-06T11:01:05Z</time></trkpt><trkpt lat="45.60176376694708" lon="12.195840923548458"><ele>10.0</ele><time>2026-04-06T11:01:06Z</time></trkpt><trkpt lat="45.601753963747505" lon="12.195935386810998"><ele>10.0</ele><time>2026-04-06T11:01:07Z</time></trkpt><trkpt lat="45.60174850127248" lon="12.196045749946563"><ele>10.0</ele><time>2026-04-06T11:01:09Z</time></trkpt><trkpt lat="45.60185021960833" lon="12.196106078753584"><ele>10.0</ele><time>2026-04-06T11:01:14Z</time></trkpt><trkpt lat="45.60193143494393" lon="12.196103337664871"><ele>10.0</ele><time>2026-04-06T11:01:17Z</time></trkpt><trkpt lat="45.60201247354371" lon="12.196108230687585"><ele>10.0</ele><time>2026-04-06T11:01:20Z</time></trkpt><trkpt lat="45.60210204849992" lon="12.196115234234508"><ele>10.0</ele><time>2026-04-06T11:01:23.002Z</time></trkpt><trkpt lat="45.602164964262585" lon="12.196120170172431"><ele>10.0</ele><time>2026-04-06T11:01:25.002Z</time></trkpt><trkpt lat="45.60226122736628" lon="12.196109348333861"><ele>10.0</ele><time>2026-04-06T11:01:28.002Z</time></trkpt><trkpt lat="45.60232838225591" lon="12.196122462724295"><ele>10.0</ele><time>2026-04-06T11:01:30.002Z</time></trkpt><trkpt lat="45.602401552500574" lon="12.19611932104916"><ele>10.0</ele><time>2026-04-06T11:01:32.002Z</time></trkpt><trkpt lat="45.60247505226702" lon="12.196124973422718"><ele>10.0</ele><time>2026-04-06T11:01:34.001Z</time></trkpt><trkpt lat="45.60255804682336" lon="12.19612430350821"><ele>10.0</ele><time>2026-04-06T11:01:36.001Z</time></trkpt><trkpt lat="45.60264013964028" lon="12.196137140461007"><ele>10.0</ele><time>2026-04-06T11:01:38.001Z</time></trkpt><trkpt lat="45.60272081863834" lon="12.196133997555645"><ele>10.0</ele><time>2026-04-06T11:01:40.001Z</time></trkpt><trkpt lat="45.602799588516675" lon="12.19614247497979"><ele>10.0</ele><time>2026-04-06T11:01:42.001Z</time></trkpt><trkpt lat="45.60288116732326" lon="12.19614666599069"><ele>10.0</ele><time>2026-04-06T11:01:44.001Z</time></trkpt><trkpt lat="45.60296572316504" lon="12.196155630979886"><ele>10.0</ele><time>2026-04-06T11:01:46.001Z</time></trkpt><trkpt lat="45.603040746540415" lon="12.196157835224922"><ele>10.0</ele><time>2026-04-06T11:01:48.001Z</time></trkpt><trkpt lat="45.60312054907154" lon="12.196158125366791"><ele>10.0</ele><time>2026-04-06T11:01:50.001Z</time></trkpt><trkpt lat="45.60320629597938" lon="12.19616474551391"><ele>10.0</ele><time>2026-04-06T11:01:52.001Z</time></trkpt><trkpt lat="45.603292299550034" lon="12.196168279975192"><ele>10.0</ele><time>2026-04-06T11:01:54.001Z</time></trkpt><trkpt lat="45.60338135246586" lon="12.19617225781113"><ele>10.0</ele><time>2026-04-06T11:01:56.001Z</time></trkpt><trkpt lat="45.603468932846056" lon="12.196178901641158"><ele>10.0</ele><time>2026-04-06T11:01:58.001Z</time></trkpt><trkpt lat="45.603548731867875" lon="12.19618637528193"><ele>10.0</ele><time>2026-04-06T11:02:00.001Z</time></trkpt><trkpt lat="45.60363784982174" lon="12.196184658599057"><ele>10.0</ele><time>2026-04-06T11:02:03.001Z</time></trkpt></trkseg></trk></gpx>